<?xml version="1.0" encoding="UTF-8" standalone="no" ?>
<gpx xmlns="http://www.topografix.com/GPX/1/1" xmlns:xsi="http://www.w3.org/2001/XMLSchema-instance" xsi:schemaLocation="http://www.topografix.com/GPX/1/1 http://www.topografix.com/GPX/1/1/gpx.xsd" version="1.1" creator="VisuGPX - https://www.visugpx.com">
  <metadata>
    <name>Caen - Clecy Voie verte</name>
  </metadata>
  <trk>
    <name><![CDATA[Caen - Clecy Voie verte_1]]></name>
    <trkseg>
      <trkpt lat="49.18867" lon="-0.401">
        <ele>52.6</ele>
        <time>2023-05-02T10:52:04Z</time>
      </trkpt>
      <trkpt lat="49.1887" lon="-0.40103">
        <ele>52.8</ele>
        <time>2023-05-02T10:52:05Z</time>
      </trkpt>
      <trkpt lat="49.18872" lon="-0.40106">
        <ele>53</ele>
        <time>2023-05-02T10:52:06Z</time>
      </trkpt>
      <trkpt lat="49.18875" lon="-0.4011">
        <ele>53.2</ele>
        <time>2023-05-02T10:52:07Z</time>
      </trkpt>
      <trkpt lat="49.18878" lon="-0.40114">
        <ele>53.4</ele>
        <time>2023-05-02T10:52:08Z</time>
      </trkpt>
      <trkpt lat="49.1888" lon="-0.40118">
        <ele>53.6</ele>
        <time>2023-05-02T10:52:09Z</time>
      </trkpt>
      <trkpt lat="49.18883" lon="-0.40121">
        <ele>53.8</ele>
        <time>2023-05-02T10:52:10Z</time>
      </trkpt>
      <trkpt lat="49.18885" lon="-0.40123">
        <ele>54</ele>
        <time>2023-05-02T10:52:11Z</time>
      </trkpt>
      <trkpt lat="49.18887" lon="-0.40125">
        <ele>54</ele>
        <time>2023-05-02T10:52:12Z</time>
      </trkpt>
      <trkpt lat="49.18888" lon="-0.40127">
        <ele>54</ele>
        <time>2023-05-02T10:52:13Z</time>
      </trkpt>
      <trkpt lat="49.18888" lon="-0.40129">
        <ele>54</ele>
        <time>2023-05-02T10:52:14Z</time>
      </trkpt>
      <trkpt lat="49.18888" lon="-0.40133">
        <ele>54</ele>
        <time>2023-05-02T10:52:15Z</time>
      </trkpt>
      <trkpt lat="49.18887" lon="-0.40137">
        <ele>54</ele>
        <time>2023-05-02T10:52:16Z</time>
      </trkpt>
      <trkpt lat="49.18887" lon="-0.40142">
        <ele>54</ele>
        <time>2023-05-02T10:52:17Z</time>
      </trkpt>
      <trkpt lat="49.18886" lon="-0.40146">
        <ele>54</ele>
        <time>2023-05-02T10:52:18Z</time>
      </trkpt>
      <trkpt lat="49.18884" lon="-0.40152">
        <ele>54</ele>
        <time>2023-05-02T10:52:19Z</time>
      </trkpt>
      <trkpt lat="49.18883" lon="-0.40157">
        <ele>54</ele>
        <time>2023-05-02T10:52:20Z</time>
      </trkpt>
      <trkpt lat="49.18882" lon="-0.40162">
        <ele>54</ele>
        <time>2023-05-02T10:52:21Z</time>
      </trkpt>
      <trkpt lat="49.18881" lon="-0.40168">
        <ele>54</ele>
        <time>2023-05-02T10:52:22Z</time>
      </trkpt>
      <trkpt lat="49.1888" lon="-0.40173">
        <ele>54</ele>
        <time>2023-05-02T10:52:23Z</time>
      </trkpt>
      <trkpt lat="49.18879" lon="-0.40179">
        <ele>54</ele>
        <time>2023-05-02T10:52:24Z</time>
      </trkpt>
      <trkpt lat="49.18878" lon="-0.40185">
        <ele>54</ele>
        <time>2023-05-02T10:52:25Z</time>
      </trkpt>
      <trkpt lat="49.18877" lon="-0.40191">
        <ele>54.2</ele>
        <time>2023-05-02T10:52:26Z</time>
      </trkpt>
      <trkpt lat="49.18877" lon="-0.40198">
        <ele>54.2</ele>
        <time>2023-05-02T10:52:27Z</time>
      </trkpt>
      <trkpt lat="49.18876" lon="-0.40204">
        <ele>54.6</ele>
        <time>2023-05-02T10:52:28Z</time>
      </trkpt>
      <trkpt lat="49.18876" lon="-0.40211">
        <ele>54.6</ele>
        <time>2023-05-02T10:52:29Z</time>
      </trkpt>
      <trkpt lat="49.18875" lon="-0.40217">
        <ele>54.8</ele>
        <time>2023-05-02T10:52:30Z</time>
      </trkpt>
      <trkpt lat="49.18875" lon="-0.40224">
        <ele>55</ele>
        <time>2023-05-02T10:52:31Z</time>
      </trkpt>
      <trkpt lat="49.18875" lon="-0.40231">
        <ele>55</ele>
        <time>2023-05-02T10:52:32Z</time>
      </trkpt>
      <trkpt lat="49.18875" lon="-0.40238">
        <ele>55.2</ele>
        <time>2023-05-02T10:52:33Z</time>
      </trkpt>
      <trkpt lat="49.18874" lon="-0.40244">
        <ele>55.2</ele>
        <time>2023-05-02T10:52:34Z</time>
      </trkpt>
      <trkpt lat="49.18873" lon="-0.40251">
        <ele>55.4</ele>
        <time>2023-05-02T10:52:35Z</time>
      </trkpt>
      <trkpt lat="49.18872" lon="-0.40258">
        <ele>55.6</ele>
        <time>2023-05-02T10:52:36Z</time>
      </trkpt>
      <trkpt lat="49.18871" lon="-0.40265">
        <ele>55.6</ele>
        <time>2023-05-02T10:52:37Z</time>
      </trkpt>
      <trkpt lat="49.1887" lon="-0.40272">
        <ele>55.8</ele>
        <time>2023-05-02T10:52:38Z</time>
      </trkpt>
      <trkpt lat="49.18869" lon="-0.40279">
        <ele>55.8</ele>
        <time>2023-05-02T10:52:39Z</time>
      </trkpt>
      <trkpt lat="49.18868" lon="-0.40286">
        <ele>56</ele>
        <time>2023-05-02T10:52:40Z</time>
      </trkpt>
      <trkpt lat="49.18868" lon="-0.40293">
        <ele>56</ele>
        <time>2023-05-02T10:52:41Z</time>
      </trkpt>
      <trkpt lat="49.18867" lon="-0.403">
        <ele>56.2</ele>
        <time>2023-05-02T10:52:42Z</time>
      </trkpt>
      <trkpt lat="49.18867" lon="-0.40306">
        <ele>56.2</ele>
        <time>2023-05-02T10:52:43Z</time>
      </trkpt>
      <trkpt lat="49.18866" lon="-0.40313">
        <ele>56.6</ele>
        <time>2023-05-02T10:52:44Z</time>
      </trkpt>
      <trkpt lat="49.18865" lon="-0.4032">
        <ele>56.6</ele>
        <time>2023-05-02T10:52:45Z</time>
      </trkpt>
      <trkpt lat="49.18865" lon="-0.40327">
        <ele>56.8</ele>
        <time>2023-05-02T10:52:46Z</time>
      </trkpt>
      <trkpt lat="49.18864" lon="-0.40334">
        <ele>56.8</ele>
        <time>2023-05-02T10:52:47Z</time>
      </trkpt>
      <trkpt lat="49.18863" lon="-0.4034">
        <ele>57</ele>
        <time>2023-05-02T10:52:48Z</time>
      </trkpt>
      <trkpt lat="49.18863" lon="-0.40347">
        <ele>57</ele>
        <time>2023-05-02T10:52:49Z</time>
      </trkpt>
      <trkpt lat="49.18862" lon="-0.40354">
        <ele>57</ele>
        <time>2023-05-02T10:52:50Z</time>
      </trkpt>
      <trkpt lat="49.18861" lon="-0.40362">
        <ele>57</ele>
        <time>2023-05-02T10:52:51Z</time>
      </trkpt>
      <trkpt lat="49.1886" lon="-0.40369">
        <ele>57.2</ele>
        <time>2023-05-02T10:52:52Z</time>
      </trkpt>
      <trkpt lat="49.18859" lon="-0.40376">
        <ele>57.2</ele>
        <time>2023-05-02T10:52:53Z</time>
      </trkpt>
      <trkpt lat="49.18859" lon="-0.40383">
        <ele>57.2</ele>
        <time>2023-05-02T10:52:54Z</time>
      </trkpt>
      <trkpt lat="49.18858" lon="-0.40391">
        <ele>57.4</ele>
        <time>2023-05-02T10:52:55Z</time>
      </trkpt>
      <trkpt lat="49.18857" lon="-0.40398">
        <ele>57.4</ele>
        <time>2023-05-02T10:52:56Z</time>
      </trkpt>
      <trkpt lat="49.18856" lon="-0.40406">
        <ele>57.6</ele>
        <time>2023-05-02T10:52:57Z</time>
      </trkpt>
      <trkpt lat="49.18855" lon="-0.40413">
        <ele>57.6</ele>
        <time>2023-05-02T10:52:58Z</time>
      </trkpt>
      <trkpt lat="49.18854" lon="-0.4042">
        <ele>57.6</ele>
        <time>2023-05-02T10:52:59Z</time>
      </trkpt>
      <trkpt lat="49.18854" lon="-0.40428">
        <ele>57.8</ele>
        <time>2023-05-02T10:53:00Z</time>
      </trkpt>
      <trkpt lat="49.18853" lon="-0.40436">
        <ele>58</ele>
        <time>2023-05-02T10:53:01Z</time>
      </trkpt>
      <trkpt lat="49.18852" lon="-0.40443">
        <ele>58.2</ele>
        <time>2023-05-02T10:53:02Z</time>
      </trkpt>
      <trkpt lat="49.18851" lon="-0.40451">
        <ele>58.4</ele>
        <time>2023-05-02T10:53:03Z</time>
      </trkpt>
      <trkpt lat="49.1885" lon="-0.40458">
        <ele>58.6</ele>
        <time>2023-05-02T10:53:04Z</time>
      </trkpt>
      <trkpt lat="49.18849" lon="-0.40466">
        <ele>58.8</ele>
        <time>2023-05-02T10:53:05Z</time>
      </trkpt>
      <trkpt lat="49.18848" lon="-0.40473">
        <ele>59</ele>
        <time>2023-05-02T10:53:06Z</time>
      </trkpt>
      <trkpt lat="49.18848" lon="-0.40481">
        <ele>59.2</ele>
        <time>2023-05-02T10:53:07Z</time>
      </trkpt>
      <trkpt lat="49.18847" lon="-0.40488">
        <ele>59.4</ele>
        <time>2023-05-02T10:53:08Z</time>
      </trkpt>
      <trkpt lat="49.18846" lon="-0.40495">
        <ele>59.6</ele>
        <time>2023-05-02T10:53:09Z</time>
      </trkpt>
      <trkpt lat="49.18845" lon="-0.40502">
        <ele>59.8</ele>
        <time>2023-05-02T10:53:10Z</time>
      </trkpt>
      <trkpt lat="49.18844" lon="-0.4051">
        <ele>59.8</ele>
        <time>2023-05-02T10:53:11Z</time>
      </trkpt>
      <trkpt lat="49.18843" lon="-0.40516">
        <ele>59.6</ele>
        <time>2023-05-02T10:53:12Z</time>
      </trkpt>
      <trkpt lat="49.18843" lon="-0.40523">
        <ele>59.6</ele>
        <time>2023-05-02T10:53:13Z</time>
      </trkpt>
      <trkpt lat="49.18842" lon="-0.4053">
        <ele>59.6</ele>
        <time>2023-05-02T10:53:14Z</time>
      </trkpt>
      <trkpt lat="49.18841" lon="-0.40536">
        <ele>59.6</ele>
        <time>2023-05-02T10:53:15Z</time>
      </trkpt>
      <trkpt lat="49.1884" lon="-0.40542">
        <ele>59.6</ele>
        <time>2023-05-02T10:53:16Z</time>
      </trkpt>
      <trkpt lat="49.1884" lon="-0.40548">
        <ele>59.4</ele>
        <time>2023-05-02T10:53:17Z</time>
      </trkpt>
      <trkpt lat="49.18839" lon="-0.40554">
        <ele>59.4</ele>
        <time>2023-05-02T10:53:18Z</time>
      </trkpt>
      <trkpt lat="49.18838" lon="-0.4056">
        <ele>59.2</ele>
        <time>2023-05-02T10:53:19Z</time>
      </trkpt>
      <trkpt lat="49.18837" lon="-0.40566">
        <ele>59.2</ele>
        <time>2023-05-02T10:53:20Z</time>
      </trkpt>
      <trkpt lat="49.18835" lon="-0.40571">
        <ele>59</ele>
        <time>2023-05-02T10:53:21Z</time>
      </trkpt>
      <trkpt lat="49.18833" lon="-0.40577">
        <ele>59</ele>
        <time>2023-05-02T10:53:22Z</time>
      </trkpt>
      <trkpt lat="49.18831" lon="-0.40582">
        <ele>59</ele>
        <time>2023-05-02T10:53:23Z</time>
      </trkpt>
      <trkpt lat="49.18828" lon="-0.40586">
        <ele>58.8</ele>
        <time>2023-05-02T10:53:24Z</time>
      </trkpt>
      <trkpt lat="49.18824" lon="-0.40588">
        <ele>58.6</ele>
        <time>2023-05-02T10:53:25Z</time>
      </trkpt>
      <trkpt lat="49.1882" lon="-0.40588">
        <ele>58.2</ele>
        <time>2023-05-02T10:53:26Z</time>
      </trkpt>
      <trkpt lat="49.18815" lon="-0.40587">
        <ele>58</ele>
        <time>2023-05-02T10:53:27Z</time>
      </trkpt>
      <trkpt lat="49.18809" lon="-0.40586">
        <ele>57.6</ele>
        <time>2023-05-02T10:53:28Z</time>
      </trkpt>
      <trkpt lat="49.18804" lon="-0.40586">
        <ele>57.2</ele>
        <time>2023-05-02T10:53:29Z</time>
      </trkpt>
      <trkpt lat="49.18798" lon="-0.40587">
        <ele>57</ele>
        <time>2023-05-02T10:53:30Z</time>
      </trkpt>
      <trkpt lat="49.18793" lon="-0.40588">
        <ele>56.8</ele>
        <time>2023-05-02T10:53:31Z</time>
      </trkpt>
      <trkpt lat="49.18788" lon="-0.40589">
        <ele>56.4</ele>
        <time>2023-05-02T10:53:32Z</time>
      </trkpt>
      <trkpt lat="49.18785" lon="-0.4059">
        <ele>56.2</ele>
        <time>2023-05-02T10:53:33Z</time>
      </trkpt>
      <trkpt lat="49.18782" lon="-0.4059">
        <ele>56</ele>
        <time>2023-05-02T10:53:34Z</time>
      </trkpt>
      <trkpt lat="49.1878" lon="-0.40588">
        <ele>55.8</ele>
        <time>2023-05-02T10:53:35Z</time>
      </trkpt>
      <trkpt lat="49.18778" lon="-0.40584">
        <ele>55.8</ele>
        <time>2023-05-02T10:53:36Z</time>
      </trkpt>
      <trkpt lat="49.18776" lon="-0.4058">
        <ele>55.6</ele>
        <time>2023-05-02T10:53:37Z</time>
      </trkpt>
      <trkpt lat="49.18774" lon="-0.40574">
        <ele>55.4</ele>
        <time>2023-05-02T10:53:38Z</time>
      </trkpt>
      <trkpt lat="49.18772" lon="-0.40567">
        <ele>55.2</ele>
        <time>2023-05-02T10:53:39Z</time>
      </trkpt>
      <trkpt lat="49.18771" lon="-0.4056">
        <ele>55</ele>
        <time>2023-05-02T10:53:40Z</time>
      </trkpt>
      <trkpt lat="49.18769" lon="-0.40552">
        <ele>55</ele>
        <time>2023-05-02T10:53:41Z</time>
      </trkpt>
      <trkpt lat="49.18768" lon="-0.40543">
        <ele>54.8</ele>
        <time>2023-05-02T10:53:42Z</time>
      </trkpt>
      <trkpt lat="49.18767" lon="-0.40534">
        <ele>54.6</ele>
        <time>2023-05-02T10:53:43Z</time>
      </trkpt>
      <trkpt lat="49.18765" lon="-0.40525">
        <ele>54.2</ele>
        <time>2023-05-02T10:53:44Z</time>
      </trkpt>
      <trkpt lat="49.18763" lon="-0.40515">
        <ele>54</ele>
        <time>2023-05-02T10:53:45Z</time>
      </trkpt>
      <trkpt lat="49.1876" lon="-0.40505">
        <ele>53.8</ele>
        <time>2023-05-02T10:53:46Z</time>
      </trkpt>
      <trkpt lat="49.18757" lon="-0.40495">
        <ele>53.4</ele>
        <time>2023-05-02T10:53:47Z</time>
      </trkpt>
      <trkpt lat="49.18754" lon="-0.40485">
        <ele>53</ele>
        <time>2023-05-02T10:53:48Z</time>
      </trkpt>
      <trkpt lat="49.18751" lon="-0.40475">
        <ele>52.6</ele>
        <time>2023-05-02T10:53:49Z</time>
      </trkpt>
      <trkpt lat="49.18748" lon="-0.40465">
        <ele>52</ele>
        <time>2023-05-02T10:53:50Z</time>
      </trkpt>
      <trkpt lat="49.18745" lon="-0.40455">
        <ele>51.6</ele>
        <time>2023-05-02T10:53:51Z</time>
      </trkpt>
      <trkpt lat="49.18742" lon="-0.40446">
        <ele>51.2</ele>
        <time>2023-05-02T10:53:52Z</time>
      </trkpt>
      <trkpt lat="49.1874" lon="-0.40436">
        <ele>51</ele>
        <time>2023-05-02T10:53:53Z</time>
      </trkpt>
      <trkpt lat="49.18738" lon="-0.40428">
        <ele>50.6</ele>
        <time>2023-05-02T10:53:54Z</time>
      </trkpt>
      <trkpt lat="49.18736" lon="-0.4042">
        <ele>50.4</ele>
        <time>2023-05-02T10:53:55Z</time>
      </trkpt>
      <trkpt lat="49.18734" lon="-0.40413">
        <ele>50</ele>
        <time>2023-05-02T10:53:56Z</time>
      </trkpt>
      <trkpt lat="49.18732" lon="-0.40407">
        <ele>50</ele>
        <time>2023-05-02T10:53:57Z</time>
      </trkpt>
      <trkpt lat="49.18731" lon="-0.40402">
        <ele>49.8</ele>
        <time>2023-05-02T10:53:58Z</time>
      </trkpt>
      <trkpt lat="49.18729" lon="-0.40399">
        <ele>49.6</ele>
        <time>2023-05-02T10:53:59Z</time>
      </trkpt>
      <trkpt lat="49.18728" lon="-0.40396">
        <ele>49.6</ele>
        <time>2023-05-02T10:54:00Z</time>
      </trkpt>
      <trkpt lat="49.18727" lon="-0.40393">
        <ele>49.4</ele>
        <time>2023-05-02T10:54:01Z</time>
      </trkpt>
      <trkpt lat="49.18726" lon="-0.40392">
        <ele>49.2</ele>
        <time>2023-05-02T10:54:02Z</time>
      </trkpt>
      <trkpt lat="49.18725" lon="-0.4039">
        <ele>49.2</ele>
        <time>2023-05-02T10:54:03Z</time>
      </trkpt>
      <trkpt lat="49.18725" lon="-0.40389">
        <ele>49.2</ele>
        <time>2023-05-02T10:54:04Z</time>
      </trkpt>
      <trkpt lat="49.18724" lon="-0.40388">
        <ele>49.2</ele>
        <time>2023-05-02T10:54:05Z</time>
      </trkpt>
      <trkpt lat="49.18723" lon="-0.40387">
        <ele>49</ele>
        <time>2023-05-02T10:54:06Z</time>
      </trkpt>
      <trkpt lat="49.18723" lon="-0.40386">
        <ele>49</ele>
        <time>2023-05-02T10:54:07Z</time>
      </trkpt>
      <trkpt lat="49.18723" lon="-0.40385">
        <ele>49</ele>
        <time>2023-05-02T10:54:08Z</time>
      </trkpt>
      <trkpt lat="49.18722" lon="-0.40385">
        <ele>49</ele>
        <time>2023-05-02T10:54:09Z</time>
      </trkpt>
      <trkpt lat="49.18722" lon="-0.40384">
        <ele>49</ele>
        <time>2023-05-02T10:54:10Z</time>
      </trkpt>
      <trkpt lat="49.18722" lon="-0.40384">
        <ele>49</ele>
        <time>2023-05-02T10:54:11Z</time>
      </trkpt>
      <trkpt lat="49.18722" lon="-0.40384">
        <ele>49</ele>
        <time>2023-05-02T10:54:12Z</time>
      </trkpt>
      <trkpt lat="49.18722" lon="-0.40384">
        <ele>49</ele>
        <time>2023-05-02T10:54:13Z</time>
      </trkpt>
      <trkpt lat="49.18722" lon="-0.40384">
        <ele>49</ele>
        <time>2023-05-02T10:54:14Z</time>
      </trkpt>
      <trkpt lat="49.18722" lon="-0.40383">
        <ele>49</ele>
        <time>2023-05-02T10:54:15Z</time>
      </trkpt>
      <trkpt lat="49.18721" lon="-0.40382">
        <ele>49</ele>
        <time>2023-05-02T10:54:16Z</time>
      </trkpt>
      <trkpt lat="49.18719" lon="-0.40381">
        <ele>48.8</ele>
        <time>2023-05-02T10:54:17Z</time>
      </trkpt>
      <trkpt lat="49.18717" lon="-0.40382">
        <ele>48.8</ele>
        <time>2023-05-02T10:54:18Z</time>
      </trkpt>
      <trkpt lat="49.18714" lon="-0.40383">
        <ele>48.6</ele>
        <time>2023-05-02T10:54:19Z</time>
      </trkpt>
      <trkpt lat="49.1871" lon="-0.40385">
        <ele>48.6</ele>
        <time>2023-05-02T10:54:20Z</time>
      </trkpt>
      <trkpt lat="49.18707" lon="-0.40387">
        <ele>48.4</ele>
        <time>2023-05-02T10:54:21Z</time>
      </trkpt>
      <trkpt lat="49.18703" lon="-0.4039">
        <ele>48.2</ele>
        <time>2023-05-02T10:54:22Z</time>
      </trkpt>
      <trkpt lat="49.18699" lon="-0.40393">
        <ele>48.2</ele>
        <time>2023-05-02T10:54:23Z</time>
      </trkpt>
      <trkpt lat="49.18695" lon="-0.40397">
        <ele>48</ele>
        <time>2023-05-02T10:54:24Z</time>
      </trkpt>
      <trkpt lat="49.18691" lon="-0.40402">
        <ele>48</ele>
        <time>2023-05-02T10:54:25Z</time>
      </trkpt>
      <trkpt lat="49.18686" lon="-0.40406">
        <ele>47.8</ele>
        <time>2023-05-02T10:54:26Z</time>
      </trkpt>
      <trkpt lat="49.18682" lon="-0.40411">
        <ele>47.8</ele>
        <time>2023-05-02T10:54:27Z</time>
      </trkpt>
      <trkpt lat="49.18677" lon="-0.40415">
        <ele>47.6</ele>
        <time>2023-05-02T10:54:28Z</time>
      </trkpt>
      <trkpt lat="49.18673" lon="-0.4042">
        <ele>47.2</ele>
        <time>2023-05-02T10:54:29Z</time>
      </trkpt>
      <trkpt lat="49.18668" lon="-0.40425">
        <ele>47</ele>
        <time>2023-05-02T10:54:30Z</time>
      </trkpt>
      <trkpt lat="49.18663" lon="-0.4043">
        <ele>46.8</ele>
        <time>2023-05-02T10:54:31Z</time>
      </trkpt>
      <trkpt lat="49.18658" lon="-0.40435">
        <ele>46.6</ele>
        <time>2023-05-02T10:54:32Z</time>
      </trkpt>
      <trkpt lat="49.18652" lon="-0.4044">
        <ele>46.2</ele>
        <time>2023-05-02T10:54:33Z</time>
      </trkpt>
      <trkpt lat="49.18647" lon="-0.40446">
        <ele>46</ele>
        <time>2023-05-02T10:54:34Z</time>
      </trkpt>
      <trkpt lat="49.18642" lon="-0.40451">
        <ele>45.8</ele>
        <time>2023-05-02T10:54:35Z</time>
      </trkpt>
      <trkpt lat="49.18636" lon="-0.40457">
        <ele>45.6</ele>
        <time>2023-05-02T10:54:36Z</time>
      </trkpt>
      <trkpt lat="49.18631" lon="-0.40462">
        <ele>45.4</ele>
        <time>2023-05-02T10:54:37Z</time>
      </trkpt>
      <trkpt lat="49.18625" lon="-0.40468">
        <ele>45.2</ele>
        <time>2023-05-02T10:54:38Z</time>
      </trkpt>
      <trkpt lat="49.1862" lon="-0.40474">
        <ele>45</ele>
        <time>2023-05-02T10:54:39Z</time>
      </trkpt>
      <trkpt lat="49.18614" lon="-0.4048">
        <ele>44.8</ele>
        <time>2023-05-02T10:54:40Z</time>
      </trkpt>
      <trkpt lat="49.18609" lon="-0.40487">
        <ele>44.8</ele>
        <time>2023-05-02T10:54:41Z</time>
      </trkpt>
      <trkpt lat="49.18603" lon="-0.40493">
        <ele>44.6</ele>
        <time>2023-05-02T10:54:42Z</time>
      </trkpt>
      <trkpt lat="49.18598" lon="-0.405">
        <ele>44.2</ele>
        <time>2023-05-02T10:54:43Z</time>
      </trkpt>
      <trkpt lat="49.18592" lon="-0.40506">
        <ele>44.2</ele>
        <time>2023-05-02T10:54:44Z</time>
      </trkpt>
      <trkpt lat="49.18587" lon="-0.40513">
        <ele>44.2</ele>
        <time>2023-05-02T10:54:45Z</time>
      </trkpt>
      <trkpt lat="49.18581" lon="-0.4052">
        <ele>44.2</ele>
        <time>2023-05-02T10:54:46Z</time>
      </trkpt>
      <trkpt lat="49.18576" lon="-0.40527">
        <ele>44.2</ele>
        <time>2023-05-02T10:54:47Z</time>
      </trkpt>
      <trkpt lat="49.1857" lon="-0.40534">
        <ele>44.2</ele>
        <time>2023-05-02T10:54:48Z</time>
      </trkpt>
      <trkpt lat="49.18565" lon="-0.4054">
        <ele>44</ele>
        <time>2023-05-02T10:54:49Z</time>
      </trkpt>
      <trkpt lat="49.18559" lon="-0.40547">
        <ele>44.2</ele>
        <time>2023-05-02T10:54:50Z</time>
      </trkpt>
      <trkpt lat="49.18554" lon="-0.40554">
        <ele>44.2</ele>
        <time>2023-05-02T10:54:51Z</time>
      </trkpt>
      <trkpt lat="49.18549" lon="-0.40561">
        <ele>44.2</ele>
        <time>2023-05-02T10:54:52Z</time>
      </trkpt>
      <trkpt lat="49.18545" lon="-0.40567">
        <ele>44.2</ele>
        <time>2023-05-02T10:54:53Z</time>
      </trkpt>
      <trkpt lat="49.1854" lon="-0.40573">
        <ele>44.2</ele>
        <time>2023-05-02T10:54:54Z</time>
      </trkpt>
      <trkpt lat="49.18537" lon="-0.40577">
        <ele>44.2</ele>
        <time>2023-05-02T10:54:55Z</time>
      </trkpt>
      <trkpt lat="49.18535" lon="-0.40581">
        <ele>44.4</ele>
        <time>2023-05-02T10:54:56Z</time>
      </trkpt>
      <trkpt lat="49.18532" lon="-0.40583">
        <ele>44.4</ele>
        <time>2023-05-02T10:54:57Z</time>
      </trkpt>
      <trkpt lat="49.1853" lon="-0.40583">
        <ele>44.4</ele>
        <time>2023-05-02T10:54:58Z</time>
      </trkpt>
      <trkpt lat="49.18527" lon="-0.40582">
        <ele>44.2</ele>
        <time>2023-05-02T10:54:59Z</time>
      </trkpt>
      <trkpt lat="49.18524" lon="-0.4058">
        <ele>44.2</ele>
        <time>2023-05-02T10:55:00Z</time>
      </trkpt>
      <trkpt lat="49.18521" lon="-0.40576">
        <ele>44</ele>
        <time>2023-05-02T10:55:01Z</time>
      </trkpt>
      <trkpt lat="49.18517" lon="-0.40572">
        <ele>44</ele>
        <time>2023-05-02T10:55:02Z</time>
      </trkpt>
      <trkpt lat="49.18513" lon="-0.40567">
        <ele>43.8</ele>
        <time>2023-05-02T10:55:03Z</time>
      </trkpt>
      <trkpt lat="49.1851" lon="-0.40561">
        <ele>43.6</ele>
        <time>2023-05-02T10:55:04Z</time>
      </trkpt>
      <trkpt lat="49.18506" lon="-0.40556">
        <ele>43.4</ele>
        <time>2023-05-02T10:55:05Z</time>
      </trkpt>
      <trkpt lat="49.18501" lon="-0.4055">
        <ele>43.2</ele>
        <time>2023-05-02T10:55:06Z</time>
      </trkpt>
      <trkpt lat="49.18497" lon="-0.40544">
        <ele>43</ele>
        <time>2023-05-02T10:55:07Z</time>
      </trkpt>
      <trkpt lat="49.18493" lon="-0.40538">
        <ele>42.8</ele>
        <time>2023-05-02T10:55:08Z</time>
      </trkpt>
      <trkpt lat="49.18488" lon="-0.40532">
        <ele>42.6</ele>
        <time>2023-05-02T10:55:09Z</time>
      </trkpt>
      <trkpt lat="49.18484" lon="-0.40526">
        <ele>42.4</ele>
        <time>2023-05-02T10:55:10Z</time>
      </trkpt>
      <trkpt lat="49.18479" lon="-0.4052">
        <ele>42.2</ele>
        <time>2023-05-02T10:55:11Z</time>
      </trkpt>
      <trkpt lat="49.18475" lon="-0.40514">
        <ele>42.2</ele>
        <time>2023-05-02T10:55:12Z</time>
      </trkpt>
      <trkpt lat="49.1847" lon="-0.40508">
        <ele>42</ele>
        <time>2023-05-02T10:55:13Z</time>
      </trkpt>
      <trkpt lat="49.18466" lon="-0.40501">
        <ele>42</ele>
        <time>2023-05-02T10:55:14Z</time>
      </trkpt>
      <trkpt lat="49.18461" lon="-0.40494">
        <ele>42</ele>
        <time>2023-05-02T10:55:15Z</time>
      </trkpt>
      <trkpt lat="49.18457" lon="-0.40488">
        <ele>42</ele>
        <time>2023-05-02T10:55:16Z</time>
      </trkpt>
      <trkpt lat="49.18452" lon="-0.40484">
        <ele>42</ele>
        <time>2023-05-02T10:55:17Z</time>
      </trkpt>
      <trkpt lat="49.18446" lon="-0.40482">
        <ele>42</ele>
        <time>2023-05-02T10:55:18Z</time>
      </trkpt>
      <trkpt lat="49.18441" lon="-0.40483">
        <ele>42</ele>
        <time>2023-05-02T10:55:19Z</time>
      </trkpt>
      <trkpt lat="49.18435" lon="-0.40486">
        <ele>42</ele>
        <time>2023-05-02T10:55:20Z</time>
      </trkpt>
      <trkpt lat="49.1843" lon="-0.40489">
        <ele>42</ele>
        <time>2023-05-02T10:55:21Z</time>
      </trkpt>
      <trkpt lat="49.18424" lon="-0.40493">
        <ele>42</ele>
        <time>2023-05-02T10:55:22Z</time>
      </trkpt>
      <trkpt lat="49.18419" lon="-0.40498">
        <ele>42</ele>
        <time>2023-05-02T10:55:23Z</time>
      </trkpt>
      <trkpt lat="49.18414" lon="-0.40502">
        <ele>42</ele>
        <time>2023-05-02T10:55:24Z</time>
      </trkpt>
      <trkpt lat="49.18409" lon="-0.40508">
        <ele>42</ele>
        <time>2023-05-02T10:55:25Z</time>
      </trkpt>
      <trkpt lat="49.18403" lon="-0.40513">
        <ele>42</ele>
        <time>2023-05-02T10:55:26Z</time>
      </trkpt>
      <trkpt lat="49.18398" lon="-0.40518">
        <ele>42</ele>
        <time>2023-05-02T10:55:27Z</time>
      </trkpt>
      <trkpt lat="49.18393" lon="-0.40524">
        <ele>42</ele>
        <time>2023-05-02T10:55:28Z</time>
      </trkpt>
      <trkpt lat="49.18387" lon="-0.40529">
        <ele>42</ele>
        <time>2023-05-02T10:55:29Z</time>
      </trkpt>
      <trkpt lat="49.18381" lon="-0.40534">
        <ele>42</ele>
        <time>2023-05-02T10:55:30Z</time>
      </trkpt>
      <trkpt lat="49.18376" lon="-0.4054">
        <ele>42</ele>
        <time>2023-05-02T10:55:31Z</time>
      </trkpt>
      <trkpt lat="49.1837" lon="-0.40545">
        <ele>42</ele>
        <time>2023-05-02T10:55:32Z</time>
      </trkpt>
      <trkpt lat="49.18364" lon="-0.4055">
        <ele>42.2</ele>
        <time>2023-05-02T10:55:33Z</time>
      </trkpt>
      <trkpt lat="49.18359" lon="-0.40556">
        <ele>42.2</ele>
        <time>2023-05-02T10:55:34Z</time>
      </trkpt>
      <trkpt lat="49.18353" lon="-0.40561">
        <ele>42.4</ele>
        <time>2023-05-02T10:55:35Z</time>
      </trkpt>
      <trkpt lat="49.18347" lon="-0.40567">
        <ele>42.6</ele>
        <time>2023-05-02T10:55:36Z</time>
      </trkpt>
      <trkpt lat="49.18341" lon="-0.40572">
        <ele>42.8</ele>
        <time>2023-05-02T10:55:37Z</time>
      </trkpt>
      <trkpt lat="49.18336" lon="-0.40578">
        <ele>43</ele>
        <time>2023-05-02T10:55:38Z</time>
      </trkpt>
      <trkpt lat="49.1833" lon="-0.40583">
        <ele>43</ele>
        <time>2023-05-02T10:55:39Z</time>
      </trkpt>
      <trkpt lat="49.18325" lon="-0.40588">
        <ele>42.6</ele>
        <time>2023-05-02T10:55:40Z</time>
      </trkpt>
      <trkpt lat="49.18319" lon="-0.40593">
        <ele>42.2</ele>
        <time>2023-05-02T10:55:41Z</time>
      </trkpt>
      <trkpt lat="49.18314" lon="-0.40598">
        <ele>42</ele>
        <time>2023-05-02T10:55:42Z</time>
      </trkpt>
      <trkpt lat="49.18309" lon="-0.40602">
        <ele>41.8</ele>
        <time>2023-05-02T10:55:43Z</time>
      </trkpt>
      <trkpt lat="49.18305" lon="-0.40606">
        <ele>41.6</ele>
        <time>2023-05-02T10:55:44Z</time>
      </trkpt>
      <trkpt lat="49.18301" lon="-0.40609">
        <ele>41.2</ele>
        <time>2023-05-02T10:55:45Z</time>
      </trkpt>
      <trkpt lat="49.18298" lon="-0.40612">
        <ele>41.2</ele>
        <time>2023-05-02T10:55:46Z</time>
      </trkpt>
      <trkpt lat="49.18294" lon="-0.40614">
        <ele>41</ele>
        <time>2023-05-02T10:55:47Z</time>
      </trkpt>
      <trkpt lat="49.1829" lon="-0.40614">
        <ele>41</ele>
        <time>2023-05-02T10:55:48Z</time>
      </trkpt>
      <trkpt lat="49.18286" lon="-0.40613">
        <ele>40.8</ele>
        <time>2023-05-02T10:55:49Z</time>
      </trkpt>
      <trkpt lat="49.18282" lon="-0.40609">
        <ele>40.8</ele>
        <time>2023-05-02T10:55:50Z</time>
      </trkpt>
      <trkpt lat="49.18278" lon="-0.40604">
        <ele>40.8</ele>
        <time>2023-05-02T10:55:51Z</time>
      </trkpt>
      <trkpt lat="49.18275" lon="-0.40597">
        <ele>40.8</ele>
        <time>2023-05-02T10:55:52Z</time>
      </trkpt>
      <trkpt lat="49.18272" lon="-0.40589">
        <ele>40.8</ele>
        <time>2023-05-02T10:55:53Z</time>
      </trkpt>
      <trkpt lat="49.1827" lon="-0.40582">
        <ele>40.8</ele>
        <time>2023-05-02T10:55:54Z</time>
      </trkpt>
      <trkpt lat="49.18267" lon="-0.40574">
        <ele>40.8</ele>
        <time>2023-05-02T10:55:55Z</time>
      </trkpt>
      <trkpt lat="49.18265" lon="-0.40567">
        <ele>40.8</ele>
        <time>2023-05-02T10:55:56Z</time>
      </trkpt>
      <trkpt lat="49.18262" lon="-0.40559">
        <ele>40.8</ele>
        <time>2023-05-02T10:55:57Z</time>
      </trkpt>
      <trkpt lat="49.1826" lon="-0.40551">
        <ele>40.8</ele>
        <time>2023-05-02T10:55:58Z</time>
      </trkpt>
      <trkpt lat="49.18257" lon="-0.40542">
        <ele>40.8</ele>
        <time>2023-05-02T10:55:59Z</time>
      </trkpt>
      <trkpt lat="49.18255" lon="-0.40533">
        <ele>40.8</ele>
        <time>2023-05-02T10:56:00Z</time>
      </trkpt>
      <trkpt lat="49.18252" lon="-0.40524">
        <ele>40.8</ele>
        <time>2023-05-02T10:56:01Z</time>
      </trkpt>
      <trkpt lat="49.1825" lon="-0.40515">
        <ele>40.8</ele>
        <time>2023-05-02T10:56:02Z</time>
      </trkpt>
      <trkpt lat="49.18248" lon="-0.40506">
        <ele>41</ele>
        <time>2023-05-02T10:56:03Z</time>
      </trkpt>
      <trkpt lat="49.18245" lon="-0.40497">
        <ele>41</ele>
        <time>2023-05-02T10:56:04Z</time>
      </trkpt>
      <trkpt lat="49.18243" lon="-0.40488">
        <ele>40.8</ele>
        <time>2023-05-02T10:56:05Z</time>
      </trkpt>
      <trkpt lat="49.1824" lon="-0.40479">
        <ele>40.8</ele>
        <time>2023-05-02T10:56:06Z</time>
      </trkpt>
      <trkpt lat="49.18238" lon="-0.40471">
        <ele>40.8</ele>
        <time>2023-05-02T10:56:07Z</time>
      </trkpt>
      <trkpt lat="49.18236" lon="-0.40462">
        <ele>40.8</ele>
        <time>2023-05-02T10:56:08Z</time>
      </trkpt>
      <trkpt lat="49.18234" lon="-0.40453">
        <ele>40.6</ele>
        <time>2023-05-02T10:56:09Z</time>
      </trkpt>
      <trkpt lat="49.18232" lon="-0.40444">
        <ele>40.6</ele>
        <time>2023-05-02T10:56:10Z</time>
      </trkpt>
      <trkpt lat="49.18229" lon="-0.40436">
        <ele>40.6</ele>
        <time>2023-05-02T10:56:11Z</time>
      </trkpt>
      <trkpt lat="49.18227" lon="-0.40427">
        <ele>40.6</ele>
        <time>2023-05-02T10:56:12Z</time>
      </trkpt>
      <trkpt lat="49.18226" lon="-0.40419">
        <ele>40.4</ele>
        <time>2023-05-02T10:56:13Z</time>
      </trkpt>
      <trkpt lat="49.18224" lon="-0.40412">
        <ele>40.2</ele>
        <time>2023-05-02T10:56:14Z</time>
      </trkpt>
      <trkpt lat="49.18223" lon="-0.40404">
        <ele>40.2</ele>
        <time>2023-05-02T10:56:15Z</time>
      </trkpt>
      <trkpt lat="49.18221" lon="-0.40397">
        <ele>40</ele>
        <time>2023-05-02T10:56:16Z</time>
      </trkpt>
      <trkpt lat="49.18219" lon="-0.40389">
        <ele>40</ele>
        <time>2023-05-02T10:56:17Z</time>
      </trkpt>
      <trkpt lat="49.18218" lon="-0.40382">
        <ele>40</ele>
        <time>2023-05-02T10:56:18Z</time>
      </trkpt>
      <trkpt lat="49.18216" lon="-0.40374">
        <ele>40</ele>
        <time>2023-05-02T10:56:19Z</time>
      </trkpt>
      <trkpt lat="49.18215" lon="-0.40366">
        <ele>39.8</ele>
        <time>2023-05-02T10:56:20Z</time>
      </trkpt>
      <trkpt lat="49.18213" lon="-0.40357">
        <ele>39.8</ele>
        <time>2023-05-02T10:56:21Z</time>
      </trkpt>
      <trkpt lat="49.18211" lon="-0.40349">
        <ele>39.6</ele>
        <time>2023-05-02T10:56:22Z</time>
      </trkpt>
      <trkpt lat="49.1821" lon="-0.4034">
        <ele>39.6</ele>
        <time>2023-05-02T10:56:23Z</time>
      </trkpt>
      <trkpt lat="49.18208" lon="-0.40331">
        <ele>39.6</ele>
        <time>2023-05-02T10:56:24Z</time>
      </trkpt>
      <trkpt lat="49.18206" lon="-0.40321">
        <ele>39.4</ele>
        <time>2023-05-02T10:56:25Z</time>
      </trkpt>
      <trkpt lat="49.18204" lon="-0.40313">
        <ele>39.4</ele>
        <time>2023-05-02T10:56:26Z</time>
      </trkpt>
      <trkpt lat="49.18202" lon="-0.40304">
        <ele>39.2</ele>
        <time>2023-05-02T10:56:27Z</time>
      </trkpt>
      <trkpt lat="49.182" lon="-0.40295">
        <ele>39.2</ele>
        <time>2023-05-02T10:56:28Z</time>
      </trkpt>
      <trkpt lat="49.18198" lon="-0.40286">
        <ele>39.2</ele>
        <time>2023-05-02T10:56:29Z</time>
      </trkpt>
      <trkpt lat="49.18195" lon="-0.40277">
        <ele>39.2</ele>
        <time>2023-05-02T10:56:30Z</time>
      </trkpt>
      <trkpt lat="49.18193" lon="-0.40267">
        <ele>39.4</ele>
        <time>2023-05-02T10:56:31Z</time>
      </trkpt>
      <trkpt lat="49.18191" lon="-0.40258">
        <ele>39.4</ele>
        <time>2023-05-02T10:56:32Z</time>
      </trkpt>
      <trkpt lat="49.18189" lon="-0.40248">
        <ele>39.4</ele>
        <time>2023-05-02T10:56:33Z</time>
      </trkpt>
      <trkpt lat="49.18187" lon="-0.40239">
        <ele>39.4</ele>
        <time>2023-05-02T10:56:34Z</time>
      </trkpt>
      <trkpt lat="49.18186" lon="-0.4023">
        <ele>39.4</ele>
        <time>2023-05-02T10:56:35Z</time>
      </trkpt>
      <trkpt lat="49.18185" lon="-0.40222">
        <ele>39.2</ele>
        <time>2023-05-02T10:56:36Z</time>
      </trkpt>
      <trkpt lat="49.18183" lon="-0.40214">
        <ele>39.2</ele>
        <time>2023-05-02T10:56:37Z</time>
      </trkpt>
      <trkpt lat="49.18182" lon="-0.40206">
        <ele>39.2</ele>
        <time>2023-05-02T10:56:38Z</time>
      </trkpt>
      <trkpt lat="49.1818" lon="-0.40196">
        <ele>39</ele>
        <time>2023-05-02T10:56:39Z</time>
      </trkpt>
      <trkpt lat="49.18178" lon="-0.40186">
        <ele>39</ele>
        <time>2023-05-02T10:56:40Z</time>
      </trkpt>
      <trkpt lat="49.18174" lon="-0.40177">
        <ele>39</ele>
        <time>2023-05-02T10:56:41Z</time>
      </trkpt>
      <trkpt lat="49.18169" lon="-0.40171">
        <ele>39</ele>
        <time>2023-05-02T10:56:42Z</time>
      </trkpt>
      <trkpt lat="49.18163" lon="-0.40167">
        <ele>39</ele>
        <time>2023-05-02T10:56:43Z</time>
      </trkpt>
      <trkpt lat="49.18157" lon="-0.40163">
        <ele>39.2</ele>
        <time>2023-05-02T10:56:44Z</time>
      </trkpt>
      <trkpt lat="49.18152" lon="-0.40159">
        <ele>39.2</ele>
        <time>2023-05-02T10:56:45Z</time>
      </trkpt>
      <trkpt lat="49.18147" lon="-0.40154">
        <ele>39.4</ele>
        <time>2023-05-02T10:56:46Z</time>
      </trkpt>
      <trkpt lat="49.18142" lon="-0.40148">
        <ele>39.6</ele>
        <time>2023-05-02T10:56:47Z</time>
      </trkpt>
      <trkpt lat="49.18137" lon="-0.40142">
        <ele>39.6</ele>
        <time>2023-05-02T10:56:48Z</time>
      </trkpt>
      <trkpt lat="49.18132" lon="-0.40136">
        <ele>39.8</ele>
        <time>2023-05-02T10:56:49Z</time>
      </trkpt>
      <trkpt lat="49.18128" lon="-0.4013">
        <ele>39.8</ele>
        <time>2023-05-02T10:56:50Z</time>
      </trkpt>
      <trkpt lat="49.18124" lon="-0.40125">
        <ele>39.8</ele>
        <time>2023-05-02T10:56:51Z</time>
      </trkpt>
      <trkpt lat="49.1812" lon="-0.40121">
        <ele>39.8</ele>
        <time>2023-05-02T10:56:52Z</time>
      </trkpt>
      <trkpt lat="49.18118" lon="-0.40118">
        <ele>39.8</ele>
        <time>2023-05-02T10:56:53Z</time>
      </trkpt>
      <trkpt lat="49.18117" lon="-0.40117">
        <ele>39.8</ele>
        <time>2023-05-02T10:56:54Z</time>
      </trkpt>
      <trkpt lat="49.18115" lon="-0.40116">
        <ele>40</ele>
        <time>2023-05-02T10:56:55Z</time>
      </trkpt>
      <trkpt lat="49.18114" lon="-0.40114">
        <ele>40</ele>
        <time>2023-05-02T10:56:56Z</time>
      </trkpt>
      <trkpt lat="49.18112" lon="-0.40112">
        <ele>40</ele>
        <time>2023-05-02T10:56:57Z</time>
      </trkpt>
      <trkpt lat="49.1811" lon="-0.4011">
        <ele>40</ele>
        <time>2023-05-02T10:56:58Z</time>
      </trkpt>
      <trkpt lat="49.18108" lon="-0.40108">
        <ele>40</ele>
        <time>2023-05-02T10:56:59Z</time>
      </trkpt>
      <trkpt lat="49.18105" lon="-0.40105">
        <ele>40</ele>
        <time>2023-05-02T10:57:00Z</time>
      </trkpt>
      <trkpt lat="49.18102" lon="-0.40102">
        <ele>40</ele>
        <time>2023-05-02T10:57:01Z</time>
      </trkpt>
      <trkpt lat="49.18099" lon="-0.40098">
        <ele>40</ele>
        <time>2023-05-02T10:57:02Z</time>
      </trkpt>
      <trkpt lat="49.18095" lon="-0.40094">
        <ele>40</ele>
        <time>2023-05-02T10:57:03Z</time>
      </trkpt>
      <trkpt lat="49.18091" lon="-0.40089">
        <ele>40</ele>
        <time>2023-05-02T10:57:04Z</time>
      </trkpt>
      <trkpt lat="49.18087" lon="-0.40084">
        <ele>40</ele>
        <time>2023-05-02T10:57:05Z</time>
      </trkpt>
      <trkpt lat="49.18083" lon="-0.40079">
        <ele>40</ele>
        <time>2023-05-02T10:57:06Z</time>
      </trkpt>
      <trkpt lat="49.18079" lon="-0.40074">
        <ele>40</ele>
        <time>2023-05-02T10:57:07Z</time>
      </trkpt>
      <trkpt lat="49.18074" lon="-0.40069">
        <ele>40</ele>
        <time>2023-05-02T10:57:08Z</time>
      </trkpt>
      <trkpt lat="49.1807" lon="-0.40063">
        <ele>40.2</ele>
        <time>2023-05-02T10:57:09Z</time>
      </trkpt>
      <trkpt lat="49.18066" lon="-0.40058">
        <ele>40.2</ele>
        <time>2023-05-02T10:57:10Z</time>
      </trkpt>
      <trkpt lat="49.18061" lon="-0.40053">
        <ele>40.2</ele>
        <time>2023-05-02T10:57:11Z</time>
      </trkpt>
      <trkpt lat="49.18057" lon="-0.40048">
        <ele>40.2</ele>
        <time>2023-05-02T10:57:12Z</time>
      </trkpt>
      <trkpt lat="49.18052" lon="-0.40043">
        <ele>40.4</ele>
        <time>2023-05-02T10:57:13Z</time>
      </trkpt>
      <trkpt lat="49.18048" lon="-0.40037">
        <ele>40.4</ele>
        <time>2023-05-02T10:57:14Z</time>
      </trkpt>
      <trkpt lat="49.18043" lon="-0.40032">
        <ele>40.6</ele>
        <time>2023-05-02T10:57:15Z</time>
      </trkpt>
      <trkpt lat="49.18039" lon="-0.40027">
        <ele>40.6</ele>
        <time>2023-05-02T10:57:16Z</time>
      </trkpt>
      <trkpt lat="49.18034" lon="-0.40022">
        <ele>40.6</ele>
        <time>2023-05-02T10:57:17Z</time>
      </trkpt>
      <trkpt lat="49.18029" lon="-0.40017">
        <ele>40.6</ele>
        <time>2023-05-02T10:57:18Z</time>
      </trkpt>
      <trkpt lat="49.18025" lon="-0.40012">
        <ele>40.8</ele>
        <time>2023-05-02T10:57:19Z</time>
      </trkpt>
      <trkpt lat="49.1802" lon="-0.40007">
        <ele>40.8</ele>
        <time>2023-05-02T10:57:20Z</time>
      </trkpt>
      <trkpt lat="49.18015" lon="-0.40002">
        <ele>40.8</ele>
        <time>2023-05-02T10:57:21Z</time>
      </trkpt>
      <trkpt lat="49.1801" lon="-0.39997">
        <ele>40.8</ele>
        <time>2023-05-02T10:57:22Z</time>
      </trkpt>
      <trkpt lat="49.18006" lon="-0.39992">
        <ele>40.8</ele>
        <time>2023-05-02T10:57:23Z</time>
      </trkpt>
      <trkpt lat="49.18001" lon="-0.39987">
        <ele>40.8</ele>
        <time>2023-05-02T10:57:24Z</time>
      </trkpt>
      <trkpt lat="49.17996" lon="-0.39982">
        <ele>40.8</ele>
        <time>2023-05-02T10:57:25Z</time>
      </trkpt>
      <trkpt lat="49.17991" lon="-0.39977">
        <ele>40.8</ele>
        <time>2023-05-02T10:57:26Z</time>
      </trkpt>
      <trkpt lat="49.17987" lon="-0.39972">
        <ele>40.8</ele>
        <time>2023-05-02T10:57:27Z</time>
      </trkpt>
      <trkpt lat="49.17982" lon="-0.39967">
        <ele>41</ele>
        <time>2023-05-02T10:57:28Z</time>
      </trkpt>
      <trkpt lat="49.17977" lon="-0.39962">
        <ele>41</ele>
        <time>2023-05-02T10:57:29Z</time>
      </trkpt>
      <trkpt lat="49.17972" lon="-0.39957">
        <ele>41</ele>
        <time>2023-05-02T10:57:30Z</time>
      </trkpt>
      <trkpt lat="49.17967" lon="-0.39953">
        <ele>41</ele>
        <time>2023-05-02T10:57:31Z</time>
      </trkpt>
      <trkpt lat="49.17962" lon="-0.39949">
        <ele>41.2</ele>
        <time>2023-05-02T10:57:32Z</time>
      </trkpt>
      <trkpt lat="49.17957" lon="-0.39944">
        <ele>41.4</ele>
        <time>2023-05-02T10:57:33Z</time>
      </trkpt>
      <trkpt lat="49.17952" lon="-0.39941">
        <ele>41.6</ele>
        <time>2023-05-02T10:57:34Z</time>
      </trkpt>
      <trkpt lat="49.17947" lon="-0.39937">
        <ele>41.8</ele>
        <time>2023-05-02T10:57:35Z</time>
      </trkpt>
      <trkpt lat="49.17941" lon="-0.39933">
        <ele>42</ele>
        <time>2023-05-02T10:57:36Z</time>
      </trkpt>
      <trkpt lat="49.17936" lon="-0.39929">
        <ele>42</ele>
        <time>2023-05-02T10:57:37Z</time>
      </trkpt>
      <trkpt lat="49.17931" lon="-0.39925">
        <ele>42.2</ele>
        <time>2023-05-02T10:57:38Z</time>
      </trkpt>
      <trkpt lat="49.17925" lon="-0.39922">
        <ele>42.6</ele>
        <time>2023-05-02T10:57:39Z</time>
      </trkpt>
      <trkpt lat="49.1792" lon="-0.39918">
        <ele>42.8</ele>
        <time>2023-05-02T10:57:40Z</time>
      </trkpt>
      <trkpt lat="49.17915" lon="-0.39914">
        <ele>43</ele>
        <time>2023-05-02T10:57:41Z</time>
      </trkpt>
      <trkpt lat="49.17909" lon="-0.3991">
        <ele>43</ele>
        <time>2023-05-02T10:57:42Z</time>
      </trkpt>
      <trkpt lat="49.17904" lon="-0.39907">
        <ele>42.8</ele>
        <time>2023-05-02T10:57:43Z</time>
      </trkpt>
      <trkpt lat="49.17898" lon="-0.39903">
        <ele>42.8</ele>
        <time>2023-05-02T10:57:44Z</time>
      </trkpt>
      <trkpt lat="49.17893" lon="-0.39899">
        <ele>42.6</ele>
        <time>2023-05-02T10:57:45Z</time>
      </trkpt>
      <trkpt lat="49.17887" lon="-0.39895">
        <ele>42.6</ele>
        <time>2023-05-02T10:57:46Z</time>
      </trkpt>
      <trkpt lat="49.17882" lon="-0.39892">
        <ele>42.2</ele>
        <time>2023-05-02T10:57:47Z</time>
      </trkpt>
      <trkpt lat="49.17876" lon="-0.39888">
        <ele>42.2</ele>
        <time>2023-05-02T10:57:48Z</time>
      </trkpt>
      <trkpt lat="49.17871" lon="-0.39884">
        <ele>42</ele>
        <time>2023-05-02T10:57:49Z</time>
      </trkpt>
      <trkpt lat="49.17865" lon="-0.3988">
        <ele>42</ele>
        <time>2023-05-02T10:57:50Z</time>
      </trkpt>
      <trkpt lat="49.17859" lon="-0.39876">
        <ele>41.8</ele>
        <time>2023-05-02T10:57:51Z</time>
      </trkpt>
      <trkpt lat="49.17854" lon="-0.39872">
        <ele>41.6</ele>
        <time>2023-05-02T10:57:52Z</time>
      </trkpt>
      <trkpt lat="49.17848" lon="-0.39868">
        <ele>41.6</ele>
        <time>2023-05-02T10:57:53Z</time>
      </trkpt>
      <trkpt lat="49.17843" lon="-0.39864">
        <ele>41.2</ele>
        <time>2023-05-02T10:57:54Z</time>
      </trkpt>
      <trkpt lat="49.17837" lon="-0.3986">
        <ele>41</ele>
        <time>2023-05-02T10:57:55Z</time>
      </trkpt>
      <trkpt lat="49.17832" lon="-0.39856">
        <ele>41</ele>
        <time>2023-05-02T10:57:56Z</time>
      </trkpt>
      <trkpt lat="49.17826" lon="-0.39852">
        <ele>41</ele>
        <time>2023-05-02T10:57:57Z</time>
      </trkpt>
      <trkpt lat="49.17821" lon="-0.39848">
        <ele>41</ele>
        <time>2023-05-02T10:57:58Z</time>
      </trkpt>
      <trkpt lat="49.17816" lon="-0.39844">
        <ele>41</ele>
        <time>2023-05-02T10:57:59Z</time>
      </trkpt>
      <trkpt lat="49.1781" lon="-0.3984">
        <ele>41</ele>
        <time>2023-05-02T10:58:00Z</time>
      </trkpt>
      <trkpt lat="49.17804" lon="-0.39836">
        <ele>41</ele>
        <time>2023-05-02T10:58:01Z</time>
      </trkpt>
      <trkpt lat="49.17799" lon="-0.39832">
        <ele>41</ele>
        <time>2023-05-02T10:58:02Z</time>
      </trkpt>
      <trkpt lat="49.17793" lon="-0.39829">
        <ele>41</ele>
        <time>2023-05-02T10:58:03Z</time>
      </trkpt>
      <trkpt lat="49.17788" lon="-0.39825">
        <ele>41</ele>
        <time>2023-05-02T10:58:04Z</time>
      </trkpt>
      <trkpt lat="49.17783" lon="-0.39821">
        <ele>41</ele>
        <time>2023-05-02T10:58:05Z</time>
      </trkpt>
      <trkpt lat="49.17777" lon="-0.39817">
        <ele>41</ele>
        <time>2023-05-02T10:58:06Z</time>
      </trkpt>
      <trkpt lat="49.17772" lon="-0.39814">
        <ele>41</ele>
        <time>2023-05-02T10:58:07Z</time>
      </trkpt>
      <trkpt lat="49.17767" lon="-0.3981">
        <ele>41</ele>
        <time>2023-05-02T10:58:08Z</time>
      </trkpt>
      <trkpt lat="49.17762" lon="-0.39806">
        <ele>41</ele>
        <time>2023-05-02T10:58:09Z</time>
      </trkpt>
      <trkpt lat="49.17757" lon="-0.39802">
        <ele>41</ele>
        <time>2023-05-02T10:58:10Z</time>
      </trkpt>
      <trkpt lat="49.17752" lon="-0.39798">
        <ele>41</ele>
        <time>2023-05-02T10:58:11Z</time>
      </trkpt>
      <trkpt lat="49.17747" lon="-0.39794">
        <ele>41</ele>
        <time>2023-05-02T10:58:12Z</time>
      </trkpt>
      <trkpt lat="49.17743" lon="-0.3979">
        <ele>41</ele>
        <time>2023-05-02T10:58:13Z</time>
      </trkpt>
      <trkpt lat="49.17739" lon="-0.39786">
        <ele>41</ele>
        <time>2023-05-02T10:58:14Z</time>
      </trkpt>
      <trkpt lat="49.17735" lon="-0.39783">
        <ele>41</ele>
        <time>2023-05-02T10:58:15Z</time>
      </trkpt>
      <trkpt lat="49.17731" lon="-0.3978">
        <ele>41</ele>
        <time>2023-05-02T10:58:16Z</time>
      </trkpt>
      <trkpt lat="49.17726" lon="-0.39779">
        <ele>41</ele>
        <time>2023-05-02T10:58:17Z</time>
      </trkpt>
      <trkpt lat="49.17722" lon="-0.39778">
        <ele>41</ele>
        <time>2023-05-02T10:58:18Z</time>
      </trkpt>
      <trkpt lat="49.17719" lon="-0.39776">
        <ele>41</ele>
        <time>2023-05-02T10:58:19Z</time>
      </trkpt>
      <trkpt lat="49.17716" lon="-0.39774">
        <ele>41</ele>
        <time>2023-05-02T10:58:20Z</time>
      </trkpt>
      <trkpt lat="49.17713" lon="-0.39771">
        <ele>41</ele>
        <time>2023-05-02T10:58:21Z</time>
      </trkpt>
      <trkpt lat="49.17711" lon="-0.39767">
        <ele>41</ele>
        <time>2023-05-02T10:58:22Z</time>
      </trkpt>
      <trkpt lat="49.17709" lon="-0.39764">
        <ele>41</ele>
        <time>2023-05-02T10:58:23Z</time>
      </trkpt>
      <trkpt lat="49.17707" lon="-0.39761">
        <ele>41</ele>
        <time>2023-05-02T10:58:24Z</time>
      </trkpt>
      <trkpt lat="49.17706" lon="-0.39759">
        <ele>41</ele>
        <time>2023-05-02T10:58:25Z</time>
      </trkpt>
      <trkpt lat="49.17705" lon="-0.39757">
        <ele>41</ele>
        <time>2023-05-02T10:58:26Z</time>
      </trkpt>
      <trkpt lat="49.17703" lon="-0.39756">
        <ele>41</ele>
        <time>2023-05-02T10:58:27Z</time>
      </trkpt>
      <trkpt lat="49.17702" lon="-0.39755">
        <ele>41</ele>
        <time>2023-05-02T10:58:28Z</time>
      </trkpt>
      <trkpt lat="49.17702" lon="-0.39754">
        <ele>41</ele>
        <time>2023-05-02T10:58:29Z</time>
      </trkpt>
      <trkpt lat="49.17701" lon="-0.39754">
        <ele>41</ele>
        <time>2023-05-02T10:58:30Z</time>
      </trkpt>
      <trkpt lat="49.17701" lon="-0.39754">
        <ele>41</ele>
        <time>2023-05-02T10:58:31Z</time>
      </trkpt>
      <trkpt lat="49.17701" lon="-0.39754">
        <ele>41</ele>
        <time>2023-05-02T10:58:32Z</time>
      </trkpt>
      <trkpt lat="49.17701" lon="-0.39754">
        <ele>41</ele>
        <time>2023-05-02T10:58:33Z</time>
      </trkpt>
      <trkpt lat="49.17701" lon="-0.39754">
        <ele>41</ele>
        <time>2023-05-02T10:58:34Z</time>
      </trkpt>
      <trkpt lat="49.17701" lon="-0.39754">
        <ele>41</ele>
        <time>2023-05-02T10:58:35Z</time>
      </trkpt>
      <trkpt lat="49.17701" lon="-0.39754">
        <ele>41</ele>
        <time>2023-05-02T10:58:36Z</time>
      </trkpt>
      <trkpt lat="49.17701" lon="-0.39754">
        <ele>41</ele>
        <time>2023-05-02T10:58:37Z</time>
      </trkpt>
      <trkpt lat="49.17701" lon="-0.39754">
        <ele>41</ele>
        <time>2023-05-02T10:58:38Z</time>
      </trkpt>
      <trkpt lat="49.17701" lon="-0.39754">
        <ele>41</ele>
        <time>2023-05-02T10:58:39Z</time>
      </trkpt>
      <trkpt lat="49.17701" lon="-0.39754">
        <ele>41</ele>
        <time>2023-05-02T10:58:40Z</time>
      </trkpt>
      <trkpt lat="49.17701" lon="-0.39754">
        <ele>41</ele>
        <time>2023-05-02T10:58:41Z</time>
      </trkpt>
      <trkpt lat="49.17701" lon="-0.39754">
        <ele>41</ele>
        <time>2023-05-02T10:58:42Z</time>
      </trkpt>
      <trkpt lat="49.17701" lon="-0.39754">
        <ele>41</ele>
        <time>2023-05-02T10:58:43Z</time>
      </trkpt>
      <trkpt lat="49.17701" lon="-0.39754">
        <ele>41</ele>
        <time>2023-05-02T10:58:44Z</time>
      </trkpt>
      <trkpt lat="49.17701" lon="-0.39754">
        <ele>41</ele>
        <time>2023-05-02T10:58:45Z</time>
      </trkpt>
      <trkpt lat="49.17701" lon="-0.39754">
        <ele>41</ele>
        <time>2023-05-02T10:58:46Z</time>
      </trkpt>
      <trkpt lat="49.17701" lon="-0.39754">
        <ele>41</ele>
        <time>2023-05-02T10:58:47Z</time>
      </trkpt>
      <trkpt lat="49.17701" lon="-0.39754">
        <ele>41</ele>
        <time>2023-05-02T10:58:48Z</time>
      </trkpt>
      <trkpt lat="49.17701" lon="-0.39754">
        <ele>41</ele>
        <time>2023-05-02T10:58:49Z</time>
      </trkpt>
      <trkpt lat="49.17701" lon="-0.39754">
        <ele>41</ele>
        <time>2023-05-02T10:58:50Z</time>
      </trkpt>
      <trkpt lat="49.17701" lon="-0.39754">
        <ele>41</ele>
        <time>2023-05-02T10:58:51Z</time>
      </trkpt>
      <trkpt lat="49.17701" lon="-0.39754">
        <ele>41</ele>
        <time>2023-05-02T10:58:52Z</time>
      </trkpt>
      <trkpt lat="49.17701" lon="-0.39754">
        <ele>41</ele>
        <time>2023-05-02T10:58:53Z</time>
      </trkpt>
      <trkpt lat="49.17701" lon="-0.39754">
        <ele>41</ele>
        <time>2023-05-02T10:58:54Z</time>
      </trkpt>
      <trkpt lat="49.17701" lon="-0.39754">
        <ele>41</ele>
        <time>2023-05-02T10:58:55Z</time>
      </trkpt>
      <trkpt lat="49.17701" lon="-0.39754">
        <ele>41</ele>
        <time>2023-05-02T10:58:56Z</time>
      </trkpt>
      <trkpt lat="49.17701" lon="-0.39754">
        <ele>41</ele>
        <time>2023-05-02T10:58:57Z</time>
      </trkpt>
      <trkpt lat="49.17701" lon="-0.39754">
        <ele>41</ele>
        <time>2023-05-02T10:58:58Z</time>
      </trkpt>
      <trkpt lat="49.17701" lon="-0.39754">
        <ele>41</ele>
        <time>2023-05-02T10:58:59Z</time>
      </trkpt>
      <trkpt lat="49.17701" lon="-0.39754">
        <ele>41</ele>
        <time>2023-05-02T10:59:00Z</time>
      </trkpt>
      <trkpt lat="49.17701" lon="-0.39754">
        <ele>41</ele>
        <time>2023-05-02T10:59:01Z</time>
      </trkpt>
      <trkpt lat="49.17701" lon="-0.39754">
        <ele>41</ele>
        <time>2023-05-02T10:59:02Z</time>
      </trkpt>
      <trkpt lat="49.17701" lon="-0.39754">
        <ele>41</ele>
        <time>2023-05-02T10:59:03Z</time>
      </trkpt>
      <trkpt lat="49.177" lon="-0.39753">
        <ele>41</ele>
        <time>2023-05-02T10:59:04Z</time>
      </trkpt>
      <trkpt lat="49.17699" lon="-0.39753">
        <ele>41</ele>
        <time>2023-05-02T10:59:05Z</time>
      </trkpt>
      <trkpt lat="49.17698" lon="-0.39751">
        <ele>41</ele>
        <time>2023-05-02T10:59:06Z</time>
      </trkpt>
      <trkpt lat="49.17696" lon="-0.39749">
        <ele>41</ele>
        <time>2023-05-02T10:59:07Z</time>
      </trkpt>
      <trkpt lat="49.17694" lon="-0.39747">
        <ele>41</ele>
        <time>2023-05-02T10:59:08Z</time>
      </trkpt>
      <trkpt lat="49.17691" lon="-0.39743">
        <ele>41</ele>
        <time>2023-05-02T10:59:09Z</time>
      </trkpt>
      <trkpt lat="49.17687" lon="-0.39738">
        <ele>41</ele>
        <time>2023-05-02T10:59:10Z</time>
      </trkpt>
      <trkpt lat="49.17683" lon="-0.39734">
        <ele>40.8</ele>
        <time>2023-05-02T10:59:11Z</time>
      </trkpt>
      <trkpt lat="49.17679" lon="-0.3973">
        <ele>40.8</ele>
        <time>2023-05-02T10:59:12Z</time>
      </trkpt>
      <trkpt lat="49.17676" lon="-0.39728">
        <ele>40.8</ele>
        <time>2023-05-02T10:59:13Z</time>
      </trkpt>
      <trkpt lat="49.17674" lon="-0.39726">
        <ele>40.8</ele>
        <time>2023-05-02T10:59:14Z</time>
      </trkpt>
      <trkpt lat="49.17672" lon="-0.39725">
        <ele>40.8</ele>
        <time>2023-05-02T10:59:15Z</time>
      </trkpt>
      <trkpt lat="49.17671" lon="-0.39724">
        <ele>40.8</ele>
        <time>2023-05-02T10:59:16Z</time>
      </trkpt>
      <trkpt lat="49.17668" lon="-0.39722">
        <ele>40.8</ele>
        <time>2023-05-02T10:59:17Z</time>
      </trkpt>
      <trkpt lat="49.17666" lon="-0.39719">
        <ele>40.6</ele>
        <time>2023-05-02T10:59:18Z</time>
      </trkpt>
      <trkpt lat="49.17663" lon="-0.39716">
        <ele>40.6</ele>
        <time>2023-05-02T10:59:19Z</time>
      </trkpt>
      <trkpt lat="49.17659" lon="-0.39712">
        <ele>40.6</ele>
        <time>2023-05-02T10:59:20Z</time>
      </trkpt>
      <trkpt lat="49.17655" lon="-0.39708">
        <ele>40.6</ele>
        <time>2023-05-02T10:59:21Z</time>
      </trkpt>
      <trkpt lat="49.17651" lon="-0.39704">
        <ele>40.6</ele>
        <time>2023-05-02T10:59:22Z</time>
      </trkpt>
      <trkpt lat="49.17646" lon="-0.39699">
        <ele>40.6</ele>
        <time>2023-05-02T10:59:23Z</time>
      </trkpt>
      <trkpt lat="49.17641" lon="-0.39694">
        <ele>40.6</ele>
        <time>2023-05-02T10:59:24Z</time>
      </trkpt>
      <trkpt lat="49.17634" lon="-0.39688">
        <ele>40.6</ele>
        <time>2023-05-02T10:59:25Z</time>
      </trkpt>
      <trkpt lat="49.17628" lon="-0.39683">
        <ele>40.6</ele>
        <time>2023-05-02T10:59:26Z</time>
      </trkpt>
      <trkpt lat="49.17621" lon="-0.39677">
        <ele>40.6</ele>
        <time>2023-05-02T10:59:27Z</time>
      </trkpt>
      <trkpt lat="49.17614" lon="-0.39672">
        <ele>40.8</ele>
        <time>2023-05-02T10:59:28Z</time>
      </trkpt>
      <trkpt lat="49.17608" lon="-0.39665">
        <ele>40.8</ele>
        <time>2023-05-02T10:59:29Z</time>
      </trkpt>
      <trkpt lat="49.17602" lon="-0.39659">
        <ele>40.8</ele>
        <time>2023-05-02T10:59:30Z</time>
      </trkpt>
      <trkpt lat="49.17595" lon="-0.39653">
        <ele>40.8</ele>
        <time>2023-05-02T10:59:31Z</time>
      </trkpt>
      <trkpt lat="49.17589" lon="-0.39646">
        <ele>40.8</ele>
        <time>2023-05-02T10:59:32Z</time>
      </trkpt>
      <trkpt lat="49.17583" lon="-0.3964">
        <ele>40.8</ele>
        <time>2023-05-02T10:59:33Z</time>
      </trkpt>
      <trkpt lat="49.17576" lon="-0.39633">
        <ele>40.6</ele>
        <time>2023-05-02T10:59:34Z</time>
      </trkpt>
      <trkpt lat="49.1757" lon="-0.39627">
        <ele>40.4</ele>
        <time>2023-05-02T10:59:35Z</time>
      </trkpt>
      <trkpt lat="49.17563" lon="-0.3962">
        <ele>40.2</ele>
        <time>2023-05-02T10:59:36Z</time>
      </trkpt>
      <trkpt lat="49.17557" lon="-0.39614">
        <ele>40</ele>
        <time>2023-05-02T10:59:37Z</time>
      </trkpt>
      <trkpt lat="49.17551" lon="-0.39608">
        <ele>40</ele>
        <time>2023-05-02T10:59:38Z</time>
      </trkpt>
      <trkpt lat="49.17545" lon="-0.39602">
        <ele>39.8</ele>
        <time>2023-05-02T10:59:39Z</time>
      </trkpt>
      <trkpt lat="49.17539" lon="-0.39596">
        <ele>39.6</ele>
        <time>2023-05-02T10:59:40Z</time>
      </trkpt>
      <trkpt lat="49.17533" lon="-0.39589">
        <ele>39.6</ele>
        <time>2023-05-02T10:59:41Z</time>
      </trkpt>
      <trkpt lat="49.17527" lon="-0.39583">
        <ele>39.2</ele>
        <time>2023-05-02T10:59:42Z</time>
      </trkpt>
      <trkpt lat="49.17522" lon="-0.39577">
        <ele>39.2</ele>
        <time>2023-05-02T10:59:43Z</time>
      </trkpt>
      <trkpt lat="49.17516" lon="-0.39571">
        <ele>39</ele>
        <time>2023-05-02T10:59:44Z</time>
      </trkpt>
      <trkpt lat="49.17511" lon="-0.39566">
        <ele>39</ele>
        <time>2023-05-02T10:59:45Z</time>
      </trkpt>
      <trkpt lat="49.17505" lon="-0.39561">
        <ele>38.8</ele>
        <time>2023-05-02T10:59:46Z</time>
      </trkpt>
      <trkpt lat="49.17499" lon="-0.39555">
        <ele>38.8</ele>
        <time>2023-05-02T10:59:47Z</time>
      </trkpt>
      <trkpt lat="49.17494" lon="-0.39549">
        <ele>38.6</ele>
        <time>2023-05-02T10:59:48Z</time>
      </trkpt>
      <trkpt lat="49.17488" lon="-0.39543">
        <ele>38.4</ele>
        <time>2023-05-02T10:59:49Z</time>
      </trkpt>
      <trkpt lat="49.17482" lon="-0.39537">
        <ele>38.2</ele>
        <time>2023-05-02T10:59:50Z</time>
      </trkpt>
      <trkpt lat="49.17475" lon="-0.3953">
        <ele>38</ele>
        <time>2023-05-02T10:59:51Z</time>
      </trkpt>
      <trkpt lat="49.17469" lon="-0.39524">
        <ele>38</ele>
        <time>2023-05-02T10:59:52Z</time>
      </trkpt>
      <trkpt lat="49.17463" lon="-0.39518">
        <ele>38</ele>
        <time>2023-05-02T10:59:53Z</time>
      </trkpt>
      <trkpt lat="49.17457" lon="-0.39511">
        <ele>38</ele>
        <time>2023-05-02T10:59:54Z</time>
      </trkpt>
      <trkpt lat="49.17451" lon="-0.39505">
        <ele>38</ele>
        <time>2023-05-02T10:59:55Z</time>
      </trkpt>
      <trkpt lat="49.17445" lon="-0.395">
        <ele>38</ele>
        <time>2023-05-02T10:59:56Z</time>
      </trkpt>
      <trkpt lat="49.1744" lon="-0.39494">
        <ele>38</ele>
        <time>2023-05-02T10:59:57Z</time>
      </trkpt>
      <trkpt lat="49.17434" lon="-0.39489">
        <ele>38</ele>
        <time>2023-05-02T10:59:58Z</time>
      </trkpt>
      <trkpt lat="49.17429" lon="-0.39483">
        <ele>38</ele>
        <time>2023-05-02T10:59:59Z</time>
      </trkpt>
      <trkpt lat="49.17423" lon="-0.39477">
        <ele>38</ele>
        <time>2023-05-02T11:00:00Z</time>
      </trkpt>
      <trkpt lat="49.17417" lon="-0.39472">
        <ele>38</ele>
        <time>2023-05-02T11:00:01Z</time>
      </trkpt>
      <trkpt lat="49.17411" lon="-0.39466">
        <ele>38</ele>
        <time>2023-05-02T11:00:02Z</time>
      </trkpt>
      <trkpt lat="49.17405" lon="-0.3946">
        <ele>38</ele>
        <time>2023-05-02T11:00:03Z</time>
      </trkpt>
      <trkpt lat="49.17399" lon="-0.39454">
        <ele>38</ele>
        <time>2023-05-02T11:00:04Z</time>
      </trkpt>
      <trkpt lat="49.17393" lon="-0.39448">
        <ele>38</ele>
        <time>2023-05-02T11:00:05Z</time>
      </trkpt>
      <trkpt lat="49.17387" lon="-0.39442">
        <ele>38</ele>
        <time>2023-05-02T11:00:06Z</time>
      </trkpt>
      <trkpt lat="49.17381" lon="-0.39435">
        <ele>38</ele>
        <time>2023-05-02T11:00:07Z</time>
      </trkpt>
      <trkpt lat="49.17375" lon="-0.39429">
        <ele>38</ele>
        <time>2023-05-02T11:00:08Z</time>
      </trkpt>
      <trkpt lat="49.17369" lon="-0.39423">
        <ele>38</ele>
        <time>2023-05-02T11:00:09Z</time>
      </trkpt>
      <trkpt lat="49.17362" lon="-0.39417">
        <ele>38</ele>
        <time>2023-05-02T11:00:10Z</time>
      </trkpt>
      <trkpt lat="49.17356" lon="-0.39411">
        <ele>38</ele>
        <time>2023-05-02T11:00:11Z</time>
      </trkpt>
      <trkpt lat="49.17349" lon="-0.39406">
        <ele>38</ele>
        <time>2023-05-02T11:00:12Z</time>
      </trkpt>
      <trkpt lat="49.17342" lon="-0.394">
        <ele>38</ele>
        <time>2023-05-02T11:00:13Z</time>
      </trkpt>
      <trkpt lat="49.17336" lon="-0.39395">
        <ele>38</ele>
        <time>2023-05-02T11:00:14Z</time>
      </trkpt>
      <trkpt lat="49.17329" lon="-0.39389">
        <ele>38</ele>
        <time>2023-05-02T11:00:15Z</time>
      </trkpt>
      <trkpt lat="49.17322" lon="-0.39383">
        <ele>38.2</ele>
        <time>2023-05-02T11:00:16Z</time>
      </trkpt>
      <trkpt lat="49.17316" lon="-0.39377">
        <ele>38.2</ele>
        <time>2023-05-02T11:00:17Z</time>
      </trkpt>
      <trkpt lat="49.17311" lon="-0.39369">
        <ele>38.4</ele>
        <time>2023-05-02T11:00:18Z</time>
      </trkpt>
      <trkpt lat="49.17306" lon="-0.39361">
        <ele>38.4</ele>
        <time>2023-05-02T11:00:19Z</time>
      </trkpt>
      <trkpt lat="49.17302" lon="-0.39354">
        <ele>38.6</ele>
        <time>2023-05-02T11:00:20Z</time>
      </trkpt>
      <trkpt lat="49.17297" lon="-0.3935">
        <ele>38.6</ele>
        <time>2023-05-02T11:00:21Z</time>
      </trkpt>
      <trkpt lat="49.17291" lon="-0.39347">
        <ele>38.6</ele>
        <time>2023-05-02T11:00:22Z</time>
      </trkpt>
      <trkpt lat="49.17285" lon="-0.39345">
        <ele>38.8</ele>
        <time>2023-05-02T11:00:23Z</time>
      </trkpt>
      <trkpt lat="49.17279" lon="-0.39342">
        <ele>38.8</ele>
        <time>2023-05-02T11:00:24Z</time>
      </trkpt>
      <trkpt lat="49.17273" lon="-0.39338">
        <ele>38.8</ele>
        <time>2023-05-02T11:00:25Z</time>
      </trkpt>
      <trkpt lat="49.17267" lon="-0.39334">
        <ele>38.8</ele>
        <time>2023-05-02T11:00:26Z</time>
      </trkpt>
      <trkpt lat="49.17262" lon="-0.39328">
        <ele>38.8</ele>
        <time>2023-05-02T11:00:27Z</time>
      </trkpt>
      <trkpt lat="49.17257" lon="-0.39321">
        <ele>38.8</ele>
        <time>2023-05-02T11:00:28Z</time>
      </trkpt>
      <trkpt lat="49.17252" lon="-0.39314">
        <ele>38.8</ele>
        <time>2023-05-02T11:00:29Z</time>
      </trkpt>
      <trkpt lat="49.17247" lon="-0.39306">
        <ele>38.8</ele>
        <time>2023-05-02T11:00:30Z</time>
      </trkpt>
      <trkpt lat="49.17243" lon="-0.39299">
        <ele>38.6</ele>
        <time>2023-05-02T11:00:31Z</time>
      </trkpt>
      <trkpt lat="49.17238" lon="-0.39291">
        <ele>38.4</ele>
        <time>2023-05-02T11:00:32Z</time>
      </trkpt>
      <trkpt lat="49.17234" lon="-0.39283">
        <ele>38.2</ele>
        <time>2023-05-02T11:00:33Z</time>
      </trkpt>
      <trkpt lat="49.1723" lon="-0.39275">
        <ele>38</ele>
        <time>2023-05-02T11:00:34Z</time>
      </trkpt>
      <trkpt lat="49.17226" lon="-0.39267">
        <ele>38</ele>
        <time>2023-05-02T11:00:35Z</time>
      </trkpt>
      <trkpt lat="49.17222" lon="-0.39259">
        <ele>37.8</ele>
        <time>2023-05-02T11:00:36Z</time>
      </trkpt>
      <trkpt lat="49.17217" lon="-0.39251">
        <ele>37.6</ele>
        <time>2023-05-02T11:00:37Z</time>
      </trkpt>
      <trkpt lat="49.17213" lon="-0.39243">
        <ele>37.8</ele>
        <time>2023-05-02T11:00:38Z</time>
      </trkpt>
      <trkpt lat="49.17209" lon="-0.39235">
        <ele>37.8</ele>
        <time>2023-05-02T11:00:39Z</time>
      </trkpt>
      <trkpt lat="49.17205" lon="-0.39228">
        <ele>38</ele>
        <time>2023-05-02T11:00:40Z</time>
      </trkpt>
      <trkpt lat="49.17201" lon="-0.3922">
        <ele>38</ele>
        <time>2023-05-02T11:00:41Z</time>
      </trkpt>
      <trkpt lat="49.17197" lon="-0.39213">
        <ele>38</ele>
        <time>2023-05-02T11:00:42Z</time>
      </trkpt>
      <trkpt lat="49.17193" lon="-0.39206">
        <ele>38</ele>
        <time>2023-05-02T11:00:43Z</time>
      </trkpt>
      <trkpt lat="49.17189" lon="-0.39199">
        <ele>38</ele>
        <time>2023-05-02T11:00:44Z</time>
      </trkpt>
      <trkpt lat="49.17185" lon="-0.39192">
        <ele>38</ele>
        <time>2023-05-02T11:00:45Z</time>
      </trkpt>
      <trkpt lat="49.17182" lon="-0.39185">
        <ele>38</ele>
        <time>2023-05-02T11:00:46Z</time>
      </trkpt>
      <trkpt lat="49.17179" lon="-0.39177">
        <ele>38</ele>
        <time>2023-05-02T11:00:47Z</time>
      </trkpt>
      <trkpt lat="49.17176" lon="-0.3917">
        <ele>38.2</ele>
        <time>2023-05-02T11:00:48Z</time>
      </trkpt>
      <trkpt lat="49.17173" lon="-0.39162">
        <ele>38.2</ele>
        <time>2023-05-02T11:00:49Z</time>
      </trkpt>
      <trkpt lat="49.1717" lon="-0.39155">
        <ele>38.2</ele>
        <time>2023-05-02T11:00:50Z</time>
      </trkpt>
      <trkpt lat="49.17167" lon="-0.39147">
        <ele>38.6</ele>
        <time>2023-05-02T11:00:51Z</time>
      </trkpt>
      <trkpt lat="49.17164" lon="-0.39139">
        <ele>38.6</ele>
        <time>2023-05-02T11:00:52Z</time>
      </trkpt>
      <trkpt lat="49.17161" lon="-0.39132">
        <ele>38.8</ele>
        <time>2023-05-02T11:00:53Z</time>
      </trkpt>
      <trkpt lat="49.17158" lon="-0.39125">
        <ele>39</ele>
        <time>2023-05-02T11:00:54Z</time>
      </trkpt>
      <trkpt lat="49.17155" lon="-0.39118">
        <ele>39</ele>
        <time>2023-05-02T11:00:55Z</time>
      </trkpt>
      <trkpt lat="49.17152" lon="-0.39111">
        <ele>39</ele>
        <time>2023-05-02T11:00:56Z</time>
      </trkpt>
      <trkpt lat="49.17149" lon="-0.39104">
        <ele>39.2</ele>
        <time>2023-05-02T11:00:57Z</time>
      </trkpt>
      <trkpt lat="49.17145" lon="-0.39097">
        <ele>39.2</ele>
        <time>2023-05-02T11:00:58Z</time>
      </trkpt>
      <trkpt lat="49.17142" lon="-0.3909">
        <ele>39.2</ele>
        <time>2023-05-02T11:00:59Z</time>
      </trkpt>
      <trkpt lat="49.17138" lon="-0.39083">
        <ele>39.2</ele>
        <time>2023-05-02T11:01:00Z</time>
      </trkpt>
      <trkpt lat="49.17134" lon="-0.39076">
        <ele>39</ele>
        <time>2023-05-02T11:01:01Z</time>
      </trkpt>
      <trkpt lat="49.1713" lon="-0.39069">
        <ele>38.8</ele>
        <time>2023-05-02T11:01:02Z</time>
      </trkpt>
      <trkpt lat="49.17126" lon="-0.39062">
        <ele>38.4</ele>
        <time>2023-05-02T11:01:03Z</time>
      </trkpt>
      <trkpt lat="49.17122" lon="-0.39055">
        <ele>38</ele>
        <time>2023-05-02T11:01:04Z</time>
      </trkpt>
      <trkpt lat="49.17117" lon="-0.39047">
        <ele>37.8</ele>
        <time>2023-05-02T11:01:05Z</time>
      </trkpt>
      <trkpt lat="49.17113" lon="-0.39039">
        <ele>37.2</ele>
        <time>2023-05-02T11:01:06Z</time>
      </trkpt>
      <trkpt lat="49.17108" lon="-0.39032">
        <ele>37</ele>
        <time>2023-05-02T11:01:07Z</time>
      </trkpt>
      <trkpt lat="49.17102" lon="-0.39024">
        <ele>36.6</ele>
        <time>2023-05-02T11:01:08Z</time>
      </trkpt>
      <trkpt lat="49.17097" lon="-0.39015">
        <ele>36</ele>
        <time>2023-05-02T11:01:09Z</time>
      </trkpt>
      <trkpt lat="49.17091" lon="-0.39007">
        <ele>35.6</ele>
        <time>2023-05-02T11:01:10Z</time>
      </trkpt>
      <trkpt lat="49.17085" lon="-0.38998">
        <ele>35</ele>
        <time>2023-05-02T11:01:11Z</time>
      </trkpt>
      <trkpt lat="49.17078" lon="-0.38989">
        <ele>34.4</ele>
        <time>2023-05-02T11:01:12Z</time>
      </trkpt>
      <trkpt lat="49.17071" lon="-0.3898">
        <ele>33.8</ele>
        <time>2023-05-02T11:01:13Z</time>
      </trkpt>
      <trkpt lat="49.17064" lon="-0.3897">
        <ele>33</ele>
        <time>2023-05-02T11:01:14Z</time>
      </trkpt>
      <trkpt lat="49.17057" lon="-0.38961">
        <ele>32.2</ele>
        <time>2023-05-02T11:01:15Z</time>
      </trkpt>
      <trkpt lat="49.17049" lon="-0.38951">
        <ele>31.4</ele>
        <time>2023-05-02T11:01:16Z</time>
      </trkpt>
      <trkpt lat="49.17042" lon="-0.38941">
        <ele>30.6</ele>
        <time>2023-05-02T11:01:17Z</time>
      </trkpt>
      <trkpt lat="49.17034" lon="-0.38932">
        <ele>29.8</ele>
        <time>2023-05-02T11:01:18Z</time>
      </trkpt>
      <trkpt lat="49.17026" lon="-0.38922">
        <ele>28.8</ele>
        <time>2023-05-02T11:01:19Z</time>
      </trkpt>
      <trkpt lat="49.17018" lon="-0.38912">
        <ele>27.8</ele>
        <time>2023-05-02T11:01:20Z</time>
      </trkpt>
      <trkpt lat="49.17011" lon="-0.38903">
        <ele>27</ele>
        <time>2023-05-02T11:01:21Z</time>
      </trkpt>
      <trkpt lat="49.17003" lon="-0.38894">
        <ele>26.2</ele>
        <time>2023-05-02T11:01:22Z</time>
      </trkpt>
      <trkpt lat="49.16997" lon="-0.38885">
        <ele>25.2</ele>
        <time>2023-05-02T11:01:23Z</time>
      </trkpt>
      <trkpt lat="49.16991" lon="-0.38877">
        <ele>24.2</ele>
        <time>2023-05-02T11:01:24Z</time>
      </trkpt>
      <trkpt lat="49.16985" lon="-0.38869">
        <ele>23.6</ele>
        <time>2023-05-02T11:01:25Z</time>
      </trkpt>
      <trkpt lat="49.16981" lon="-0.38862">
        <ele>22.8</ele>
        <time>2023-05-02T11:01:26Z</time>
      </trkpt>
      <trkpt lat="49.16977" lon="-0.38856">
        <ele>22.2</ele>
        <time>2023-05-02T11:01:27Z</time>
      </trkpt>
      <trkpt lat="49.16973" lon="-0.38854">
        <ele>21.8</ele>
        <time>2023-05-02T11:01:28Z</time>
      </trkpt>
      <trkpt lat="49.16968" lon="-0.38857">
        <ele>21.6</ele>
        <time>2023-05-02T11:01:29Z</time>
      </trkpt>
      <trkpt lat="49.16964" lon="-0.38861">
        <ele>21.4</ele>
        <time>2023-05-02T11:01:30Z</time>
      </trkpt>
      <trkpt lat="49.16959" lon="-0.38866">
        <ele>21.2</ele>
        <time>2023-05-02T11:01:31Z</time>
      </trkpt>
      <trkpt lat="49.16954" lon="-0.38871">
        <ele>21</ele>
        <time>2023-05-02T11:01:32Z</time>
      </trkpt>
      <trkpt lat="49.16948" lon="-0.38875">
        <ele>20.6</ele>
        <time>2023-05-02T11:01:33Z</time>
      </trkpt>
      <trkpt lat="49.16941" lon="-0.38879">
        <ele>20.2</ele>
        <time>2023-05-02T11:01:34Z</time>
      </trkpt>
      <trkpt lat="49.16934" lon="-0.38882">
        <ele>19.8</ele>
        <time>2023-05-02T11:01:35Z</time>
      </trkpt>
      <trkpt lat="49.16928" lon="-0.38884">
        <ele>19.2</ele>
        <time>2023-05-02T11:01:36Z</time>
      </trkpt>
      <trkpt lat="49.16922" lon="-0.38886">
        <ele>18.8</ele>
        <time>2023-05-02T11:01:37Z</time>
      </trkpt>
      <trkpt lat="49.16917" lon="-0.38888">
        <ele>18.2</ele>
        <time>2023-05-02T11:01:38Z</time>
      </trkpt>
      <trkpt lat="49.16913" lon="-0.3889">
        <ele>18</ele>
        <time>2023-05-02T11:01:39Z</time>
      </trkpt>
      <trkpt lat="49.16909" lon="-0.38892">
        <ele>17.8</ele>
        <time>2023-05-02T11:01:40Z</time>
      </trkpt>
      <trkpt lat="49.16906" lon="-0.38894">
        <ele>17.6</ele>
        <time>2023-05-02T11:01:41Z</time>
      </trkpt>
      <trkpt lat="49.16902" lon="-0.38897">
        <ele>17.2</ele>
        <time>2023-05-02T11:01:42Z</time>
      </trkpt>
      <trkpt lat="49.16899" lon="-0.389">
        <ele>17.2</ele>
        <time>2023-05-02T11:01:43Z</time>
      </trkpt>
      <trkpt lat="49.16896" lon="-0.38902">
        <ele>16.8</ele>
        <time>2023-05-02T11:01:44Z</time>
      </trkpt>
      <trkpt lat="49.16893" lon="-0.38903">
        <ele>16.8</ele>
        <time>2023-05-02T11:01:45Z</time>
      </trkpt>
      <trkpt lat="49.1689" lon="-0.38903">
        <ele>16.6</ele>
        <time>2023-05-02T11:01:46Z</time>
      </trkpt>
      <trkpt lat="49.16888" lon="-0.38902">
        <ele>16.2</ele>
        <time>2023-05-02T11:01:47Z</time>
      </trkpt>
      <trkpt lat="49.16886" lon="-0.38899">
        <ele>16.2</ele>
        <time>2023-05-02T11:01:48Z</time>
      </trkpt>
      <trkpt lat="49.16885" lon="-0.38896">
        <ele>15.8</ele>
        <time>2023-05-02T11:01:49Z</time>
      </trkpt>
      <trkpt lat="49.16884" lon="-0.38892">
        <ele>15.8</ele>
        <time>2023-05-02T11:01:50Z</time>
      </trkpt>
      <trkpt lat="49.16884" lon="-0.38888">
        <ele>15.6</ele>
        <time>2023-05-02T11:01:51Z</time>
      </trkpt>
      <trkpt lat="49.16884" lon="-0.38885">
        <ele>15.6</ele>
        <time>2023-05-02T11:01:52Z</time>
      </trkpt>
      <trkpt lat="49.16884" lon="-0.38882">
        <ele>15.6</ele>
        <time>2023-05-02T11:01:53Z</time>
      </trkpt>
      <trkpt lat="49.16885" lon="-0.38879">
        <ele>15.6</ele>
        <time>2023-05-02T11:01:54Z</time>
      </trkpt>
      <trkpt lat="49.16884" lon="-0.38876">
        <ele>15.6</ele>
        <time>2023-05-02T11:01:55Z</time>
      </trkpt>
      <trkpt lat="49.16882" lon="-0.38872">
        <ele>15.2</ele>
        <time>2023-05-02T11:01:56Z</time>
      </trkpt>
      <trkpt lat="49.16879" lon="-0.38869">
        <ele>14.8</ele>
        <time>2023-05-02T11:01:57Z</time>
      </trkpt>
      <trkpt lat="49.16875" lon="-0.38868">
        <ele>14.6</ele>
        <time>2023-05-02T11:01:58Z</time>
      </trkpt>
      <trkpt lat="49.1687" lon="-0.38867">
        <ele>14.2</ele>
        <time>2023-05-02T11:01:59Z</time>
      </trkpt>
      <trkpt lat="49.16865" lon="-0.38865">
        <ele>13.8</ele>
        <time>2023-05-02T11:02:00Z</time>
      </trkpt>
      <trkpt lat="49.1686" lon="-0.38863">
        <ele>13.4</ele>
        <time>2023-05-02T11:02:01Z</time>
      </trkpt>
      <trkpt lat="49.16854" lon="-0.3886">
        <ele>12.8</ele>
        <time>2023-05-02T11:02:02Z</time>
      </trkpt>
      <trkpt lat="49.16848" lon="-0.38857">
        <ele>12.4</ele>
        <time>2023-05-02T11:02:03Z</time>
      </trkpt>
      <trkpt lat="49.16841" lon="-0.38855">
        <ele>11.8</ele>
        <time>2023-05-02T11:02:04Z</time>
      </trkpt>
      <trkpt lat="49.16834" lon="-0.38852">
        <ele>11.4</ele>
        <time>2023-05-02T11:02:05Z</time>
      </trkpt>
      <trkpt lat="49.16827" lon="-0.38848">
        <ele>10.8</ele>
        <time>2023-05-02T11:02:06Z</time>
      </trkpt>
      <trkpt lat="49.16822" lon="-0.38844">
        <ele>10.6</ele>
        <time>2023-05-02T11:02:07Z</time>
      </trkpt>
      <trkpt lat="49.16818" lon="-0.38838">
        <ele>10.4</ele>
        <time>2023-05-02T11:02:08Z</time>
      </trkpt>
      <trkpt lat="49.16815" lon="-0.3883">
        <ele>10.2</ele>
        <time>2023-05-02T11:02:09Z</time>
      </trkpt>
      <trkpt lat="49.16812" lon="-0.38822">
        <ele>9.8</ele>
        <time>2023-05-02T11:02:10Z</time>
      </trkpt>
      <trkpt lat="49.1681" lon="-0.38812">
        <ele>9.6</ele>
        <time>2023-05-02T11:02:11Z</time>
      </trkpt>
      <trkpt lat="49.16807" lon="-0.38801">
        <ele>9.2</ele>
        <time>2023-05-02T11:02:12Z</time>
      </trkpt>
      <trkpt lat="49.16803" lon="-0.38791">
        <ele>8.8</ele>
        <time>2023-05-02T11:02:13Z</time>
      </trkpt>
      <trkpt lat="49.16799" lon="-0.3878">
        <ele>8.4</ele>
        <time>2023-05-02T11:02:14Z</time>
      </trkpt>
      <trkpt lat="49.16795" lon="-0.3877">
        <ele>8</ele>
        <time>2023-05-02T11:02:15Z</time>
      </trkpt>
      <trkpt lat="49.16791" lon="-0.3876">
        <ele>7.6</ele>
        <time>2023-05-02T11:02:16Z</time>
      </trkpt>
      <trkpt lat="49.16787" lon="-0.3875">
        <ele>7.2</ele>
        <time>2023-05-02T11:02:17Z</time>
      </trkpt>
      <trkpt lat="49.16783" lon="-0.3874">
        <ele>7</ele>
        <time>2023-05-02T11:02:18Z</time>
      </trkpt>
      <trkpt lat="49.16779" lon="-0.38731">
        <ele>6.6</ele>
        <time>2023-05-02T11:02:19Z</time>
      </trkpt>
      <trkpt lat="49.16775" lon="-0.38722">
        <ele>6.2</ele>
        <time>2023-05-02T11:02:20Z</time>
      </trkpt>
      <trkpt lat="49.1677" lon="-0.38713">
        <ele>6</ele>
        <time>2023-05-02T11:02:21Z</time>
      </trkpt>
      <trkpt lat="49.16766" lon="-0.38705">
        <ele>5.6</ele>
        <time>2023-05-02T11:02:22Z</time>
      </trkpt>
      <trkpt lat="49.16761" lon="-0.38697">
        <ele>5.4</ele>
        <time>2023-05-02T11:02:23Z</time>
      </trkpt>
      <trkpt lat="49.16757" lon="-0.38688">
        <ele>5.2</ele>
        <time>2023-05-02T11:02:24Z</time>
      </trkpt>
      <trkpt lat="49.16753" lon="-0.38679">
        <ele>5</ele>
        <time>2023-05-02T11:02:25Z</time>
      </trkpt>
      <trkpt lat="49.1675" lon="-0.3867">
        <ele>5</ele>
        <time>2023-05-02T11:02:26Z</time>
      </trkpt>
      <trkpt lat="49.16747" lon="-0.3866">
        <ele>5</ele>
        <time>2023-05-02T11:02:27Z</time>
      </trkpt>
      <trkpt lat="49.16745" lon="-0.3865">
        <ele>5</ele>
        <time>2023-05-02T11:02:28Z</time>
      </trkpt>
      <trkpt lat="49.16744" lon="-0.3864">
        <ele>4.8</ele>
        <time>2023-05-02T11:02:29Z</time>
      </trkpt>
      <trkpt lat="49.16743" lon="-0.3863">
        <ele>4.6</ele>
        <time>2023-05-02T11:02:30Z</time>
      </trkpt>
      <trkpt lat="49.16744" lon="-0.3862">
        <ele>4.6</ele>
        <time>2023-05-02T11:02:31Z</time>
      </trkpt>
      <trkpt lat="49.16744" lon="-0.38609">
        <ele>4.4</ele>
        <time>2023-05-02T11:02:32Z</time>
      </trkpt>
      <trkpt lat="49.16745" lon="-0.38599">
        <ele>4.2</ele>
        <time>2023-05-02T11:02:33Z</time>
      </trkpt>
      <trkpt lat="49.16746" lon="-0.38589">
        <ele>4</ele>
        <time>2023-05-02T11:02:34Z</time>
      </trkpt>
      <trkpt lat="49.16747" lon="-0.38579">
        <ele>4.2</ele>
        <time>2023-05-02T11:02:35Z</time>
      </trkpt>
      <trkpt lat="49.16747" lon="-0.38569">
        <ele>4.6</ele>
        <time>2023-05-02T11:02:36Z</time>
      </trkpt>
      <trkpt lat="49.16747" lon="-0.38559">
        <ele>5</ele>
        <time>2023-05-02T11:02:37Z</time>
      </trkpt>
      <trkpt lat="49.16747" lon="-0.3855">
        <ele>5.2</ele>
        <time>2023-05-02T11:02:38Z</time>
      </trkpt>
      <trkpt lat="49.16746" lon="-0.3854">
        <ele>5.6</ele>
        <time>2023-05-02T11:02:39Z</time>
      </trkpt>
      <trkpt lat="49.16744" lon="-0.38531">
        <ele>6</ele>
        <time>2023-05-02T11:02:40Z</time>
      </trkpt>
      <trkpt lat="49.16742" lon="-0.38521">
        <ele>6.2</ele>
        <time>2023-05-02T11:02:41Z</time>
      </trkpt>
      <trkpt lat="49.16739" lon="-0.38512">
        <ele>6.6</ele>
        <time>2023-05-02T11:02:42Z</time>
      </trkpt>
      <trkpt lat="49.16736" lon="-0.38503">
        <ele>6.6</ele>
        <time>2023-05-02T11:02:43Z</time>
      </trkpt>
      <trkpt lat="49.16732" lon="-0.38495">
        <ele>6.8</ele>
        <time>2023-05-02T11:02:44Z</time>
      </trkpt>
      <trkpt lat="49.16728" lon="-0.38489">
        <ele>6.8</ele>
        <time>2023-05-02T11:02:45Z</time>
      </trkpt>
      <trkpt lat="49.16724" lon="-0.38483">
        <ele>6.8</ele>
        <time>2023-05-02T11:02:46Z</time>
      </trkpt>
      <trkpt lat="49.1672" lon="-0.38479">
        <ele>6.6</ele>
        <time>2023-05-02T11:02:47Z</time>
      </trkpt>
      <trkpt lat="49.16717" lon="-0.38478">
        <ele>6.6</ele>
        <time>2023-05-02T11:02:48Z</time>
      </trkpt>
      <trkpt lat="49.16714" lon="-0.38478">
        <ele>6.6</ele>
        <time>2023-05-02T11:02:49Z</time>
      </trkpt>
      <trkpt lat="49.16711" lon="-0.38481">
        <ele>6.6</ele>
        <time>2023-05-02T11:02:50Z</time>
      </trkpt>
      <trkpt lat="49.16709" lon="-0.38485">
        <ele>6.6</ele>
        <time>2023-05-02T11:02:51Z</time>
      </trkpt>
      <trkpt lat="49.16706" lon="-0.38491">
        <ele>6.6</ele>
        <time>2023-05-02T11:02:52Z</time>
      </trkpt>
      <trkpt lat="49.16704" lon="-0.38496">
        <ele>6.6</ele>
        <time>2023-05-02T11:02:53Z</time>
      </trkpt>
      <trkpt lat="49.16701" lon="-0.38502">
        <ele>6.4</ele>
        <time>2023-05-02T11:02:54Z</time>
      </trkpt>
      <trkpt lat="49.16698" lon="-0.38507">
        <ele>6.2</ele>
        <time>2023-05-02T11:02:55Z</time>
      </trkpt>
      <trkpt lat="49.16695" lon="-0.38512">
        <ele>6</ele>
        <time>2023-05-02T11:02:56Z</time>
      </trkpt>
      <trkpt lat="49.16691" lon="-0.38517">
        <ele>6</ele>
        <time>2023-05-02T11:02:57Z</time>
      </trkpt>
      <trkpt lat="49.16688" lon="-0.38521">
        <ele>6</ele>
        <time>2023-05-02T11:02:58Z</time>
      </trkpt>
      <trkpt lat="49.16684" lon="-0.38526">
        <ele>5.8</ele>
        <time>2023-05-02T11:02:59Z</time>
      </trkpt>
      <trkpt lat="49.1668" lon="-0.38531">
        <ele>5.6</ele>
        <time>2023-05-02T11:03:00Z</time>
      </trkpt>
      <trkpt lat="49.16676" lon="-0.38536">
        <ele>5.6</ele>
        <time>2023-05-02T11:03:01Z</time>
      </trkpt>
      <trkpt lat="49.16672" lon="-0.3854">
        <ele>5.6</ele>
        <time>2023-05-02T11:03:02Z</time>
      </trkpt>
      <trkpt lat="49.16668" lon="-0.38544">
        <ele>5.6</ele>
        <time>2023-05-02T11:03:03Z</time>
      </trkpt>
      <trkpt lat="49.16664" lon="-0.38547">
        <ele>5.4</ele>
        <time>2023-05-02T11:03:04Z</time>
      </trkpt>
      <trkpt lat="49.1666" lon="-0.38549">
        <ele>5.4</ele>
        <time>2023-05-02T11:03:05Z</time>
      </trkpt>
      <trkpt lat="49.16655" lon="-0.3855">
        <ele>5.4</ele>
        <time>2023-05-02T11:03:06Z</time>
      </trkpt>
      <trkpt lat="49.16649" lon="-0.38549">
        <ele>5.4</ele>
        <time>2023-05-02T11:03:07Z</time>
      </trkpt>
      <trkpt lat="49.16642" lon="-0.38549">
        <ele>5.6</ele>
        <time>2023-05-02T11:03:08Z</time>
      </trkpt>
      <trkpt lat="49.16636" lon="-0.38549">
        <ele>5.6</ele>
        <time>2023-05-02T11:03:09Z</time>
      </trkpt>
      <trkpt lat="49.1663" lon="-0.38551">
        <ele>5.6</ele>
        <time>2023-05-02T11:03:10Z</time>
      </trkpt>
      <trkpt lat="49.16624" lon="-0.38554">
        <ele>5.6</ele>
        <time>2023-05-02T11:03:11Z</time>
      </trkpt>
      <trkpt lat="49.16618" lon="-0.38558">
        <ele>5.6</ele>
        <time>2023-05-02T11:03:12Z</time>
      </trkpt>
      <trkpt lat="49.16613" lon="-0.38562">
        <ele>5.6</ele>
        <time>2023-05-02T11:03:13Z</time>
      </trkpt>
      <trkpt lat="49.16608" lon="-0.38566">
        <ele>5.6</ele>
        <time>2023-05-02T11:03:14Z</time>
      </trkpt>
      <trkpt lat="49.16602" lon="-0.38569">
        <ele>5.6</ele>
        <time>2023-05-02T11:03:15Z</time>
      </trkpt>
      <trkpt lat="49.16597" lon="-0.38571">
        <ele>5.6</ele>
        <time>2023-05-02T11:03:16Z</time>
      </trkpt>
      <trkpt lat="49.16592" lon="-0.38573">
        <ele>5.8</ele>
        <time>2023-05-02T11:03:17Z</time>
      </trkpt>
      <trkpt lat="49.16587" lon="-0.38575">
        <ele>6</ele>
        <time>2023-05-02T11:03:18Z</time>
      </trkpt>
      <trkpt lat="49.16585" lon="-0.38579">
        <ele>6</ele>
        <time>2023-05-02T11:03:19Z</time>
      </trkpt>
      <trkpt lat="49.16583" lon="-0.38583">
        <ele>6</ele>
        <time>2023-05-02T11:03:20Z</time>
      </trkpt>
      <trkpt lat="49.16583" lon="-0.38588">
        <ele>6</ele>
        <time>2023-05-02T11:03:21Z</time>
      </trkpt>
      <trkpt lat="49.16585" lon="-0.38593">
        <ele>6</ele>
        <time>2023-05-02T11:03:22Z</time>
      </trkpt>
      <trkpt lat="49.16587" lon="-0.38598">
        <ele>6</ele>
        <time>2023-05-02T11:03:23Z</time>
      </trkpt>
      <trkpt lat="49.1659" lon="-0.38603">
        <ele>6</ele>
        <time>2023-05-02T11:03:24Z</time>
      </trkpt>
      <trkpt lat="49.16593" lon="-0.38608">
        <ele>6</ele>
        <time>2023-05-02T11:03:25Z</time>
      </trkpt>
      <trkpt lat="49.16596" lon="-0.38614">
        <ele>6</ele>
        <time>2023-05-02T11:03:26Z</time>
      </trkpt>
      <trkpt lat="49.16599" lon="-0.38621">
        <ele>6</ele>
        <time>2023-05-02T11:03:27Z</time>
      </trkpt>
      <trkpt lat="49.16601" lon="-0.38628">
        <ele>6</ele>
        <time>2023-05-02T11:03:28Z</time>
      </trkpt>
      <trkpt lat="49.16603" lon="-0.38636">
        <ele>6</ele>
        <time>2023-05-02T11:03:29Z</time>
      </trkpt>
      <trkpt lat="49.16604" lon="-0.38643">
        <ele>6</ele>
        <time>2023-05-02T11:03:30Z</time>
      </trkpt>
      <trkpt lat="49.16603" lon="-0.3865">
        <ele>6</ele>
        <time>2023-05-02T11:03:31Z</time>
      </trkpt>
      <trkpt lat="49.16601" lon="-0.38657">
        <ele>6</ele>
        <time>2023-05-02T11:03:32Z</time>
      </trkpt>
      <trkpt lat="49.16598" lon="-0.38664">
        <ele>6</ele>
        <time>2023-05-02T11:03:33Z</time>
      </trkpt>
      <trkpt lat="49.16595" lon="-0.3867">
        <ele>6</ele>
        <time>2023-05-02T11:03:34Z</time>
      </trkpt>
      <trkpt lat="49.16592" lon="-0.38677">
        <ele>6</ele>
        <time>2023-05-02T11:03:35Z</time>
      </trkpt>
      <trkpt lat="49.1659" lon="-0.38685">
        <ele>6</ele>
        <time>2023-05-02T11:03:36Z</time>
      </trkpt>
      <trkpt lat="49.16588" lon="-0.38692">
        <ele>6</ele>
        <time>2023-05-02T11:03:37Z</time>
      </trkpt>
      <trkpt lat="49.16585" lon="-0.387">
        <ele>6</ele>
        <time>2023-05-02T11:03:38Z</time>
      </trkpt>
      <trkpt lat="49.16584" lon="-0.38708">
        <ele>6</ele>
        <time>2023-05-02T11:03:39Z</time>
      </trkpt>
      <trkpt lat="49.16582" lon="-0.38716">
        <ele>6</ele>
        <time>2023-05-02T11:03:40Z</time>
      </trkpt>
      <trkpt lat="49.16581" lon="-0.38725">
        <ele>6</ele>
        <time>2023-05-02T11:03:41Z</time>
      </trkpt>
      <trkpt lat="49.1658" lon="-0.38733">
        <ele>6</ele>
        <time>2023-05-02T11:03:42Z</time>
      </trkpt>
      <trkpt lat="49.16578" lon="-0.38741">
        <ele>6</ele>
        <time>2023-05-02T11:03:43Z</time>
      </trkpt>
      <trkpt lat="49.16576" lon="-0.38748">
        <ele>5.8</ele>
        <time>2023-05-02T11:03:44Z</time>
      </trkpt>
      <trkpt lat="49.16573" lon="-0.38752">
        <ele>5.8</ele>
        <time>2023-05-02T11:03:45Z</time>
      </trkpt>
      <trkpt lat="49.16569" lon="-0.38753">
        <ele>5.6</ele>
        <time>2023-05-02T11:03:46Z</time>
      </trkpt>
      <trkpt lat="49.16565" lon="-0.38751">
        <ele>5.6</ele>
        <time>2023-05-02T11:03:47Z</time>
      </trkpt>
      <trkpt lat="49.16562" lon="-0.38747">
        <ele>5.6</ele>
        <time>2023-05-02T11:03:48Z</time>
      </trkpt>
      <trkpt lat="49.16561" lon="-0.38741">
        <ele>5.4</ele>
        <time>2023-05-02T11:03:49Z</time>
      </trkpt>
      <trkpt lat="49.16561" lon="-0.38734">
        <ele>5.4</ele>
        <time>2023-05-02T11:03:50Z</time>
      </trkpt>
      <trkpt lat="49.16561" lon="-0.38726">
        <ele>5.4</ele>
        <time>2023-05-02T11:03:51Z</time>
      </trkpt>
      <trkpt lat="49.16561" lon="-0.38718">
        <ele>5.4</ele>
        <time>2023-05-02T11:03:52Z</time>
      </trkpt>
      <trkpt lat="49.16561" lon="-0.38711">
        <ele>5.4</ele>
        <time>2023-05-02T11:03:53Z</time>
      </trkpt>
      <trkpt lat="49.16561" lon="-0.38704">
        <ele>5.4</ele>
        <time>2023-05-02T11:03:54Z</time>
      </trkpt>
      <trkpt lat="49.16561" lon="-0.38696">
        <ele>5.4</ele>
        <time>2023-05-02T11:03:55Z</time>
      </trkpt>
      <trkpt lat="49.16562" lon="-0.38689">
        <ele>5.4</ele>
        <time>2023-05-02T11:03:56Z</time>
      </trkpt>
      <trkpt lat="49.16562" lon="-0.38682">
        <ele>5.4</ele>
        <time>2023-05-02T11:03:57Z</time>
      </trkpt>
      <trkpt lat="49.16562" lon="-0.38675">
        <ele>5.4</ele>
        <time>2023-05-02T11:03:58Z</time>
      </trkpt>
      <trkpt lat="49.16563" lon="-0.38667">
        <ele>5.4</ele>
        <time>2023-05-02T11:03:59Z</time>
      </trkpt>
      <trkpt lat="49.16563" lon="-0.38658">
        <ele>5.4</ele>
        <time>2023-05-02T11:04:00Z</time>
      </trkpt>
      <trkpt lat="49.16562" lon="-0.38649">
        <ele>5.2</ele>
        <time>2023-05-02T11:04:01Z</time>
      </trkpt>
      <trkpt lat="49.16561" lon="-0.3864">
        <ele>5.2</ele>
        <time>2023-05-02T11:04:02Z</time>
      </trkpt>
      <trkpt lat="49.1656" lon="-0.3863">
        <ele>5.2</ele>
        <time>2023-05-02T11:04:03Z</time>
      </trkpt>
      <trkpt lat="49.1656" lon="-0.38621">
        <ele>5</ele>
        <time>2023-05-02T11:04:04Z</time>
      </trkpt>
      <trkpt lat="49.16559" lon="-0.38612">
        <ele>5</ele>
        <time>2023-05-02T11:04:05Z</time>
      </trkpt>
      <trkpt lat="49.16559" lon="-0.38603">
        <ele>5</ele>
        <time>2023-05-02T11:04:06Z</time>
      </trkpt>
      <trkpt lat="49.16559" lon="-0.38594">
        <ele>5</ele>
        <time>2023-05-02T11:04:07Z</time>
      </trkpt>
      <trkpt lat="49.16559" lon="-0.38585">
        <ele>5</ele>
        <time>2023-05-02T11:04:08Z</time>
      </trkpt>
      <trkpt lat="49.16559" lon="-0.38576">
        <ele>5</ele>
        <time>2023-05-02T11:04:09Z</time>
      </trkpt>
      <trkpt lat="49.16559" lon="-0.38567">
        <ele>5</ele>
        <time>2023-05-02T11:04:10Z</time>
      </trkpt>
      <trkpt lat="49.16559" lon="-0.38558">
        <ele>5</ele>
        <time>2023-05-02T11:04:11Z</time>
      </trkpt>
      <trkpt lat="49.16559" lon="-0.38548">
        <ele>5</ele>
        <time>2023-05-02T11:04:12Z</time>
      </trkpt>
      <trkpt lat="49.16559" lon="-0.38539">
        <ele>5</ele>
        <time>2023-05-02T11:04:13Z</time>
      </trkpt>
      <trkpt lat="49.16559" lon="-0.3853">
        <ele>5</ele>
        <time>2023-05-02T11:04:14Z</time>
      </trkpt>
      <trkpt lat="49.16559" lon="-0.3852">
        <ele>5</ele>
        <time>2023-05-02T11:04:15Z</time>
      </trkpt>
      <trkpt lat="49.16559" lon="-0.38511">
        <ele>5</ele>
        <time>2023-05-02T11:04:16Z</time>
      </trkpt>
      <trkpt lat="49.16559" lon="-0.38502">
        <ele>5</ele>
        <time>2023-05-02T11:04:17Z</time>
      </trkpt>
      <trkpt lat="49.16559" lon="-0.38492">
        <ele>5</ele>
        <time>2023-05-02T11:04:18Z</time>
      </trkpt>
      <trkpt lat="49.16559" lon="-0.38482">
        <ele>5</ele>
        <time>2023-05-02T11:04:19Z</time>
      </trkpt>
      <trkpt lat="49.16559" lon="-0.38473">
        <ele>5</ele>
        <time>2023-05-02T11:04:20Z</time>
      </trkpt>
      <trkpt lat="49.16559" lon="-0.38463">
        <ele>5</ele>
        <time>2023-05-02T11:04:21Z</time>
      </trkpt>
      <trkpt lat="49.16559" lon="-0.38454">
        <ele>5</ele>
        <time>2023-05-02T11:04:22Z</time>
      </trkpt>
      <trkpt lat="49.16558" lon="-0.38445">
        <ele>5</ele>
        <time>2023-05-02T11:04:23Z</time>
      </trkpt>
      <trkpt lat="49.16558" lon="-0.38435">
        <ele>5</ele>
        <time>2023-05-02T11:04:24Z</time>
      </trkpt>
      <trkpt lat="49.16558" lon="-0.38426">
        <ele>5</ele>
        <time>2023-05-02T11:04:25Z</time>
      </trkpt>
      <trkpt lat="49.16558" lon="-0.38416">
        <ele>5</ele>
        <time>2023-05-02T11:04:26Z</time>
      </trkpt>
      <trkpt lat="49.16558" lon="-0.38406">
        <ele>5</ele>
        <time>2023-05-02T11:04:27Z</time>
      </trkpt>
      <trkpt lat="49.16557" lon="-0.38397">
        <ele>5</ele>
        <time>2023-05-02T11:04:28Z</time>
      </trkpt>
      <trkpt lat="49.16557" lon="-0.38387">
        <ele>5</ele>
        <time>2023-05-02T11:04:29Z</time>
      </trkpt>
      <trkpt lat="49.16557" lon="-0.38378">
        <ele>5.2</ele>
        <time>2023-05-02T11:04:30Z</time>
      </trkpt>
      <trkpt lat="49.16557" lon="-0.38368">
        <ele>5.2</ele>
        <time>2023-05-02T11:04:31Z</time>
      </trkpt>
      <trkpt lat="49.16557" lon="-0.38359">
        <ele>5.2</ele>
        <time>2023-05-02T11:04:32Z</time>
      </trkpt>
      <trkpt lat="49.16556" lon="-0.38349">
        <ele>5.4</ele>
        <time>2023-05-02T11:04:33Z</time>
      </trkpt>
      <trkpt lat="49.16556" lon="-0.3834">
        <ele>5.4</ele>
        <time>2023-05-02T11:04:34Z</time>
      </trkpt>
      <trkpt lat="49.16556" lon="-0.38331">
        <ele>5.4</ele>
        <time>2023-05-02T11:04:35Z</time>
      </trkpt>
      <trkpt lat="49.16556" lon="-0.38321">
        <ele>5.4</ele>
        <time>2023-05-02T11:04:36Z</time>
      </trkpt>
      <trkpt lat="49.16556" lon="-0.38312">
        <ele>5.4</ele>
        <time>2023-05-02T11:04:37Z</time>
      </trkpt>
      <trkpt lat="49.16556" lon="-0.38302">
        <ele>5.2</ele>
        <time>2023-05-02T11:04:38Z</time>
      </trkpt>
      <trkpt lat="49.16556" lon="-0.38293">
        <ele>5.2</ele>
        <time>2023-05-02T11:04:39Z</time>
      </trkpt>
      <trkpt lat="49.16557" lon="-0.38283">
        <ele>5.2</ele>
        <time>2023-05-02T11:04:40Z</time>
      </trkpt>
      <trkpt lat="49.16557" lon="-0.38274">
        <ele>5</ele>
        <time>2023-05-02T11:04:41Z</time>
      </trkpt>
      <trkpt lat="49.16557" lon="-0.38265">
        <ele>5</ele>
        <time>2023-05-02T11:04:42Z</time>
      </trkpt>
      <trkpt lat="49.16557" lon="-0.38255">
        <ele>5</ele>
        <time>2023-05-02T11:04:43Z</time>
      </trkpt>
      <trkpt lat="49.16557" lon="-0.38246">
        <ele>5</ele>
        <time>2023-05-02T11:04:44Z</time>
      </trkpt>
      <trkpt lat="49.16557" lon="-0.38236">
        <ele>5.2</ele>
        <time>2023-05-02T11:04:45Z</time>
      </trkpt>
      <trkpt lat="49.16557" lon="-0.38226">
        <ele>5.2</ele>
        <time>2023-05-02T11:04:46Z</time>
      </trkpt>
      <trkpt lat="49.16557" lon="-0.38217">
        <ele>5.4</ele>
        <time>2023-05-02T11:04:47Z</time>
      </trkpt>
      <trkpt lat="49.16557" lon="-0.38207">
        <ele>5.4</ele>
        <time>2023-05-02T11:04:48Z</time>
      </trkpt>
      <trkpt lat="49.16557" lon="-0.38197">
        <ele>5.6</ele>
        <time>2023-05-02T11:04:49Z</time>
      </trkpt>
      <trkpt lat="49.16557" lon="-0.38187">
        <ele>5.6</ele>
        <time>2023-05-02T11:04:50Z</time>
      </trkpt>
      <trkpt lat="49.16557" lon="-0.38177">
        <ele>5.6</ele>
        <time>2023-05-02T11:04:51Z</time>
      </trkpt>
      <trkpt lat="49.16558" lon="-0.38167">
        <ele>5.6</ele>
        <time>2023-05-02T11:04:52Z</time>
      </trkpt>
      <trkpt lat="49.16558" lon="-0.38157">
        <ele>5.6</ele>
        <time>2023-05-02T11:04:53Z</time>
      </trkpt>
      <trkpt lat="49.16558" lon="-0.38147">
        <ele>5.6</ele>
        <time>2023-05-02T11:04:54Z</time>
      </trkpt>
      <trkpt lat="49.16558" lon="-0.38137">
        <ele>5.4</ele>
        <time>2023-05-02T11:04:55Z</time>
      </trkpt>
      <trkpt lat="49.16559" lon="-0.38127">
        <ele>5.2</ele>
        <time>2023-05-02T11:04:56Z</time>
      </trkpt>
      <trkpt lat="49.16559" lon="-0.38118">
        <ele>5</ele>
        <time>2023-05-02T11:04:57Z</time>
      </trkpt>
      <trkpt lat="49.1656" lon="-0.38109">
        <ele>5</ele>
        <time>2023-05-02T11:04:58Z</time>
      </trkpt>
      <trkpt lat="49.1656" lon="-0.38101">
        <ele>5</ele>
        <time>2023-05-02T11:04:59Z</time>
      </trkpt>
      <trkpt lat="49.16561" lon="-0.38092">
        <ele>4.8</ele>
        <time>2023-05-02T11:05:00Z</time>
      </trkpt>
      <trkpt lat="49.16561" lon="-0.38083">
        <ele>4.6</ele>
        <time>2023-05-02T11:05:01Z</time>
      </trkpt>
      <trkpt lat="49.16562" lon="-0.38073">
        <ele>4.6</ele>
        <time>2023-05-02T11:05:02Z</time>
      </trkpt>
      <trkpt lat="49.16562" lon="-0.38063">
        <ele>4.6</ele>
        <time>2023-05-02T11:05:03Z</time>
      </trkpt>
      <trkpt lat="49.16563" lon="-0.38052">
        <ele>4.6</ele>
        <time>2023-05-02T11:05:04Z</time>
      </trkpt>
      <trkpt lat="49.16564" lon="-0.38042">
        <ele>4.6</ele>
        <time>2023-05-02T11:05:05Z</time>
      </trkpt>
      <trkpt lat="49.16565" lon="-0.38033">
        <ele>4.6</ele>
        <time>2023-05-02T11:05:06Z</time>
      </trkpt>
      <trkpt lat="49.16566" lon="-0.38023">
        <ele>4.6</ele>
        <time>2023-05-02T11:05:07Z</time>
      </trkpt>
      <trkpt lat="49.16567" lon="-0.38014">
        <ele>4.6</ele>
        <time>2023-05-02T11:05:08Z</time>
      </trkpt>
      <trkpt lat="49.16568" lon="-0.38004">
        <ele>4.6</ele>
        <time>2023-05-02T11:05:09Z</time>
      </trkpt>
      <trkpt lat="49.16569" lon="-0.37994">
        <ele>4.6</ele>
        <time>2023-05-02T11:05:10Z</time>
      </trkpt>
      <trkpt lat="49.1657" lon="-0.37985">
        <ele>4.4</ele>
        <time>2023-05-02T11:05:11Z</time>
      </trkpt>
      <trkpt lat="49.16571" lon="-0.37975">
        <ele>4.2</ele>
        <time>2023-05-02T11:05:12Z</time>
      </trkpt>
      <trkpt lat="49.16572" lon="-0.37965">
        <ele>4</ele>
        <time>2023-05-02T11:05:13Z</time>
      </trkpt>
      <trkpt lat="49.16572" lon="-0.37956">
        <ele>4</ele>
        <time>2023-05-02T11:05:14Z</time>
      </trkpt>
      <trkpt lat="49.16574" lon="-0.37947">
        <ele>4</ele>
        <time>2023-05-02T11:05:15Z</time>
      </trkpt>
      <trkpt lat="49.16575" lon="-0.37937">
        <ele>3.8</ele>
        <time>2023-05-02T11:05:16Z</time>
      </trkpt>
      <trkpt lat="49.16576" lon="-0.37929">
        <ele>3.6</ele>
        <time>2023-05-02T11:05:17Z</time>
      </trkpt>
      <trkpt lat="49.16577" lon="-0.3792">
        <ele>3.4</ele>
        <time>2023-05-02T11:05:18Z</time>
      </trkpt>
      <trkpt lat="49.16578" lon="-0.37911">
        <ele>3.4</ele>
        <time>2023-05-02T11:05:19Z</time>
      </trkpt>
      <trkpt lat="49.16579" lon="-0.37902">
        <ele>3.4</ele>
        <time>2023-05-02T11:05:20Z</time>
      </trkpt>
      <trkpt lat="49.1658" lon="-0.37893">
        <ele>3.4</ele>
        <time>2023-05-02T11:05:21Z</time>
      </trkpt>
      <trkpt lat="49.16581" lon="-0.37884">
        <ele>3.6</ele>
        <time>2023-05-02T11:05:22Z</time>
      </trkpt>
      <trkpt lat="49.16582" lon="-0.37875">
        <ele>3.6</ele>
        <time>2023-05-02T11:05:23Z</time>
      </trkpt>
      <trkpt lat="49.16584" lon="-0.37866">
        <ele>3.6</ele>
        <time>2023-05-02T11:05:24Z</time>
      </trkpt>
      <trkpt lat="49.16585" lon="-0.37856">
        <ele>3.8</ele>
        <time>2023-05-02T11:05:25Z</time>
      </trkpt>
      <trkpt lat="49.16587" lon="-0.37847">
        <ele>3.8</ele>
        <time>2023-05-02T11:05:26Z</time>
      </trkpt>
      <trkpt lat="49.16588" lon="-0.37836">
        <ele>4</ele>
        <time>2023-05-02T11:05:27Z</time>
      </trkpt>
      <trkpt lat="49.16588" lon="-0.37826">
        <ele>4</ele>
        <time>2023-05-02T11:05:28Z</time>
      </trkpt>
      <trkpt lat="49.16587" lon="-0.37818">
        <ele>4</ele>
        <time>2023-05-02T11:05:29Z</time>
      </trkpt>
      <trkpt lat="49.16584" lon="-0.37812">
        <ele>4</ele>
        <time>2023-05-02T11:05:30Z</time>
      </trkpt>
      <trkpt lat="49.16581" lon="-0.37806">
        <ele>4</ele>
        <time>2023-05-02T11:05:31Z</time>
      </trkpt>
      <trkpt lat="49.16577" lon="-0.37801">
        <ele>4</ele>
        <time>2023-05-02T11:05:32Z</time>
      </trkpt>
      <trkpt lat="49.16573" lon="-0.37795">
        <ele>4</ele>
        <time>2023-05-02T11:05:33Z</time>
      </trkpt>
      <trkpt lat="49.16569" lon="-0.37789">
        <ele>4</ele>
        <time>2023-05-02T11:05:34Z</time>
      </trkpt>
      <trkpt lat="49.16566" lon="-0.37781">
        <ele>4</ele>
        <time>2023-05-02T11:05:35Z</time>
      </trkpt>
      <trkpt lat="49.16562" lon="-0.37773">
        <ele>4</ele>
        <time>2023-05-02T11:05:36Z</time>
      </trkpt>
      <trkpt lat="49.16557" lon="-0.37764">
        <ele>3.8</ele>
        <time>2023-05-02T11:05:37Z</time>
      </trkpt>
      <trkpt lat="49.16552" lon="-0.37756">
        <ele>3.8</ele>
        <time>2023-05-02T11:05:38Z</time>
      </trkpt>
      <trkpt lat="49.16547" lon="-0.3775">
        <ele>3.6</ele>
        <time>2023-05-02T11:05:39Z</time>
      </trkpt>
      <trkpt lat="49.16542" lon="-0.37744">
        <ele>3.4</ele>
        <time>2023-05-02T11:05:40Z</time>
      </trkpt>
      <trkpt lat="49.16536" lon="-0.3774">
        <ele>3.2</ele>
        <time>2023-05-02T11:05:41Z</time>
      </trkpt>
      <trkpt lat="49.1653" lon="-0.37737">
        <ele>3.2</ele>
        <time>2023-05-02T11:05:42Z</time>
      </trkpt>
      <trkpt lat="49.16523" lon="-0.37734">
        <ele>3.2</ele>
        <time>2023-05-02T11:05:43Z</time>
      </trkpt>
      <trkpt lat="49.16517" lon="-0.37732">
        <ele>3</ele>
        <time>2023-05-02T11:05:44Z</time>
      </trkpt>
      <trkpt lat="49.16511" lon="-0.3773">
        <ele>3</ele>
        <time>2023-05-02T11:05:45Z</time>
      </trkpt>
      <trkpt lat="49.16505" lon="-0.37729">
        <ele>3</ele>
        <time>2023-05-02T11:05:46Z</time>
      </trkpt>
      <trkpt lat="49.16499" lon="-0.37727">
        <ele>3</ele>
        <time>2023-05-02T11:05:47Z</time>
      </trkpt>
      <trkpt lat="49.16492" lon="-0.37727">
        <ele>3.6</ele>
        <time>2023-05-02T11:05:48Z</time>
      </trkpt>
      <trkpt lat="49.16486" lon="-0.37726">
        <ele>4</ele>
        <time>2023-05-02T11:05:49Z</time>
      </trkpt>
      <trkpt lat="49.1648" lon="-0.37725">
        <ele>4.6</ele>
        <time>2023-05-02T11:05:50Z</time>
      </trkpt>
      <trkpt lat="49.16474" lon="-0.37725">
        <ele>5</ele>
        <time>2023-05-02T11:05:51Z</time>
      </trkpt>
      <trkpt lat="49.16468" lon="-0.37724">
        <ele>5.4</ele>
        <time>2023-05-02T11:05:52Z</time>
      </trkpt>
      <trkpt lat="49.16461" lon="-0.37724">
        <ele>5.8</ele>
        <time>2023-05-02T11:05:53Z</time>
      </trkpt>
      <trkpt lat="49.16455" lon="-0.37724">
        <ele>6.4</ele>
        <time>2023-05-02T11:05:54Z</time>
      </trkpt>
      <trkpt lat="49.16449" lon="-0.37723">
        <ele>6.6</ele>
        <time>2023-05-02T11:05:55Z</time>
      </trkpt>
      <trkpt lat="49.16443" lon="-0.37722">
        <ele>7</ele>
        <time>2023-05-02T11:05:56Z</time>
      </trkpt>
      <trkpt lat="49.16437" lon="-0.37721">
        <ele>7.6</ele>
        <time>2023-05-02T11:05:57Z</time>
      </trkpt>
      <trkpt lat="49.1643" lon="-0.37721">
        <ele>8</ele>
        <time>2023-05-02T11:05:58Z</time>
      </trkpt>
      <trkpt lat="49.16424" lon="-0.3772">
        <ele>8.4</ele>
        <time>2023-05-02T11:05:59Z</time>
      </trkpt>
      <trkpt lat="49.16418" lon="-0.3772">
        <ele>8.8</ele>
        <time>2023-05-02T11:06:00Z</time>
      </trkpt>
      <trkpt lat="49.16412" lon="-0.3772">
        <ele>9</ele>
        <time>2023-05-02T11:06:01Z</time>
      </trkpt>
      <trkpt lat="49.16406" lon="-0.3772">
        <ele>9.4</ele>
        <time>2023-05-02T11:06:02Z</time>
      </trkpt>
      <trkpt lat="49.164" lon="-0.37721">
        <ele>9.6</ele>
        <time>2023-05-02T11:06:03Z</time>
      </trkpt>
      <trkpt lat="49.16394" lon="-0.37723">
        <ele>9.8</ele>
        <time>2023-05-02T11:06:04Z</time>
      </trkpt>
      <trkpt lat="49.16388" lon="-0.37725">
        <ele>10.2</ele>
        <time>2023-05-02T11:06:05Z</time>
      </trkpt>
      <trkpt lat="49.16382" lon="-0.37727">
        <ele>10.6</ele>
        <time>2023-05-02T11:06:06Z</time>
      </trkpt>
      <trkpt lat="49.16376" lon="-0.3773">
        <ele>10.8</ele>
        <time>2023-05-02T11:06:07Z</time>
      </trkpt>
      <trkpt lat="49.16371" lon="-0.37732">
        <ele>11.2</ele>
        <time>2023-05-02T11:06:08Z</time>
      </trkpt>
      <trkpt lat="49.16365" lon="-0.37734">
        <ele>11.6</ele>
        <time>2023-05-02T11:06:09Z</time>
      </trkpt>
      <trkpt lat="49.16359" lon="-0.37737">
        <ele>11.8</ele>
        <time>2023-05-02T11:06:10Z</time>
      </trkpt>
      <trkpt lat="49.16354" lon="-0.37739">
        <ele>12</ele>
        <time>2023-05-02T11:06:11Z</time>
      </trkpt>
      <trkpt lat="49.16348" lon="-0.37741">
        <ele>12.4</ele>
        <time>2023-05-02T11:06:12Z</time>
      </trkpt>
      <trkpt lat="49.16342" lon="-0.37743">
        <ele>12.6</ele>
        <time>2023-05-02T11:06:13Z</time>
      </trkpt>
      <trkpt lat="49.16336" lon="-0.37745">
        <ele>12.6</ele>
        <time>2023-05-02T11:06:14Z</time>
      </trkpt>
      <trkpt lat="49.1633" lon="-0.37746">
        <ele>12.6</ele>
        <time>2023-05-02T11:06:15Z</time>
      </trkpt>
      <trkpt lat="49.16325" lon="-0.37745">
        <ele>12.6</ele>
        <time>2023-05-02T11:06:16Z</time>
      </trkpt>
      <trkpt lat="49.16321" lon="-0.37743">
        <ele>12.4</ele>
        <time>2023-05-02T11:06:17Z</time>
      </trkpt>
      <trkpt lat="49.16318" lon="-0.37738">
        <ele>12.2</ele>
        <time>2023-05-02T11:06:18Z</time>
      </trkpt>
      <trkpt lat="49.16317" lon="-0.37731">
        <ele>11.8</ele>
        <time>2023-05-02T11:06:19Z</time>
      </trkpt>
      <trkpt lat="49.16318" lon="-0.37725">
        <ele>11.6</ele>
        <time>2023-05-02T11:06:20Z</time>
      </trkpt>
      <trkpt lat="49.1632" lon="-0.37718">
        <ele>11.6</ele>
        <time>2023-05-02T11:06:21Z</time>
      </trkpt>
      <trkpt lat="49.16324" lon="-0.37712">
        <ele>11.4</ele>
        <time>2023-05-02T11:06:22Z</time>
      </trkpt>
      <trkpt lat="49.16327" lon="-0.37706">
        <ele>11.4</ele>
        <time>2023-05-02T11:06:23Z</time>
      </trkpt>
      <trkpt lat="49.16331" lon="-0.377">
        <ele>11.2</ele>
        <time>2023-05-02T11:06:24Z</time>
      </trkpt>
      <trkpt lat="49.16335" lon="-0.37694">
        <ele>10.8</ele>
        <time>2023-05-02T11:06:25Z</time>
      </trkpt>
      <trkpt lat="49.16338" lon="-0.37687">
        <ele>10.6</ele>
        <time>2023-05-02T11:06:26Z</time>
      </trkpt>
      <trkpt lat="49.16341" lon="-0.37679">
        <ele>10</ele>
        <time>2023-05-02T11:06:27Z</time>
      </trkpt>
      <trkpt lat="49.16344" lon="-0.37671">
        <ele>9.6</ele>
        <time>2023-05-02T11:06:28Z</time>
      </trkpt>
      <trkpt lat="49.16347" lon="-0.37663">
        <ele>9.2</ele>
        <time>2023-05-02T11:06:29Z</time>
      </trkpt>
      <trkpt lat="49.16349" lon="-0.37655">
        <ele>8.8</ele>
        <time>2023-05-02T11:06:30Z</time>
      </trkpt>
      <trkpt lat="49.16352" lon="-0.37647">
        <ele>8.4</ele>
        <time>2023-05-02T11:06:31Z</time>
      </trkpt>
      <trkpt lat="49.16355" lon="-0.3764">
        <ele>8.2</ele>
        <time>2023-05-02T11:06:32Z</time>
      </trkpt>
      <trkpt lat="49.16357" lon="-0.37632">
        <ele>7.6</ele>
        <time>2023-05-02T11:06:33Z</time>
      </trkpt>
      <trkpt lat="49.1636" lon="-0.37626">
        <ele>7.4</ele>
        <time>2023-05-02T11:06:34Z</time>
      </trkpt>
      <trkpt lat="49.16362" lon="-0.37619">
        <ele>7</ele>
        <time>2023-05-02T11:06:35Z</time>
      </trkpt>
      <trkpt lat="49.16365" lon="-0.37612">
        <ele>6.8</ele>
        <time>2023-05-02T11:06:36Z</time>
      </trkpt>
      <trkpt lat="49.16366" lon="-0.37606">
        <ele>6.6</ele>
        <time>2023-05-02T11:06:37Z</time>
      </trkpt>
      <trkpt lat="49.16367" lon="-0.37599">
        <ele>6.4</ele>
        <time>2023-05-02T11:06:38Z</time>
      </trkpt>
      <trkpt lat="49.16368" lon="-0.37593">
        <ele>6.2</ele>
        <time>2023-05-02T11:06:39Z</time>
      </trkpt>
      <trkpt lat="49.16368" lon="-0.37588">
        <ele>6</ele>
        <time>2023-05-02T11:06:40Z</time>
      </trkpt>
      <trkpt lat="49.16368" lon="-0.37583">
        <ele>6</ele>
        <time>2023-05-02T11:06:41Z</time>
      </trkpt>
      <trkpt lat="49.16366" lon="-0.3758">
        <ele>6</ele>
        <time>2023-05-02T11:06:42Z</time>
      </trkpt>
      <trkpt lat="49.16365" lon="-0.37578">
        <ele>6.2</ele>
        <time>2023-05-02T11:06:43Z</time>
      </trkpt>
      <trkpt lat="49.16362" lon="-0.37578">
        <ele>6.4</ele>
        <time>2023-05-02T11:06:44Z</time>
      </trkpt>
      <trkpt lat="49.1636" lon="-0.37579">
        <ele>6.6</ele>
        <time>2023-05-02T11:06:45Z</time>
      </trkpt>
      <trkpt lat="49.16358" lon="-0.37581">
        <ele>6.6</ele>
        <time>2023-05-02T11:06:46Z</time>
      </trkpt>
      <trkpt lat="49.16355" lon="-0.37584">
        <ele>6.6</ele>
        <time>2023-05-02T11:06:47Z</time>
      </trkpt>
      <trkpt lat="49.16353" lon="-0.37586">
        <ele>7</ele>
        <time>2023-05-02T11:06:48Z</time>
      </trkpt>
      <trkpt lat="49.1635" lon="-0.37589">
        <ele>7</ele>
        <time>2023-05-02T11:06:49Z</time>
      </trkpt>
      <trkpt lat="49.16346" lon="-0.37592">
        <ele>7.4</ele>
        <time>2023-05-02T11:06:50Z</time>
      </trkpt>
      <trkpt lat="49.16342" lon="-0.37595">
        <ele>7.8</ele>
        <time>2023-05-02T11:06:51Z</time>
      </trkpt>
      <trkpt lat="49.16337" lon="-0.37598">
        <ele>8.2</ele>
        <time>2023-05-02T11:06:52Z</time>
      </trkpt>
      <trkpt lat="49.16333" lon="-0.37601">
        <ele>8.4</ele>
        <time>2023-05-02T11:06:53Z</time>
      </trkpt>
      <trkpt lat="49.1633" lon="-0.37604">
        <ele>8.4</ele>
        <time>2023-05-02T11:06:54Z</time>
      </trkpt>
      <trkpt lat="49.16327" lon="-0.37607">
        <ele>8.4</ele>
        <time>2023-05-02T11:06:55Z</time>
      </trkpt>
      <trkpt lat="49.16323" lon="-0.37611">
        <ele>8.4</ele>
        <time>2023-05-02T11:06:56Z</time>
      </trkpt>
      <trkpt lat="49.16318" lon="-0.37614">
        <ele>8.4</ele>
        <time>2023-05-02T11:06:57Z</time>
      </trkpt>
      <trkpt lat="49.16313" lon="-0.37617">
        <ele>8.4</ele>
        <time>2023-05-02T11:06:58Z</time>
      </trkpt>
      <trkpt lat="49.16308" lon="-0.3762">
        <ele>8.2</ele>
        <time>2023-05-02T11:06:59Z</time>
      </trkpt>
      <trkpt lat="49.16303" lon="-0.37623">
        <ele>8.2</ele>
        <time>2023-05-02T11:07:00Z</time>
      </trkpt>
      <trkpt lat="49.16298" lon="-0.37626">
        <ele>8.2</ele>
        <time>2023-05-02T11:07:01Z</time>
      </trkpt>
      <trkpt lat="49.16293" lon="-0.37628">
        <ele>8.2</ele>
        <time>2023-05-02T11:07:02Z</time>
      </trkpt>
      <trkpt lat="49.16288" lon="-0.37631">
        <ele>8.2</ele>
        <time>2023-05-02T11:07:03Z</time>
      </trkpt>
      <trkpt lat="49.16283" lon="-0.37633">
        <ele>8.2</ele>
        <time>2023-05-02T11:07:04Z</time>
      </trkpt>
      <trkpt lat="49.16278" lon="-0.37635">
        <ele>8.2</ele>
        <time>2023-05-02T11:07:05Z</time>
      </trkpt>
      <trkpt lat="49.16273" lon="-0.37638">
        <ele>8.2</ele>
        <time>2023-05-02T11:07:06Z</time>
      </trkpt>
      <trkpt lat="49.16268" lon="-0.37641">
        <ele>8.2</ele>
        <time>2023-05-02T11:07:07Z</time>
      </trkpt>
      <trkpt lat="49.16263" lon="-0.37645">
        <ele>8.2</ele>
        <time>2023-05-02T11:07:08Z</time>
      </trkpt>
      <trkpt lat="49.16258" lon="-0.37648">
        <ele>8.4</ele>
        <time>2023-05-02T11:07:09Z</time>
      </trkpt>
      <trkpt lat="49.16253" lon="-0.37652">
        <ele>8.4</ele>
        <time>2023-05-02T11:07:10Z</time>
      </trkpt>
      <trkpt lat="49.16247" lon="-0.37656">
        <ele>8.4</ele>
        <time>2023-05-02T11:07:11Z</time>
      </trkpt>
      <trkpt lat="49.16242" lon="-0.37659">
        <ele>8.4</ele>
        <time>2023-05-02T11:07:12Z</time>
      </trkpt>
      <trkpt lat="49.16236" lon="-0.37662">
        <ele>8.2</ele>
        <time>2023-05-02T11:07:13Z</time>
      </trkpt>
      <trkpt lat="49.16231" lon="-0.37664">
        <ele>8</ele>
        <time>2023-05-02T11:07:14Z</time>
      </trkpt>
      <trkpt lat="49.16225" lon="-0.37666">
        <ele>7.8</ele>
        <time>2023-05-02T11:07:15Z</time>
      </trkpt>
      <trkpt lat="49.16219" lon="-0.37668">
        <ele>7.6</ele>
        <time>2023-05-02T11:07:16Z</time>
      </trkpt>
      <trkpt lat="49.16214" lon="-0.37671">
        <ele>7.4</ele>
        <time>2023-05-02T11:07:17Z</time>
      </trkpt>
      <trkpt lat="49.16208" lon="-0.37675">
        <ele>7</ele>
        <time>2023-05-02T11:07:18Z</time>
      </trkpt>
      <trkpt lat="49.16203" lon="-0.3768">
        <ele>7</ele>
        <time>2023-05-02T11:07:19Z</time>
      </trkpt>
      <trkpt lat="49.16197" lon="-0.37684">
        <ele>6.8</ele>
        <time>2023-05-02T11:07:20Z</time>
      </trkpt>
      <trkpt lat="49.16192" lon="-0.37688">
        <ele>6.6</ele>
        <time>2023-05-02T11:07:21Z</time>
      </trkpt>
      <trkpt lat="49.16187" lon="-0.37692">
        <ele>6.6</ele>
        <time>2023-05-02T11:07:22Z</time>
      </trkpt>
      <trkpt lat="49.16182" lon="-0.37696">
        <ele>6.4</ele>
        <time>2023-05-02T11:07:23Z</time>
      </trkpt>
      <trkpt lat="49.16176" lon="-0.37701">
        <ele>6.2</ele>
        <time>2023-05-02T11:07:24Z</time>
      </trkpt>
      <trkpt lat="49.1617" lon="-0.37704">
        <ele>6</ele>
        <time>2023-05-02T11:07:25Z</time>
      </trkpt>
      <trkpt lat="49.16164" lon="-0.37709">
        <ele>6</ele>
        <time>2023-05-02T11:07:26Z</time>
      </trkpt>
      <trkpt lat="49.16158" lon="-0.37713">
        <ele>6</ele>
        <time>2023-05-02T11:07:27Z</time>
      </trkpt>
      <trkpt lat="49.16152" lon="-0.37717">
        <ele>6.2</ele>
        <time>2023-05-02T11:07:28Z</time>
      </trkpt>
      <trkpt lat="49.16146" lon="-0.37721">
        <ele>6.4</ele>
        <time>2023-05-02T11:07:29Z</time>
      </trkpt>
      <trkpt lat="49.16139" lon="-0.37724">
        <ele>6.4</ele>
        <time>2023-05-02T11:07:30Z</time>
      </trkpt>
      <trkpt lat="49.16133" lon="-0.37728">
        <ele>6.6</ele>
        <time>2023-05-02T11:07:31Z</time>
      </trkpt>
      <trkpt lat="49.16127" lon="-0.37732">
        <ele>6.6</ele>
        <time>2023-05-02T11:07:32Z</time>
      </trkpt>
      <trkpt lat="49.16121" lon="-0.37736">
        <ele>6.6</ele>
        <time>2023-05-02T11:07:33Z</time>
      </trkpt>
      <trkpt lat="49.16115" lon="-0.3774">
        <ele>6.8</ele>
        <time>2023-05-02T11:07:34Z</time>
      </trkpt>
      <trkpt lat="49.16109" lon="-0.37744">
        <ele>6.8</ele>
        <time>2023-05-02T11:07:35Z</time>
      </trkpt>
      <trkpt lat="49.16103" lon="-0.37747">
        <ele>7</ele>
        <time>2023-05-02T11:07:36Z</time>
      </trkpt>
      <trkpt lat="49.16097" lon="-0.37751">
        <ele>7</ele>
        <time>2023-05-02T11:07:37Z</time>
      </trkpt>
      <trkpt lat="49.16092" lon="-0.37756">
        <ele>7.2</ele>
        <time>2023-05-02T11:07:38Z</time>
      </trkpt>
      <trkpt lat="49.16086" lon="-0.3776">
        <ele>7.4</ele>
        <time>2023-05-02T11:07:39Z</time>
      </trkpt>
      <trkpt lat="49.1608" lon="-0.37764">
        <ele>7.4</ele>
        <time>2023-05-02T11:07:40Z</time>
      </trkpt>
      <trkpt lat="49.16075" lon="-0.37768">
        <ele>7.4</ele>
        <time>2023-05-02T11:07:41Z</time>
      </trkpt>
      <trkpt lat="49.16069" lon="-0.37772">
        <ele>7.4</ele>
        <time>2023-05-02T11:07:42Z</time>
      </trkpt>
      <trkpt lat="49.16063" lon="-0.37776">
        <ele>7.4</ele>
        <time>2023-05-02T11:07:43Z</time>
      </trkpt>
      <trkpt lat="49.16056" lon="-0.3778">
        <ele>7.4</ele>
        <time>2023-05-02T11:07:44Z</time>
      </trkpt>
      <trkpt lat="49.1605" lon="-0.37783">
        <ele>7.4</ele>
        <time>2023-05-02T11:07:45Z</time>
      </trkpt>
      <trkpt lat="49.16043" lon="-0.37787">
        <ele>7.4</ele>
        <time>2023-05-02T11:07:46Z</time>
      </trkpt>
      <trkpt lat="49.16037" lon="-0.37791">
        <ele>7.4</ele>
        <time>2023-05-02T11:07:47Z</time>
      </trkpt>
      <trkpt lat="49.1603" lon="-0.37795">
        <ele>7.4</ele>
        <time>2023-05-02T11:07:48Z</time>
      </trkpt>
      <trkpt lat="49.16024" lon="-0.37799">
        <ele>7.6</ele>
        <time>2023-05-02T11:07:49Z</time>
      </trkpt>
      <trkpt lat="49.16018" lon="-0.37803">
        <ele>7.6</ele>
        <time>2023-05-02T11:07:50Z</time>
      </trkpt>
      <trkpt lat="49.16011" lon="-0.37807">
        <ele>7.6</ele>
        <time>2023-05-02T11:07:51Z</time>
      </trkpt>
      <trkpt lat="49.16005" lon="-0.3781">
        <ele>7.6</ele>
        <time>2023-05-02T11:07:52Z</time>
      </trkpt>
      <trkpt lat="49.16" lon="-0.37814">
        <ele>8</ele>
        <time>2023-05-02T11:07:53Z</time>
      </trkpt>
      <trkpt lat="49.15994" lon="-0.37818">
        <ele>8</ele>
        <time>2023-05-02T11:07:54Z</time>
      </trkpt>
      <trkpt lat="49.15988" lon="-0.37822">
        <ele>8.2</ele>
        <time>2023-05-02T11:07:55Z</time>
      </trkpt>
      <trkpt lat="49.15982" lon="-0.37827">
        <ele>8.2</ele>
        <time>2023-05-02T11:07:56Z</time>
      </trkpt>
      <trkpt lat="49.15976" lon="-0.37831">
        <ele>8.4</ele>
        <time>2023-05-02T11:07:57Z</time>
      </trkpt>
      <trkpt lat="49.1597" lon="-0.37836">
        <ele>8.4</ele>
        <time>2023-05-02T11:07:58Z</time>
      </trkpt>
      <trkpt lat="49.15964" lon="-0.3784">
        <ele>8.4</ele>
        <time>2023-05-02T11:07:59Z</time>
      </trkpt>
      <trkpt lat="49.15958" lon="-0.37844">
        <ele>8.4</ele>
        <time>2023-05-02T11:08:00Z</time>
      </trkpt>
      <trkpt lat="49.15952" lon="-0.37848">
        <ele>8.2</ele>
        <time>2023-05-02T11:08:01Z</time>
      </trkpt>
      <trkpt lat="49.15947" lon="-0.37851">
        <ele>8.2</ele>
        <time>2023-05-02T11:08:02Z</time>
      </trkpt>
      <trkpt lat="49.15941" lon="-0.37855">
        <ele>8.2</ele>
        <time>2023-05-02T11:08:03Z</time>
      </trkpt>
      <trkpt lat="49.15935" lon="-0.37858">
        <ele>8</ele>
        <time>2023-05-02T11:08:04Z</time>
      </trkpt>
      <trkpt lat="49.15929" lon="-0.37861">
        <ele>8</ele>
        <time>2023-05-02T11:08:05Z</time>
      </trkpt>
      <trkpt lat="49.15923" lon="-0.37865">
        <ele>8</ele>
        <time>2023-05-02T11:08:06Z</time>
      </trkpt>
      <trkpt lat="49.15918" lon="-0.37868">
        <ele>8</ele>
        <time>2023-05-02T11:08:07Z</time>
      </trkpt>
      <trkpt lat="49.15912" lon="-0.37872">
        <ele>8</ele>
        <time>2023-05-02T11:08:08Z</time>
      </trkpt>
      <trkpt lat="49.15906" lon="-0.37875">
        <ele>8</ele>
        <time>2023-05-02T11:08:09Z</time>
      </trkpt>
      <trkpt lat="49.159" lon="-0.37878">
        <ele>8</ele>
        <time>2023-05-02T11:08:10Z</time>
      </trkpt>
      <trkpt lat="49.15895" lon="-0.37882">
        <ele>8</ele>
        <time>2023-05-02T11:08:11Z</time>
      </trkpt>
      <trkpt lat="49.1589" lon="-0.37885">
        <ele>8</ele>
        <time>2023-05-02T11:08:12Z</time>
      </trkpt>
      <trkpt lat="49.15884" lon="-0.37889">
        <ele>8</ele>
        <time>2023-05-02T11:08:13Z</time>
      </trkpt>
      <trkpt lat="49.15878" lon="-0.37894">
        <ele>8</ele>
        <time>2023-05-02T11:08:14Z</time>
      </trkpt>
      <trkpt lat="49.15872" lon="-0.37899">
        <ele>8</ele>
        <time>2023-05-02T11:08:15Z</time>
      </trkpt>
      <trkpt lat="49.15865" lon="-0.37904">
        <ele>8.2</ele>
        <time>2023-05-02T11:08:16Z</time>
      </trkpt>
      <trkpt lat="49.15859" lon="-0.37909">
        <ele>8.2</ele>
        <time>2023-05-02T11:08:17Z</time>
      </trkpt>
      <trkpt lat="49.15853" lon="-0.37914">
        <ele>8.2</ele>
        <time>2023-05-02T11:08:18Z</time>
      </trkpt>
      <trkpt lat="49.15848" lon="-0.37919">
        <ele>8.2</ele>
        <time>2023-05-02T11:08:19Z</time>
      </trkpt>
      <trkpt lat="49.15843" lon="-0.37924">
        <ele>8.2</ele>
        <time>2023-05-02T11:08:20Z</time>
      </trkpt>
      <trkpt lat="49.15837" lon="-0.37928">
        <ele>8.2</ele>
        <time>2023-05-02T11:08:21Z</time>
      </trkpt>
      <trkpt lat="49.15832" lon="-0.37933">
        <ele>8.2</ele>
        <time>2023-05-02T11:08:22Z</time>
      </trkpt>
      <trkpt lat="49.15826" lon="-0.37937">
        <ele>8.2</ele>
        <time>2023-05-02T11:08:23Z</time>
      </trkpt>
      <trkpt lat="49.1582" lon="-0.37941">
        <ele>8</ele>
        <time>2023-05-02T11:08:24Z</time>
      </trkpt>
      <trkpt lat="49.15814" lon="-0.37945">
        <ele>8</ele>
        <time>2023-05-02T11:08:25Z</time>
      </trkpt>
      <trkpt lat="49.15808" lon="-0.37946">
        <ele>7.8</ele>
        <time>2023-05-02T11:08:26Z</time>
      </trkpt>
      <trkpt lat="49.15802" lon="-0.37943">
        <ele>7.6</ele>
        <time>2023-05-02T11:08:27Z</time>
      </trkpt>
      <trkpt lat="49.15795" lon="-0.37941">
        <ele>7.6</ele>
        <time>2023-05-02T11:08:28Z</time>
      </trkpt>
      <trkpt lat="49.15788" lon="-0.3794">
        <ele>7.4</ele>
        <time>2023-05-02T11:08:29Z</time>
      </trkpt>
      <trkpt lat="49.15781" lon="-0.37944">
        <ele>7.4</ele>
        <time>2023-05-02T11:08:30Z</time>
      </trkpt>
      <trkpt lat="49.15775" lon="-0.37948">
        <ele>7.2</ele>
        <time>2023-05-02T11:08:31Z</time>
      </trkpt>
      <trkpt lat="49.15769" lon="-0.37954">
        <ele>7.2</ele>
        <time>2023-05-02T11:08:32Z</time>
      </trkpt>
      <trkpt lat="49.15764" lon="-0.37959">
        <ele>7.4</ele>
        <time>2023-05-02T11:08:33Z</time>
      </trkpt>
      <trkpt lat="49.15758" lon="-0.37966">
        <ele>7.4</ele>
        <time>2023-05-02T11:08:34Z</time>
      </trkpt>
      <trkpt lat="49.15752" lon="-0.37973">
        <ele>7.4</ele>
        <time>2023-05-02T11:08:35Z</time>
      </trkpt>
      <trkpt lat="49.15745" lon="-0.37983">
        <ele>7.6</ele>
        <time>2023-05-02T11:08:36Z</time>
      </trkpt>
      <trkpt lat="49.15738" lon="-0.37993">
        <ele>8</ele>
        <time>2023-05-02T11:08:37Z</time>
      </trkpt>
      <trkpt lat="49.15733" lon="-0.38004">
        <ele>8.2</ele>
        <time>2023-05-02T11:08:38Z</time>
      </trkpt>
      <trkpt lat="49.15728" lon="-0.38016">
        <ele>8</ele>
        <time>2023-05-02T11:08:39Z</time>
      </trkpt>
      <trkpt lat="49.15722" lon="-0.38026">
        <ele>8</ele>
        <time>2023-05-02T11:08:40Z</time>
      </trkpt>
      <trkpt lat="49.15715" lon="-0.38036">
        <ele>7.8</ele>
        <time>2023-05-02T11:08:41Z</time>
      </trkpt>
      <trkpt lat="49.15708" lon="-0.38043">
        <ele>7.6</ele>
        <time>2023-05-02T11:08:42Z</time>
      </trkpt>
      <trkpt lat="49.157" lon="-0.38047">
        <ele>7.6</ele>
        <time>2023-05-02T11:08:43Z</time>
      </trkpt>
      <trkpt lat="49.15693" lon="-0.38048">
        <ele>7.6</ele>
        <time>2023-05-02T11:08:44Z</time>
      </trkpt>
      <trkpt lat="49.15685" lon="-0.38048">
        <ele>7.8</ele>
        <time>2023-05-02T11:08:45Z</time>
      </trkpt>
      <trkpt lat="49.15677" lon="-0.38046">
        <ele>7.8</ele>
        <time>2023-05-02T11:08:46Z</time>
      </trkpt>
      <trkpt lat="49.15669" lon="-0.38043">
        <ele>8</ele>
        <time>2023-05-02T11:08:47Z</time>
      </trkpt>
      <trkpt lat="49.15662" lon="-0.3804">
        <ele>7.8</ele>
        <time>2023-05-02T11:08:48Z</time>
      </trkpt>
      <trkpt lat="49.15654" lon="-0.38037">
        <ele>7.6</ele>
        <time>2023-05-02T11:08:49Z</time>
      </trkpt>
      <trkpt lat="49.15646" lon="-0.38034">
        <ele>7.4</ele>
        <time>2023-05-02T11:08:50Z</time>
      </trkpt>
      <trkpt lat="49.15639" lon="-0.38032">
        <ele>7.2</ele>
        <time>2023-05-02T11:08:51Z</time>
      </trkpt>
      <trkpt lat="49.15632" lon="-0.38029">
        <ele>7</ele>
        <time>2023-05-02T11:08:52Z</time>
      </trkpt>
      <trkpt lat="49.15625" lon="-0.38026">
        <ele>6.6</ele>
        <time>2023-05-02T11:08:53Z</time>
      </trkpt>
      <trkpt lat="49.15618" lon="-0.38023">
        <ele>6.4</ele>
        <time>2023-05-02T11:08:54Z</time>
      </trkpt>
      <trkpt lat="49.15611" lon="-0.38021">
        <ele>6.2</ele>
        <time>2023-05-02T11:08:55Z</time>
      </trkpt>
      <trkpt lat="49.15604" lon="-0.38018">
        <ele>6</ele>
        <time>2023-05-02T11:08:56Z</time>
      </trkpt>
      <trkpt lat="49.15597" lon="-0.38015">
        <ele>5.6</ele>
        <time>2023-05-02T11:08:57Z</time>
      </trkpt>
      <trkpt lat="49.1559" lon="-0.38012">
        <ele>5.4</ele>
        <time>2023-05-02T11:08:58Z</time>
      </trkpt>
      <trkpt lat="49.15583" lon="-0.38009">
        <ele>5</ele>
        <time>2023-05-02T11:08:59Z</time>
      </trkpt>
      <trkpt lat="49.15576" lon="-0.38006">
        <ele>5</ele>
        <time>2023-05-02T11:09:00Z</time>
      </trkpt>
      <trkpt lat="49.1557" lon="-0.38003">
        <ele>5</ele>
        <time>2023-05-02T11:09:01Z</time>
      </trkpt>
      <trkpt lat="49.15562" lon="-0.38001">
        <ele>5</ele>
        <time>2023-05-02T11:09:02Z</time>
      </trkpt>
      <trkpt lat="49.15555" lon="-0.37998">
        <ele>5</ele>
        <time>2023-05-02T11:09:03Z</time>
      </trkpt>
      <trkpt lat="49.15548" lon="-0.37995">
        <ele>5</ele>
        <time>2023-05-02T11:09:04Z</time>
      </trkpt>
      <trkpt lat="49.15541" lon="-0.37993">
        <ele>5</ele>
        <time>2023-05-02T11:09:05Z</time>
      </trkpt>
      <trkpt lat="49.15534" lon="-0.37993">
        <ele>5</ele>
        <time>2023-05-02T11:09:06Z</time>
      </trkpt>
      <trkpt lat="49.15528" lon="-0.37996">
        <ele>5</ele>
        <time>2023-05-02T11:09:07Z</time>
      </trkpt>
      <trkpt lat="49.15523" lon="-0.38003">
        <ele>5</ele>
        <time>2023-05-02T11:09:08Z</time>
      </trkpt>
      <trkpt lat="49.15519" lon="-0.38012">
        <ele>5</ele>
        <time>2023-05-02T11:09:09Z</time>
      </trkpt>
      <trkpt lat="49.15516" lon="-0.3802">
        <ele>5</ele>
        <time>2023-05-02T11:09:10Z</time>
      </trkpt>
      <trkpt lat="49.15512" lon="-0.38029">
        <ele>5</ele>
        <time>2023-05-02T11:09:11Z</time>
      </trkpt>
      <trkpt lat="49.15508" lon="-0.38038">
        <ele>5</ele>
        <time>2023-05-02T11:09:12Z</time>
      </trkpt>
      <trkpt lat="49.15504" lon="-0.38046">
        <ele>5</ele>
        <time>2023-05-02T11:09:13Z</time>
      </trkpt>
      <trkpt lat="49.155" lon="-0.38055">
        <ele>5</ele>
        <time>2023-05-02T11:09:14Z</time>
      </trkpt>
      <trkpt lat="49.15495" lon="-0.38063">
        <ele>5</ele>
        <time>2023-05-02T11:09:15Z</time>
      </trkpt>
      <trkpt lat="49.15491" lon="-0.38072">
        <ele>5</ele>
        <time>2023-05-02T11:09:16Z</time>
      </trkpt>
      <trkpt lat="49.15487" lon="-0.3808">
        <ele>5</ele>
        <time>2023-05-02T11:09:17Z</time>
      </trkpt>
      <trkpt lat="49.15483" lon="-0.38089">
        <ele>5</ele>
        <time>2023-05-02T11:09:18Z</time>
      </trkpt>
      <trkpt lat="49.15479" lon="-0.38097">
        <ele>5</ele>
        <time>2023-05-02T11:09:19Z</time>
      </trkpt>
      <trkpt lat="49.15475" lon="-0.38106">
        <ele>4.8</ele>
        <time>2023-05-02T11:09:20Z</time>
      </trkpt>
      <trkpt lat="49.15471" lon="-0.38114">
        <ele>4.8</ele>
        <time>2023-05-02T11:09:21Z</time>
      </trkpt>
      <trkpt lat="49.15467" lon="-0.38123">
        <ele>4.6</ele>
        <time>2023-05-02T11:09:22Z</time>
      </trkpt>
      <trkpt lat="49.15463" lon="-0.38131">
        <ele>4.6</ele>
        <time>2023-05-02T11:09:23Z</time>
      </trkpt>
      <trkpt lat="49.15458" lon="-0.38139">
        <ele>4.6</ele>
        <time>2023-05-02T11:09:24Z</time>
      </trkpt>
      <trkpt lat="49.15453" lon="-0.38146">
        <ele>4.6</ele>
        <time>2023-05-02T11:09:25Z</time>
      </trkpt>
      <trkpt lat="49.15448" lon="-0.38153">
        <ele>4.6</ele>
        <time>2023-05-02T11:09:26Z</time>
      </trkpt>
      <trkpt lat="49.15442" lon="-0.3816">
        <ele>4.6</ele>
        <time>2023-05-02T11:09:27Z</time>
      </trkpt>
      <trkpt lat="49.15436" lon="-0.38166">
        <ele>4.8</ele>
        <time>2023-05-02T11:09:28Z</time>
      </trkpt>
      <trkpt lat="49.1543" lon="-0.38172">
        <ele>4.8</ele>
        <time>2023-05-02T11:09:29Z</time>
      </trkpt>
      <trkpt lat="49.15424" lon="-0.38178">
        <ele>4.8</ele>
        <time>2023-05-02T11:09:30Z</time>
      </trkpt>
      <trkpt lat="49.15419" lon="-0.38183">
        <ele>4.8</ele>
        <time>2023-05-02T11:09:31Z</time>
      </trkpt>
      <trkpt lat="49.15413" lon="-0.38188">
        <ele>4.8</ele>
        <time>2023-05-02T11:09:32Z</time>
      </trkpt>
      <trkpt lat="49.15407" lon="-0.38193">
        <ele>4.6</ele>
        <time>2023-05-02T11:09:33Z</time>
      </trkpt>
      <trkpt lat="49.15402" lon="-0.38197">
        <ele>4.6</ele>
        <time>2023-05-02T11:09:34Z</time>
      </trkpt>
      <trkpt lat="49.15396" lon="-0.38201">
        <ele>4.6</ele>
        <time>2023-05-02T11:09:35Z</time>
      </trkpt>
      <trkpt lat="49.15391" lon="-0.38205">
        <ele>4.6</ele>
        <time>2023-05-02T11:09:36Z</time>
      </trkpt>
      <trkpt lat="49.15386" lon="-0.38208">
        <ele>4.6</ele>
        <time>2023-05-02T11:09:37Z</time>
      </trkpt>
      <trkpt lat="49.15381" lon="-0.38212">
        <ele>4.6</ele>
        <time>2023-05-02T11:09:38Z</time>
      </trkpt>
      <trkpt lat="49.15376" lon="-0.38215">
        <ele>4.6</ele>
        <time>2023-05-02T11:09:39Z</time>
      </trkpt>
      <trkpt lat="49.15371" lon="-0.38217">
        <ele>4.6</ele>
        <time>2023-05-02T11:09:40Z</time>
      </trkpt>
      <trkpt lat="49.15366" lon="-0.3822">
        <ele>4.8</ele>
        <time>2023-05-02T11:09:41Z</time>
      </trkpt>
      <trkpt lat="49.15361" lon="-0.38222">
        <ele>4.8</ele>
        <time>2023-05-02T11:09:42Z</time>
      </trkpt>
      <trkpt lat="49.15357" lon="-0.38224">
        <ele>4.8</ele>
        <time>2023-05-02T11:09:43Z</time>
      </trkpt>
      <trkpt lat="49.15352" lon="-0.38226">
        <ele>4.8</ele>
        <time>2023-05-02T11:09:44Z</time>
      </trkpt>
      <trkpt lat="49.15348" lon="-0.38228">
        <ele>5</ele>
        <time>2023-05-02T11:09:45Z</time>
      </trkpt>
      <trkpt lat="49.15343" lon="-0.3823">
        <ele>5</ele>
        <time>2023-05-02T11:09:46Z</time>
      </trkpt>
      <trkpt lat="49.15339" lon="-0.38232">
        <ele>5</ele>
        <time>2023-05-02T11:09:47Z</time>
      </trkpt>
      <trkpt lat="49.15334" lon="-0.38235">
        <ele>5</ele>
        <time>2023-05-02T11:09:48Z</time>
      </trkpt>
      <trkpt lat="49.1533" lon="-0.38238">
        <ele>5</ele>
        <time>2023-05-02T11:09:49Z</time>
      </trkpt>
      <trkpt lat="49.15325" lon="-0.3824">
        <ele>5</ele>
        <time>2023-05-02T11:09:50Z</time>
      </trkpt>
      <trkpt lat="49.1532" lon="-0.38243">
        <ele>5</ele>
        <time>2023-05-02T11:09:51Z</time>
      </trkpt>
      <trkpt lat="49.15315" lon="-0.38246">
        <ele>5</ele>
        <time>2023-05-02T11:09:52Z</time>
      </trkpt>
      <trkpt lat="49.15311" lon="-0.38249">
        <ele>5</ele>
        <time>2023-05-02T11:09:53Z</time>
      </trkpt>
      <trkpt lat="49.15306" lon="-0.38251">
        <ele>5</ele>
        <time>2023-05-02T11:09:54Z</time>
      </trkpt>
      <trkpt lat="49.15301" lon="-0.38253">
        <ele>5</ele>
        <time>2023-05-02T11:09:55Z</time>
      </trkpt>
      <trkpt lat="49.15297" lon="-0.38254">
        <ele>5</ele>
        <time>2023-05-02T11:09:56Z</time>
      </trkpt>
      <trkpt lat="49.15293" lon="-0.38256">
        <ele>5</ele>
        <time>2023-05-02T11:09:57Z</time>
      </trkpt>
      <trkpt lat="49.1529" lon="-0.38257">
        <ele>5</ele>
        <time>2023-05-02T11:09:58Z</time>
      </trkpt>
      <trkpt lat="49.15286" lon="-0.38259">
        <ele>5</ele>
        <time>2023-05-02T11:09:59Z</time>
      </trkpt>
      <trkpt lat="49.15282" lon="-0.38262">
        <ele>5</ele>
        <time>2023-05-02T11:10:00Z</time>
      </trkpt>
      <trkpt lat="49.15278" lon="-0.38265">
        <ele>5</ele>
        <time>2023-05-02T11:10:01Z</time>
      </trkpt>
      <trkpt lat="49.15274" lon="-0.38268">
        <ele>5</ele>
        <time>2023-05-02T11:10:02Z</time>
      </trkpt>
      <trkpt lat="49.15271" lon="-0.38272">
        <ele>5</ele>
        <time>2023-05-02T11:10:03Z</time>
      </trkpt>
      <trkpt lat="49.15268" lon="-0.38276">
        <ele>5</ele>
        <time>2023-05-02T11:10:04Z</time>
      </trkpt>
      <trkpt lat="49.15264" lon="-0.3828">
        <ele>5</ele>
        <time>2023-05-02T11:10:05Z</time>
      </trkpt>
      <trkpt lat="49.15259" lon="-0.38284">
        <ele>5</ele>
        <time>2023-05-02T11:10:06Z</time>
      </trkpt>
      <trkpt lat="49.15253" lon="-0.38288">
        <ele>5</ele>
        <time>2023-05-02T11:10:07Z</time>
      </trkpt>
      <trkpt lat="49.15248" lon="-0.38292">
        <ele>5</ele>
        <time>2023-05-02T11:10:08Z</time>
      </trkpt>
      <trkpt lat="49.15242" lon="-0.38296">
        <ele>5.2</ele>
        <time>2023-05-02T11:10:09Z</time>
      </trkpt>
      <trkpt lat="49.15236" lon="-0.38301">
        <ele>5.4</ele>
        <time>2023-05-02T11:10:10Z</time>
      </trkpt>
      <trkpt lat="49.15231" lon="-0.38306">
        <ele>5.6</ele>
        <time>2023-05-02T11:10:11Z</time>
      </trkpt>
      <trkpt lat="49.15226" lon="-0.38312">
        <ele>5.6</ele>
        <time>2023-05-02T11:10:12Z</time>
      </trkpt>
      <trkpt lat="49.1522" lon="-0.38317">
        <ele>5.6</ele>
        <time>2023-05-02T11:10:13Z</time>
      </trkpt>
      <trkpt lat="49.15215" lon="-0.38322">
        <ele>5.8</ele>
        <time>2023-05-02T11:10:14Z</time>
      </trkpt>
      <trkpt lat="49.1521" lon="-0.38327">
        <ele>6</ele>
        <time>2023-05-02T11:10:15Z</time>
      </trkpt>
      <trkpt lat="49.15204" lon="-0.38331">
        <ele>6</ele>
        <time>2023-05-02T11:10:16Z</time>
      </trkpt>
      <trkpt lat="49.15197" lon="-0.38335">
        <ele>6.2</ele>
        <time>2023-05-02T11:10:17Z</time>
      </trkpt>
      <trkpt lat="49.1519" lon="-0.38341">
        <ele>6</ele>
        <time>2023-05-02T11:10:18Z</time>
      </trkpt>
      <trkpt lat="49.1518" lon="-0.38348">
        <ele>6</ele>
        <time>2023-05-02T11:10:19Z</time>
      </trkpt>
      <trkpt lat="49.1517" lon="-0.38355">
        <ele>6</ele>
        <time>2023-05-02T11:10:20Z</time>
      </trkpt>
      <trkpt lat="49.1516" lon="-0.38362">
        <ele>5.6</ele>
        <time>2023-05-02T11:10:21Z</time>
      </trkpt>
      <trkpt lat="49.15152" lon="-0.38368">
        <ele>5.4</ele>
        <time>2023-05-02T11:10:22Z</time>
      </trkpt>
      <trkpt lat="49.15144" lon="-0.38374">
        <ele>5</ele>
        <time>2023-05-02T11:10:23Z</time>
      </trkpt>
      <trkpt lat="49.15137" lon="-0.3838">
        <ele>4.8</ele>
        <time>2023-05-02T11:10:24Z</time>
      </trkpt>
      <trkpt lat="49.15129" lon="-0.38386">
        <ele>4.6</ele>
        <time>2023-05-02T11:10:25Z</time>
      </trkpt>
      <trkpt lat="49.15121" lon="-0.38393">
        <ele>4.4</ele>
        <time>2023-05-02T11:10:26Z</time>
      </trkpt>
      <trkpt lat="49.15114" lon="-0.38399">
        <ele>4.2</ele>
        <time>2023-05-02T11:10:27Z</time>
      </trkpt>
      <trkpt lat="49.15106" lon="-0.38406">
        <ele>4</ele>
        <time>2023-05-02T11:10:28Z</time>
      </trkpt>
      <trkpt lat="49.15099" lon="-0.38412">
        <ele>4</ele>
        <time>2023-05-02T11:10:29Z</time>
      </trkpt>
      <trkpt lat="49.15091" lon="-0.38417">
        <ele>4</ele>
        <time>2023-05-02T11:10:30Z</time>
      </trkpt>
      <trkpt lat="49.15084" lon="-0.38423">
        <ele>4</ele>
        <time>2023-05-02T11:10:31Z</time>
      </trkpt>
      <trkpt lat="49.15077" lon="-0.38428">
        <ele>4.2</ele>
        <time>2023-05-02T11:10:32Z</time>
      </trkpt>
      <trkpt lat="49.1507" lon="-0.38433">
        <ele>4.4</ele>
        <time>2023-05-02T11:10:33Z</time>
      </trkpt>
      <trkpt lat="49.15063" lon="-0.38437">
        <ele>4.6</ele>
        <time>2023-05-02T11:10:34Z</time>
      </trkpt>
      <trkpt lat="49.15056" lon="-0.38441">
        <ele>4.8</ele>
        <time>2023-05-02T11:10:35Z</time>
      </trkpt>
      <trkpt lat="49.15049" lon="-0.38446">
        <ele>5</ele>
        <time>2023-05-02T11:10:36Z</time>
      </trkpt>
      <trkpt lat="49.15043" lon="-0.38449">
        <ele>5.4</ele>
        <time>2023-05-02T11:10:37Z</time>
      </trkpt>
      <trkpt lat="49.15036" lon="-0.38453">
        <ele>5.6</ele>
        <time>2023-05-02T11:10:38Z</time>
      </trkpt>
      <trkpt lat="49.15029" lon="-0.38457">
        <ele>6</ele>
        <time>2023-05-02T11:10:39Z</time>
      </trkpt>
      <trkpt lat="49.15022" lon="-0.3846">
        <ele>6.4</ele>
        <time>2023-05-02T11:10:40Z</time>
      </trkpt>
      <trkpt lat="49.15014" lon="-0.38464">
        <ele>6.6</ele>
        <time>2023-05-02T11:10:41Z</time>
      </trkpt>
      <trkpt lat="49.15007" lon="-0.38468">
        <ele>7</ele>
        <time>2023-05-02T11:10:42Z</time>
      </trkpt>
      <trkpt lat="49.15" lon="-0.38471">
        <ele>7.4</ele>
        <time>2023-05-02T11:10:43Z</time>
      </trkpt>
      <trkpt lat="49.14992" lon="-0.38475">
        <ele>7.2</ele>
        <time>2023-05-02T11:10:44Z</time>
      </trkpt>
      <trkpt lat="49.14984" lon="-0.38479">
        <ele>7.2</ele>
        <time>2023-05-02T11:10:45Z</time>
      </trkpt>
      <trkpt lat="49.14977" lon="-0.38483">
        <ele>7</ele>
        <time>2023-05-02T11:10:46Z</time>
      </trkpt>
      <trkpt lat="49.14969" lon="-0.38487">
        <ele>7</ele>
        <time>2023-05-02T11:10:47Z</time>
      </trkpt>
      <trkpt lat="49.14961" lon="-0.38491">
        <ele>7</ele>
        <time>2023-05-02T11:10:48Z</time>
      </trkpt>
      <trkpt lat="49.14954" lon="-0.38496">
        <ele>6.8</ele>
        <time>2023-05-02T11:10:49Z</time>
      </trkpt>
      <trkpt lat="49.14946" lon="-0.38501">
        <ele>6.6</ele>
        <time>2023-05-02T11:10:50Z</time>
      </trkpt>
      <trkpt lat="49.14939" lon="-0.38505">
        <ele>6.4</ele>
        <time>2023-05-02T11:10:51Z</time>
      </trkpt>
      <trkpt lat="49.14931" lon="-0.3851">
        <ele>6</ele>
        <time>2023-05-02T11:10:52Z</time>
      </trkpt>
      <trkpt lat="49.14924" lon="-0.38514">
        <ele>5.8</ele>
        <time>2023-05-02T11:10:53Z</time>
      </trkpt>
      <trkpt lat="49.14917" lon="-0.38518">
        <ele>5.6</ele>
        <time>2023-05-02T11:10:54Z</time>
      </trkpt>
      <trkpt lat="49.14911" lon="-0.38521">
        <ele>5.6</ele>
        <time>2023-05-02T11:10:55Z</time>
      </trkpt>
      <trkpt lat="49.14904" lon="-0.38524">
        <ele>5.4</ele>
        <time>2023-05-02T11:10:56Z</time>
      </trkpt>
      <trkpt lat="49.14898" lon="-0.38528">
        <ele>5.4</ele>
        <time>2023-05-02T11:10:57Z</time>
      </trkpt>
      <trkpt lat="49.14891" lon="-0.38531">
        <ele>5.2</ele>
        <time>2023-05-02T11:10:58Z</time>
      </trkpt>
      <trkpt lat="49.14885" lon="-0.38534">
        <ele>5</ele>
        <time>2023-05-02T11:10:59Z</time>
      </trkpt>
      <trkpt lat="49.14879" lon="-0.38538">
        <ele>5</ele>
        <time>2023-05-02T11:11:00Z</time>
      </trkpt>
      <trkpt lat="49.14872" lon="-0.38542">
        <ele>5</ele>
        <time>2023-05-02T11:11:01Z</time>
      </trkpt>
      <trkpt lat="49.14866" lon="-0.38547">
        <ele>5</ele>
        <time>2023-05-02T11:11:02Z</time>
      </trkpt>
      <trkpt lat="49.1486" lon="-0.38552">
        <ele>5</ele>
        <time>2023-05-02T11:11:03Z</time>
      </trkpt>
      <trkpt lat="49.14853" lon="-0.38557">
        <ele>5</ele>
        <time>2023-05-02T11:11:04Z</time>
      </trkpt>
      <trkpt lat="49.14847" lon="-0.38562">
        <ele>5</ele>
        <time>2023-05-02T11:11:05Z</time>
      </trkpt>
      <trkpt lat="49.1484" lon="-0.38567">
        <ele>5</ele>
        <time>2023-05-02T11:11:06Z</time>
      </trkpt>
      <trkpt lat="49.14834" lon="-0.38572">
        <ele>5</ele>
        <time>2023-05-02T11:11:07Z</time>
      </trkpt>
      <trkpt lat="49.14827" lon="-0.38577">
        <ele>5</ele>
        <time>2023-05-02T11:11:08Z</time>
      </trkpt>
      <trkpt lat="49.14821" lon="-0.38583">
        <ele>4.8</ele>
        <time>2023-05-02T11:11:09Z</time>
      </trkpt>
      <trkpt lat="49.14814" lon="-0.38588">
        <ele>4.6</ele>
        <time>2023-05-02T11:11:10Z</time>
      </trkpt>
      <trkpt lat="49.14808" lon="-0.38593">
        <ele>4.6</ele>
        <time>2023-05-02T11:11:11Z</time>
      </trkpt>
      <trkpt lat="49.14802" lon="-0.38597">
        <ele>4.6</ele>
        <time>2023-05-02T11:11:12Z</time>
      </trkpt>
      <trkpt lat="49.14795" lon="-0.38602">
        <ele>4.6</ele>
        <time>2023-05-02T11:11:13Z</time>
      </trkpt>
      <trkpt lat="49.14789" lon="-0.38607">
        <ele>4.6</ele>
        <time>2023-05-02T11:11:14Z</time>
      </trkpt>
      <trkpt lat="49.14783" lon="-0.38611">
        <ele>4.6</ele>
        <time>2023-05-02T11:11:15Z</time>
      </trkpt>
      <trkpt lat="49.14777" lon="-0.38616">
        <ele>4.6</ele>
        <time>2023-05-02T11:11:16Z</time>
      </trkpt>
      <trkpt lat="49.14771" lon="-0.3862">
        <ele>4.6</ele>
        <time>2023-05-02T11:11:17Z</time>
      </trkpt>
      <trkpt lat="49.14765" lon="-0.38624">
        <ele>4.6</ele>
        <time>2023-05-02T11:11:18Z</time>
      </trkpt>
      <trkpt lat="49.14759" lon="-0.38629">
        <ele>4.6</ele>
        <time>2023-05-02T11:11:19Z</time>
      </trkpt>
      <trkpt lat="49.14753" lon="-0.38633">
        <ele>4.6</ele>
        <time>2023-05-02T11:11:20Z</time>
      </trkpt>
      <trkpt lat="49.14747" lon="-0.38637">
        <ele>4.6</ele>
        <time>2023-05-02T11:11:21Z</time>
      </trkpt>
      <trkpt lat="49.1474" lon="-0.38642">
        <ele>5</ele>
        <time>2023-05-02T11:11:22Z</time>
      </trkpt>
      <trkpt lat="49.14734" lon="-0.38647">
        <ele>5</ele>
        <time>2023-05-02T11:11:23Z</time>
      </trkpt>
      <trkpt lat="49.14727" lon="-0.38652">
        <ele>5</ele>
        <time>2023-05-02T11:11:24Z</time>
      </trkpt>
      <trkpt lat="49.14721" lon="-0.38657">
        <ele>5.4</ele>
        <time>2023-05-02T11:11:25Z</time>
      </trkpt>
      <trkpt lat="49.14715" lon="-0.38662">
        <ele>5.4</ele>
        <time>2023-05-02T11:11:26Z</time>
      </trkpt>
      <trkpt lat="49.14708" lon="-0.38667">
        <ele>5.6</ele>
        <time>2023-05-02T11:11:27Z</time>
      </trkpt>
      <trkpt lat="49.14702" lon="-0.38673">
        <ele>5.6</ele>
        <time>2023-05-02T11:11:28Z</time>
      </trkpt>
      <trkpt lat="49.14696" lon="-0.38679">
        <ele>5.6</ele>
        <time>2023-05-02T11:11:29Z</time>
      </trkpt>
      <trkpt lat="49.14689" lon="-0.38684">
        <ele>5.6</ele>
        <time>2023-05-02T11:11:30Z</time>
      </trkpt>
      <trkpt lat="49.14683" lon="-0.3869">
        <ele>5.6</ele>
        <time>2023-05-02T11:11:31Z</time>
      </trkpt>
      <trkpt lat="49.14677" lon="-0.38695">
        <ele>5.6</ele>
        <time>2023-05-02T11:11:32Z</time>
      </trkpt>
      <trkpt lat="49.14671" lon="-0.38701">
        <ele>5.6</ele>
        <time>2023-05-02T11:11:33Z</time>
      </trkpt>
      <trkpt lat="49.14665" lon="-0.38706">
        <ele>5.6</ele>
        <time>2023-05-02T11:11:34Z</time>
      </trkpt>
      <trkpt lat="49.14659" lon="-0.38711">
        <ele>5.4</ele>
        <time>2023-05-02T11:11:35Z</time>
      </trkpt>
      <trkpt lat="49.14653" lon="-0.38716">
        <ele>5.2</ele>
        <time>2023-05-02T11:11:36Z</time>
      </trkpt>
      <trkpt lat="49.14647" lon="-0.38722">
        <ele>5</ele>
        <time>2023-05-02T11:11:37Z</time>
      </trkpt>
      <trkpt lat="49.14641" lon="-0.38726">
        <ele>5</ele>
        <time>2023-05-02T11:11:38Z</time>
      </trkpt>
      <trkpt lat="49.14635" lon="-0.38731">
        <ele>4.8</ele>
        <time>2023-05-02T11:11:39Z</time>
      </trkpt>
      <trkpt lat="49.14629" lon="-0.38735">
        <ele>4.6</ele>
        <time>2023-05-02T11:11:40Z</time>
      </trkpt>
      <trkpt lat="49.14624" lon="-0.38739">
        <ele>4.6</ele>
        <time>2023-05-02T11:11:41Z</time>
      </trkpt>
      <trkpt lat="49.14619" lon="-0.38743">
        <ele>4.6</ele>
        <time>2023-05-02T11:11:42Z</time>
      </trkpt>
      <trkpt lat="49.14613" lon="-0.38747">
        <ele>4.4</ele>
        <time>2023-05-02T11:11:43Z</time>
      </trkpt>
      <trkpt lat="49.14608" lon="-0.38751">
        <ele>4.4</ele>
        <time>2023-05-02T11:11:44Z</time>
      </trkpt>
      <trkpt lat="49.14602" lon="-0.38755">
        <ele>4.2</ele>
        <time>2023-05-02T11:11:45Z</time>
      </trkpt>
      <trkpt lat="49.14597" lon="-0.38759">
        <ele>4</ele>
        <time>2023-05-02T11:11:46Z</time>
      </trkpt>
      <trkpt lat="49.14591" lon="-0.38764">
        <ele>4</ele>
        <time>2023-05-02T11:11:47Z</time>
      </trkpt>
      <trkpt lat="49.14586" lon="-0.38769">
        <ele>3.8</ele>
        <time>2023-05-02T11:11:48Z</time>
      </trkpt>
      <trkpt lat="49.1458" lon="-0.38774">
        <ele>3.8</ele>
        <time>2023-05-02T11:11:49Z</time>
      </trkpt>
      <trkpt lat="49.14574" lon="-0.38778">
        <ele>3.8</ele>
        <time>2023-05-02T11:11:50Z</time>
      </trkpt>
      <trkpt lat="49.14568" lon="-0.38782">
        <ele>3.8</ele>
        <time>2023-05-02T11:11:51Z</time>
      </trkpt>
      <trkpt lat="49.14562" lon="-0.38786">
        <ele>3.8</ele>
        <time>2023-05-02T11:11:52Z</time>
      </trkpt>
      <trkpt lat="49.14557" lon="-0.3879">
        <ele>3.8</ele>
        <time>2023-05-02T11:11:53Z</time>
      </trkpt>
      <trkpt lat="49.14551" lon="-0.38794">
        <ele>3.8</ele>
        <time>2023-05-02T11:11:54Z</time>
      </trkpt>
      <trkpt lat="49.14546" lon="-0.38798">
        <ele>3.8</ele>
        <time>2023-05-02T11:11:55Z</time>
      </trkpt>
      <trkpt lat="49.1454" lon="-0.38803">
        <ele>3.8</ele>
        <time>2023-05-02T11:11:56Z</time>
      </trkpt>
      <trkpt lat="49.14534" lon="-0.38808">
        <ele>3.8</ele>
        <time>2023-05-02T11:11:57Z</time>
      </trkpt>
      <trkpt lat="49.14526" lon="-0.38814">
        <ele>3.8</ele>
        <time>2023-05-02T11:11:58Z</time>
      </trkpt>
      <trkpt lat="49.14519" lon="-0.3882">
        <ele>3.8</ele>
        <time>2023-05-02T11:11:59Z</time>
      </trkpt>
      <trkpt lat="49.14513" lon="-0.38827">
        <ele>4</ele>
        <time>2023-05-02T11:12:00Z</time>
      </trkpt>
      <trkpt lat="49.14507" lon="-0.38834">
        <ele>4</ele>
        <time>2023-05-02T11:12:01Z</time>
      </trkpt>
      <trkpt lat="49.14502" lon="-0.38843">
        <ele>3.8</ele>
        <time>2023-05-02T11:12:02Z</time>
      </trkpt>
      <trkpt lat="49.14496" lon="-0.38852">
        <ele>3.6</ele>
        <time>2023-05-02T11:12:03Z</time>
      </trkpt>
      <trkpt lat="49.14491" lon="-0.3886">
        <ele>3.6</ele>
        <time>2023-05-02T11:12:04Z</time>
      </trkpt>
      <trkpt lat="49.14485" lon="-0.38868">
        <ele>3.6</ele>
        <time>2023-05-02T11:12:05Z</time>
      </trkpt>
      <trkpt lat="49.14481" lon="-0.38874">
        <ele>3.6</ele>
        <time>2023-05-02T11:12:06Z</time>
      </trkpt>
      <trkpt lat="49.14476" lon="-0.38879">
        <ele>3.6</ele>
        <time>2023-05-02T11:12:07Z</time>
      </trkpt>
      <trkpt lat="49.14471" lon="-0.38882">
        <ele>3.6</ele>
        <time>2023-05-02T11:12:08Z</time>
      </trkpt>
      <trkpt lat="49.14466" lon="-0.38884">
        <ele>3.8</ele>
        <time>2023-05-02T11:12:09Z</time>
      </trkpt>
      <trkpt lat="49.14461" lon="-0.38886">
        <ele>3.8</ele>
        <time>2023-05-02T11:12:10Z</time>
      </trkpt>
      <trkpt lat="49.14456" lon="-0.38888">
        <ele>4</ele>
        <time>2023-05-02T11:12:11Z</time>
      </trkpt>
      <trkpt lat="49.14451" lon="-0.38891">
        <ele>4</ele>
        <time>2023-05-02T11:12:12Z</time>
      </trkpt>
      <trkpt lat="49.14445" lon="-0.38894">
        <ele>4.2</ele>
        <time>2023-05-02T11:12:13Z</time>
      </trkpt>
      <trkpt lat="49.14439" lon="-0.38898">
        <ele>4.4</ele>
        <time>2023-05-02T11:12:14Z</time>
      </trkpt>
      <trkpt lat="49.14432" lon="-0.38902">
        <ele>4.6</ele>
        <time>2023-05-02T11:12:15Z</time>
      </trkpt>
      <trkpt lat="49.14426" lon="-0.38907">
        <ele>4.6</ele>
        <time>2023-05-02T11:12:16Z</time>
      </trkpt>
      <trkpt lat="49.14419" lon="-0.38912">
        <ele>5</ele>
        <time>2023-05-02T11:12:17Z</time>
      </trkpt>
      <trkpt lat="49.14412" lon="-0.38918">
        <ele>5</ele>
        <time>2023-05-02T11:12:18Z</time>
      </trkpt>
      <trkpt lat="49.14405" lon="-0.38925">
        <ele>4.8</ele>
        <time>2023-05-02T11:12:19Z</time>
      </trkpt>
      <trkpt lat="49.14398" lon="-0.38932">
        <ele>4.6</ele>
        <time>2023-05-02T11:12:20Z</time>
      </trkpt>
      <trkpt lat="49.14391" lon="-0.38939">
        <ele>4.6</ele>
        <time>2023-05-02T11:12:21Z</time>
      </trkpt>
      <trkpt lat="49.14384" lon="-0.38946">
        <ele>4.4</ele>
        <time>2023-05-02T11:12:22Z</time>
      </trkpt>
      <trkpt lat="49.14377" lon="-0.38953">
        <ele>4.4</ele>
        <time>2023-05-02T11:12:23Z</time>
      </trkpt>
      <trkpt lat="49.1437" lon="-0.3896">
        <ele>4.2</ele>
        <time>2023-05-02T11:12:24Z</time>
      </trkpt>
      <trkpt lat="49.14363" lon="-0.38966">
        <ele>4</ele>
        <time>2023-05-02T11:12:25Z</time>
      </trkpt>
      <trkpt lat="49.14356" lon="-0.38973">
        <ele>4</ele>
        <time>2023-05-02T11:12:26Z</time>
      </trkpt>
      <trkpt lat="49.1435" lon="-0.38979">
        <ele>4</ele>
        <time>2023-05-02T11:12:27Z</time>
      </trkpt>
      <trkpt lat="49.14343" lon="-0.38985">
        <ele>4</ele>
        <time>2023-05-02T11:12:28Z</time>
      </trkpt>
      <trkpt lat="49.14337" lon="-0.38992">
        <ele>4</ele>
        <time>2023-05-02T11:12:29Z</time>
      </trkpt>
      <trkpt lat="49.14331" lon="-0.38998">
        <ele>4</ele>
        <time>2023-05-02T11:12:30Z</time>
      </trkpt>
      <trkpt lat="49.14325" lon="-0.39004">
        <ele>4</ele>
        <time>2023-05-02T11:12:31Z</time>
      </trkpt>
      <trkpt lat="49.14319" lon="-0.3901">
        <ele>4</ele>
        <time>2023-05-02T11:12:32Z</time>
      </trkpt>
      <trkpt lat="49.14313" lon="-0.39017">
        <ele>4</ele>
        <time>2023-05-02T11:12:33Z</time>
      </trkpt>
      <trkpt lat="49.14307" lon="-0.39023">
        <ele>4</ele>
        <time>2023-05-02T11:12:34Z</time>
      </trkpt>
      <trkpt lat="49.143" lon="-0.3903">
        <ele>4</ele>
        <time>2023-05-02T11:12:35Z</time>
      </trkpt>
      <trkpt lat="49.14293" lon="-0.39037">
        <ele>4</ele>
        <time>2023-05-02T11:12:36Z</time>
      </trkpt>
      <trkpt lat="49.14287" lon="-0.39044">
        <ele>4</ele>
        <time>2023-05-02T11:12:37Z</time>
      </trkpt>
      <trkpt lat="49.14281" lon="-0.3905">
        <ele>4</ele>
        <time>2023-05-02T11:12:38Z</time>
      </trkpt>
      <trkpt lat="49.14275" lon="-0.39056">
        <ele>4</ele>
        <time>2023-05-02T11:12:39Z</time>
      </trkpt>
      <trkpt lat="49.14269" lon="-0.39062">
        <ele>4</ele>
        <time>2023-05-02T11:12:40Z</time>
      </trkpt>
      <trkpt lat="49.14262" lon="-0.39068">
        <ele>4</ele>
        <time>2023-05-02T11:12:41Z</time>
      </trkpt>
      <trkpt lat="49.14256" lon="-0.39075">
        <ele>4</ele>
        <time>2023-05-02T11:12:42Z</time>
      </trkpt>
      <trkpt lat="49.1425" lon="-0.39081">
        <ele>4</ele>
        <time>2023-05-02T11:12:43Z</time>
      </trkpt>
      <trkpt lat="49.14244" lon="-0.39088">
        <ele>4</ele>
        <time>2023-05-02T11:12:44Z</time>
      </trkpt>
      <trkpt lat="49.14238" lon="-0.39094">
        <ele>4</ele>
        <time>2023-05-02T11:12:45Z</time>
      </trkpt>
      <trkpt lat="49.14232" lon="-0.39101">
        <ele>4</ele>
        <time>2023-05-02T11:12:46Z</time>
      </trkpt>
      <trkpt lat="49.14226" lon="-0.39107">
        <ele>4</ele>
        <time>2023-05-02T11:12:47Z</time>
      </trkpt>
      <trkpt lat="49.1422" lon="-0.39114">
        <ele>4</ele>
        <time>2023-05-02T11:12:48Z</time>
      </trkpt>
      <trkpt lat="49.14214" lon="-0.3912">
        <ele>3.8</ele>
        <time>2023-05-02T11:12:49Z</time>
      </trkpt>
      <trkpt lat="49.14209" lon="-0.39126">
        <ele>3.8</ele>
        <time>2023-05-02T11:12:50Z</time>
      </trkpt>
      <trkpt lat="49.14202" lon="-0.39133">
        <ele>3.6</ele>
        <time>2023-05-02T11:12:51Z</time>
      </trkpt>
      <trkpt lat="49.14196" lon="-0.39139">
        <ele>3.6</ele>
        <time>2023-05-02T11:12:52Z</time>
      </trkpt>
      <trkpt lat="49.1419" lon="-0.39145">
        <ele>3.4</ele>
        <time>2023-05-02T11:12:53Z</time>
      </trkpt>
      <trkpt lat="49.14184" lon="-0.39151">
        <ele>3.2</ele>
        <time>2023-05-02T11:12:54Z</time>
      </trkpt>
      <trkpt lat="49.14178" lon="-0.39157">
        <ele>3.2</ele>
        <time>2023-05-02T11:12:55Z</time>
      </trkpt>
      <trkpt lat="49.14172" lon="-0.39163">
        <ele>3</ele>
        <time>2023-05-02T11:12:56Z</time>
      </trkpt>
      <trkpt lat="49.14166" lon="-0.39169">
        <ele>3</ele>
        <time>2023-05-02T11:12:57Z</time>
      </trkpt>
      <trkpt lat="49.1416" lon="-0.39176">
        <ele>3.2</ele>
        <time>2023-05-02T11:12:58Z</time>
      </trkpt>
      <trkpt lat="49.14153" lon="-0.39182">
        <ele>3.4</ele>
        <time>2023-05-02T11:12:59Z</time>
      </trkpt>
      <trkpt lat="49.14147" lon="-0.39188">
        <ele>3.6</ele>
        <time>2023-05-02T11:13:00Z</time>
      </trkpt>
      <trkpt lat="49.1414" lon="-0.39195">
        <ele>3.8</ele>
        <time>2023-05-02T11:13:01Z</time>
      </trkpt>
      <trkpt lat="49.14134" lon="-0.39201">
        <ele>4</ele>
        <time>2023-05-02T11:13:02Z</time>
      </trkpt>
      <trkpt lat="49.14127" lon="-0.39207">
        <ele>4</ele>
        <time>2023-05-02T11:13:03Z</time>
      </trkpt>
      <trkpt lat="49.14121" lon="-0.39213">
        <ele>4</ele>
        <time>2023-05-02T11:13:04Z</time>
      </trkpt>
      <trkpt lat="49.14115" lon="-0.39219">
        <ele>4</ele>
        <time>2023-05-02T11:13:05Z</time>
      </trkpt>
      <trkpt lat="49.14109" lon="-0.39224">
        <ele>4</ele>
        <time>2023-05-02T11:13:06Z</time>
      </trkpt>
      <trkpt lat="49.14104" lon="-0.3923">
        <ele>4</ele>
        <time>2023-05-02T11:13:07Z</time>
      </trkpt>
      <trkpt lat="49.14098" lon="-0.39235">
        <ele>4</ele>
        <time>2023-05-02T11:13:08Z</time>
      </trkpt>
      <trkpt lat="49.14093" lon="-0.3924">
        <ele>4</ele>
        <time>2023-05-02T11:13:09Z</time>
      </trkpt>
      <trkpt lat="49.14088" lon="-0.39246">
        <ele>4</ele>
        <time>2023-05-02T11:13:10Z</time>
      </trkpt>
      <trkpt lat="49.14083" lon="-0.39251">
        <ele>4</ele>
        <time>2023-05-02T11:13:11Z</time>
      </trkpt>
      <trkpt lat="49.14078" lon="-0.39257">
        <ele>4</ele>
        <time>2023-05-02T11:13:12Z</time>
      </trkpt>
      <trkpt lat="49.14073" lon="-0.39262">
        <ele>4</ele>
        <time>2023-05-02T11:13:13Z</time>
      </trkpt>
      <trkpt lat="49.14068" lon="-0.39268">
        <ele>4</ele>
        <time>2023-05-02T11:13:14Z</time>
      </trkpt>
      <trkpt lat="49.14063" lon="-0.39274">
        <ele>4</ele>
        <time>2023-05-02T11:13:15Z</time>
      </trkpt>
      <trkpt lat="49.14057" lon="-0.3928">
        <ele>3.8</ele>
        <time>2023-05-02T11:13:16Z</time>
      </trkpt>
      <trkpt lat="49.14052" lon="-0.39286">
        <ele>3.8</ele>
        <time>2023-05-02T11:13:17Z</time>
      </trkpt>
      <trkpt lat="49.14046" lon="-0.39292">
        <ele>3.8</ele>
        <time>2023-05-02T11:13:18Z</time>
      </trkpt>
      <trkpt lat="49.1404" lon="-0.39298">
        <ele>3.6</ele>
        <time>2023-05-02T11:13:19Z</time>
      </trkpt>
      <trkpt lat="49.14034" lon="-0.39304">
        <ele>3.6</ele>
        <time>2023-05-02T11:13:20Z</time>
      </trkpt>
      <trkpt lat="49.14028" lon="-0.3931">
        <ele>3.6</ele>
        <time>2023-05-02T11:13:21Z</time>
      </trkpt>
      <trkpt lat="49.14023" lon="-0.39316">
        <ele>3.4</ele>
        <time>2023-05-02T11:13:22Z</time>
      </trkpt>
      <trkpt lat="49.14017" lon="-0.39321">
        <ele>3.2</ele>
        <time>2023-05-02T11:13:23Z</time>
      </trkpt>
      <trkpt lat="49.14011" lon="-0.39327">
        <ele>3</ele>
        <time>2023-05-02T11:13:24Z</time>
      </trkpt>
      <trkpt lat="49.14006" lon="-0.39333">
        <ele>3</ele>
        <time>2023-05-02T11:13:25Z</time>
      </trkpt>
      <trkpt lat="49.14001" lon="-0.39339">
        <ele>3</ele>
        <time>2023-05-02T11:13:26Z</time>
      </trkpt>
      <trkpt lat="49.13996" lon="-0.39346">
        <ele>3.2</ele>
        <time>2023-05-02T11:13:27Z</time>
      </trkpt>
      <trkpt lat="49.13991" lon="-0.39352">
        <ele>3.6</ele>
        <time>2023-05-02T11:13:28Z</time>
      </trkpt>
      <trkpt lat="49.13986" lon="-0.39358">
        <ele>3.8</ele>
        <time>2023-05-02T11:13:29Z</time>
      </trkpt>
      <trkpt lat="49.13981" lon="-0.39364">
        <ele>4</ele>
        <time>2023-05-02T11:13:30Z</time>
      </trkpt>
      <trkpt lat="49.13976" lon="-0.3937">
        <ele>4</ele>
        <time>2023-05-02T11:13:31Z</time>
      </trkpt>
      <trkpt lat="49.1397" lon="-0.39375">
        <ele>4.2</ele>
        <time>2023-05-02T11:13:32Z</time>
      </trkpt>
      <trkpt lat="49.13965" lon="-0.39381">
        <ele>4.4</ele>
        <time>2023-05-02T11:13:33Z</time>
      </trkpt>
      <trkpt lat="49.1396" lon="-0.39387">
        <ele>4.6</ele>
        <time>2023-05-02T11:13:34Z</time>
      </trkpt>
      <trkpt lat="49.13954" lon="-0.39393">
        <ele>4.6</ele>
        <time>2023-05-02T11:13:35Z</time>
      </trkpt>
      <trkpt lat="49.13949" lon="-0.39399">
        <ele>4.6</ele>
        <time>2023-05-02T11:13:36Z</time>
      </trkpt>
      <trkpt lat="49.13943" lon="-0.39404">
        <ele>4.6</ele>
        <time>2023-05-02T11:13:37Z</time>
      </trkpt>
      <trkpt lat="49.13938" lon="-0.3941">
        <ele>4.8</ele>
        <time>2023-05-02T11:13:38Z</time>
      </trkpt>
      <trkpt lat="49.13932" lon="-0.39416">
        <ele>4.8</ele>
        <time>2023-05-02T11:13:39Z</time>
      </trkpt>
      <trkpt lat="49.13927" lon="-0.39422">
        <ele>5</ele>
        <time>2023-05-02T11:13:40Z</time>
      </trkpt>
      <trkpt lat="49.13921" lon="-0.39428">
        <ele>5.4</ele>
        <time>2023-05-02T11:13:41Z</time>
      </trkpt>
      <trkpt lat="49.13915" lon="-0.39433">
        <ele>5.6</ele>
        <time>2023-05-02T11:13:42Z</time>
      </trkpt>
      <trkpt lat="49.1391" lon="-0.39439">
        <ele>6</ele>
        <time>2023-05-02T11:13:43Z</time>
      </trkpt>
      <trkpt lat="49.13904" lon="-0.39446">
        <ele>6.2</ele>
        <time>2023-05-02T11:13:44Z</time>
      </trkpt>
      <trkpt lat="49.13899" lon="-0.39452">
        <ele>6.6</ele>
        <time>2023-05-02T11:13:45Z</time>
      </trkpt>
      <trkpt lat="49.13893" lon="-0.39459">
        <ele>6.6</ele>
        <time>2023-05-02T11:13:46Z</time>
      </trkpt>
      <trkpt lat="49.13888" lon="-0.39466">
        <ele>6.8</ele>
        <time>2023-05-02T11:13:47Z</time>
      </trkpt>
      <trkpt lat="49.13882" lon="-0.39472">
        <ele>7</ele>
        <time>2023-05-02T11:13:48Z</time>
      </trkpt>
      <trkpt lat="49.13877" lon="-0.39479">
        <ele>7</ele>
        <time>2023-05-02T11:13:49Z</time>
      </trkpt>
      <trkpt lat="49.13871" lon="-0.39485">
        <ele>7</ele>
        <time>2023-05-02T11:13:50Z</time>
      </trkpt>
      <trkpt lat="49.13866" lon="-0.3949">
        <ele>6.8</ele>
        <time>2023-05-02T11:13:51Z</time>
      </trkpt>
      <trkpt lat="49.1386" lon="-0.39494">
        <ele>6.6</ele>
        <time>2023-05-02T11:13:52Z</time>
      </trkpt>
      <trkpt lat="49.13855" lon="-0.39495">
        <ele>6.6</ele>
        <time>2023-05-02T11:13:53Z</time>
      </trkpt>
      <trkpt lat="49.13849" lon="-0.39492">
        <ele>6.6</ele>
        <time>2023-05-02T11:13:54Z</time>
      </trkpt>
      <trkpt lat="49.13844" lon="-0.3949">
        <ele>6.4</ele>
        <time>2023-05-02T11:13:55Z</time>
      </trkpt>
      <trkpt lat="49.13839" lon="-0.39491">
        <ele>6.4</ele>
        <time>2023-05-02T11:13:56Z</time>
      </trkpt>
      <trkpt lat="49.13835" lon="-0.39494">
        <ele>6.2</ele>
        <time>2023-05-02T11:13:57Z</time>
      </trkpt>
      <trkpt lat="49.13831" lon="-0.39498">
        <ele>6</ele>
        <time>2023-05-02T11:13:58Z</time>
      </trkpt>
      <trkpt lat="49.13827" lon="-0.39503">
        <ele>5.8</ele>
        <time>2023-05-02T11:13:59Z</time>
      </trkpt>
      <trkpt lat="49.13822" lon="-0.39509">
        <ele>5.6</ele>
        <time>2023-05-02T11:14:00Z</time>
      </trkpt>
      <trkpt lat="49.13817" lon="-0.39515">
        <ele>5.6</ele>
        <time>2023-05-02T11:14:01Z</time>
      </trkpt>
      <trkpt lat="49.13813" lon="-0.39521">
        <ele>5.4</ele>
        <time>2023-05-02T11:14:02Z</time>
      </trkpt>
      <trkpt lat="49.13808" lon="-0.39526">
        <ele>5.2</ele>
        <time>2023-05-02T11:14:03Z</time>
      </trkpt>
      <trkpt lat="49.13803" lon="-0.39531">
        <ele>5</ele>
        <time>2023-05-02T11:14:04Z</time>
      </trkpt>
      <trkpt lat="49.13799" lon="-0.39535">
        <ele>5</ele>
        <time>2023-05-02T11:14:05Z</time>
      </trkpt>
      <trkpt lat="49.13794" lon="-0.39539">
        <ele>4.8</ele>
        <time>2023-05-02T11:14:06Z</time>
      </trkpt>
      <trkpt lat="49.13789" lon="-0.39542">
        <ele>4.6</ele>
        <time>2023-05-02T11:14:07Z</time>
      </trkpt>
      <trkpt lat="49.13785" lon="-0.39546">
        <ele>4.6</ele>
        <time>2023-05-02T11:14:08Z</time>
      </trkpt>
      <trkpt lat="49.1378" lon="-0.3955">
        <ele>4.6</ele>
        <time>2023-05-02T11:14:09Z</time>
      </trkpt>
      <trkpt lat="49.13775" lon="-0.39555">
        <ele>4.4</ele>
        <time>2023-05-02T11:14:10Z</time>
      </trkpt>
      <trkpt lat="49.1377" lon="-0.3956">
        <ele>4.4</ele>
        <time>2023-05-02T11:14:11Z</time>
      </trkpt>
      <trkpt lat="49.13765" lon="-0.39565">
        <ele>4.4</ele>
        <time>2023-05-02T11:14:12Z</time>
      </trkpt>
      <trkpt lat="49.1376" lon="-0.39571">
        <ele>4.2</ele>
        <time>2023-05-02T11:14:13Z</time>
      </trkpt>
      <trkpt lat="49.13755" lon="-0.39577">
        <ele>4</ele>
        <time>2023-05-02T11:14:14Z</time>
      </trkpt>
      <trkpt lat="49.13749" lon="-0.39582">
        <ele>4</ele>
        <time>2023-05-02T11:14:15Z</time>
      </trkpt>
      <trkpt lat="49.13744" lon="-0.39588">
        <ele>4.4</ele>
        <time>2023-05-02T11:14:16Z</time>
      </trkpt>
      <trkpt lat="49.13738" lon="-0.39594">
        <ele>4.8</ele>
        <time>2023-05-02T11:14:17Z</time>
      </trkpt>
      <trkpt lat="49.13733" lon="-0.396">
        <ele>5</ele>
        <time>2023-05-02T11:14:18Z</time>
      </trkpt>
      <trkpt lat="49.13727" lon="-0.39606">
        <ele>5.4</ele>
        <time>2023-05-02T11:14:19Z</time>
      </trkpt>
      <trkpt lat="49.13722" lon="-0.39612">
        <ele>5.6</ele>
        <time>2023-05-02T11:14:20Z</time>
      </trkpt>
      <trkpt lat="49.13717" lon="-0.39618">
        <ele>6</ele>
        <time>2023-05-02T11:14:21Z</time>
      </trkpt>
      <trkpt lat="49.13711" lon="-0.39624">
        <ele>6</ele>
        <time>2023-05-02T11:14:22Z</time>
      </trkpt>
      <trkpt lat="49.13706" lon="-0.3963">
        <ele>6.4</ele>
        <time>2023-05-02T11:14:23Z</time>
      </trkpt>
      <trkpt lat="49.13701" lon="-0.39635">
        <ele>6.6</ele>
        <time>2023-05-02T11:14:24Z</time>
      </trkpt>
      <trkpt lat="49.13696" lon="-0.39641">
        <ele>6.6</ele>
        <time>2023-05-02T11:14:25Z</time>
      </trkpt>
      <trkpt lat="49.13691" lon="-0.39647">
        <ele>6.6</ele>
        <time>2023-05-02T11:14:26Z</time>
      </trkpt>
      <trkpt lat="49.13686" lon="-0.39652">
        <ele>6.8</ele>
        <time>2023-05-02T11:14:27Z</time>
      </trkpt>
      <trkpt lat="49.13681" lon="-0.39658">
        <ele>7</ele>
        <time>2023-05-02T11:14:28Z</time>
      </trkpt>
      <trkpt lat="49.13675" lon="-0.39664">
        <ele>7</ele>
        <time>2023-05-02T11:14:29Z</time>
      </trkpt>
      <trkpt lat="49.1367" lon="-0.39669">
        <ele>7</ele>
        <time>2023-05-02T11:14:30Z</time>
      </trkpt>
      <trkpt lat="49.13665" lon="-0.39675">
        <ele>6.8</ele>
        <time>2023-05-02T11:14:31Z</time>
      </trkpt>
      <trkpt lat="49.13659" lon="-0.39681">
        <ele>6.8</ele>
        <time>2023-05-02T11:14:32Z</time>
      </trkpt>
      <trkpt lat="49.13654" lon="-0.39687">
        <ele>6.6</ele>
        <time>2023-05-02T11:14:33Z</time>
      </trkpt>
      <trkpt lat="49.13648" lon="-0.39692">
        <ele>6.6</ele>
        <time>2023-05-02T11:14:34Z</time>
      </trkpt>
      <trkpt lat="49.13643" lon="-0.39698">
        <ele>6.6</ele>
        <time>2023-05-02T11:14:35Z</time>
      </trkpt>
      <trkpt lat="49.13637" lon="-0.39704">
        <ele>6.6</ele>
        <time>2023-05-02T11:14:36Z</time>
      </trkpt>
      <trkpt lat="49.13632" lon="-0.3971">
        <ele>6.6</ele>
        <time>2023-05-02T11:14:37Z</time>
      </trkpt>
      <trkpt lat="49.13626" lon="-0.39715">
        <ele>6.6</ele>
        <time>2023-05-02T11:14:38Z</time>
      </trkpt>
      <trkpt lat="49.13621" lon="-0.39721">
        <ele>6.6</ele>
        <time>2023-05-02T11:14:39Z</time>
      </trkpt>
      <trkpt lat="49.13615" lon="-0.39727">
        <ele>6.6</ele>
        <time>2023-05-02T11:14:40Z</time>
      </trkpt>
      <trkpt lat="49.1361" lon="-0.39733">
        <ele>6.6</ele>
        <time>2023-05-02T11:14:41Z</time>
      </trkpt>
      <trkpt lat="49.13604" lon="-0.39739">
        <ele>6.6</ele>
        <time>2023-05-02T11:14:42Z</time>
      </trkpt>
      <trkpt lat="49.13599" lon="-0.39745">
        <ele>6.6</ele>
        <time>2023-05-02T11:14:43Z</time>
      </trkpt>
      <trkpt lat="49.13593" lon="-0.39751">
        <ele>6.8</ele>
        <time>2023-05-02T11:14:44Z</time>
      </trkpt>
      <trkpt lat="49.13588" lon="-0.39757">
        <ele>6.8</ele>
        <time>2023-05-02T11:14:45Z</time>
      </trkpt>
      <trkpt lat="49.13582" lon="-0.39763">
        <ele>7</ele>
        <time>2023-05-02T11:14:46Z</time>
      </trkpt>
      <trkpt lat="49.13577" lon="-0.39769">
        <ele>7</ele>
        <time>2023-05-02T11:14:47Z</time>
      </trkpt>
      <trkpt lat="49.13572" lon="-0.39775">
        <ele>7</ele>
        <time>2023-05-02T11:14:48Z</time>
      </trkpt>
      <trkpt lat="49.13567" lon="-0.3978">
        <ele>7.2</ele>
        <time>2023-05-02T11:14:49Z</time>
      </trkpt>
      <trkpt lat="49.13562" lon="-0.39785">
        <ele>7.2</ele>
        <time>2023-05-02T11:14:50Z</time>
      </trkpt>
      <trkpt lat="49.13558" lon="-0.3979">
        <ele>7.4</ele>
        <time>2023-05-02T11:14:51Z</time>
      </trkpt>
      <trkpt lat="49.13553" lon="-0.39795">
        <ele>7.4</ele>
        <time>2023-05-02T11:14:52Z</time>
      </trkpt>
      <trkpt lat="49.13549" lon="-0.398">
        <ele>7.4</ele>
        <time>2023-05-02T11:14:53Z</time>
      </trkpt>
      <trkpt lat="49.13544" lon="-0.39805">
        <ele>7.4</ele>
        <time>2023-05-02T11:14:54Z</time>
      </trkpt>
      <trkpt lat="49.13539" lon="-0.39811">
        <ele>7.6</ele>
        <time>2023-05-02T11:14:55Z</time>
      </trkpt>
      <trkpt lat="49.13533" lon="-0.39816">
        <ele>7.6</ele>
        <time>2023-05-02T11:14:56Z</time>
      </trkpt>
      <trkpt lat="49.13528" lon="-0.39822">
        <ele>7.6</ele>
        <time>2023-05-02T11:14:57Z</time>
      </trkpt>
      <trkpt lat="49.13523" lon="-0.39828">
        <ele>7.6</ele>
        <time>2023-05-02T11:14:58Z</time>
      </trkpt>
      <trkpt lat="49.13517" lon="-0.39833">
        <ele>7.6</ele>
        <time>2023-05-02T11:14:59Z</time>
      </trkpt>
      <trkpt lat="49.13512" lon="-0.39839">
        <ele>7.6</ele>
        <time>2023-05-02T11:15:00Z</time>
      </trkpt>
      <trkpt lat="49.13507" lon="-0.39845">
        <ele>7.8</ele>
        <time>2023-05-02T11:15:01Z</time>
      </trkpt>
      <trkpt lat="49.13502" lon="-0.39851">
        <ele>8</ele>
        <time>2023-05-02T11:15:02Z</time>
      </trkpt>
      <trkpt lat="49.13497" lon="-0.39857">
        <ele>8.2</ele>
        <time>2023-05-02T11:15:03Z</time>
      </trkpt>
      <trkpt lat="49.13492" lon="-0.39863">
        <ele>8.4</ele>
        <time>2023-05-02T11:15:04Z</time>
      </trkpt>
      <trkpt lat="49.13487" lon="-0.39869">
        <ele>8.6</ele>
        <time>2023-05-02T11:15:05Z</time>
      </trkpt>
      <trkpt lat="49.13482" lon="-0.39874">
        <ele>8.6</ele>
        <time>2023-05-02T11:15:06Z</time>
      </trkpt>
      <trkpt lat="49.13476" lon="-0.3988">
        <ele>8.8</ele>
        <time>2023-05-02T11:15:07Z</time>
      </trkpt>
      <trkpt lat="49.13471" lon="-0.39886">
        <ele>8.8</ele>
        <time>2023-05-02T11:15:08Z</time>
      </trkpt>
      <trkpt lat="49.13466" lon="-0.39892">
        <ele>8.8</ele>
        <time>2023-05-02T11:15:09Z</time>
      </trkpt>
      <trkpt lat="49.1346" lon="-0.39898">
        <ele>8.8</ele>
        <time>2023-05-02T11:15:10Z</time>
      </trkpt>
      <trkpt lat="49.13454" lon="-0.39904">
        <ele>8.8</ele>
        <time>2023-05-02T11:15:11Z</time>
      </trkpt>
      <trkpt lat="49.13449" lon="-0.3991">
        <ele>8.8</ele>
        <time>2023-05-02T11:15:12Z</time>
      </trkpt>
      <trkpt lat="49.13443" lon="-0.39916">
        <ele>8.6</ele>
        <time>2023-05-02T11:15:13Z</time>
      </trkpt>
      <trkpt lat="49.13437" lon="-0.39922">
        <ele>8.6</ele>
        <time>2023-05-02T11:15:14Z</time>
      </trkpt>
      <trkpt lat="49.13432" lon="-0.39928">
        <ele>8.6</ele>
        <time>2023-05-02T11:15:15Z</time>
      </trkpt>
      <trkpt lat="49.13426" lon="-0.39934">
        <ele>8.6</ele>
        <time>2023-05-02T11:15:16Z</time>
      </trkpt>
      <trkpt lat="49.1342" lon="-0.3994">
        <ele>8.6</ele>
        <time>2023-05-02T11:15:17Z</time>
      </trkpt>
      <trkpt lat="49.13415" lon="-0.39946">
        <ele>8.6</ele>
        <time>2023-05-02T11:15:18Z</time>
      </trkpt>
      <trkpt lat="49.13409" lon="-0.39952">
        <ele>8.8</ele>
        <time>2023-05-02T11:15:19Z</time>
      </trkpt>
      <trkpt lat="49.13403" lon="-0.39958">
        <ele>9</ele>
        <time>2023-05-02T11:15:20Z</time>
      </trkpt>
      <trkpt lat="49.13398" lon="-0.39964">
        <ele>9.2</ele>
        <time>2023-05-02T11:15:21Z</time>
      </trkpt>
      <trkpt lat="49.13392" lon="-0.3997">
        <ele>9.2</ele>
        <time>2023-05-02T11:15:22Z</time>
      </trkpt>
      <trkpt lat="49.13387" lon="-0.39976">
        <ele>9.2</ele>
        <time>2023-05-02T11:15:23Z</time>
      </trkpt>
      <trkpt lat="49.13381" lon="-0.39982">
        <ele>9.4</ele>
        <time>2023-05-02T11:15:24Z</time>
      </trkpt>
      <trkpt lat="49.13375" lon="-0.39988">
        <ele>9.4</ele>
        <time>2023-05-02T11:15:25Z</time>
      </trkpt>
      <trkpt lat="49.1337" lon="-0.39994">
        <ele>9.4</ele>
        <time>2023-05-02T11:15:26Z</time>
      </trkpt>
      <trkpt lat="49.13364" lon="-0.4">
        <ele>9.4</ele>
        <time>2023-05-02T11:15:27Z</time>
      </trkpt>
      <trkpt lat="49.13358" lon="-0.40006">
        <ele>9.4</ele>
        <time>2023-05-02T11:15:28Z</time>
      </trkpt>
      <trkpt lat="49.13353" lon="-0.40013">
        <ele>9.4</ele>
        <time>2023-05-02T11:15:29Z</time>
      </trkpt>
      <trkpt lat="49.13347" lon="-0.40019">
        <ele>9.4</ele>
        <time>2023-05-02T11:15:30Z</time>
      </trkpt>
      <trkpt lat="49.13341" lon="-0.40025">
        <ele>9.6</ele>
        <time>2023-05-02T11:15:31Z</time>
      </trkpt>
      <trkpt lat="49.13336" lon="-0.40031">
        <ele>9.6</ele>
        <time>2023-05-02T11:15:32Z</time>
      </trkpt>
      <trkpt lat="49.1333" lon="-0.40037">
        <ele>9.6</ele>
        <time>2023-05-02T11:15:33Z</time>
      </trkpt>
      <trkpt lat="49.13324" lon="-0.40043">
        <ele>9.6</ele>
        <time>2023-05-02T11:15:34Z</time>
      </trkpt>
      <trkpt lat="49.13318" lon="-0.40049">
        <ele>9.6</ele>
        <time>2023-05-02T11:15:35Z</time>
      </trkpt>
      <trkpt lat="49.13313" lon="-0.40055">
        <ele>9.8</ele>
        <time>2023-05-02T11:15:36Z</time>
      </trkpt>
      <trkpt lat="49.13307" lon="-0.40061">
        <ele>9.8</ele>
        <time>2023-05-02T11:15:37Z</time>
      </trkpt>
      <trkpt lat="49.13301" lon="-0.40067">
        <ele>9.6</ele>
        <time>2023-05-02T11:15:38Z</time>
      </trkpt>
      <trkpt lat="49.13296" lon="-0.40072">
        <ele>9.6</ele>
        <time>2023-05-02T11:15:39Z</time>
      </trkpt>
      <trkpt lat="49.1329" lon="-0.40078">
        <ele>9.6</ele>
        <time>2023-05-02T11:15:40Z</time>
      </trkpt>
      <trkpt lat="49.13284" lon="-0.40083">
        <ele>9.6</ele>
        <time>2023-05-02T11:15:41Z</time>
      </trkpt>
      <trkpt lat="49.13279" lon="-0.40088">
        <ele>9.6</ele>
        <time>2023-05-02T11:15:42Z</time>
      </trkpt>
      <trkpt lat="49.13273" lon="-0.40093">
        <ele>9.4</ele>
        <time>2023-05-02T11:15:43Z</time>
      </trkpt>
      <trkpt lat="49.13267" lon="-0.40098">
        <ele>9.4</ele>
        <time>2023-05-02T11:15:44Z</time>
      </trkpt>
      <trkpt lat="49.13262" lon="-0.40103">
        <ele>9.2</ele>
        <time>2023-05-02T11:15:45Z</time>
      </trkpt>
      <trkpt lat="49.13256" lon="-0.40107">
        <ele>9.2</ele>
        <time>2023-05-02T11:15:46Z</time>
      </trkpt>
      <trkpt lat="49.1325" lon="-0.40112">
        <ele>9</ele>
        <time>2023-05-02T11:15:47Z</time>
      </trkpt>
      <trkpt lat="49.13244" lon="-0.40117">
        <ele>8.8</ele>
        <time>2023-05-02T11:15:48Z</time>
      </trkpt>
      <trkpt lat="49.13237" lon="-0.40121">
        <ele>8.6</ele>
        <time>2023-05-02T11:15:49Z</time>
      </trkpt>
      <trkpt lat="49.13231" lon="-0.40126">
        <ele>8.6</ele>
        <time>2023-05-02T11:15:50Z</time>
      </trkpt>
      <trkpt lat="49.13224" lon="-0.4013">
        <ele>8.4</ele>
        <time>2023-05-02T11:15:51Z</time>
      </trkpt>
      <trkpt lat="49.13218" lon="-0.40136">
        <ele>8.2</ele>
        <time>2023-05-02T11:15:52Z</time>
      </trkpt>
      <trkpt lat="49.1321" lon="-0.40141">
        <ele>8</ele>
        <time>2023-05-02T11:15:53Z</time>
      </trkpt>
      <trkpt lat="49.13203" lon="-0.40147">
        <ele>7.6</ele>
        <time>2023-05-02T11:15:54Z</time>
      </trkpt>
      <trkpt lat="49.13196" lon="-0.40152">
        <ele>7.6</ele>
        <time>2023-05-02T11:15:55Z</time>
      </trkpt>
      <trkpt lat="49.1319" lon="-0.40156">
        <ele>7.4</ele>
        <time>2023-05-02T11:15:56Z</time>
      </trkpt>
      <trkpt lat="49.13184" lon="-0.4016">
        <ele>7.2</ele>
        <time>2023-05-02T11:15:57Z</time>
      </trkpt>
      <trkpt lat="49.13178" lon="-0.40164">
        <ele>7</ele>
        <time>2023-05-02T11:15:58Z</time>
      </trkpt>
      <trkpt lat="49.13172" lon="-0.40167">
        <ele>7</ele>
        <time>2023-05-02T11:15:59Z</time>
      </trkpt>
      <trkpt lat="49.13165" lon="-0.40171">
        <ele>7</ele>
        <time>2023-05-02T11:16:00Z</time>
      </trkpt>
      <trkpt lat="49.13158" lon="-0.40175">
        <ele>7.2</ele>
        <time>2023-05-02T11:16:01Z</time>
      </trkpt>
      <trkpt lat="49.13151" lon="-0.40179">
        <ele>7.4</ele>
        <time>2023-05-02T11:16:02Z</time>
      </trkpt>
      <trkpt lat="49.13143" lon="-0.40183">
        <ele>7.6</ele>
        <time>2023-05-02T11:16:03Z</time>
      </trkpt>
      <trkpt lat="49.13137" lon="-0.40186">
        <ele>7.6</ele>
        <time>2023-05-02T11:16:04Z</time>
      </trkpt>
      <trkpt lat="49.13131" lon="-0.40189">
        <ele>7.8</ele>
        <time>2023-05-02T11:16:05Z</time>
      </trkpt>
      <trkpt lat="49.13125" lon="-0.40191">
        <ele>8</ele>
        <time>2023-05-02T11:16:06Z</time>
      </trkpt>
      <trkpt lat="49.1312" lon="-0.40193">
        <ele>8</ele>
        <time>2023-05-02T11:16:07Z</time>
      </trkpt>
      <trkpt lat="49.13115" lon="-0.40195">
        <ele>8.2</ele>
        <time>2023-05-02T11:16:08Z</time>
      </trkpt>
      <trkpt lat="49.13109" lon="-0.40197">
        <ele>8.2</ele>
        <time>2023-05-02T11:16:09Z</time>
      </trkpt>
      <trkpt lat="49.13103" lon="-0.40199">
        <ele>8.4</ele>
        <time>2023-05-02T11:16:10Z</time>
      </trkpt>
      <trkpt lat="49.13096" lon="-0.40202">
        <ele>8.4</ele>
        <time>2023-05-02T11:16:11Z</time>
      </trkpt>
      <trkpt lat="49.13089" lon="-0.40204">
        <ele>8.6</ele>
        <time>2023-05-02T11:16:12Z</time>
      </trkpt>
      <trkpt lat="49.13083" lon="-0.40207">
        <ele>8.6</ele>
        <time>2023-05-02T11:16:13Z</time>
      </trkpt>
      <trkpt lat="49.13076" lon="-0.40209">
        <ele>8.6</ele>
        <time>2023-05-02T11:16:14Z</time>
      </trkpt>
      <trkpt lat="49.13069" lon="-0.40211">
        <ele>8.6</ele>
        <time>2023-05-02T11:16:15Z</time>
      </trkpt>
      <trkpt lat="49.13062" lon="-0.40214">
        <ele>8.8</ele>
        <time>2023-05-02T11:16:16Z</time>
      </trkpt>
      <trkpt lat="49.13056" lon="-0.40216">
        <ele>8.8</ele>
        <time>2023-05-02T11:16:17Z</time>
      </trkpt>
      <trkpt lat="49.13049" lon="-0.40218">
        <ele>9</ele>
        <time>2023-05-02T11:16:18Z</time>
      </trkpt>
      <trkpt lat="49.13042" lon="-0.40219">
        <ele>9.2</ele>
        <time>2023-05-02T11:16:19Z</time>
      </trkpt>
      <trkpt lat="49.13036" lon="-0.40221">
        <ele>9.2</ele>
        <time>2023-05-02T11:16:20Z</time>
      </trkpt>
      <trkpt lat="49.13029" lon="-0.40222">
        <ele>9.4</ele>
        <time>2023-05-02T11:16:21Z</time>
      </trkpt>
      <trkpt lat="49.13023" lon="-0.40224">
        <ele>9.4</ele>
        <time>2023-05-02T11:16:22Z</time>
      </trkpt>
      <trkpt lat="49.13016" lon="-0.40225">
        <ele>9.6</ele>
        <time>2023-05-02T11:16:23Z</time>
      </trkpt>
      <trkpt lat="49.1301" lon="-0.40226">
        <ele>9.6</ele>
        <time>2023-05-02T11:16:24Z</time>
      </trkpt>
      <trkpt lat="49.13004" lon="-0.40226">
        <ele>9.6</ele>
        <time>2023-05-02T11:16:25Z</time>
      </trkpt>
      <trkpt lat="49.12999" lon="-0.40227">
        <ele>9.8</ele>
        <time>2023-05-02T11:16:26Z</time>
      </trkpt>
      <trkpt lat="49.12993" lon="-0.40227">
        <ele>9.6</ele>
        <time>2023-05-02T11:16:27Z</time>
      </trkpt>
      <trkpt lat="49.12987" lon="-0.40228">
        <ele>9.6</ele>
        <time>2023-05-02T11:16:28Z</time>
      </trkpt>
      <trkpt lat="49.12981" lon="-0.40229">
        <ele>9.4</ele>
        <time>2023-05-02T11:16:29Z</time>
      </trkpt>
      <trkpt lat="49.12975" lon="-0.4023">
        <ele>9.4</ele>
        <time>2023-05-02T11:16:30Z</time>
      </trkpt>
      <trkpt lat="49.12968" lon="-0.40231">
        <ele>9.2</ele>
        <time>2023-05-02T11:16:31Z</time>
      </trkpt>
      <trkpt lat="49.12962" lon="-0.40232">
        <ele>8.8</ele>
        <time>2023-05-02T11:16:32Z</time>
      </trkpt>
      <trkpt lat="49.12956" lon="-0.40233">
        <ele>8.8</ele>
        <time>2023-05-02T11:16:33Z</time>
      </trkpt>
      <trkpt lat="49.12949" lon="-0.40234">
        <ele>8.6</ele>
        <time>2023-05-02T11:16:34Z</time>
      </trkpt>
      <trkpt lat="49.12942" lon="-0.40234">
        <ele>8.4</ele>
        <time>2023-05-02T11:16:35Z</time>
      </trkpt>
      <trkpt lat="49.12935" lon="-0.40235">
        <ele>8.4</ele>
        <time>2023-05-02T11:16:36Z</time>
      </trkpt>
      <trkpt lat="49.12928" lon="-0.40236">
        <ele>8.2</ele>
        <time>2023-05-02T11:16:37Z</time>
      </trkpt>
      <trkpt lat="49.12921" lon="-0.40236">
        <ele>8</ele>
        <time>2023-05-02T11:16:38Z</time>
      </trkpt>
      <trkpt lat="49.12913" lon="-0.40237">
        <ele>7.8</ele>
        <time>2023-05-02T11:16:39Z</time>
      </trkpt>
      <trkpt lat="49.12906" lon="-0.40238">
        <ele>7.6</ele>
        <time>2023-05-02T11:16:40Z</time>
      </trkpt>
      <trkpt lat="49.12899" lon="-0.40238">
        <ele>7.6</ele>
        <time>2023-05-02T11:16:41Z</time>
      </trkpt>
      <trkpt lat="49.12892" lon="-0.40238">
        <ele>7.6</ele>
        <time>2023-05-02T11:16:42Z</time>
      </trkpt>
      <trkpt lat="49.12885" lon="-0.40238">
        <ele>7.6</ele>
        <time>2023-05-02T11:16:43Z</time>
      </trkpt>
      <trkpt lat="49.12878" lon="-0.40238">
        <ele>7.6</ele>
        <time>2023-05-02T11:16:44Z</time>
      </trkpt>
      <trkpt lat="49.12871" lon="-0.40237">
        <ele>7.8</ele>
        <time>2023-05-02T11:16:45Z</time>
      </trkpt>
      <trkpt lat="49.12864" lon="-0.40236">
        <ele>7.8</ele>
        <time>2023-05-02T11:16:46Z</time>
      </trkpt>
      <trkpt lat="49.12857" lon="-0.40235">
        <ele>8</ele>
        <time>2023-05-02T11:16:47Z</time>
      </trkpt>
      <trkpt lat="49.1285" lon="-0.40234">
        <ele>8</ele>
        <time>2023-05-02T11:16:48Z</time>
      </trkpt>
      <trkpt lat="49.12844" lon="-0.40233">
        <ele>8</ele>
        <time>2023-05-02T11:16:49Z</time>
      </trkpt>
      <trkpt lat="49.12837" lon="-0.40232">
        <ele>8.2</ele>
        <time>2023-05-02T11:16:50Z</time>
      </trkpt>
      <trkpt lat="49.12831" lon="-0.40231">
        <ele>8.2</ele>
        <time>2023-05-02T11:16:51Z</time>
      </trkpt>
      <trkpt lat="49.12824" lon="-0.40229">
        <ele>8.4</ele>
        <time>2023-05-02T11:16:52Z</time>
      </trkpt>
      <trkpt lat="49.12817" lon="-0.40228">
        <ele>8.6</ele>
        <time>2023-05-02T11:16:53Z</time>
      </trkpt>
      <trkpt lat="49.12811" lon="-0.40226">
        <ele>8.8</ele>
        <time>2023-05-02T11:16:54Z</time>
      </trkpt>
      <trkpt lat="49.12804" lon="-0.40224">
        <ele>9</ele>
        <time>2023-05-02T11:16:55Z</time>
      </trkpt>
      <trkpt lat="49.12798" lon="-0.40222">
        <ele>9.2</ele>
        <time>2023-05-02T11:16:56Z</time>
      </trkpt>
      <trkpt lat="49.12791" lon="-0.4022">
        <ele>9.4</ele>
        <time>2023-05-02T11:16:57Z</time>
      </trkpt>
      <trkpt lat="49.12785" lon="-0.40219">
        <ele>9.6</ele>
        <time>2023-05-02T11:16:58Z</time>
      </trkpt>
      <trkpt lat="49.12778" lon="-0.40217">
        <ele>9.8</ele>
        <time>2023-05-02T11:16:59Z</time>
      </trkpt>
      <trkpt lat="49.12772" lon="-0.40216">
        <ele>9.8</ele>
        <time>2023-05-02T11:17:00Z</time>
      </trkpt>
      <trkpt lat="49.12766" lon="-0.40217">
        <ele>10</ele>
        <time>2023-05-02T11:17:01Z</time>
      </trkpt>
      <trkpt lat="49.1276" lon="-0.40218">
        <ele>10</ele>
        <time>2023-05-02T11:17:02Z</time>
      </trkpt>
      <trkpt lat="49.12754" lon="-0.40219">
        <ele>10.2</ele>
        <time>2023-05-02T11:17:03Z</time>
      </trkpt>
      <trkpt lat="49.12748" lon="-0.40219">
        <ele>10.2</ele>
        <time>2023-05-02T11:17:04Z</time>
      </trkpt>
      <trkpt lat="49.12743" lon="-0.40217">
        <ele>10.2</ele>
        <time>2023-05-02T11:17:05Z</time>
      </trkpt>
      <trkpt lat="49.12737" lon="-0.40215">
        <ele>10.4</ele>
        <time>2023-05-02T11:17:06Z</time>
      </trkpt>
      <trkpt lat="49.12731" lon="-0.40211">
        <ele>10.4</ele>
        <time>2023-05-02T11:17:07Z</time>
      </trkpt>
      <trkpt lat="49.12725" lon="-0.40208">
        <ele>10.6</ele>
        <time>2023-05-02T11:17:08Z</time>
      </trkpt>
      <trkpt lat="49.12718" lon="-0.40205">
        <ele>10.6</ele>
        <time>2023-05-02T11:17:09Z</time>
      </trkpt>
      <trkpt lat="49.12712" lon="-0.40202">
        <ele>10.6</ele>
        <time>2023-05-02T11:17:10Z</time>
      </trkpt>
      <trkpt lat="49.12706" lon="-0.40199">
        <ele>10.8</ele>
        <time>2023-05-02T11:17:11Z</time>
      </trkpt>
      <trkpt lat="49.127" lon="-0.40196">
        <ele>10.8</ele>
        <time>2023-05-02T11:17:12Z</time>
      </trkpt>
      <trkpt lat="49.12694" lon="-0.40193">
        <ele>11.2</ele>
        <time>2023-05-02T11:17:13Z</time>
      </trkpt>
      <trkpt lat="49.12688" lon="-0.4019">
        <ele>11.2</ele>
        <time>2023-05-02T11:17:14Z</time>
      </trkpt>
      <trkpt lat="49.12682" lon="-0.40186">
        <ele>11.4</ele>
        <time>2023-05-02T11:17:15Z</time>
      </trkpt>
      <trkpt lat="49.12675" lon="-0.40183">
        <ele>11.4</ele>
        <time>2023-05-02T11:17:16Z</time>
      </trkpt>
      <trkpt lat="49.12669" lon="-0.40179">
        <ele>11.6</ele>
        <time>2023-05-02T11:17:17Z</time>
      </trkpt>
      <trkpt lat="49.12663" lon="-0.40175">
        <ele>11.6</ele>
        <time>2023-05-02T11:17:18Z</time>
      </trkpt>
      <trkpt lat="49.12657" lon="-0.40171">
        <ele>11.4</ele>
        <time>2023-05-02T11:17:19Z</time>
      </trkpt>
      <trkpt lat="49.12651" lon="-0.40167">
        <ele>11.2</ele>
        <time>2023-05-02T11:17:20Z</time>
      </trkpt>
      <trkpt lat="49.12645" lon="-0.40163">
        <ele>11</ele>
        <time>2023-05-02T11:17:21Z</time>
      </trkpt>
      <trkpt lat="49.12639" lon="-0.40159">
        <ele>10.8</ele>
        <time>2023-05-02T11:17:22Z</time>
      </trkpt>
      <trkpt lat="49.12633" lon="-0.40155">
        <ele>10.6</ele>
        <time>2023-05-02T11:17:23Z</time>
      </trkpt>
      <trkpt lat="49.12627" lon="-0.40151">
        <ele>10.4</ele>
        <time>2023-05-02T11:17:24Z</time>
      </trkpt>
      <trkpt lat="49.12621" lon="-0.40146">
        <ele>10.2</ele>
        <time>2023-05-02T11:17:25Z</time>
      </trkpt>
      <trkpt lat="49.12615" lon="-0.40142">
        <ele>9.8</ele>
        <time>2023-05-02T11:17:26Z</time>
      </trkpt>
      <trkpt lat="49.12609" lon="-0.40138">
        <ele>9.6</ele>
        <time>2023-05-02T11:17:27Z</time>
      </trkpt>
      <trkpt lat="49.12602" lon="-0.40133">
        <ele>9.4</ele>
        <time>2023-05-02T11:17:28Z</time>
      </trkpt>
      <trkpt lat="49.12596" lon="-0.40129">
        <ele>9.2</ele>
        <time>2023-05-02T11:17:29Z</time>
      </trkpt>
      <trkpt lat="49.12589" lon="-0.40125">
        <ele>8.8</ele>
        <time>2023-05-02T11:17:30Z</time>
      </trkpt>
      <trkpt lat="49.12583" lon="-0.4012">
        <ele>8.6</ele>
        <time>2023-05-02T11:17:31Z</time>
      </trkpt>
      <trkpt lat="49.12576" lon="-0.40116">
        <ele>8.6</ele>
        <time>2023-05-02T11:17:32Z</time>
      </trkpt>
      <trkpt lat="49.1257" lon="-0.40112">
        <ele>8.6</ele>
        <time>2023-05-02T11:17:33Z</time>
      </trkpt>
      <trkpt lat="49.12563" lon="-0.40107">
        <ele>8.6</ele>
        <time>2023-05-02T11:17:34Z</time>
      </trkpt>
      <trkpt lat="49.12557" lon="-0.40103">
        <ele>8.6</ele>
        <time>2023-05-02T11:17:35Z</time>
      </trkpt>
      <trkpt lat="49.1255" lon="-0.40099">
        <ele>8.6</ele>
        <time>2023-05-02T11:17:36Z</time>
      </trkpt>
      <trkpt lat="49.12543" lon="-0.40095">
        <ele>8.6</ele>
        <time>2023-05-02T11:17:37Z</time>
      </trkpt>
      <trkpt lat="49.12537" lon="-0.4009">
        <ele>8.6</ele>
        <time>2023-05-02T11:17:38Z</time>
      </trkpt>
      <trkpt lat="49.1253" lon="-0.40086">
        <ele>8.4</ele>
        <time>2023-05-02T11:17:39Z</time>
      </trkpt>
      <trkpt lat="49.12524" lon="-0.40082">
        <ele>8.2</ele>
        <time>2023-05-02T11:17:40Z</time>
      </trkpt>
      <trkpt lat="49.12517" lon="-0.40077">
        <ele>8.2</ele>
        <time>2023-05-02T11:17:41Z</time>
      </trkpt>
      <trkpt lat="49.12511" lon="-0.40073">
        <ele>8</ele>
        <time>2023-05-02T11:17:42Z</time>
      </trkpt>
      <trkpt lat="49.12504" lon="-0.40068">
        <ele>7.8</ele>
        <time>2023-05-02T11:17:43Z</time>
      </trkpt>
      <trkpt lat="49.12498" lon="-0.40064">
        <ele>8</ele>
        <time>2023-05-02T11:17:44Z</time>
      </trkpt>
      <trkpt lat="49.12491" lon="-0.4006">
        <ele>8.2</ele>
        <time>2023-05-02T11:17:45Z</time>
      </trkpt>
      <trkpt lat="49.12485" lon="-0.40055">
        <ele>8.4</ele>
        <time>2023-05-02T11:17:46Z</time>
      </trkpt>
      <trkpt lat="49.12479" lon="-0.40051">
        <ele>8.6</ele>
        <time>2023-05-02T11:17:47Z</time>
      </trkpt>
      <trkpt lat="49.12472" lon="-0.40046">
        <ele>8.6</ele>
        <time>2023-05-02T11:17:48Z</time>
      </trkpt>
      <trkpt lat="49.12466" lon="-0.40041">
        <ele>8.6</ele>
        <time>2023-05-02T11:17:49Z</time>
      </trkpt>
      <trkpt lat="49.1246" lon="-0.40037">
        <ele>8.8</ele>
        <time>2023-05-02T11:17:50Z</time>
      </trkpt>
      <trkpt lat="49.12454" lon="-0.40032">
        <ele>8.8</ele>
        <time>2023-05-02T11:17:51Z</time>
      </trkpt>
      <trkpt lat="49.12448" lon="-0.40027">
        <ele>8.8</ele>
        <time>2023-05-02T11:17:52Z</time>
      </trkpt>
      <trkpt lat="49.12442" lon="-0.40023">
        <ele>8.6</ele>
        <time>2023-05-02T11:17:53Z</time>
      </trkpt>
      <trkpt lat="49.12436" lon="-0.40019">
        <ele>8.6</ele>
        <time>2023-05-02T11:17:54Z</time>
      </trkpt>
      <trkpt lat="49.1243" lon="-0.40015">
        <ele>8.6</ele>
        <time>2023-05-02T11:17:55Z</time>
      </trkpt>
      <trkpt lat="49.12424" lon="-0.40011">
        <ele>8.6</ele>
        <time>2023-05-02T11:17:56Z</time>
      </trkpt>
      <trkpt lat="49.12418" lon="-0.40007">
        <ele>8.4</ele>
        <time>2023-05-02T11:17:57Z</time>
      </trkpt>
      <trkpt lat="49.12411" lon="-0.40002">
        <ele>8.6</ele>
        <time>2023-05-02T11:17:58Z</time>
      </trkpt>
      <trkpt lat="49.12406" lon="-0.39998">
        <ele>8.8</ele>
        <time>2023-05-02T11:17:59Z</time>
      </trkpt>
      <trkpt lat="49.124" lon="-0.39993">
        <ele>9.4</ele>
        <time>2023-05-02T11:18:00Z</time>
      </trkpt>
      <trkpt lat="49.12392" lon="-0.39987">
        <ele>9.8</ele>
        <time>2023-05-02T11:18:01Z</time>
      </trkpt>
      <trkpt lat="49.12385" lon="-0.39982">
        <ele>10.4</ele>
        <time>2023-05-02T11:18:02Z</time>
      </trkpt>
      <trkpt lat="49.12347" lon="-0.3999">
        <ele>13.4</ele>
        <time>2023-05-02T11:18:03Z</time>
      </trkpt>
      <trkpt lat="49.12341" lon="-0.39986">
        <ele>13.6</ele>
        <time>2023-05-02T11:18:04Z</time>
      </trkpt>
      <trkpt lat="49.12334" lon="-0.3998">
        <ele>14</ele>
        <time>2023-05-02T11:18:05Z</time>
      </trkpt>
      <trkpt lat="49.12327" lon="-0.39975">
        <ele>14.2</ele>
        <time>2023-05-02T11:18:06Z</time>
      </trkpt>
      <trkpt lat="49.12321" lon="-0.39969">
        <ele>14.4</ele>
        <time>2023-05-02T11:18:07Z</time>
      </trkpt>
      <trkpt lat="49.12315" lon="-0.39964">
        <ele>14.6</ele>
        <time>2023-05-02T11:18:08Z</time>
      </trkpt>
      <trkpt lat="49.12309" lon="-0.39959">
        <ele>14.6</ele>
        <time>2023-05-02T11:18:09Z</time>
      </trkpt>
      <trkpt lat="49.12303" lon="-0.39954">
        <ele>14.8</ele>
        <time>2023-05-02T11:18:10Z</time>
      </trkpt>
      <trkpt lat="49.12297" lon="-0.39948">
        <ele>14.8</ele>
        <time>2023-05-02T11:18:11Z</time>
      </trkpt>
      <trkpt lat="49.12292" lon="-0.39943">
        <ele>15.2</ele>
        <time>2023-05-02T11:18:12Z</time>
      </trkpt>
      <trkpt lat="49.12286" lon="-0.39937">
        <ele>15.2</ele>
        <time>2023-05-02T11:18:13Z</time>
      </trkpt>
      <trkpt lat="49.1228" lon="-0.39931">
        <ele>15.4</ele>
        <time>2023-05-02T11:18:14Z</time>
      </trkpt>
      <trkpt lat="49.12275" lon="-0.39925">
        <ele>15.6</ele>
        <time>2023-05-02T11:18:15Z</time>
      </trkpt>
      <trkpt lat="49.12269" lon="-0.39919">
        <ele>15.6</ele>
        <time>2023-05-02T11:18:16Z</time>
      </trkpt>
      <trkpt lat="49.12264" lon="-0.39913">
        <ele>15.8</ele>
        <time>2023-05-02T11:18:17Z</time>
      </trkpt>
      <trkpt lat="49.12258" lon="-0.39908">
        <ele>16.2</ele>
        <time>2023-05-02T11:18:18Z</time>
      </trkpt>
      <trkpt lat="49.12253" lon="-0.39902">
        <ele>16.2</ele>
        <time>2023-05-02T11:18:19Z</time>
      </trkpt>
      <trkpt lat="49.12248" lon="-0.39897">
        <ele>16.4</ele>
        <time>2023-05-02T11:18:20Z</time>
      </trkpt>
      <trkpt lat="49.12243" lon="-0.39892">
        <ele>16.4</ele>
        <time>2023-05-02T11:18:21Z</time>
      </trkpt>
      <trkpt lat="49.12237" lon="-0.39886">
        <ele>16.6</ele>
        <time>2023-05-02T11:18:22Z</time>
      </trkpt>
      <trkpt lat="49.12232" lon="-0.39881">
        <ele>16.6</ele>
        <time>2023-05-02T11:18:23Z</time>
      </trkpt>
      <trkpt lat="49.12227" lon="-0.39876">
        <ele>16.6</ele>
        <time>2023-05-02T11:18:24Z</time>
      </trkpt>
      <trkpt lat="49.12222" lon="-0.3987">
        <ele>16.8</ele>
        <time>2023-05-02T11:18:25Z</time>
      </trkpt>
      <trkpt lat="49.12217" lon="-0.39864">
        <ele>16.8</ele>
        <time>2023-05-02T11:18:26Z</time>
      </trkpt>
      <trkpt lat="49.12211" lon="-0.39859">
        <ele>16.8</ele>
        <time>2023-05-02T11:18:27Z</time>
      </trkpt>
      <trkpt lat="49.12206" lon="-0.39853">
        <ele>17.2</ele>
        <time>2023-05-02T11:18:28Z</time>
      </trkpt>
      <trkpt lat="49.12201" lon="-0.39847">
        <ele>17.2</ele>
        <time>2023-05-02T11:18:29Z</time>
      </trkpt>
      <trkpt lat="49.12196" lon="-0.3984">
        <ele>17.4</ele>
        <time>2023-05-02T11:18:30Z</time>
      </trkpt>
      <trkpt lat="49.1219" lon="-0.39834">
        <ele>17.6</ele>
        <time>2023-05-02T11:18:31Z</time>
      </trkpt>
      <trkpt lat="49.12185" lon="-0.39828">
        <ele>17.8</ele>
        <time>2023-05-02T11:18:32Z</time>
      </trkpt>
      <trkpt lat="49.1218" lon="-0.39821">
        <ele>17.8</ele>
        <time>2023-05-02T11:18:33Z</time>
      </trkpt>
      <trkpt lat="49.12175" lon="-0.39815">
        <ele>17.8</ele>
        <time>2023-05-02T11:18:34Z</time>
      </trkpt>
      <trkpt lat="49.1217" lon="-0.39809">
        <ele>17.6</ele>
        <time>2023-05-02T11:18:35Z</time>
      </trkpt>
      <trkpt lat="49.12166" lon="-0.39803">
        <ele>17.6</ele>
        <time>2023-05-02T11:18:36Z</time>
      </trkpt>
      <trkpt lat="49.12161" lon="-0.39797">
        <ele>17.6</ele>
        <time>2023-05-02T11:18:37Z</time>
      </trkpt>
      <trkpt lat="49.12157" lon="-0.39791">
        <ele>17.4</ele>
        <time>2023-05-02T11:18:38Z</time>
      </trkpt>
      <trkpt lat="49.12153" lon="-0.39784">
        <ele>17.4</ele>
        <time>2023-05-02T11:18:39Z</time>
      </trkpt>
      <trkpt lat="49.12148" lon="-0.39778">
        <ele>17.2</ele>
        <time>2023-05-02T11:18:40Z</time>
      </trkpt>
      <trkpt lat="49.12144" lon="-0.39772">
        <ele>17.2</ele>
        <time>2023-05-02T11:18:41Z</time>
      </trkpt>
      <trkpt lat="49.12139" lon="-0.39766">
        <ele>17.2</ele>
        <time>2023-05-02T11:18:42Z</time>
      </trkpt>
      <trkpt lat="49.12134" lon="-0.3976">
        <ele>17.2</ele>
        <time>2023-05-02T11:18:43Z</time>
      </trkpt>
      <trkpt lat="49.1213" lon="-0.39753">
        <ele>17.2</ele>
        <time>2023-05-02T11:18:44Z</time>
      </trkpt>
      <trkpt lat="49.12124" lon="-0.39747">
        <ele>17.4</ele>
        <time>2023-05-02T11:18:45Z</time>
      </trkpt>
      <trkpt lat="49.1212" lon="-0.3974">
        <ele>17.6</ele>
        <time>2023-05-02T11:18:46Z</time>
      </trkpt>
      <trkpt lat="49.12114" lon="-0.39733">
        <ele>17.6</ele>
        <time>2023-05-02T11:18:47Z</time>
      </trkpt>
      <trkpt lat="49.12109" lon="-0.39726">
        <ele>17.6</ele>
        <time>2023-05-02T11:18:48Z</time>
      </trkpt>
      <trkpt lat="49.12104" lon="-0.3972">
        <ele>17.6</ele>
        <time>2023-05-02T11:18:49Z</time>
      </trkpt>
      <trkpt lat="49.12099" lon="-0.39712">
        <ele>17.4</ele>
        <time>2023-05-02T11:18:50Z</time>
      </trkpt>
      <trkpt lat="49.12095" lon="-0.39705">
        <ele>17.2</ele>
        <time>2023-05-02T11:18:51Z</time>
      </trkpt>
      <trkpt lat="49.1209" lon="-0.39698">
        <ele>17.2</ele>
        <time>2023-05-02T11:18:52Z</time>
      </trkpt>
      <trkpt lat="49.12085" lon="-0.39691">
        <ele>17.2</ele>
        <time>2023-05-02T11:18:53Z</time>
      </trkpt>
      <trkpt lat="49.1208" lon="-0.39684">
        <ele>17</ele>
        <time>2023-05-02T11:18:54Z</time>
      </trkpt>
      <trkpt lat="49.12075" lon="-0.39678">
        <ele>16.8</ele>
        <time>2023-05-02T11:18:55Z</time>
      </trkpt>
      <trkpt lat="49.1207" lon="-0.39671">
        <ele>16.8</ele>
        <time>2023-05-02T11:18:56Z</time>
      </trkpt>
      <trkpt lat="49.12065" lon="-0.39665">
        <ele>16.8</ele>
        <time>2023-05-02T11:18:57Z</time>
      </trkpt>
      <trkpt lat="49.1206" lon="-0.39659">
        <ele>17</ele>
        <time>2023-05-02T11:18:58Z</time>
      </trkpt>
      <trkpt lat="49.12055" lon="-0.39652">
        <ele>17.2</ele>
        <time>2023-05-02T11:18:59Z</time>
      </trkpt>
      <trkpt lat="49.12051" lon="-0.39646">
        <ele>17.2</ele>
        <time>2023-05-02T11:19:00Z</time>
      </trkpt>
      <trkpt lat="49.12046" lon="-0.39639">
        <ele>17.2</ele>
        <time>2023-05-02T11:19:01Z</time>
      </trkpt>
      <trkpt lat="49.12042" lon="-0.39633">
        <ele>17.2</ele>
        <time>2023-05-02T11:19:02Z</time>
      </trkpt>
      <trkpt lat="49.12037" lon="-0.39626">
        <ele>17.2</ele>
        <time>2023-05-02T11:19:03Z</time>
      </trkpt>
      <trkpt lat="49.12032" lon="-0.39619">
        <ele>17.2</ele>
        <time>2023-05-02T11:19:04Z</time>
      </trkpt>
      <trkpt lat="49.12026" lon="-0.39611">
        <ele>17.2</ele>
        <time>2023-05-02T11:19:05Z</time>
      </trkpt>
      <trkpt lat="49.1202" lon="-0.39604">
        <ele>17.2</ele>
        <time>2023-05-02T11:19:06Z</time>
      </trkpt>
      <trkpt lat="49.12014" lon="-0.39596">
        <ele>17</ele>
        <time>2023-05-02T11:19:07Z</time>
      </trkpt>
      <trkpt lat="49.12009" lon="-0.39588">
        <ele>16.8</ele>
        <time>2023-05-02T11:19:08Z</time>
      </trkpt>
      <trkpt lat="49.12003" lon="-0.39581">
        <ele>16.8</ele>
        <time>2023-05-02T11:19:09Z</time>
      </trkpt>
      <trkpt lat="49.11999" lon="-0.39573">
        <ele>17</ele>
        <time>2023-05-02T11:19:10Z</time>
      </trkpt>
      <trkpt lat="49.11994" lon="-0.39567">
        <ele>17.2</ele>
        <time>2023-05-02T11:19:11Z</time>
      </trkpt>
      <trkpt lat="49.1199" lon="-0.3956">
        <ele>17.4</ele>
        <time>2023-05-02T11:19:12Z</time>
      </trkpt>
      <trkpt lat="49.11986" lon="-0.39554">
        <ele>17.6</ele>
        <time>2023-05-02T11:19:13Z</time>
      </trkpt>
      <trkpt lat="49.11981" lon="-0.39548">
        <ele>17.8</ele>
        <time>2023-05-02T11:19:14Z</time>
      </trkpt>
      <trkpt lat="49.11977" lon="-0.39541">
        <ele>17.8</ele>
        <time>2023-05-02T11:19:15Z</time>
      </trkpt>
      <trkpt lat="49.11972" lon="-0.39534">
        <ele>18</ele>
        <time>2023-05-02T11:19:16Z</time>
      </trkpt>
      <trkpt lat="49.11967" lon="-0.39527">
        <ele>18.2</ele>
        <time>2023-05-02T11:19:17Z</time>
      </trkpt>
      <trkpt lat="49.11962" lon="-0.39519">
        <ele>18.4</ele>
        <time>2023-05-02T11:19:18Z</time>
      </trkpt>
      <trkpt lat="49.11957" lon="-0.39512">
        <ele>18.6</ele>
        <time>2023-05-02T11:19:19Z</time>
      </trkpt>
      <trkpt lat="49.11951" lon="-0.39504">
        <ele>18.8</ele>
        <time>2023-05-02T11:19:20Z</time>
      </trkpt>
      <trkpt lat="49.11947" lon="-0.39496">
        <ele>18.8</ele>
        <time>2023-05-02T11:19:21Z</time>
      </trkpt>
      <trkpt lat="49.11942" lon="-0.39489">
        <ele>18.6</ele>
        <time>2023-05-02T11:19:22Z</time>
      </trkpt>
      <trkpt lat="49.11938" lon="-0.39482">
        <ele>18.6</ele>
        <time>2023-05-02T11:19:23Z</time>
      </trkpt>
      <trkpt lat="49.11934" lon="-0.39474">
        <ele>18.4</ele>
        <time>2023-05-02T11:19:24Z</time>
      </trkpt>
      <trkpt lat="49.11929" lon="-0.39467">
        <ele>18.2</ele>
        <time>2023-05-02T11:19:25Z</time>
      </trkpt>
      <trkpt lat="49.11924" lon="-0.3946">
        <ele>18.2</ele>
        <time>2023-05-02T11:19:26Z</time>
      </trkpt>
      <trkpt lat="49.1192" lon="-0.39452">
        <ele>18.2</ele>
        <time>2023-05-02T11:19:27Z</time>
      </trkpt>
      <trkpt lat="49.11915" lon="-0.39445">
        <ele>18.2</ele>
        <time>2023-05-02T11:19:28Z</time>
      </trkpt>
      <trkpt lat="49.1191" lon="-0.39438">
        <ele>18</ele>
        <time>2023-05-02T11:19:29Z</time>
      </trkpt>
      <trkpt lat="49.11905" lon="-0.3943">
        <ele>18</ele>
        <time>2023-05-02T11:19:30Z</time>
      </trkpt>
      <trkpt lat="49.119" lon="-0.39423">
        <ele>18</ele>
        <time>2023-05-02T11:19:31Z</time>
      </trkpt>
      <trkpt lat="49.11894" lon="-0.39416">
        <ele>18</ele>
        <time>2023-05-02T11:19:32Z</time>
      </trkpt>
      <trkpt lat="49.11889" lon="-0.39409">
        <ele>17.8</ele>
        <time>2023-05-02T11:19:33Z</time>
      </trkpt>
      <trkpt lat="49.11884" lon="-0.39401">
        <ele>17.6</ele>
        <time>2023-05-02T11:19:34Z</time>
      </trkpt>
      <trkpt lat="49.11879" lon="-0.39394">
        <ele>17.2</ele>
        <time>2023-05-02T11:19:35Z</time>
      </trkpt>
      <trkpt lat="49.11874" lon="-0.39386">
        <ele>17.2</ele>
        <time>2023-05-02T11:19:36Z</time>
      </trkpt>
      <trkpt lat="49.11868" lon="-0.39379">
        <ele>16.8</ele>
        <time>2023-05-02T11:19:37Z</time>
      </trkpt>
      <trkpt lat="49.11863" lon="-0.39371">
        <ele>16.8</ele>
        <time>2023-05-02T11:19:38Z</time>
      </trkpt>
      <trkpt lat="49.11858" lon="-0.39363">
        <ele>16.8</ele>
        <time>2023-05-02T11:19:39Z</time>
      </trkpt>
      <trkpt lat="49.11853" lon="-0.39355">
        <ele>16.6</ele>
        <time>2023-05-02T11:19:40Z</time>
      </trkpt>
      <trkpt lat="49.11848" lon="-0.39347">
        <ele>16.6</ele>
        <time>2023-05-02T11:19:41Z</time>
      </trkpt>
      <trkpt lat="49.11842" lon="-0.39339">
        <ele>16.6</ele>
        <time>2023-05-02T11:19:42Z</time>
      </trkpt>
      <trkpt lat="49.11837" lon="-0.39332">
        <ele>16.6</ele>
        <time>2023-05-02T11:19:43Z</time>
      </trkpt>
      <trkpt lat="49.11831" lon="-0.39324">
        <ele>16.6</ele>
        <time>2023-05-02T11:19:44Z</time>
      </trkpt>
      <trkpt lat="49.11826" lon="-0.39316">
        <ele>16.2</ele>
        <time>2023-05-02T11:19:45Z</time>
      </trkpt>
      <trkpt lat="49.1182" lon="-0.39308">
        <ele>15.6</ele>
        <time>2023-05-02T11:19:46Z</time>
      </trkpt>
      <trkpt lat="49.11814" lon="-0.393">
        <ele>15.4</ele>
        <time>2023-05-02T11:19:47Z</time>
      </trkpt>
      <trkpt lat="49.11808" lon="-0.39292">
        <ele>15</ele>
        <time>2023-05-02T11:19:48Z</time>
      </trkpt>
      <trkpt lat="49.11803" lon="-0.39284">
        <ele>14.6</ele>
        <time>2023-05-02T11:19:49Z</time>
      </trkpt>
      <trkpt lat="49.11797" lon="-0.39277">
        <ele>14.2</ele>
        <time>2023-05-02T11:19:50Z</time>
      </trkpt>
      <trkpt lat="49.11792" lon="-0.39269">
        <ele>13.8</ele>
        <time>2023-05-02T11:19:51Z</time>
      </trkpt>
      <trkpt lat="49.11786" lon="-0.39262">
        <ele>13.4</ele>
        <time>2023-05-02T11:19:52Z</time>
      </trkpt>
      <trkpt lat="49.11781" lon="-0.39255">
        <ele>13</ele>
        <time>2023-05-02T11:19:53Z</time>
      </trkpt>
      <trkpt lat="49.11776" lon="-0.39248">
        <ele>12.6</ele>
        <time>2023-05-02T11:19:54Z</time>
      </trkpt>
      <trkpt lat="49.11771" lon="-0.39241">
        <ele>12.2</ele>
        <time>2023-05-02T11:19:55Z</time>
      </trkpt>
      <trkpt lat="49.11767" lon="-0.39234">
        <ele>11.8</ele>
        <time>2023-05-02T11:19:56Z</time>
      </trkpt>
      <trkpt lat="49.11762" lon="-0.39228">
        <ele>11.6</ele>
        <time>2023-05-02T11:19:57Z</time>
      </trkpt>
      <trkpt lat="49.11757" lon="-0.39221">
        <ele>11.2</ele>
        <time>2023-05-02T11:19:58Z</time>
      </trkpt>
      <trkpt lat="49.11752" lon="-0.39215">
        <ele>10.8</ele>
        <time>2023-05-02T11:19:59Z</time>
      </trkpt>
      <trkpt lat="49.11747" lon="-0.39208">
        <ele>10.4</ele>
        <time>2023-05-02T11:20:00Z</time>
      </trkpt>
      <trkpt lat="49.11742" lon="-0.39202">
        <ele>10</ele>
        <time>2023-05-02T11:20:01Z</time>
      </trkpt>
      <trkpt lat="49.11736" lon="-0.39197">
        <ele>9.6</ele>
        <time>2023-05-02T11:20:02Z</time>
      </trkpt>
      <trkpt lat="49.11729" lon="-0.39192">
        <ele>9.2</ele>
        <time>2023-05-02T11:20:03Z</time>
      </trkpt>
      <trkpt lat="49.11723" lon="-0.39188">
        <ele>8.8</ele>
        <time>2023-05-02T11:20:04Z</time>
      </trkpt>
      <trkpt lat="49.11716" lon="-0.39183">
        <ele>8.4</ele>
        <time>2023-05-02T11:20:05Z</time>
      </trkpt>
      <trkpt lat="49.11709" lon="-0.39177">
        <ele>8</ele>
        <time>2023-05-02T11:20:06Z</time>
      </trkpt>
      <trkpt lat="49.11702" lon="-0.39171">
        <ele>7.6</ele>
        <time>2023-05-02T11:20:07Z</time>
      </trkpt>
      <trkpt lat="49.11695" lon="-0.39164">
        <ele>7.4</ele>
        <time>2023-05-02T11:20:08Z</time>
      </trkpt>
      <trkpt lat="49.11688" lon="-0.39157">
        <ele>7.2</ele>
        <time>2023-05-02T11:20:09Z</time>
      </trkpt>
      <trkpt lat="49.11681" lon="-0.3915">
        <ele>7</ele>
        <time>2023-05-02T11:20:10Z</time>
      </trkpt>
      <trkpt lat="49.11673" lon="-0.39142">
        <ele>7</ele>
        <time>2023-05-02T11:20:11Z</time>
      </trkpt>
      <trkpt lat="49.11666" lon="-0.39134">
        <ele>7</ele>
        <time>2023-05-02T11:20:12Z</time>
      </trkpt>
      <trkpt lat="49.11659" lon="-0.39127">
        <ele>7</ele>
        <time>2023-05-02T11:20:13Z</time>
      </trkpt>
      <trkpt lat="49.11651" lon="-0.39119">
        <ele>6.6</ele>
        <time>2023-05-02T11:20:14Z</time>
      </trkpt>
      <trkpt lat="49.11644" lon="-0.39111">
        <ele>6.6</ele>
        <time>2023-05-02T11:20:15Z</time>
      </trkpt>
      <trkpt lat="49.11636" lon="-0.39104">
        <ele>6.4</ele>
        <time>2023-05-02T11:20:16Z</time>
      </trkpt>
      <trkpt lat="49.11629" lon="-0.39096">
        <ele>6.2</ele>
        <time>2023-05-02T11:20:17Z</time>
      </trkpt>
      <trkpt lat="49.11622" lon="-0.39088">
        <ele>6</ele>
        <time>2023-05-02T11:20:18Z</time>
      </trkpt>
      <trkpt lat="49.11615" lon="-0.39081">
        <ele>5.6</ele>
        <time>2023-05-02T11:20:19Z</time>
      </trkpt>
      <trkpt lat="49.11608" lon="-0.39073">
        <ele>5.6</ele>
        <time>2023-05-02T11:20:20Z</time>
      </trkpt>
      <trkpt lat="49.11601" lon="-0.39066">
        <ele>5.2</ele>
        <time>2023-05-02T11:20:21Z</time>
      </trkpt>
      <trkpt lat="49.11595" lon="-0.39058">
        <ele>5</ele>
        <time>2023-05-02T11:20:22Z</time>
      </trkpt>
      <trkpt lat="49.11588" lon="-0.39051">
        <ele>4.6</ele>
        <time>2023-05-02T11:20:23Z</time>
      </trkpt>
      <trkpt lat="49.11582" lon="-0.39044">
        <ele>4.6</ele>
        <time>2023-05-02T11:20:24Z</time>
      </trkpt>
      <trkpt lat="49.11575" lon="-0.39037">
        <ele>4.6</ele>
        <time>2023-05-02T11:20:25Z</time>
      </trkpt>
      <trkpt lat="49.11569" lon="-0.3903">
        <ele>4.6</ele>
        <time>2023-05-02T11:20:26Z</time>
      </trkpt>
      <trkpt lat="49.11563" lon="-0.39024">
        <ele>4.8</ele>
        <time>2023-05-02T11:20:27Z</time>
      </trkpt>
      <trkpt lat="49.11556" lon="-0.39017">
        <ele>5</ele>
        <time>2023-05-02T11:20:28Z</time>
      </trkpt>
      <trkpt lat="49.1155" lon="-0.39011">
        <ele>5</ele>
        <time>2023-05-02T11:20:29Z</time>
      </trkpt>
      <trkpt lat="49.11544" lon="-0.39005">
        <ele>5</ele>
        <time>2023-05-02T11:20:30Z</time>
      </trkpt>
      <trkpt lat="49.11538" lon="-0.38999">
        <ele>5</ele>
        <time>2023-05-02T11:20:31Z</time>
      </trkpt>
      <trkpt lat="49.11533" lon="-0.38993">
        <ele>5.4</ele>
        <time>2023-05-02T11:20:32Z</time>
      </trkpt>
      <trkpt lat="49.11527" lon="-0.38988">
        <ele>5.6</ele>
        <time>2023-05-02T11:20:33Z</time>
      </trkpt>
      <trkpt lat="49.11522" lon="-0.38983">
        <ele>5.8</ele>
        <time>2023-05-02T11:20:34Z</time>
      </trkpt>
      <trkpt lat="49.11516" lon="-0.38978">
        <ele>6</ele>
        <time>2023-05-02T11:20:35Z</time>
      </trkpt>
      <trkpt lat="49.11511" lon="-0.38974">
        <ele>6.4</ele>
        <time>2023-05-02T11:20:36Z</time>
      </trkpt>
      <trkpt lat="49.11507" lon="-0.3897">
        <ele>6.6</ele>
        <time>2023-05-02T11:20:37Z</time>
      </trkpt>
      <trkpt lat="49.11503" lon="-0.38967">
        <ele>6.6</ele>
        <time>2023-05-02T11:20:38Z</time>
      </trkpt>
      <trkpt lat="49.115" lon="-0.38964">
        <ele>7</ele>
        <time>2023-05-02T11:20:39Z</time>
      </trkpt>
      <trkpt lat="49.11497" lon="-0.38962">
        <ele>7</ele>
        <time>2023-05-02T11:20:40Z</time>
      </trkpt>
      <trkpt lat="49.11494" lon="-0.38959">
        <ele>7</ele>
        <time>2023-05-02T11:20:41Z</time>
      </trkpt>
      <trkpt lat="49.11491" lon="-0.38956">
        <ele>7</ele>
        <time>2023-05-02T11:20:42Z</time>
      </trkpt>
      <trkpt lat="49.11488" lon="-0.38954">
        <ele>7.2</ele>
        <time>2023-05-02T11:20:43Z</time>
      </trkpt>
      <trkpt lat="49.11484" lon="-0.38952">
        <ele>7.2</ele>
        <time>2023-05-02T11:20:44Z</time>
      </trkpt>
      <trkpt lat="49.1148" lon="-0.3895">
        <ele>7.2</ele>
        <time>2023-05-02T11:20:45Z</time>
      </trkpt>
      <trkpt lat="49.11475" lon="-0.38947">
        <ele>7.4</ele>
        <time>2023-05-02T11:20:46Z</time>
      </trkpt>
      <trkpt lat="49.1147" lon="-0.38944">
        <ele>7.4</ele>
        <time>2023-05-02T11:20:47Z</time>
      </trkpt>
      <trkpt lat="49.11464" lon="-0.38939">
        <ele>7.4</ele>
        <time>2023-05-02T11:20:48Z</time>
      </trkpt>
      <trkpt lat="49.11458" lon="-0.38936">
        <ele>7.4</ele>
        <time>2023-05-02T11:20:49Z</time>
      </trkpt>
      <trkpt lat="49.11452" lon="-0.38933">
        <ele>7.4</ele>
        <time>2023-05-02T11:20:50Z</time>
      </trkpt>
      <trkpt lat="49.11446" lon="-0.38931">
        <ele>7.4</ele>
        <time>2023-05-02T11:20:51Z</time>
      </trkpt>
      <trkpt lat="49.11439" lon="-0.38928">
        <ele>7.4</ele>
        <time>2023-05-02T11:20:52Z</time>
      </trkpt>
      <trkpt lat="49.11433" lon="-0.38926">
        <ele>7.2</ele>
        <time>2023-05-02T11:20:53Z</time>
      </trkpt>
      <trkpt lat="49.11427" lon="-0.38923">
        <ele>7.2</ele>
        <time>2023-05-02T11:20:54Z</time>
      </trkpt>
      <trkpt lat="49.11422" lon="-0.38919">
        <ele>7</ele>
        <time>2023-05-02T11:20:55Z</time>
      </trkpt>
      <trkpt lat="49.11416" lon="-0.38915">
        <ele>7</ele>
        <time>2023-05-02T11:20:56Z</time>
      </trkpt>
      <trkpt lat="49.11411" lon="-0.3891">
        <ele>7</ele>
        <time>2023-05-02T11:20:57Z</time>
      </trkpt>
      <trkpt lat="49.11405" lon="-0.38906">
        <ele>7.4</ele>
        <time>2023-05-02T11:20:58Z</time>
      </trkpt>
      <trkpt lat="49.114" lon="-0.38901">
        <ele>7.4</ele>
        <time>2023-05-02T11:20:59Z</time>
      </trkpt>
      <trkpt lat="49.11394" lon="-0.38896">
        <ele>7.6</ele>
        <time>2023-05-02T11:21:00Z</time>
      </trkpt>
      <trkpt lat="49.11389" lon="-0.38891">
        <ele>7.6</ele>
        <time>2023-05-02T11:21:01Z</time>
      </trkpt>
      <trkpt lat="49.11383" lon="-0.38886">
        <ele>7.6</ele>
        <time>2023-05-02T11:21:02Z</time>
      </trkpt>
      <trkpt lat="49.11377" lon="-0.38882">
        <ele>7.6</ele>
        <time>2023-05-02T11:21:03Z</time>
      </trkpt>
      <trkpt lat="49.11371" lon="-0.38877">
        <ele>7.8</ele>
        <time>2023-05-02T11:21:04Z</time>
      </trkpt>
      <trkpt lat="49.11366" lon="-0.38873">
        <ele>8</ele>
        <time>2023-05-02T11:21:05Z</time>
      </trkpt>
      <trkpt lat="49.1136" lon="-0.38868">
        <ele>8</ele>
        <time>2023-05-02T11:21:06Z</time>
      </trkpt>
      <trkpt lat="49.11354" lon="-0.38863">
        <ele>8</ele>
        <time>2023-05-02T11:21:07Z</time>
      </trkpt>
      <trkpt lat="49.11348" lon="-0.38859">
        <ele>8.2</ele>
        <time>2023-05-02T11:21:08Z</time>
      </trkpt>
      <trkpt lat="49.11342" lon="-0.38854">
        <ele>8.2</ele>
        <time>2023-05-02T11:21:09Z</time>
      </trkpt>
      <trkpt lat="49.11337" lon="-0.38849">
        <ele>8.2</ele>
        <time>2023-05-02T11:21:10Z</time>
      </trkpt>
      <trkpt lat="49.11331" lon="-0.38843">
        <ele>8.2</ele>
        <time>2023-05-02T11:21:11Z</time>
      </trkpt>
      <trkpt lat="49.11325" lon="-0.38838">
        <ele>8.2</ele>
        <time>2023-05-02T11:21:12Z</time>
      </trkpt>
      <trkpt lat="49.1132" lon="-0.38832">
        <ele>8</ele>
        <time>2023-05-02T11:21:13Z</time>
      </trkpt>
      <trkpt lat="49.11314" lon="-0.38826">
        <ele>8</ele>
        <time>2023-05-02T11:21:14Z</time>
      </trkpt>
      <trkpt lat="49.11308" lon="-0.38821">
        <ele>8</ele>
        <time>2023-05-02T11:21:15Z</time>
      </trkpt>
      <trkpt lat="49.11302" lon="-0.38815">
        <ele>8</ele>
        <time>2023-05-02T11:21:16Z</time>
      </trkpt>
      <trkpt lat="49.11297" lon="-0.3881">
        <ele>8</ele>
        <time>2023-05-02T11:21:17Z</time>
      </trkpt>
      <trkpt lat="49.11291" lon="-0.38805">
        <ele>8</ele>
        <time>2023-05-02T11:21:18Z</time>
      </trkpt>
      <trkpt lat="49.11285" lon="-0.38801">
        <ele>8.2</ele>
        <time>2023-05-02T11:21:19Z</time>
      </trkpt>
      <trkpt lat="49.11279" lon="-0.38796">
        <ele>8.2</ele>
        <time>2023-05-02T11:21:20Z</time>
      </trkpt>
      <trkpt lat="49.11273" lon="-0.38792">
        <ele>8.2</ele>
        <time>2023-05-02T11:21:21Z</time>
      </trkpt>
      <trkpt lat="49.11267" lon="-0.38787">
        <ele>8.4</ele>
        <time>2023-05-02T11:21:22Z</time>
      </trkpt>
      <trkpt lat="49.11261" lon="-0.38783">
        <ele>8.4</ele>
        <time>2023-05-02T11:21:23Z</time>
      </trkpt>
      <trkpt lat="49.11255" lon="-0.38778">
        <ele>8.6</ele>
        <time>2023-05-02T11:21:24Z</time>
      </trkpt>
      <trkpt lat="49.11249" lon="-0.38774">
        <ele>8.6</ele>
        <time>2023-05-02T11:21:25Z</time>
      </trkpt>
      <trkpt lat="49.11243" lon="-0.38769">
        <ele>8.8</ele>
        <time>2023-05-02T11:21:26Z</time>
      </trkpt>
      <trkpt lat="49.11237" lon="-0.38765">
        <ele>8.8</ele>
        <time>2023-05-02T11:21:27Z</time>
      </trkpt>
      <trkpt lat="49.11231" lon="-0.38761">
        <ele>8.8</ele>
        <time>2023-05-02T11:21:28Z</time>
      </trkpt>
      <trkpt lat="49.11225" lon="-0.38756">
        <ele>8.8</ele>
        <time>2023-05-02T11:21:29Z</time>
      </trkpt>
      <trkpt lat="49.11218" lon="-0.38752">
        <ele>9</ele>
        <time>2023-05-02T11:21:30Z</time>
      </trkpt>
      <trkpt lat="49.11212" lon="-0.38748">
        <ele>9</ele>
        <time>2023-05-02T11:21:31Z</time>
      </trkpt>
      <trkpt lat="49.11206" lon="-0.38744">
        <ele>9</ele>
        <time>2023-05-02T11:21:32Z</time>
      </trkpt>
      <trkpt lat="49.112" lon="-0.3874">
        <ele>9</ele>
        <time>2023-05-02T11:21:33Z</time>
      </trkpt>
      <trkpt lat="49.11194" lon="-0.38736">
        <ele>9</ele>
        <time>2023-05-02T11:21:34Z</time>
      </trkpt>
      <trkpt lat="49.11187" lon="-0.38732">
        <ele>9</ele>
        <time>2023-05-02T11:21:35Z</time>
      </trkpt>
      <trkpt lat="49.11181" lon="-0.38728">
        <ele>9</ele>
        <time>2023-05-02T11:21:36Z</time>
      </trkpt>
      <trkpt lat="49.11175" lon="-0.38725">
        <ele>9</ele>
        <time>2023-05-02T11:21:37Z</time>
      </trkpt>
      <trkpt lat="49.11168" lon="-0.38721">
        <ele>9</ele>
        <time>2023-05-02T11:21:38Z</time>
      </trkpt>
      <trkpt lat="49.11162" lon="-0.38718">
        <ele>9</ele>
        <time>2023-05-02T11:21:39Z</time>
      </trkpt>
      <trkpt lat="49.11155" lon="-0.38715">
        <ele>9</ele>
        <time>2023-05-02T11:21:40Z</time>
      </trkpt>
      <trkpt lat="49.11149" lon="-0.38711">
        <ele>8.8</ele>
        <time>2023-05-02T11:21:41Z</time>
      </trkpt>
      <trkpt lat="49.11142" lon="-0.38708">
        <ele>8.8</ele>
        <time>2023-05-02T11:21:42Z</time>
      </trkpt>
      <trkpt lat="49.11136" lon="-0.38705">
        <ele>8.8</ele>
        <time>2023-05-02T11:21:43Z</time>
      </trkpt>
      <trkpt lat="49.11129" lon="-0.38702">
        <ele>8.6</ele>
        <time>2023-05-02T11:21:44Z</time>
      </trkpt>
      <trkpt lat="49.11122" lon="-0.38698">
        <ele>8.6</ele>
        <time>2023-05-02T11:21:45Z</time>
      </trkpt>
      <trkpt lat="49.11116" lon="-0.38695">
        <ele>8.4</ele>
        <time>2023-05-02T11:21:46Z</time>
      </trkpt>
      <trkpt lat="49.11109" lon="-0.38692">
        <ele>8.2</ele>
        <time>2023-05-02T11:21:47Z</time>
      </trkpt>
      <trkpt lat="49.11102" lon="-0.38689">
        <ele>8.2</ele>
        <time>2023-05-02T11:21:48Z</time>
      </trkpt>
      <trkpt lat="49.11096" lon="-0.38686">
        <ele>8</ele>
        <time>2023-05-02T11:21:49Z</time>
      </trkpt>
      <trkpt lat="49.11089" lon="-0.38682">
        <ele>7.6</ele>
        <time>2023-05-02T11:21:50Z</time>
      </trkpt>
      <trkpt lat="49.11082" lon="-0.38679">
        <ele>7.6</ele>
        <time>2023-05-02T11:21:51Z</time>
      </trkpt>
      <trkpt lat="49.11075" lon="-0.38677">
        <ele>7.8</ele>
        <time>2023-05-02T11:21:52Z</time>
      </trkpt>
      <trkpt lat="49.11069" lon="-0.38674">
        <ele>8</ele>
        <time>2023-05-02T11:21:53Z</time>
      </trkpt>
      <trkpt lat="49.11062" lon="-0.38672">
        <ele>8.4</ele>
        <time>2023-05-02T11:21:54Z</time>
      </trkpt>
      <trkpt lat="49.11056" lon="-0.38668">
        <ele>8.4</ele>
        <time>2023-05-02T11:21:55Z</time>
      </trkpt>
      <trkpt lat="49.1105" lon="-0.38664">
        <ele>8.6</ele>
        <time>2023-05-02T11:21:56Z</time>
      </trkpt>
      <trkpt lat="49.11044" lon="-0.38659">
        <ele>8.6</ele>
        <time>2023-05-02T11:21:57Z</time>
      </trkpt>
      <trkpt lat="49.11038" lon="-0.38654">
        <ele>8.8</ele>
        <time>2023-05-02T11:21:58Z</time>
      </trkpt>
      <trkpt lat="49.11032" lon="-0.38648">
        <ele>8.8</ele>
        <time>2023-05-02T11:21:59Z</time>
      </trkpt>
      <trkpt lat="49.11027" lon="-0.38642">
        <ele>8.8</ele>
        <time>2023-05-02T11:22:00Z</time>
      </trkpt>
      <trkpt lat="49.11021" lon="-0.38637">
        <ele>8.8</ele>
        <time>2023-05-02T11:22:01Z</time>
      </trkpt>
      <trkpt lat="49.11015" lon="-0.38633">
        <ele>8.8</ele>
        <time>2023-05-02T11:22:02Z</time>
      </trkpt>
      <trkpt lat="49.11009" lon="-0.3863">
        <ele>8.8</ele>
        <time>2023-05-02T11:22:03Z</time>
      </trkpt>
      <trkpt lat="49.11003" lon="-0.38627">
        <ele>9</ele>
        <time>2023-05-02T11:22:04Z</time>
      </trkpt>
      <trkpt lat="49.10997" lon="-0.38625">
        <ele>9.2</ele>
        <time>2023-05-02T11:22:05Z</time>
      </trkpt>
      <trkpt lat="49.10991" lon="-0.38623">
        <ele>9.4</ele>
        <time>2023-05-02T11:22:06Z</time>
      </trkpt>
      <trkpt lat="49.10984" lon="-0.38621">
        <ele>9.6</ele>
        <time>2023-05-02T11:22:07Z</time>
      </trkpt>
      <trkpt lat="49.10978" lon="-0.38619">
        <ele>9.6</ele>
        <time>2023-05-02T11:22:08Z</time>
      </trkpt>
      <trkpt lat="49.10972" lon="-0.38617">
        <ele>9.8</ele>
        <time>2023-05-02T11:22:09Z</time>
      </trkpt>
      <trkpt lat="49.10966" lon="-0.38615">
        <ele>10.2</ele>
        <time>2023-05-02T11:22:10Z</time>
      </trkpt>
      <trkpt lat="49.1096" lon="-0.38612">
        <ele>10.2</ele>
        <time>2023-05-02T11:22:11Z</time>
      </trkpt>
      <trkpt lat="49.10953" lon="-0.3861">
        <ele>10.4</ele>
        <time>2023-05-02T11:22:12Z</time>
      </trkpt>
      <trkpt lat="49.10946" lon="-0.38607">
        <ele>10.6</ele>
        <time>2023-05-02T11:22:13Z</time>
      </trkpt>
      <trkpt lat="49.10939" lon="-0.38605">
        <ele>10.6</ele>
        <time>2023-05-02T11:22:14Z</time>
      </trkpt>
      <trkpt lat="49.10933" lon="-0.38602">
        <ele>10.6</ele>
        <time>2023-05-02T11:22:15Z</time>
      </trkpt>
      <trkpt lat="49.10926" lon="-0.38598">
        <ele>10.6</ele>
        <time>2023-05-02T11:22:16Z</time>
      </trkpt>
      <trkpt lat="49.1092" lon="-0.38594">
        <ele>10.6</ele>
        <time>2023-05-02T11:22:17Z</time>
      </trkpt>
      <trkpt lat="49.10914" lon="-0.38591">
        <ele>10.6</ele>
        <time>2023-05-02T11:22:18Z</time>
      </trkpt>
      <trkpt lat="49.10907" lon="-0.38587">
        <ele>10.6</ele>
        <time>2023-05-02T11:22:19Z</time>
      </trkpt>
      <trkpt lat="49.109" lon="-0.38584">
        <ele>10.6</ele>
        <time>2023-05-02T11:22:20Z</time>
      </trkpt>
      <trkpt lat="49.10892" lon="-0.38582">
        <ele>10.8</ele>
        <time>2023-05-02T11:22:21Z</time>
      </trkpt>
      <trkpt lat="49.10885" lon="-0.3858">
        <ele>11</ele>
        <time>2023-05-02T11:22:22Z</time>
      </trkpt>
      <trkpt lat="49.10878" lon="-0.38578">
        <ele>11.2</ele>
        <time>2023-05-02T11:22:23Z</time>
      </trkpt>
      <trkpt lat="49.10871" lon="-0.38576">
        <ele>11.4</ele>
        <time>2023-05-02T11:22:24Z</time>
      </trkpt>
      <trkpt lat="49.10864" lon="-0.38574">
        <ele>11.6</ele>
        <time>2023-05-02T11:22:25Z</time>
      </trkpt>
      <trkpt lat="49.10857" lon="-0.38573">
        <ele>11.6</ele>
        <time>2023-05-02T11:22:26Z</time>
      </trkpt>
      <trkpt lat="49.1085" lon="-0.38571">
        <ele>11.6</ele>
        <time>2023-05-02T11:22:27Z</time>
      </trkpt>
      <trkpt lat="49.10844" lon="-0.3857">
        <ele>11.8</ele>
        <time>2023-05-02T11:22:28Z</time>
      </trkpt>
      <trkpt lat="49.10837" lon="-0.38568">
        <ele>12</ele>
        <time>2023-05-02T11:22:29Z</time>
      </trkpt>
      <trkpt lat="49.10831" lon="-0.38567">
        <ele>12.2</ele>
        <time>2023-05-02T11:22:30Z</time>
      </trkpt>
      <trkpt lat="49.10824" lon="-0.38566">
        <ele>12.2</ele>
        <time>2023-05-02T11:22:31Z</time>
      </trkpt>
      <trkpt lat="49.10818" lon="-0.38564">
        <ele>12.4</ele>
        <time>2023-05-02T11:22:32Z</time>
      </trkpt>
      <trkpt lat="49.10812" lon="-0.38563">
        <ele>12.4</ele>
        <time>2023-05-02T11:22:33Z</time>
      </trkpt>
      <trkpt lat="49.10806" lon="-0.38562">
        <ele>12.6</ele>
        <time>2023-05-02T11:22:34Z</time>
      </trkpt>
      <trkpt lat="49.108" lon="-0.38561">
        <ele>12.6</ele>
        <time>2023-05-02T11:22:35Z</time>
      </trkpt>
      <trkpt lat="49.10794" lon="-0.3856">
        <ele>12.6</ele>
        <time>2023-05-02T11:22:36Z</time>
      </trkpt>
      <trkpt lat="49.10787" lon="-0.38558">
        <ele>12.8</ele>
        <time>2023-05-02T11:22:37Z</time>
      </trkpt>
      <trkpt lat="49.10781" lon="-0.38558">
        <ele>13</ele>
        <time>2023-05-02T11:22:38Z</time>
      </trkpt>
      <trkpt lat="49.10774" lon="-0.38557">
        <ele>13.2</ele>
        <time>2023-05-02T11:22:39Z</time>
      </trkpt>
      <trkpt lat="49.10767" lon="-0.38556">
        <ele>13.2</ele>
        <time>2023-05-02T11:22:40Z</time>
      </trkpt>
      <trkpt lat="49.1076" lon="-0.38555">
        <ele>13.4</ele>
        <time>2023-05-02T11:22:41Z</time>
      </trkpt>
      <trkpt lat="49.10753" lon="-0.38554">
        <ele>13.4</ele>
        <time>2023-05-02T11:22:42Z</time>
      </trkpt>
      <trkpt lat="49.10745" lon="-0.38552">
        <ele>13.6</ele>
        <time>2023-05-02T11:22:43Z</time>
      </trkpt>
      <trkpt lat="49.10738" lon="-0.3855">
        <ele>13.4</ele>
        <time>2023-05-02T11:22:44Z</time>
      </trkpt>
      <trkpt lat="49.10731" lon="-0.38548">
        <ele>13.4</ele>
        <time>2023-05-02T11:22:45Z</time>
      </trkpt>
      <trkpt lat="49.10724" lon="-0.38545">
        <ele>13.2</ele>
        <time>2023-05-02T11:22:46Z</time>
      </trkpt>
      <trkpt lat="49.10717" lon="-0.38541">
        <ele>12.8</ele>
        <time>2023-05-02T11:22:47Z</time>
      </trkpt>
      <trkpt lat="49.1071" lon="-0.38537">
        <ele>12.6</ele>
        <time>2023-05-02T11:22:48Z</time>
      </trkpt>
      <trkpt lat="49.10704" lon="-0.38533">
        <ele>12.2</ele>
        <time>2023-05-02T11:22:49Z</time>
      </trkpt>
      <trkpt lat="49.10697" lon="-0.38529">
        <ele>11.8</ele>
        <time>2023-05-02T11:22:50Z</time>
      </trkpt>
      <trkpt lat="49.10691" lon="-0.38525">
        <ele>11.6</ele>
        <time>2023-05-02T11:22:51Z</time>
      </trkpt>
      <trkpt lat="49.10684" lon="-0.38521">
        <ele>11.2</ele>
        <time>2023-05-02T11:22:52Z</time>
      </trkpt>
      <trkpt lat="49.10678" lon="-0.38518">
        <ele>10.8</ele>
        <time>2023-05-02T11:22:53Z</time>
      </trkpt>
      <trkpt lat="49.10672" lon="-0.38516">
        <ele>10.6</ele>
        <time>2023-05-02T11:22:54Z</time>
      </trkpt>
      <trkpt lat="49.10666" lon="-0.38514">
        <ele>10.6</ele>
        <time>2023-05-02T11:22:55Z</time>
      </trkpt>
      <trkpt lat="49.1066" lon="-0.38512">
        <ele>10.4</ele>
        <time>2023-05-02T11:22:56Z</time>
      </trkpt>
      <trkpt lat="49.10653" lon="-0.38511">
        <ele>10.2</ele>
        <time>2023-05-02T11:22:57Z</time>
      </trkpt>
      <trkpt lat="49.10647" lon="-0.38509">
        <ele>10.2</ele>
        <time>2023-05-02T11:22:58Z</time>
      </trkpt>
      <trkpt lat="49.10641" lon="-0.38507">
        <ele>10</ele>
        <time>2023-05-02T11:22:59Z</time>
      </trkpt>
      <trkpt lat="49.10635" lon="-0.38505">
        <ele>9.8</ele>
        <time>2023-05-02T11:23:00Z</time>
      </trkpt>
      <trkpt lat="49.10628" lon="-0.38502">
        <ele>9.6</ele>
        <time>2023-05-02T11:23:01Z</time>
      </trkpt>
      <trkpt lat="49.10622" lon="-0.385">
        <ele>9.6</ele>
        <time>2023-05-02T11:23:02Z</time>
      </trkpt>
      <trkpt lat="49.10616" lon="-0.38497">
        <ele>9.6</ele>
        <time>2023-05-02T11:23:03Z</time>
      </trkpt>
      <trkpt lat="49.10609" lon="-0.38495">
        <ele>9.6</ele>
        <time>2023-05-02T11:23:04Z</time>
      </trkpt>
      <trkpt lat="49.10603" lon="-0.38492">
        <ele>9.6</ele>
        <time>2023-05-02T11:23:05Z</time>
      </trkpt>
      <trkpt lat="49.10597" lon="-0.38491">
        <ele>9.6</ele>
        <time>2023-05-02T11:23:06Z</time>
      </trkpt>
      <trkpt lat="49.1059" lon="-0.38491">
        <ele>9.8</ele>
        <time>2023-05-02T11:23:07Z</time>
      </trkpt>
      <trkpt lat="49.10584" lon="-0.38492">
        <ele>9.8</ele>
        <time>2023-05-02T11:23:08Z</time>
      </trkpt>
      <trkpt lat="49.10578" lon="-0.38493">
        <ele>10</ele>
        <time>2023-05-02T11:23:09Z</time>
      </trkpt>
      <trkpt lat="49.10571" lon="-0.38493">
        <ele>10.2</ele>
        <time>2023-05-02T11:23:10Z</time>
      </trkpt>
      <trkpt lat="49.10565" lon="-0.38493">
        <ele>10.2</ele>
        <time>2023-05-02T11:23:11Z</time>
      </trkpt>
      <trkpt lat="49.10558" lon="-0.38493">
        <ele>10.4</ele>
        <time>2023-05-02T11:23:12Z</time>
      </trkpt>
      <trkpt lat="49.10552" lon="-0.38491">
        <ele>10.4</ele>
        <time>2023-05-02T11:23:13Z</time>
      </trkpt>
      <trkpt lat="49.10545" lon="-0.38489">
        <ele>10.4</ele>
        <time>2023-05-02T11:23:14Z</time>
      </trkpt>
      <trkpt lat="49.10539" lon="-0.38487">
        <ele>10.6</ele>
        <time>2023-05-02T11:23:15Z</time>
      </trkpt>
      <trkpt lat="49.10532" lon="-0.38483">
        <ele>10.6</ele>
        <time>2023-05-02T11:23:16Z</time>
      </trkpt>
      <trkpt lat="49.10526" lon="-0.3848">
        <ele>10.8</ele>
        <time>2023-05-02T11:23:17Z</time>
      </trkpt>
      <trkpt lat="49.10519" lon="-0.38478">
        <ele>10.8</ele>
        <time>2023-05-02T11:23:18Z</time>
      </trkpt>
      <trkpt lat="49.10512" lon="-0.38477">
        <ele>11.2</ele>
        <time>2023-05-02T11:23:19Z</time>
      </trkpt>
      <trkpt lat="49.10506" lon="-0.38477">
        <ele>11.2</ele>
        <time>2023-05-02T11:23:20Z</time>
      </trkpt>
      <trkpt lat="49.10499" lon="-0.38478">
        <ele>11.4</ele>
        <time>2023-05-02T11:23:21Z</time>
      </trkpt>
      <trkpt lat="49.10492" lon="-0.38479">
        <ele>11.2</ele>
        <time>2023-05-02T11:23:22Z</time>
      </trkpt>
      <trkpt lat="49.10486" lon="-0.3848">
        <ele>11.2</ele>
        <time>2023-05-02T11:23:23Z</time>
      </trkpt>
      <trkpt lat="49.10479" lon="-0.38482">
        <ele>11.2</ele>
        <time>2023-05-02T11:23:24Z</time>
      </trkpt>
      <trkpt lat="49.10473" lon="-0.38482">
        <ele>11</ele>
        <time>2023-05-02T11:23:25Z</time>
      </trkpt>
      <trkpt lat="49.10466" lon="-0.38481">
        <ele>11</ele>
        <time>2023-05-02T11:23:26Z</time>
      </trkpt>
      <trkpt lat="49.10459" lon="-0.3848">
        <ele>11</ele>
        <time>2023-05-02T11:23:27Z</time>
      </trkpt>
      <trkpt lat="49.10452" lon="-0.38479">
        <ele>11</ele>
        <time>2023-05-02T11:23:28Z</time>
      </trkpt>
      <trkpt lat="49.10446" lon="-0.3848">
        <ele>10.8</ele>
        <time>2023-05-02T11:23:29Z</time>
      </trkpt>
      <trkpt lat="49.10439" lon="-0.38482">
        <ele>10.8</ele>
        <time>2023-05-02T11:23:30Z</time>
      </trkpt>
      <trkpt lat="49.10433" lon="-0.38486">
        <ele>10.6</ele>
        <time>2023-05-02T11:23:31Z</time>
      </trkpt>
      <trkpt lat="49.10427" lon="-0.38492">
        <ele>10.4</ele>
        <time>2023-05-02T11:23:32Z</time>
      </trkpt>
      <trkpt lat="49.10422" lon="-0.38498">
        <ele>10.2</ele>
        <time>2023-05-02T11:23:33Z</time>
      </trkpt>
      <trkpt lat="49.10416" lon="-0.38505">
        <ele>10.2</ele>
        <time>2023-05-02T11:23:34Z</time>
      </trkpt>
      <trkpt lat="49.10411" lon="-0.38512">
        <ele>10.6</ele>
        <time>2023-05-02T11:23:35Z</time>
      </trkpt>
      <trkpt lat="49.10405" lon="-0.38518">
        <ele>10.8</ele>
        <time>2023-05-02T11:23:36Z</time>
      </trkpt>
      <trkpt lat="49.10399" lon="-0.38524">
        <ele>11.2</ele>
        <time>2023-05-02T11:23:37Z</time>
      </trkpt>
      <trkpt lat="49.10393" lon="-0.38529">
        <ele>11.4</ele>
        <time>2023-05-02T11:23:38Z</time>
      </trkpt>
      <trkpt lat="49.10387" lon="-0.38533">
        <ele>11.6</ele>
        <time>2023-05-02T11:23:39Z</time>
      </trkpt>
      <trkpt lat="49.1038" lon="-0.38537">
        <ele>11.6</ele>
        <time>2023-05-02T11:23:40Z</time>
      </trkpt>
      <trkpt lat="49.10373" lon="-0.3854">
        <ele>11.6</ele>
        <time>2023-05-02T11:23:41Z</time>
      </trkpt>
      <trkpt lat="49.10366" lon="-0.38543">
        <ele>11.8</ele>
        <time>2023-05-02T11:23:42Z</time>
      </trkpt>
      <trkpt lat="49.10359" lon="-0.38546">
        <ele>11.8</ele>
        <time>2023-05-02T11:23:43Z</time>
      </trkpt>
      <trkpt lat="49.10353" lon="-0.38549">
        <ele>11.8</ele>
        <time>2023-05-02T11:23:44Z</time>
      </trkpt>
      <trkpt lat="49.10346" lon="-0.38553">
        <ele>12</ele>
        <time>2023-05-02T11:23:45Z</time>
      </trkpt>
      <trkpt lat="49.10339" lon="-0.38557">
        <ele>12</ele>
        <time>2023-05-02T11:23:46Z</time>
      </trkpt>
      <trkpt lat="49.10332" lon="-0.38561">
        <ele>12</ele>
        <time>2023-05-02T11:23:47Z</time>
      </trkpt>
      <trkpt lat="49.10325" lon="-0.38565">
        <ele>11.8</ele>
        <time>2023-05-02T11:23:48Z</time>
      </trkpt>
      <trkpt lat="49.10318" lon="-0.38569">
        <ele>11.6</ele>
        <time>2023-05-02T11:23:49Z</time>
      </trkpt>
      <trkpt lat="49.10311" lon="-0.38572">
        <ele>11.6</ele>
        <time>2023-05-02T11:23:50Z</time>
      </trkpt>
      <trkpt lat="49.10304" lon="-0.38576">
        <ele>11.4</ele>
        <time>2023-05-02T11:23:51Z</time>
      </trkpt>
      <trkpt lat="49.10296" lon="-0.3858">
        <ele>11.2</ele>
        <time>2023-05-02T11:23:52Z</time>
      </trkpt>
      <trkpt lat="49.10289" lon="-0.38584">
        <ele>11</ele>
        <time>2023-05-02T11:23:53Z</time>
      </trkpt>
      <trkpt lat="49.10282" lon="-0.38589">
        <ele>11</ele>
        <time>2023-05-02T11:23:54Z</time>
      </trkpt>
      <trkpt lat="49.10276" lon="-0.38594">
        <ele>11</ele>
        <time>2023-05-02T11:23:55Z</time>
      </trkpt>
      <trkpt lat="49.10269" lon="-0.386">
        <ele>11</ele>
        <time>2023-05-02T11:23:56Z</time>
      </trkpt>
      <trkpt lat="49.10262" lon="-0.38606">
        <ele>11</ele>
        <time>2023-05-02T11:23:57Z</time>
      </trkpt>
      <trkpt lat="49.10255" lon="-0.38611">
        <ele>10.8</ele>
        <time>2023-05-02T11:23:58Z</time>
      </trkpt>
      <trkpt lat="49.10248" lon="-0.38617">
        <ele>10.8</ele>
        <time>2023-05-02T11:23:59Z</time>
      </trkpt>
      <trkpt lat="49.10241" lon="-0.38623">
        <ele>11</ele>
        <time>2023-05-02T11:24:00Z</time>
      </trkpt>
      <trkpt lat="49.10235" lon="-0.38628">
        <ele>11.2</ele>
        <time>2023-05-02T11:24:01Z</time>
      </trkpt>
      <trkpt lat="49.10228" lon="-0.38634">
        <ele>11.2</ele>
        <time>2023-05-02T11:24:02Z</time>
      </trkpt>
      <trkpt lat="49.10222" lon="-0.3864">
        <ele>11.2</ele>
        <time>2023-05-02T11:24:03Z</time>
      </trkpt>
      <trkpt lat="49.10215" lon="-0.38645">
        <ele>11</ele>
        <time>2023-05-02T11:24:04Z</time>
      </trkpt>
      <trkpt lat="49.10209" lon="-0.38651">
        <ele>10.8</ele>
        <time>2023-05-02T11:24:05Z</time>
      </trkpt>
      <trkpt lat="49.10202" lon="-0.38657">
        <ele>10.6</ele>
        <time>2023-05-02T11:24:06Z</time>
      </trkpt>
      <trkpt lat="49.10196" lon="-0.38662">
        <ele>10.2</ele>
        <time>2023-05-02T11:24:07Z</time>
      </trkpt>
      <trkpt lat="49.10189" lon="-0.38668">
        <ele>9.8</ele>
        <time>2023-05-02T11:24:08Z</time>
      </trkpt>
      <trkpt lat="49.10181" lon="-0.38673">
        <ele>9.8</ele>
        <time>2023-05-02T11:24:09Z</time>
      </trkpt>
      <trkpt lat="49.10175" lon="-0.38679">
        <ele>9.8</ele>
        <time>2023-05-02T11:24:10Z</time>
      </trkpt>
      <trkpt lat="49.10169" lon="-0.38686">
        <ele>9.8</ele>
        <time>2023-05-02T11:24:11Z</time>
      </trkpt>
      <trkpt lat="49.10165" lon="-0.38695">
        <ele>10</ele>
        <time>2023-05-02T11:24:12Z</time>
      </trkpt>
      <trkpt lat="49.10163" lon="-0.38704">
        <ele>10.4</ele>
        <time>2023-05-02T11:24:13Z</time>
      </trkpt>
      <trkpt lat="49.10163" lon="-0.38712">
        <ele>10.6</ele>
        <time>2023-05-02T11:24:14Z</time>
      </trkpt>
      <trkpt lat="49.10163" lon="-0.38719">
        <ele>10.8</ele>
        <time>2023-05-02T11:24:15Z</time>
      </trkpt>
      <trkpt lat="49.10163" lon="-0.38725">
        <ele>11</ele>
        <time>2023-05-02T11:24:16Z</time>
      </trkpt>
      <trkpt lat="49.1016" lon="-0.3873">
        <ele>11.2</ele>
        <time>2023-05-02T11:24:17Z</time>
      </trkpt>
      <trkpt lat="49.10156" lon="-0.38734">
        <ele>11.2</ele>
        <time>2023-05-02T11:24:18Z</time>
      </trkpt>
      <trkpt lat="49.10152" lon="-0.38738">
        <ele>11</ele>
        <time>2023-05-02T11:24:19Z</time>
      </trkpt>
      <trkpt lat="49.10147" lon="-0.38741">
        <ele>10.8</ele>
        <time>2023-05-02T11:24:20Z</time>
      </trkpt>
      <trkpt lat="49.10142" lon="-0.38746">
        <ele>10.8</ele>
        <time>2023-05-02T11:24:21Z</time>
      </trkpt>
      <trkpt lat="49.10136" lon="-0.38751">
        <ele>10.6</ele>
        <time>2023-05-02T11:24:22Z</time>
      </trkpt>
      <trkpt lat="49.1013" lon="-0.38758">
        <ele>10.6</ele>
        <time>2023-05-02T11:24:23Z</time>
      </trkpt>
      <trkpt lat="49.10125" lon="-0.38764">
        <ele>10.6</ele>
        <time>2023-05-02T11:24:24Z</time>
      </trkpt>
      <trkpt lat="49.10119" lon="-0.38771">
        <ele>10.4</ele>
        <time>2023-05-02T11:24:25Z</time>
      </trkpt>
      <trkpt lat="49.10113" lon="-0.38778">
        <ele>10.4</ele>
        <time>2023-05-02T11:24:26Z</time>
      </trkpt>
      <trkpt lat="49.10107" lon="-0.38785">
        <ele>10.2</ele>
        <time>2023-05-02T11:24:27Z</time>
      </trkpt>
      <trkpt lat="49.10102" lon="-0.38792">
        <ele>10.2</ele>
        <time>2023-05-02T11:24:28Z</time>
      </trkpt>
      <trkpt lat="49.10096" lon="-0.38799">
        <ele>10</ele>
        <time>2023-05-02T11:24:29Z</time>
      </trkpt>
      <trkpt lat="49.10091" lon="-0.38806">
        <ele>9.8</ele>
        <time>2023-05-02T11:24:30Z</time>
      </trkpt>
      <trkpt lat="49.10085" lon="-0.38813">
        <ele>9.6</ele>
        <time>2023-05-02T11:24:31Z</time>
      </trkpt>
      <trkpt lat="49.1008" lon="-0.3882">
        <ele>9.6</ele>
        <time>2023-05-02T11:24:32Z</time>
      </trkpt>
      <trkpt lat="49.10075" lon="-0.38828">
        <ele>9.6</ele>
        <time>2023-05-02T11:24:33Z</time>
      </trkpt>
      <trkpt lat="49.1007" lon="-0.38835">
        <ele>9.6</ele>
        <time>2023-05-02T11:24:34Z</time>
      </trkpt>
      <trkpt lat="49.10064" lon="-0.38843">
        <ele>9.8</ele>
        <time>2023-05-02T11:24:35Z</time>
      </trkpt>
      <trkpt lat="49.10059" lon="-0.3885">
        <ele>10.2</ele>
        <time>2023-05-02T11:24:36Z</time>
      </trkpt>
      <trkpt lat="49.10054" lon="-0.38858">
        <ele>10.4</ele>
        <time>2023-05-02T11:24:37Z</time>
      </trkpt>
      <trkpt lat="49.10049" lon="-0.38866">
        <ele>10.4</ele>
        <time>2023-05-02T11:24:38Z</time>
      </trkpt>
      <trkpt lat="49.10044" lon="-0.38873">
        <ele>10.6</ele>
        <time>2023-05-02T11:24:39Z</time>
      </trkpt>
      <trkpt lat="49.1004" lon="-0.38881">
        <ele>10.6</ele>
        <time>2023-05-02T11:24:40Z</time>
      </trkpt>
      <trkpt lat="49.10035" lon="-0.38889">
        <ele>10.6</ele>
        <time>2023-05-02T11:24:41Z</time>
      </trkpt>
      <trkpt lat="49.1003" lon="-0.38897">
        <ele>10.8</ele>
        <time>2023-05-02T11:24:42Z</time>
      </trkpt>
      <trkpt lat="49.10025" lon="-0.38905">
        <ele>10.8</ele>
        <time>2023-05-02T11:24:43Z</time>
      </trkpt>
      <trkpt lat="49.1002" lon="-0.38913">
        <ele>10.8</ele>
        <time>2023-05-02T11:24:44Z</time>
      </trkpt>
      <trkpt lat="49.10016" lon="-0.38921">
        <ele>11.2</ele>
        <time>2023-05-02T11:24:45Z</time>
      </trkpt>
      <trkpt lat="49.10011" lon="-0.38929">
        <ele>11.6</ele>
        <time>2023-05-02T11:24:46Z</time>
      </trkpt>
      <trkpt lat="49.10007" lon="-0.38937">
        <ele>11.8</ele>
        <time>2023-05-02T11:24:47Z</time>
      </trkpt>
      <trkpt lat="49.10003" lon="-0.38945">
        <ele>12.2</ele>
        <time>2023-05-02T11:24:48Z</time>
      </trkpt>
      <trkpt lat="49.09998" lon="-0.38953">
        <ele>12.6</ele>
        <time>2023-05-02T11:24:49Z</time>
      </trkpt>
      <trkpt lat="49.09994" lon="-0.38961">
        <ele>13</ele>
        <time>2023-05-02T11:24:50Z</time>
      </trkpt>
      <trkpt lat="49.0999" lon="-0.3897">
        <ele>13.4</ele>
        <time>2023-05-02T11:24:51Z</time>
      </trkpt>
      <trkpt lat="49.09987" lon="-0.38978">
        <ele>13.6</ele>
        <time>2023-05-02T11:24:52Z</time>
      </trkpt>
      <trkpt lat="49.09983" lon="-0.38986">
        <ele>13.8</ele>
        <time>2023-05-02T11:24:53Z</time>
      </trkpt>
      <trkpt lat="49.09979" lon="-0.38994">
        <ele>13.8</ele>
        <time>2023-05-02T11:24:54Z</time>
      </trkpt>
      <trkpt lat="49.09975" lon="-0.39002">
        <ele>14.2</ele>
        <time>2023-05-02T11:24:55Z</time>
      </trkpt>
      <trkpt lat="49.09972" lon="-0.3901">
        <ele>14.4</ele>
        <time>2023-05-02T11:24:56Z</time>
      </trkpt>
      <trkpt lat="49.09968" lon="-0.39018">
        <ele>14.6</ele>
        <time>2023-05-02T11:24:57Z</time>
      </trkpt>
      <trkpt lat="49.09964" lon="-0.39026">
        <ele>14.8</ele>
        <time>2023-05-02T11:24:58Z</time>
      </trkpt>
      <trkpt lat="49.09961" lon="-0.39034">
        <ele>15</ele>
        <time>2023-05-02T11:24:59Z</time>
      </trkpt>
      <trkpt lat="49.09957" lon="-0.39042">
        <ele>15.2</ele>
        <time>2023-05-02T11:25:00Z</time>
      </trkpt>
      <trkpt lat="49.09953" lon="-0.3905">
        <ele>15.2</ele>
        <time>2023-05-02T11:25:01Z</time>
      </trkpt>
      <trkpt lat="49.0995" lon="-0.39059">
        <ele>15.4</ele>
        <time>2023-05-02T11:25:02Z</time>
      </trkpt>
      <trkpt lat="49.09946" lon="-0.39067">
        <ele>15.4</ele>
        <time>2023-05-02T11:25:03Z</time>
      </trkpt>
      <trkpt lat="49.09943" lon="-0.39076">
        <ele>15.4</ele>
        <time>2023-05-02T11:25:04Z</time>
      </trkpt>
      <trkpt lat="49.0994" lon="-0.39085">
        <ele>15.6</ele>
        <time>2023-05-02T11:25:05Z</time>
      </trkpt>
      <trkpt lat="49.09936" lon="-0.39094">
        <ele>15.8</ele>
        <time>2023-05-02T11:25:06Z</time>
      </trkpt>
      <trkpt lat="49.09933" lon="-0.39103">
        <ele>16.2</ele>
        <time>2023-05-02T11:25:07Z</time>
      </trkpt>
      <trkpt lat="49.0993" lon="-0.39112">
        <ele>16.4</ele>
        <time>2023-05-02T11:25:08Z</time>
      </trkpt>
      <trkpt lat="49.09927" lon="-0.39121">
        <ele>16.8</ele>
        <time>2023-05-02T11:25:09Z</time>
      </trkpt>
      <trkpt lat="49.09924" lon="-0.3913">
        <ele>17</ele>
        <time>2023-05-02T11:25:10Z</time>
      </trkpt>
      <trkpt lat="49.0992" lon="-0.39139">
        <ele>17.2</ele>
        <time>2023-05-02T11:25:11Z</time>
      </trkpt>
      <trkpt lat="49.09917" lon="-0.39148">
        <ele>17.6</ele>
        <time>2023-05-02T11:25:12Z</time>
      </trkpt>
      <trkpt lat="49.09914" lon="-0.39157">
        <ele>17.8</ele>
        <time>2023-05-02T11:25:13Z</time>
      </trkpt>
      <trkpt lat="49.09911" lon="-0.39166">
        <ele>18.2</ele>
        <time>2023-05-02T11:25:14Z</time>
      </trkpt>
      <trkpt lat="49.09909" lon="-0.39175">
        <ele>18.4</ele>
        <time>2023-05-02T11:25:15Z</time>
      </trkpt>
      <trkpt lat="49.09906" lon="-0.39185">
        <ele>18.6</ele>
        <time>2023-05-02T11:25:16Z</time>
      </trkpt>
      <trkpt lat="49.09903" lon="-0.39195">
        <ele>18.8</ele>
        <time>2023-05-02T11:25:17Z</time>
      </trkpt>
      <trkpt lat="49.09901" lon="-0.39204">
        <ele>19.2</ele>
        <time>2023-05-02T11:25:18Z</time>
      </trkpt>
      <trkpt lat="49.09898" lon="-0.39214">
        <ele>19.2</ele>
        <time>2023-05-02T11:25:19Z</time>
      </trkpt>
      <trkpt lat="49.09896" lon="-0.39223">
        <ele>19.4</ele>
        <time>2023-05-02T11:25:20Z</time>
      </trkpt>
      <trkpt lat="49.09893" lon="-0.39233">
        <ele>19.6</ele>
        <time>2023-05-02T11:25:21Z</time>
      </trkpt>
      <trkpt lat="49.09891" lon="-0.39243">
        <ele>19.6</ele>
        <time>2023-05-02T11:25:22Z</time>
      </trkpt>
      <trkpt lat="49.09888" lon="-0.39252">
        <ele>19.8</ele>
        <time>2023-05-02T11:25:23Z</time>
      </trkpt>
      <trkpt lat="49.09886" lon="-0.39262">
        <ele>19.8</ele>
        <time>2023-05-02T11:25:24Z</time>
      </trkpt>
      <trkpt lat="49.09883" lon="-0.39271">
        <ele>20</ele>
        <time>2023-05-02T11:25:25Z</time>
      </trkpt>
      <trkpt lat="49.0988" lon="-0.39281">
        <ele>20.2</ele>
        <time>2023-05-02T11:25:26Z</time>
      </trkpt>
      <trkpt lat="49.09878" lon="-0.39291">
        <ele>20.2</ele>
        <time>2023-05-02T11:25:27Z</time>
      </trkpt>
      <trkpt lat="49.09875" lon="-0.393">
        <ele>20.2</ele>
        <time>2023-05-02T11:25:28Z</time>
      </trkpt>
      <trkpt lat="49.09872" lon="-0.3931">
        <ele>20.4</ele>
        <time>2023-05-02T11:25:29Z</time>
      </trkpt>
      <trkpt lat="49.0987" lon="-0.39319">
        <ele>20.6</ele>
        <time>2023-05-02T11:25:30Z</time>
      </trkpt>
      <trkpt lat="49.09867" lon="-0.39329">
        <ele>20.6</ele>
        <time>2023-05-02T11:25:31Z</time>
      </trkpt>
      <trkpt lat="49.09865" lon="-0.39338">
        <ele>20.8</ele>
        <time>2023-05-02T11:25:32Z</time>
      </trkpt>
      <trkpt lat="49.09862" lon="-0.39348">
        <ele>21</ele>
        <time>2023-05-02T11:25:33Z</time>
      </trkpt>
      <trkpt lat="49.0986" lon="-0.39357">
        <ele>21.2</ele>
        <time>2023-05-02T11:25:34Z</time>
      </trkpt>
      <trkpt lat="49.09857" lon="-0.39367">
        <ele>21.4</ele>
        <time>2023-05-02T11:25:35Z</time>
      </trkpt>
      <trkpt lat="49.09854" lon="-0.39376">
        <ele>21.8</ele>
        <time>2023-05-02T11:25:36Z</time>
      </trkpt>
      <trkpt lat="49.09852" lon="-0.39385">
        <ele>21.8</ele>
        <time>2023-05-02T11:25:37Z</time>
      </trkpt>
      <trkpt lat="49.0985" lon="-0.39395">
        <ele>22</ele>
        <time>2023-05-02T11:25:38Z</time>
      </trkpt>
      <trkpt lat="49.09847" lon="-0.39404">
        <ele>22.2</ele>
        <time>2023-05-02T11:25:39Z</time>
      </trkpt>
      <trkpt lat="49.09845" lon="-0.39414">
        <ele>22.2</ele>
        <time>2023-05-02T11:25:40Z</time>
      </trkpt>
      <trkpt lat="49.09842" lon="-0.39423">
        <ele>22.2</ele>
        <time>2023-05-02T11:25:41Z</time>
      </trkpt>
      <trkpt lat="49.0984" lon="-0.39432">
        <ele>21.8</ele>
        <time>2023-05-02T11:25:42Z</time>
      </trkpt>
      <trkpt lat="49.09837" lon="-0.39441">
        <ele>21.4</ele>
        <time>2023-05-02T11:25:43Z</time>
      </trkpt>
      <trkpt lat="49.09835" lon="-0.39451">
        <ele>21.2</ele>
        <time>2023-05-02T11:25:44Z</time>
      </trkpt>
      <trkpt lat="49.09832" lon="-0.3946">
        <ele>20.8</ele>
        <time>2023-05-02T11:25:45Z</time>
      </trkpt>
      <trkpt lat="49.0983" lon="-0.39469">
        <ele>20.8</ele>
        <time>2023-05-02T11:25:46Z</time>
      </trkpt>
      <trkpt lat="49.09827" lon="-0.39478">
        <ele>20.6</ele>
        <time>2023-05-02T11:25:47Z</time>
      </trkpt>
      <trkpt lat="49.09825" lon="-0.39487">
        <ele>20.2</ele>
        <time>2023-05-02T11:25:48Z</time>
      </trkpt>
      <trkpt lat="49.09822" lon="-0.39497">
        <ele>20.2</ele>
        <time>2023-05-02T11:25:49Z</time>
      </trkpt>
      <trkpt lat="49.0982" lon="-0.39506">
        <ele>19.8</ele>
        <time>2023-05-02T11:25:50Z</time>
      </trkpt>
      <trkpt lat="49.09817" lon="-0.39515">
        <ele>19.4</ele>
        <time>2023-05-02T11:25:51Z</time>
      </trkpt>
      <trkpt lat="49.09815" lon="-0.39524">
        <ele>18.8</ele>
        <time>2023-05-02T11:25:52Z</time>
      </trkpt>
      <trkpt lat="49.09812" lon="-0.39533">
        <ele>18.6</ele>
        <time>2023-05-02T11:25:53Z</time>
      </trkpt>
      <trkpt lat="49.0981" lon="-0.39542">
        <ele>18.2</ele>
        <time>2023-05-02T11:25:54Z</time>
      </trkpt>
      <trkpt lat="49.09807" lon="-0.39552">
        <ele>17.8</ele>
        <time>2023-05-02T11:25:55Z</time>
      </trkpt>
      <trkpt lat="49.09805" lon="-0.39561">
        <ele>17.2</ele>
        <time>2023-05-02T11:25:56Z</time>
      </trkpt>
      <trkpt lat="49.09802" lon="-0.3957">
        <ele>17</ele>
        <time>2023-05-02T11:25:57Z</time>
      </trkpt>
      <trkpt lat="49.098" lon="-0.39579">
        <ele>16.6</ele>
        <time>2023-05-02T11:25:58Z</time>
      </trkpt>
      <trkpt lat="49.09797" lon="-0.39589">
        <ele>16.2</ele>
        <time>2023-05-02T11:25:59Z</time>
      </trkpt>
      <trkpt lat="49.09795" lon="-0.39598">
        <ele>15.6</ele>
        <time>2023-05-02T11:26:00Z</time>
      </trkpt>
      <trkpt lat="49.09792" lon="-0.39607">
        <ele>15.2</ele>
        <time>2023-05-02T11:26:01Z</time>
      </trkpt>
      <trkpt lat="49.09789" lon="-0.39615">
        <ele>14.6</ele>
        <time>2023-05-02T11:26:02Z</time>
      </trkpt>
      <trkpt lat="49.09786" lon="-0.39624">
        <ele>14.2</ele>
        <time>2023-05-02T11:26:03Z</time>
      </trkpt>
      <trkpt lat="49.09783" lon="-0.39633">
        <ele>13.6</ele>
        <time>2023-05-02T11:26:04Z</time>
      </trkpt>
      <trkpt lat="49.0978" lon="-0.39641">
        <ele>13</ele>
        <time>2023-05-02T11:26:05Z</time>
      </trkpt>
      <trkpt lat="49.09777" lon="-0.3965">
        <ele>12.6</ele>
        <time>2023-05-02T11:26:06Z</time>
      </trkpt>
      <trkpt lat="49.09774" lon="-0.39659">
        <ele>12.2</ele>
        <time>2023-05-02T11:26:07Z</time>
      </trkpt>
      <trkpt lat="49.09772" lon="-0.39668">
        <ele>11.6</ele>
        <time>2023-05-02T11:26:08Z</time>
      </trkpt>
      <trkpt lat="49.0977" lon="-0.39677">
        <ele>11.4</ele>
        <time>2023-05-02T11:26:09Z</time>
      </trkpt>
      <trkpt lat="49.09767" lon="-0.39686">
        <ele>11.4</ele>
        <time>2023-05-02T11:26:10Z</time>
      </trkpt>
      <trkpt lat="49.09765" lon="-0.39695">
        <ele>11.2</ele>
        <time>2023-05-02T11:26:11Z</time>
      </trkpt>
      <trkpt lat="49.09762" lon="-0.39704">
        <ele>11.2</ele>
        <time>2023-05-02T11:26:12Z</time>
      </trkpt>
      <trkpt lat="49.0976" lon="-0.39713">
        <ele>11</ele>
        <time>2023-05-02T11:26:13Z</time>
      </trkpt>
      <trkpt lat="49.09758" lon="-0.39723">
        <ele>11</ele>
        <time>2023-05-02T11:26:14Z</time>
      </trkpt>
      <trkpt lat="49.09755" lon="-0.39733">
        <ele>11</ele>
        <time>2023-05-02T11:26:15Z</time>
      </trkpt>
      <trkpt lat="49.09753" lon="-0.39742">
        <ele>11</ele>
        <time>2023-05-02T11:26:16Z</time>
      </trkpt>
      <trkpt lat="49.09751" lon="-0.39752">
        <ele>11.2</ele>
        <time>2023-05-02T11:26:17Z</time>
      </trkpt>
      <trkpt lat="49.09748" lon="-0.39762">
        <ele>11.4</ele>
        <time>2023-05-02T11:26:18Z</time>
      </trkpt>
      <trkpt lat="49.09746" lon="-0.39772">
        <ele>11.8</ele>
        <time>2023-05-02T11:26:19Z</time>
      </trkpt>
      <trkpt lat="49.09744" lon="-0.39782">
        <ele>12.2</ele>
        <time>2023-05-02T11:26:20Z</time>
      </trkpt>
      <trkpt lat="49.09741" lon="-0.39791">
        <ele>12.6</ele>
        <time>2023-05-02T11:26:21Z</time>
      </trkpt>
      <trkpt lat="49.09739" lon="-0.39801">
        <ele>13</ele>
        <time>2023-05-02T11:26:22Z</time>
      </trkpt>
      <trkpt lat="49.09737" lon="-0.39811">
        <ele>13.4</ele>
        <time>2023-05-02T11:26:23Z</time>
      </trkpt>
      <trkpt lat="49.09735" lon="-0.39821">
        <ele>13.8</ele>
        <time>2023-05-02T11:26:24Z</time>
      </trkpt>
      <trkpt lat="49.09734" lon="-0.39831">
        <ele>14.2</ele>
        <time>2023-05-02T11:26:25Z</time>
      </trkpt>
      <trkpt lat="49.09732" lon="-0.39841">
        <ele>14.4</ele>
        <time>2023-05-02T11:26:26Z</time>
      </trkpt>
      <trkpt lat="49.0973" lon="-0.39852">
        <ele>14.6</ele>
        <time>2023-05-02T11:26:27Z</time>
      </trkpt>
      <trkpt lat="49.09729" lon="-0.39862">
        <ele>14.6</ele>
        <time>2023-05-02T11:26:28Z</time>
      </trkpt>
      <trkpt lat="49.09728" lon="-0.39873">
        <ele>14.6</ele>
        <time>2023-05-02T11:26:29Z</time>
      </trkpt>
      <trkpt lat="49.09727" lon="-0.39883">
        <ele>14.8</ele>
        <time>2023-05-02T11:26:30Z</time>
      </trkpt>
      <trkpt lat="49.09726" lon="-0.39894">
        <ele>15</ele>
        <time>2023-05-02T11:26:31Z</time>
      </trkpt>
      <trkpt lat="49.09725" lon="-0.39904">
        <ele>15.2</ele>
        <time>2023-05-02T11:26:32Z</time>
      </trkpt>
      <trkpt lat="49.09724" lon="-0.39914">
        <ele>15.2</ele>
        <time>2023-05-02T11:26:33Z</time>
      </trkpt>
      <trkpt lat="49.09723" lon="-0.39924">
        <ele>15.2</ele>
        <time>2023-05-02T11:26:34Z</time>
      </trkpt>
      <trkpt lat="49.09723" lon="-0.39935">
        <ele>15.2</ele>
        <time>2023-05-02T11:26:35Z</time>
      </trkpt>
      <trkpt lat="49.09722" lon="-0.39945">
        <ele>15</ele>
        <time>2023-05-02T11:26:36Z</time>
      </trkpt>
      <trkpt lat="49.09722" lon="-0.39955">
        <ele>14.8</ele>
        <time>2023-05-02T11:26:37Z</time>
      </trkpt>
      <trkpt lat="49.09722" lon="-0.39965">
        <ele>14.8</ele>
        <time>2023-05-02T11:26:38Z</time>
      </trkpt>
      <trkpt lat="49.09721" lon="-0.39975">
        <ele>14.6</ele>
        <time>2023-05-02T11:26:39Z</time>
      </trkpt>
      <trkpt lat="49.09721" lon="-0.39985">
        <ele>14.6</ele>
        <time>2023-05-02T11:26:40Z</time>
      </trkpt>
      <trkpt lat="49.09721" lon="-0.39995">
        <ele>14.4</ele>
        <time>2023-05-02T11:26:41Z</time>
      </trkpt>
      <trkpt lat="49.09721" lon="-0.40005">
        <ele>14.6</ele>
        <time>2023-05-02T11:26:42Z</time>
      </trkpt>
      <trkpt lat="49.09721" lon="-0.40016">
        <ele>14.8</ele>
        <time>2023-05-02T11:26:43Z</time>
      </trkpt>
      <trkpt lat="49.09721" lon="-0.40026">
        <ele>15.2</ele>
        <time>2023-05-02T11:26:44Z</time>
      </trkpt>
      <trkpt lat="49.09722" lon="-0.40036">
        <ele>15.6</ele>
        <time>2023-05-02T11:26:45Z</time>
      </trkpt>
      <trkpt lat="49.09722" lon="-0.40046">
        <ele>15.8</ele>
        <time>2023-05-02T11:26:46Z</time>
      </trkpt>
      <trkpt lat="49.09722" lon="-0.40057">
        <ele>16.2</ele>
        <time>2023-05-02T11:26:47Z</time>
      </trkpt>
      <trkpt lat="49.09723" lon="-0.40067">
        <ele>16.6</ele>
        <time>2023-05-02T11:26:48Z</time>
      </trkpt>
      <trkpt lat="49.09723" lon="-0.40077">
        <ele>16.8</ele>
        <time>2023-05-02T11:26:49Z</time>
      </trkpt>
      <trkpt lat="49.09724" lon="-0.40087">
        <ele>17</ele>
        <time>2023-05-02T11:26:50Z</time>
      </trkpt>
      <trkpt lat="49.09724" lon="-0.40098">
        <ele>17.2</ele>
        <time>2023-05-02T11:26:51Z</time>
      </trkpt>
      <trkpt lat="49.09724" lon="-0.40108">
        <ele>17.2</ele>
        <time>2023-05-02T11:26:52Z</time>
      </trkpt>
      <trkpt lat="49.09725" lon="-0.40118">
        <ele>17.2</ele>
        <time>2023-05-02T11:26:53Z</time>
      </trkpt>
      <trkpt lat="49.09725" lon="-0.40128">
        <ele>17.2</ele>
        <time>2023-05-02T11:26:54Z</time>
      </trkpt>
      <trkpt lat="49.09725" lon="-0.40139">
        <ele>17.4</ele>
        <time>2023-05-02T11:26:55Z</time>
      </trkpt>
      <trkpt lat="49.09726" lon="-0.40149">
        <ele>17.4</ele>
        <time>2023-05-02T11:26:56Z</time>
      </trkpt>
      <trkpt lat="49.09726" lon="-0.40159">
        <ele>17.6</ele>
        <time>2023-05-02T11:26:57Z</time>
      </trkpt>
      <trkpt lat="49.09726" lon="-0.40169">
        <ele>17.6</ele>
        <time>2023-05-02T11:26:58Z</time>
      </trkpt>
      <trkpt lat="49.09727" lon="-0.40179">
        <ele>17.4</ele>
        <time>2023-05-02T11:26:59Z</time>
      </trkpt>
      <trkpt lat="49.09727" lon="-0.40189">
        <ele>17.2</ele>
        <time>2023-05-02T11:27:00Z</time>
      </trkpt>
      <trkpt lat="49.09727" lon="-0.40199">
        <ele>17.2</ele>
        <time>2023-05-02T11:27:01Z</time>
      </trkpt>
      <trkpt lat="49.09727" lon="-0.40209">
        <ele>17</ele>
        <time>2023-05-02T11:27:02Z</time>
      </trkpt>
      <trkpt lat="49.09727" lon="-0.40219">
        <ele>16.8</ele>
        <time>2023-05-02T11:27:03Z</time>
      </trkpt>
      <trkpt lat="49.09728" lon="-0.40229">
        <ele>16.8</ele>
        <time>2023-05-02T11:27:04Z</time>
      </trkpt>
      <trkpt lat="49.09728" lon="-0.40239">
        <ele>16.6</ele>
        <time>2023-05-02T11:27:05Z</time>
      </trkpt>
      <trkpt lat="49.09728" lon="-0.40248">
        <ele>16.2</ele>
        <time>2023-05-02T11:27:06Z</time>
      </trkpt>
      <trkpt lat="49.09728" lon="-0.40258">
        <ele>16.2</ele>
        <time>2023-05-02T11:27:07Z</time>
      </trkpt>
      <trkpt lat="49.09728" lon="-0.40268">
        <ele>15.8</ele>
        <time>2023-05-02T11:27:08Z</time>
      </trkpt>
      <trkpt lat="49.09729" lon="-0.40278">
        <ele>15.6</ele>
        <time>2023-05-02T11:27:09Z</time>
      </trkpt>
      <trkpt lat="49.09729" lon="-0.40288">
        <ele>15.4</ele>
        <time>2023-05-02T11:27:10Z</time>
      </trkpt>
      <trkpt lat="49.09729" lon="-0.40298">
        <ele>15.2</ele>
        <time>2023-05-02T11:27:11Z</time>
      </trkpt>
      <trkpt lat="49.0973" lon="-0.40308">
        <ele>15</ele>
        <time>2023-05-02T11:27:12Z</time>
      </trkpt>
      <trkpt lat="49.0973" lon="-0.40318">
        <ele>14.8</ele>
        <time>2023-05-02T11:27:13Z</time>
      </trkpt>
      <trkpt lat="49.0973" lon="-0.40329">
        <ele>14.6</ele>
        <time>2023-05-02T11:27:14Z</time>
      </trkpt>
      <trkpt lat="49.09731" lon="-0.40339">
        <ele>14.4</ele>
        <time>2023-05-02T11:27:15Z</time>
      </trkpt>
      <trkpt lat="49.09731" lon="-0.40349">
        <ele>14.2</ele>
        <time>2023-05-02T11:27:16Z</time>
      </trkpt>
      <trkpt lat="49.09731" lon="-0.40359">
        <ele>14.2</ele>
        <time>2023-05-02T11:27:17Z</time>
      </trkpt>
      <trkpt lat="49.09731" lon="-0.40369">
        <ele>13.8</ele>
        <time>2023-05-02T11:27:18Z</time>
      </trkpt>
      <trkpt lat="49.09732" lon="-0.40379">
        <ele>13.8</ele>
        <time>2023-05-02T11:27:19Z</time>
      </trkpt>
      <trkpt lat="49.09732" lon="-0.40389">
        <ele>13.6</ele>
        <time>2023-05-02T11:27:20Z</time>
      </trkpt>
      <trkpt lat="49.09732" lon="-0.40399">
        <ele>13.6</ele>
        <time>2023-05-02T11:27:21Z</time>
      </trkpt>
      <trkpt lat="49.09733" lon="-0.40409">
        <ele>13.4</ele>
        <time>2023-05-02T11:27:22Z</time>
      </trkpt>
      <trkpt lat="49.09733" lon="-0.4042">
        <ele>13.2</ele>
        <time>2023-05-02T11:27:23Z</time>
      </trkpt>
      <trkpt lat="49.09733" lon="-0.4043">
        <ele>13.2</ele>
        <time>2023-05-02T11:27:24Z</time>
      </trkpt>
      <trkpt lat="49.09733" lon="-0.4044">
        <ele>13.2</ele>
        <time>2023-05-02T11:27:25Z</time>
      </trkpt>
      <trkpt lat="49.09734" lon="-0.4045">
        <ele>13</ele>
        <time>2023-05-02T11:27:26Z</time>
      </trkpt>
      <trkpt lat="49.09734" lon="-0.4046">
        <ele>13</ele>
        <time>2023-05-02T11:27:27Z</time>
      </trkpt>
      <trkpt lat="49.09734" lon="-0.4047">
        <ele>12.8</ele>
        <time>2023-05-02T11:27:28Z</time>
      </trkpt>
      <trkpt lat="49.09734" lon="-0.4048">
        <ele>12.8</ele>
        <time>2023-05-02T11:27:29Z</time>
      </trkpt>
      <trkpt lat="49.09734" lon="-0.4049">
        <ele>12.8</ele>
        <time>2023-05-02T11:27:30Z</time>
      </trkpt>
      <trkpt lat="49.09734" lon="-0.405">
        <ele>12.6</ele>
        <time>2023-05-02T11:27:31Z</time>
      </trkpt>
      <trkpt lat="49.09734" lon="-0.4051">
        <ele>12.6</ele>
        <time>2023-05-02T11:27:32Z</time>
      </trkpt>
      <trkpt lat="49.09734" lon="-0.4052">
        <ele>12.6</ele>
        <time>2023-05-02T11:27:33Z</time>
      </trkpt>
      <trkpt lat="49.09734" lon="-0.4053">
        <ele>12.6</ele>
        <time>2023-05-02T11:27:34Z</time>
      </trkpt>
      <trkpt lat="49.09733" lon="-0.4054">
        <ele>12.6</ele>
        <time>2023-05-02T11:27:35Z</time>
      </trkpt>
      <trkpt lat="49.09733" lon="-0.4055">
        <ele>12.6</ele>
        <time>2023-05-02T11:27:36Z</time>
      </trkpt>
      <trkpt lat="49.09732" lon="-0.4056">
        <ele>12.6</ele>
        <time>2023-05-02T11:27:37Z</time>
      </trkpt>
      <trkpt lat="49.09732" lon="-0.40571">
        <ele>12.6</ele>
        <time>2023-05-02T11:27:38Z</time>
      </trkpt>
      <trkpt lat="49.09731" lon="-0.40581">
        <ele>12.6</ele>
        <time>2023-05-02T11:27:39Z</time>
      </trkpt>
      <trkpt lat="49.09731" lon="-0.40591">
        <ele>12.6</ele>
        <time>2023-05-02T11:27:40Z</time>
      </trkpt>
      <trkpt lat="49.0973" lon="-0.40601">
        <ele>12.4</ele>
        <time>2023-05-02T11:27:41Z</time>
      </trkpt>
      <trkpt lat="49.09729" lon="-0.40611">
        <ele>12.4</ele>
        <time>2023-05-02T11:27:42Z</time>
      </trkpt>
      <trkpt lat="49.09728" lon="-0.40622">
        <ele>12.4</ele>
        <time>2023-05-02T11:27:43Z</time>
      </trkpt>
      <trkpt lat="49.09728" lon="-0.40632">
        <ele>12.4</ele>
        <time>2023-05-02T11:27:44Z</time>
      </trkpt>
      <trkpt lat="49.09727" lon="-0.40642">
        <ele>12.4</ele>
        <time>2023-05-02T11:27:45Z</time>
      </trkpt>
      <trkpt lat="49.09726" lon="-0.40652">
        <ele>12.4</ele>
        <time>2023-05-02T11:27:46Z</time>
      </trkpt>
      <trkpt lat="49.09725" lon="-0.40662">
        <ele>12.4</ele>
        <time>2023-05-02T11:27:47Z</time>
      </trkpt>
      <trkpt lat="49.09724" lon="-0.40672">
        <ele>12.6</ele>
        <time>2023-05-02T11:27:48Z</time>
      </trkpt>
      <trkpt lat="49.09722" lon="-0.40682">
        <ele>12.8</ele>
        <time>2023-05-02T11:27:49Z</time>
      </trkpt>
      <trkpt lat="49.09721" lon="-0.40692">
        <ele>13.2</ele>
        <time>2023-05-02T11:27:50Z</time>
      </trkpt>
      <trkpt lat="49.0972" lon="-0.40702">
        <ele>13.4</ele>
        <time>2023-05-02T11:27:51Z</time>
      </trkpt>
      <trkpt lat="49.09718" lon="-0.40712">
        <ele>13.6</ele>
        <time>2023-05-02T11:27:52Z</time>
      </trkpt>
      <trkpt lat="49.09717" lon="-0.40722">
        <ele>13.8</ele>
        <time>2023-05-02T11:27:53Z</time>
      </trkpt>
      <trkpt lat="49.09715" lon="-0.40733">
        <ele>14.2</ele>
        <time>2023-05-02T11:27:54Z</time>
      </trkpt>
      <trkpt lat="49.09714" lon="-0.40743">
        <ele>14.4</ele>
        <time>2023-05-02T11:27:55Z</time>
      </trkpt>
      <trkpt lat="49.09712" lon="-0.40753">
        <ele>14.6</ele>
        <time>2023-05-02T11:27:56Z</time>
      </trkpt>
      <trkpt lat="49.0971" lon="-0.40763">
        <ele>14.4</ele>
        <time>2023-05-02T11:27:57Z</time>
      </trkpt>
      <trkpt lat="49.09708" lon="-0.40773">
        <ele>14.4</ele>
        <time>2023-05-02T11:27:58Z</time>
      </trkpt>
      <trkpt lat="49.09706" lon="-0.40783">
        <ele>14.4</ele>
        <time>2023-05-02T11:27:59Z</time>
      </trkpt>
      <trkpt lat="49.09704" lon="-0.40793">
        <ele>14.2</ele>
        <time>2023-05-02T11:28:00Z</time>
      </trkpt>
      <trkpt lat="49.09702" lon="-0.40802">
        <ele>14.2</ele>
        <time>2023-05-02T11:28:01Z</time>
      </trkpt>
      <trkpt lat="49.097" lon="-0.40812">
        <ele>14.2</ele>
        <time>2023-05-02T11:28:02Z</time>
      </trkpt>
      <trkpt lat="49.09698" lon="-0.40821">
        <ele>14.2</ele>
        <time>2023-05-02T11:28:03Z</time>
      </trkpt>
      <trkpt lat="49.09696" lon="-0.40831">
        <ele>14.2</ele>
        <time>2023-05-02T11:28:04Z</time>
      </trkpt>
      <trkpt lat="49.09693" lon="-0.4084">
        <ele>14.4</ele>
        <time>2023-05-02T11:28:05Z</time>
      </trkpt>
      <trkpt lat="49.09691" lon="-0.40849">
        <ele>14.6</ele>
        <time>2023-05-02T11:28:06Z</time>
      </trkpt>
      <trkpt lat="49.09689" lon="-0.40858">
        <ele>14.6</ele>
        <time>2023-05-02T11:28:07Z</time>
      </trkpt>
      <trkpt lat="49.09687" lon="-0.40866">
        <ele>14.6</ele>
        <time>2023-05-02T11:28:08Z</time>
      </trkpt>
      <trkpt lat="49.09685" lon="-0.40875">
        <ele>14.6</ele>
        <time>2023-05-02T11:28:09Z</time>
      </trkpt>
      <trkpt lat="49.09682" lon="-0.40883">
        <ele>14.6</ele>
        <time>2023-05-02T11:28:10Z</time>
      </trkpt>
      <trkpt lat="49.0968" lon="-0.40891">
        <ele>14.6</ele>
        <time>2023-05-02T11:28:11Z</time>
      </trkpt>
      <trkpt lat="49.09678" lon="-0.409">
        <ele>14.6</ele>
        <time>2023-05-02T11:28:12Z</time>
      </trkpt>
      <trkpt lat="49.09676" lon="-0.40908">
        <ele>14.6</ele>
        <time>2023-05-02T11:28:13Z</time>
      </trkpt>
      <trkpt lat="49.09674" lon="-0.40918">
        <ele>14.4</ele>
        <time>2023-05-02T11:28:14Z</time>
      </trkpt>
      <trkpt lat="49.09672" lon="-0.40927">
        <ele>14.6</ele>
        <time>2023-05-02T11:28:15Z</time>
      </trkpt>
      <trkpt lat="49.0967" lon="-0.40936">
        <ele>14.6</ele>
        <time>2023-05-02T11:28:16Z</time>
      </trkpt>
      <trkpt lat="49.09668" lon="-0.40945">
        <ele>14.6</ele>
        <time>2023-05-02T11:28:17Z</time>
      </trkpt>
      <trkpt lat="49.09665" lon="-0.40954">
        <ele>14.6</ele>
        <time>2023-05-02T11:28:18Z</time>
      </trkpt>
      <trkpt lat="49.09662" lon="-0.40963">
        <ele>14.8</ele>
        <time>2023-05-02T11:28:19Z</time>
      </trkpt>
      <trkpt lat="49.09659" lon="-0.40972">
        <ele>15.2</ele>
        <time>2023-05-02T11:28:20Z</time>
      </trkpt>
      <trkpt lat="49.09656" lon="-0.4098">
        <ele>15.4</ele>
        <time>2023-05-02T11:28:21Z</time>
      </trkpt>
      <trkpt lat="49.09653" lon="-0.40989">
        <ele>15.6</ele>
        <time>2023-05-02T11:28:22Z</time>
      </trkpt>
      <trkpt lat="49.0965" lon="-0.40998">
        <ele>15.8</ele>
        <time>2023-05-02T11:28:23Z</time>
      </trkpt>
      <trkpt lat="49.09647" lon="-0.41006">
        <ele>15.8</ele>
        <time>2023-05-02T11:28:24Z</time>
      </trkpt>
      <trkpt lat="49.09644" lon="-0.41014">
        <ele>15.8</ele>
        <time>2023-05-02T11:28:25Z</time>
      </trkpt>
      <trkpt lat="49.09641" lon="-0.41023">
        <ele>16</ele>
        <time>2023-05-02T11:28:26Z</time>
      </trkpt>
      <trkpt lat="49.09638" lon="-0.41031">
        <ele>16</ele>
        <time>2023-05-02T11:28:27Z</time>
      </trkpt>
      <trkpt lat="49.09635" lon="-0.41039">
        <ele>16.2</ele>
        <time>2023-05-02T11:28:28Z</time>
      </trkpt>
      <trkpt lat="49.09631" lon="-0.41047">
        <ele>16.2</ele>
        <time>2023-05-02T11:28:29Z</time>
      </trkpt>
      <trkpt lat="49.09628" lon="-0.41055">
        <ele>16.2</ele>
        <time>2023-05-02T11:28:30Z</time>
      </trkpt>
      <trkpt lat="49.09625" lon="-0.41063">
        <ele>16.2</ele>
        <time>2023-05-02T11:28:31Z</time>
      </trkpt>
      <trkpt lat="49.09622" lon="-0.41071">
        <ele>16.2</ele>
        <time>2023-05-02T11:28:32Z</time>
      </trkpt>
      <trkpt lat="49.09619" lon="-0.41079">
        <ele>16.2</ele>
        <time>2023-05-02T11:28:33Z</time>
      </trkpt>
      <trkpt lat="49.09616" lon="-0.41087">
        <ele>16.4</ele>
        <time>2023-05-02T11:28:34Z</time>
      </trkpt>
      <trkpt lat="49.09613" lon="-0.41095">
        <ele>16.6</ele>
        <time>2023-05-02T11:28:35Z</time>
      </trkpt>
      <trkpt lat="49.09609" lon="-0.41102">
        <ele>16.8</ele>
        <time>2023-05-02T11:28:36Z</time>
      </trkpt>
      <trkpt lat="49.09606" lon="-0.4111">
        <ele>16.8</ele>
        <time>2023-05-02T11:28:37Z</time>
      </trkpt>
      <trkpt lat="49.09603" lon="-0.41118">
        <ele>17</ele>
        <time>2023-05-02T11:28:38Z</time>
      </trkpt>
      <trkpt lat="49.09599" lon="-0.41125">
        <ele>17.2</ele>
        <time>2023-05-02T11:28:39Z</time>
      </trkpt>
      <trkpt lat="49.09596" lon="-0.41133">
        <ele>17.2</ele>
        <time>2023-05-02T11:28:40Z</time>
      </trkpt>
      <trkpt lat="49.09592" lon="-0.41141">
        <ele>17.2</ele>
        <time>2023-05-02T11:28:41Z</time>
      </trkpt>
      <trkpt lat="49.09589" lon="-0.41148">
        <ele>17.2</ele>
        <time>2023-05-02T11:28:42Z</time>
      </trkpt>
      <trkpt lat="49.09585" lon="-0.41156">
        <ele>17.2</ele>
        <time>2023-05-02T11:28:43Z</time>
      </trkpt>
      <trkpt lat="49.09581" lon="-0.41164">
        <ele>17.2</ele>
        <time>2023-05-02T11:28:44Z</time>
      </trkpt>
      <trkpt lat="49.09577" lon="-0.41172">
        <ele>17.4</ele>
        <time>2023-05-02T11:28:45Z</time>
      </trkpt>
      <trkpt lat="49.09573" lon="-0.4118">
        <ele>17.6</ele>
        <time>2023-05-02T11:28:46Z</time>
      </trkpt>
      <trkpt lat="49.09569" lon="-0.41187">
        <ele>17.6</ele>
        <time>2023-05-02T11:28:47Z</time>
      </trkpt>
      <trkpt lat="49.09565" lon="-0.41195">
        <ele>17.8</ele>
        <time>2023-05-02T11:28:48Z</time>
      </trkpt>
      <trkpt lat="49.09561" lon="-0.41203">
        <ele>17.8</ele>
        <time>2023-05-02T11:28:49Z</time>
      </trkpt>
      <trkpt lat="49.09557" lon="-0.41211">
        <ele>17.8</ele>
        <time>2023-05-02T11:28:50Z</time>
      </trkpt>
      <trkpt lat="49.09553" lon="-0.41219">
        <ele>18</ele>
        <time>2023-05-02T11:28:51Z</time>
      </trkpt>
      <trkpt lat="49.09549" lon="-0.41227">
        <ele>18.2</ele>
        <time>2023-05-02T11:28:52Z</time>
      </trkpt>
      <trkpt lat="49.09545" lon="-0.41234">
        <ele>18.2</ele>
        <time>2023-05-02T11:28:53Z</time>
      </trkpt>
      <trkpt lat="49.09541" lon="-0.41242">
        <ele>18.4</ele>
        <time>2023-05-02T11:28:54Z</time>
      </trkpt>
      <trkpt lat="49.09537" lon="-0.41249">
        <ele>18.6</ele>
        <time>2023-05-02T11:28:55Z</time>
      </trkpt>
      <trkpt lat="49.09532" lon="-0.41256">
        <ele>18.4</ele>
        <time>2023-05-02T11:28:56Z</time>
      </trkpt>
      <trkpt lat="49.09528" lon="-0.41264">
        <ele>18.2</ele>
        <time>2023-05-02T11:28:57Z</time>
      </trkpt>
      <trkpt lat="49.09524" lon="-0.41271">
        <ele>18.2</ele>
        <time>2023-05-02T11:28:58Z</time>
      </trkpt>
      <trkpt lat="49.0952" lon="-0.41279">
        <ele>17.8</ele>
        <time>2023-05-02T11:28:59Z</time>
      </trkpt>
      <trkpt lat="49.09516" lon="-0.41286">
        <ele>17.6</ele>
        <time>2023-05-02T11:29:00Z</time>
      </trkpt>
      <trkpt lat="49.09512" lon="-0.41293">
        <ele>17.2</ele>
        <time>2023-05-02T11:29:01Z</time>
      </trkpt>
      <trkpt lat="49.09508" lon="-0.41301">
        <ele>16.8</ele>
        <time>2023-05-02T11:29:02Z</time>
      </trkpt>
      <trkpt lat="49.09504" lon="-0.41309">
        <ele>16.2</ele>
        <time>2023-05-02T11:29:03Z</time>
      </trkpt>
      <trkpt lat="49.095" lon="-0.41316">
        <ele>15.6</ele>
        <time>2023-05-02T11:29:04Z</time>
      </trkpt>
      <trkpt lat="49.09496" lon="-0.41324">
        <ele>15.6</ele>
        <time>2023-05-02T11:29:05Z</time>
      </trkpt>
      <trkpt lat="49.09492" lon="-0.41332">
        <ele>15.4</ele>
        <time>2023-05-02T11:29:06Z</time>
      </trkpt>
      <trkpt lat="49.09487" lon="-0.41339">
        <ele>15.6</ele>
        <time>2023-05-02T11:29:07Z</time>
      </trkpt>
      <trkpt lat="49.09483" lon="-0.41347">
        <ele>15.8</ele>
        <time>2023-05-02T11:29:08Z</time>
      </trkpt>
      <trkpt lat="49.09479" lon="-0.41355">
        <ele>16.2</ele>
        <time>2023-05-02T11:29:09Z</time>
      </trkpt>
      <trkpt lat="49.09474" lon="-0.41363">
        <ele>16.4</ele>
        <time>2023-05-02T11:29:10Z</time>
      </trkpt>
      <trkpt lat="49.0947" lon="-0.4137">
        <ele>16.8</ele>
        <time>2023-05-02T11:29:11Z</time>
      </trkpt>
      <trkpt lat="49.09465" lon="-0.41378">
        <ele>16.8</ele>
        <time>2023-05-02T11:29:12Z</time>
      </trkpt>
      <trkpt lat="49.09461" lon="-0.41386">
        <ele>17.2</ele>
        <time>2023-05-02T11:29:13Z</time>
      </trkpt>
      <trkpt lat="49.09456" lon="-0.41394">
        <ele>17.2</ele>
        <time>2023-05-02T11:29:14Z</time>
      </trkpt>
      <trkpt lat="49.09452" lon="-0.41402">
        <ele>17.6</ele>
        <time>2023-05-02T11:29:15Z</time>
      </trkpt>
      <trkpt lat="49.09448" lon="-0.4141">
        <ele>17.6</ele>
        <time>2023-05-02T11:29:16Z</time>
      </trkpt>
      <trkpt lat="49.09443" lon="-0.41418">
        <ele>17.8</ele>
        <time>2023-05-02T11:29:17Z</time>
      </trkpt>
      <trkpt lat="49.09439" lon="-0.41426">
        <ele>17.8</ele>
        <time>2023-05-02T11:29:18Z</time>
      </trkpt>
      <trkpt lat="49.09434" lon="-0.41434">
        <ele>17.6</ele>
        <time>2023-05-02T11:29:19Z</time>
      </trkpt>
      <trkpt lat="49.0943" lon="-0.41442">
        <ele>17.4</ele>
        <time>2023-05-02T11:29:20Z</time>
      </trkpt>
      <trkpt lat="49.09426" lon="-0.4145">
        <ele>17.2</ele>
        <time>2023-05-02T11:29:21Z</time>
      </trkpt>
      <trkpt lat="49.09421" lon="-0.41458">
        <ele>16.8</ele>
        <time>2023-05-02T11:29:22Z</time>
      </trkpt>
      <trkpt lat="49.09417" lon="-0.41466">
        <ele>16.2</ele>
        <time>2023-05-02T11:29:23Z</time>
      </trkpt>
      <trkpt lat="49.09413" lon="-0.41475">
        <ele>16</ele>
        <time>2023-05-02T11:29:24Z</time>
      </trkpt>
      <trkpt lat="49.09408" lon="-0.41483">
        <ele>15.8</ele>
        <time>2023-05-02T11:29:25Z</time>
      </trkpt>
      <trkpt lat="49.09404" lon="-0.41491">
        <ele>15.8</ele>
        <time>2023-05-02T11:29:26Z</time>
      </trkpt>
      <trkpt lat="49.094" lon="-0.415">
        <ele>15.6</ele>
        <time>2023-05-02T11:29:27Z</time>
      </trkpt>
      <trkpt lat="49.09395" lon="-0.41508">
        <ele>15.8</ele>
        <time>2023-05-02T11:29:28Z</time>
      </trkpt>
      <trkpt lat="49.09391" lon="-0.41516">
        <ele>15.8</ele>
        <time>2023-05-02T11:29:29Z</time>
      </trkpt>
      <trkpt lat="49.09386" lon="-0.41525">
        <ele>15.8</ele>
        <time>2023-05-02T11:29:30Z</time>
      </trkpt>
      <trkpt lat="49.09381" lon="-0.41533">
        <ele>15.8</ele>
        <time>2023-05-02T11:29:31Z</time>
      </trkpt>
      <trkpt lat="49.09377" lon="-0.41541">
        <ele>15.8</ele>
        <time>2023-05-02T11:29:32Z</time>
      </trkpt>
      <trkpt lat="49.09372" lon="-0.41549">
        <ele>15.6</ele>
        <time>2023-05-02T11:29:33Z</time>
      </trkpt>
      <trkpt lat="49.09368" lon="-0.41558">
        <ele>15.6</ele>
        <time>2023-05-02T11:29:34Z</time>
      </trkpt>
      <trkpt lat="49.09363" lon="-0.41566">
        <ele>15.4</ele>
        <time>2023-05-02T11:29:35Z</time>
      </trkpt>
      <trkpt lat="49.09359" lon="-0.41574">
        <ele>15.2</ele>
        <time>2023-05-02T11:29:36Z</time>
      </trkpt>
      <trkpt lat="49.09354" lon="-0.41582">
        <ele>14.8</ele>
        <time>2023-05-02T11:29:37Z</time>
      </trkpt>
      <trkpt lat="49.0935" lon="-0.41591">
        <ele>14.8</ele>
        <time>2023-05-02T11:29:38Z</time>
      </trkpt>
      <trkpt lat="49.09345" lon="-0.41599">
        <ele>14.8</ele>
        <time>2023-05-02T11:29:39Z</time>
      </trkpt>
      <trkpt lat="49.09341" lon="-0.41607">
        <ele>14.8</ele>
        <time>2023-05-02T11:29:40Z</time>
      </trkpt>
      <trkpt lat="49.09336" lon="-0.41615">
        <ele>14.6</ele>
        <time>2023-05-02T11:29:41Z</time>
      </trkpt>
      <trkpt lat="49.09331" lon="-0.41623">
        <ele>14.4</ele>
        <time>2023-05-02T11:29:42Z</time>
      </trkpt>
      <trkpt lat="49.09327" lon="-0.41631">
        <ele>14.6</ele>
        <time>2023-05-02T11:29:43Z</time>
      </trkpt>
      <trkpt lat="49.09322" lon="-0.41639">
        <ele>14.6</ele>
        <time>2023-05-02T11:29:44Z</time>
      </trkpt>
      <trkpt lat="49.09317" lon="-0.41647">
        <ele>14.6</ele>
        <time>2023-05-02T11:29:45Z</time>
      </trkpt>
      <trkpt lat="49.09312" lon="-0.41656">
        <ele>14.6</ele>
        <time>2023-05-02T11:29:46Z</time>
      </trkpt>
      <trkpt lat="49.09307" lon="-0.41664">
        <ele>14.6</ele>
        <time>2023-05-02T11:29:47Z</time>
      </trkpt>
      <trkpt lat="49.09303" lon="-0.41672">
        <ele>14.8</ele>
        <time>2023-05-02T11:29:48Z</time>
      </trkpt>
      <trkpt lat="49.09298" lon="-0.4168">
        <ele>15.2</ele>
        <time>2023-05-02T11:29:49Z</time>
      </trkpt>
      <trkpt lat="49.09293" lon="-0.41688">
        <ele>15.6</ele>
        <time>2023-05-02T11:29:50Z</time>
      </trkpt>
      <trkpt lat="49.09288" lon="-0.41696">
        <ele>15.6</ele>
        <time>2023-05-02T11:29:51Z</time>
      </trkpt>
      <trkpt lat="49.09283" lon="-0.41704">
        <ele>15.6</ele>
        <time>2023-05-02T11:29:52Z</time>
      </trkpt>
      <trkpt lat="49.09278" lon="-0.41712">
        <ele>15.6</ele>
        <time>2023-05-02T11:29:53Z</time>
      </trkpt>
      <trkpt lat="49.09274" lon="-0.4172">
        <ele>15.6</ele>
        <time>2023-05-02T11:29:54Z</time>
      </trkpt>
      <trkpt lat="49.09269" lon="-0.41729">
        <ele>15.6</ele>
        <time>2023-05-02T11:29:55Z</time>
      </trkpt>
      <trkpt lat="49.09265" lon="-0.41737">
        <ele>15.2</ele>
        <time>2023-05-02T11:29:56Z</time>
      </trkpt>
      <trkpt lat="49.0926" lon="-0.41745">
        <ele>14.8</ele>
        <time>2023-05-02T11:29:57Z</time>
      </trkpt>
      <trkpt lat="49.09255" lon="-0.41753">
        <ele>14.6</ele>
        <time>2023-05-02T11:29:58Z</time>
      </trkpt>
      <trkpt lat="49.09251" lon="-0.41761">
        <ele>14.6</ele>
        <time>2023-05-02T11:29:59Z</time>
      </trkpt>
      <trkpt lat="49.09246" lon="-0.41769">
        <ele>14.6</ele>
        <time>2023-05-02T11:30:00Z</time>
      </trkpt>
      <trkpt lat="49.09242" lon="-0.41777">
        <ele>15</ele>
        <time>2023-05-02T11:30:01Z</time>
      </trkpt>
      <trkpt lat="49.09237" lon="-0.41785">
        <ele>15.2</ele>
        <time>2023-05-02T11:30:02Z</time>
      </trkpt>
      <trkpt lat="49.09233" lon="-0.41792">
        <ele>15.4</ele>
        <time>2023-05-02T11:30:03Z</time>
      </trkpt>
      <trkpt lat="49.09228" lon="-0.41801">
        <ele>15.6</ele>
        <time>2023-05-02T11:30:04Z</time>
      </trkpt>
      <trkpt lat="49.09223" lon="-0.41808">
        <ele>15.8</ele>
        <time>2023-05-02T11:30:05Z</time>
      </trkpt>
      <trkpt lat="49.09219" lon="-0.41816">
        <ele>15.8</ele>
        <time>2023-05-02T11:30:06Z</time>
      </trkpt>
      <trkpt lat="49.09214" lon="-0.41824">
        <ele>15.8</ele>
        <time>2023-05-02T11:30:07Z</time>
      </trkpt>
      <trkpt lat="49.09209" lon="-0.41832">
        <ele>16</ele>
        <time>2023-05-02T11:30:08Z</time>
      </trkpt>
      <trkpt lat="49.09204" lon="-0.4184">
        <ele>16.2</ele>
        <time>2023-05-02T11:30:09Z</time>
      </trkpt>
      <trkpt lat="49.092" lon="-0.41848">
        <ele>16.2</ele>
        <time>2023-05-02T11:30:10Z</time>
      </trkpt>
      <trkpt lat="49.09195" lon="-0.41856">
        <ele>16.2</ele>
        <time>2023-05-02T11:30:11Z</time>
      </trkpt>
      <trkpt lat="49.0919" lon="-0.41863">
        <ele>16</ele>
        <time>2023-05-02T11:30:12Z</time>
      </trkpt>
      <trkpt lat="49.09185" lon="-0.41871">
        <ele>15.6</ele>
        <time>2023-05-02T11:30:13Z</time>
      </trkpt>
      <trkpt lat="49.0918" lon="-0.41879">
        <ele>15.4</ele>
        <time>2023-05-02T11:30:14Z</time>
      </trkpt>
      <trkpt lat="49.09175" lon="-0.41887">
        <ele>14.8</ele>
        <time>2023-05-02T11:30:15Z</time>
      </trkpt>
      <trkpt lat="49.0917" lon="-0.41895">
        <ele>14.2</ele>
        <time>2023-05-02T11:30:16Z</time>
      </trkpt>
      <trkpt lat="49.09166" lon="-0.41903">
        <ele>13.6</ele>
        <time>2023-05-02T11:30:17Z</time>
      </trkpt>
      <trkpt lat="49.09161" lon="-0.4191">
        <ele>13.4</ele>
        <time>2023-05-02T11:30:18Z</time>
      </trkpt>
      <trkpt lat="49.09156" lon="-0.41918">
        <ele>13.4</ele>
        <time>2023-05-02T11:30:19Z</time>
      </trkpt>
      <trkpt lat="49.09151" lon="-0.41926">
        <ele>13.6</ele>
        <time>2023-05-02T11:30:20Z</time>
      </trkpt>
      <trkpt lat="49.09146" lon="-0.41934">
        <ele>14.2</ele>
        <time>2023-05-02T11:30:21Z</time>
      </trkpt>
      <trkpt lat="49.09141" lon="-0.41941">
        <ele>14.4</ele>
        <time>2023-05-02T11:30:22Z</time>
      </trkpt>
      <trkpt lat="49.09136" lon="-0.41949">
        <ele>14.6</ele>
        <time>2023-05-02T11:30:23Z</time>
      </trkpt>
      <trkpt lat="49.09131" lon="-0.41957">
        <ele>14.8</ele>
        <time>2023-05-02T11:30:24Z</time>
      </trkpt>
      <trkpt lat="49.09127" lon="-0.41965">
        <ele>15.2</ele>
        <time>2023-05-02T11:30:25Z</time>
      </trkpt>
      <trkpt lat="49.09122" lon="-0.41972">
        <ele>15.4</ele>
        <time>2023-05-02T11:30:26Z</time>
      </trkpt>
      <trkpt lat="49.09117" lon="-0.4198">
        <ele>15.4</ele>
        <time>2023-05-02T11:30:27Z</time>
      </trkpt>
      <trkpt lat="49.09112" lon="-0.41988">
        <ele>15.6</ele>
        <time>2023-05-02T11:30:28Z</time>
      </trkpt>
      <trkpt lat="49.09107" lon="-0.41995">
        <ele>15.6</ele>
        <time>2023-05-02T11:30:29Z</time>
      </trkpt>
      <trkpt lat="49.09102" lon="-0.42003">
        <ele>15.6</ele>
        <time>2023-05-02T11:30:30Z</time>
      </trkpt>
      <trkpt lat="49.09097" lon="-0.42011">
        <ele>15.6</ele>
        <time>2023-05-02T11:30:31Z</time>
      </trkpt>
      <trkpt lat="49.09092" lon="-0.42019">
        <ele>15.4</ele>
        <time>2023-05-02T11:30:32Z</time>
      </trkpt>
      <trkpt lat="49.09088" lon="-0.42027">
        <ele>15.2</ele>
        <time>2023-05-02T11:30:33Z</time>
      </trkpt>
      <trkpt lat="49.09083" lon="-0.42034">
        <ele>15</ele>
        <time>2023-05-02T11:30:34Z</time>
      </trkpt>
      <trkpt lat="49.09078" lon="-0.42042">
        <ele>15</ele>
        <time>2023-05-02T11:30:35Z</time>
      </trkpt>
      <trkpt lat="49.09072" lon="-0.42049">
        <ele>15.2</ele>
        <time>2023-05-02T11:30:36Z</time>
      </trkpt>
      <trkpt lat="49.09067" lon="-0.42057">
        <ele>15.2</ele>
        <time>2023-05-02T11:30:37Z</time>
      </trkpt>
      <trkpt lat="49.09062" lon="-0.42064">
        <ele>15.2</ele>
        <time>2023-05-02T11:30:38Z</time>
      </trkpt>
      <trkpt lat="49.09057" lon="-0.42071">
        <ele>15.2</ele>
        <time>2023-05-02T11:30:39Z</time>
      </trkpt>
      <trkpt lat="49.09052" lon="-0.42078">
        <ele>15</ele>
        <time>2023-05-02T11:30:40Z</time>
      </trkpt>
      <trkpt lat="49.09046" lon="-0.42085">
        <ele>15.2</ele>
        <time>2023-05-02T11:30:41Z</time>
      </trkpt>
      <trkpt lat="49.09041" lon="-0.42092">
        <ele>15.4</ele>
        <time>2023-05-02T11:30:42Z</time>
      </trkpt>
      <trkpt lat="49.09035" lon="-0.42099">
        <ele>15.6</ele>
        <time>2023-05-02T11:30:43Z</time>
      </trkpt>
      <trkpt lat="49.0903" lon="-0.42106">
        <ele>15.6</ele>
        <time>2023-05-02T11:30:44Z</time>
      </trkpt>
      <trkpt lat="49.09024" lon="-0.42112">
        <ele>15.6</ele>
        <time>2023-05-02T11:30:45Z</time>
      </trkpt>
      <trkpt lat="49.09019" lon="-0.42119">
        <ele>15.4</ele>
        <time>2023-05-02T11:30:46Z</time>
      </trkpt>
      <trkpt lat="49.09013" lon="-0.42125">
        <ele>15.2</ele>
        <time>2023-05-02T11:30:47Z</time>
      </trkpt>
      <trkpt lat="49.09007" lon="-0.42132">
        <ele>14.8</ele>
        <time>2023-05-02T11:30:48Z</time>
      </trkpt>
      <trkpt lat="49.09001" lon="-0.42138">
        <ele>14.4</ele>
        <time>2023-05-02T11:30:49Z</time>
      </trkpt>
      <trkpt lat="49.08996" lon="-0.42145">
        <ele>14.2</ele>
        <time>2023-05-02T11:30:50Z</time>
      </trkpt>
      <trkpt lat="49.0899" lon="-0.42151">
        <ele>14.2</ele>
        <time>2023-05-02T11:30:51Z</time>
      </trkpt>
      <trkpt lat="49.08984" lon="-0.42157">
        <ele>14</ele>
        <time>2023-05-02T11:30:52Z</time>
      </trkpt>
      <trkpt lat="49.08978" lon="-0.42163">
        <ele>13.8</ele>
        <time>2023-05-02T11:30:53Z</time>
      </trkpt>
      <trkpt lat="49.08972" lon="-0.42169">
        <ele>13.8</ele>
        <time>2023-05-02T11:30:54Z</time>
      </trkpt>
      <trkpt lat="49.08966" lon="-0.42175">
        <ele>14</ele>
        <time>2023-05-02T11:30:55Z</time>
      </trkpt>
      <trkpt lat="49.0896" lon="-0.42181">
        <ele>14.2</ele>
        <time>2023-05-02T11:30:56Z</time>
      </trkpt>
      <trkpt lat="49.08953" lon="-0.42187">
        <ele>14</ele>
        <time>2023-05-02T11:30:57Z</time>
      </trkpt>
      <trkpt lat="49.08947" lon="-0.42192">
        <ele>13.8</ele>
        <time>2023-05-02T11:30:58Z</time>
      </trkpt>
      <trkpt lat="49.08941" lon="-0.42198">
        <ele>13.8</ele>
        <time>2023-05-02T11:30:59Z</time>
      </trkpt>
      <trkpt lat="49.08935" lon="-0.42203">
        <ele>13.6</ele>
        <time>2023-05-02T11:31:00Z</time>
      </trkpt>
      <trkpt lat="49.08929" lon="-0.42209">
        <ele>13.2</ele>
        <time>2023-05-02T11:31:01Z</time>
      </trkpt>
      <trkpt lat="49.08922" lon="-0.42214">
        <ele>12.8</ele>
        <time>2023-05-02T11:31:02Z</time>
      </trkpt>
      <trkpt lat="49.08916" lon="-0.4222">
        <ele>12.4</ele>
        <time>2023-05-02T11:31:03Z</time>
      </trkpt>
      <trkpt lat="49.0891" lon="-0.42225">
        <ele>12.4</ele>
        <time>2023-05-02T11:31:04Z</time>
      </trkpt>
      <trkpt lat="49.08904" lon="-0.4223">
        <ele>12.4</ele>
        <time>2023-05-02T11:31:05Z</time>
      </trkpt>
      <trkpt lat="49.08898" lon="-0.42235">
        <ele>12.2</ele>
        <time>2023-05-02T11:31:06Z</time>
      </trkpt>
      <trkpt lat="49.08891" lon="-0.4224">
        <ele>12.2</ele>
        <time>2023-05-02T11:31:07Z</time>
      </trkpt>
      <trkpt lat="49.08885" lon="-0.42245">
        <ele>12.2</ele>
        <time>2023-05-02T11:31:08Z</time>
      </trkpt>
      <trkpt lat="49.08878" lon="-0.4225">
        <ele>12.4</ele>
        <time>2023-05-02T11:31:09Z</time>
      </trkpt>
      <trkpt lat="49.08872" lon="-0.42254">
        <ele>12.6</ele>
        <time>2023-05-02T11:31:10Z</time>
      </trkpt>
      <trkpt lat="49.08866" lon="-0.42259">
        <ele>12.8</ele>
        <time>2023-05-02T11:31:11Z</time>
      </trkpt>
      <trkpt lat="49.08859" lon="-0.42263">
        <ele>13.2</ele>
        <time>2023-05-02T11:31:12Z</time>
      </trkpt>
      <trkpt lat="49.08852" lon="-0.42267">
        <ele>13.4</ele>
        <time>2023-05-02T11:31:13Z</time>
      </trkpt>
      <trkpt lat="49.08846" lon="-0.42272">
        <ele>13.4</ele>
        <time>2023-05-02T11:31:14Z</time>
      </trkpt>
      <trkpt lat="49.08839" lon="-0.42276">
        <ele>13.6</ele>
        <time>2023-05-02T11:31:15Z</time>
      </trkpt>
      <trkpt lat="49.08832" lon="-0.4228">
        <ele>13.6</ele>
        <time>2023-05-02T11:31:16Z</time>
      </trkpt>
      <trkpt lat="49.08826" lon="-0.42284">
        <ele>13.6</ele>
        <time>2023-05-02T11:31:17Z</time>
      </trkpt>
      <trkpt lat="49.08819" lon="-0.42288">
        <ele>13.6</ele>
        <time>2023-05-02T11:31:18Z</time>
      </trkpt>
      <trkpt lat="49.08813" lon="-0.42292">
        <ele>13.6</ele>
        <time>2023-05-02T11:31:19Z</time>
      </trkpt>
      <trkpt lat="49.08806" lon="-0.42295">
        <ele>13.8</ele>
        <time>2023-05-02T11:31:20Z</time>
      </trkpt>
      <trkpt lat="49.08799" lon="-0.42299">
        <ele>13.8</ele>
        <time>2023-05-02T11:31:21Z</time>
      </trkpt>
      <trkpt lat="49.08793" lon="-0.42302">
        <ele>13.8</ele>
        <time>2023-05-02T11:31:22Z</time>
      </trkpt>
      <trkpt lat="49.08786" lon="-0.42304">
        <ele>13.8</ele>
        <time>2023-05-02T11:31:23Z</time>
      </trkpt>
      <trkpt lat="49.08778" lon="-0.42307">
        <ele>14</ele>
        <time>2023-05-02T11:31:24Z</time>
      </trkpt>
      <trkpt lat="49.08771" lon="-0.4231">
        <ele>14.2</ele>
        <time>2023-05-02T11:31:25Z</time>
      </trkpt>
      <trkpt lat="49.08763" lon="-0.42312">
        <ele>14.2</ele>
        <time>2023-05-02T11:31:26Z</time>
      </trkpt>
      <trkpt lat="49.08755" lon="-0.42315">
        <ele>14.2</ele>
        <time>2023-05-02T11:31:27Z</time>
      </trkpt>
      <trkpt lat="49.08747" lon="-0.42317">
        <ele>14.4</ele>
        <time>2023-05-02T11:31:28Z</time>
      </trkpt>
      <trkpt lat="49.08739" lon="-0.4232">
        <ele>14.4</ele>
        <time>2023-05-02T11:31:29Z</time>
      </trkpt>
      <trkpt lat="49.08732" lon="-0.42322">
        <ele>14.4</ele>
        <time>2023-05-02T11:31:30Z</time>
      </trkpt>
      <trkpt lat="49.08724" lon="-0.42323">
        <ele>14.6</ele>
        <time>2023-05-02T11:31:31Z</time>
      </trkpt>
      <trkpt lat="49.08717" lon="-0.42324">
        <ele>14.8</ele>
        <time>2023-05-02T11:31:32Z</time>
      </trkpt>
      <trkpt lat="49.0871" lon="-0.42324">
        <ele>15.2</ele>
        <time>2023-05-02T11:31:33Z</time>
      </trkpt>
      <trkpt lat="49.08703" lon="-0.42324">
        <ele>15.4</ele>
        <time>2023-05-02T11:31:34Z</time>
      </trkpt>
      <trkpt lat="49.08696" lon="-0.42326">
        <ele>15.6</ele>
        <time>2023-05-02T11:31:35Z</time>
      </trkpt>
      <trkpt lat="49.0869" lon="-0.42327">
        <ele>15.6</ele>
        <time>2023-05-02T11:31:36Z</time>
      </trkpt>
      <trkpt lat="49.08683" lon="-0.4233">
        <ele>15.6</ele>
        <time>2023-05-02T11:31:37Z</time>
      </trkpt>
      <trkpt lat="49.08676" lon="-0.42333">
        <ele>15.6</ele>
        <time>2023-05-02T11:31:38Z</time>
      </trkpt>
      <trkpt lat="49.08669" lon="-0.42335">
        <ele>15.6</ele>
        <time>2023-05-02T11:31:39Z</time>
      </trkpt>
      <trkpt lat="49.08662" lon="-0.42338">
        <ele>15.8</ele>
        <time>2023-05-02T11:31:40Z</time>
      </trkpt>
      <trkpt lat="49.08656" lon="-0.42341">
        <ele>15.8</ele>
        <time>2023-05-02T11:31:41Z</time>
      </trkpt>
      <trkpt lat="49.08649" lon="-0.42343">
        <ele>15.8</ele>
        <time>2023-05-02T11:31:42Z</time>
      </trkpt>
      <trkpt lat="49.08643" lon="-0.42346">
        <ele>16</ele>
        <time>2023-05-02T11:31:43Z</time>
      </trkpt>
      <trkpt lat="49.08636" lon="-0.42348">
        <ele>16</ele>
        <time>2023-05-02T11:31:44Z</time>
      </trkpt>
      <trkpt lat="49.0863" lon="-0.4235">
        <ele>16.2</ele>
        <time>2023-05-02T11:31:45Z</time>
      </trkpt>
      <trkpt lat="49.08623" lon="-0.42353">
        <ele>16.2</ele>
        <time>2023-05-02T11:31:46Z</time>
      </trkpt>
      <trkpt lat="49.08616" lon="-0.42355">
        <ele>16.2</ele>
        <time>2023-05-02T11:31:47Z</time>
      </trkpt>
      <trkpt lat="49.08609" lon="-0.42357">
        <ele>16.4</ele>
        <time>2023-05-02T11:31:48Z</time>
      </trkpt>
      <trkpt lat="49.08602" lon="-0.42359">
        <ele>16.6</ele>
        <time>2023-05-02T11:31:49Z</time>
      </trkpt>
      <trkpt lat="49.08596" lon="-0.4236">
        <ele>16.6</ele>
        <time>2023-05-02T11:31:50Z</time>
      </trkpt>
      <trkpt lat="49.0859" lon="-0.42362">
        <ele>16.8</ele>
        <time>2023-05-02T11:31:51Z</time>
      </trkpt>
      <trkpt lat="49.08585" lon="-0.42364">
        <ele>16.8</ele>
        <time>2023-05-02T11:31:52Z</time>
      </trkpt>
      <trkpt lat="49.08579" lon="-0.42365">
        <ele>16.8</ele>
        <time>2023-05-02T11:31:53Z</time>
      </trkpt>
      <trkpt lat="49.08574" lon="-0.42366">
        <ele>16.8</ele>
        <time>2023-05-02T11:31:54Z</time>
      </trkpt>
      <trkpt lat="49.08569" lon="-0.42367">
        <ele>16.8</ele>
        <time>2023-05-02T11:31:55Z</time>
      </trkpt>
      <trkpt lat="49.08564" lon="-0.42368">
        <ele>16.8</ele>
        <time>2023-05-02T11:31:56Z</time>
      </trkpt>
      <trkpt lat="49.08559" lon="-0.42369">
        <ele>16.8</ele>
        <time>2023-05-02T11:31:57Z</time>
      </trkpt>
      <trkpt lat="49.08555" lon="-0.4237">
        <ele>16.8</ele>
        <time>2023-05-02T11:31:58Z</time>
      </trkpt>
      <trkpt lat="49.08552" lon="-0.42371">
        <ele>16.8</ele>
        <time>2023-05-02T11:31:59Z</time>
      </trkpt>
      <trkpt lat="49.08549" lon="-0.42372">
        <ele>16.8</ele>
        <time>2023-05-02T11:32:00Z</time>
      </trkpt>
      <trkpt lat="49.08547" lon="-0.42373">
        <ele>16.6</ele>
        <time>2023-05-02T11:32:01Z</time>
      </trkpt>
      <trkpt lat="49.08546" lon="-0.42373">
        <ele>16.6</ele>
        <time>2023-05-02T11:32:02Z</time>
      </trkpt>
      <trkpt lat="49.08544" lon="-0.42373">
        <ele>16.6</ele>
        <time>2023-05-02T11:32:03Z</time>
      </trkpt>
      <trkpt lat="49.08541" lon="-0.42374">
        <ele>16.6</ele>
        <time>2023-05-02T11:32:04Z</time>
      </trkpt>
      <trkpt lat="49.08539" lon="-0.42375">
        <ele>16.6</ele>
        <time>2023-05-02T11:32:05Z</time>
      </trkpt>
      <trkpt lat="49.08537" lon="-0.42376">
        <ele>16.6</ele>
        <time>2023-05-02T11:32:06Z</time>
      </trkpt>
      <trkpt lat="49.08535" lon="-0.42376">
        <ele>16.6</ele>
        <time>2023-05-02T11:32:07Z</time>
      </trkpt>
      <trkpt lat="49.08534" lon="-0.42376">
        <ele>16.6</ele>
        <time>2023-05-02T11:32:08Z</time>
      </trkpt>
      <trkpt lat="49.08532" lon="-0.42376">
        <ele>16.6</ele>
        <time>2023-05-02T11:32:09Z</time>
      </trkpt>
      <trkpt lat="49.0853" lon="-0.42376">
        <ele>16.6</ele>
        <time>2023-05-02T11:32:10Z</time>
      </trkpt>
      <trkpt lat="49.08528" lon="-0.42377">
        <ele>16.4</ele>
        <time>2023-05-02T11:32:11Z</time>
      </trkpt>
      <trkpt lat="49.08526" lon="-0.42378">
        <ele>16.2</ele>
        <time>2023-05-02T11:32:12Z</time>
      </trkpt>
      <trkpt lat="49.08522" lon="-0.4238">
        <ele>16.2</ele>
        <time>2023-05-02T11:32:13Z</time>
      </trkpt>
      <trkpt lat="49.08519" lon="-0.42381">
        <ele>16.2</ele>
        <time>2023-05-02T11:32:14Z</time>
      </trkpt>
      <trkpt lat="49.08515" lon="-0.42382">
        <ele>16</ele>
        <time>2023-05-02T11:32:15Z</time>
      </trkpt>
      <trkpt lat="49.08511" lon="-0.42384">
        <ele>15.8</ele>
        <time>2023-05-02T11:32:16Z</time>
      </trkpt>
      <trkpt lat="49.08506" lon="-0.42385">
        <ele>15.8</ele>
        <time>2023-05-02T11:32:17Z</time>
      </trkpt>
      <trkpt lat="49.08501" lon="-0.42386">
        <ele>15.6</ele>
        <time>2023-05-02T11:32:18Z</time>
      </trkpt>
      <trkpt lat="49.08496" lon="-0.42387">
        <ele>15.6</ele>
        <time>2023-05-02T11:32:19Z</time>
      </trkpt>
      <trkpt lat="49.08491" lon="-0.42388">
        <ele>15.2</ele>
        <time>2023-05-02T11:32:20Z</time>
      </trkpt>
      <trkpt lat="49.08486" lon="-0.4239">
        <ele>14.8</ele>
        <time>2023-05-02T11:32:21Z</time>
      </trkpt>
      <trkpt lat="49.08481" lon="-0.42392">
        <ele>14.6</ele>
        <time>2023-05-02T11:32:22Z</time>
      </trkpt>
      <trkpt lat="49.08476" lon="-0.42394">
        <ele>14.2</ele>
        <time>2023-05-02T11:32:23Z</time>
      </trkpt>
      <trkpt lat="49.08471" lon="-0.42397">
        <ele>13.8</ele>
        <time>2023-05-02T11:32:24Z</time>
      </trkpt>
      <trkpt lat="49.08466" lon="-0.42399">
        <ele>13.4</ele>
        <time>2023-05-02T11:32:25Z</time>
      </trkpt>
      <trkpt lat="49.08461" lon="-0.42402">
        <ele>12.8</ele>
        <time>2023-05-02T11:32:26Z</time>
      </trkpt>
      <trkpt lat="49.08456" lon="-0.42405">
        <ele>12.6</ele>
        <time>2023-05-02T11:32:27Z</time>
      </trkpt>
      <trkpt lat="49.0845" lon="-0.42407">
        <ele>12</ele>
        <time>2023-05-02T11:32:28Z</time>
      </trkpt>
      <trkpt lat="49.08445" lon="-0.4241">
        <ele>11.6</ele>
        <time>2023-05-02T11:32:29Z</time>
      </trkpt>
      <trkpt lat="49.08439" lon="-0.42412">
        <ele>11.2</ele>
        <time>2023-05-02T11:32:30Z</time>
      </trkpt>
      <trkpt lat="49.08433" lon="-0.42415">
        <ele>10.6</ele>
        <time>2023-05-02T11:32:31Z</time>
      </trkpt>
      <trkpt lat="49.08427" lon="-0.42417">
        <ele>10.2</ele>
        <time>2023-05-02T11:32:32Z</time>
      </trkpt>
      <trkpt lat="49.08421" lon="-0.4242">
        <ele>10.2</ele>
        <time>2023-05-02T11:32:33Z</time>
      </trkpt>
      <trkpt lat="49.08415" lon="-0.42422">
        <ele>10.2</ele>
        <time>2023-05-02T11:32:34Z</time>
      </trkpt>
      <trkpt lat="49.08409" lon="-0.42425">
        <ele>10.4</ele>
        <time>2023-05-02T11:32:35Z</time>
      </trkpt>
      <trkpt lat="49.08402" lon="-0.42427">
        <ele>10.4</ele>
        <time>2023-05-02T11:32:36Z</time>
      </trkpt>
      <trkpt lat="49.08396" lon="-0.4243">
        <ele>10.6</ele>
        <time>2023-05-02T11:32:37Z</time>
      </trkpt>
      <trkpt lat="49.0839" lon="-0.42432">
        <ele>10.8</ele>
        <time>2023-05-02T11:32:38Z</time>
      </trkpt>
      <trkpt lat="49.08383" lon="-0.42435">
        <ele>10.8</ele>
        <time>2023-05-02T11:32:39Z</time>
      </trkpt>
      <trkpt lat="49.08377" lon="-0.42438">
        <ele>11.2</ele>
        <time>2023-05-02T11:32:40Z</time>
      </trkpt>
      <trkpt lat="49.08371" lon="-0.42441">
        <ele>11.2</ele>
        <time>2023-05-02T11:32:41Z</time>
      </trkpt>
      <trkpt lat="49.08365" lon="-0.42444">
        <ele>11.4</ele>
        <time>2023-05-02T11:32:42Z</time>
      </trkpt>
      <trkpt lat="49.08358" lon="-0.42447">
        <ele>11.4</ele>
        <time>2023-05-02T11:32:43Z</time>
      </trkpt>
      <trkpt lat="49.08352" lon="-0.42451">
        <ele>11.4</ele>
        <time>2023-05-02T11:32:44Z</time>
      </trkpt>
      <trkpt lat="49.08345" lon="-0.42454">
        <ele>11.4</ele>
        <time>2023-05-02T11:32:45Z</time>
      </trkpt>
      <trkpt lat="49.08339" lon="-0.42457">
        <ele>11.4</ele>
        <time>2023-05-02T11:32:46Z</time>
      </trkpt>
      <trkpt lat="49.08333" lon="-0.4246">
        <ele>11.6</ele>
        <time>2023-05-02T11:32:47Z</time>
      </trkpt>
      <trkpt lat="49.08326" lon="-0.42463">
        <ele>11.8</ele>
        <time>2023-05-02T11:32:48Z</time>
      </trkpt>
      <trkpt lat="49.0832" lon="-0.42466">
        <ele>12.2</ele>
        <time>2023-05-02T11:32:49Z</time>
      </trkpt>
      <trkpt lat="49.08314" lon="-0.42469">
        <ele>12.4</ele>
        <time>2023-05-02T11:32:50Z</time>
      </trkpt>
      <trkpt lat="49.08308" lon="-0.42472">
        <ele>12.6</ele>
        <time>2023-05-02T11:32:51Z</time>
      </trkpt>
      <trkpt lat="49.08301" lon="-0.42474">
        <ele>12.8</ele>
        <time>2023-05-02T11:32:52Z</time>
      </trkpt>
      <trkpt lat="49.08295" lon="-0.42477">
        <ele>13.2</ele>
        <time>2023-05-02T11:32:53Z</time>
      </trkpt>
      <trkpt lat="49.08289" lon="-0.42479">
        <ele>13.4</ele>
        <time>2023-05-02T11:32:54Z</time>
      </trkpt>
      <trkpt lat="49.08283" lon="-0.42482">
        <ele>13.4</ele>
        <time>2023-05-02T11:32:55Z</time>
      </trkpt>
      <trkpt lat="49.08277" lon="-0.42485">
        <ele>13.4</ele>
        <time>2023-05-02T11:32:56Z</time>
      </trkpt>
      <trkpt lat="49.08271" lon="-0.42488">
        <ele>13.4</ele>
        <time>2023-05-02T11:32:57Z</time>
      </trkpt>
      <trkpt lat="49.08264" lon="-0.42492">
        <ele>13.4</ele>
        <time>2023-05-02T11:32:58Z</time>
      </trkpt>
      <trkpt lat="49.08258" lon="-0.42497">
        <ele>13.2</ele>
        <time>2023-05-02T11:32:59Z</time>
      </trkpt>
      <trkpt lat="49.08252" lon="-0.42501">
        <ele>12.8</ele>
        <time>2023-05-02T11:33:00Z</time>
      </trkpt>
      <trkpt lat="49.08245" lon="-0.42506">
        <ele>13.2</ele>
        <time>2023-05-02T11:33:01Z</time>
      </trkpt>
      <trkpt lat="49.08239" lon="-0.42511">
        <ele>13.6</ele>
        <time>2023-05-02T11:33:02Z</time>
      </trkpt>
      <trkpt lat="49.08232" lon="-0.42515">
        <ele>13.8</ele>
        <time>2023-05-02T11:33:03Z</time>
      </trkpt>
      <trkpt lat="49.08226" lon="-0.42519">
        <ele>14.2</ele>
        <time>2023-05-02T11:33:04Z</time>
      </trkpt>
      <trkpt lat="49.08219" lon="-0.42522">
        <ele>14.6</ele>
        <time>2023-05-02T11:33:05Z</time>
      </trkpt>
      <trkpt lat="49.08212" lon="-0.42525">
        <ele>14.8</ele>
        <time>2023-05-02T11:33:06Z</time>
      </trkpt>
      <trkpt lat="49.08206" lon="-0.42527">
        <ele>15.2</ele>
        <time>2023-05-02T11:33:07Z</time>
      </trkpt>
      <trkpt lat="49.08199" lon="-0.42529">
        <ele>15.4</ele>
        <time>2023-05-02T11:33:08Z</time>
      </trkpt>
      <trkpt lat="49.08192" lon="-0.42532">
        <ele>15.6</ele>
        <time>2023-05-02T11:33:09Z</time>
      </trkpt>
      <trkpt lat="49.08185" lon="-0.42535">
        <ele>15.6</ele>
        <time>2023-05-02T11:33:10Z</time>
      </trkpt>
      <trkpt lat="49.08179" lon="-0.42537">
        <ele>15.8</ele>
        <time>2023-05-02T11:33:11Z</time>
      </trkpt>
      <trkpt lat="49.08172" lon="-0.4254">
        <ele>15.8</ele>
        <time>2023-05-02T11:33:12Z</time>
      </trkpt>
      <trkpt lat="49.08166" lon="-0.42544">
        <ele>15.8</ele>
        <time>2023-05-02T11:33:13Z</time>
      </trkpt>
      <trkpt lat="49.0816" lon="-0.42547">
        <ele>15.8</ele>
        <time>2023-05-02T11:33:14Z</time>
      </trkpt>
      <trkpt lat="49.08154" lon="-0.42551">
        <ele>15.8</ele>
        <time>2023-05-02T11:33:15Z</time>
      </trkpt>
      <trkpt lat="49.08147" lon="-0.42556">
        <ele>16</ele>
        <time>2023-05-02T11:33:16Z</time>
      </trkpt>
      <trkpt lat="49.08141" lon="-0.4256">
        <ele>16</ele>
        <time>2023-05-02T11:33:17Z</time>
      </trkpt>
      <trkpt lat="49.08135" lon="-0.42564">
        <ele>16.2</ele>
        <time>2023-05-02T11:33:18Z</time>
      </trkpt>
      <trkpt lat="49.08129" lon="-0.42568">
        <ele>16.2</ele>
        <time>2023-05-02T11:33:19Z</time>
      </trkpt>
      <trkpt lat="49.08123" lon="-0.42572">
        <ele>16.2</ele>
        <time>2023-05-02T11:33:20Z</time>
      </trkpt>
      <trkpt lat="49.08117" lon="-0.42576">
        <ele>16.2</ele>
        <time>2023-05-02T11:33:21Z</time>
      </trkpt>
      <trkpt lat="49.0811" lon="-0.4258">
        <ele>16.6</ele>
        <time>2023-05-02T11:33:22Z</time>
      </trkpt>
      <trkpt lat="49.08104" lon="-0.42584">
        <ele>16.8</ele>
        <time>2023-05-02T11:33:23Z</time>
      </trkpt>
      <trkpt lat="49.08098" lon="-0.42587">
        <ele>17.2</ele>
        <time>2023-05-02T11:33:24Z</time>
      </trkpt>
      <trkpt lat="49.08091" lon="-0.42591">
        <ele>17.4</ele>
        <time>2023-05-02T11:33:25Z</time>
      </trkpt>
      <trkpt lat="49.08085" lon="-0.42595">
        <ele>17.6</ele>
        <time>2023-05-02T11:33:26Z</time>
      </trkpt>
      <trkpt lat="49.08079" lon="-0.42598">
        <ele>17.8</ele>
        <time>2023-05-02T11:33:27Z</time>
      </trkpt>
      <trkpt lat="49.08073" lon="-0.42602">
        <ele>17.8</ele>
        <time>2023-05-02T11:33:28Z</time>
      </trkpt>
      <trkpt lat="49.08066" lon="-0.42606">
        <ele>17.8</ele>
        <time>2023-05-02T11:33:29Z</time>
      </trkpt>
      <trkpt lat="49.0806" lon="-0.4261">
        <ele>17.8</ele>
        <time>2023-05-02T11:33:30Z</time>
      </trkpt>
      <trkpt lat="49.08054" lon="-0.42614">
        <ele>17.8</ele>
        <time>2023-05-02T11:33:31Z</time>
      </trkpt>
      <trkpt lat="49.08048" lon="-0.42618">
        <ele>17.6</ele>
        <time>2023-05-02T11:33:32Z</time>
      </trkpt>
      <trkpt lat="49.08041" lon="-0.42621">
        <ele>17.6</ele>
        <time>2023-05-02T11:33:33Z</time>
      </trkpt>
      <trkpt lat="49.08035" lon="-0.42625">
        <ele>17.4</ele>
        <time>2023-05-02T11:33:34Z</time>
      </trkpt>
      <trkpt lat="49.08028" lon="-0.42629">
        <ele>17.2</ele>
        <time>2023-05-02T11:33:35Z</time>
      </trkpt>
      <trkpt lat="49.08022" lon="-0.42633">
        <ele>17.2</ele>
        <time>2023-05-02T11:33:36Z</time>
      </trkpt>
      <trkpt lat="49.08015" lon="-0.42637">
        <ele>16.8</ele>
        <time>2023-05-02T11:33:37Z</time>
      </trkpt>
      <trkpt lat="49.08009" lon="-0.4264">
        <ele>16.8</ele>
        <time>2023-05-02T11:33:38Z</time>
      </trkpt>
      <trkpt lat="49.08002" lon="-0.42644">
        <ele>16.4</ele>
        <time>2023-05-02T11:33:39Z</time>
      </trkpt>
      <trkpt lat="49.07996" lon="-0.42648">
        <ele>16.2</ele>
        <time>2023-05-02T11:33:40Z</time>
      </trkpt>
      <trkpt lat="49.07989" lon="-0.42652">
        <ele>16.2</ele>
        <time>2023-05-02T11:33:41Z</time>
      </trkpt>
      <trkpt lat="49.07983" lon="-0.42655">
        <ele>16</ele>
        <time>2023-05-02T11:33:42Z</time>
      </trkpt>
      <trkpt lat="49.07976" lon="-0.42659">
        <ele>15.8</ele>
        <time>2023-05-02T11:33:43Z</time>
      </trkpt>
      <trkpt lat="49.0797" lon="-0.42663">
        <ele>15.6</ele>
        <time>2023-05-02T11:33:44Z</time>
      </trkpt>
      <trkpt lat="49.07963" lon="-0.42667">
        <ele>15.6</ele>
        <time>2023-05-02T11:33:45Z</time>
      </trkpt>
      <trkpt lat="49.07957" lon="-0.42671">
        <ele>15.6</ele>
        <time>2023-05-02T11:33:46Z</time>
      </trkpt>
      <trkpt lat="49.07951" lon="-0.42675">
        <ele>15.8</ele>
        <time>2023-05-02T11:33:47Z</time>
      </trkpt>
      <trkpt lat="49.07944" lon="-0.42679">
        <ele>15.8</ele>
        <time>2023-05-02T11:33:48Z</time>
      </trkpt>
      <trkpt lat="49.07938" lon="-0.42682">
        <ele>15.8</ele>
        <time>2023-05-02T11:33:49Z</time>
      </trkpt>
      <trkpt lat="49.07932" lon="-0.42686">
        <ele>15.6</ele>
        <time>2023-05-02T11:33:50Z</time>
      </trkpt>
      <trkpt lat="49.07926" lon="-0.4269">
        <ele>15.6</ele>
        <time>2023-05-02T11:33:51Z</time>
      </trkpt>
      <trkpt lat="49.07919" lon="-0.42694">
        <ele>15.4</ele>
        <time>2023-05-02T11:33:52Z</time>
      </trkpt>
      <trkpt lat="49.07913" lon="-0.42698">
        <ele>15.2</ele>
        <time>2023-05-02T11:33:53Z</time>
      </trkpt>
      <trkpt lat="49.07907" lon="-0.42701">
        <ele>15.2</ele>
        <time>2023-05-02T11:33:54Z</time>
      </trkpt>
      <trkpt lat="49.07901" lon="-0.42705">
        <ele>15.2</ele>
        <time>2023-05-02T11:33:55Z</time>
      </trkpt>
      <trkpt lat="49.07894" lon="-0.42709">
        <ele>15.2</ele>
        <time>2023-05-02T11:33:56Z</time>
      </trkpt>
      <trkpt lat="49.07888" lon="-0.42713">
        <ele>15.2</ele>
        <time>2023-05-02T11:33:57Z</time>
      </trkpt>
      <trkpt lat="49.07882" lon="-0.42717">
        <ele>15</ele>
        <time>2023-05-02T11:33:58Z</time>
      </trkpt>
      <trkpt lat="49.07876" lon="-0.4272">
        <ele>14.8</ele>
        <time>2023-05-02T11:33:59Z</time>
      </trkpt>
      <trkpt lat="49.0787" lon="-0.42724">
        <ele>14.6</ele>
        <time>2023-05-02T11:34:00Z</time>
      </trkpt>
      <trkpt lat="49.07864" lon="-0.42728">
        <ele>14.6</ele>
        <time>2023-05-02T11:34:01Z</time>
      </trkpt>
      <trkpt lat="49.07858" lon="-0.42732">
        <ele>14.4</ele>
        <time>2023-05-02T11:34:02Z</time>
      </trkpt>
      <trkpt lat="49.07852" lon="-0.42735">
        <ele>14.2</ele>
        <time>2023-05-02T11:34:03Z</time>
      </trkpt>
      <trkpt lat="49.07846" lon="-0.42739">
        <ele>14</ele>
        <time>2023-05-02T11:34:04Z</time>
      </trkpt>
      <trkpt lat="49.0784" lon="-0.42743">
        <ele>13.8</ele>
        <time>2023-05-02T11:34:05Z</time>
      </trkpt>
      <trkpt lat="49.07834" lon="-0.42746">
        <ele>13.6</ele>
        <time>2023-05-02T11:34:06Z</time>
      </trkpt>
      <trkpt lat="49.07828" lon="-0.4275">
        <ele>13.6</ele>
        <time>2023-05-02T11:34:07Z</time>
      </trkpt>
      <trkpt lat="49.07822" lon="-0.42754">
        <ele>14.2</ele>
        <time>2023-05-02T11:34:08Z</time>
      </trkpt>
      <trkpt lat="49.07816" lon="-0.42757">
        <ele>14.6</ele>
        <time>2023-05-02T11:34:09Z</time>
      </trkpt>
      <trkpt lat="49.0781" lon="-0.42761">
        <ele>14.8</ele>
        <time>2023-05-02T11:34:10Z</time>
      </trkpt>
      <trkpt lat="49.07804" lon="-0.42764">
        <ele>15.2</ele>
        <time>2023-05-02T11:34:11Z</time>
      </trkpt>
      <trkpt lat="49.07798" lon="-0.42768">
        <ele>15.4</ele>
        <time>2023-05-02T11:34:12Z</time>
      </trkpt>
      <trkpt lat="49.07793" lon="-0.42772">
        <ele>15.6</ele>
        <time>2023-05-02T11:34:13Z</time>
      </trkpt>
      <trkpt lat="49.07787" lon="-0.42775">
        <ele>15.6</ele>
        <time>2023-05-02T11:34:14Z</time>
      </trkpt>
      <trkpt lat="49.07781" lon="-0.42779">
        <ele>15.6</ele>
        <time>2023-05-02T11:34:15Z</time>
      </trkpt>
      <trkpt lat="49.07775" lon="-0.42783">
        <ele>15.6</ele>
        <time>2023-05-02T11:34:16Z</time>
      </trkpt>
      <trkpt lat="49.07769" lon="-0.42786">
        <ele>15.6</ele>
        <time>2023-05-02T11:34:17Z</time>
      </trkpt>
      <trkpt lat="49.07763" lon="-0.4279">
        <ele>15.6</ele>
        <time>2023-05-02T11:34:18Z</time>
      </trkpt>
      <trkpt lat="49.07757" lon="-0.42794">
        <ele>15.4</ele>
        <time>2023-05-02T11:34:19Z</time>
      </trkpt>
      <trkpt lat="49.0775" lon="-0.42798">
        <ele>15.2</ele>
        <time>2023-05-02T11:34:20Z</time>
      </trkpt>
      <trkpt lat="49.07744" lon="-0.42802">
        <ele>15</ele>
        <time>2023-05-02T11:34:21Z</time>
      </trkpt>
      <trkpt lat="49.07738" lon="-0.42806">
        <ele>15</ele>
        <time>2023-05-02T11:34:22Z</time>
      </trkpt>
      <trkpt lat="49.07732" lon="-0.4281">
        <ele>14.8</ele>
        <time>2023-05-02T11:34:23Z</time>
      </trkpt>
      <trkpt lat="49.07726" lon="-0.42814">
        <ele>14.8</ele>
        <time>2023-05-02T11:34:24Z</time>
      </trkpt>
      <trkpt lat="49.07719" lon="-0.42818">
        <ele>14.6</ele>
        <time>2023-05-02T11:34:25Z</time>
      </trkpt>
      <trkpt lat="49.07713" lon="-0.42821">
        <ele>14.6</ele>
        <time>2023-05-02T11:34:26Z</time>
      </trkpt>
      <trkpt lat="49.07707" lon="-0.42825">
        <ele>14.4</ele>
        <time>2023-05-02T11:34:27Z</time>
      </trkpt>
      <trkpt lat="49.07701" lon="-0.42829">
        <ele>14.4</ele>
        <time>2023-05-02T11:34:28Z</time>
      </trkpt>
      <trkpt lat="49.07695" lon="-0.42833">
        <ele>14.2</ele>
        <time>2023-05-02T11:34:29Z</time>
      </trkpt>
      <trkpt lat="49.07689" lon="-0.42836">
        <ele>14.4</ele>
        <time>2023-05-02T11:34:30Z</time>
      </trkpt>
      <trkpt lat="49.07683" lon="-0.4284">
        <ele>14.6</ele>
        <time>2023-05-02T11:34:31Z</time>
      </trkpt>
      <trkpt lat="49.07676" lon="-0.42844">
        <ele>14.8</ele>
        <time>2023-05-02T11:34:32Z</time>
      </trkpt>
      <trkpt lat="49.0767" lon="-0.42847">
        <ele>15</ele>
        <time>2023-05-02T11:34:33Z</time>
      </trkpt>
      <trkpt lat="49.07664" lon="-0.42851">
        <ele>15.2</ele>
        <time>2023-05-02T11:34:34Z</time>
      </trkpt>
      <trkpt lat="49.07658" lon="-0.42855">
        <ele>15.6</ele>
        <time>2023-05-02T11:34:35Z</time>
      </trkpt>
      <trkpt lat="49.07652" lon="-0.42858">
        <ele>15.8</ele>
        <time>2023-05-02T11:34:36Z</time>
      </trkpt>
      <trkpt lat="49.07646" lon="-0.42862">
        <ele>16.2</ele>
        <time>2023-05-02T11:34:37Z</time>
      </trkpt>
      <trkpt lat="49.0764" lon="-0.42865">
        <ele>16.2</ele>
        <time>2023-05-02T11:34:38Z</time>
      </trkpt>
      <trkpt lat="49.07634" lon="-0.42869">
        <ele>16.6</ele>
        <time>2023-05-02T11:34:39Z</time>
      </trkpt>
      <trkpt lat="49.07627" lon="-0.42873">
        <ele>16.6</ele>
        <time>2023-05-02T11:34:40Z</time>
      </trkpt>
      <trkpt lat="49.07621" lon="-0.42876">
        <ele>16.6</ele>
        <time>2023-05-02T11:34:41Z</time>
      </trkpt>
      <trkpt lat="49.07615" lon="-0.4288">
        <ele>16.6</ele>
        <time>2023-05-02T11:34:42Z</time>
      </trkpt>
      <trkpt lat="49.07609" lon="-0.42884">
        <ele>16.6</ele>
        <time>2023-05-02T11:34:43Z</time>
      </trkpt>
      <trkpt lat="49.07603" lon="-0.42887">
        <ele>16.6</ele>
        <time>2023-05-02T11:34:44Z</time>
      </trkpt>
      <trkpt lat="49.07597" lon="-0.42891">
        <ele>16.2</ele>
        <time>2023-05-02T11:34:45Z</time>
      </trkpt>
      <trkpt lat="49.07591" lon="-0.42894">
        <ele>16.2</ele>
        <time>2023-05-02T11:34:46Z</time>
      </trkpt>
      <trkpt lat="49.07585" lon="-0.42898">
        <ele>15.8</ele>
        <time>2023-05-02T11:34:47Z</time>
      </trkpt>
      <trkpt lat="49.07579" lon="-0.42902">
        <ele>15.8</ele>
        <time>2023-05-02T11:34:48Z</time>
      </trkpt>
      <trkpt lat="49.07573" lon="-0.42906">
        <ele>16</ele>
        <time>2023-05-02T11:34:49Z</time>
      </trkpt>
      <trkpt lat="49.07567" lon="-0.42909">
        <ele>16.2</ele>
        <time>2023-05-02T11:34:50Z</time>
      </trkpt>
      <trkpt lat="49.07561" lon="-0.42913">
        <ele>16.2</ele>
        <time>2023-05-02T11:34:51Z</time>
      </trkpt>
      <trkpt lat="49.07555" lon="-0.42917">
        <ele>16.4</ele>
        <time>2023-05-02T11:34:52Z</time>
      </trkpt>
      <trkpt lat="49.07549" lon="-0.42921">
        <ele>16.8</ele>
        <time>2023-05-02T11:34:53Z</time>
      </trkpt>
      <trkpt lat="49.07543" lon="-0.42924">
        <ele>17.2</ele>
        <time>2023-05-02T11:34:54Z</time>
      </trkpt>
      <trkpt lat="49.07537" lon="-0.42928">
        <ele>17.6</ele>
        <time>2023-05-02T11:34:55Z</time>
      </trkpt>
      <trkpt lat="49.07531" lon="-0.42932">
        <ele>17.8</ele>
        <time>2023-05-02T11:34:56Z</time>
      </trkpt>
      <trkpt lat="49.07525" lon="-0.42936">
        <ele>17.8</ele>
        <time>2023-05-02T11:34:57Z</time>
      </trkpt>
      <trkpt lat="49.07519" lon="-0.4294">
        <ele>17.8</ele>
        <time>2023-05-02T11:34:58Z</time>
      </trkpt>
      <trkpt lat="49.07512" lon="-0.42943">
        <ele>17.8</ele>
        <time>2023-05-02T11:34:59Z</time>
      </trkpt>
      <trkpt lat="49.07506" lon="-0.42947">
        <ele>17.8</ele>
        <time>2023-05-02T11:35:00Z</time>
      </trkpt>
      <trkpt lat="49.075" lon="-0.42951">
        <ele>17.8</ele>
        <time>2023-05-02T11:35:01Z</time>
      </trkpt>
      <trkpt lat="49.07494" lon="-0.42955">
        <ele>17.8</ele>
        <time>2023-05-02T11:35:02Z</time>
      </trkpt>
      <trkpt lat="49.07488" lon="-0.42959">
        <ele>17.8</ele>
        <time>2023-05-02T11:35:03Z</time>
      </trkpt>
      <trkpt lat="49.07482" lon="-0.42963">
        <ele>18</ele>
        <time>2023-05-02T11:35:04Z</time>
      </trkpt>
      <trkpt lat="49.07476" lon="-0.42966">
        <ele>18</ele>
        <time>2023-05-02T11:35:05Z</time>
      </trkpt>
      <trkpt lat="49.0747" lon="-0.4297">
        <ele>18</ele>
        <time>2023-05-02T11:35:06Z</time>
      </trkpt>
      <trkpt lat="49.07463" lon="-0.42974">
        <ele>18</ele>
        <time>2023-05-02T11:35:07Z</time>
      </trkpt>
      <trkpt lat="49.07457" lon="-0.42978">
        <ele>17.8</ele>
        <time>2023-05-02T11:35:08Z</time>
      </trkpt>
      <trkpt lat="49.07451" lon="-0.42981">
        <ele>17.8</ele>
        <time>2023-05-02T11:35:09Z</time>
      </trkpt>
      <trkpt lat="49.07445" lon="-0.42985">
        <ele>17.8</ele>
        <time>2023-05-02T11:35:10Z</time>
      </trkpt>
      <trkpt lat="49.07438" lon="-0.42988">
        <ele>17.8</ele>
        <time>2023-05-02T11:35:11Z</time>
      </trkpt>
      <trkpt lat="49.07432" lon="-0.42991">
        <ele>17.6</ele>
        <time>2023-05-02T11:35:12Z</time>
      </trkpt>
      <trkpt lat="49.07426" lon="-0.42995">
        <ele>17.4</ele>
        <time>2023-05-02T11:35:13Z</time>
      </trkpt>
      <trkpt lat="49.0742" lon="-0.42998">
        <ele>17.2</ele>
        <time>2023-05-02T11:35:14Z</time>
      </trkpt>
      <trkpt lat="49.07414" lon="-0.43002">
        <ele>17.4</ele>
        <time>2023-05-02T11:35:15Z</time>
      </trkpt>
      <trkpt lat="49.07407" lon="-0.43005">
        <ele>18.2</ele>
        <time>2023-05-02T11:35:16Z</time>
      </trkpt>
      <trkpt lat="49.07401" lon="-0.43009">
        <ele>18.8</ele>
        <time>2023-05-02T11:35:17Z</time>
      </trkpt>
      <trkpt lat="49.07395" lon="-0.43012">
        <ele>19.2</ele>
        <time>2023-05-02T11:35:18Z</time>
      </trkpt>
      <trkpt lat="49.07389" lon="-0.43016">
        <ele>19.8</ele>
        <time>2023-05-02T11:35:19Z</time>
      </trkpt>
      <trkpt lat="49.07384" lon="-0.43019">
        <ele>20.2</ele>
        <time>2023-05-02T11:35:20Z</time>
      </trkpt>
      <trkpt lat="49.07378" lon="-0.43023">
        <ele>20.4</ele>
        <time>2023-05-02T11:35:21Z</time>
      </trkpt>
      <trkpt lat="49.07372" lon="-0.43027">
        <ele>20.6</ele>
        <time>2023-05-02T11:35:22Z</time>
      </trkpt>
      <trkpt lat="49.07367" lon="-0.43031">
        <ele>20.8</ele>
        <time>2023-05-02T11:35:23Z</time>
      </trkpt>
      <trkpt lat="49.07361" lon="-0.43035">
        <ele>20.8</ele>
        <time>2023-05-02T11:35:24Z</time>
      </trkpt>
      <trkpt lat="49.07356" lon="-0.43038">
        <ele>20.8</ele>
        <time>2023-05-02T11:35:25Z</time>
      </trkpt>
      <trkpt lat="49.0735" lon="-0.43043">
        <ele>20.8</ele>
        <time>2023-05-02T11:35:26Z</time>
      </trkpt>
      <trkpt lat="49.07345" lon="-0.43047">
        <ele>20.8</ele>
        <time>2023-05-02T11:35:27Z</time>
      </trkpt>
      <trkpt lat="49.07339" lon="-0.43051">
        <ele>20.6</ele>
        <time>2023-05-02T11:35:28Z</time>
      </trkpt>
      <trkpt lat="49.07333" lon="-0.43055">
        <ele>20.4</ele>
        <time>2023-05-02T11:35:29Z</time>
      </trkpt>
      <trkpt lat="49.07328" lon="-0.43059">
        <ele>19.8</ele>
        <time>2023-05-02T11:35:30Z</time>
      </trkpt>
      <trkpt lat="49.07322" lon="-0.43064">
        <ele>19.6</ele>
        <time>2023-05-02T11:35:31Z</time>
      </trkpt>
      <trkpt lat="49.07316" lon="-0.43068">
        <ele>19</ele>
        <time>2023-05-02T11:35:32Z</time>
      </trkpt>
      <trkpt lat="49.0731" lon="-0.43073">
        <ele>18.6</ele>
        <time>2023-05-02T11:35:33Z</time>
      </trkpt>
      <trkpt lat="49.07304" lon="-0.43078">
        <ele>18.2</ele>
        <time>2023-05-02T11:35:34Z</time>
      </trkpt>
      <trkpt lat="49.07299" lon="-0.43082">
        <ele>17.8</ele>
        <time>2023-05-02T11:35:35Z</time>
      </trkpt>
      <trkpt lat="49.07293" lon="-0.43087">
        <ele>17.6</ele>
        <time>2023-05-02T11:35:36Z</time>
      </trkpt>
      <trkpt lat="49.07287" lon="-0.43092">
        <ele>17.8</ele>
        <time>2023-05-02T11:35:37Z</time>
      </trkpt>
      <trkpt lat="49.07281" lon="-0.43097">
        <ele>17.6</ele>
        <time>2023-05-02T11:35:38Z</time>
      </trkpt>
      <trkpt lat="49.07276" lon="-0.43101">
        <ele>17.6</ele>
        <time>2023-05-02T11:35:39Z</time>
      </trkpt>
      <trkpt lat="49.0727" lon="-0.43107">
        <ele>17.6</ele>
        <time>2023-05-02T11:35:40Z</time>
      </trkpt>
      <trkpt lat="49.07264" lon="-0.43111">
        <ele>17.4</ele>
        <time>2023-05-02T11:35:41Z</time>
      </trkpt>
      <trkpt lat="49.07259" lon="-0.43117">
        <ele>17.2</ele>
        <time>2023-05-02T11:35:42Z</time>
      </trkpt>
      <trkpt lat="49.07253" lon="-0.43122">
        <ele>17.2</ele>
        <time>2023-05-02T11:35:43Z</time>
      </trkpt>
      <trkpt lat="49.07248" lon="-0.43127">
        <ele>17.2</ele>
        <time>2023-05-02T11:35:44Z</time>
      </trkpt>
      <trkpt lat="49.07242" lon="-0.43132">
        <ele>17.8</ele>
        <time>2023-05-02T11:35:45Z</time>
      </trkpt>
      <trkpt lat="49.07237" lon="-0.43137">
        <ele>18.2</ele>
        <time>2023-05-02T11:35:46Z</time>
      </trkpt>
      <trkpt lat="49.07231" lon="-0.43143">
        <ele>18.6</ele>
        <time>2023-05-02T11:35:47Z</time>
      </trkpt>
      <trkpt lat="49.07226" lon="-0.43148">
        <ele>18.8</ele>
        <time>2023-05-02T11:35:48Z</time>
      </trkpt>
      <trkpt lat="49.0722" lon="-0.43153">
        <ele>19</ele>
        <time>2023-05-02T11:35:49Z</time>
      </trkpt>
      <trkpt lat="49.07215" lon="-0.43159">
        <ele>19.2</ele>
        <time>2023-05-02T11:35:50Z</time>
      </trkpt>
      <trkpt lat="49.07209" lon="-0.43164">
        <ele>19.2</ele>
        <time>2023-05-02T11:35:51Z</time>
      </trkpt>
      <trkpt lat="49.07204" lon="-0.4317">
        <ele>19.2</ele>
        <time>2023-05-02T11:35:52Z</time>
      </trkpt>
      <trkpt lat="49.07199" lon="-0.43175">
        <ele>19.6</ele>
        <time>2023-05-02T11:35:53Z</time>
      </trkpt>
      <trkpt lat="49.07193" lon="-0.43181">
        <ele>19.6</ele>
        <time>2023-05-02T11:35:54Z</time>
      </trkpt>
      <trkpt lat="49.07188" lon="-0.43186">
        <ele>19.6</ele>
        <time>2023-05-02T11:35:55Z</time>
      </trkpt>
      <trkpt lat="49.07182" lon="-0.43192">
        <ele>19.4</ele>
        <time>2023-05-02T11:35:56Z</time>
      </trkpt>
      <trkpt lat="49.07177" lon="-0.43198">
        <ele>19.2</ele>
        <time>2023-05-02T11:35:57Z</time>
      </trkpt>
      <trkpt lat="49.07172" lon="-0.43203">
        <ele>18.8</ele>
        <time>2023-05-02T11:35:58Z</time>
      </trkpt>
      <trkpt lat="49.07166" lon="-0.43209">
        <ele>18.6</ele>
        <time>2023-05-02T11:35:59Z</time>
      </trkpt>
      <trkpt lat="49.07161" lon="-0.43215">
        <ele>18.8</ele>
        <time>2023-05-02T11:36:00Z</time>
      </trkpt>
      <trkpt lat="49.07156" lon="-0.4322">
        <ele>18.8</ele>
        <time>2023-05-02T11:36:01Z</time>
      </trkpt>
      <trkpt lat="49.0715" lon="-0.43226">
        <ele>19</ele>
        <time>2023-05-02T11:36:02Z</time>
      </trkpt>
      <trkpt lat="49.07145" lon="-0.43232">
        <ele>19</ele>
        <time>2023-05-02T11:36:03Z</time>
      </trkpt>
      <trkpt lat="49.0714" lon="-0.43237">
        <ele>19.2</ele>
        <time>2023-05-02T11:36:04Z</time>
      </trkpt>
      <trkpt lat="49.07134" lon="-0.43243">
        <ele>19</ele>
        <time>2023-05-02T11:36:05Z</time>
      </trkpt>
      <trkpt lat="49.07129" lon="-0.43249">
        <ele>19</ele>
        <time>2023-05-02T11:36:06Z</time>
      </trkpt>
      <trkpt lat="49.07124" lon="-0.43254">
        <ele>19.2</ele>
        <time>2023-05-02T11:36:07Z</time>
      </trkpt>
      <trkpt lat="49.07119" lon="-0.4326">
        <ele>19.8</ele>
        <time>2023-05-02T11:36:08Z</time>
      </trkpt>
      <trkpt lat="49.07113" lon="-0.43266">
        <ele>19.8</ele>
        <time>2023-05-02T11:36:09Z</time>
      </trkpt>
      <trkpt lat="49.07108" lon="-0.43271">
        <ele>19.8</ele>
        <time>2023-05-02T11:36:10Z</time>
      </trkpt>
      <trkpt lat="49.07103" lon="-0.43277">
        <ele>19.8</ele>
        <time>2023-05-02T11:36:11Z</time>
      </trkpt>
      <trkpt lat="49.07098" lon="-0.43283">
        <ele>19.6</ele>
        <time>2023-05-02T11:36:12Z</time>
      </trkpt>
      <trkpt lat="49.07092" lon="-0.43288">
        <ele>19.2</ele>
        <time>2023-05-02T11:36:13Z</time>
      </trkpt>
      <trkpt lat="49.07087" lon="-0.43294">
        <ele>18.8</ele>
        <time>2023-05-02T11:36:14Z</time>
      </trkpt>
      <trkpt lat="49.07082" lon="-0.433">
        <ele>18.4</ele>
        <time>2023-05-02T11:36:15Z</time>
      </trkpt>
      <trkpt lat="49.07077" lon="-0.43305">
        <ele>18.6</ele>
        <time>2023-05-02T11:36:16Z</time>
      </trkpt>
      <trkpt lat="49.07072" lon="-0.43311">
        <ele>18.8</ele>
        <time>2023-05-02T11:36:17Z</time>
      </trkpt>
      <trkpt lat="49.07066" lon="-0.43316">
        <ele>18.8</ele>
        <time>2023-05-02T11:36:18Z</time>
      </trkpt>
      <trkpt lat="49.07061" lon="-0.43322">
        <ele>19</ele>
        <time>2023-05-02T11:36:19Z</time>
      </trkpt>
      <trkpt lat="49.07056" lon="-0.43327">
        <ele>19.2</ele>
        <time>2023-05-02T11:36:20Z</time>
      </trkpt>
      <trkpt lat="49.07051" lon="-0.43333">
        <ele>19.2</ele>
        <time>2023-05-02T11:36:21Z</time>
      </trkpt>
      <trkpt lat="49.07046" lon="-0.43338">
        <ele>19.8</ele>
        <time>2023-05-02T11:36:22Z</time>
      </trkpt>
      <trkpt lat="49.0704" lon="-0.43344">
        <ele>20.4</ele>
        <time>2023-05-02T11:36:23Z</time>
      </trkpt>
      <trkpt lat="49.07035" lon="-0.43349">
        <ele>20.8</ele>
        <time>2023-05-02T11:36:24Z</time>
      </trkpt>
      <trkpt lat="49.0703" lon="-0.43355">
        <ele>21.2</ele>
        <time>2023-05-02T11:36:25Z</time>
      </trkpt>
      <trkpt lat="49.07025" lon="-0.4336">
        <ele>21.2</ele>
        <time>2023-05-02T11:36:26Z</time>
      </trkpt>
      <trkpt lat="49.07019" lon="-0.43366">
        <ele>21.2</ele>
        <time>2023-05-02T11:36:27Z</time>
      </trkpt>
      <trkpt lat="49.07014" lon="-0.43372">
        <ele>21.2</ele>
        <time>2023-05-02T11:36:28Z</time>
      </trkpt>
      <trkpt lat="49.07009" lon="-0.43377">
        <ele>20.8</ele>
        <time>2023-05-02T11:36:29Z</time>
      </trkpt>
      <trkpt lat="49.07004" lon="-0.43383">
        <ele>20.2</ele>
        <time>2023-05-02T11:36:30Z</time>
      </trkpt>
      <trkpt lat="49.06998" lon="-0.43388">
        <ele>19.8</ele>
        <time>2023-05-02T11:36:31Z</time>
      </trkpt>
      <trkpt lat="49.06993" lon="-0.43394">
        <ele>19.6</ele>
        <time>2023-05-02T11:36:32Z</time>
      </trkpt>
      <trkpt lat="49.06988" lon="-0.43399">
        <ele>19.2</ele>
        <time>2023-05-02T11:36:33Z</time>
      </trkpt>
      <trkpt lat="49.06983" lon="-0.43405">
        <ele>19.2</ele>
        <time>2023-05-02T11:36:34Z</time>
      </trkpt>
      <trkpt lat="49.06977" lon="-0.4341">
        <ele>19</ele>
        <time>2023-05-02T11:36:35Z</time>
      </trkpt>
      <trkpt lat="49.06972" lon="-0.43416">
        <ele>18.8</ele>
        <time>2023-05-02T11:36:36Z</time>
      </trkpt>
      <trkpt lat="49.06967" lon="-0.43421">
        <ele>19.2</ele>
        <time>2023-05-02T11:36:37Z</time>
      </trkpt>
      <trkpt lat="49.06961" lon="-0.43426">
        <ele>19.8</ele>
        <time>2023-05-02T11:36:38Z</time>
      </trkpt>
      <trkpt lat="49.06956" lon="-0.43432">
        <ele>20.2</ele>
        <time>2023-05-02T11:36:39Z</time>
      </trkpt>
      <trkpt lat="49.06951" lon="-0.43437">
        <ele>20.4</ele>
        <time>2023-05-02T11:36:40Z</time>
      </trkpt>
      <trkpt lat="49.06945" lon="-0.43442">
        <ele>20.6</ele>
        <time>2023-05-02T11:36:41Z</time>
      </trkpt>
      <trkpt lat="49.0694" lon="-0.43447">
        <ele>20.6</ele>
        <time>2023-05-02T11:36:42Z</time>
      </trkpt>
      <trkpt lat="49.06935" lon="-0.43453">
        <ele>20.6</ele>
        <time>2023-05-02T11:36:43Z</time>
      </trkpt>
      <trkpt lat="49.0693" lon="-0.43458">
        <ele>20.4</ele>
        <time>2023-05-02T11:36:44Z</time>
      </trkpt>
      <trkpt lat="49.06924" lon="-0.43463">
        <ele>20.2</ele>
        <time>2023-05-02T11:36:45Z</time>
      </trkpt>
      <trkpt lat="49.06919" lon="-0.43468">
        <ele>19.8</ele>
        <time>2023-05-02T11:36:46Z</time>
      </trkpt>
      <trkpt lat="49.06914" lon="-0.43474">
        <ele>19.8</ele>
        <time>2023-05-02T11:36:47Z</time>
      </trkpt>
      <trkpt lat="49.06908" lon="-0.43479">
        <ele>20.8</ele>
        <time>2023-05-02T11:36:48Z</time>
      </trkpt>
      <trkpt lat="49.06903" lon="-0.43485">
        <ele>21.6</ele>
        <time>2023-05-02T11:36:49Z</time>
      </trkpt>
      <trkpt lat="49.06898" lon="-0.4349">
        <ele>22.2</ele>
        <time>2023-05-02T11:36:50Z</time>
      </trkpt>
      <trkpt lat="49.06892" lon="-0.43495">
        <ele>23</ele>
        <time>2023-05-02T11:36:51Z</time>
      </trkpt>
      <trkpt lat="49.06887" lon="-0.43501">
        <ele>23.8</ele>
        <time>2023-05-02T11:36:52Z</time>
      </trkpt>
      <trkpt lat="49.06882" lon="-0.43507">
        <ele>24.6</ele>
        <time>2023-05-02T11:36:53Z</time>
      </trkpt>
      <trkpt lat="49.06876" lon="-0.43512">
        <ele>25.2</ele>
        <time>2023-05-02T11:36:54Z</time>
      </trkpt>
      <trkpt lat="49.06871" lon="-0.43518">
        <ele>25.8</ele>
        <time>2023-05-02T11:36:55Z</time>
      </trkpt>
      <trkpt lat="49.06866" lon="-0.43524">
        <ele>26.4</ele>
        <time>2023-05-02T11:36:56Z</time>
      </trkpt>
      <trkpt lat="49.06861" lon="-0.4353">
        <ele>26.8</ele>
        <time>2023-05-02T11:36:57Z</time>
      </trkpt>
      <trkpt lat="49.06856" lon="-0.43535">
        <ele>26.8</ele>
        <time>2023-05-02T11:36:58Z</time>
      </trkpt>
      <trkpt lat="49.0685" lon="-0.43541">
        <ele>26.8</ele>
        <time>2023-05-02T11:36:59Z</time>
      </trkpt>
      <trkpt lat="49.06846" lon="-0.43548">
        <ele>26.8</ele>
        <time>2023-05-02T11:37:00Z</time>
      </trkpt>
      <trkpt lat="49.0684" lon="-0.43554">
        <ele>26.4</ele>
        <time>2023-05-02T11:37:01Z</time>
      </trkpt>
      <trkpt lat="49.06836" lon="-0.4356">
        <ele>25.8</ele>
        <time>2023-05-02T11:37:02Z</time>
      </trkpt>
      <trkpt lat="49.06831" lon="-0.43567">
        <ele>25.6</ele>
        <time>2023-05-02T11:37:03Z</time>
      </trkpt>
      <trkpt lat="49.06826" lon="-0.43573">
        <ele>25.2</ele>
        <time>2023-05-02T11:37:04Z</time>
      </trkpt>
      <trkpt lat="49.06821" lon="-0.4358">
        <ele>25.2</ele>
        <time>2023-05-02T11:37:05Z</time>
      </trkpt>
      <trkpt lat="49.06817" lon="-0.43586">
        <ele>25.2</ele>
        <time>2023-05-02T11:37:06Z</time>
      </trkpt>
      <trkpt lat="49.06812" lon="-0.43593">
        <ele>25.6</ele>
        <time>2023-05-02T11:37:07Z</time>
      </trkpt>
      <trkpt lat="49.06808" lon="-0.436">
        <ele>25.8</ele>
        <time>2023-05-02T11:37:08Z</time>
      </trkpt>
      <trkpt lat="49.06803" lon="-0.43607">
        <ele>26</ele>
        <time>2023-05-02T11:37:09Z</time>
      </trkpt>
      <trkpt lat="49.06799" lon="-0.43614">
        <ele>26</ele>
        <time>2023-05-02T11:37:10Z</time>
      </trkpt>
      <trkpt lat="49.06795" lon="-0.43621">
        <ele>26</ele>
        <time>2023-05-02T11:37:11Z</time>
      </trkpt>
      <trkpt lat="49.06791" lon="-0.43629">
        <ele>25.8</ele>
        <time>2023-05-02T11:37:12Z</time>
      </trkpt>
      <trkpt lat="49.06787" lon="-0.43636">
        <ele>25.8</ele>
        <time>2023-05-02T11:37:13Z</time>
      </trkpt>
      <trkpt lat="49.06783" lon="-0.43643">
        <ele>25.4</ele>
        <time>2023-05-02T11:37:14Z</time>
      </trkpt>
      <trkpt lat="49.06778" lon="-0.43651">
        <ele>25.2</ele>
        <time>2023-05-02T11:37:15Z</time>
      </trkpt>
      <trkpt lat="49.06774" lon="-0.43658">
        <ele>24.8</ele>
        <time>2023-05-02T11:37:16Z</time>
      </trkpt>
      <trkpt lat="49.0677" lon="-0.43666">
        <ele>24.2</ele>
        <time>2023-05-02T11:37:17Z</time>
      </trkpt>
      <trkpt lat="49.06766" lon="-0.43673">
        <ele>24.2</ele>
        <time>2023-05-02T11:37:18Z</time>
      </trkpt>
      <trkpt lat="49.06762" lon="-0.4368">
        <ele>24.2</ele>
        <time>2023-05-02T11:37:19Z</time>
      </trkpt>
      <trkpt lat="49.06757" lon="-0.43688">
        <ele>23.8</ele>
        <time>2023-05-02T11:37:20Z</time>
      </trkpt>
      <trkpt lat="49.06753" lon="-0.43695">
        <ele>23.6</ele>
        <time>2023-05-02T11:37:21Z</time>
      </trkpt>
      <trkpt lat="49.06749" lon="-0.43702">
        <ele>23.2</ele>
        <time>2023-05-02T11:37:22Z</time>
      </trkpt>
      <trkpt lat="49.06744" lon="-0.43709">
        <ele>23.2</ele>
        <time>2023-05-02T11:37:23Z</time>
      </trkpt>
      <trkpt lat="49.0674" lon="-0.43716">
        <ele>23.4</ele>
        <time>2023-05-02T11:37:24Z</time>
      </trkpt>
      <trkpt lat="49.06735" lon="-0.43723">
        <ele>23.4</ele>
        <time>2023-05-02T11:37:25Z</time>
      </trkpt>
      <trkpt lat="49.06731" lon="-0.4373">
        <ele>23.4</ele>
        <time>2023-05-02T11:37:26Z</time>
      </trkpt>
      <trkpt lat="49.06727" lon="-0.43737">
        <ele>23.6</ele>
        <time>2023-05-02T11:37:27Z</time>
      </trkpt>
      <trkpt lat="49.06723" lon="-0.43745">
        <ele>23.6</ele>
        <time>2023-05-02T11:37:28Z</time>
      </trkpt>
      <trkpt lat="49.06719" lon="-0.43752">
        <ele>23.6</ele>
        <time>2023-05-02T11:37:29Z</time>
      </trkpt>
      <trkpt lat="49.06715" lon="-0.43759">
        <ele>24</ele>
        <time>2023-05-02T11:37:30Z</time>
      </trkpt>
      <trkpt lat="49.06711" lon="-0.43766">
        <ele>24.2</ele>
        <time>2023-05-02T11:37:31Z</time>
      </trkpt>
      <trkpt lat="49.06707" lon="-0.43773">
        <ele>24.6</ele>
        <time>2023-05-02T11:37:32Z</time>
      </trkpt>
      <trkpt lat="49.06703" lon="-0.43781">
        <ele>24.8</ele>
        <time>2023-05-02T11:37:33Z</time>
      </trkpt>
      <trkpt lat="49.06699" lon="-0.43788">
        <ele>24.8</ele>
        <time>2023-05-02T11:37:34Z</time>
      </trkpt>
      <trkpt lat="49.06695" lon="-0.43795">
        <ele>24.8</ele>
        <time>2023-05-02T11:37:35Z</time>
      </trkpt>
      <trkpt lat="49.06691" lon="-0.43802">
        <ele>24.8</ele>
        <time>2023-05-02T11:37:36Z</time>
      </trkpt>
      <trkpt lat="49.06687" lon="-0.4381">
        <ele>24.8</ele>
        <time>2023-05-02T11:37:37Z</time>
      </trkpt>
      <trkpt lat="49.06683" lon="-0.43817">
        <ele>24.6</ele>
        <time>2023-05-02T11:37:38Z</time>
      </trkpt>
      <trkpt lat="49.06679" lon="-0.43824">
        <ele>24.4</ele>
        <time>2023-05-02T11:37:39Z</time>
      </trkpt>
      <trkpt lat="49.06674" lon="-0.43831">
        <ele>24.2</ele>
        <time>2023-05-02T11:37:40Z</time>
      </trkpt>
      <trkpt lat="49.0667" lon="-0.43838">
        <ele>23.8</ele>
        <time>2023-05-02T11:37:41Z</time>
      </trkpt>
      <trkpt lat="49.06666" lon="-0.43846">
        <ele>23.8</ele>
        <time>2023-05-02T11:37:42Z</time>
      </trkpt>
      <trkpt lat="49.06662" lon="-0.43853">
        <ele>23.4</ele>
        <time>2023-05-02T11:37:43Z</time>
      </trkpt>
      <trkpt lat="49.06658" lon="-0.4386">
        <ele>23</ele>
        <time>2023-05-02T11:37:44Z</time>
      </trkpt>
      <trkpt lat="49.06655" lon="-0.43868">
        <ele>22.6</ele>
        <time>2023-05-02T11:37:45Z</time>
      </trkpt>
      <trkpt lat="49.06651" lon="-0.43875">
        <ele>22</ele>
        <time>2023-05-02T11:37:46Z</time>
      </trkpt>
      <trkpt lat="49.06647" lon="-0.43883">
        <ele>21.4</ele>
        <time>2023-05-02T11:37:47Z</time>
      </trkpt>
      <trkpt lat="49.06643" lon="-0.4389">
        <ele>20.8</ele>
        <time>2023-05-02T11:37:48Z</time>
      </trkpt>
      <trkpt lat="49.06639" lon="-0.43897">
        <ele>20.2</ele>
        <time>2023-05-02T11:37:49Z</time>
      </trkpt>
      <trkpt lat="49.06635" lon="-0.43904">
        <ele>19.6</ele>
        <time>2023-05-02T11:37:50Z</time>
      </trkpt>
      <trkpt lat="49.06631" lon="-0.43911">
        <ele>18.8</ele>
        <time>2023-05-02T11:37:51Z</time>
      </trkpt>
      <trkpt lat="49.06626" lon="-0.43918">
        <ele>18.2</ele>
        <time>2023-05-02T11:37:52Z</time>
      </trkpt>
      <trkpt lat="49.06622" lon="-0.43924">
        <ele>18.2</ele>
        <time>2023-05-02T11:37:53Z</time>
      </trkpt>
      <trkpt lat="49.06617" lon="-0.43931">
        <ele>18</ele>
        <time>2023-05-02T11:37:54Z</time>
      </trkpt>
      <trkpt lat="49.06612" lon="-0.43936">
        <ele>17.8</ele>
        <time>2023-05-02T11:37:55Z</time>
      </trkpt>
      <trkpt lat="49.06607" lon="-0.43942">
        <ele>17.8</ele>
        <time>2023-05-02T11:37:56Z</time>
      </trkpt>
      <trkpt lat="49.06602" lon="-0.43948">
        <ele>17.6</ele>
        <time>2023-05-02T11:37:57Z</time>
      </trkpt>
      <trkpt lat="49.06597" lon="-0.43953">
        <ele>17.2</ele>
        <time>2023-05-02T11:37:58Z</time>
      </trkpt>
      <trkpt lat="49.06592" lon="-0.43959">
        <ele>17.2</ele>
        <time>2023-05-02T11:37:59Z</time>
      </trkpt>
      <trkpt lat="49.06587" lon="-0.43966">
        <ele>16.8</ele>
        <time>2023-05-02T11:38:00Z</time>
      </trkpt>
      <trkpt lat="49.06583" lon="-0.43973">
        <ele>16.2</ele>
        <time>2023-05-02T11:38:01Z</time>
      </trkpt>
      <trkpt lat="49.06579" lon="-0.4398">
        <ele>15.8</ele>
        <time>2023-05-02T11:38:02Z</time>
      </trkpt>
      <trkpt lat="49.06575" lon="-0.43987">
        <ele>15.2</ele>
        <time>2023-05-02T11:38:03Z</time>
      </trkpt>
      <trkpt lat="49.06571" lon="-0.43994">
        <ele>14.6</ele>
        <time>2023-05-02T11:38:04Z</time>
      </trkpt>
      <trkpt lat="49.06567" lon="-0.44001">
        <ele>14.4</ele>
        <time>2023-05-02T11:38:05Z</time>
      </trkpt>
      <trkpt lat="49.06563" lon="-0.44008">
        <ele>15</ele>
        <time>2023-05-02T11:38:06Z</time>
      </trkpt>
      <trkpt lat="49.06559" lon="-0.44015">
        <ele>15.6</ele>
        <time>2023-05-02T11:38:07Z</time>
      </trkpt>
      <trkpt lat="49.06555" lon="-0.44022">
        <ele>16.2</ele>
        <time>2023-05-02T11:38:08Z</time>
      </trkpt>
      <trkpt lat="49.06551" lon="-0.44029">
        <ele>16.8</ele>
        <time>2023-05-02T11:38:09Z</time>
      </trkpt>
      <trkpt lat="49.06547" lon="-0.44036">
        <ele>17.6</ele>
        <time>2023-05-02T11:38:10Z</time>
      </trkpt>
      <trkpt lat="49.06543" lon="-0.44043">
        <ele>18.2</ele>
        <time>2023-05-02T11:38:11Z</time>
      </trkpt>
      <trkpt lat="49.06539" lon="-0.4405">
        <ele>18.8</ele>
        <time>2023-05-02T11:38:12Z</time>
      </trkpt>
      <trkpt lat="49.06535" lon="-0.44057">
        <ele>19.2</ele>
        <time>2023-05-02T11:38:13Z</time>
      </trkpt>
      <trkpt lat="49.06531" lon="-0.44064">
        <ele>19.8</ele>
        <time>2023-05-02T11:38:14Z</time>
      </trkpt>
      <trkpt lat="49.06527" lon="-0.44071">
        <ele>20.2</ele>
        <time>2023-05-02T11:38:15Z</time>
      </trkpt>
      <trkpt lat="49.06524" lon="-0.44078">
        <ele>20.8</ele>
        <time>2023-05-02T11:38:16Z</time>
      </trkpt>
      <trkpt lat="49.0652" lon="-0.44085">
        <ele>21.4</ele>
        <time>2023-05-02T11:38:17Z</time>
      </trkpt>
      <trkpt lat="49.06517" lon="-0.44092">
        <ele>22</ele>
        <time>2023-05-02T11:38:18Z</time>
      </trkpt>
      <trkpt lat="49.06514" lon="-0.44099">
        <ele>22.6</ele>
        <time>2023-05-02T11:38:19Z</time>
      </trkpt>
      <trkpt lat="49.06511" lon="-0.44106">
        <ele>23.2</ele>
        <time>2023-05-02T11:38:20Z</time>
      </trkpt>
      <trkpt lat="49.06508" lon="-0.44113">
        <ele>23.8</ele>
        <time>2023-05-02T11:38:21Z</time>
      </trkpt>
      <trkpt lat="49.06505" lon="-0.4412">
        <ele>24.2</ele>
        <time>2023-05-02T11:38:22Z</time>
      </trkpt>
      <trkpt lat="49.06502" lon="-0.44127">
        <ele>24.8</ele>
        <time>2023-05-02T11:38:23Z</time>
      </trkpt>
      <trkpt lat="49.06499" lon="-0.44135">
        <ele>25.2</ele>
        <time>2023-05-02T11:38:24Z</time>
      </trkpt>
      <trkpt lat="49.06497" lon="-0.44143">
        <ele>25.8</ele>
        <time>2023-05-02T11:38:25Z</time>
      </trkpt>
      <trkpt lat="49.06494" lon="-0.4415">
        <ele>26.2</ele>
        <time>2023-05-02T11:38:26Z</time>
      </trkpt>
      <trkpt lat="49.06491" lon="-0.44158">
        <ele>26.8</ele>
        <time>2023-05-02T11:38:27Z</time>
      </trkpt>
      <trkpt lat="49.06489" lon="-0.44167">
        <ele>27.2</ele>
        <time>2023-05-02T11:38:28Z</time>
      </trkpt>
      <trkpt lat="49.06486" lon="-0.44175">
        <ele>27.6</ele>
        <time>2023-05-02T11:38:29Z</time>
      </trkpt>
      <trkpt lat="49.06484" lon="-0.44183">
        <ele>28</ele>
        <time>2023-05-02T11:38:30Z</time>
      </trkpt>
      <trkpt lat="49.06482" lon="-0.44192">
        <ele>28.4</ele>
        <time>2023-05-02T11:38:31Z</time>
      </trkpt>
      <trkpt lat="49.06479" lon="-0.442">
        <ele>28.8</ele>
        <time>2023-05-02T11:38:32Z</time>
      </trkpt>
      <trkpt lat="49.06478" lon="-0.44209">
        <ele>29.2</ele>
        <time>2023-05-02T11:38:33Z</time>
      </trkpt>
      <trkpt lat="49.06475" lon="-0.44218">
        <ele>29.8</ele>
        <time>2023-05-02T11:38:34Z</time>
      </trkpt>
      <trkpt lat="49.06474" lon="-0.44227">
        <ele>30.2</ele>
        <time>2023-05-02T11:38:35Z</time>
      </trkpt>
      <trkpt lat="49.06472" lon="-0.44236">
        <ele>30.8</ele>
        <time>2023-05-02T11:38:36Z</time>
      </trkpt>
      <trkpt lat="49.0647" lon="-0.44245">
        <ele>31.2</ele>
        <time>2023-05-02T11:38:37Z</time>
      </trkpt>
      <trkpt lat="49.06469" lon="-0.44254">
        <ele>31.6</ele>
        <time>2023-05-02T11:38:38Z</time>
      </trkpt>
      <trkpt lat="49.06468" lon="-0.44263">
        <ele>32</ele>
        <time>2023-05-02T11:38:39Z</time>
      </trkpt>
      <trkpt lat="49.06466" lon="-0.44272">
        <ele>32.6</ele>
        <time>2023-05-02T11:38:40Z</time>
      </trkpt>
      <trkpt lat="49.06465" lon="-0.44281">
        <ele>33</ele>
        <time>2023-05-02T11:38:41Z</time>
      </trkpt>
      <trkpt lat="49.06464" lon="-0.4429">
        <ele>33.4</ele>
        <time>2023-05-02T11:38:42Z</time>
      </trkpt>
      <trkpt lat="49.06463" lon="-0.44299">
        <ele>33.8</ele>
        <time>2023-05-02T11:38:43Z</time>
      </trkpt>
      <trkpt lat="49.06462" lon="-0.44309">
        <ele>34.2</ele>
        <time>2023-05-02T11:38:44Z</time>
      </trkpt>
      <trkpt lat="49.0646" lon="-0.44318">
        <ele>34.8</ele>
        <time>2023-05-02T11:38:45Z</time>
      </trkpt>
      <trkpt lat="49.06459" lon="-0.44327">
        <ele>35.2</ele>
        <time>2023-05-02T11:38:46Z</time>
      </trkpt>
      <trkpt lat="49.06459" lon="-0.44336">
        <ele>35.6</ele>
        <time>2023-05-02T11:38:47Z</time>
      </trkpt>
      <trkpt lat="49.06458" lon="-0.44345">
        <ele>35.6</ele>
        <time>2023-05-02T11:38:48Z</time>
      </trkpt>
      <trkpt lat="49.06457" lon="-0.44355">
        <ele>35.6</ele>
        <time>2023-05-02T11:38:49Z</time>
      </trkpt>
      <trkpt lat="49.06456" lon="-0.44364">
        <ele>35.8</ele>
        <time>2023-05-02T11:38:50Z</time>
      </trkpt>
      <trkpt lat="49.06456" lon="-0.44373">
        <ele>35.8</ele>
        <time>2023-05-02T11:38:51Z</time>
      </trkpt>
      <trkpt lat="49.06455" lon="-0.44383">
        <ele>35.8</ele>
        <time>2023-05-02T11:38:52Z</time>
      </trkpt>
      <trkpt lat="49.06455" lon="-0.44393">
        <ele>35.8</ele>
        <time>2023-05-02T11:38:53Z</time>
      </trkpt>
      <trkpt lat="49.06455" lon="-0.44402">
        <ele>36</ele>
        <time>2023-05-02T11:38:54Z</time>
      </trkpt>
      <trkpt lat="49.06455" lon="-0.44412">
        <ele>36</ele>
        <time>2023-05-02T11:38:55Z</time>
      </trkpt>
      <trkpt lat="49.06455" lon="-0.44422">
        <ele>35.8</ele>
        <time>2023-05-02T11:38:56Z</time>
      </trkpt>
      <trkpt lat="49.06455" lon="-0.44431">
        <ele>35</ele>
        <time>2023-05-02T11:38:57Z</time>
      </trkpt>
      <trkpt lat="49.06455" lon="-0.44441">
        <ele>34.2</ele>
        <time>2023-05-02T11:38:58Z</time>
      </trkpt>
      <trkpt lat="49.06455" lon="-0.44451">
        <ele>33.8</ele>
        <time>2023-05-02T11:38:59Z</time>
      </trkpt>
      <trkpt lat="49.06455" lon="-0.44461">
        <ele>33</ele>
        <time>2023-05-02T11:39:00Z</time>
      </trkpt>
      <trkpt lat="49.06456" lon="-0.44471">
        <ele>32.4</ele>
        <time>2023-05-02T11:39:01Z</time>
      </trkpt>
      <trkpt lat="49.06456" lon="-0.44481">
        <ele>31.8</ele>
        <time>2023-05-02T11:39:02Z</time>
      </trkpt>
      <trkpt lat="49.06457" lon="-0.44491">
        <ele>31.2</ele>
        <time>2023-05-02T11:39:03Z</time>
      </trkpt>
      <trkpt lat="49.06457" lon="-0.44501">
        <ele>30.6</ele>
        <time>2023-05-02T11:39:04Z</time>
      </trkpt>
      <trkpt lat="49.06458" lon="-0.44511">
        <ele>29.8</ele>
        <time>2023-05-02T11:39:05Z</time>
      </trkpt>
      <trkpt lat="49.06458" lon="-0.44521">
        <ele>28.8</ele>
        <time>2023-05-02T11:39:06Z</time>
      </trkpt>
      <trkpt lat="49.06459" lon="-0.44531">
        <ele>27.8</ele>
        <time>2023-05-02T11:39:07Z</time>
      </trkpt>
      <trkpt lat="49.0646" lon="-0.44541">
        <ele>26.8</ele>
        <time>2023-05-02T11:39:08Z</time>
      </trkpt>
      <trkpt lat="49.0646" lon="-0.44551">
        <ele>25.8</ele>
        <time>2023-05-02T11:39:09Z</time>
      </trkpt>
      <trkpt lat="49.06461" lon="-0.4456">
        <ele>24.8</ele>
        <time>2023-05-02T11:39:10Z</time>
      </trkpt>
      <trkpt lat="49.06462" lon="-0.4457">
        <ele>23.8</ele>
        <time>2023-05-02T11:39:11Z</time>
      </trkpt>
      <trkpt lat="49.06462" lon="-0.44579">
        <ele>22.8</ele>
        <time>2023-05-02T11:39:12Z</time>
      </trkpt>
      <trkpt lat="49.06463" lon="-0.44588">
        <ele>22.6</ele>
        <time>2023-05-02T11:39:13Z</time>
      </trkpt>
      <trkpt lat="49.06463" lon="-0.44595">
        <ele>22.8</ele>
        <time>2023-05-02T11:39:14Z</time>
      </trkpt>
      <trkpt lat="49.06464" lon="-0.44601">
        <ele>22.8</ele>
        <time>2023-05-02T11:39:15Z</time>
      </trkpt>
      <trkpt lat="49.06465" lon="-0.44607">
        <ele>23</ele>
        <time>2023-05-02T11:39:16Z</time>
      </trkpt>
      <trkpt lat="49.06466" lon="-0.44611">
        <ele>23.2</ele>
        <time>2023-05-02T11:39:17Z</time>
      </trkpt>
      <trkpt lat="49.06467" lon="-0.44616">
        <ele>23.2</ele>
        <time>2023-05-02T11:39:18Z</time>
      </trkpt>
      <trkpt lat="49.06468" lon="-0.44621">
        <ele>23.2</ele>
        <time>2023-05-02T11:39:19Z</time>
      </trkpt>
      <trkpt lat="49.06468" lon="-0.44626">
        <ele>23.2</ele>
        <time>2023-05-02T11:39:20Z</time>
      </trkpt>
      <trkpt lat="49.06469" lon="-0.44633">
        <ele>23.4</ele>
        <time>2023-05-02T11:39:21Z</time>
      </trkpt>
      <trkpt lat="49.06471" lon="-0.44641">
        <ele>23.4</ele>
        <time>2023-05-02T11:39:22Z</time>
      </trkpt>
      <trkpt lat="49.06472" lon="-0.44649">
        <ele>23.2</ele>
        <time>2023-05-02T11:39:23Z</time>
      </trkpt>
      <trkpt lat="49.06474" lon="-0.44658">
        <ele>23.2</ele>
        <time>2023-05-02T11:39:24Z</time>
      </trkpt>
      <trkpt lat="49.06476" lon="-0.44667">
        <ele>23.2</ele>
        <time>2023-05-02T11:39:25Z</time>
      </trkpt>
      <trkpt lat="49.06477" lon="-0.44676">
        <ele>23.8</ele>
        <time>2023-05-02T11:39:26Z</time>
      </trkpt>
      <trkpt lat="49.06479" lon="-0.44685">
        <ele>24.6</ele>
        <time>2023-05-02T11:39:27Z</time>
      </trkpt>
      <trkpt lat="49.06481" lon="-0.44694">
        <ele>25.2</ele>
        <time>2023-05-02T11:39:28Z</time>
      </trkpt>
      <trkpt lat="49.06482" lon="-0.44703">
        <ele>25.8</ele>
        <time>2023-05-02T11:39:29Z</time>
      </trkpt>
      <trkpt lat="49.06484" lon="-0.44713">
        <ele>26.6</ele>
        <time>2023-05-02T11:39:30Z</time>
      </trkpt>
      <trkpt lat="49.06486" lon="-0.44722">
        <ele>27.2</ele>
        <time>2023-05-02T11:39:31Z</time>
      </trkpt>
      <trkpt lat="49.06487" lon="-0.44732">
        <ele>27.8</ele>
        <time>2023-05-02T11:39:32Z</time>
      </trkpt>
      <trkpt lat="49.06489" lon="-0.44742">
        <ele>28.2</ele>
        <time>2023-05-02T11:39:33Z</time>
      </trkpt>
      <trkpt lat="49.06491" lon="-0.44752">
        <ele>28.8</ele>
        <time>2023-05-02T11:39:34Z</time>
      </trkpt>
      <trkpt lat="49.06492" lon="-0.44761">
        <ele>29.4</ele>
        <time>2023-05-02T11:39:35Z</time>
      </trkpt>
      <trkpt lat="49.06493" lon="-0.44771">
        <ele>30</ele>
        <time>2023-05-02T11:39:36Z</time>
      </trkpt>
      <trkpt lat="49.06495" lon="-0.44781">
        <ele>30.6</ele>
        <time>2023-05-02T11:39:37Z</time>
      </trkpt>
      <trkpt lat="49.06496" lon="-0.44791">
        <ele>31.2</ele>
        <time>2023-05-02T11:39:38Z</time>
      </trkpt>
      <trkpt lat="49.06497" lon="-0.448">
        <ele>31.8</ele>
        <time>2023-05-02T11:39:39Z</time>
      </trkpt>
      <trkpt lat="49.06499" lon="-0.4481">
        <ele>32.2</ele>
        <time>2023-05-02T11:39:40Z</time>
      </trkpt>
      <trkpt lat="49.065" lon="-0.4482">
        <ele>33</ele>
        <time>2023-05-02T11:39:41Z</time>
      </trkpt>
      <trkpt lat="49.06501" lon="-0.4483">
        <ele>33.6</ele>
        <time>2023-05-02T11:39:42Z</time>
      </trkpt>
      <trkpt lat="49.06502" lon="-0.44841">
        <ele>33.8</ele>
        <time>2023-05-02T11:39:43Z</time>
      </trkpt>
      <trkpt lat="49.06503" lon="-0.44851">
        <ele>34</ele>
        <time>2023-05-02T11:39:44Z</time>
      </trkpt>
      <trkpt lat="49.06505" lon="-0.44862">
        <ele>34</ele>
        <time>2023-05-02T11:39:45Z</time>
      </trkpt>
      <trkpt lat="49.06506" lon="-0.44873">
        <ele>34.2</ele>
        <time>2023-05-02T11:39:46Z</time>
      </trkpt>
      <trkpt lat="49.06507" lon="-0.44883">
        <ele>34.4</ele>
        <time>2023-05-02T11:39:47Z</time>
      </trkpt>
      <trkpt lat="49.06508" lon="-0.44894">
        <ele>34.6</ele>
        <time>2023-05-02T11:39:48Z</time>
      </trkpt>
      <trkpt lat="49.06509" lon="-0.44906">
        <ele>34.8</ele>
        <time>2023-05-02T11:39:49Z</time>
      </trkpt>
      <trkpt lat="49.06509" lon="-0.44917">
        <ele>35</ele>
        <time>2023-05-02T11:39:50Z</time>
      </trkpt>
      <trkpt lat="49.0651" lon="-0.44929">
        <ele>35</ele>
        <time>2023-05-02T11:39:51Z</time>
      </trkpt>
      <trkpt lat="49.06511" lon="-0.4494">
        <ele>34.8</ele>
        <time>2023-05-02T11:39:52Z</time>
      </trkpt>
      <trkpt lat="49.06511" lon="-0.44952">
        <ele>34.8</ele>
        <time>2023-05-02T11:39:53Z</time>
      </trkpt>
      <trkpt lat="49.06512" lon="-0.44964">
        <ele>34.8</ele>
        <time>2023-05-02T11:39:54Z</time>
      </trkpt>
      <trkpt lat="49.06512" lon="-0.44975">
        <ele>35</ele>
        <time>2023-05-02T11:39:55Z</time>
      </trkpt>
      <trkpt lat="49.06512" lon="-0.44987">
        <ele>35</ele>
        <time>2023-05-02T11:39:56Z</time>
      </trkpt>
      <trkpt lat="49.06512" lon="-0.44999">
        <ele>35</ele>
        <time>2023-05-02T11:39:57Z</time>
      </trkpt>
      <trkpt lat="49.06512" lon="-0.45011">
        <ele>34.6</ele>
        <time>2023-05-02T11:39:58Z</time>
      </trkpt>
      <trkpt lat="49.06511" lon="-0.45024">
        <ele>34</ele>
        <time>2023-05-02T11:39:59Z</time>
      </trkpt>
      <trkpt lat="49.0651" lon="-0.45036">
        <ele>33.6</ele>
        <time>2023-05-02T11:40:00Z</time>
      </trkpt>
      <trkpt lat="49.06509" lon="-0.45048">
        <ele>33</ele>
        <time>2023-05-02T11:40:01Z</time>
      </trkpt>
      <trkpt lat="49.06508" lon="-0.4506">
        <ele>32.8</ele>
        <time>2023-05-02T11:40:02Z</time>
      </trkpt>
      <trkpt lat="49.06507" lon="-0.45072">
        <ele>32.2</ele>
        <time>2023-05-02T11:40:03Z</time>
      </trkpt>
      <trkpt lat="49.06505" lon="-0.45084">
        <ele>32</ele>
        <time>2023-05-02T11:40:04Z</time>
      </trkpt>
      <trkpt lat="49.06503" lon="-0.45096">
        <ele>31.2</ele>
        <time>2023-05-02T11:40:05Z</time>
      </trkpt>
      <trkpt lat="49.06501" lon="-0.45108">
        <ele>30.2</ele>
        <time>2023-05-02T11:40:06Z</time>
      </trkpt>
      <trkpt lat="49.06499" lon="-0.4512">
        <ele>29.4</ele>
        <time>2023-05-02T11:40:07Z</time>
      </trkpt>
      <trkpt lat="49.06496" lon="-0.45132">
        <ele>29</ele>
        <time>2023-05-02T11:40:08Z</time>
      </trkpt>
      <trkpt lat="49.06493" lon="-0.45144">
        <ele>28.8</ele>
        <time>2023-05-02T11:40:09Z</time>
      </trkpt>
      <trkpt lat="49.0649" lon="-0.45156">
        <ele>28.4</ele>
        <time>2023-05-02T11:40:10Z</time>
      </trkpt>
      <trkpt lat="49.06487" lon="-0.45167">
        <ele>28.4</ele>
        <time>2023-05-02T11:40:11Z</time>
      </trkpt>
      <trkpt lat="49.06484" lon="-0.45179">
        <ele>28.6</ele>
        <time>2023-05-02T11:40:12Z</time>
      </trkpt>
      <trkpt lat="49.0648" lon="-0.45191">
        <ele>28.6</ele>
        <time>2023-05-02T11:40:13Z</time>
      </trkpt>
      <trkpt lat="49.06477" lon="-0.45202">
        <ele>28.8</ele>
        <time>2023-05-02T11:40:14Z</time>
      </trkpt>
      <trkpt lat="49.06473" lon="-0.45214">
        <ele>28.8</ele>
        <time>2023-05-02T11:40:15Z</time>
      </trkpt>
      <trkpt lat="49.0647" lon="-0.45226">
        <ele>29.2</ele>
        <time>2023-05-02T11:40:16Z</time>
      </trkpt>
      <trkpt lat="49.06466" lon="-0.45238">
        <ele>29.2</ele>
        <time>2023-05-02T11:40:17Z</time>
      </trkpt>
      <trkpt lat="49.06463" lon="-0.4525">
        <ele>29.6</ele>
        <time>2023-05-02T11:40:18Z</time>
      </trkpt>
      <trkpt lat="49.06459" lon="-0.45262">
        <ele>30.2</ele>
        <time>2023-05-02T11:40:19Z</time>
      </trkpt>
      <trkpt lat="49.06456" lon="-0.45274">
        <ele>30.8</ele>
        <time>2023-05-02T11:40:20Z</time>
      </trkpt>
      <trkpt lat="49.06452" lon="-0.45286">
        <ele>31.2</ele>
        <time>2023-05-02T11:40:21Z</time>
      </trkpt>
      <trkpt lat="49.06449" lon="-0.45299">
        <ele>31.4</ele>
        <time>2023-05-02T11:40:22Z</time>
      </trkpt>
      <trkpt lat="49.06445" lon="-0.45312">
        <ele>31.6</ele>
        <time>2023-05-02T11:40:23Z</time>
      </trkpt>
      <trkpt lat="49.06442" lon="-0.45324">
        <ele>31.6</ele>
        <time>2023-05-02T11:40:24Z</time>
      </trkpt>
      <trkpt lat="49.06439" lon="-0.45337">
        <ele>31.6</ele>
        <time>2023-05-02T11:40:25Z</time>
      </trkpt>
      <trkpt lat="49.06435" lon="-0.4535">
        <ele>31.2</ele>
        <time>2023-05-02T11:40:26Z</time>
      </trkpt>
      <trkpt lat="49.06432" lon="-0.45362">
        <ele>30.8</ele>
        <time>2023-05-02T11:40:27Z</time>
      </trkpt>
      <trkpt lat="49.06428" lon="-0.45375">
        <ele>30.2</ele>
        <time>2023-05-02T11:40:28Z</time>
      </trkpt>
      <trkpt lat="49.06424" lon="-0.45388">
        <ele>29.6</ele>
        <time>2023-05-02T11:40:29Z</time>
      </trkpt>
      <trkpt lat="49.0642" lon="-0.45401">
        <ele>28.6</ele>
        <time>2023-05-02T11:40:30Z</time>
      </trkpt>
      <trkpt lat="49.06417" lon="-0.45413">
        <ele>27.4</ele>
        <time>2023-05-02T11:40:31Z</time>
      </trkpt>
      <trkpt lat="49.06413" lon="-0.45426">
        <ele>27.2</ele>
        <time>2023-05-02T11:40:32Z</time>
      </trkpt>
      <trkpt lat="49.06409" lon="-0.45439">
        <ele>27.2</ele>
        <time>2023-05-02T11:40:33Z</time>
      </trkpt>
      <trkpt lat="49.06405" lon="-0.45452">
        <ele>27.2</ele>
        <time>2023-05-02T11:40:34Z</time>
      </trkpt>
      <trkpt lat="49.06401" lon="-0.45465">
        <ele>27.2</ele>
        <time>2023-05-02T11:40:35Z</time>
      </trkpt>
      <trkpt lat="49.06397" lon="-0.45479">
        <ele>26.8</ele>
        <time>2023-05-02T11:40:36Z</time>
      </trkpt>
      <trkpt lat="49.06393" lon="-0.45492">
        <ele>26.6</ele>
        <time>2023-05-02T11:40:37Z</time>
      </trkpt>
      <trkpt lat="49.0639" lon="-0.45506">
        <ele>26.6</ele>
        <time>2023-05-02T11:40:38Z</time>
      </trkpt>
      <trkpt lat="49.06386" lon="-0.45519">
        <ele>26.6</ele>
        <time>2023-05-02T11:40:39Z</time>
      </trkpt>
      <trkpt lat="49.06382" lon="-0.45533">
        <ele>26.6</ele>
        <time>2023-05-02T11:40:40Z</time>
      </trkpt>
      <trkpt lat="49.06378" lon="-0.45546">
        <ele>26.6</ele>
        <time>2023-05-02T11:40:41Z</time>
      </trkpt>
      <trkpt lat="49.06374" lon="-0.45559">
        <ele>26.4</ele>
        <time>2023-05-02T11:40:42Z</time>
      </trkpt>
      <trkpt lat="49.0637" lon="-0.45573">
        <ele>26.2</ele>
        <time>2023-05-02T11:40:43Z</time>
      </trkpt>
      <trkpt lat="49.06366" lon="-0.45585">
        <ele>26</ele>
        <time>2023-05-02T11:40:44Z</time>
      </trkpt>
      <trkpt lat="49.06361" lon="-0.45598">
        <ele>25.8</ele>
        <time>2023-05-02T11:40:45Z</time>
      </trkpt>
      <trkpt lat="49.06357" lon="-0.4561">
        <ele>25.8</ele>
        <time>2023-05-02T11:40:46Z</time>
      </trkpt>
      <trkpt lat="49.06352" lon="-0.45622">
        <ele>25.6</ele>
        <time>2023-05-02T11:40:47Z</time>
      </trkpt>
      <trkpt lat="49.06347" lon="-0.45634">
        <ele>25.2</ele>
        <time>2023-05-02T11:40:48Z</time>
      </trkpt>
      <trkpt lat="49.06342" lon="-0.45645">
        <ele>25</ele>
        <time>2023-05-02T11:40:49Z</time>
      </trkpt>
      <trkpt lat="49.06337" lon="-0.45656">
        <ele>24.6</ele>
        <time>2023-05-02T11:40:50Z</time>
      </trkpt>
      <trkpt lat="49.06332" lon="-0.45667">
        <ele>24.2</ele>
        <time>2023-05-02T11:40:51Z</time>
      </trkpt>
      <trkpt lat="49.06326" lon="-0.45677">
        <ele>24.2</ele>
        <time>2023-05-02T11:40:52Z</time>
      </trkpt>
      <trkpt lat="49.06321" lon="-0.45687">
        <ele>23.8</ele>
        <time>2023-05-02T11:40:53Z</time>
      </trkpt>
      <trkpt lat="49.06315" lon="-0.45697">
        <ele>23.8</ele>
        <time>2023-05-02T11:40:54Z</time>
      </trkpt>
      <trkpt lat="49.06309" lon="-0.45707">
        <ele>23.6</ele>
        <time>2023-05-02T11:40:55Z</time>
      </trkpt>
      <trkpt lat="49.06303" lon="-0.45717">
        <ele>23.2</ele>
        <time>2023-05-02T11:40:56Z</time>
      </trkpt>
      <trkpt lat="49.06297" lon="-0.45726">
        <ele>23</ele>
        <time>2023-05-02T11:40:57Z</time>
      </trkpt>
      <trkpt lat="49.06291" lon="-0.45736">
        <ele>22.6</ele>
        <time>2023-05-02T11:40:58Z</time>
      </trkpt>
      <trkpt lat="49.06285" lon="-0.45745">
        <ele>22.2</ele>
        <time>2023-05-02T11:40:59Z</time>
      </trkpt>
      <trkpt lat="49.06279" lon="-0.45754">
        <ele>22</ele>
        <time>2023-05-02T11:41:00Z</time>
      </trkpt>
      <trkpt lat="49.06272" lon="-0.45763">
        <ele>22</ele>
        <time>2023-05-02T11:41:01Z</time>
      </trkpt>
      <trkpt lat="49.06266" lon="-0.45772">
        <ele>21.8</ele>
        <time>2023-05-02T11:41:02Z</time>
      </trkpt>
      <trkpt lat="49.06259" lon="-0.45781">
        <ele>21.8</ele>
        <time>2023-05-02T11:41:03Z</time>
      </trkpt>
      <trkpt lat="49.06253" lon="-0.45789">
        <ele>21.6</ele>
        <time>2023-05-02T11:41:04Z</time>
      </trkpt>
      <trkpt lat="49.06246" lon="-0.45797">
        <ele>21.2</ele>
        <time>2023-05-02T11:41:05Z</time>
      </trkpt>
      <trkpt lat="49.06239" lon="-0.45805">
        <ele>20.8</ele>
        <time>2023-05-02T11:41:06Z</time>
      </trkpt>
      <trkpt lat="49.06232" lon="-0.45813">
        <ele>20.6</ele>
        <time>2023-05-02T11:41:07Z</time>
      </trkpt>
      <trkpt lat="49.06225" lon="-0.4582">
        <ele>20.2</ele>
        <time>2023-05-02T11:41:08Z</time>
      </trkpt>
      <trkpt lat="49.06218" lon="-0.45827">
        <ele>20</ele>
        <time>2023-05-02T11:41:09Z</time>
      </trkpt>
      <trkpt lat="49.0621" lon="-0.45834">
        <ele>19.8</ele>
        <time>2023-05-02T11:41:10Z</time>
      </trkpt>
      <trkpt lat="49.06203" lon="-0.4584">
        <ele>20.2</ele>
        <time>2023-05-02T11:41:11Z</time>
      </trkpt>
      <trkpt lat="49.06196" lon="-0.45846">
        <ele>20.6</ele>
        <time>2023-05-02T11:41:12Z</time>
      </trkpt>
      <trkpt lat="49.06188" lon="-0.45852">
        <ele>20.8</ele>
        <time>2023-05-02T11:41:13Z</time>
      </trkpt>
      <trkpt lat="49.06181" lon="-0.45858">
        <ele>20.8</ele>
        <time>2023-05-02T11:41:14Z</time>
      </trkpt>
      <trkpt lat="49.06173" lon="-0.45863">
        <ele>20.8</ele>
        <time>2023-05-02T11:41:15Z</time>
      </trkpt>
      <trkpt lat="49.06166" lon="-0.45868">
        <ele>20.8</ele>
        <time>2023-05-02T11:41:16Z</time>
      </trkpt>
      <trkpt lat="49.06158" lon="-0.45873">
        <ele>20.8</ele>
        <time>2023-05-02T11:41:17Z</time>
      </trkpt>
      <trkpt lat="49.06151" lon="-0.45878">
        <ele>20.6</ele>
        <time>2023-05-02T11:41:18Z</time>
      </trkpt>
      <trkpt lat="49.06144" lon="-0.45883">
        <ele>20.2</ele>
        <time>2023-05-02T11:41:19Z</time>
      </trkpt>
      <trkpt lat="49.06136" lon="-0.45888">
        <ele>20</ele>
        <time>2023-05-02T11:41:20Z</time>
      </trkpt>
      <trkpt lat="49.06129" lon="-0.45892">
        <ele>19.6</ele>
        <time>2023-05-02T11:41:21Z</time>
      </trkpt>
      <trkpt lat="49.06121" lon="-0.45896">
        <ele>19.2</ele>
        <time>2023-05-02T11:41:22Z</time>
      </trkpt>
      <trkpt lat="49.06114" lon="-0.45901">
        <ele>18.8</ele>
        <time>2023-05-02T11:41:23Z</time>
      </trkpt>
      <trkpt lat="49.06107" lon="-0.45905">
        <ele>18.2</ele>
        <time>2023-05-02T11:41:24Z</time>
      </trkpt>
      <trkpt lat="49.06099" lon="-0.45908">
        <ele>17.6</ele>
        <time>2023-05-02T11:41:25Z</time>
      </trkpt>
      <trkpt lat="49.06091" lon="-0.45912">
        <ele>16.8</ele>
        <time>2023-05-02T11:41:26Z</time>
      </trkpt>
      <trkpt lat="49.06084" lon="-0.45916">
        <ele>16.2</ele>
        <time>2023-05-02T11:41:27Z</time>
      </trkpt>
      <trkpt lat="49.06077" lon="-0.45919">
        <ele>16.2</ele>
        <time>2023-05-02T11:41:28Z</time>
      </trkpt>
      <trkpt lat="49.06069" lon="-0.45923">
        <ele>16.6</ele>
        <time>2023-05-02T11:41:29Z</time>
      </trkpt>
      <trkpt lat="49.06062" lon="-0.45926">
        <ele>16.8</ele>
        <time>2023-05-02T11:41:30Z</time>
      </trkpt>
      <trkpt lat="49.06054" lon="-0.45928">
        <ele>16.8</ele>
        <time>2023-05-02T11:41:31Z</time>
      </trkpt>
      <trkpt lat="49.06047" lon="-0.45931">
        <ele>17.2</ele>
        <time>2023-05-02T11:41:32Z</time>
      </trkpt>
      <trkpt lat="49.0604" lon="-0.45934">
        <ele>17.2</ele>
        <time>2023-05-02T11:41:33Z</time>
      </trkpt>
      <trkpt lat="49.06032" lon="-0.45937">
        <ele>17.2</ele>
        <time>2023-05-02T11:41:34Z</time>
      </trkpt>
      <trkpt lat="49.06025" lon="-0.45939">
        <ele>17.4</ele>
        <time>2023-05-02T11:41:35Z</time>
      </trkpt>
      <trkpt lat="49.06017" lon="-0.45942">
        <ele>17.6</ele>
        <time>2023-05-02T11:41:36Z</time>
      </trkpt>
      <trkpt lat="49.0601" lon="-0.45944">
        <ele>17.6</ele>
        <time>2023-05-02T11:41:37Z</time>
      </trkpt>
      <trkpt lat="49.06002" lon="-0.45946">
        <ele>17.6</ele>
        <time>2023-05-02T11:41:38Z</time>
      </trkpt>
      <trkpt lat="49.05995" lon="-0.45948">
        <ele>17.6</ele>
        <time>2023-05-02T11:41:39Z</time>
      </trkpt>
      <trkpt lat="49.05987" lon="-0.4595">
        <ele>17.6</ele>
        <time>2023-05-02T11:41:40Z</time>
      </trkpt>
      <trkpt lat="49.0598" lon="-0.45952">
        <ele>17.8</ele>
        <time>2023-05-02T11:41:41Z</time>
      </trkpt>
      <trkpt lat="49.05972" lon="-0.45954">
        <ele>17.8</ele>
        <time>2023-05-02T11:41:42Z</time>
      </trkpt>
      <trkpt lat="49.05964" lon="-0.45956">
        <ele>17.8</ele>
        <time>2023-05-02T11:41:43Z</time>
      </trkpt>
      <trkpt lat="49.05957" lon="-0.45958">
        <ele>17.8</ele>
        <time>2023-05-02T11:41:44Z</time>
      </trkpt>
      <trkpt lat="49.05949" lon="-0.45959">
        <ele>17.8</ele>
        <time>2023-05-02T11:41:45Z</time>
      </trkpt>
      <trkpt lat="49.05941" lon="-0.45961">
        <ele>17.8</ele>
        <time>2023-05-02T11:41:46Z</time>
      </trkpt>
      <trkpt lat="49.05934" lon="-0.45962">
        <ele>18</ele>
        <time>2023-05-02T11:41:47Z</time>
      </trkpt>
      <trkpt lat="49.05926" lon="-0.45963">
        <ele>18.2</ele>
        <time>2023-05-02T11:41:48Z</time>
      </trkpt>
      <trkpt lat="49.05918" lon="-0.45964">
        <ele>18.2</ele>
        <time>2023-05-02T11:41:49Z</time>
      </trkpt>
      <trkpt lat="49.0591" lon="-0.45965">
        <ele>18</ele>
        <time>2023-05-02T11:41:50Z</time>
      </trkpt>
      <trkpt lat="49.05902" lon="-0.45966">
        <ele>17.8</ele>
        <time>2023-05-02T11:41:51Z</time>
      </trkpt>
      <trkpt lat="49.05894" lon="-0.45967">
        <ele>17.8</ele>
        <time>2023-05-02T11:41:52Z</time>
      </trkpt>
      <trkpt lat="49.05886" lon="-0.45968">
        <ele>17.8</ele>
        <time>2023-05-02T11:41:53Z</time>
      </trkpt>
      <trkpt lat="49.05878" lon="-0.45969">
        <ele>17.6</ele>
        <time>2023-05-02T11:41:54Z</time>
      </trkpt>
      <trkpt lat="49.0587" lon="-0.45969">
        <ele>17.6</ele>
        <time>2023-05-02T11:41:55Z</time>
      </trkpt>
      <trkpt lat="49.05862" lon="-0.4597">
        <ele>17.4</ele>
        <time>2023-05-02T11:41:56Z</time>
      </trkpt>
      <trkpt lat="49.05854" lon="-0.45971">
        <ele>17.2</ele>
        <time>2023-05-02T11:41:57Z</time>
      </trkpt>
      <trkpt lat="49.05846" lon="-0.45971">
        <ele>17.2</ele>
        <time>2023-05-02T11:41:58Z</time>
      </trkpt>
      <trkpt lat="49.05838" lon="-0.45972">
        <ele>17.2</ele>
        <time>2023-05-02T11:41:59Z</time>
      </trkpt>
      <trkpt lat="49.0583" lon="-0.45972">
        <ele>17</ele>
        <time>2023-05-02T11:42:00Z</time>
      </trkpt>
      <trkpt lat="49.05822" lon="-0.45972">
        <ele>17</ele>
        <time>2023-05-02T11:42:01Z</time>
      </trkpt>
      <trkpt lat="49.05814" lon="-0.45972">
        <ele>17</ele>
        <time>2023-05-02T11:42:02Z</time>
      </trkpt>
      <trkpt lat="49.05806" lon="-0.45973">
        <ele>17</ele>
        <time>2023-05-02T11:42:03Z</time>
      </trkpt>
      <trkpt lat="49.05798" lon="-0.45973">
        <ele>17</ele>
        <time>2023-05-02T11:42:04Z</time>
      </trkpt>
      <trkpt lat="49.0579" lon="-0.45972">
        <ele>17</ele>
        <time>2023-05-02T11:42:05Z</time>
      </trkpt>
      <trkpt lat="49.05782" lon="-0.45972">
        <ele>17</ele>
        <time>2023-05-02T11:42:06Z</time>
      </trkpt>
      <trkpt lat="49.05774" lon="-0.45972">
        <ele>17</ele>
        <time>2023-05-02T11:42:07Z</time>
      </trkpt>
      <trkpt lat="49.05766" lon="-0.45971">
        <ele>17.2</ele>
        <time>2023-05-02T11:42:08Z</time>
      </trkpt>
      <trkpt lat="49.05759" lon="-0.45971">
        <ele>17.2</ele>
        <time>2023-05-02T11:42:09Z</time>
      </trkpt>
      <trkpt lat="49.05751" lon="-0.4597">
        <ele>17.2</ele>
        <time>2023-05-02T11:42:10Z</time>
      </trkpt>
      <trkpt lat="49.05743" lon="-0.45969">
        <ele>17.2</ele>
        <time>2023-05-02T11:42:11Z</time>
      </trkpt>
      <trkpt lat="49.05736" lon="-0.45968">
        <ele>17.2</ele>
        <time>2023-05-02T11:42:12Z</time>
      </trkpt>
      <trkpt lat="49.05728" lon="-0.45967">
        <ele>17.4</ele>
        <time>2023-05-02T11:42:13Z</time>
      </trkpt>
      <trkpt lat="49.0572" lon="-0.45966">
        <ele>17.6</ele>
        <time>2023-05-02T11:42:14Z</time>
      </trkpt>
      <trkpt lat="49.05713" lon="-0.45965">
        <ele>17.6</ele>
        <time>2023-05-02T11:42:15Z</time>
      </trkpt>
      <trkpt lat="49.05705" lon="-0.45964">
        <ele>17.8</ele>
        <time>2023-05-02T11:42:16Z</time>
      </trkpt>
      <trkpt lat="49.05698" lon="-0.45962">
        <ele>17.8</ele>
        <time>2023-05-02T11:42:17Z</time>
      </trkpt>
      <trkpt lat="49.0569" lon="-0.45961">
        <ele>17.8</ele>
        <time>2023-05-02T11:42:18Z</time>
      </trkpt>
      <trkpt lat="49.05683" lon="-0.4596">
        <ele>17.8</ele>
        <time>2023-05-02T11:42:19Z</time>
      </trkpt>
      <trkpt lat="49.05676" lon="-0.45958">
        <ele>18</ele>
        <time>2023-05-02T11:42:20Z</time>
      </trkpt>
      <trkpt lat="49.05668" lon="-0.45957">
        <ele>18.2</ele>
        <time>2023-05-02T11:42:21Z</time>
      </trkpt>
      <trkpt lat="49.05661" lon="-0.45955">
        <ele>18.2</ele>
        <time>2023-05-02T11:42:22Z</time>
      </trkpt>
      <trkpt lat="49.05654" lon="-0.45954">
        <ele>18.2</ele>
        <time>2023-05-02T11:42:23Z</time>
      </trkpt>
      <trkpt lat="49.05647" lon="-0.45952">
        <ele>18.4</ele>
        <time>2023-05-02T11:42:24Z</time>
      </trkpt>
      <trkpt lat="49.0564" lon="-0.45951">
        <ele>18.6</ele>
        <time>2023-05-02T11:42:25Z</time>
      </trkpt>
      <trkpt lat="49.05633" lon="-0.45949">
        <ele>18.8</ele>
        <time>2023-05-02T11:42:26Z</time>
      </trkpt>
      <trkpt lat="49.05626" lon="-0.45947">
        <ele>18.8</ele>
        <time>2023-05-02T11:42:27Z</time>
      </trkpt>
      <trkpt lat="49.05619" lon="-0.45946">
        <ele>19</ele>
        <time>2023-05-02T11:42:28Z</time>
      </trkpt>
      <trkpt lat="49.05612" lon="-0.45944">
        <ele>19.2</ele>
        <time>2023-05-02T11:42:29Z</time>
      </trkpt>
      <trkpt lat="49.05605" lon="-0.45943">
        <ele>19.2</ele>
        <time>2023-05-02T11:42:30Z</time>
      </trkpt>
      <trkpt lat="49.05598" lon="-0.45941">
        <ele>19.4</ele>
        <time>2023-05-02T11:42:31Z</time>
      </trkpt>
      <trkpt lat="49.05592" lon="-0.4594">
        <ele>19.6</ele>
        <time>2023-05-02T11:42:32Z</time>
      </trkpt>
      <trkpt lat="49.05585" lon="-0.45939">
        <ele>19.6</ele>
        <time>2023-05-02T11:42:33Z</time>
      </trkpt>
      <trkpt lat="49.05578" lon="-0.45938">
        <ele>19.8</ele>
        <time>2023-05-02T11:42:34Z</time>
      </trkpt>
      <trkpt lat="49.05572" lon="-0.45937">
        <ele>19.8</ele>
        <time>2023-05-02T11:42:35Z</time>
      </trkpt>
      <trkpt lat="49.05565" lon="-0.45935">
        <ele>19.8</ele>
        <time>2023-05-02T11:42:36Z</time>
      </trkpt>
      <trkpt lat="49.05557" lon="-0.45933">
        <ele>19.8</ele>
        <time>2023-05-02T11:42:37Z</time>
      </trkpt>
      <trkpt lat="49.0555" lon="-0.45931">
        <ele>19.8</ele>
        <time>2023-05-02T11:42:38Z</time>
      </trkpt>
      <trkpt lat="49.05543" lon="-0.45929">
        <ele>19.8</ele>
        <time>2023-05-02T11:42:39Z</time>
      </trkpt>
      <trkpt lat="49.05536" lon="-0.45927">
        <ele>19.8</ele>
        <time>2023-05-02T11:42:40Z</time>
      </trkpt>
      <trkpt lat="49.05528" lon="-0.45926">
        <ele>19.8</ele>
        <time>2023-05-02T11:42:41Z</time>
      </trkpt>
      <trkpt lat="49.05521" lon="-0.45924">
        <ele>19.8</ele>
        <time>2023-05-02T11:42:42Z</time>
      </trkpt>
      <trkpt lat="49.05514" lon="-0.45922">
        <ele>19.8</ele>
        <time>2023-05-02T11:42:43Z</time>
      </trkpt>
      <trkpt lat="49.05507" lon="-0.4592">
        <ele>19.8</ele>
        <time>2023-05-02T11:42:44Z</time>
      </trkpt>
      <trkpt lat="49.055" lon="-0.45918">
        <ele>19.8</ele>
        <time>2023-05-02T11:42:45Z</time>
      </trkpt>
      <trkpt lat="49.05493" lon="-0.45916">
        <ele>19.8</ele>
        <time>2023-05-02T11:42:46Z</time>
      </trkpt>
      <trkpt lat="49.05486" lon="-0.45914">
        <ele>20</ele>
        <time>2023-05-02T11:42:47Z</time>
      </trkpt>
      <trkpt lat="49.05479" lon="-0.45912">
        <ele>20.2</ele>
        <time>2023-05-02T11:42:48Z</time>
      </trkpt>
      <trkpt lat="49.05472" lon="-0.45911">
        <ele>20.2</ele>
        <time>2023-05-02T11:42:49Z</time>
      </trkpt>
      <trkpt lat="49.05465" lon="-0.45909">
        <ele>20.2</ele>
        <time>2023-05-02T11:42:50Z</time>
      </trkpt>
      <trkpt lat="49.05458" lon="-0.45908">
        <ele>20.4</ele>
        <time>2023-05-02T11:42:51Z</time>
      </trkpt>
      <trkpt lat="49.05451" lon="-0.45907">
        <ele>20.4</ele>
        <time>2023-05-02T11:42:52Z</time>
      </trkpt>
      <trkpt lat="49.05445" lon="-0.45905">
        <ele>20.6</ele>
        <time>2023-05-02T11:42:53Z</time>
      </trkpt>
      <trkpt lat="49.05438" lon="-0.45904">
        <ele>20.6</ele>
        <time>2023-05-02T11:42:54Z</time>
      </trkpt>
      <trkpt lat="49.05432" lon="-0.45903">
        <ele>20.6</ele>
        <time>2023-05-02T11:42:55Z</time>
      </trkpt>
      <trkpt lat="49.05425" lon="-0.45902">
        <ele>20.8</ele>
        <time>2023-05-02T11:42:56Z</time>
      </trkpt>
      <trkpt lat="49.05419" lon="-0.45901">
        <ele>20.8</ele>
        <time>2023-05-02T11:42:57Z</time>
      </trkpt>
      <trkpt lat="49.05412" lon="-0.45899">
        <ele>20.8</ele>
        <time>2023-05-02T11:42:58Z</time>
      </trkpt>
      <trkpt lat="49.05406" lon="-0.45898">
        <ele>20.8</ele>
        <time>2023-05-02T11:42:59Z</time>
      </trkpt>
      <trkpt lat="49.05399" lon="-0.45897">
        <ele>20.8</ele>
        <time>2023-05-02T11:43:00Z</time>
      </trkpt>
      <trkpt lat="49.05392" lon="-0.45895">
        <ele>20.8</ele>
        <time>2023-05-02T11:43:01Z</time>
      </trkpt>
      <trkpt lat="49.05385" lon="-0.45894">
        <ele>20.8</ele>
        <time>2023-05-02T11:43:02Z</time>
      </trkpt>
      <trkpt lat="49.05377" lon="-0.45892">
        <ele>21</ele>
        <time>2023-05-02T11:43:03Z</time>
      </trkpt>
      <trkpt lat="49.05369" lon="-0.45891">
        <ele>21.2</ele>
        <time>2023-05-02T11:43:04Z</time>
      </trkpt>
      <trkpt lat="49.05362" lon="-0.45889">
        <ele>21.2</ele>
        <time>2023-05-02T11:43:05Z</time>
      </trkpt>
      <trkpt lat="49.05354" lon="-0.45887">
        <ele>21.2</ele>
        <time>2023-05-02T11:43:06Z</time>
      </trkpt>
      <trkpt lat="49.05347" lon="-0.45886">
        <ele>21.2</ele>
        <time>2023-05-02T11:43:07Z</time>
      </trkpt>
      <trkpt lat="49.0534" lon="-0.45884">
        <ele>21.4</ele>
        <time>2023-05-02T11:43:08Z</time>
      </trkpt>
      <trkpt lat="49.05333" lon="-0.45883">
        <ele>21.6</ele>
        <time>2023-05-02T11:43:09Z</time>
      </trkpt>
      <trkpt lat="49.05326" lon="-0.45882">
        <ele>21.8</ele>
        <time>2023-05-02T11:43:10Z</time>
      </trkpt>
      <trkpt lat="49.05319" lon="-0.45881">
        <ele>21.8</ele>
        <time>2023-05-02T11:43:11Z</time>
      </trkpt>
      <trkpt lat="49.05312" lon="-0.4588">
        <ele>22</ele>
        <time>2023-05-02T11:43:12Z</time>
      </trkpt>
      <trkpt lat="49.05305" lon="-0.45879">
        <ele>22.2</ele>
        <time>2023-05-02T11:43:13Z</time>
      </trkpt>
      <trkpt lat="49.05298" lon="-0.45877">
        <ele>22.4</ele>
        <time>2023-05-02T11:43:14Z</time>
      </trkpt>
      <trkpt lat="49.0529" lon="-0.45876">
        <ele>22.6</ele>
        <time>2023-05-02T11:43:15Z</time>
      </trkpt>
      <trkpt lat="49.05283" lon="-0.45874">
        <ele>22.8</ele>
        <time>2023-05-02T11:43:16Z</time>
      </trkpt>
      <trkpt lat="49.05276" lon="-0.45873">
        <ele>23</ele>
        <time>2023-05-02T11:43:17Z</time>
      </trkpt>
      <trkpt lat="49.05268" lon="-0.45871">
        <ele>23.2</ele>
        <time>2023-05-02T11:43:18Z</time>
      </trkpt>
      <trkpt lat="49.05261" lon="-0.4587">
        <ele>23.4</ele>
        <time>2023-05-02T11:43:19Z</time>
      </trkpt>
      <trkpt lat="49.05254" lon="-0.45868">
        <ele>23.6</ele>
        <time>2023-05-02T11:43:20Z</time>
      </trkpt>
      <trkpt lat="49.05247" lon="-0.45867">
        <ele>23.8</ele>
        <time>2023-05-02T11:43:21Z</time>
      </trkpt>
      <trkpt lat="49.0524" lon="-0.45865">
        <ele>24</ele>
        <time>2023-05-02T11:43:22Z</time>
      </trkpt>
      <trkpt lat="49.05232" lon="-0.45864">
        <ele>24.2</ele>
        <time>2023-05-02T11:43:23Z</time>
      </trkpt>
      <trkpt lat="49.05225" lon="-0.45862">
        <ele>24.2</ele>
        <time>2023-05-02T11:43:24Z</time>
      </trkpt>
      <trkpt lat="49.05218" lon="-0.45861">
        <ele>24.4</ele>
        <time>2023-05-02T11:43:25Z</time>
      </trkpt>
      <trkpt lat="49.05211" lon="-0.45859">
        <ele>24.6</ele>
        <time>2023-05-02T11:43:26Z</time>
      </trkpt>
      <trkpt lat="49.05204" lon="-0.45858">
        <ele>24.8</ele>
        <time>2023-05-02T11:43:27Z</time>
      </trkpt>
      <trkpt lat="49.05196" lon="-0.45857">
        <ele>24.8</ele>
        <time>2023-05-02T11:43:28Z</time>
      </trkpt>
      <trkpt lat="49.05189" lon="-0.45855">
        <ele>24.8</ele>
        <time>2023-05-02T11:43:29Z</time>
      </trkpt>
      <trkpt lat="49.05182" lon="-0.45854">
        <ele>25</ele>
        <time>2023-05-02T11:43:30Z</time>
      </trkpt>
      <trkpt lat="49.05175" lon="-0.45852">
        <ele>25</ele>
        <time>2023-05-02T11:43:31Z</time>
      </trkpt>
      <trkpt lat="49.05168" lon="-0.45851">
        <ele>25.2</ele>
        <time>2023-05-02T11:43:32Z</time>
      </trkpt>
      <trkpt lat="49.0516" lon="-0.4585">
        <ele>25.2</ele>
        <time>2023-05-02T11:43:33Z</time>
      </trkpt>
      <trkpt lat="49.05153" lon="-0.45848">
        <ele>25.2</ele>
        <time>2023-05-02T11:43:34Z</time>
      </trkpt>
      <trkpt lat="49.05145" lon="-0.45847">
        <ele>25.2</ele>
        <time>2023-05-02T11:43:35Z</time>
      </trkpt>
      <trkpt lat="49.05138" lon="-0.45846">
        <ele>25.2</ele>
        <time>2023-05-02T11:43:36Z</time>
      </trkpt>
      <trkpt lat="49.0513" lon="-0.45844">
        <ele>25.2</ele>
        <time>2023-05-02T11:43:37Z</time>
      </trkpt>
      <trkpt lat="49.05123" lon="-0.45843">
        <ele>25.2</ele>
        <time>2023-05-02T11:43:38Z</time>
      </trkpt>
      <trkpt lat="49.05116" lon="-0.45842">
        <ele>25.2</ele>
        <time>2023-05-02T11:43:39Z</time>
      </trkpt>
      <trkpt lat="49.05108" lon="-0.4584">
        <ele>25</ele>
        <time>2023-05-02T11:43:40Z</time>
      </trkpt>
      <trkpt lat="49.05101" lon="-0.45839">
        <ele>25</ele>
        <time>2023-05-02T11:43:41Z</time>
      </trkpt>
      <trkpt lat="49.05093" lon="-0.45838">
        <ele>24.8</ele>
        <time>2023-05-02T11:43:42Z</time>
      </trkpt>
      <trkpt lat="49.05086" lon="-0.45836">
        <ele>24.8</ele>
        <time>2023-05-02T11:43:43Z</time>
      </trkpt>
      <trkpt lat="49.05078" lon="-0.45835">
        <ele>24.6</ele>
        <time>2023-05-02T11:43:44Z</time>
      </trkpt>
      <trkpt lat="49.05071" lon="-0.45834">
        <ele>24.2</ele>
        <time>2023-05-02T11:43:45Z</time>
      </trkpt>
      <trkpt lat="49.05064" lon="-0.45833">
        <ele>23.8</ele>
        <time>2023-05-02T11:43:46Z</time>
      </trkpt>
      <trkpt lat="49.05057" lon="-0.45832">
        <ele>23.4</ele>
        <time>2023-05-02T11:43:47Z</time>
      </trkpt>
      <trkpt lat="49.0505" lon="-0.45831">
        <ele>23.2</ele>
        <time>2023-05-02T11:43:48Z</time>
      </trkpt>
      <trkpt lat="49.05043" lon="-0.45829">
        <ele>22.8</ele>
        <time>2023-05-02T11:43:49Z</time>
      </trkpt>
      <trkpt lat="49.05036" lon="-0.45828">
        <ele>22.6</ele>
        <time>2023-05-02T11:43:50Z</time>
      </trkpt>
      <trkpt lat="49.05029" lon="-0.45828">
        <ele>22.2</ele>
        <time>2023-05-02T11:43:51Z</time>
      </trkpt>
      <trkpt lat="49.05022" lon="-0.45827">
        <ele>21.8</ele>
        <time>2023-05-02T11:43:52Z</time>
      </trkpt>
      <trkpt lat="49.05015" lon="-0.45826">
        <ele>21.6</ele>
        <time>2023-05-02T11:43:53Z</time>
      </trkpt>
      <trkpt lat="49.05009" lon="-0.45825">
        <ele>21.2</ele>
        <time>2023-05-02T11:43:54Z</time>
      </trkpt>
      <trkpt lat="49.05002" lon="-0.45824">
        <ele>20.8</ele>
        <time>2023-05-02T11:43:55Z</time>
      </trkpt>
      <trkpt lat="49.04995" lon="-0.45823">
        <ele>20.8</ele>
        <time>2023-05-02T11:43:56Z</time>
      </trkpt>
      <trkpt lat="49.04989" lon="-0.45823">
        <ele>20.8</ele>
        <time>2023-05-02T11:43:57Z</time>
      </trkpt>
      <trkpt lat="49.04982" lon="-0.45822">
        <ele>20.8</ele>
        <time>2023-05-02T11:43:58Z</time>
      </trkpt>
      <trkpt lat="49.04975" lon="-0.45821">
        <ele>20.8</ele>
        <time>2023-05-02T11:43:59Z</time>
      </trkpt>
      <trkpt lat="49.04968" lon="-0.45821">
        <ele>20.8</ele>
        <time>2023-05-02T11:44:00Z</time>
      </trkpt>
      <trkpt lat="49.04962" lon="-0.4582">
        <ele>20.8</ele>
        <time>2023-05-02T11:44:01Z</time>
      </trkpt>
      <trkpt lat="49.04955" lon="-0.4582">
        <ele>20.8</ele>
        <time>2023-05-02T11:44:02Z</time>
      </trkpt>
      <trkpt lat="49.04948" lon="-0.45819">
        <ele>20.8</ele>
        <time>2023-05-02T11:44:03Z</time>
      </trkpt>
      <trkpt lat="49.04941" lon="-0.45819">
        <ele>20.8</ele>
        <time>2023-05-02T11:44:04Z</time>
      </trkpt>
      <trkpt lat="49.04934" lon="-0.45819">
        <ele>20.8</ele>
        <time>2023-05-02T11:44:05Z</time>
      </trkpt>
      <trkpt lat="49.04927" lon="-0.4582">
        <ele>20.6</ele>
        <time>2023-05-02T11:44:06Z</time>
      </trkpt>
      <trkpt lat="49.0492" lon="-0.4582">
        <ele>20.4</ele>
        <time>2023-05-02T11:44:07Z</time>
      </trkpt>
      <trkpt lat="49.04913" lon="-0.45821">
        <ele>20.2</ele>
        <time>2023-05-02T11:44:08Z</time>
      </trkpt>
      <trkpt lat="49.04906" lon="-0.45822">
        <ele>20.2</ele>
        <time>2023-05-02T11:44:09Z</time>
      </trkpt>
      <trkpt lat="49.04898" lon="-0.45822">
        <ele>20.2</ele>
        <time>2023-05-02T11:44:10Z</time>
      </trkpt>
      <trkpt lat="49.0489" lon="-0.45822">
        <ele>20.2</ele>
        <time>2023-05-02T11:44:11Z</time>
      </trkpt>
      <trkpt lat="49.04882" lon="-0.45822">
        <ele>20.4</ele>
        <time>2023-05-02T11:44:12Z</time>
      </trkpt>
      <trkpt lat="49.04874" lon="-0.45822">
        <ele>20.6</ele>
        <time>2023-05-02T11:44:13Z</time>
      </trkpt>
      <trkpt lat="49.04867" lon="-0.45822">
        <ele>20.4</ele>
        <time>2023-05-02T11:44:14Z</time>
      </trkpt>
      <trkpt lat="49.0486" lon="-0.45824">
        <ele>20.2</ele>
        <time>2023-05-02T11:44:15Z</time>
      </trkpt>
      <trkpt lat="49.04853" lon="-0.45826">
        <ele>19.8</ele>
        <time>2023-05-02T11:44:16Z</time>
      </trkpt>
      <trkpt lat="49.04846" lon="-0.45828">
        <ele>19.6</ele>
        <time>2023-05-02T11:44:17Z</time>
      </trkpt>
      <trkpt lat="49.0484" lon="-0.45831">
        <ele>19.2</ele>
        <time>2023-05-02T11:44:18Z</time>
      </trkpt>
      <trkpt lat="49.04834" lon="-0.45834">
        <ele>19</ele>
        <time>2023-05-02T11:44:19Z</time>
      </trkpt>
      <trkpt lat="49.04828" lon="-0.45836">
        <ele>19.4</ele>
        <time>2023-05-02T11:44:20Z</time>
      </trkpt>
      <trkpt lat="49.04822" lon="-0.45839">
        <ele>19.8</ele>
        <time>2023-05-02T11:44:21Z</time>
      </trkpt>
      <trkpt lat="49.04816" lon="-0.45842">
        <ele>20.2</ele>
        <time>2023-05-02T11:44:22Z</time>
      </trkpt>
      <trkpt lat="49.0481" lon="-0.45845">
        <ele>20.6</ele>
        <time>2023-05-02T11:44:23Z</time>
      </trkpt>
      <trkpt lat="49.04804" lon="-0.45848">
        <ele>20.8</ele>
        <time>2023-05-02T11:44:24Z</time>
      </trkpt>
      <trkpt lat="49.04798" lon="-0.45852">
        <ele>21.2</ele>
        <time>2023-05-02T11:44:25Z</time>
      </trkpt>
      <trkpt lat="49.04792" lon="-0.45855">
        <ele>21.4</ele>
        <time>2023-05-02T11:44:26Z</time>
      </trkpt>
      <trkpt lat="49.04787" lon="-0.45859">
        <ele>21.6</ele>
        <time>2023-05-02T11:44:27Z</time>
      </trkpt>
      <trkpt lat="49.04781" lon="-0.45863">
        <ele>21.8</ele>
        <time>2023-05-02T11:44:28Z</time>
      </trkpt>
      <trkpt lat="49.04775" lon="-0.45868">
        <ele>21.8</ele>
        <time>2023-05-02T11:44:29Z</time>
      </trkpt>
      <trkpt lat="49.04769" lon="-0.45872">
        <ele>21.8</ele>
        <time>2023-05-02T11:44:30Z</time>
      </trkpt>
      <trkpt lat="49.04763" lon="-0.45877">
        <ele>21.8</ele>
        <time>2023-05-02T11:44:31Z</time>
      </trkpt>
      <trkpt lat="49.04757" lon="-0.45882">
        <ele>21.8</ele>
        <time>2023-05-02T11:44:32Z</time>
      </trkpt>
      <trkpt lat="49.04751" lon="-0.45887">
        <ele>21.6</ele>
        <time>2023-05-02T11:44:33Z</time>
      </trkpt>
      <trkpt lat="49.04744" lon="-0.45892">
        <ele>21.6</ele>
        <time>2023-05-02T11:44:34Z</time>
      </trkpt>
      <trkpt lat="49.04738" lon="-0.45897">
        <ele>21.8</ele>
        <time>2023-05-02T11:44:35Z</time>
      </trkpt>
      <trkpt lat="49.04732" lon="-0.45902">
        <ele>21.8</ele>
        <time>2023-05-02T11:44:36Z</time>
      </trkpt>
      <trkpt lat="49.04726" lon="-0.45907">
        <ele>22</ele>
        <time>2023-05-02T11:44:37Z</time>
      </trkpt>
      <trkpt lat="49.04719" lon="-0.45912">
        <ele>22</ele>
        <time>2023-05-02T11:44:38Z</time>
      </trkpt>
      <trkpt lat="49.04713" lon="-0.45917">
        <ele>22.2</ele>
        <time>2023-05-02T11:44:39Z</time>
      </trkpt>
      <trkpt lat="49.04707" lon="-0.45922">
        <ele>22.4</ele>
        <time>2023-05-02T11:44:40Z</time>
      </trkpt>
      <trkpt lat="49.04701" lon="-0.45927">
        <ele>22.8</ele>
        <time>2023-05-02T11:44:41Z</time>
      </trkpt>
      <trkpt lat="49.04695" lon="-0.45933">
        <ele>23</ele>
        <time>2023-05-02T11:44:42Z</time>
      </trkpt>
      <trkpt lat="49.04689" lon="-0.45938">
        <ele>23.2</ele>
        <time>2023-05-02T11:44:43Z</time>
      </trkpt>
      <trkpt lat="49.04683" lon="-0.45943">
        <ele>23.4</ele>
        <time>2023-05-02T11:44:44Z</time>
      </trkpt>
      <trkpt lat="49.04677" lon="-0.45948">
        <ele>23.6</ele>
        <time>2023-05-02T11:44:45Z</time>
      </trkpt>
      <trkpt lat="49.04671" lon="-0.45954">
        <ele>23.6</ele>
        <time>2023-05-02T11:44:46Z</time>
      </trkpt>
      <trkpt lat="49.04665" lon="-0.45959">
        <ele>23.6</ele>
        <time>2023-05-02T11:44:47Z</time>
      </trkpt>
      <trkpt lat="49.04659" lon="-0.45965">
        <ele>23.8</ele>
        <time>2023-05-02T11:44:48Z</time>
      </trkpt>
      <trkpt lat="49.04653" lon="-0.45971">
        <ele>23.8</ele>
        <time>2023-05-02T11:44:49Z</time>
      </trkpt>
      <trkpt lat="49.04648" lon="-0.45976">
        <ele>23.8</ele>
        <time>2023-05-02T11:44:50Z</time>
      </trkpt>
      <trkpt lat="49.04642" lon="-0.45982">
        <ele>23.8</ele>
        <time>2023-05-02T11:44:51Z</time>
      </trkpt>
      <trkpt lat="49.04636" lon="-0.45988">
        <ele>23.8</ele>
        <time>2023-05-02T11:44:52Z</time>
      </trkpt>
      <trkpt lat="49.0463" lon="-0.45993">
        <ele>23.8</ele>
        <time>2023-05-02T11:44:53Z</time>
      </trkpt>
      <trkpt lat="49.04625" lon="-0.45999">
        <ele>23.6</ele>
        <time>2023-05-02T11:44:54Z</time>
      </trkpt>
      <trkpt lat="49.04619" lon="-0.46005">
        <ele>23.6</ele>
        <time>2023-05-02T11:44:55Z</time>
      </trkpt>
      <trkpt lat="49.04614" lon="-0.4601">
        <ele>23.6</ele>
        <time>2023-05-02T11:44:56Z</time>
      </trkpt>
      <trkpt lat="49.04608" lon="-0.46016">
        <ele>23.6</ele>
        <time>2023-05-02T11:44:57Z</time>
      </trkpt>
      <trkpt lat="49.04603" lon="-0.46022">
        <ele>23.4</ele>
        <time>2023-05-02T11:44:58Z</time>
      </trkpt>
      <trkpt lat="49.04598" lon="-0.46028">
        <ele>23.2</ele>
        <time>2023-05-02T11:44:59Z</time>
      </trkpt>
      <trkpt lat="49.04592" lon="-0.46033">
        <ele>23.2</ele>
        <time>2023-05-02T11:45:00Z</time>
      </trkpt>
      <trkpt lat="49.04587" lon="-0.46039">
        <ele>23</ele>
        <time>2023-05-02T11:45:01Z</time>
      </trkpt>
      <trkpt lat="49.04582" lon="-0.46045">
        <ele>22.8</ele>
        <time>2023-05-02T11:45:02Z</time>
      </trkpt>
      <trkpt lat="49.04576" lon="-0.46051">
        <ele>22.8</ele>
        <time>2023-05-02T11:45:03Z</time>
      </trkpt>
      <trkpt lat="49.04571" lon="-0.46056">
        <ele>22.8</ele>
        <time>2023-05-02T11:45:04Z</time>
      </trkpt>
      <trkpt lat="49.04566" lon="-0.46062">
        <ele>22.8</ele>
        <time>2023-05-02T11:45:05Z</time>
      </trkpt>
      <trkpt lat="49.04561" lon="-0.46068">
        <ele>22.6</ele>
        <time>2023-05-02T11:45:06Z</time>
      </trkpt>
      <trkpt lat="49.04555" lon="-0.46074">
        <ele>22.4</ele>
        <time>2023-05-02T11:45:07Z</time>
      </trkpt>
      <trkpt lat="49.0455" lon="-0.4608">
        <ele>22.2</ele>
        <time>2023-05-02T11:45:08Z</time>
      </trkpt>
      <trkpt lat="49.04545" lon="-0.46085">
        <ele>22.2</ele>
        <time>2023-05-02T11:45:09Z</time>
      </trkpt>
      <trkpt lat="49.04539" lon="-0.46091">
        <ele>22.2</ele>
        <time>2023-05-02T11:45:10Z</time>
      </trkpt>
      <trkpt lat="49.04534" lon="-0.46097">
        <ele>22.2</ele>
        <time>2023-05-02T11:45:11Z</time>
      </trkpt>
      <trkpt lat="49.04529" lon="-0.46103">
        <ele>22.2</ele>
        <time>2023-05-02T11:45:12Z</time>
      </trkpt>
      <trkpt lat="49.04523" lon="-0.46108">
        <ele>22.2</ele>
        <time>2023-05-02T11:45:13Z</time>
      </trkpt>
      <trkpt lat="49.04518" lon="-0.46114">
        <ele>22.2</ele>
        <time>2023-05-02T11:45:14Z</time>
      </trkpt>
      <trkpt lat="49.04512" lon="-0.46119">
        <ele>22</ele>
        <time>2023-05-02T11:45:15Z</time>
      </trkpt>
      <trkpt lat="49.04507" lon="-0.46124">
        <ele>21.8</ele>
        <time>2023-05-02T11:45:16Z</time>
      </trkpt>
      <trkpt lat="49.04501" lon="-0.46129">
        <ele>21.8</ele>
        <time>2023-05-02T11:45:17Z</time>
      </trkpt>
      <trkpt lat="49.04495" lon="-0.46134">
        <ele>21.6</ele>
        <time>2023-05-02T11:45:18Z</time>
      </trkpt>
      <trkpt lat="49.04489" lon="-0.46139">
        <ele>21.6</ele>
        <time>2023-05-02T11:45:19Z</time>
      </trkpt>
      <trkpt lat="49.04484" lon="-0.46144">
        <ele>21.6</ele>
        <time>2023-05-02T11:45:20Z</time>
      </trkpt>
      <trkpt lat="49.04478" lon="-0.46148">
        <ele>21.4</ele>
        <time>2023-05-02T11:45:21Z</time>
      </trkpt>
      <trkpt lat="49.04472" lon="-0.46153">
        <ele>21.2</ele>
        <time>2023-05-02T11:45:22Z</time>
      </trkpt>
      <trkpt lat="49.04466" lon="-0.46157">
        <ele>21.2</ele>
        <time>2023-05-02T11:45:23Z</time>
      </trkpt>
      <trkpt lat="49.0446" lon="-0.46162">
        <ele>20.8</ele>
        <time>2023-05-02T11:45:24Z</time>
      </trkpt>
      <trkpt lat="49.04455" lon="-0.46166">
        <ele>20.6</ele>
        <time>2023-05-02T11:45:25Z</time>
      </trkpt>
      <trkpt lat="49.04449" lon="-0.46171">
        <ele>20.6</ele>
        <time>2023-05-02T11:45:26Z</time>
      </trkpt>
      <trkpt lat="49.04444" lon="-0.46176">
        <ele>20.6</ele>
        <time>2023-05-02T11:45:27Z</time>
      </trkpt>
      <trkpt lat="49.04438" lon="-0.46181">
        <ele>20.4</ele>
        <time>2023-05-02T11:45:28Z</time>
      </trkpt>
      <trkpt lat="49.04433" lon="-0.46186">
        <ele>20.2</ele>
        <time>2023-05-02T11:45:29Z</time>
      </trkpt>
      <trkpt lat="49.04427" lon="-0.4619">
        <ele>20.2</ele>
        <time>2023-05-02T11:45:30Z</time>
      </trkpt>
      <trkpt lat="49.04421" lon="-0.46195">
        <ele>20.2</ele>
        <time>2023-05-02T11:45:31Z</time>
      </trkpt>
      <trkpt lat="49.04415" lon="-0.46199">
        <ele>20.2</ele>
        <time>2023-05-02T11:45:32Z</time>
      </trkpt>
      <trkpt lat="49.04409" lon="-0.46204">
        <ele>20.2</ele>
        <time>2023-05-02T11:45:33Z</time>
      </trkpt>
      <trkpt lat="49.04403" lon="-0.46208">
        <ele>20.4</ele>
        <time>2023-05-02T11:45:34Z</time>
      </trkpt>
      <trkpt lat="49.04396" lon="-0.46212">
        <ele>20.6</ele>
        <time>2023-05-02T11:45:35Z</time>
      </trkpt>
      <trkpt lat="49.0439" lon="-0.46216">
        <ele>20.6</ele>
        <time>2023-05-02T11:45:36Z</time>
      </trkpt>
      <trkpt lat="49.04383" lon="-0.4622">
        <ele>20.8</ele>
        <time>2023-05-02T11:45:37Z</time>
      </trkpt>
      <trkpt lat="49.04377" lon="-0.46223">
        <ele>20.8</ele>
        <time>2023-05-02T11:45:38Z</time>
      </trkpt>
      <trkpt lat="49.04371" lon="-0.46227">
        <ele>20.8</ele>
        <time>2023-05-02T11:45:39Z</time>
      </trkpt>
      <trkpt lat="49.04364" lon="-0.46231">
        <ele>21</ele>
        <time>2023-05-02T11:45:40Z</time>
      </trkpt>
      <trkpt lat="49.04358" lon="-0.46234">
        <ele>21</ele>
        <time>2023-05-02T11:45:41Z</time>
      </trkpt>
      <trkpt lat="49.04352" lon="-0.46238">
        <ele>21.2</ele>
        <time>2023-05-02T11:45:42Z</time>
      </trkpt>
      <trkpt lat="49.04346" lon="-0.46242">
        <ele>21.2</ele>
        <time>2023-05-02T11:45:43Z</time>
      </trkpt>
      <trkpt lat="49.0434" lon="-0.46246">
        <ele>21</ele>
        <time>2023-05-02T11:45:44Z</time>
      </trkpt>
      <trkpt lat="49.04334" lon="-0.4625">
        <ele>21</ele>
        <time>2023-05-02T11:45:45Z</time>
      </trkpt>
      <trkpt lat="49.04328" lon="-0.46253">
        <ele>20.8</ele>
        <time>2023-05-02T11:45:46Z</time>
      </trkpt>
      <trkpt lat="49.04321" lon="-0.46257">
        <ele>20.8</ele>
        <time>2023-05-02T11:45:47Z</time>
      </trkpt>
      <trkpt lat="49.04315" lon="-0.46261">
        <ele>20.8</ele>
        <time>2023-05-02T11:45:48Z</time>
      </trkpt>
      <trkpt lat="49.04308" lon="-0.46264">
        <ele>20.8</ele>
        <time>2023-05-02T11:45:49Z</time>
      </trkpt>
      <trkpt lat="49.04302" lon="-0.46267">
        <ele>20.8</ele>
        <time>2023-05-02T11:45:50Z</time>
      </trkpt>
      <trkpt lat="49.04295" lon="-0.4627">
        <ele>20.6</ele>
        <time>2023-05-02T11:45:51Z</time>
      </trkpt>
      <trkpt lat="49.04288" lon="-0.46273">
        <ele>20.6</ele>
        <time>2023-05-02T11:45:52Z</time>
      </trkpt>
      <trkpt lat="49.04281" lon="-0.46275">
        <ele>20.6</ele>
        <time>2023-05-02T11:45:53Z</time>
      </trkpt>
      <trkpt lat="49.04274" lon="-0.46278">
        <ele>20.6</ele>
        <time>2023-05-02T11:45:54Z</time>
      </trkpt>
      <trkpt lat="49.04267" lon="-0.46281">
        <ele>20.4</ele>
        <time>2023-05-02T11:45:55Z</time>
      </trkpt>
      <trkpt lat="49.04261" lon="-0.46285">
        <ele>20.2</ele>
        <time>2023-05-02T11:45:56Z</time>
      </trkpt>
      <trkpt lat="49.04254" lon="-0.46288">
        <ele>20.2</ele>
        <time>2023-05-02T11:45:57Z</time>
      </trkpt>
      <trkpt lat="49.04247" lon="-0.46291">
        <ele>20.2</ele>
        <time>2023-05-02T11:45:58Z</time>
      </trkpt>
      <trkpt lat="49.04241" lon="-0.46294">
        <ele>20.2</ele>
        <time>2023-05-02T11:45:59Z</time>
      </trkpt>
      <trkpt lat="49.04234" lon="-0.46298">
        <ele>20</ele>
        <time>2023-05-02T11:46:00Z</time>
      </trkpt>
      <trkpt lat="49.04227" lon="-0.46301">
        <ele>19.8</ele>
        <time>2023-05-02T11:46:01Z</time>
      </trkpt>
      <trkpt lat="49.04221" lon="-0.46304">
        <ele>19.8</ele>
        <time>2023-05-02T11:46:02Z</time>
      </trkpt>
      <trkpt lat="49.04214" lon="-0.46307">
        <ele>19.6</ele>
        <time>2023-05-02T11:46:03Z</time>
      </trkpt>
      <trkpt lat="49.04207" lon="-0.46311">
        <ele>19.2</ele>
        <time>2023-05-02T11:46:04Z</time>
      </trkpt>
      <trkpt lat="49.04201" lon="-0.46314">
        <ele>19.2</ele>
        <time>2023-05-02T11:46:05Z</time>
      </trkpt>
      <trkpt lat="49.04194" lon="-0.46317">
        <ele>18.8</ele>
        <time>2023-05-02T11:46:06Z</time>
      </trkpt>
      <trkpt lat="49.04187" lon="-0.4632">
        <ele>18.6</ele>
        <time>2023-05-02T11:46:07Z</time>
      </trkpt>
      <trkpt lat="49.0418" lon="-0.46323">
        <ele>18.2</ele>
        <time>2023-05-02T11:46:08Z</time>
      </trkpt>
      <trkpt lat="49.04173" lon="-0.46326">
        <ele>18</ele>
        <time>2023-05-02T11:46:09Z</time>
      </trkpt>
      <trkpt lat="49.04166" lon="-0.46329">
        <ele>17.6</ele>
        <time>2023-05-02T11:46:10Z</time>
      </trkpt>
      <trkpt lat="49.04159" lon="-0.46331">
        <ele>17.8</ele>
        <time>2023-05-02T11:46:11Z</time>
      </trkpt>
      <trkpt lat="49.04152" lon="-0.46334">
        <ele>18.2</ele>
        <time>2023-05-02T11:46:12Z</time>
      </trkpt>
      <trkpt lat="49.04146" lon="-0.46337">
        <ele>18.6</ele>
        <time>2023-05-02T11:46:13Z</time>
      </trkpt>
      <trkpt lat="49.04139" lon="-0.4634">
        <ele>19</ele>
        <time>2023-05-02T11:46:14Z</time>
      </trkpt>
      <trkpt lat="49.04132" lon="-0.46343">
        <ele>19.4</ele>
        <time>2023-05-02T11:46:15Z</time>
      </trkpt>
      <trkpt lat="49.04125" lon="-0.46346">
        <ele>19.8</ele>
        <time>2023-05-02T11:46:16Z</time>
      </trkpt>
      <trkpt lat="49.04118" lon="-0.4635">
        <ele>20.2</ele>
        <time>2023-05-02T11:46:17Z</time>
      </trkpt>
      <trkpt lat="49.04111" lon="-0.46353">
        <ele>20.6</ele>
        <time>2023-05-02T11:46:18Z</time>
      </trkpt>
      <trkpt lat="49.04105" lon="-0.46356">
        <ele>20.8</ele>
        <time>2023-05-02T11:46:19Z</time>
      </trkpt>
      <trkpt lat="49.04098" lon="-0.46359">
        <ele>21.2</ele>
        <time>2023-05-02T11:46:20Z</time>
      </trkpt>
      <trkpt lat="49.04091" lon="-0.46362">
        <ele>21.4</ele>
        <time>2023-05-02T11:46:21Z</time>
      </trkpt>
      <trkpt lat="49.04084" lon="-0.46366">
        <ele>21.6</ele>
        <time>2023-05-02T11:46:22Z</time>
      </trkpt>
      <trkpt lat="49.04077" lon="-0.46369">
        <ele>21.8</ele>
        <time>2023-05-02T11:46:23Z</time>
      </trkpt>
      <trkpt lat="49.04071" lon="-0.46372">
        <ele>21.8</ele>
        <time>2023-05-02T11:46:24Z</time>
      </trkpt>
      <trkpt lat="49.04064" lon="-0.46375">
        <ele>21.8</ele>
        <time>2023-05-02T11:46:25Z</time>
      </trkpt>
      <trkpt lat="49.04057" lon="-0.46378">
        <ele>21.8</ele>
        <time>2023-05-02T11:46:26Z</time>
      </trkpt>
      <trkpt lat="49.0405" lon="-0.4638">
        <ele>21.8</ele>
        <time>2023-05-02T11:46:27Z</time>
      </trkpt>
      <trkpt lat="49.04043" lon="-0.46383">
        <ele>21.8</ele>
        <time>2023-05-02T11:46:28Z</time>
      </trkpt>
      <trkpt lat="49.04036" lon="-0.46386">
        <ele>21.8</ele>
        <time>2023-05-02T11:46:29Z</time>
      </trkpt>
      <trkpt lat="49.04029" lon="-0.46389">
        <ele>21.8</ele>
        <time>2023-05-02T11:46:30Z</time>
      </trkpt>
      <trkpt lat="49.04022" lon="-0.46392">
        <ele>21.8</ele>
        <time>2023-05-02T11:46:31Z</time>
      </trkpt>
      <trkpt lat="49.04016" lon="-0.46395">
        <ele>21.6</ele>
        <time>2023-05-02T11:46:32Z</time>
      </trkpt>
      <trkpt lat="49.0401" lon="-0.46398">
        <ele>21.6</ele>
        <time>2023-05-02T11:46:33Z</time>
      </trkpt>
      <trkpt lat="49.04004" lon="-0.46402">
        <ele>21.2</ele>
        <time>2023-05-02T11:46:34Z</time>
      </trkpt>
      <trkpt lat="49.03998" lon="-0.46406">
        <ele>21.2</ele>
        <time>2023-05-02T11:46:35Z</time>
      </trkpt>
      <trkpt lat="49.03992" lon="-0.46409">
        <ele>21.2</ele>
        <time>2023-05-02T11:46:36Z</time>
      </trkpt>
      <trkpt lat="49.03985" lon="-0.46413">
        <ele>21.2</ele>
        <time>2023-05-02T11:46:37Z</time>
      </trkpt>
      <trkpt lat="49.03979" lon="-0.46417">
        <ele>21</ele>
        <time>2023-05-02T11:46:38Z</time>
      </trkpt>
      <trkpt lat="49.03972" lon="-0.46421">
        <ele>21.2</ele>
        <time>2023-05-02T11:46:39Z</time>
      </trkpt>
      <trkpt lat="49.03966" lon="-0.46425">
        <ele>21.2</ele>
        <time>2023-05-02T11:46:40Z</time>
      </trkpt>
      <trkpt lat="49.03959" lon="-0.46428">
        <ele>21.4</ele>
        <time>2023-05-02T11:46:41Z</time>
      </trkpt>
      <trkpt lat="49.03952" lon="-0.46431">
        <ele>21.6</ele>
        <time>2023-05-02T11:46:42Z</time>
      </trkpt>
      <trkpt lat="49.03944" lon="-0.46433">
        <ele>21.8</ele>
        <time>2023-05-02T11:46:43Z</time>
      </trkpt>
      <trkpt lat="49.03937" lon="-0.46436">
        <ele>21.8</ele>
        <time>2023-05-02T11:46:44Z</time>
      </trkpt>
      <trkpt lat="49.0393" lon="-0.46438">
        <ele>22</ele>
        <time>2023-05-02T11:46:45Z</time>
      </trkpt>
      <trkpt lat="49.03922" lon="-0.4644">
        <ele>22.2</ele>
        <time>2023-05-02T11:46:46Z</time>
      </trkpt>
      <trkpt lat="49.03915" lon="-0.46443">
        <ele>22.2</ele>
        <time>2023-05-02T11:46:47Z</time>
      </trkpt>
      <trkpt lat="49.03908" lon="-0.46445">
        <ele>22.6</ele>
        <time>2023-05-02T11:46:48Z</time>
      </trkpt>
      <trkpt lat="49.03901" lon="-0.46448">
        <ele>22.6</ele>
        <time>2023-05-02T11:46:49Z</time>
      </trkpt>
      <trkpt lat="49.03893" lon="-0.46451">
        <ele>22.8</ele>
        <time>2023-05-02T11:46:50Z</time>
      </trkpt>
      <trkpt lat="49.03887" lon="-0.46455">
        <ele>22.8</ele>
        <time>2023-05-02T11:46:51Z</time>
      </trkpt>
      <trkpt lat="49.0388" lon="-0.46458">
        <ele>22.8</ele>
        <time>2023-05-02T11:46:52Z</time>
      </trkpt>
      <trkpt lat="49.03873" lon="-0.46462">
        <ele>22.8</ele>
        <time>2023-05-02T11:46:53Z</time>
      </trkpt>
      <trkpt lat="49.03867" lon="-0.46466">
        <ele>22.6</ele>
        <time>2023-05-02T11:46:54Z</time>
      </trkpt>
      <trkpt lat="49.0386" lon="-0.4647">
        <ele>22.2</ele>
        <time>2023-05-02T11:46:55Z</time>
      </trkpt>
      <trkpt lat="49.03854" lon="-0.46474">
        <ele>22</ele>
        <time>2023-05-02T11:46:56Z</time>
      </trkpt>
      <trkpt lat="49.03848" lon="-0.46478">
        <ele>21.8</ele>
        <time>2023-05-02T11:46:57Z</time>
      </trkpt>
      <trkpt lat="49.03841" lon="-0.46482">
        <ele>21.2</ele>
        <time>2023-05-02T11:46:58Z</time>
      </trkpt>
      <trkpt lat="49.03835" lon="-0.46487">
        <ele>20.8</ele>
        <time>2023-05-02T11:46:59Z</time>
      </trkpt>
      <trkpt lat="49.03828" lon="-0.46491">
        <ele>20.8</ele>
        <time>2023-05-02T11:47:00Z</time>
      </trkpt>
      <trkpt lat="49.03821" lon="-0.46494">
        <ele>20.8</ele>
        <time>2023-05-02T11:47:01Z</time>
      </trkpt>
      <trkpt lat="49.03814" lon="-0.46498">
        <ele>20.6</ele>
        <time>2023-05-02T11:47:02Z</time>
      </trkpt>
      <trkpt lat="49.03807" lon="-0.46502">
        <ele>20.8</ele>
        <time>2023-05-02T11:47:03Z</time>
      </trkpt>
      <trkpt lat="49.038" lon="-0.46505">
        <ele>21.2</ele>
        <time>2023-05-02T11:47:04Z</time>
      </trkpt>
      <trkpt lat="49.03793" lon="-0.46509">
        <ele>21.6</ele>
        <time>2023-05-02T11:47:05Z</time>
      </trkpt>
      <trkpt lat="49.03786" lon="-0.46512">
        <ele>21.8</ele>
        <time>2023-05-02T11:47:06Z</time>
      </trkpt>
      <trkpt lat="49.03779" lon="-0.46515">
        <ele>22.2</ele>
        <time>2023-05-02T11:47:07Z</time>
      </trkpt>
      <trkpt lat="49.03771" lon="-0.46518">
        <ele>22.2</ele>
        <time>2023-05-02T11:47:08Z</time>
      </trkpt>
      <trkpt lat="49.03764" lon="-0.46521">
        <ele>22.2</ele>
        <time>2023-05-02T11:47:09Z</time>
      </trkpt>
      <trkpt lat="49.03756" lon="-0.46524">
        <ele>22.2</ele>
        <time>2023-05-02T11:47:10Z</time>
      </trkpt>
      <trkpt lat="49.03749" lon="-0.46528">
        <ele>22.2</ele>
        <time>2023-05-02T11:47:11Z</time>
      </trkpt>
      <trkpt lat="49.03741" lon="-0.46531">
        <ele>22</ele>
        <time>2023-05-02T11:47:12Z</time>
      </trkpt>
      <trkpt lat="49.03734" lon="-0.46534">
        <ele>21.8</ele>
        <time>2023-05-02T11:47:13Z</time>
      </trkpt>
      <trkpt lat="49.03727" lon="-0.46537">
        <ele>21.8</ele>
        <time>2023-05-02T11:47:14Z</time>
      </trkpt>
      <trkpt lat="49.03719" lon="-0.46541">
        <ele>21.8</ele>
        <time>2023-05-02T11:47:15Z</time>
      </trkpt>
      <trkpt lat="49.03711" lon="-0.46543">
        <ele>21.8</ele>
        <time>2023-05-02T11:47:16Z</time>
      </trkpt>
      <trkpt lat="49.03704" lon="-0.46546">
        <ele>21.6</ele>
        <time>2023-05-02T11:47:17Z</time>
      </trkpt>
      <trkpt lat="49.03696" lon="-0.46549">
        <ele>21.6</ele>
        <time>2023-05-02T11:47:18Z</time>
      </trkpt>
      <trkpt lat="49.03688" lon="-0.46551">
        <ele>21.6</ele>
        <time>2023-05-02T11:47:19Z</time>
      </trkpt>
      <trkpt lat="49.03679" lon="-0.46553">
        <ele>21.6</ele>
        <time>2023-05-02T11:47:20Z</time>
      </trkpt>
      <trkpt lat="49.03671" lon="-0.46555">
        <ele>21.6</ele>
        <time>2023-05-02T11:47:21Z</time>
      </trkpt>
      <trkpt lat="49.03663" lon="-0.46557">
        <ele>21.6</ele>
        <time>2023-05-02T11:47:22Z</time>
      </trkpt>
      <trkpt lat="49.03654" lon="-0.46558">
        <ele>21.4</ele>
        <time>2023-05-02T11:47:23Z</time>
      </trkpt>
      <trkpt lat="49.03646" lon="-0.4656">
        <ele>21.2</ele>
        <time>2023-05-02T11:47:24Z</time>
      </trkpt>
      <trkpt lat="49.03637" lon="-0.46561">
        <ele>21.2</ele>
        <time>2023-05-02T11:47:25Z</time>
      </trkpt>
      <trkpt lat="49.03629" lon="-0.46563">
        <ele>21</ele>
        <time>2023-05-02T11:47:26Z</time>
      </trkpt>
      <trkpt lat="49.03621" lon="-0.46565">
        <ele>20.8</ele>
        <time>2023-05-02T11:47:27Z</time>
      </trkpt>
      <trkpt lat="49.03613" lon="-0.46566">
        <ele>20.8</ele>
        <time>2023-05-02T11:47:28Z</time>
      </trkpt>
      <trkpt lat="49.03605" lon="-0.46568">
        <ele>20.6</ele>
        <time>2023-05-02T11:47:29Z</time>
      </trkpt>
      <trkpt lat="49.03597" lon="-0.4657">
        <ele>20.6</ele>
        <time>2023-05-02T11:47:30Z</time>
      </trkpt>
      <trkpt lat="49.03589" lon="-0.46572">
        <ele>20.2</ele>
        <time>2023-05-02T11:47:31Z</time>
      </trkpt>
      <trkpt lat="49.03581" lon="-0.46574">
        <ele>20.2</ele>
        <time>2023-05-02T11:47:32Z</time>
      </trkpt>
      <trkpt lat="49.03574" lon="-0.46576">
        <ele>20.2</ele>
        <time>2023-05-02T11:47:33Z</time>
      </trkpt>
      <trkpt lat="49.03566" lon="-0.46578">
        <ele>20.2</ele>
        <time>2023-05-02T11:47:34Z</time>
      </trkpt>
      <trkpt lat="49.03559" lon="-0.4658">
        <ele>20</ele>
        <time>2023-05-02T11:47:35Z</time>
      </trkpt>
      <trkpt lat="49.03551" lon="-0.46582">
        <ele>19.8</ele>
        <time>2023-05-02T11:47:36Z</time>
      </trkpt>
      <trkpt lat="49.03544" lon="-0.46584">
        <ele>19.8</ele>
        <time>2023-05-02T11:47:37Z</time>
      </trkpt>
      <trkpt lat="49.03536" lon="-0.46586">
        <ele>20</ele>
        <time>2023-05-02T11:47:38Z</time>
      </trkpt>
      <trkpt lat="49.03529" lon="-0.46587">
        <ele>20.2</ele>
        <time>2023-05-02T11:47:39Z</time>
      </trkpt>
      <trkpt lat="49.03522" lon="-0.46589">
        <ele>20.2</ele>
        <time>2023-05-02T11:47:40Z</time>
      </trkpt>
      <trkpt lat="49.03515" lon="-0.4659">
        <ele>20.2</ele>
        <time>2023-05-02T11:47:41Z</time>
      </trkpt>
      <trkpt lat="49.03507" lon="-0.46591">
        <ele>20.2</ele>
        <time>2023-05-02T11:47:42Z</time>
      </trkpt>
      <trkpt lat="49.035" lon="-0.46593">
        <ele>20.6</ele>
        <time>2023-05-02T11:47:43Z</time>
      </trkpt>
      <trkpt lat="49.03493" lon="-0.46593">
        <ele>20.6</ele>
        <time>2023-05-02T11:47:44Z</time>
      </trkpt>
      <trkpt lat="49.03485" lon="-0.46594">
        <ele>20.8</ele>
        <time>2023-05-02T11:47:45Z</time>
      </trkpt>
      <trkpt lat="49.03478" lon="-0.46595">
        <ele>20.8</ele>
        <time>2023-05-02T11:47:46Z</time>
      </trkpt>
      <trkpt lat="49.0347" lon="-0.46596">
        <ele>20.8</ele>
        <time>2023-05-02T11:47:47Z</time>
      </trkpt>
      <trkpt lat="49.03463" lon="-0.46597">
        <ele>21</ele>
        <time>2023-05-02T11:47:48Z</time>
      </trkpt>
      <trkpt lat="49.03455" lon="-0.46597">
        <ele>21.2</ele>
        <time>2023-05-02T11:47:49Z</time>
      </trkpt>
      <trkpt lat="49.03448" lon="-0.46597">
        <ele>21.2</ele>
        <time>2023-05-02T11:47:50Z</time>
      </trkpt>
      <trkpt lat="49.03441" lon="-0.46598">
        <ele>21.4</ele>
        <time>2023-05-02T11:47:51Z</time>
      </trkpt>
      <trkpt lat="49.03435" lon="-0.46598">
        <ele>21.6</ele>
        <time>2023-05-02T11:47:52Z</time>
      </trkpt>
      <trkpt lat="49.03428" lon="-0.46599">
        <ele>21.6</ele>
        <time>2023-05-02T11:47:53Z</time>
      </trkpt>
      <trkpt lat="49.03422" lon="-0.46599">
        <ele>21.8</ele>
        <time>2023-05-02T11:47:54Z</time>
      </trkpt>
      <trkpt lat="49.03415" lon="-0.46599">
        <ele>21.8</ele>
        <time>2023-05-02T11:47:55Z</time>
      </trkpt>
      <trkpt lat="49.03409" lon="-0.46599">
        <ele>21.8</ele>
        <time>2023-05-02T11:47:56Z</time>
      </trkpt>
      <trkpt lat="49.03403" lon="-0.46599">
        <ele>21.8</ele>
        <time>2023-05-02T11:47:57Z</time>
      </trkpt>
      <trkpt lat="49.03396" lon="-0.46598">
        <ele>21.8</ele>
        <time>2023-05-02T11:47:58Z</time>
      </trkpt>
      <trkpt lat="49.0339" lon="-0.46598">
        <ele>21.8</ele>
        <time>2023-05-02T11:47:59Z</time>
      </trkpt>
      <trkpt lat="49.03384" lon="-0.46598">
        <ele>21.8</ele>
        <time>2023-05-02T11:48:00Z</time>
      </trkpt>
      <trkpt lat="49.03379" lon="-0.46599">
        <ele>21.8</ele>
        <time>2023-05-02T11:48:01Z</time>
      </trkpt>
      <trkpt lat="49.03373" lon="-0.46599">
        <ele>21.8</ele>
        <time>2023-05-02T11:48:02Z</time>
      </trkpt>
      <trkpt lat="49.03368" lon="-0.46599">
        <ele>21.6</ele>
        <time>2023-05-02T11:48:03Z</time>
      </trkpt>
      <trkpt lat="49.03363" lon="-0.46599">
        <ele>21.6</ele>
        <time>2023-05-02T11:48:04Z</time>
      </trkpt>
      <trkpt lat="49.03358" lon="-0.46599">
        <ele>21.6</ele>
        <time>2023-05-02T11:48:05Z</time>
      </trkpt>
      <trkpt lat="49.03353" lon="-0.46598">
        <ele>21.6</ele>
        <time>2023-05-02T11:48:06Z</time>
      </trkpt>
      <trkpt lat="49.03348" lon="-0.46598">
        <ele>21.6</ele>
        <time>2023-05-02T11:48:07Z</time>
      </trkpt>
      <trkpt lat="49.03344" lon="-0.46597">
        <ele>21.6</ele>
        <time>2023-05-02T11:48:08Z</time>
      </trkpt>
      <trkpt lat="49.0334" lon="-0.46596">
        <ele>21.6</ele>
        <time>2023-05-02T11:48:09Z</time>
      </trkpt>
      <trkpt lat="49.03336" lon="-0.46595">
        <ele>21.6</ele>
        <time>2023-05-02T11:48:10Z</time>
      </trkpt>
      <trkpt lat="49.03333" lon="-0.46594">
        <ele>21.6</ele>
        <time>2023-05-02T11:48:11Z</time>
      </trkpt>
      <trkpt lat="49.0333" lon="-0.46593">
        <ele>21.6</ele>
        <time>2023-05-02T11:48:12Z</time>
      </trkpt>
      <trkpt lat="49.03327" lon="-0.46592">
        <ele>21.6</ele>
        <time>2023-05-02T11:48:13Z</time>
      </trkpt>
      <trkpt lat="49.03324" lon="-0.46591">
        <ele>21.6</ele>
        <time>2023-05-02T11:48:14Z</time>
      </trkpt>
      <trkpt lat="49.03322" lon="-0.4659">
        <ele>21.6</ele>
        <time>2023-05-02T11:48:15Z</time>
      </trkpt>
      <trkpt lat="49.03319" lon="-0.46589">
        <ele>21.6</ele>
        <time>2023-05-02T11:48:16Z</time>
      </trkpt>
      <trkpt lat="49.03316" lon="-0.46589">
        <ele>21.4</ele>
        <time>2023-05-02T11:48:17Z</time>
      </trkpt>
      <trkpt lat="49.03313" lon="-0.46588">
        <ele>21.4</ele>
        <time>2023-05-02T11:48:18Z</time>
      </trkpt>
      <trkpt lat="49.03309" lon="-0.46587">
        <ele>21.2</ele>
        <time>2023-05-02T11:48:19Z</time>
      </trkpt>
      <trkpt lat="49.03305" lon="-0.46586">
        <ele>21.2</ele>
        <time>2023-05-02T11:48:20Z</time>
      </trkpt>
      <trkpt lat="49.03301" lon="-0.46585">
        <ele>21.2</ele>
        <time>2023-05-02T11:48:21Z</time>
      </trkpt>
      <trkpt lat="49.03296" lon="-0.46583">
        <ele>21.2</ele>
        <time>2023-05-02T11:48:22Z</time>
      </trkpt>
      <trkpt lat="49.03291" lon="-0.46582">
        <ele>21.2</ele>
        <time>2023-05-02T11:48:23Z</time>
      </trkpt>
      <trkpt lat="49.03285" lon="-0.46581">
        <ele>21.2</ele>
        <time>2023-05-02T11:48:24Z</time>
      </trkpt>
      <trkpt lat="49.03279" lon="-0.46579">
        <ele>21.2</ele>
        <time>2023-05-02T11:48:25Z</time>
      </trkpt>
      <trkpt lat="49.03273" lon="-0.46577">
        <ele>21.2</ele>
        <time>2023-05-02T11:48:26Z</time>
      </trkpt>
      <trkpt lat="49.03267" lon="-0.46576">
        <ele>21.2</ele>
        <time>2023-05-02T11:48:27Z</time>
      </trkpt>
      <trkpt lat="49.0326" lon="-0.46574">
        <ele>21.2</ele>
        <time>2023-05-02T11:48:28Z</time>
      </trkpt>
      <trkpt lat="49.03254" lon="-0.46572">
        <ele>21.4</ele>
        <time>2023-05-02T11:48:29Z</time>
      </trkpt>
      <trkpt lat="49.03248" lon="-0.46571">
        <ele>21.6</ele>
        <time>2023-05-02T11:48:30Z</time>
      </trkpt>
      <trkpt lat="49.03241" lon="-0.46569">
        <ele>21.6</ele>
        <time>2023-05-02T11:48:31Z</time>
      </trkpt>
      <trkpt lat="49.03235" lon="-0.46567">
        <ele>21.8</ele>
        <time>2023-05-02T11:48:32Z</time>
      </trkpt>
      <trkpt lat="49.03228" lon="-0.46566">
        <ele>21.8</ele>
        <time>2023-05-02T11:48:33Z</time>
      </trkpt>
      <trkpt lat="49.03222" lon="-0.46564">
        <ele>21.8</ele>
        <time>2023-05-02T11:48:34Z</time>
      </trkpt>
      <trkpt lat="49.03215" lon="-0.46562">
        <ele>22.2</ele>
        <time>2023-05-02T11:48:35Z</time>
      </trkpt>
      <trkpt lat="49.03209" lon="-0.4656">
        <ele>22.2</ele>
        <time>2023-05-02T11:48:36Z</time>
      </trkpt>
      <trkpt lat="49.03202" lon="-0.46558">
        <ele>22.4</ele>
        <time>2023-05-02T11:48:37Z</time>
      </trkpt>
      <trkpt lat="49.03196" lon="-0.46556">
        <ele>22.6</ele>
        <time>2023-05-02T11:48:38Z</time>
      </trkpt>
      <trkpt lat="49.03189" lon="-0.46554">
        <ele>22.8</ele>
        <time>2023-05-02T11:48:39Z</time>
      </trkpt>
      <trkpt lat="49.03182" lon="-0.46552">
        <ele>23</ele>
        <time>2023-05-02T11:48:40Z</time>
      </trkpt>
      <trkpt lat="49.03176" lon="-0.4655">
        <ele>23.2</ele>
        <time>2023-05-02T11:48:41Z</time>
      </trkpt>
      <trkpt lat="49.03169" lon="-0.46548">
        <ele>23.6</ele>
        <time>2023-05-02T11:48:42Z</time>
      </trkpt>
      <trkpt lat="49.03163" lon="-0.46546">
        <ele>23.8</ele>
        <time>2023-05-02T11:48:43Z</time>
      </trkpt>
      <trkpt lat="49.03156" lon="-0.46544">
        <ele>24.4</ele>
        <time>2023-05-02T11:48:44Z</time>
      </trkpt>
      <trkpt lat="49.03149" lon="-0.46542">
        <ele>24.8</ele>
        <time>2023-05-02T11:48:45Z</time>
      </trkpt>
      <trkpt lat="49.03143" lon="-0.4654">
        <ele>25.2</ele>
        <time>2023-05-02T11:48:46Z</time>
      </trkpt>
      <trkpt lat="49.03136" lon="-0.46538">
        <ele>25.8</ele>
        <time>2023-05-02T11:48:47Z</time>
      </trkpt>
      <trkpt lat="49.03129" lon="-0.46535">
        <ele>26.2</ele>
        <time>2023-05-02T11:48:48Z</time>
      </trkpt>
      <trkpt lat="49.03123" lon="-0.46533">
        <ele>26.8</ele>
        <time>2023-05-02T11:48:49Z</time>
      </trkpt>
      <trkpt lat="49.03116" lon="-0.46531">
        <ele>27.2</ele>
        <time>2023-05-02T11:48:50Z</time>
      </trkpt>
      <trkpt lat="49.03109" lon="-0.46529">
        <ele>27.6</ele>
        <time>2023-05-02T11:48:51Z</time>
      </trkpt>
      <trkpt lat="49.03103" lon="-0.46526">
        <ele>27.8</ele>
        <time>2023-05-02T11:48:52Z</time>
      </trkpt>
      <trkpt lat="49.03096" lon="-0.46524">
        <ele>28.2</ele>
        <time>2023-05-02T11:48:53Z</time>
      </trkpt>
      <trkpt lat="49.03089" lon="-0.46522">
        <ele>28.6</ele>
        <time>2023-05-02T11:48:54Z</time>
      </trkpt>
      <trkpt lat="49.03082" lon="-0.4652">
        <ele>28.8</ele>
        <time>2023-05-02T11:48:55Z</time>
      </trkpt>
      <trkpt lat="49.03076" lon="-0.46518">
        <ele>28.8</ele>
        <time>2023-05-02T11:48:56Z</time>
      </trkpt>
      <trkpt lat="49.03069" lon="-0.46516">
        <ele>28.8</ele>
        <time>2023-05-02T11:48:57Z</time>
      </trkpt>
      <trkpt lat="49.03063" lon="-0.46514">
        <ele>28.6</ele>
        <time>2023-05-02T11:48:58Z</time>
      </trkpt>
      <trkpt lat="49.03057" lon="-0.46512">
        <ele>28.6</ele>
        <time>2023-05-02T11:48:59Z</time>
      </trkpt>
      <trkpt lat="49.03051" lon="-0.46511">
        <ele>28.2</ele>
        <time>2023-05-02T11:49:00Z</time>
      </trkpt>
      <trkpt lat="49.03045" lon="-0.4651">
        <ele>28.2</ele>
        <time>2023-05-02T11:49:01Z</time>
      </trkpt>
      <trkpt lat="49.03039" lon="-0.46509">
        <ele>28</ele>
        <time>2023-05-02T11:49:02Z</time>
      </trkpt>
      <trkpt lat="49.03033" lon="-0.46508">
        <ele>27.8</ele>
        <time>2023-05-02T11:49:03Z</time>
      </trkpt>
      <trkpt lat="49.03026" lon="-0.46506">
        <ele>27.8</ele>
        <time>2023-05-02T11:49:04Z</time>
      </trkpt>
      <trkpt lat="49.0302" lon="-0.46505">
        <ele>27.6</ele>
        <time>2023-05-02T11:49:05Z</time>
      </trkpt>
      <trkpt lat="49.03014" lon="-0.46503">
        <ele>27.4</ele>
        <time>2023-05-02T11:49:06Z</time>
      </trkpt>
      <trkpt lat="49.03007" lon="-0.46501">
        <ele>27.2</ele>
        <time>2023-05-02T11:49:07Z</time>
      </trkpt>
      <trkpt lat="49.03" lon="-0.46499">
        <ele>27.2</ele>
        <time>2023-05-02T11:49:08Z</time>
      </trkpt>
      <trkpt lat="49.02994" lon="-0.46497">
        <ele>27.2</ele>
        <time>2023-05-02T11:49:09Z</time>
      </trkpt>
      <trkpt lat="49.02987" lon="-0.46495">
        <ele>27.4</ele>
        <time>2023-05-02T11:49:10Z</time>
      </trkpt>
      <trkpt lat="49.02981" lon="-0.46493">
        <ele>27.4</ele>
        <time>2023-05-02T11:49:11Z</time>
      </trkpt>
      <trkpt lat="49.02974" lon="-0.46491">
        <ele>27.6</ele>
        <time>2023-05-02T11:49:12Z</time>
      </trkpt>
      <trkpt lat="49.02968" lon="-0.46489">
        <ele>27.8</ele>
        <time>2023-05-02T11:49:13Z</time>
      </trkpt>
      <trkpt lat="49.02962" lon="-0.46487">
        <ele>27.8</ele>
        <time>2023-05-02T11:49:14Z</time>
      </trkpt>
      <trkpt lat="49.02955" lon="-0.46485">
        <ele>27.8</ele>
        <time>2023-05-02T11:49:15Z</time>
      </trkpt>
      <trkpt lat="49.02949" lon="-0.46483">
        <ele>28.2</ele>
        <time>2023-05-02T11:49:16Z</time>
      </trkpt>
      <trkpt lat="49.02943" lon="-0.46481">
        <ele>28.2</ele>
        <time>2023-05-02T11:49:17Z</time>
      </trkpt>
      <trkpt lat="49.02937" lon="-0.46479">
        <ele>28.2</ele>
        <time>2023-05-02T11:49:18Z</time>
      </trkpt>
      <trkpt lat="49.02931" lon="-0.46477">
        <ele>28.4</ele>
        <time>2023-05-02T11:49:19Z</time>
      </trkpt>
      <trkpt lat="49.02924" lon="-0.46475">
        <ele>28.6</ele>
        <time>2023-05-02T11:49:20Z</time>
      </trkpt>
      <trkpt lat="49.02918" lon="-0.46473">
        <ele>28.6</ele>
        <time>2023-05-02T11:49:21Z</time>
      </trkpt>
      <trkpt lat="49.02912" lon="-0.46471">
        <ele>28.6</ele>
        <time>2023-05-02T11:49:22Z</time>
      </trkpt>
      <trkpt lat="49.02906" lon="-0.4647">
        <ele>28.6</ele>
        <time>2023-05-02T11:49:23Z</time>
      </trkpt>
      <trkpt lat="49.029" lon="-0.46468">
        <ele>28.6</ele>
        <time>2023-05-02T11:49:24Z</time>
      </trkpt>
      <trkpt lat="49.02894" lon="-0.46466">
        <ele>28.4</ele>
        <time>2023-05-02T11:49:25Z</time>
      </trkpt>
      <trkpt lat="49.02889" lon="-0.46464">
        <ele>28.2</ele>
        <time>2023-05-02T11:49:26Z</time>
      </trkpt>
      <trkpt lat="49.02883" lon="-0.46463">
        <ele>28.2</ele>
        <time>2023-05-02T11:49:27Z</time>
      </trkpt>
      <trkpt lat="49.02877" lon="-0.46461">
        <ele>28.2</ele>
        <time>2023-05-02T11:49:28Z</time>
      </trkpt>
      <trkpt lat="49.02871" lon="-0.46459">
        <ele>28</ele>
        <time>2023-05-02T11:49:29Z</time>
      </trkpt>
      <trkpt lat="49.02865" lon="-0.46458">
        <ele>27.8</ele>
        <time>2023-05-02T11:49:30Z</time>
      </trkpt>
      <trkpt lat="49.02859" lon="-0.46456">
        <ele>27.8</ele>
        <time>2023-05-02T11:49:31Z</time>
      </trkpt>
      <trkpt lat="49.02853" lon="-0.46455">
        <ele>27.6</ele>
        <time>2023-05-02T11:49:32Z</time>
      </trkpt>
      <trkpt lat="49.02847" lon="-0.46453">
        <ele>27.2</ele>
        <time>2023-05-02T11:49:33Z</time>
      </trkpt>
      <trkpt lat="49.02841" lon="-0.46452">
        <ele>27.2</ele>
        <time>2023-05-02T11:49:34Z</time>
      </trkpt>
      <trkpt lat="49.02835" lon="-0.46451">
        <ele>26.8</ele>
        <time>2023-05-02T11:49:35Z</time>
      </trkpt>
      <trkpt lat="49.02829" lon="-0.46449">
        <ele>26.8</ele>
        <time>2023-05-02T11:49:36Z</time>
      </trkpt>
      <trkpt lat="49.02822" lon="-0.46448">
        <ele>26.8</ele>
        <time>2023-05-02T11:49:37Z</time>
      </trkpt>
      <trkpt lat="49.02816" lon="-0.46447">
        <ele>26.8</ele>
        <time>2023-05-02T11:49:38Z</time>
      </trkpt>
      <trkpt lat="49.02809" lon="-0.46446">
        <ele>26.8</ele>
        <time>2023-05-02T11:49:39Z</time>
      </trkpt>
      <trkpt lat="49.02802" lon="-0.46446">
        <ele>26.8</ele>
        <time>2023-05-02T11:49:40Z</time>
      </trkpt>
      <trkpt lat="49.02795" lon="-0.46445">
        <ele>26.8</ele>
        <time>2023-05-02T11:49:41Z</time>
      </trkpt>
      <trkpt lat="49.02789" lon="-0.46444">
        <ele>26.8</ele>
        <time>2023-05-02T11:49:42Z</time>
      </trkpt>
      <trkpt lat="49.02782" lon="-0.46443">
        <ele>26.8</ele>
        <time>2023-05-02T11:49:43Z</time>
      </trkpt>
      <trkpt lat="49.02775" lon="-0.46442">
        <ele>26.8</ele>
        <time>2023-05-02T11:49:44Z</time>
      </trkpt>
      <trkpt lat="49.02768" lon="-0.46441">
        <ele>26.8</ele>
        <time>2023-05-02T11:49:45Z</time>
      </trkpt>
      <trkpt lat="49.02761" lon="-0.4644">
        <ele>26.8</ele>
        <time>2023-05-02T11:49:46Z</time>
      </trkpt>
      <trkpt lat="49.02754" lon="-0.4644">
        <ele>26.6</ele>
        <time>2023-05-02T11:49:47Z</time>
      </trkpt>
      <trkpt lat="49.02747" lon="-0.4644">
        <ele>26.6</ele>
        <time>2023-05-02T11:49:48Z</time>
      </trkpt>
      <trkpt lat="49.02739" lon="-0.46439">
        <ele>26.4</ele>
        <time>2023-05-02T11:49:49Z</time>
      </trkpt>
      <trkpt lat="49.02731" lon="-0.46438">
        <ele>26.2</ele>
        <time>2023-05-02T11:49:50Z</time>
      </trkpt>
      <trkpt lat="49.02723" lon="-0.46438">
        <ele>26.2</ele>
        <time>2023-05-02T11:49:51Z</time>
      </trkpt>
      <trkpt lat="49.02716" lon="-0.46437">
        <ele>26.2</ele>
        <time>2023-05-02T11:49:52Z</time>
      </trkpt>
      <trkpt lat="49.02708" lon="-0.46436">
        <ele>26</ele>
        <time>2023-05-02T11:49:53Z</time>
      </trkpt>
      <trkpt lat="49.027" lon="-0.46436">
        <ele>25.8</ele>
        <time>2023-05-02T11:49:54Z</time>
      </trkpt>
      <trkpt lat="49.02692" lon="-0.46436">
        <ele>25.8</ele>
        <time>2023-05-02T11:49:55Z</time>
      </trkpt>
      <trkpt lat="49.02684" lon="-0.46435">
        <ele>25.6</ele>
        <time>2023-05-02T11:49:56Z</time>
      </trkpt>
      <trkpt lat="49.02676" lon="-0.46435">
        <ele>25.4</ele>
        <time>2023-05-02T11:49:57Z</time>
      </trkpt>
      <trkpt lat="49.02668" lon="-0.46435">
        <ele>25.2</ele>
        <time>2023-05-02T11:49:58Z</time>
      </trkpt>
      <trkpt lat="49.02661" lon="-0.46435">
        <ele>25.2</ele>
        <time>2023-05-02T11:49:59Z</time>
      </trkpt>
      <trkpt lat="49.02653" lon="-0.46435">
        <ele>25.4</ele>
        <time>2023-05-02T11:50:00Z</time>
      </trkpt>
      <trkpt lat="49.02646" lon="-0.46436">
        <ele>25.4</ele>
        <time>2023-05-02T11:50:01Z</time>
      </trkpt>
      <trkpt lat="49.02638" lon="-0.46436">
        <ele>25.6</ele>
        <time>2023-05-02T11:50:02Z</time>
      </trkpt>
      <trkpt lat="49.02631" lon="-0.46437">
        <ele>25.6</ele>
        <time>2023-05-02T11:50:03Z</time>
      </trkpt>
      <trkpt lat="49.02624" lon="-0.46437">
        <ele>25.6</ele>
        <time>2023-05-02T11:50:04Z</time>
      </trkpt>
      <trkpt lat="49.02617" lon="-0.46438">
        <ele>25.6</ele>
        <time>2023-05-02T11:50:05Z</time>
      </trkpt>
      <trkpt lat="49.0261" lon="-0.46439">
        <ele>25.6</ele>
        <time>2023-05-02T11:50:06Z</time>
      </trkpt>
      <trkpt lat="49.02603" lon="-0.4644">
        <ele>25.6</ele>
        <time>2023-05-02T11:50:07Z</time>
      </trkpt>
      <trkpt lat="49.02596" lon="-0.46441">
        <ele>25.6</ele>
        <time>2023-05-02T11:50:08Z</time>
      </trkpt>
      <trkpt lat="49.0259" lon="-0.46442">
        <ele>25.6</ele>
        <time>2023-05-02T11:50:09Z</time>
      </trkpt>
      <trkpt lat="49.02583" lon="-0.46443">
        <ele>25.6</ele>
        <time>2023-05-02T11:50:10Z</time>
      </trkpt>
      <trkpt lat="49.02576" lon="-0.46444">
        <ele>25.6</ele>
        <time>2023-05-02T11:50:11Z</time>
      </trkpt>
      <trkpt lat="49.0257" lon="-0.46446">
        <ele>25.6</ele>
        <time>2023-05-02T11:50:12Z</time>
      </trkpt>
      <trkpt lat="49.02563" lon="-0.46447">
        <ele>25.6</ele>
        <time>2023-05-02T11:50:13Z</time>
      </trkpt>
      <trkpt lat="49.02557" lon="-0.46448">
        <ele>25.8</ele>
        <time>2023-05-02T11:50:14Z</time>
      </trkpt>
      <trkpt lat="49.0255" lon="-0.4645">
        <ele>25.8</ele>
        <time>2023-05-02T11:50:15Z</time>
      </trkpt>
      <trkpt lat="49.02543" lon="-0.46451">
        <ele>25.8</ele>
        <time>2023-05-02T11:50:16Z</time>
      </trkpt>
      <trkpt lat="49.02536" lon="-0.46453">
        <ele>25.8</ele>
        <time>2023-05-02T11:50:17Z</time>
      </trkpt>
      <trkpt lat="49.0253" lon="-0.46454">
        <ele>25.8</ele>
        <time>2023-05-02T11:50:18Z</time>
      </trkpt>
      <trkpt lat="49.02523" lon="-0.46456">
        <ele>25.8</ele>
        <time>2023-05-02T11:50:19Z</time>
      </trkpt>
      <trkpt lat="49.02516" lon="-0.46457">
        <ele>25.8</ele>
        <time>2023-05-02T11:50:20Z</time>
      </trkpt>
      <trkpt lat="49.0251" lon="-0.46459">
        <ele>25.8</ele>
        <time>2023-05-02T11:50:21Z</time>
      </trkpt>
      <trkpt lat="49.02503" lon="-0.46461">
        <ele>25.8</ele>
        <time>2023-05-02T11:50:22Z</time>
      </trkpt>
      <trkpt lat="49.02497" lon="-0.46462">
        <ele>25.8</ele>
        <time>2023-05-02T11:50:23Z</time>
      </trkpt>
      <trkpt lat="49.0249" lon="-0.46464">
        <ele>26</ele>
        <time>2023-05-02T11:50:24Z</time>
      </trkpt>
      <trkpt lat="49.02484" lon="-0.46466">
        <ele>26.2</ele>
        <time>2023-05-02T11:50:25Z</time>
      </trkpt>
      <trkpt lat="49.02478" lon="-0.46467">
        <ele>26.2</ele>
        <time>2023-05-02T11:50:26Z</time>
      </trkpt>
      <trkpt lat="49.02471" lon="-0.46469">
        <ele>26.6</ele>
        <time>2023-05-02T11:50:27Z</time>
      </trkpt>
      <trkpt lat="49.02465" lon="-0.46471">
        <ele>26.6</ele>
        <time>2023-05-02T11:50:28Z</time>
      </trkpt>
      <trkpt lat="49.02458" lon="-0.46472">
        <ele>26.6</ele>
        <time>2023-05-02T11:50:29Z</time>
      </trkpt>
      <trkpt lat="49.02451" lon="-0.46474">
        <ele>26.8</ele>
        <time>2023-05-02T11:50:30Z</time>
      </trkpt>
      <trkpt lat="49.02445" lon="-0.46476">
        <ele>26.8</ele>
        <time>2023-05-02T11:50:31Z</time>
      </trkpt>
      <trkpt lat="49.02438" lon="-0.46478">
        <ele>26.8</ele>
        <time>2023-05-02T11:50:32Z</time>
      </trkpt>
      <trkpt lat="49.02431" lon="-0.46479">
        <ele>26.6</ele>
        <time>2023-05-02T11:50:33Z</time>
      </trkpt>
      <trkpt lat="49.02425" lon="-0.46481">
        <ele>26.6</ele>
        <time>2023-05-02T11:50:34Z</time>
      </trkpt>
      <trkpt lat="49.02418" lon="-0.46482">
        <ele>26.4</ele>
        <time>2023-05-02T11:50:35Z</time>
      </trkpt>
      <trkpt lat="49.02411" lon="-0.46484">
        <ele>26.4</ele>
        <time>2023-05-02T11:50:36Z</time>
      </trkpt>
      <trkpt lat="49.02404" lon="-0.46485">
        <ele>26.4</ele>
        <time>2023-05-02T11:50:37Z</time>
      </trkpt>
      <trkpt lat="49.02398" lon="-0.46487">
        <ele>26.4</ele>
        <time>2023-05-02T11:50:38Z</time>
      </trkpt>
      <trkpt lat="49.02391" lon="-0.46488">
        <ele>26.4</ele>
        <time>2023-05-02T11:50:39Z</time>
      </trkpt>
      <trkpt lat="49.02384" lon="-0.4649">
        <ele>26.2</ele>
        <time>2023-05-02T11:50:40Z</time>
      </trkpt>
      <trkpt lat="49.02378" lon="-0.46492">
        <ele>26.2</ele>
        <time>2023-05-02T11:50:41Z</time>
      </trkpt>
      <trkpt lat="49.02371" lon="-0.46493">
        <ele>26.2</ele>
        <time>2023-05-02T11:50:42Z</time>
      </trkpt>
      <trkpt lat="49.02364" lon="-0.46495">
        <ele>26.2</ele>
        <time>2023-05-02T11:50:43Z</time>
      </trkpt>
      <trkpt lat="49.02358" lon="-0.46496">
        <ele>26</ele>
        <time>2023-05-02T11:50:44Z</time>
      </trkpt>
      <trkpt lat="49.02351" lon="-0.46498">
        <ele>25.8</ele>
        <time>2023-05-02T11:50:45Z</time>
      </trkpt>
      <trkpt lat="49.02345" lon="-0.46499">
        <ele>25.8</ele>
        <time>2023-05-02T11:50:46Z</time>
      </trkpt>
      <trkpt lat="49.02338" lon="-0.46501">
        <ele>25.8</ele>
        <time>2023-05-02T11:50:47Z</time>
      </trkpt>
      <trkpt lat="49.02332" lon="-0.46502">
        <ele>25.8</ele>
        <time>2023-05-02T11:50:48Z</time>
      </trkpt>
      <trkpt lat="49.02325" lon="-0.46504">
        <ele>26.2</ele>
        <time>2023-05-02T11:50:49Z</time>
      </trkpt>
      <trkpt lat="49.02319" lon="-0.46505">
        <ele>26.6</ele>
        <time>2023-05-02T11:50:50Z</time>
      </trkpt>
      <trkpt lat="49.02312" lon="-0.46506">
        <ele>26.8</ele>
        <time>2023-05-02T11:50:51Z</time>
      </trkpt>
      <trkpt lat="49.02306" lon="-0.46508">
        <ele>27.2</ele>
        <time>2023-05-02T11:50:52Z</time>
      </trkpt>
      <trkpt lat="49.02299" lon="-0.46509">
        <ele>27.6</ele>
        <time>2023-05-02T11:50:53Z</time>
      </trkpt>
      <trkpt lat="49.02293" lon="-0.46511">
        <ele>27.8</ele>
        <time>2023-05-02T11:50:54Z</time>
      </trkpt>
      <trkpt lat="49.02286" lon="-0.46512">
        <ele>28</ele>
        <time>2023-05-02T11:50:55Z</time>
      </trkpt>
      <trkpt lat="49.0228" lon="-0.46514">
        <ele>28.2</ele>
        <time>2023-05-02T11:50:56Z</time>
      </trkpt>
      <trkpt lat="49.02273" lon="-0.46515">
        <ele>28.6</ele>
        <time>2023-05-02T11:50:57Z</time>
      </trkpt>
      <trkpt lat="49.02267" lon="-0.46517">
        <ele>28.8</ele>
        <time>2023-05-02T11:50:58Z</time>
      </trkpt>
      <trkpt lat="49.0226" lon="-0.46518">
        <ele>29</ele>
        <time>2023-05-02T11:50:59Z</time>
      </trkpt>
      <trkpt lat="49.02254" lon="-0.46519">
        <ele>29.2</ele>
        <time>2023-05-02T11:51:00Z</time>
      </trkpt>
      <trkpt lat="49.02247" lon="-0.4652">
        <ele>29.6</ele>
        <time>2023-05-02T11:51:01Z</time>
      </trkpt>
      <trkpt lat="49.0224" lon="-0.46522">
        <ele>29.8</ele>
        <time>2023-05-02T11:51:02Z</time>
      </trkpt>
      <trkpt lat="49.02234" lon="-0.46523">
        <ele>30</ele>
        <time>2023-05-02T11:51:03Z</time>
      </trkpt>
      <trkpt lat="49.02227" lon="-0.46524">
        <ele>30.2</ele>
        <time>2023-05-02T11:51:04Z</time>
      </trkpt>
      <trkpt lat="49.0222" lon="-0.46525">
        <ele>30.6</ele>
        <time>2023-05-02T11:51:05Z</time>
      </trkpt>
      <trkpt lat="49.02214" lon="-0.46526">
        <ele>30.8</ele>
        <time>2023-05-02T11:51:06Z</time>
      </trkpt>
      <trkpt lat="49.02207" lon="-0.46527">
        <ele>31</ele>
        <time>2023-05-02T11:51:07Z</time>
      </trkpt>
      <trkpt lat="49.02201" lon="-0.46529">
        <ele>31.2</ele>
        <time>2023-05-02T11:51:08Z</time>
      </trkpt>
      <trkpt lat="49.02194" lon="-0.4653">
        <ele>31.4</ele>
        <time>2023-05-02T11:51:09Z</time>
      </trkpt>
      <trkpt lat="49.02187" lon="-0.46531">
        <ele>31.6</ele>
        <time>2023-05-02T11:51:10Z</time>
      </trkpt>
      <trkpt lat="49.02181" lon="-0.46532">
        <ele>31.8</ele>
        <time>2023-05-02T11:51:11Z</time>
      </trkpt>
      <trkpt lat="49.02174" lon="-0.46534">
        <ele>31.8</ele>
        <time>2023-05-02T11:51:12Z</time>
      </trkpt>
      <trkpt lat="49.02168" lon="-0.46535">
        <ele>32</ele>
        <time>2023-05-02T11:51:13Z</time>
      </trkpt>
      <trkpt lat="49.02161" lon="-0.46537">
        <ele>31.8</ele>
        <time>2023-05-02T11:51:14Z</time>
      </trkpt>
      <trkpt lat="49.02155" lon="-0.46538">
        <ele>31.4</ele>
        <time>2023-05-02T11:51:15Z</time>
      </trkpt>
      <trkpt lat="49.02148" lon="-0.4654">
        <ele>31</ele>
        <time>2023-05-02T11:51:16Z</time>
      </trkpt>
      <trkpt lat="49.02142" lon="-0.46541">
        <ele>30.6</ele>
        <time>2023-05-02T11:51:17Z</time>
      </trkpt>
      <trkpt lat="49.02135" lon="-0.46543">
        <ele>30.2</ele>
        <time>2023-05-02T11:51:18Z</time>
      </trkpt>
      <trkpt lat="49.02129" lon="-0.46545">
        <ele>29.8</ele>
        <time>2023-05-02T11:51:19Z</time>
      </trkpt>
      <trkpt lat="49.02123" lon="-0.46547">
        <ele>29.4</ele>
        <time>2023-05-02T11:51:20Z</time>
      </trkpt>
      <trkpt lat="49.02116" lon="-0.46548">
        <ele>29</ele>
        <time>2023-05-02T11:51:21Z</time>
      </trkpt>
      <trkpt lat="49.0211" lon="-0.4655">
        <ele>28.6</ele>
        <time>2023-05-02T11:51:22Z</time>
      </trkpt>
      <trkpt lat="49.02103" lon="-0.46552">
        <ele>28.2</ele>
        <time>2023-05-02T11:51:23Z</time>
      </trkpt>
      <trkpt lat="49.02097" lon="-0.46553">
        <ele>27.8</ele>
        <time>2023-05-02T11:51:24Z</time>
      </trkpt>
      <trkpt lat="49.0209" lon="-0.46555">
        <ele>27.6</ele>
        <time>2023-05-02T11:51:25Z</time>
      </trkpt>
      <trkpt lat="49.02084" lon="-0.46556">
        <ele>27.2</ele>
        <time>2023-05-02T11:51:26Z</time>
      </trkpt>
      <trkpt lat="49.02077" lon="-0.46557">
        <ele>27</ele>
        <time>2023-05-02T11:51:27Z</time>
      </trkpt>
      <trkpt lat="49.0207" lon="-0.46558">
        <ele>26.8</ele>
        <time>2023-05-02T11:51:28Z</time>
      </trkpt>
      <trkpt lat="49.02063" lon="-0.4656">
        <ele>26.8</ele>
        <time>2023-05-02T11:51:29Z</time>
      </trkpt>
      <trkpt lat="49.02057" lon="-0.46561">
        <ele>26.6</ele>
        <time>2023-05-02T11:51:30Z</time>
      </trkpt>
      <trkpt lat="49.0205" lon="-0.46562">
        <ele>26.4</ele>
        <time>2023-05-02T11:51:31Z</time>
      </trkpt>
      <trkpt lat="49.02043" lon="-0.46563">
        <ele>26.2</ele>
        <time>2023-05-02T11:51:32Z</time>
      </trkpt>
      <trkpt lat="49.02036" lon="-0.46564">
        <ele>26</ele>
        <time>2023-05-02T11:51:33Z</time>
      </trkpt>
      <trkpt lat="49.0203" lon="-0.46566">
        <ele>25.8</ele>
        <time>2023-05-02T11:51:34Z</time>
      </trkpt>
      <trkpt lat="49.02023" lon="-0.46567">
        <ele>25.8</ele>
        <time>2023-05-02T11:51:35Z</time>
      </trkpt>
      <trkpt lat="49.02017" lon="-0.46569">
        <ele>25.6</ele>
        <time>2023-05-02T11:51:36Z</time>
      </trkpt>
      <trkpt lat="49.02011" lon="-0.46571">
        <ele>25.2</ele>
        <time>2023-05-02T11:51:37Z</time>
      </trkpt>
      <trkpt lat="49.02004" lon="-0.46574">
        <ele>25</ele>
        <time>2023-05-02T11:51:38Z</time>
      </trkpt>
      <trkpt lat="49.01999" lon="-0.46577">
        <ele>24.8</ele>
        <time>2023-05-02T11:51:39Z</time>
      </trkpt>
      <trkpt lat="49.01993" lon="-0.4658">
        <ele>24.6</ele>
        <time>2023-05-02T11:51:40Z</time>
      </trkpt>
      <trkpt lat="49.01987" lon="-0.46583">
        <ele>24.2</ele>
        <time>2023-05-02T11:51:41Z</time>
      </trkpt>
      <trkpt lat="49.01981" lon="-0.46587">
        <ele>24.2</ele>
        <time>2023-05-02T11:51:42Z</time>
      </trkpt>
      <trkpt lat="49.01975" lon="-0.4659">
        <ele>24.2</ele>
        <time>2023-05-02T11:51:43Z</time>
      </trkpt>
      <trkpt lat="49.01969" lon="-0.46594">
        <ele>24.2</ele>
        <time>2023-05-02T11:51:44Z</time>
      </trkpt>
      <trkpt lat="49.01963" lon="-0.46598">
        <ele>24</ele>
        <time>2023-05-02T11:51:45Z</time>
      </trkpt>
      <trkpt lat="49.01957" lon="-0.46602">
        <ele>23.8</ele>
        <time>2023-05-02T11:51:46Z</time>
      </trkpt>
      <trkpt lat="49.01951" lon="-0.46606">
        <ele>23.8</ele>
        <time>2023-05-02T11:51:47Z</time>
      </trkpt>
      <trkpt lat="49.01944" lon="-0.46609">
        <ele>23.8</ele>
        <time>2023-05-02T11:51:48Z</time>
      </trkpt>
      <trkpt lat="49.01938" lon="-0.46613">
        <ele>23.8</ele>
        <time>2023-05-02T11:51:49Z</time>
      </trkpt>
      <trkpt lat="49.01932" lon="-0.46617">
        <ele>23.6</ele>
        <time>2023-05-02T11:51:50Z</time>
      </trkpt>
      <trkpt lat="49.01926" lon="-0.46621">
        <ele>23.6</ele>
        <time>2023-05-02T11:51:51Z</time>
      </trkpt>
      <trkpt lat="49.0192" lon="-0.46625">
        <ele>23.4</ele>
        <time>2023-05-02T11:51:52Z</time>
      </trkpt>
      <trkpt lat="49.01914" lon="-0.46629">
        <ele>23.2</ele>
        <time>2023-05-02T11:51:53Z</time>
      </trkpt>
      <trkpt lat="49.01908" lon="-0.46634">
        <ele>23.2</ele>
        <time>2023-05-02T11:51:54Z</time>
      </trkpt>
      <trkpt lat="49.01902" lon="-0.46638">
        <ele>23.2</ele>
        <time>2023-05-02T11:51:55Z</time>
      </trkpt>
      <trkpt lat="49.01896" lon="-0.46642">
        <ele>23.2</ele>
        <time>2023-05-02T11:51:56Z</time>
      </trkpt>
      <trkpt lat="49.0189" lon="-0.46646">
        <ele>23</ele>
        <time>2023-05-02T11:51:57Z</time>
      </trkpt>
      <trkpt lat="49.01884" lon="-0.46649">
        <ele>22.8</ele>
        <time>2023-05-02T11:51:58Z</time>
      </trkpt>
      <trkpt lat="49.01877" lon="-0.46653">
        <ele>22.8</ele>
        <time>2023-05-02T11:51:59Z</time>
      </trkpt>
      <trkpt lat="49.0187" lon="-0.46656">
        <ele>22.8</ele>
        <time>2023-05-02T11:52:00Z</time>
      </trkpt>
      <trkpt lat="49.01864" lon="-0.4666">
        <ele>22.8</ele>
        <time>2023-05-02T11:52:01Z</time>
      </trkpt>
      <trkpt lat="49.01857" lon="-0.46663">
        <ele>22.8</ele>
        <time>2023-05-02T11:52:02Z</time>
      </trkpt>
      <trkpt lat="49.0185" lon="-0.46667">
        <ele>22.6</ele>
        <time>2023-05-02T11:52:03Z</time>
      </trkpt>
      <trkpt lat="49.01844" lon="-0.46671">
        <ele>22.6</ele>
        <time>2023-05-02T11:52:04Z</time>
      </trkpt>
      <trkpt lat="49.01837" lon="-0.46675">
        <ele>22.4</ele>
        <time>2023-05-02T11:52:05Z</time>
      </trkpt>
      <trkpt lat="49.01831" lon="-0.46679">
        <ele>22.4</ele>
        <time>2023-05-02T11:52:06Z</time>
      </trkpt>
      <trkpt lat="49.01825" lon="-0.46683">
        <ele>22.6</ele>
        <time>2023-05-02T11:52:07Z</time>
      </trkpt>
      <trkpt lat="49.01819" lon="-0.46687">
        <ele>22.8</ele>
        <time>2023-05-02T11:52:08Z</time>
      </trkpt>
      <trkpt lat="49.01813" lon="-0.46691">
        <ele>22.8</ele>
        <time>2023-05-02T11:52:09Z</time>
      </trkpt>
      <trkpt lat="49.01808" lon="-0.46695">
        <ele>23</ele>
        <time>2023-05-02T11:52:10Z</time>
      </trkpt>
      <trkpt lat="49.01802" lon="-0.467">
        <ele>23.2</ele>
        <time>2023-05-02T11:52:11Z</time>
      </trkpt>
      <trkpt lat="49.01797" lon="-0.46704">
        <ele>23.2</ele>
        <time>2023-05-02T11:52:12Z</time>
      </trkpt>
      <trkpt lat="49.01792" lon="-0.46709">
        <ele>23.2</ele>
        <time>2023-05-02T11:52:13Z</time>
      </trkpt>
      <trkpt lat="49.01787" lon="-0.46713">
        <ele>23.2</ele>
        <time>2023-05-02T11:52:14Z</time>
      </trkpt>
      <trkpt lat="49.01783" lon="-0.46718">
        <ele>23.2</ele>
        <time>2023-05-02T11:52:15Z</time>
      </trkpt>
      <trkpt lat="49.01778" lon="-0.46722">
        <ele>23.2</ele>
        <time>2023-05-02T11:52:16Z</time>
      </trkpt>
      <trkpt lat="49.01774" lon="-0.46727">
        <ele>23.2</ele>
        <time>2023-05-02T11:52:17Z</time>
      </trkpt>
      <trkpt lat="49.0177" lon="-0.46732">
        <ele>23</ele>
        <time>2023-05-02T11:52:18Z</time>
      </trkpt>
      <trkpt lat="49.01765" lon="-0.46738">
        <ele>23</ele>
        <time>2023-05-02T11:52:19Z</time>
      </trkpt>
      <trkpt lat="49.01761" lon="-0.46743">
        <ele>22.8</ele>
        <time>2023-05-02T11:52:20Z</time>
      </trkpt>
      <trkpt lat="49.01757" lon="-0.46748">
        <ele>22.8</ele>
        <time>2023-05-02T11:52:21Z</time>
      </trkpt>
      <trkpt lat="49.01752" lon="-0.46753">
        <ele>22.8</ele>
        <time>2023-05-02T11:52:22Z</time>
      </trkpt>
      <trkpt lat="49.01748" lon="-0.46758">
        <ele>22.6</ele>
        <time>2023-05-02T11:52:23Z</time>
      </trkpt>
      <trkpt lat="49.01743" lon="-0.46763">
        <ele>22.6</ele>
        <time>2023-05-02T11:52:24Z</time>
      </trkpt>
      <trkpt lat="49.01739" lon="-0.46767">
        <ele>22.6</ele>
        <time>2023-05-02T11:52:25Z</time>
      </trkpt>
      <trkpt lat="49.01734" lon="-0.46771">
        <ele>22.8</ele>
        <time>2023-05-02T11:52:26Z</time>
      </trkpt>
      <trkpt lat="49.01729" lon="-0.46774">
        <ele>22.8</ele>
        <time>2023-05-02T11:52:27Z</time>
      </trkpt>
      <trkpt lat="49.01724" lon="-0.46777">
        <ele>22.8</ele>
        <time>2023-05-02T11:52:28Z</time>
      </trkpt>
      <trkpt lat="49.0172" lon="-0.46779">
        <ele>22.8</ele>
        <time>2023-05-02T11:52:29Z</time>
      </trkpt>
      <trkpt lat="49.01715" lon="-0.46782">
        <ele>23</ele>
        <time>2023-05-02T11:52:30Z</time>
      </trkpt>
      <trkpt lat="49.01711" lon="-0.46785">
        <ele>23</ele>
        <time>2023-05-02T11:52:31Z</time>
      </trkpt>
      <trkpt lat="49.01707" lon="-0.46788">
        <ele>23.2</ele>
        <time>2023-05-02T11:52:32Z</time>
      </trkpt>
      <trkpt lat="49.01703" lon="-0.46792">
        <ele>23</ele>
        <time>2023-05-02T11:52:33Z</time>
      </trkpt>
      <trkpt lat="49.01699" lon="-0.46796">
        <ele>23</ele>
        <time>2023-05-02T11:52:34Z</time>
      </trkpt>
      <trkpt lat="49.01695" lon="-0.468">
        <ele>22.8</ele>
        <time>2023-05-02T11:52:35Z</time>
      </trkpt>
      <trkpt lat="49.01691" lon="-0.46804">
        <ele>22.8</ele>
        <time>2023-05-02T11:52:36Z</time>
      </trkpt>
      <trkpt lat="49.01687" lon="-0.46808">
        <ele>22.8</ele>
        <time>2023-05-02T11:52:37Z</time>
      </trkpt>
      <trkpt lat="49.01682" lon="-0.46812">
        <ele>22.8</ele>
        <time>2023-05-02T11:52:38Z</time>
      </trkpt>
      <trkpt lat="49.01677" lon="-0.46815">
        <ele>22.8</ele>
        <time>2023-05-02T11:52:39Z</time>
      </trkpt>
      <trkpt lat="49.01672" lon="-0.46819">
        <ele>22.8</ele>
        <time>2023-05-02T11:52:40Z</time>
      </trkpt>
      <trkpt lat="49.01666" lon="-0.46823">
        <ele>22.8</ele>
        <time>2023-05-02T11:52:41Z</time>
      </trkpt>
      <trkpt lat="49.01661" lon="-0.46827">
        <ele>22.8</ele>
        <time>2023-05-02T11:52:42Z</time>
      </trkpt>
      <trkpt lat="49.01656" lon="-0.46831">
        <ele>23</ele>
        <time>2023-05-02T11:52:43Z</time>
      </trkpt>
      <trkpt lat="49.0165" lon="-0.46835">
        <ele>23.2</ele>
        <time>2023-05-02T11:52:44Z</time>
      </trkpt>
      <trkpt lat="49.01645" lon="-0.46839">
        <ele>23.2</ele>
        <time>2023-05-02T11:52:45Z</time>
      </trkpt>
      <trkpt lat="49.0164" lon="-0.46844">
        <ele>23.6</ele>
        <time>2023-05-02T11:52:46Z</time>
      </trkpt>
      <trkpt lat="49.01635" lon="-0.46849">
        <ele>23.8</ele>
        <time>2023-05-02T11:52:47Z</time>
      </trkpt>
      <trkpt lat="49.0163" lon="-0.46853">
        <ele>23.8</ele>
        <time>2023-05-02T11:52:48Z</time>
      </trkpt>
      <trkpt lat="49.01625" lon="-0.46858">
        <ele>24</ele>
        <time>2023-05-02T11:52:49Z</time>
      </trkpt>
      <trkpt lat="49.0162" lon="-0.46863">
        <ele>24.2</ele>
        <time>2023-05-02T11:52:50Z</time>
      </trkpt>
      <trkpt lat="49.01614" lon="-0.46867">
        <ele>24.2</ele>
        <time>2023-05-02T11:52:51Z</time>
      </trkpt>
      <trkpt lat="49.01609" lon="-0.46872">
        <ele>24.4</ele>
        <time>2023-05-02T11:52:52Z</time>
      </trkpt>
      <trkpt lat="49.01604" lon="-0.46876">
        <ele>24.6</ele>
        <time>2023-05-02T11:52:53Z</time>
      </trkpt>
      <trkpt lat="49.01598" lon="-0.46881">
        <ele>24.8</ele>
        <time>2023-05-02T11:52:54Z</time>
      </trkpt>
      <trkpt lat="49.01593" lon="-0.46885">
        <ele>24.8</ele>
        <time>2023-05-02T11:52:55Z</time>
      </trkpt>
      <trkpt lat="49.01588" lon="-0.4689">
        <ele>25</ele>
        <time>2023-05-02T11:52:56Z</time>
      </trkpt>
      <trkpt lat="49.01582" lon="-0.46895">
        <ele>25.2</ele>
        <time>2023-05-02T11:52:57Z</time>
      </trkpt>
      <trkpt lat="49.01577" lon="-0.46899">
        <ele>25.2</ele>
        <time>2023-05-02T11:52:58Z</time>
      </trkpt>
      <trkpt lat="49.01572" lon="-0.46904">
        <ele>25.2</ele>
        <time>2023-05-02T11:52:59Z</time>
      </trkpt>
      <trkpt lat="49.01567" lon="-0.46908">
        <ele>25</ele>
        <time>2023-05-02T11:53:00Z</time>
      </trkpt>
      <trkpt lat="49.01561" lon="-0.46913">
        <ele>25</ele>
        <time>2023-05-02T11:53:01Z</time>
      </trkpt>
      <trkpt lat="49.01556" lon="-0.46918">
        <ele>24.8</ele>
        <time>2023-05-02T11:53:02Z</time>
      </trkpt>
      <trkpt lat="49.01551" lon="-0.46922">
        <ele>25</ele>
        <time>2023-05-02T11:53:03Z</time>
      </trkpt>
      <trkpt lat="49.01546" lon="-0.46927">
        <ele>25</ele>
        <time>2023-05-02T11:53:04Z</time>
      </trkpt>
      <trkpt lat="49.01541" lon="-0.46932">
        <ele>25.2</ele>
        <time>2023-05-02T11:53:05Z</time>
      </trkpt>
      <trkpt lat="49.01536" lon="-0.46937">
        <ele>25.2</ele>
        <time>2023-05-02T11:53:06Z</time>
      </trkpt>
      <trkpt lat="49.01531" lon="-0.46942">
        <ele>25.2</ele>
        <time>2023-05-02T11:53:07Z</time>
      </trkpt>
      <trkpt lat="49.01525" lon="-0.46947">
        <ele>25.2</ele>
        <time>2023-05-02T11:53:08Z</time>
      </trkpt>
      <trkpt lat="49.0152" lon="-0.46952">
        <ele>25.2</ele>
        <time>2023-05-02T11:53:09Z</time>
      </trkpt>
      <trkpt lat="49.01515" lon="-0.46958">
        <ele>25.2</ele>
        <time>2023-05-02T11:53:10Z</time>
      </trkpt>
      <trkpt lat="49.0151" lon="-0.46963">
        <ele>25</ele>
        <time>2023-05-02T11:53:11Z</time>
      </trkpt>
      <trkpt lat="49.01505" lon="-0.46968">
        <ele>25</ele>
        <time>2023-05-02T11:53:12Z</time>
      </trkpt>
      <trkpt lat="49.015" lon="-0.46973">
        <ele>25</ele>
        <time>2023-05-02T11:53:13Z</time>
      </trkpt>
      <trkpt lat="49.01495" lon="-0.46978">
        <ele>25</ele>
        <time>2023-05-02T11:53:14Z</time>
      </trkpt>
      <trkpt lat="49.01489" lon="-0.46983">
        <ele>25.2</ele>
        <time>2023-05-02T11:53:15Z</time>
      </trkpt>
      <trkpt lat="49.01484" lon="-0.46988">
        <ele>25.2</ele>
        <time>2023-05-02T11:53:16Z</time>
      </trkpt>
      <trkpt lat="49.01479" lon="-0.46993">
        <ele>25.2</ele>
        <time>2023-05-02T11:53:17Z</time>
      </trkpt>
      <trkpt lat="49.01473" lon="-0.46998">
        <ele>25.2</ele>
        <time>2023-05-02T11:53:18Z</time>
      </trkpt>
      <trkpt lat="49.01468" lon="-0.47003">
        <ele>25.4</ele>
        <time>2023-05-02T11:53:19Z</time>
      </trkpt>
      <trkpt lat="49.01463" lon="-0.47008">
        <ele>25.4</ele>
        <time>2023-05-02T11:53:20Z</time>
      </trkpt>
      <trkpt lat="49.01457" lon="-0.47013">
        <ele>25.4</ele>
        <time>2023-05-02T11:53:21Z</time>
      </trkpt>
      <trkpt lat="49.01452" lon="-0.47018">
        <ele>25.4</ele>
        <time>2023-05-02T11:53:22Z</time>
      </trkpt>
      <trkpt lat="49.01447" lon="-0.47023">
        <ele>25.4</ele>
        <time>2023-05-02T11:53:23Z</time>
      </trkpt>
      <trkpt lat="49.01441" lon="-0.47028">
        <ele>25.6</ele>
        <time>2023-05-02T11:53:24Z</time>
      </trkpt>
      <trkpt lat="49.01436" lon="-0.47033">
        <ele>25.6</ele>
        <time>2023-05-02T11:53:25Z</time>
      </trkpt>
      <trkpt lat="49.01431" lon="-0.47038">
        <ele>25.6</ele>
        <time>2023-05-02T11:53:26Z</time>
      </trkpt>
      <trkpt lat="49.01425" lon="-0.47043">
        <ele>25.6</ele>
        <time>2023-05-02T11:53:27Z</time>
      </trkpt>
      <trkpt lat="49.0142" lon="-0.47048">
        <ele>25.6</ele>
        <time>2023-05-02T11:53:28Z</time>
      </trkpt>
      <trkpt lat="49.01415" lon="-0.47053">
        <ele>25.6</ele>
        <time>2023-05-02T11:53:29Z</time>
      </trkpt>
      <trkpt lat="49.01409" lon="-0.47059">
        <ele>25.4</ele>
        <time>2023-05-02T11:53:30Z</time>
      </trkpt>
      <trkpt lat="49.01404" lon="-0.47064">
        <ele>25.2</ele>
        <time>2023-05-02T11:53:31Z</time>
      </trkpt>
      <trkpt lat="49.01399" lon="-0.47069">
        <ele>25.2</ele>
        <time>2023-05-02T11:53:32Z</time>
      </trkpt>
      <trkpt lat="49.01393" lon="-0.47074">
        <ele>25.2</ele>
        <time>2023-05-02T11:53:33Z</time>
      </trkpt>
      <trkpt lat="49.01388" lon="-0.47079">
        <ele>25.2</ele>
        <time>2023-05-02T11:53:34Z</time>
      </trkpt>
      <trkpt lat="49.01382" lon="-0.47085">
        <ele>25.2</ele>
        <time>2023-05-02T11:53:35Z</time>
      </trkpt>
      <trkpt lat="49.01377" lon="-0.4709">
        <ele>25.2</ele>
        <time>2023-05-02T11:53:36Z</time>
      </trkpt>
      <trkpt lat="49.01371" lon="-0.47095">
        <ele>25.2</ele>
        <time>2023-05-02T11:53:37Z</time>
      </trkpt>
      <trkpt lat="49.01366" lon="-0.47099">
        <ele>25.2</ele>
        <time>2023-05-02T11:53:38Z</time>
      </trkpt>
      <trkpt lat="49.0136" lon="-0.47104">
        <ele>25.2</ele>
        <time>2023-05-02T11:53:39Z</time>
      </trkpt>
      <trkpt lat="49.01354" lon="-0.47109">
        <ele>25.2</ele>
        <time>2023-05-02T11:53:40Z</time>
      </trkpt>
      <trkpt lat="49.01348" lon="-0.47113">
        <ele>25.4</ele>
        <time>2023-05-02T11:53:41Z</time>
      </trkpt>
      <trkpt lat="49.01343" lon="-0.47117">
        <ele>25.4</ele>
        <time>2023-05-02T11:53:42Z</time>
      </trkpt>
      <trkpt lat="49.01337" lon="-0.47122">
        <ele>25.6</ele>
        <time>2023-05-02T11:53:43Z</time>
      </trkpt>
      <trkpt lat="49.01331" lon="-0.47126">
        <ele>25.6</ele>
        <time>2023-05-02T11:53:44Z</time>
      </trkpt>
      <trkpt lat="49.01325" lon="-0.4713">
        <ele>25.6</ele>
        <time>2023-05-02T11:53:45Z</time>
      </trkpt>
      <trkpt lat="49.01319" lon="-0.47134">
        <ele>25.6</ele>
        <time>2023-05-02T11:53:46Z</time>
      </trkpt>
      <trkpt lat="49.01312" lon="-0.47138">
        <ele>25.6</ele>
        <time>2023-05-02T11:53:47Z</time>
      </trkpt>
      <trkpt lat="49.01306" lon="-0.47142">
        <ele>25.6</ele>
        <time>2023-05-02T11:53:48Z</time>
      </trkpt>
      <trkpt lat="49.013" lon="-0.47145">
        <ele>25.6</ele>
        <time>2023-05-02T11:53:49Z</time>
      </trkpt>
      <trkpt lat="49.01294" lon="-0.47149">
        <ele>25.6</ele>
        <time>2023-05-02T11:53:50Z</time>
      </trkpt>
      <trkpt lat="49.01288" lon="-0.47153">
        <ele>25.6</ele>
        <time>2023-05-02T11:53:51Z</time>
      </trkpt>
      <trkpt lat="49.01281" lon="-0.47156">
        <ele>25.6</ele>
        <time>2023-05-02T11:53:52Z</time>
      </trkpt>
      <trkpt lat="49.01275" lon="-0.4716">
        <ele>25.6</ele>
        <time>2023-05-02T11:53:53Z</time>
      </trkpt>
      <trkpt lat="49.01269" lon="-0.47163">
        <ele>25.8</ele>
        <time>2023-05-02T11:53:54Z</time>
      </trkpt>
      <trkpt lat="49.01262" lon="-0.47166">
        <ele>25.8</ele>
        <time>2023-05-02T11:53:55Z</time>
      </trkpt>
      <trkpt lat="49.01255" lon="-0.47168">
        <ele>25.8</ele>
        <time>2023-05-02T11:53:56Z</time>
      </trkpt>
      <trkpt lat="49.01249" lon="-0.47171">
        <ele>25.8</ele>
        <time>2023-05-02T11:53:57Z</time>
      </trkpt>
      <trkpt lat="49.01242" lon="-0.47174">
        <ele>25.6</ele>
        <time>2023-05-02T11:53:58Z</time>
      </trkpt>
      <trkpt lat="49.01235" lon="-0.47176">
        <ele>25.4</ele>
        <time>2023-05-02T11:53:59Z</time>
      </trkpt>
      <trkpt lat="49.01228" lon="-0.47179">
        <ele>25.2</ele>
        <time>2023-05-02T11:54:00Z</time>
      </trkpt>
      <trkpt lat="49.01221" lon="-0.47182">
        <ele>25.2</ele>
        <time>2023-05-02T11:54:01Z</time>
      </trkpt>
      <trkpt lat="49.01215" lon="-0.47184">
        <ele>24.8</ele>
        <time>2023-05-02T11:54:02Z</time>
      </trkpt>
      <trkpt lat="49.01208" lon="-0.47187">
        <ele>24.8</ele>
        <time>2023-05-02T11:54:03Z</time>
      </trkpt>
      <trkpt lat="49.01201" lon="-0.47188">
        <ele>24.8</ele>
        <time>2023-05-02T11:54:04Z</time>
      </trkpt>
      <trkpt lat="49.01194" lon="-0.4719">
        <ele>24.6</ele>
        <time>2023-05-02T11:54:05Z</time>
      </trkpt>
      <trkpt lat="49.01188" lon="-0.47191">
        <ele>24.6</ele>
        <time>2023-05-02T11:54:06Z</time>
      </trkpt>
      <trkpt lat="49.01181" lon="-0.47193">
        <ele>24.4</ele>
        <time>2023-05-02T11:54:07Z</time>
      </trkpt>
      <trkpt lat="49.01175" lon="-0.47195">
        <ele>24.4</ele>
        <time>2023-05-02T11:54:08Z</time>
      </trkpt>
      <trkpt lat="49.01168" lon="-0.47196">
        <ele>24.2</ele>
        <time>2023-05-02T11:54:09Z</time>
      </trkpt>
      <trkpt lat="49.01161" lon="-0.47198">
        <ele>24.2</ele>
        <time>2023-05-02T11:54:10Z</time>
      </trkpt>
      <trkpt lat="49.01155" lon="-0.47199">
        <ele>24</ele>
        <time>2023-05-02T11:54:11Z</time>
      </trkpt>
      <trkpt lat="49.01148" lon="-0.47201">
        <ele>23.8</ele>
        <time>2023-05-02T11:54:12Z</time>
      </trkpt>
      <trkpt lat="49.01141" lon="-0.47202">
        <ele>23.8</ele>
        <time>2023-05-02T11:54:13Z</time>
      </trkpt>
      <trkpt lat="49.01135" lon="-0.47203">
        <ele>23.6</ele>
        <time>2023-05-02T11:54:14Z</time>
      </trkpt>
      <trkpt lat="49.01128" lon="-0.47204">
        <ele>23.4</ele>
        <time>2023-05-02T11:54:15Z</time>
      </trkpt>
      <trkpt lat="49.01121" lon="-0.47204">
        <ele>23.2</ele>
        <time>2023-05-02T11:54:16Z</time>
      </trkpt>
      <trkpt lat="49.01114" lon="-0.47205">
        <ele>23.2</ele>
        <time>2023-05-02T11:54:17Z</time>
      </trkpt>
      <trkpt lat="49.01107" lon="-0.47205">
        <ele>23</ele>
        <time>2023-05-02T11:54:18Z</time>
      </trkpt>
      <trkpt lat="49.01099" lon="-0.47205">
        <ele>22.8</ele>
        <time>2023-05-02T11:54:19Z</time>
      </trkpt>
      <trkpt lat="49.01092" lon="-0.47204">
        <ele>22.8</ele>
        <time>2023-05-02T11:54:20Z</time>
      </trkpt>
      <trkpt lat="49.01085" lon="-0.47204">
        <ele>22.8</ele>
        <time>2023-05-02T11:54:21Z</time>
      </trkpt>
      <trkpt lat="49.01078" lon="-0.47204">
        <ele>22.6</ele>
        <time>2023-05-02T11:54:22Z</time>
      </trkpt>
      <trkpt lat="49.01071" lon="-0.47203">
        <ele>22.6</ele>
        <time>2023-05-02T11:54:23Z</time>
      </trkpt>
      <trkpt lat="49.01064" lon="-0.47202">
        <ele>22.6</ele>
        <time>2023-05-02T11:54:24Z</time>
      </trkpt>
      <trkpt lat="49.01056" lon="-0.47201">
        <ele>22.6</ele>
        <time>2023-05-02T11:54:25Z</time>
      </trkpt>
      <trkpt lat="49.01049" lon="-0.472">
        <ele>22.6</ele>
        <time>2023-05-02T11:54:26Z</time>
      </trkpt>
      <trkpt lat="49.01042" lon="-0.47199">
        <ele>22.6</ele>
        <time>2023-05-02T11:54:27Z</time>
      </trkpt>
      <trkpt lat="49.01035" lon="-0.47197">
        <ele>22.6</ele>
        <time>2023-05-02T11:54:28Z</time>
      </trkpt>
      <trkpt lat="49.01028" lon="-0.47196">
        <ele>22.6</ele>
        <time>2023-05-02T11:54:29Z</time>
      </trkpt>
      <trkpt lat="49.0102" lon="-0.47194">
        <ele>22.6</ele>
        <time>2023-05-02T11:54:30Z</time>
      </trkpt>
      <trkpt lat="49.01013" lon="-0.47192">
        <ele>22.6</ele>
        <time>2023-05-02T11:54:31Z</time>
      </trkpt>
      <trkpt lat="49.01006" lon="-0.4719">
        <ele>22.6</ele>
        <time>2023-05-02T11:54:32Z</time>
      </trkpt>
      <trkpt lat="49.00999" lon="-0.47188">
        <ele>22.6</ele>
        <time>2023-05-02T11:54:33Z</time>
      </trkpt>
      <trkpt lat="49.00992" lon="-0.47186">
        <ele>22.6</ele>
        <time>2023-05-02T11:54:34Z</time>
      </trkpt>
      <trkpt lat="49.00985" lon="-0.47184">
        <ele>22.6</ele>
        <time>2023-05-02T11:54:35Z</time>
      </trkpt>
      <trkpt lat="49.00978" lon="-0.47181">
        <ele>22.6</ele>
        <time>2023-05-02T11:54:36Z</time>
      </trkpt>
      <trkpt lat="49.0097" lon="-0.47178">
        <ele>22.6</ele>
        <time>2023-05-02T11:54:37Z</time>
      </trkpt>
      <trkpt lat="49.00963" lon="-0.47175">
        <ele>22.4</ele>
        <time>2023-05-02T11:54:38Z</time>
      </trkpt>
      <trkpt lat="49.00956" lon="-0.47172">
        <ele>22.4</ele>
        <time>2023-05-02T11:54:39Z</time>
      </trkpt>
      <trkpt lat="49.00949" lon="-0.47169">
        <ele>22.4</ele>
        <time>2023-05-02T11:54:40Z</time>
      </trkpt>
      <trkpt lat="49.00942" lon="-0.47166">
        <ele>22.2</ele>
        <time>2023-05-02T11:54:41Z</time>
      </trkpt>
      <trkpt lat="49.00935" lon="-0.47163">
        <ele>22.2</ele>
        <time>2023-05-02T11:54:42Z</time>
      </trkpt>
      <trkpt lat="49.00929" lon="-0.4716">
        <ele>22.2</ele>
        <time>2023-05-02T11:54:43Z</time>
      </trkpt>
      <trkpt lat="49.00922" lon="-0.47157">
        <ele>22.2</ele>
        <time>2023-05-02T11:54:44Z</time>
      </trkpt>
      <trkpt lat="49.00916" lon="-0.47154">
        <ele>22.2</ele>
        <time>2023-05-02T11:54:45Z</time>
      </trkpt>
      <trkpt lat="49.00909" lon="-0.4715">
        <ele>22.2</ele>
        <time>2023-05-02T11:54:46Z</time>
      </trkpt>
      <trkpt lat="49.00903" lon="-0.47147">
        <ele>22.2</ele>
        <time>2023-05-02T11:54:47Z</time>
      </trkpt>
      <trkpt lat="49.00897" lon="-0.47143">
        <ele>22</ele>
        <time>2023-05-02T11:54:48Z</time>
      </trkpt>
      <trkpt lat="49.0089" lon="-0.47138">
        <ele>22</ele>
        <time>2023-05-02T11:54:49Z</time>
      </trkpt>
      <trkpt lat="49.00884" lon="-0.47134">
        <ele>22</ele>
        <time>2023-05-02T11:54:50Z</time>
      </trkpt>
      <trkpt lat="49.00877" lon="-0.47129">
        <ele>22</ele>
        <time>2023-05-02T11:54:51Z</time>
      </trkpt>
      <trkpt lat="49.0087" lon="-0.47125">
        <ele>21.8</ele>
        <time>2023-05-02T11:54:52Z</time>
      </trkpt>
      <trkpt lat="49.00864" lon="-0.47119">
        <ele>21.8</ele>
        <time>2023-05-02T11:54:53Z</time>
      </trkpt>
      <trkpt lat="49.00857" lon="-0.47115">
        <ele>21.8</ele>
        <time>2023-05-02T11:54:54Z</time>
      </trkpt>
      <trkpt lat="49.00851" lon="-0.47109">
        <ele>21.8</ele>
        <time>2023-05-02T11:54:55Z</time>
      </trkpt>
      <trkpt lat="49.00844" lon="-0.47104">
        <ele>21.8</ele>
        <time>2023-05-02T11:54:56Z</time>
      </trkpt>
      <trkpt lat="49.00838" lon="-0.47099">
        <ele>21.8</ele>
        <time>2023-05-02T11:54:57Z</time>
      </trkpt>
      <trkpt lat="49.00832" lon="-0.47093">
        <ele>21.8</ele>
        <time>2023-05-02T11:54:58Z</time>
      </trkpt>
      <trkpt lat="49.00826" lon="-0.47088">
        <ele>21.8</ele>
        <time>2023-05-02T11:54:59Z</time>
      </trkpt>
      <trkpt lat="49.0082" lon="-0.47082">
        <ele>21.8</ele>
        <time>2023-05-02T11:55:00Z</time>
      </trkpt>
      <trkpt lat="49.00814" lon="-0.47077">
        <ele>22</ele>
        <time>2023-05-02T11:55:01Z</time>
      </trkpt>
      <trkpt lat="49.00808" lon="-0.47071">
        <ele>22.2</ele>
        <time>2023-05-02T11:55:02Z</time>
      </trkpt>
      <trkpt lat="49.00802" lon="-0.47065">
        <ele>22.4</ele>
        <time>2023-05-02T11:55:03Z</time>
      </trkpt>
      <trkpt lat="49.00796" lon="-0.47059">
        <ele>22.6</ele>
        <time>2023-05-02T11:55:04Z</time>
      </trkpt>
      <trkpt lat="49.00791" lon="-0.47053">
        <ele>22.8</ele>
        <time>2023-05-02T11:55:05Z</time>
      </trkpt>
      <trkpt lat="49.00785" lon="-0.47047">
        <ele>22.8</ele>
        <time>2023-05-02T11:55:06Z</time>
      </trkpt>
      <trkpt lat="49.0078" lon="-0.47041">
        <ele>22.8</ele>
        <time>2023-05-02T11:55:07Z</time>
      </trkpt>
      <trkpt lat="49.00775" lon="-0.47035">
        <ele>23</ele>
        <time>2023-05-02T11:55:08Z</time>
      </trkpt>
      <trkpt lat="49.0077" lon="-0.4703">
        <ele>23</ele>
        <time>2023-05-02T11:55:09Z</time>
      </trkpt>
      <trkpt lat="49.00765" lon="-0.47024">
        <ele>23</ele>
        <time>2023-05-02T11:55:10Z</time>
      </trkpt>
      <trkpt lat="49.00761" lon="-0.47018">
        <ele>23</ele>
        <time>2023-05-02T11:55:11Z</time>
      </trkpt>
      <trkpt lat="49.00757" lon="-0.47013">
        <ele>23</ele>
        <time>2023-05-02T11:55:12Z</time>
      </trkpt>
      <trkpt lat="49.00753" lon="-0.47008">
        <ele>22.8</ele>
        <time>2023-05-02T11:55:13Z</time>
      </trkpt>
      <trkpt lat="49.00749" lon="-0.47003">
        <ele>22.8</ele>
        <time>2023-05-02T11:55:14Z</time>
      </trkpt>
      <trkpt lat="49.00745" lon="-0.46997">
        <ele>23.2</ele>
        <time>2023-05-02T11:55:15Z</time>
      </trkpt>
      <trkpt lat="49.00741" lon="-0.46992">
        <ele>23.4</ele>
        <time>2023-05-02T11:55:16Z</time>
      </trkpt>
      <trkpt lat="49.00738" lon="-0.46987">
        <ele>23.8</ele>
        <time>2023-05-02T11:55:17Z</time>
      </trkpt>
      <trkpt lat="49.00734" lon="-0.46981">
        <ele>24</ele>
        <time>2023-05-02T11:55:18Z</time>
      </trkpt>
      <trkpt lat="49.00729" lon="-0.46974">
        <ele>24.2</ele>
        <time>2023-05-02T11:55:19Z</time>
      </trkpt>
      <trkpt lat="49.00724" lon="-0.46968">
        <ele>24.6</ele>
        <time>2023-05-02T11:55:20Z</time>
      </trkpt>
      <trkpt lat="49.00719" lon="-0.46961">
        <ele>24.6</ele>
        <time>2023-05-02T11:55:21Z</time>
      </trkpt>
      <trkpt lat="49.00714" lon="-0.46953">
        <ele>24.8</ele>
        <time>2023-05-02T11:55:22Z</time>
      </trkpt>
      <trkpt lat="49.00709" lon="-0.46946">
        <ele>24.8</ele>
        <time>2023-05-02T11:55:23Z</time>
      </trkpt>
      <trkpt lat="49.00704" lon="-0.46938">
        <ele>24.8</ele>
        <time>2023-05-02T11:55:24Z</time>
      </trkpt>
      <trkpt lat="49.00699" lon="-0.46931">
        <ele>24.8</ele>
        <time>2023-05-02T11:55:25Z</time>
      </trkpt>
      <trkpt lat="49.00694" lon="-0.46923">
        <ele>24.8</ele>
        <time>2023-05-02T11:55:26Z</time>
      </trkpt>
      <trkpt lat="49.0069" lon="-0.46916">
        <ele>24.6</ele>
        <time>2023-05-02T11:55:27Z</time>
      </trkpt>
      <trkpt lat="49.00685" lon="-0.46908">
        <ele>24.8</ele>
        <time>2023-05-02T11:55:28Z</time>
      </trkpt>
      <trkpt lat="49.0068" lon="-0.469">
        <ele>25.2</ele>
        <time>2023-05-02T11:55:29Z</time>
      </trkpt>
      <trkpt lat="49.00676" lon="-0.46892">
        <ele>25.2</ele>
        <time>2023-05-02T11:55:30Z</time>
      </trkpt>
      <trkpt lat="49.00671" lon="-0.46884">
        <ele>25.6</ele>
        <time>2023-05-02T11:55:31Z</time>
      </trkpt>
      <trkpt lat="49.00667" lon="-0.46876">
        <ele>25.8</ele>
        <time>2023-05-02T11:55:32Z</time>
      </trkpt>
      <trkpt lat="49.00663" lon="-0.46868">
        <ele>26.4</ele>
        <time>2023-05-02T11:55:33Z</time>
      </trkpt>
      <trkpt lat="49.00659" lon="-0.4686">
        <ele>26.8</ele>
        <time>2023-05-02T11:55:34Z</time>
      </trkpt>
      <trkpt lat="49.00654" lon="-0.46852">
        <ele>27.2</ele>
        <time>2023-05-02T11:55:35Z</time>
      </trkpt>
      <trkpt lat="49.00651" lon="-0.46844">
        <ele>27.6</ele>
        <time>2023-05-02T11:55:36Z</time>
      </trkpt>
      <trkpt lat="49.00647" lon="-0.46836">
        <ele>27.8</ele>
        <time>2023-05-02T11:55:37Z</time>
      </trkpt>
      <trkpt lat="49.00643" lon="-0.46828">
        <ele>27.8</ele>
        <time>2023-05-02T11:55:38Z</time>
      </trkpt>
      <trkpt lat="49.0064" lon="-0.4682">
        <ele>28.2</ele>
        <time>2023-05-02T11:55:39Z</time>
      </trkpt>
      <trkpt lat="49.00636" lon="-0.46812">
        <ele>28.4</ele>
        <time>2023-05-02T11:55:40Z</time>
      </trkpt>
      <trkpt lat="49.00633" lon="-0.46805">
        <ele>28.6</ele>
        <time>2023-05-02T11:55:41Z</time>
      </trkpt>
      <trkpt lat="49.00629" lon="-0.46797">
        <ele>28.8</ele>
        <time>2023-05-02T11:55:42Z</time>
      </trkpt>
      <trkpt lat="49.00626" lon="-0.46789">
        <ele>28.8</ele>
        <time>2023-05-02T11:55:43Z</time>
      </trkpt>
      <trkpt lat="49.00622" lon="-0.46781">
        <ele>28.8</ele>
        <time>2023-05-02T11:55:44Z</time>
      </trkpt>
      <trkpt lat="49.00619" lon="-0.46773">
        <ele>28.8</ele>
        <time>2023-05-02T11:55:45Z</time>
      </trkpt>
      <trkpt lat="49.00616" lon="-0.46765">
        <ele>28.8</ele>
        <time>2023-05-02T11:55:46Z</time>
      </trkpt>
      <trkpt lat="49.00612" lon="-0.46757">
        <ele>28.8</ele>
        <time>2023-05-02T11:55:47Z</time>
      </trkpt>
      <trkpt lat="49.00608" lon="-0.46748">
        <ele>28.8</ele>
        <time>2023-05-02T11:55:48Z</time>
      </trkpt>
      <trkpt lat="49.00605" lon="-0.4674">
        <ele>28.8</ele>
        <time>2023-05-02T11:55:49Z</time>
      </trkpt>
      <trkpt lat="49.00601" lon="-0.46731">
        <ele>28.8</ele>
        <time>2023-05-02T11:55:50Z</time>
      </trkpt>
      <trkpt lat="49.00598" lon="-0.46722">
        <ele>29</ele>
        <time>2023-05-02T11:55:51Z</time>
      </trkpt>
      <trkpt lat="49.00594" lon="-0.46714">
        <ele>29.2</ele>
        <time>2023-05-02T11:55:52Z</time>
      </trkpt>
      <trkpt lat="49.0059" lon="-0.46705">
        <ele>29.2</ele>
        <time>2023-05-02T11:55:53Z</time>
      </trkpt>
      <trkpt lat="49.00587" lon="-0.46696">
        <ele>29.2</ele>
        <time>2023-05-02T11:55:54Z</time>
      </trkpt>
      <trkpt lat="49.00583" lon="-0.46688">
        <ele>29.2</ele>
        <time>2023-05-02T11:55:55Z</time>
      </trkpt>
      <trkpt lat="49.00579" lon="-0.46679">
        <ele>29.6</ele>
        <time>2023-05-02T11:55:56Z</time>
      </trkpt>
      <trkpt lat="49.00576" lon="-0.46671">
        <ele>29.8</ele>
        <time>2023-05-02T11:55:57Z</time>
      </trkpt>
      <trkpt lat="49.00572" lon="-0.46662">
        <ele>30.2</ele>
        <time>2023-05-02T11:55:58Z</time>
      </trkpt>
      <trkpt lat="49.00568" lon="-0.46654">
        <ele>31.2</ele>
        <time>2023-05-02T11:55:59Z</time>
      </trkpt>
      <trkpt lat="49.00563" lon="-0.46646">
        <ele>31.8</ele>
        <time>2023-05-02T11:56:00Z</time>
      </trkpt>
      <trkpt lat="49.00559" lon="-0.46638">
        <ele>32.4</ele>
        <time>2023-05-02T11:56:01Z</time>
      </trkpt>
      <trkpt lat="49.00555" lon="-0.4663">
        <ele>32.8</ele>
        <time>2023-05-02T11:56:02Z</time>
      </trkpt>
      <trkpt lat="49.0055" lon="-0.46622">
        <ele>33</ele>
        <time>2023-05-02T11:56:03Z</time>
      </trkpt>
      <trkpt lat="49.00546" lon="-0.46614">
        <ele>33</ele>
        <time>2023-05-02T11:56:04Z</time>
      </trkpt>
      <trkpt lat="49.00541" lon="-0.46606">
        <ele>33</ele>
        <time>2023-05-02T11:56:05Z</time>
      </trkpt>
      <trkpt lat="49.00536" lon="-0.46599">
        <ele>32.8</ele>
        <time>2023-05-02T11:56:06Z</time>
      </trkpt>
      <trkpt lat="49.00531" lon="-0.46592">
        <ele>32.2</ele>
        <time>2023-05-02T11:56:07Z</time>
      </trkpt>
      <trkpt lat="49.00526" lon="-0.46585">
        <ele>31.8</ele>
        <time>2023-05-02T11:56:08Z</time>
      </trkpt>
      <trkpt lat="49.00521" lon="-0.46578">
        <ele>31.8</ele>
        <time>2023-05-02T11:56:09Z</time>
      </trkpt>
      <trkpt lat="49.00515" lon="-0.46571">
        <ele>32.2</ele>
        <time>2023-05-02T11:56:10Z</time>
      </trkpt>
      <trkpt lat="49.0051" lon="-0.46564">
        <ele>32.6</ele>
        <time>2023-05-02T11:56:11Z</time>
      </trkpt>
      <trkpt lat="49.00505" lon="-0.46558">
        <ele>32.8</ele>
        <time>2023-05-02T11:56:12Z</time>
      </trkpt>
      <trkpt lat="49.00499" lon="-0.46552">
        <ele>33</ele>
        <time>2023-05-02T11:56:13Z</time>
      </trkpt>
      <trkpt lat="49.00493" lon="-0.46547">
        <ele>34</ele>
        <time>2023-05-02T11:56:14Z</time>
      </trkpt>
      <trkpt lat="49.00488" lon="-0.46541">
        <ele>35</ele>
        <time>2023-05-02T11:56:15Z</time>
      </trkpt>
      <trkpt lat="49.00482" lon="-0.46536">
        <ele>35.6</ele>
        <time>2023-05-02T11:56:16Z</time>
      </trkpt>
      <trkpt lat="49.00476" lon="-0.46531">
        <ele>36</ele>
        <time>2023-05-02T11:56:17Z</time>
      </trkpt>
      <trkpt lat="49.0047" lon="-0.46526">
        <ele>36.6</ele>
        <time>2023-05-02T11:56:18Z</time>
      </trkpt>
      <trkpt lat="49.00464" lon="-0.46522">
        <ele>37</ele>
        <time>2023-05-02T11:56:19Z</time>
      </trkpt>
      <trkpt lat="49.00458" lon="-0.46517">
        <ele>37</ele>
        <time>2023-05-02T11:56:20Z</time>
      </trkpt>
      <trkpt lat="49.00452" lon="-0.46514">
        <ele>37.2</ele>
        <time>2023-05-02T11:56:21Z</time>
      </trkpt>
      <trkpt lat="49.00446" lon="-0.4651">
        <ele>37.2</ele>
        <time>2023-05-02T11:56:22Z</time>
      </trkpt>
      <trkpt lat="49.0044" lon="-0.46507">
        <ele>37</ele>
        <time>2023-05-02T11:56:23Z</time>
      </trkpt>
      <trkpt lat="49.00434" lon="-0.46503">
        <ele>37</ele>
        <time>2023-05-02T11:56:24Z</time>
      </trkpt>
      <trkpt lat="49.00428" lon="-0.46501">
        <ele>36.6</ele>
        <time>2023-05-02T11:56:25Z</time>
      </trkpt>
      <trkpt lat="49.00422" lon="-0.46498">
        <ele>36.6</ele>
        <time>2023-05-02T11:56:26Z</time>
      </trkpt>
      <trkpt lat="49.00416" lon="-0.46495">
        <ele>36.8</ele>
        <time>2023-05-02T11:56:27Z</time>
      </trkpt>
      <trkpt lat="49.0041" lon="-0.46493">
        <ele>37</ele>
        <time>2023-05-02T11:56:28Z</time>
      </trkpt>
      <trkpt lat="49.00403" lon="-0.46491">
        <ele>37</ele>
        <time>2023-05-02T11:56:29Z</time>
      </trkpt>
      <trkpt lat="49.00397" lon="-0.4649">
        <ele>37.2</ele>
        <time>2023-05-02T11:56:30Z</time>
      </trkpt>
      <trkpt lat="49.00391" lon="-0.46488">
        <ele>37</ele>
        <time>2023-05-02T11:56:31Z</time>
      </trkpt>
      <trkpt lat="49.00384" lon="-0.46487">
        <ele>37</ele>
        <time>2023-05-02T11:56:32Z</time>
      </trkpt>
      <trkpt lat="49.00377" lon="-0.46485">
        <ele>36.8</ele>
        <time>2023-05-02T11:56:33Z</time>
      </trkpt>
      <trkpt lat="49.00371" lon="-0.46485">
        <ele>36.4</ele>
        <time>2023-05-02T11:56:34Z</time>
      </trkpt>
      <trkpt lat="49.00364" lon="-0.46484">
        <ele>36</ele>
        <time>2023-05-02T11:56:35Z</time>
      </trkpt>
      <trkpt lat="49.00358" lon="-0.46484">
        <ele>35.2</ele>
        <time>2023-05-02T11:56:36Z</time>
      </trkpt>
      <trkpt lat="49.00351" lon="-0.46484">
        <ele>34.8</ele>
        <time>2023-05-02T11:56:37Z</time>
      </trkpt>
      <trkpt lat="49.00345" lon="-0.46484">
        <ele>34</ele>
        <time>2023-05-02T11:56:38Z</time>
      </trkpt>
      <trkpt lat="49.00338" lon="-0.46485">
        <ele>33</ele>
        <time>2023-05-02T11:56:39Z</time>
      </trkpt>
      <trkpt lat="49.00332" lon="-0.46485">
        <ele>32.6</ele>
        <time>2023-05-02T11:56:40Z</time>
      </trkpt>
      <trkpt lat="49.00325" lon="-0.46486">
        <ele>33</ele>
        <time>2023-05-02T11:56:41Z</time>
      </trkpt>
      <trkpt lat="49.00318" lon="-0.46486">
        <ele>33.8</ele>
        <time>2023-05-02T11:56:42Z</time>
      </trkpt>
      <trkpt lat="49.00311" lon="-0.46487">
        <ele>34.2</ele>
        <time>2023-05-02T11:56:43Z</time>
      </trkpt>
      <trkpt lat="49.00304" lon="-0.46488">
        <ele>34.6</ele>
        <time>2023-05-02T11:56:44Z</time>
      </trkpt>
      <trkpt lat="49.00297" lon="-0.4649">
        <ele>34.8</ele>
        <time>2023-05-02T11:56:45Z</time>
      </trkpt>
      <trkpt lat="49.0029" lon="-0.46492">
        <ele>34.8</ele>
        <time>2023-05-02T11:56:46Z</time>
      </trkpt>
      <trkpt lat="49.00283" lon="-0.46494">
        <ele>34.6</ele>
        <time>2023-05-02T11:56:47Z</time>
      </trkpt>
      <trkpt lat="49.00277" lon="-0.46497">
        <ele>34.4</ele>
        <time>2023-05-02T11:56:48Z</time>
      </trkpt>
      <trkpt lat="49.0027" lon="-0.46499">
        <ele>34</ele>
        <time>2023-05-02T11:56:49Z</time>
      </trkpt>
      <trkpt lat="49.00263" lon="-0.46502">
        <ele>34.2</ele>
        <time>2023-05-02T11:56:50Z</time>
      </trkpt>
      <trkpt lat="49.00256" lon="-0.46505">
        <ele>34.6</ele>
        <time>2023-05-02T11:56:51Z</time>
      </trkpt>
      <trkpt lat="49.0025" lon="-0.46509">
        <ele>34.8</ele>
        <time>2023-05-02T11:56:52Z</time>
      </trkpt>
      <trkpt lat="49.00243" lon="-0.46512">
        <ele>35.6</ele>
        <time>2023-05-02T11:56:53Z</time>
      </trkpt>
      <trkpt lat="49.00237" lon="-0.46515">
        <ele>36.4</ele>
        <time>2023-05-02T11:56:54Z</time>
      </trkpt>
      <trkpt lat="49.0023" lon="-0.46519">
        <ele>37</ele>
        <time>2023-05-02T11:56:55Z</time>
      </trkpt>
      <trkpt lat="49.00224" lon="-0.46522">
        <ele>37.6</ele>
        <time>2023-05-02T11:56:56Z</time>
      </trkpt>
      <trkpt lat="49.00218" lon="-0.46526">
        <ele>38</ele>
        <time>2023-05-02T11:56:57Z</time>
      </trkpt>
      <trkpt lat="49.00212" lon="-0.4653">
        <ele>38.4</ele>
        <time>2023-05-02T11:56:58Z</time>
      </trkpt>
      <trkpt lat="49.00206" lon="-0.46534">
        <ele>38.6</ele>
        <time>2023-05-02T11:56:59Z</time>
      </trkpt>
      <trkpt lat="49.00199" lon="-0.46538">
        <ele>38.6</ele>
        <time>2023-05-02T11:57:00Z</time>
      </trkpt>
      <trkpt lat="49.00193" lon="-0.46543">
        <ele>38.6</ele>
        <time>2023-05-02T11:57:01Z</time>
      </trkpt>
      <trkpt lat="49.00187" lon="-0.46547">
        <ele>38.4</ele>
        <time>2023-05-02T11:57:02Z</time>
      </trkpt>
      <trkpt lat="49.00182" lon="-0.46553">
        <ele>38</ele>
        <time>2023-05-02T11:57:03Z</time>
      </trkpt>
      <trkpt lat="49.00176" lon="-0.46558">
        <ele>37.6</ele>
        <time>2023-05-02T11:57:04Z</time>
      </trkpt>
      <trkpt lat="49.0017" lon="-0.46564">
        <ele>36.8</ele>
        <time>2023-05-02T11:57:05Z</time>
      </trkpt>
      <trkpt lat="49.00164" lon="-0.4657">
        <ele>36.4</ele>
        <time>2023-05-02T11:57:06Z</time>
      </trkpt>
      <trkpt lat="49.00158" lon="-0.46576">
        <ele>36.6</ele>
        <time>2023-05-02T11:57:07Z</time>
      </trkpt>
      <trkpt lat="49.00153" lon="-0.46583">
        <ele>36.2</ele>
        <time>2023-05-02T11:57:08Z</time>
      </trkpt>
      <trkpt lat="49.00148" lon="-0.4659">
        <ele>36.8</ele>
        <time>2023-05-02T11:57:09Z</time>
      </trkpt>
      <trkpt lat="49.00143" lon="-0.46597">
        <ele>37</ele>
        <time>2023-05-02T11:57:10Z</time>
      </trkpt>
      <trkpt lat="49.00138" lon="-0.46604">
        <ele>37.4</ele>
        <time>2023-05-02T11:57:11Z</time>
      </trkpt>
      <trkpt lat="49.00133" lon="-0.46611">
        <ele>37.6</ele>
        <time>2023-05-02T11:57:12Z</time>
      </trkpt>
      <trkpt lat="49.00129" lon="-0.46618">
        <ele>37.6</ele>
        <time>2023-05-02T11:57:13Z</time>
      </trkpt>
      <trkpt lat="49.00124" lon="-0.46626">
        <ele>37.6</ele>
        <time>2023-05-02T11:57:14Z</time>
      </trkpt>
      <trkpt lat="49.00119" lon="-0.46633">
        <ele>37.2</ele>
        <time>2023-05-02T11:57:15Z</time>
      </trkpt>
      <trkpt lat="49.00114" lon="-0.4664">
        <ele>37</ele>
        <time>2023-05-02T11:57:16Z</time>
      </trkpt>
      <trkpt lat="49.0011" lon="-0.46648">
        <ele>36.6</ele>
        <time>2023-05-02T11:57:17Z</time>
      </trkpt>
      <trkpt lat="49.00106" lon="-0.46655">
        <ele>36</ele>
        <time>2023-05-02T11:57:18Z</time>
      </trkpt>
      <trkpt lat="49.00101" lon="-0.46663">
        <ele>35</ele>
        <time>2023-05-02T11:57:19Z</time>
      </trkpt>
      <trkpt lat="49.00098" lon="-0.46671">
        <ele>34.6</ele>
        <time>2023-05-02T11:57:20Z</time>
      </trkpt>
      <trkpt lat="49.00094" lon="-0.4668">
        <ele>34</ele>
        <time>2023-05-02T11:57:21Z</time>
      </trkpt>
      <trkpt lat="49.0009" lon="-0.46688">
        <ele>33.6</ele>
        <time>2023-05-02T11:57:22Z</time>
      </trkpt>
      <trkpt lat="49.00086" lon="-0.46697">
        <ele>32.8</ele>
        <time>2023-05-02T11:57:23Z</time>
      </trkpt>
      <trkpt lat="49.00082" lon="-0.46706">
        <ele>32.2</ele>
        <time>2023-05-02T11:57:24Z</time>
      </trkpt>
      <trkpt lat="49.00078" lon="-0.46715">
        <ele>32</ele>
        <time>2023-05-02T11:57:25Z</time>
      </trkpt>
      <trkpt lat="49.00074" lon="-0.46724">
        <ele>31.8</ele>
        <time>2023-05-02T11:57:26Z</time>
      </trkpt>
      <trkpt lat="49.0007" lon="-0.46733">
        <ele>31.4</ele>
        <time>2023-05-02T11:57:27Z</time>
      </trkpt>
      <trkpt lat="49.00066" lon="-0.46743">
        <ele>30.8</ele>
        <time>2023-05-02T11:57:28Z</time>
      </trkpt>
      <trkpt lat="49.00063" lon="-0.46752">
        <ele>30.6</ele>
        <time>2023-05-02T11:57:29Z</time>
      </trkpt>
      <trkpt lat="49.0006" lon="-0.46761">
        <ele>30.6</ele>
        <time>2023-05-02T11:57:30Z</time>
      </trkpt>
      <trkpt lat="49.00057" lon="-0.46771">
        <ele>30.6</ele>
        <time>2023-05-02T11:57:31Z</time>
      </trkpt>
      <trkpt lat="49.00054" lon="-0.46781">
        <ele>30.4</ele>
        <time>2023-05-02T11:57:32Z</time>
      </trkpt>
      <trkpt lat="49.00051" lon="-0.4679">
        <ele>30.2</ele>
        <time>2023-05-02T11:57:33Z</time>
      </trkpt>
      <trkpt lat="49.00048" lon="-0.468">
        <ele>29.8</ele>
        <time>2023-05-02T11:57:34Z</time>
      </trkpt>
      <trkpt lat="49.00046" lon="-0.4681">
        <ele>29.2</ele>
        <time>2023-05-02T11:57:35Z</time>
      </trkpt>
      <trkpt lat="49.00043" lon="-0.4682">
        <ele>28.8</ele>
        <time>2023-05-02T11:57:36Z</time>
      </trkpt>
      <trkpt lat="49.00041" lon="-0.4683">
        <ele>28.2</ele>
        <time>2023-05-02T11:57:37Z</time>
      </trkpt>
      <trkpt lat="49.00038" lon="-0.4684">
        <ele>27.8</ele>
        <time>2023-05-02T11:57:38Z</time>
      </trkpt>
      <trkpt lat="49.00036" lon="-0.4685">
        <ele>27.6</ele>
        <time>2023-05-02T11:57:39Z</time>
      </trkpt>
      <trkpt lat="49.00033" lon="-0.4686">
        <ele>27.2</ele>
        <time>2023-05-02T11:57:40Z</time>
      </trkpt>
      <trkpt lat="49.00031" lon="-0.4687">
        <ele>27.2</ele>
        <time>2023-05-02T11:57:41Z</time>
      </trkpt>
      <trkpt lat="49.00029" lon="-0.4688">
        <ele>26.8</ele>
        <time>2023-05-02T11:57:42Z</time>
      </trkpt>
      <trkpt lat="49.00027" lon="-0.4689">
        <ele>26.4</ele>
        <time>2023-05-02T11:57:43Z</time>
      </trkpt>
      <trkpt lat="49.00024" lon="-0.46901">
        <ele>26</ele>
        <time>2023-05-02T11:57:44Z</time>
      </trkpt>
      <trkpt lat="49.00022" lon="-0.46911">
        <ele>25.6</ele>
        <time>2023-05-02T11:57:45Z</time>
      </trkpt>
      <trkpt lat="49.0002" lon="-0.46922">
        <ele>25.2</ele>
        <time>2023-05-02T11:57:46Z</time>
      </trkpt>
      <trkpt lat="49.00018" lon="-0.46932">
        <ele>25.2</ele>
        <time>2023-05-02T11:57:47Z</time>
      </trkpt>
      <trkpt lat="49.00016" lon="-0.46943">
        <ele>24.8</ele>
        <time>2023-05-02T11:57:48Z</time>
      </trkpt>
      <trkpt lat="49.00014" lon="-0.46953">
        <ele>24.8</ele>
        <time>2023-05-02T11:57:49Z</time>
      </trkpt>
      <trkpt lat="49.00012" lon="-0.46964">
        <ele>24.6</ele>
        <time>2023-05-02T11:57:50Z</time>
      </trkpt>
      <trkpt lat="49.0001" lon="-0.46975">
        <ele>24.2</ele>
        <time>2023-05-02T11:57:51Z</time>
      </trkpt>
      <trkpt lat="49.00008" lon="-0.46986">
        <ele>24.2</ele>
        <time>2023-05-02T11:57:52Z</time>
      </trkpt>
      <trkpt lat="49.00006" lon="-0.46997">
        <ele>23.8</ele>
        <time>2023-05-02T11:57:53Z</time>
      </trkpt>
      <trkpt lat="49.00004" lon="-0.47008">
        <ele>23.8</ele>
        <time>2023-05-02T11:57:54Z</time>
      </trkpt>
      <trkpt lat="49.00002" lon="-0.47019">
        <ele>23.8</ele>
        <time>2023-05-02T11:57:55Z</time>
      </trkpt>
      <trkpt lat="49" lon="-0.4703">
        <ele>24.2</ele>
        <time>2023-05-02T11:57:56Z</time>
      </trkpt>
      <trkpt lat="48.99998" lon="-0.4704">
        <ele>24.2</ele>
        <time>2023-05-02T11:57:57Z</time>
      </trkpt>
      <trkpt lat="48.99996" lon="-0.47052">
        <ele>24.6</ele>
        <time>2023-05-02T11:57:58Z</time>
      </trkpt>
      <trkpt lat="48.99994" lon="-0.47063">
        <ele>24.8</ele>
        <time>2023-05-02T11:57:59Z</time>
      </trkpt>
      <trkpt lat="48.99992" lon="-0.47074">
        <ele>24.8</ele>
        <time>2023-05-02T11:58:00Z</time>
      </trkpt>
      <trkpt lat="48.99989" lon="-0.47085">
        <ele>25</ele>
        <time>2023-05-02T11:58:01Z</time>
      </trkpt>
      <trkpt lat="48.99988" lon="-0.47096">
        <ele>24.8</ele>
        <time>2023-05-02T11:58:02Z</time>
      </trkpt>
      <trkpt lat="48.99986" lon="-0.47107">
        <ele>24.8</ele>
        <time>2023-05-02T11:58:03Z</time>
      </trkpt>
      <trkpt lat="48.99983" lon="-0.47118">
        <ele>24.8</ele>
        <time>2023-05-02T11:58:04Z</time>
      </trkpt>
      <trkpt lat="48.99982" lon="-0.47129">
        <ele>24.6</ele>
        <time>2023-05-02T11:58:05Z</time>
      </trkpt>
      <trkpt lat="48.99979" lon="-0.4714">
        <ele>24.4</ele>
        <time>2023-05-02T11:58:06Z</time>
      </trkpt>
      <trkpt lat="48.99977" lon="-0.47151">
        <ele>24.2</ele>
        <time>2023-05-02T11:58:07Z</time>
      </trkpt>
      <trkpt lat="48.99976" lon="-0.47162">
        <ele>24.2</ele>
        <time>2023-05-02T11:58:08Z</time>
      </trkpt>
      <trkpt lat="48.99974" lon="-0.47173">
        <ele>24.2</ele>
        <time>2023-05-02T11:58:09Z</time>
      </trkpt>
      <trkpt lat="48.99972" lon="-0.47184">
        <ele>24.6</ele>
        <time>2023-05-02T11:58:10Z</time>
      </trkpt>
      <trkpt lat="48.9997" lon="-0.47195">
        <ele>24.8</ele>
        <time>2023-05-02T11:58:11Z</time>
      </trkpt>
      <trkpt lat="48.99968" lon="-0.47206">
        <ele>25</ele>
        <time>2023-05-02T11:58:12Z</time>
      </trkpt>
      <trkpt lat="48.99966" lon="-0.47217">
        <ele>25.2</ele>
        <time>2023-05-02T11:58:13Z</time>
      </trkpt>
      <trkpt lat="48.99964" lon="-0.47228">
        <ele>25.4</ele>
        <time>2023-05-02T11:58:14Z</time>
      </trkpt>
      <trkpt lat="48.99962" lon="-0.47239">
        <ele>25.8</ele>
        <time>2023-05-02T11:58:15Z</time>
      </trkpt>
      <trkpt lat="48.9996" lon="-0.4725">
        <ele>25.8</ele>
        <time>2023-05-02T11:58:16Z</time>
      </trkpt>
      <trkpt lat="48.99958" lon="-0.4726">
        <ele>25.8</ele>
        <time>2023-05-02T11:58:17Z</time>
      </trkpt>
      <trkpt lat="48.99956" lon="-0.47271">
        <ele>26</ele>
        <time>2023-05-02T11:58:18Z</time>
      </trkpt>
      <trkpt lat="48.99954" lon="-0.47282">
        <ele>26.2</ele>
        <time>2023-05-02T11:58:19Z</time>
      </trkpt>
      <trkpt lat="48.99952" lon="-0.47292">
        <ele>26.2</ele>
        <time>2023-05-02T11:58:20Z</time>
      </trkpt>
      <trkpt lat="48.9995" lon="-0.47303">
        <ele>26.2</ele>
        <time>2023-05-02T11:58:21Z</time>
      </trkpt>
      <trkpt lat="48.99948" lon="-0.47314">
        <ele>26.2</ele>
        <time>2023-05-02T11:58:22Z</time>
      </trkpt>
      <trkpt lat="48.99946" lon="-0.47324">
        <ele>26.2</ele>
        <time>2023-05-02T11:58:23Z</time>
      </trkpt>
      <trkpt lat="48.99943" lon="-0.47334">
        <ele>26.4</ele>
        <time>2023-05-02T11:58:24Z</time>
      </trkpt>
      <trkpt lat="48.99941" lon="-0.47345">
        <ele>26.2</ele>
        <time>2023-05-02T11:58:25Z</time>
      </trkpt>
      <trkpt lat="48.99939" lon="-0.47355">
        <ele>26.2</ele>
        <time>2023-05-02T11:58:26Z</time>
      </trkpt>
      <trkpt lat="48.99936" lon="-0.47365">
        <ele>26</ele>
        <time>2023-05-02T11:58:27Z</time>
      </trkpt>
      <trkpt lat="48.99934" lon="-0.47376">
        <ele>25.8</ele>
        <time>2023-05-02T11:58:28Z</time>
      </trkpt>
      <trkpt lat="48.99931" lon="-0.47387">
        <ele>25.8</ele>
        <time>2023-05-02T11:58:29Z</time>
      </trkpt>
      <trkpt lat="48.99929" lon="-0.47397">
        <ele>25.4</ele>
        <time>2023-05-02T11:58:30Z</time>
      </trkpt>
      <trkpt lat="48.99926" lon="-0.47407">
        <ele>25.2</ele>
        <time>2023-05-02T11:58:31Z</time>
      </trkpt>
      <trkpt lat="48.99923" lon="-0.47418">
        <ele>24.8</ele>
        <time>2023-05-02T11:58:32Z</time>
      </trkpt>
      <trkpt lat="48.9992" lon="-0.47428">
        <ele>24.8</ele>
        <time>2023-05-02T11:58:33Z</time>
      </trkpt>
      <trkpt lat="48.99917" lon="-0.47438">
        <ele>24.8</ele>
        <time>2023-05-02T11:58:34Z</time>
      </trkpt>
      <trkpt lat="48.99914" lon="-0.47447">
        <ele>24.8</ele>
        <time>2023-05-02T11:58:35Z</time>
      </trkpt>
      <trkpt lat="48.99911" lon="-0.47457">
        <ele>25</ele>
        <time>2023-05-02T11:58:36Z</time>
      </trkpt>
      <trkpt lat="48.99908" lon="-0.47467">
        <ele>25.2</ele>
        <time>2023-05-02T11:58:37Z</time>
      </trkpt>
      <trkpt lat="48.99905" lon="-0.47476">
        <ele>25.2</ele>
        <time>2023-05-02T11:58:38Z</time>
      </trkpt>
      <trkpt lat="48.99902" lon="-0.47486">
        <ele>25.2</ele>
        <time>2023-05-02T11:58:39Z</time>
      </trkpt>
      <trkpt lat="48.99898" lon="-0.47496">
        <ele>25.4</ele>
        <time>2023-05-02T11:58:40Z</time>
      </trkpt>
      <trkpt lat="48.99895" lon="-0.47506">
        <ele>25.4</ele>
        <time>2023-05-02T11:58:41Z</time>
      </trkpt>
      <trkpt lat="48.99892" lon="-0.47517">
        <ele>25.6</ele>
        <time>2023-05-02T11:58:42Z</time>
      </trkpt>
      <trkpt lat="48.99889" lon="-0.47527">
        <ele>25.6</ele>
        <time>2023-05-02T11:58:43Z</time>
      </trkpt>
      <trkpt lat="48.99886" lon="-0.47537">
        <ele>25.6</ele>
        <time>2023-05-02T11:58:44Z</time>
      </trkpt>
      <trkpt lat="48.99882" lon="-0.47547">
        <ele>25.4</ele>
        <time>2023-05-02T11:58:45Z</time>
      </trkpt>
      <trkpt lat="48.99879" lon="-0.47557">
        <ele>25.4</ele>
        <time>2023-05-02T11:58:46Z</time>
      </trkpt>
      <trkpt lat="48.99876" lon="-0.47567">
        <ele>25.2</ele>
        <time>2023-05-02T11:58:47Z</time>
      </trkpt>
      <trkpt lat="48.99873" lon="-0.47577">
        <ele>25.2</ele>
        <time>2023-05-02T11:58:48Z</time>
      </trkpt>
      <trkpt lat="48.9987" lon="-0.47587">
        <ele>25.2</ele>
        <time>2023-05-02T11:58:49Z</time>
      </trkpt>
      <trkpt lat="48.99867" lon="-0.47596">
        <ele>25.2</ele>
        <time>2023-05-02T11:58:50Z</time>
      </trkpt>
      <trkpt lat="48.99864" lon="-0.47605">
        <ele>25.2</ele>
        <time>2023-05-02T11:58:51Z</time>
      </trkpt>
      <trkpt lat="48.99861" lon="-0.47614">
        <ele>25.2</ele>
        <time>2023-05-02T11:58:52Z</time>
      </trkpt>
      <trkpt lat="48.99857" lon="-0.47623">
        <ele>25.4</ele>
        <time>2023-05-02T11:58:53Z</time>
      </trkpt>
      <trkpt lat="48.99853" lon="-0.47631">
        <ele>25.6</ele>
        <time>2023-05-02T11:58:54Z</time>
      </trkpt>
      <trkpt lat="48.99849" lon="-0.47639">
        <ele>25.6</ele>
        <time>2023-05-02T11:58:55Z</time>
      </trkpt>
      <trkpt lat="48.99845" lon="-0.47648">
        <ele>25.8</ele>
        <time>2023-05-02T11:58:56Z</time>
      </trkpt>
      <trkpt lat="48.9984" lon="-0.47656">
        <ele>25.8</ele>
        <time>2023-05-02T11:58:57Z</time>
      </trkpt>
      <trkpt lat="48.99836" lon="-0.47664">
        <ele>25.8</ele>
        <time>2023-05-02T11:58:58Z</time>
      </trkpt>
      <trkpt lat="48.99832" lon="-0.47673">
        <ele>26</ele>
        <time>2023-05-02T11:58:59Z</time>
      </trkpt>
      <trkpt lat="48.99828" lon="-0.47682">
        <ele>26.2</ele>
        <time>2023-05-02T11:59:00Z</time>
      </trkpt>
      <trkpt lat="48.99823" lon="-0.47691">
        <ele>26.4</ele>
        <time>2023-05-02T11:59:01Z</time>
      </trkpt>
      <trkpt lat="48.99819" lon="-0.477">
        <ele>26.6</ele>
        <time>2023-05-02T11:59:02Z</time>
      </trkpt>
      <trkpt lat="48.99815" lon="-0.47709">
        <ele>26.6</ele>
        <time>2023-05-02T11:59:03Z</time>
      </trkpt>
      <trkpt lat="48.99811" lon="-0.47718">
        <ele>26.8</ele>
        <time>2023-05-02T11:59:04Z</time>
      </trkpt>
      <trkpt lat="48.99807" lon="-0.47727">
        <ele>26.8</ele>
        <time>2023-05-02T11:59:05Z</time>
      </trkpt>
      <trkpt lat="48.99802" lon="-0.47736">
        <ele>26.8</ele>
        <time>2023-05-02T11:59:06Z</time>
      </trkpt>
      <trkpt lat="48.99798" lon="-0.47744">
        <ele>26.8</ele>
        <time>2023-05-02T11:59:07Z</time>
      </trkpt>
      <trkpt lat="48.99793" lon="-0.47753">
        <ele>26.8</ele>
        <time>2023-05-02T11:59:08Z</time>
      </trkpt>
      <trkpt lat="48.99789" lon="-0.47761">
        <ele>27.2</ele>
        <time>2023-05-02T11:59:09Z</time>
      </trkpt>
      <trkpt lat="48.99784" lon="-0.47769">
        <ele>27.2</ele>
        <time>2023-05-02T11:59:10Z</time>
      </trkpt>
      <trkpt lat="48.99779" lon="-0.47777">
        <ele>27.2</ele>
        <time>2023-05-02T11:59:11Z</time>
      </trkpt>
      <trkpt lat="48.99773" lon="-0.47785">
        <ele>27.2</ele>
        <time>2023-05-02T11:59:12Z</time>
      </trkpt>
      <trkpt lat="48.99768" lon="-0.47792">
        <ele>27.2</ele>
        <time>2023-05-02T11:59:13Z</time>
      </trkpt>
      <trkpt lat="48.99763" lon="-0.478">
        <ele>27</ele>
        <time>2023-05-02T11:59:14Z</time>
      </trkpt>
      <trkpt lat="48.99758" lon="-0.47808">
        <ele>26.8</ele>
        <time>2023-05-02T11:59:15Z</time>
      </trkpt>
      <trkpt lat="48.99753" lon="-0.47817">
        <ele>26.6</ele>
        <time>2023-05-02T11:59:16Z</time>
      </trkpt>
      <trkpt lat="48.99749" lon="-0.47825">
        <ele>26.6</ele>
        <time>2023-05-02T11:59:17Z</time>
      </trkpt>
      <trkpt lat="48.99744" lon="-0.47833">
        <ele>26.8</ele>
        <time>2023-05-02T11:59:18Z</time>
      </trkpt>
      <trkpt lat="48.99739" lon="-0.47841">
        <ele>27.2</ele>
        <time>2023-05-02T11:59:19Z</time>
      </trkpt>
      <trkpt lat="48.99734" lon="-0.47848">
        <ele>27.6</ele>
        <time>2023-05-02T11:59:20Z</time>
      </trkpt>
      <trkpt lat="48.9973" lon="-0.47856">
        <ele>27.8</ele>
        <time>2023-05-02T11:59:21Z</time>
      </trkpt>
      <trkpt lat="48.99725" lon="-0.47863">
        <ele>28.2</ele>
        <time>2023-05-02T11:59:22Z</time>
      </trkpt>
      <trkpt lat="48.9972" lon="-0.47871">
        <ele>28.6</ele>
        <time>2023-05-02T11:59:23Z</time>
      </trkpt>
      <trkpt lat="48.99716" lon="-0.4788">
        <ele>28.8</ele>
        <time>2023-05-02T11:59:24Z</time>
      </trkpt>
      <trkpt lat="48.99712" lon="-0.47888">
        <ele>29</ele>
        <time>2023-05-02T11:59:25Z</time>
      </trkpt>
      <trkpt lat="48.99707" lon="-0.47896">
        <ele>29.2</ele>
        <time>2023-05-02T11:59:26Z</time>
      </trkpt>
      <trkpt lat="48.99703" lon="-0.47905">
        <ele>29.6</ele>
        <time>2023-05-02T11:59:27Z</time>
      </trkpt>
      <trkpt lat="48.99699" lon="-0.47913">
        <ele>29.8</ele>
        <time>2023-05-02T11:59:28Z</time>
      </trkpt>
      <trkpt lat="48.99694" lon="-0.47921">
        <ele>30.2</ele>
        <time>2023-05-02T11:59:29Z</time>
      </trkpt>
      <trkpt lat="48.9969" lon="-0.47929">
        <ele>30.2</ele>
        <time>2023-05-02T11:59:30Z</time>
      </trkpt>
      <trkpt lat="48.99685" lon="-0.47936">
        <ele>30.2</ele>
        <time>2023-05-02T11:59:31Z</time>
      </trkpt>
      <trkpt lat="48.9968" lon="-0.47944">
        <ele>30.2</ele>
        <time>2023-05-02T11:59:32Z</time>
      </trkpt>
      <trkpt lat="48.99675" lon="-0.47952">
        <ele>30.2</ele>
        <time>2023-05-02T11:59:33Z</time>
      </trkpt>
      <trkpt lat="48.9967" lon="-0.47959">
        <ele>30.2</ele>
        <time>2023-05-02T11:59:34Z</time>
      </trkpt>
      <trkpt lat="48.99664" lon="-0.47966">
        <ele>30</ele>
        <time>2023-05-02T11:59:35Z</time>
      </trkpt>
      <trkpt lat="48.99659" lon="-0.47973">
        <ele>30.2</ele>
        <time>2023-05-02T11:59:36Z</time>
      </trkpt>
      <trkpt lat="48.99654" lon="-0.47981">
        <ele>30.2</ele>
        <time>2023-05-02T11:59:37Z</time>
      </trkpt>
      <trkpt lat="48.99648" lon="-0.47988">
        <ele>30.2</ele>
        <time>2023-05-02T11:59:38Z</time>
      </trkpt>
      <trkpt lat="48.99643" lon="-0.47995">
        <ele>30.6</ele>
        <time>2023-05-02T11:59:39Z</time>
      </trkpt>
      <trkpt lat="48.99638" lon="-0.48001">
        <ele>30.8</ele>
        <time>2023-05-02T11:59:40Z</time>
      </trkpt>
      <trkpt lat="48.99632" lon="-0.48008">
        <ele>30.8</ele>
        <time>2023-05-02T11:59:41Z</time>
      </trkpt>
      <trkpt lat="48.99627" lon="-0.48015">
        <ele>30.8</ele>
        <time>2023-05-02T11:59:42Z</time>
      </trkpt>
      <trkpt lat="48.99622" lon="-0.48022">
        <ele>30.8</ele>
        <time>2023-05-02T11:59:43Z</time>
      </trkpt>
      <trkpt lat="48.99617" lon="-0.48028">
        <ele>30.6</ele>
        <time>2023-05-02T11:59:44Z</time>
      </trkpt>
      <trkpt lat="48.99612" lon="-0.48035">
        <ele>30.4</ele>
        <time>2023-05-02T11:59:45Z</time>
      </trkpt>
      <trkpt lat="48.99607" lon="-0.48042">
        <ele>30</ele>
        <time>2023-05-02T11:59:46Z</time>
      </trkpt>
      <trkpt lat="48.99602" lon="-0.48048">
        <ele>29.6</ele>
        <time>2023-05-02T11:59:47Z</time>
      </trkpt>
      <trkpt lat="48.99597" lon="-0.48055">
        <ele>28.8</ele>
        <time>2023-05-02T11:59:48Z</time>
      </trkpt>
      <trkpt lat="48.99592" lon="-0.48062">
        <ele>28.2</ele>
        <time>2023-05-02T11:59:49Z</time>
      </trkpt>
      <trkpt lat="48.99587" lon="-0.48068">
        <ele>27.6</ele>
        <time>2023-05-02T11:59:50Z</time>
      </trkpt>
      <trkpt lat="48.99583" lon="-0.48074">
        <ele>26.8</ele>
        <time>2023-05-02T11:59:51Z</time>
      </trkpt>
      <trkpt lat="48.99578" lon="-0.48081">
        <ele>26.8</ele>
        <time>2023-05-02T11:59:52Z</time>
      </trkpt>
      <trkpt lat="48.99573" lon="-0.48087">
        <ele>27.2</ele>
        <time>2023-05-02T11:59:53Z</time>
      </trkpt>
      <trkpt lat="48.99569" lon="-0.48093">
        <ele>27.6</ele>
        <time>2023-05-02T11:59:54Z</time>
      </trkpt>
      <trkpt lat="48.99564" lon="-0.48099">
        <ele>28.2</ele>
        <time>2023-05-02T11:59:55Z</time>
      </trkpt>
      <trkpt lat="48.9956" lon="-0.48106">
        <ele>28.6</ele>
        <time>2023-05-02T11:59:56Z</time>
      </trkpt>
      <trkpt lat="48.99555" lon="-0.48112">
        <ele>29.2</ele>
        <time>2023-05-02T11:59:57Z</time>
      </trkpt>
      <trkpt lat="48.9955" lon="-0.48118">
        <ele>29.6</ele>
        <time>2023-05-02T11:59:58Z</time>
      </trkpt>
      <trkpt lat="48.99546" lon="-0.48124">
        <ele>29.8</ele>
        <time>2023-05-02T11:59:59Z</time>
      </trkpt>
      <trkpt lat="48.99541" lon="-0.4813">
        <ele>30.2</ele>
        <time>2023-05-02T12:00:00Z</time>
      </trkpt>
      <trkpt lat="48.99536" lon="-0.48136">
        <ele>30.2</ele>
        <time>2023-05-02T12:00:01Z</time>
      </trkpt>
      <trkpt lat="48.99532" lon="-0.48143">
        <ele>30.6</ele>
        <time>2023-05-02T12:00:02Z</time>
      </trkpt>
      <trkpt lat="48.99527" lon="-0.48149">
        <ele>30.8</ele>
        <time>2023-05-02T12:00:03Z</time>
      </trkpt>
      <trkpt lat="48.99522" lon="-0.48155">
        <ele>30.8</ele>
        <time>2023-05-02T12:00:04Z</time>
      </trkpt>
      <trkpt lat="48.99517" lon="-0.48161">
        <ele>30.8</ele>
        <time>2023-05-02T12:00:05Z</time>
      </trkpt>
      <trkpt lat="48.99513" lon="-0.48167">
        <ele>30.8</ele>
        <time>2023-05-02T12:00:06Z</time>
      </trkpt>
      <trkpt lat="48.99508" lon="-0.48173">
        <ele>31</ele>
        <time>2023-05-02T12:00:07Z</time>
      </trkpt>
      <trkpt lat="48.99503" lon="-0.48179">
        <ele>31.2</ele>
        <time>2023-05-02T12:00:08Z</time>
      </trkpt>
      <trkpt lat="48.99499" lon="-0.48185">
        <ele>31.4</ele>
        <time>2023-05-02T12:00:09Z</time>
      </trkpt>
      <trkpt lat="48.99494" lon="-0.4819">
        <ele>32</ele>
        <time>2023-05-02T12:00:10Z</time>
      </trkpt>
      <trkpt lat="48.9949" lon="-0.48196">
        <ele>33</ele>
        <time>2023-05-02T12:00:11Z</time>
      </trkpt>
      <trkpt lat="48.99485" lon="-0.48201">
        <ele>33.8</ele>
        <time>2023-05-02T12:00:12Z</time>
      </trkpt>
      <trkpt lat="48.9948" lon="-0.48206">
        <ele>34.6</ele>
        <time>2023-05-02T12:00:13Z</time>
      </trkpt>
      <trkpt lat="48.99475" lon="-0.4821">
        <ele>35.6</ele>
        <time>2023-05-02T12:00:14Z</time>
      </trkpt>
      <trkpt lat="48.9947" lon="-0.48214">
        <ele>36.6</ele>
        <time>2023-05-02T12:00:15Z</time>
      </trkpt>
      <trkpt lat="48.99465" lon="-0.48217">
        <ele>37.8</ele>
        <time>2023-05-02T12:00:16Z</time>
      </trkpt>
      <trkpt lat="48.99459" lon="-0.48219">
        <ele>39</ele>
        <time>2023-05-02T12:00:17Z</time>
      </trkpt>
      <trkpt lat="48.99454" lon="-0.48222">
        <ele>40.4</ele>
        <time>2023-05-02T12:00:18Z</time>
      </trkpt>
      <trkpt lat="48.99448" lon="-0.48224">
        <ele>41.8</ele>
        <time>2023-05-02T12:00:19Z</time>
      </trkpt>
      <trkpt lat="48.99442" lon="-0.48226">
        <ele>43.2</ele>
        <time>2023-05-02T12:00:20Z</time>
      </trkpt>
      <trkpt lat="48.99438" lon="-0.48229">
        <ele>44.2</ele>
        <time>2023-05-02T12:00:21Z</time>
      </trkpt>
      <trkpt lat="48.99429" lon="-0.48233">
        <ele>46.4</ele>
        <time>2023-05-02T12:00:22Z</time>
      </trkpt>
      <trkpt lat="48.99386" lon="-0.48241">
        <ele>47</ele>
        <time>2023-05-02T12:00:36Z</time>
      </trkpt>
      <trkpt lat="48.99336" lon="-0.4825">
        <ele>42.2</ele>
        <time>2023-05-02T12:00:37Z</time>
      </trkpt>
      <trkpt lat="48.99317" lon="-0.48258">
        <ele>38</ele>
        <time>2023-05-02T12:00:38Z</time>
      </trkpt>
      <trkpt lat="48.99309" lon="-0.48258">
        <ele>36.8</ele>
        <time>2023-05-02T12:00:39Z</time>
      </trkpt>
      <trkpt lat="48.99302" lon="-0.48258">
        <ele>35.6</ele>
        <time>2023-05-02T12:00:40Z</time>
      </trkpt>
      <trkpt lat="48.99296" lon="-0.48256">
        <ele>34.8</ele>
        <time>2023-05-02T12:00:41Z</time>
      </trkpt>
      <trkpt lat="48.9929" lon="-0.48251">
        <ele>34.2</ele>
        <time>2023-05-02T12:00:42Z</time>
      </trkpt>
      <trkpt lat="48.99284" lon="-0.48247">
        <ele>33.8</ele>
        <time>2023-05-02T12:00:43Z</time>
      </trkpt>
      <trkpt lat="48.99278" lon="-0.48245">
        <ele>33</ele>
        <time>2023-05-02T12:00:44Z</time>
      </trkpt>
      <trkpt lat="48.99271" lon="-0.48243">
        <ele>32.2</ele>
        <time>2023-05-02T12:00:45Z</time>
      </trkpt>
      <trkpt lat="48.99265" lon="-0.48242">
        <ele>31.2</ele>
        <time>2023-05-02T12:00:46Z</time>
      </trkpt>
      <trkpt lat="48.99258" lon="-0.4824">
        <ele>30.4</ele>
        <time>2023-05-02T12:00:47Z</time>
      </trkpt>
      <trkpt lat="48.99251" lon="-0.48238">
        <ele>29.6</ele>
        <time>2023-05-02T12:00:48Z</time>
      </trkpt>
      <trkpt lat="48.99244" lon="-0.48236">
        <ele>29.4</ele>
        <time>2023-05-02T12:00:49Z</time>
      </trkpt>
      <trkpt lat="48.99237" lon="-0.48234">
        <ele>29.2</ele>
        <time>2023-05-02T12:00:50Z</time>
      </trkpt>
      <trkpt lat="48.9923" lon="-0.48233">
        <ele>29.2</ele>
        <time>2023-05-02T12:00:51Z</time>
      </trkpt>
      <trkpt lat="48.99223" lon="-0.48231">
        <ele>29</ele>
        <time>2023-05-02T12:00:52Z</time>
      </trkpt>
      <trkpt lat="48.99217" lon="-0.48229">
        <ele>28.8</ele>
        <time>2023-05-02T12:00:53Z</time>
      </trkpt>
      <trkpt lat="48.9921" lon="-0.48228">
        <ele>28.6</ele>
        <time>2023-05-02T12:00:54Z</time>
      </trkpt>
      <trkpt lat="48.99204" lon="-0.48226">
        <ele>28.4</ele>
        <time>2023-05-02T12:00:55Z</time>
      </trkpt>
      <trkpt lat="48.99198" lon="-0.48225">
        <ele>28.2</ele>
        <time>2023-05-02T12:00:56Z</time>
      </trkpt>
      <trkpt lat="48.99191" lon="-0.48223">
        <ele>27.8</ele>
        <time>2023-05-02T12:00:57Z</time>
      </trkpt>
      <trkpt lat="48.99185" lon="-0.48222">
        <ele>27.6</ele>
        <time>2023-05-02T12:00:58Z</time>
      </trkpt>
      <trkpt lat="48.99179" lon="-0.4822">
        <ele>27.2</ele>
        <time>2023-05-02T12:00:59Z</time>
      </trkpt>
      <trkpt lat="48.99172" lon="-0.48218">
        <ele>26.8</ele>
        <time>2023-05-02T12:01:00Z</time>
      </trkpt>
      <trkpt lat="48.99166" lon="-0.48217">
        <ele>26.6</ele>
        <time>2023-05-02T12:01:01Z</time>
      </trkpt>
      <trkpt lat="48.99159" lon="-0.48215">
        <ele>26.6</ele>
        <time>2023-05-02T12:01:02Z</time>
      </trkpt>
      <trkpt lat="48.99153" lon="-0.48214">
        <ele>26.8</ele>
        <time>2023-05-02T12:01:03Z</time>
      </trkpt>
      <trkpt lat="48.99147" lon="-0.48212">
        <ele>26.8</ele>
        <time>2023-05-02T12:01:04Z</time>
      </trkpt>
      <trkpt lat="48.9914" lon="-0.4821">
        <ele>26.8</ele>
        <time>2023-05-02T12:01:05Z</time>
      </trkpt>
      <trkpt lat="48.99134" lon="-0.48208">
        <ele>26.8</ele>
        <time>2023-05-02T12:01:06Z</time>
      </trkpt>
      <trkpt lat="48.99127" lon="-0.48206">
        <ele>26.8</ele>
        <time>2023-05-02T12:01:07Z</time>
      </trkpt>
      <trkpt lat="48.99121" lon="-0.48205">
        <ele>26.8</ele>
        <time>2023-05-02T12:01:08Z</time>
      </trkpt>
      <trkpt lat="48.99115" lon="-0.48203">
        <ele>26.8</ele>
        <time>2023-05-02T12:01:09Z</time>
      </trkpt>
      <trkpt lat="48.99108" lon="-0.48201">
        <ele>26.8</ele>
        <time>2023-05-02T12:01:10Z</time>
      </trkpt>
      <trkpt lat="48.99102" lon="-0.48199">
        <ele>26.6</ele>
        <time>2023-05-02T12:01:11Z</time>
      </trkpt>
      <trkpt lat="48.99095" lon="-0.48197">
        <ele>26.6</ele>
        <time>2023-05-02T12:01:12Z</time>
      </trkpt>
      <trkpt lat="48.99089" lon="-0.48195">
        <ele>26.6</ele>
        <time>2023-05-02T12:01:13Z</time>
      </trkpt>
      <trkpt lat="48.99083" lon="-0.48193">
        <ele>26.4</ele>
        <time>2023-05-02T12:01:14Z</time>
      </trkpt>
      <trkpt lat="48.99076" lon="-0.48191">
        <ele>26.6</ele>
        <time>2023-05-02T12:01:15Z</time>
      </trkpt>
      <trkpt lat="48.9907" lon="-0.48189">
        <ele>26.6</ele>
        <time>2023-05-02T12:01:16Z</time>
      </trkpt>
      <trkpt lat="48.99063" lon="-0.48187">
        <ele>26.8</ele>
        <time>2023-05-02T12:01:17Z</time>
      </trkpt>
      <trkpt lat="48.99057" lon="-0.48185">
        <ele>26.8</ele>
        <time>2023-05-02T12:01:18Z</time>
      </trkpt>
      <trkpt lat="48.9905" lon="-0.48184">
        <ele>26.8</ele>
        <time>2023-05-02T12:01:19Z</time>
      </trkpt>
      <trkpt lat="48.99044" lon="-0.48182">
        <ele>26.8</ele>
        <time>2023-05-02T12:01:20Z</time>
      </trkpt>
      <trkpt lat="48.99038" lon="-0.4818">
        <ele>26.8</ele>
        <time>2023-05-02T12:01:21Z</time>
      </trkpt>
      <trkpt lat="48.99032" lon="-0.48178">
        <ele>27</ele>
        <time>2023-05-02T12:01:22Z</time>
      </trkpt>
      <trkpt lat="48.99025" lon="-0.48176">
        <ele>27</ele>
        <time>2023-05-02T12:01:23Z</time>
      </trkpt>
      <trkpt lat="48.9902" lon="-0.48174">
        <ele>27</ele>
        <time>2023-05-02T12:01:24Z</time>
      </trkpt>
      <trkpt lat="48.99014" lon="-0.48172">
        <ele>27</ele>
        <time>2023-05-02T12:01:25Z</time>
      </trkpt>
      <trkpt lat="48.99007" lon="-0.48171">
        <ele>27</ele>
        <time>2023-05-02T12:01:26Z</time>
      </trkpt>
      <trkpt lat="48.99001" lon="-0.4817">
        <ele>26.8</ele>
        <time>2023-05-02T12:01:27Z</time>
      </trkpt>
      <trkpt lat="48.98995" lon="-0.48169">
        <ele>26.8</ele>
        <time>2023-05-02T12:01:28Z</time>
      </trkpt>
      <trkpt lat="48.98989" lon="-0.48168">
        <ele>26.8</ele>
        <time>2023-05-02T12:01:29Z</time>
      </trkpt>
      <trkpt lat="48.98983" lon="-0.48167">
        <ele>26.6</ele>
        <time>2023-05-02T12:01:30Z</time>
      </trkpt>
      <trkpt lat="48.98977" lon="-0.48166">
        <ele>26.6</ele>
        <time>2023-05-02T12:01:31Z</time>
      </trkpt>
      <trkpt lat="48.98971" lon="-0.48166">
        <ele>26.4</ele>
        <time>2023-05-02T12:01:32Z</time>
      </trkpt>
      <trkpt lat="48.98965" lon="-0.48165">
        <ele>26.2</ele>
        <time>2023-05-02T12:01:33Z</time>
      </trkpt>
      <trkpt lat="48.9896" lon="-0.48164">
        <ele>26.2</ele>
        <time>2023-05-02T12:01:34Z</time>
      </trkpt>
      <trkpt lat="48.98955" lon="-0.48162">
        <ele>26.2</ele>
        <time>2023-05-02T12:01:35Z</time>
      </trkpt>
      <trkpt lat="48.9895" lon="-0.48161">
        <ele>26.2</ele>
        <time>2023-05-02T12:01:36Z</time>
      </trkpt>
      <trkpt lat="48.98946" lon="-0.4816">
        <ele>26.2</ele>
        <time>2023-05-02T12:01:37Z</time>
      </trkpt>
      <trkpt lat="48.98942" lon="-0.48159">
        <ele>26.2</ele>
        <time>2023-05-02T12:01:38Z</time>
      </trkpt>
      <trkpt lat="48.98939" lon="-0.48159">
        <ele>26</ele>
        <time>2023-05-02T12:01:39Z</time>
      </trkpt>
      <trkpt lat="48.98936" lon="-0.4816">
        <ele>25.8</ele>
        <time>2023-05-02T12:01:40Z</time>
      </trkpt>
      <trkpt lat="48.98933" lon="-0.4816">
        <ele>25.8</ele>
        <time>2023-05-02T12:01:41Z</time>
      </trkpt>
      <trkpt lat="48.9893" lon="-0.48161">
        <ele>25.8</ele>
        <time>2023-05-02T12:01:42Z</time>
      </trkpt>
      <trkpt lat="48.98928" lon="-0.4816">
        <ele>25.6</ele>
        <time>2023-05-02T12:01:43Z</time>
      </trkpt>
      <trkpt lat="48.98925" lon="-0.48159">
        <ele>25.6</ele>
        <time>2023-05-02T12:01:44Z</time>
      </trkpt>
      <trkpt lat="48.98921" lon="-0.48159">
        <ele>25.6</ele>
        <time>2023-05-02T12:01:45Z</time>
      </trkpt>
      <trkpt lat="48.98918" lon="-0.48159">
        <ele>25.4</ele>
        <time>2023-05-02T12:01:46Z</time>
      </trkpt>
      <trkpt lat="48.98914" lon="-0.48159">
        <ele>25.6</ele>
        <time>2023-05-02T12:01:47Z</time>
      </trkpt>
      <trkpt lat="48.9891" lon="-0.4816">
        <ele>25.8</ele>
        <time>2023-05-02T12:01:48Z</time>
      </trkpt>
      <trkpt lat="48.98906" lon="-0.48161">
        <ele>25.8</ele>
        <time>2023-05-02T12:01:49Z</time>
      </trkpt>
      <trkpt lat="48.98902" lon="-0.48162">
        <ele>26.2</ele>
        <time>2023-05-02T12:01:50Z</time>
      </trkpt>
      <trkpt lat="48.98898" lon="-0.48162">
        <ele>26.2</ele>
        <time>2023-05-02T12:01:51Z</time>
      </trkpt>
      <trkpt lat="48.98893" lon="-0.48162">
        <ele>26.6</ele>
        <time>2023-05-02T12:01:52Z</time>
      </trkpt>
      <trkpt lat="48.98889" lon="-0.48163">
        <ele>26.8</ele>
        <time>2023-05-02T12:01:53Z</time>
      </trkpt>
      <trkpt lat="48.98884" lon="-0.48163">
        <ele>27.2</ele>
        <time>2023-05-02T12:01:54Z</time>
      </trkpt>
      <trkpt lat="48.9888" lon="-0.48163">
        <ele>27.4</ele>
        <time>2023-05-02T12:01:55Z</time>
      </trkpt>
      <trkpt lat="48.98875" lon="-0.48164">
        <ele>27.6</ele>
        <time>2023-05-02T12:01:56Z</time>
      </trkpt>
      <trkpt lat="48.9887" lon="-0.48165">
        <ele>27.8</ele>
        <time>2023-05-02T12:01:57Z</time>
      </trkpt>
      <trkpt lat="48.98866" lon="-0.48167">
        <ele>28</ele>
        <time>2023-05-02T12:01:58Z</time>
      </trkpt>
      <trkpt lat="48.98861" lon="-0.48168">
        <ele>28.2</ele>
        <time>2023-05-02T12:01:59Z</time>
      </trkpt>
      <trkpt lat="48.98857" lon="-0.48169">
        <ele>28.6</ele>
        <time>2023-05-02T12:02:00Z</time>
      </trkpt>
      <trkpt lat="48.98852" lon="-0.4817">
        <ele>28.8</ele>
        <time>2023-05-02T12:02:01Z</time>
      </trkpt>
      <trkpt lat="48.98847" lon="-0.48171">
        <ele>28.8</ele>
        <time>2023-05-02T12:02:02Z</time>
      </trkpt>
      <trkpt lat="48.98842" lon="-0.48173">
        <ele>29.2</ele>
        <time>2023-05-02T12:02:03Z</time>
      </trkpt>
      <trkpt lat="48.98837" lon="-0.48174">
        <ele>29.2</ele>
        <time>2023-05-02T12:02:04Z</time>
      </trkpt>
      <trkpt lat="48.98831" lon="-0.48176">
        <ele>29.6</ele>
        <time>2023-05-02T12:02:05Z</time>
      </trkpt>
      <trkpt lat="48.98826" lon="-0.48178">
        <ele>29.8</ele>
        <time>2023-05-02T12:02:06Z</time>
      </trkpt>
      <trkpt lat="48.98821" lon="-0.48179">
        <ele>30</ele>
        <time>2023-05-02T12:02:07Z</time>
      </trkpt>
      <trkpt lat="48.98816" lon="-0.48181">
        <ele>30.2</ele>
        <time>2023-05-02T12:02:08Z</time>
      </trkpt>
      <trkpt lat="48.98811" lon="-0.48182">
        <ele>30.6</ele>
        <time>2023-05-02T12:02:09Z</time>
      </trkpt>
      <trkpt lat="48.98805" lon="-0.48184">
        <ele>30.8</ele>
        <time>2023-05-02T12:02:10Z</time>
      </trkpt>
      <trkpt lat="48.988" lon="-0.48186">
        <ele>31.2</ele>
        <time>2023-05-02T12:02:11Z</time>
      </trkpt>
      <trkpt lat="48.98794" lon="-0.48188">
        <ele>31.2</ele>
        <time>2023-05-02T12:02:12Z</time>
      </trkpt>
      <trkpt lat="48.98788" lon="-0.4819">
        <ele>31.6</ele>
        <time>2023-05-02T12:02:13Z</time>
      </trkpt>
      <trkpt lat="48.98782" lon="-0.48192">
        <ele>31.8</ele>
        <time>2023-05-02T12:02:14Z</time>
      </trkpt>
      <trkpt lat="48.98777" lon="-0.48194">
        <ele>32</ele>
        <time>2023-05-02T12:02:15Z</time>
      </trkpt>
      <trkpt lat="48.98771" lon="-0.48196">
        <ele>32.4</ele>
        <time>2023-05-02T12:02:16Z</time>
      </trkpt>
      <trkpt lat="48.98766" lon="-0.48198">
        <ele>32.6</ele>
        <time>2023-05-02T12:02:17Z</time>
      </trkpt>
      <trkpt lat="48.9876" lon="-0.48199">
        <ele>33</ele>
        <time>2023-05-02T12:02:18Z</time>
      </trkpt>
      <trkpt lat="48.98755" lon="-0.48202">
        <ele>33</ele>
        <time>2023-05-02T12:02:19Z</time>
      </trkpt>
      <trkpt lat="48.9875" lon="-0.48204">
        <ele>33.2</ele>
        <time>2023-05-02T12:02:20Z</time>
      </trkpt>
      <trkpt lat="48.98744" lon="-0.48206">
        <ele>33</ele>
        <time>2023-05-02T12:02:21Z</time>
      </trkpt>
      <trkpt lat="48.98738" lon="-0.48208">
        <ele>32.8</ele>
        <time>2023-05-02T12:02:22Z</time>
      </trkpt>
      <trkpt lat="48.98732" lon="-0.48211">
        <ele>32.6</ele>
        <time>2023-05-02T12:02:23Z</time>
      </trkpt>
      <trkpt lat="48.98727" lon="-0.48214">
        <ele>32.2</ele>
        <time>2023-05-02T12:02:24Z</time>
      </trkpt>
      <trkpt lat="48.98721" lon="-0.48216">
        <ele>32</ele>
        <time>2023-05-02T12:02:25Z</time>
      </trkpt>
      <trkpt lat="48.98715" lon="-0.48218">
        <ele>31.8</ele>
        <time>2023-05-02T12:02:26Z</time>
      </trkpt>
      <trkpt lat="48.98709" lon="-0.4822">
        <ele>31.6</ele>
        <time>2023-05-02T12:02:27Z</time>
      </trkpt>
      <trkpt lat="48.98703" lon="-0.48222">
        <ele>31.4</ele>
        <time>2023-05-02T12:02:28Z</time>
      </trkpt>
      <trkpt lat="48.98697" lon="-0.48224">
        <ele>31.2</ele>
        <time>2023-05-02T12:02:29Z</time>
      </trkpt>
      <trkpt lat="48.98691" lon="-0.48225">
        <ele>31.2</ele>
        <time>2023-05-02T12:02:30Z</time>
      </trkpt>
      <trkpt lat="48.98685" lon="-0.48227">
        <ele>30.8</ele>
        <time>2023-05-02T12:02:31Z</time>
      </trkpt>
      <trkpt lat="48.98679" lon="-0.48228">
        <ele>30.8</ele>
        <time>2023-05-02T12:02:32Z</time>
      </trkpt>
      <trkpt lat="48.98673" lon="-0.4823">
        <ele>30.6</ele>
        <time>2023-05-02T12:02:33Z</time>
      </trkpt>
      <trkpt lat="48.98667" lon="-0.48231">
        <ele>30.2</ele>
        <time>2023-05-02T12:02:34Z</time>
      </trkpt>
      <trkpt lat="48.98661" lon="-0.48233">
        <ele>30.2</ele>
        <time>2023-05-02T12:02:35Z</time>
      </trkpt>
      <trkpt lat="48.98655" lon="-0.48234">
        <ele>30.2</ele>
        <time>2023-05-02T12:02:36Z</time>
      </trkpt>
      <trkpt lat="48.98649" lon="-0.48235">
        <ele>29.8</ele>
        <time>2023-05-02T12:02:37Z</time>
      </trkpt>
      <trkpt lat="48.98642" lon="-0.48237">
        <ele>29.8</ele>
        <time>2023-05-02T12:02:38Z</time>
      </trkpt>
      <trkpt lat="48.98636" lon="-0.48238">
        <ele>29.6</ele>
        <time>2023-05-02T12:02:39Z</time>
      </trkpt>
      <trkpt lat="48.9863" lon="-0.48239">
        <ele>29.6</ele>
        <time>2023-05-02T12:02:40Z</time>
      </trkpt>
      <trkpt lat="48.98624" lon="-0.4824">
        <ele>29.2</ele>
        <time>2023-05-02T12:02:41Z</time>
      </trkpt>
      <trkpt lat="48.98617" lon="-0.48241">
        <ele>29.2</ele>
        <time>2023-05-02T12:02:42Z</time>
      </trkpt>
      <trkpt lat="48.98611" lon="-0.48242">
        <ele>29</ele>
        <time>2023-05-02T12:02:43Z</time>
      </trkpt>
      <trkpt lat="48.98605" lon="-0.48243">
        <ele>28.8</ele>
        <time>2023-05-02T12:02:44Z</time>
      </trkpt>
      <trkpt lat="48.98598" lon="-0.48244">
        <ele>28.8</ele>
        <time>2023-05-02T12:02:45Z</time>
      </trkpt>
      <trkpt lat="48.98592" lon="-0.48244">
        <ele>28.8</ele>
        <time>2023-05-02T12:02:46Z</time>
      </trkpt>
      <trkpt lat="48.98585" lon="-0.48245">
        <ele>28.6</ele>
        <time>2023-05-02T12:02:47Z</time>
      </trkpt>
      <trkpt lat="48.98579" lon="-0.48245">
        <ele>28.2</ele>
        <time>2023-05-02T12:02:48Z</time>
      </trkpt>
      <trkpt lat="48.98573" lon="-0.48245">
        <ele>28</ele>
        <time>2023-05-02T12:02:49Z</time>
      </trkpt>
      <trkpt lat="48.98566" lon="-0.48246">
        <ele>27.8</ele>
        <time>2023-05-02T12:02:50Z</time>
      </trkpt>
      <trkpt lat="48.9856" lon="-0.48246">
        <ele>27.6</ele>
        <time>2023-05-02T12:02:51Z</time>
      </trkpt>
      <trkpt lat="48.98553" lon="-0.48246">
        <ele>27.2</ele>
        <time>2023-05-02T12:02:52Z</time>
      </trkpt>
      <trkpt lat="48.98547" lon="-0.48246">
        <ele>27</ele>
        <time>2023-05-02T12:02:53Z</time>
      </trkpt>
      <trkpt lat="48.9854" lon="-0.48246">
        <ele>26.8</ele>
        <time>2023-05-02T12:02:54Z</time>
      </trkpt>
      <trkpt lat="48.98534" lon="-0.48246">
        <ele>26.6</ele>
        <time>2023-05-02T12:02:55Z</time>
      </trkpt>
      <trkpt lat="48.98527" lon="-0.48246">
        <ele>26.2</ele>
        <time>2023-05-02T12:02:56Z</time>
      </trkpt>
      <trkpt lat="48.98521" lon="-0.48246">
        <ele>26.2</ele>
        <time>2023-05-02T12:02:57Z</time>
      </trkpt>
      <trkpt lat="48.98514" lon="-0.48246">
        <ele>25.8</ele>
        <time>2023-05-02T12:02:58Z</time>
      </trkpt>
      <trkpt lat="48.98508" lon="-0.48246">
        <ele>25.6</ele>
        <time>2023-05-02T12:02:59Z</time>
      </trkpt>
      <trkpt lat="48.98501" lon="-0.48245">
        <ele>25.4</ele>
        <time>2023-05-02T12:03:00Z</time>
      </trkpt>
      <trkpt lat="48.98495" lon="-0.48245">
        <ele>25.2</ele>
        <time>2023-05-02T12:03:01Z</time>
      </trkpt>
      <trkpt lat="48.98488" lon="-0.48245">
        <ele>25.2</ele>
        <time>2023-05-02T12:03:02Z</time>
      </trkpt>
      <trkpt lat="48.98482" lon="-0.48244">
        <ele>25.2</ele>
        <time>2023-05-02T12:03:03Z</time>
      </trkpt>
      <trkpt lat="48.98475" lon="-0.48244">
        <ele>25.2</ele>
        <time>2023-05-02T12:03:04Z</time>
      </trkpt>
      <trkpt lat="48.98469" lon="-0.48244">
        <ele>25.2</ele>
        <time>2023-05-02T12:03:05Z</time>
      </trkpt>
      <trkpt lat="48.98463" lon="-0.48243">
        <ele>25.2</ele>
        <time>2023-05-02T12:03:06Z</time>
      </trkpt>
      <trkpt lat="48.98456" lon="-0.48242">
        <ele>25.4</ele>
        <time>2023-05-02T12:03:07Z</time>
      </trkpt>
      <trkpt lat="48.9845" lon="-0.48242">
        <ele>25.2</ele>
        <time>2023-05-02T12:03:08Z</time>
      </trkpt>
      <trkpt lat="48.98444" lon="-0.48241">
        <ele>25.4</ele>
        <time>2023-05-02T12:03:09Z</time>
      </trkpt>
      <trkpt lat="48.98438" lon="-0.4824">
        <ele>25.2</ele>
        <time>2023-05-02T12:03:10Z</time>
      </trkpt>
      <trkpt lat="48.98432" lon="-0.4824">
        <ele>25.2</ele>
        <time>2023-05-02T12:03:11Z</time>
      </trkpt>
      <trkpt lat="48.98426" lon="-0.48238">
        <ele>25.2</ele>
        <time>2023-05-02T12:03:12Z</time>
      </trkpt>
      <trkpt lat="48.9842" lon="-0.48238">
        <ele>25.2</ele>
        <time>2023-05-02T12:03:13Z</time>
      </trkpt>
      <trkpt lat="48.98413" lon="-0.48236">
        <ele>25.4</ele>
        <time>2023-05-02T12:03:14Z</time>
      </trkpt>
      <trkpt lat="48.98407" lon="-0.48235">
        <ele>25.4</ele>
        <time>2023-05-02T12:03:15Z</time>
      </trkpt>
      <trkpt lat="48.98401" lon="-0.48234">
        <ele>25.6</ele>
        <time>2023-05-02T12:03:16Z</time>
      </trkpt>
      <trkpt lat="48.98395" lon="-0.48232">
        <ele>25.6</ele>
        <time>2023-05-02T12:03:17Z</time>
      </trkpt>
      <trkpt lat="48.98389" lon="-0.48231">
        <ele>25.8</ele>
        <time>2023-05-02T12:03:18Z</time>
      </trkpt>
      <trkpt lat="48.98382" lon="-0.48229">
        <ele>25.8</ele>
        <time>2023-05-02T12:03:19Z</time>
      </trkpt>
      <trkpt lat="48.98376" lon="-0.48228">
        <ele>25.8</ele>
        <time>2023-05-02T12:03:20Z</time>
      </trkpt>
      <trkpt lat="48.9837" lon="-0.48226">
        <ele>26</ele>
        <time>2023-05-02T12:03:21Z</time>
      </trkpt>
      <trkpt lat="48.98363" lon="-0.48225">
        <ele>26.2</ele>
        <time>2023-05-02T12:03:22Z</time>
      </trkpt>
      <trkpt lat="48.98357" lon="-0.48223">
        <ele>26.2</ele>
        <time>2023-05-02T12:03:23Z</time>
      </trkpt>
      <trkpt lat="48.9835" lon="-0.48222">
        <ele>26.2</ele>
        <time>2023-05-02T12:03:24Z</time>
      </trkpt>
      <trkpt lat="48.98344" lon="-0.4822">
        <ele>26.2</ele>
        <time>2023-05-02T12:03:25Z</time>
      </trkpt>
      <trkpt lat="48.98337" lon="-0.48219">
        <ele>26.2</ele>
        <time>2023-05-02T12:03:26Z</time>
      </trkpt>
      <trkpt lat="48.98331" lon="-0.48217">
        <ele>26.6</ele>
        <time>2023-05-02T12:03:27Z</time>
      </trkpt>
      <trkpt lat="48.98324" lon="-0.48216">
        <ele>26.8</ele>
        <time>2023-05-02T12:03:28Z</time>
      </trkpt>
      <trkpt lat="48.98318" lon="-0.48214">
        <ele>26.8</ele>
        <time>2023-05-02T12:03:29Z</time>
      </trkpt>
      <trkpt lat="48.98311" lon="-0.48213">
        <ele>27.2</ele>
        <time>2023-05-02T12:03:30Z</time>
      </trkpt>
      <trkpt lat="48.98304" lon="-0.48212">
        <ele>27.2</ele>
        <time>2023-05-02T12:03:31Z</time>
      </trkpt>
      <trkpt lat="48.98298" lon="-0.48211">
        <ele>27.6</ele>
        <time>2023-05-02T12:03:32Z</time>
      </trkpt>
      <trkpt lat="48.98291" lon="-0.48209">
        <ele>27.8</ele>
        <time>2023-05-02T12:03:33Z</time>
      </trkpt>
      <trkpt lat="48.98284" lon="-0.48208">
        <ele>28</ele>
        <time>2023-05-02T12:03:34Z</time>
      </trkpt>
      <trkpt lat="48.98278" lon="-0.48207">
        <ele>28.2</ele>
        <time>2023-05-02T12:03:35Z</time>
      </trkpt>
      <trkpt lat="48.98271" lon="-0.48206">
        <ele>28.4</ele>
        <time>2023-05-02T12:03:36Z</time>
      </trkpt>
      <trkpt lat="48.98265" lon="-0.48204">
        <ele>28.6</ele>
        <time>2023-05-02T12:03:37Z</time>
      </trkpt>
      <trkpt lat="48.98259" lon="-0.48202">
        <ele>28.8</ele>
        <time>2023-05-02T12:03:38Z</time>
      </trkpt>
      <trkpt lat="48.98252" lon="-0.48201">
        <ele>28.8</ele>
        <time>2023-05-02T12:03:39Z</time>
      </trkpt>
      <trkpt lat="48.98246" lon="-0.48199">
        <ele>29</ele>
        <time>2023-05-02T12:03:40Z</time>
      </trkpt>
      <trkpt lat="48.98239" lon="-0.48198">
        <ele>29.2</ele>
        <time>2023-05-02T12:03:41Z</time>
      </trkpt>
      <trkpt lat="48.98233" lon="-0.48196">
        <ele>29.2</ele>
        <time>2023-05-02T12:03:42Z</time>
      </trkpt>
      <trkpt lat="48.98226" lon="-0.48195">
        <ele>29.2</ele>
        <time>2023-05-02T12:03:43Z</time>
      </trkpt>
      <trkpt lat="48.9822" lon="-0.48194">
        <ele>29.2</ele>
        <time>2023-05-02T12:03:44Z</time>
      </trkpt>
      <trkpt lat="48.98213" lon="-0.48193">
        <ele>29.2</ele>
        <time>2023-05-02T12:03:45Z</time>
      </trkpt>
      <trkpt lat="48.98206" lon="-0.48192">
        <ele>29.4</ele>
        <time>2023-05-02T12:03:46Z</time>
      </trkpt>
      <trkpt lat="48.98199" lon="-0.48191">
        <ele>29.4</ele>
        <time>2023-05-02T12:03:47Z</time>
      </trkpt>
      <trkpt lat="48.98192" lon="-0.48189">
        <ele>29.6</ele>
        <time>2023-05-02T12:03:48Z</time>
      </trkpt>
      <trkpt lat="48.98186" lon="-0.48188">
        <ele>29.6</ele>
        <time>2023-05-02T12:03:49Z</time>
      </trkpt>
      <trkpt lat="48.98179" lon="-0.48186">
        <ele>29.8</ele>
        <time>2023-05-02T12:03:50Z</time>
      </trkpt>
      <trkpt lat="48.98173" lon="-0.48183">
        <ele>29.8</ele>
        <time>2023-05-02T12:03:51Z</time>
      </trkpt>
      <trkpt lat="48.98166" lon="-0.48181">
        <ele>29.8</ele>
        <time>2023-05-02T12:03:52Z</time>
      </trkpt>
      <trkpt lat="48.9816" lon="-0.48179">
        <ele>29.8</ele>
        <time>2023-05-02T12:03:53Z</time>
      </trkpt>
      <trkpt lat="48.98153" lon="-0.48177">
        <ele>29.6</ele>
        <time>2023-05-02T12:03:54Z</time>
      </trkpt>
      <trkpt lat="48.98146" lon="-0.48176">
        <ele>29.6</ele>
        <time>2023-05-02T12:03:55Z</time>
      </trkpt>
      <trkpt lat="48.9814" lon="-0.48175">
        <ele>29.6</ele>
        <time>2023-05-02T12:03:56Z</time>
      </trkpt>
      <trkpt lat="48.98133" lon="-0.48173">
        <ele>29.4</ele>
        <time>2023-05-02T12:03:57Z</time>
      </trkpt>
      <trkpt lat="48.98126" lon="-0.48172">
        <ele>29.4</ele>
        <time>2023-05-02T12:03:58Z</time>
      </trkpt>
      <trkpt lat="48.98118" lon="-0.4817">
        <ele>29.2</ele>
        <time>2023-05-02T12:03:59Z</time>
      </trkpt>
      <trkpt lat="48.98111" lon="-0.48168">
        <ele>29.2</ele>
        <time>2023-05-02T12:04:00Z</time>
      </trkpt>
      <trkpt lat="48.98104" lon="-0.48166">
        <ele>29.2</ele>
        <time>2023-05-02T12:04:01Z</time>
      </trkpt>
      <trkpt lat="48.98096" lon="-0.48165">
        <ele>29.2</ele>
        <time>2023-05-02T12:04:02Z</time>
      </trkpt>
      <trkpt lat="48.98089" lon="-0.48164">
        <ele>29.2</ele>
        <time>2023-05-02T12:04:03Z</time>
      </trkpt>
      <trkpt lat="48.98083" lon="-0.48163">
        <ele>29.2</ele>
        <time>2023-05-02T12:04:04Z</time>
      </trkpt>
      <trkpt lat="48.98076" lon="-0.48163">
        <ele>29.2</ele>
        <time>2023-05-02T12:04:05Z</time>
      </trkpt>
      <trkpt lat="48.98069" lon="-0.48162">
        <ele>29.2</ele>
        <time>2023-05-02T12:04:06Z</time>
      </trkpt>
      <trkpt lat="48.98063" lon="-0.48161">
        <ele>29.2</ele>
        <time>2023-05-02T12:04:07Z</time>
      </trkpt>
      <trkpt lat="48.98057" lon="-0.4816">
        <ele>29.2</ele>
        <time>2023-05-02T12:04:08Z</time>
      </trkpt>
      <trkpt lat="48.9805" lon="-0.48159">
        <ele>29.2</ele>
        <time>2023-05-02T12:04:09Z</time>
      </trkpt>
      <trkpt lat="48.98044" lon="-0.48158">
        <ele>29.2</ele>
        <time>2023-05-02T12:04:10Z</time>
      </trkpt>
      <trkpt lat="48.98038" lon="-0.48156">
        <ele>29.2</ele>
        <time>2023-05-02T12:04:11Z</time>
      </trkpt>
      <trkpt lat="48.98031" lon="-0.48155">
        <ele>29.2</ele>
        <time>2023-05-02T12:04:12Z</time>
      </trkpt>
      <trkpt lat="48.98025" lon="-0.48153">
        <ele>29.2</ele>
        <time>2023-05-02T12:04:13Z</time>
      </trkpt>
      <trkpt lat="48.98019" lon="-0.48151">
        <ele>29.4</ele>
        <time>2023-05-02T12:04:14Z</time>
      </trkpt>
      <trkpt lat="48.98013" lon="-0.48149">
        <ele>29.4</ele>
        <time>2023-05-02T12:04:15Z</time>
      </trkpt>
      <trkpt lat="48.98006" lon="-0.48148">
        <ele>29.6</ele>
        <time>2023-05-02T12:04:16Z</time>
      </trkpt>
      <trkpt lat="48.98" lon="-0.48146">
        <ele>29.6</ele>
        <time>2023-05-02T12:04:17Z</time>
      </trkpt>
      <trkpt lat="48.97994" lon="-0.48144">
        <ele>29.6</ele>
        <time>2023-05-02T12:04:18Z</time>
      </trkpt>
      <trkpt lat="48.97987" lon="-0.48143">
        <ele>29.6</ele>
        <time>2023-05-02T12:04:19Z</time>
      </trkpt>
      <trkpt lat="48.97981" lon="-0.48141">
        <ele>29.6</ele>
        <time>2023-05-02T12:04:20Z</time>
      </trkpt>
      <trkpt lat="48.97975" lon="-0.4814">
        <ele>29.6</ele>
        <time>2023-05-02T12:04:21Z</time>
      </trkpt>
      <trkpt lat="48.97968" lon="-0.48139">
        <ele>29.8</ele>
        <time>2023-05-02T12:04:22Z</time>
      </trkpt>
      <trkpt lat="48.97962" lon="-0.48137">
        <ele>29.8</ele>
        <time>2023-05-02T12:04:23Z</time>
      </trkpt>
      <trkpt lat="48.97956" lon="-0.48136">
        <ele>29.8</ele>
        <time>2023-05-02T12:04:24Z</time>
      </trkpt>
      <trkpt lat="48.9795" lon="-0.48135">
        <ele>29.8</ele>
        <time>2023-05-02T12:04:25Z</time>
      </trkpt>
      <trkpt lat="48.97944" lon="-0.48134">
        <ele>29.8</ele>
        <time>2023-05-02T12:04:26Z</time>
      </trkpt>
      <trkpt lat="48.97937" lon="-0.48133">
        <ele>29.8</ele>
        <time>2023-05-02T12:04:27Z</time>
      </trkpt>
      <trkpt lat="48.97931" lon="-0.48132">
        <ele>29.8</ele>
        <time>2023-05-02T12:04:28Z</time>
      </trkpt>
      <trkpt lat="48.97925" lon="-0.4813">
        <ele>29.8</ele>
        <time>2023-05-02T12:04:29Z</time>
      </trkpt>
      <trkpt lat="48.97919" lon="-0.48129">
        <ele>29.8</ele>
        <time>2023-05-02T12:04:30Z</time>
      </trkpt>
      <trkpt lat="48.97913" lon="-0.48128">
        <ele>29.8</ele>
        <time>2023-05-02T12:04:31Z</time>
      </trkpt>
      <trkpt lat="48.97907" lon="-0.48126">
        <ele>29.8</ele>
        <time>2023-05-02T12:04:32Z</time>
      </trkpt>
      <trkpt lat="48.979" lon="-0.48125">
        <ele>29.8</ele>
        <time>2023-05-02T12:04:33Z</time>
      </trkpt>
      <trkpt lat="48.97894" lon="-0.48123">
        <ele>29.6</ele>
        <time>2023-05-02T12:04:34Z</time>
      </trkpt>
      <trkpt lat="48.97888" lon="-0.48122">
        <ele>29.6</ele>
        <time>2023-05-02T12:04:35Z</time>
      </trkpt>
      <trkpt lat="48.97882" lon="-0.4812">
        <ele>29.6</ele>
        <time>2023-05-02T12:04:36Z</time>
      </trkpt>
      <trkpt lat="48.97875" lon="-0.48119">
        <ele>29.4</ele>
        <time>2023-05-02T12:04:37Z</time>
      </trkpt>
      <trkpt lat="48.97869" lon="-0.48117">
        <ele>29.4</ele>
        <time>2023-05-02T12:04:38Z</time>
      </trkpt>
      <trkpt lat="48.97863" lon="-0.48116">
        <ele>29.2</ele>
        <time>2023-05-02T12:04:39Z</time>
      </trkpt>
      <trkpt lat="48.97857" lon="-0.48114">
        <ele>29.2</ele>
        <time>2023-05-02T12:04:40Z</time>
      </trkpt>
      <trkpt lat="48.97851" lon="-0.48113">
        <ele>29.2</ele>
        <time>2023-05-02T12:04:41Z</time>
      </trkpt>
      <trkpt lat="48.97845" lon="-0.48112">
        <ele>29.2</ele>
        <time>2023-05-02T12:04:42Z</time>
      </trkpt>
      <trkpt lat="48.97839" lon="-0.4811">
        <ele>29.2</ele>
        <time>2023-05-02T12:04:43Z</time>
      </trkpt>
      <trkpt lat="48.97833" lon="-0.48109">
        <ele>29.2</ele>
        <time>2023-05-02T12:04:44Z</time>
      </trkpt>
      <trkpt lat="48.97827" lon="-0.48107">
        <ele>29.2</ele>
        <time>2023-05-02T12:04:45Z</time>
      </trkpt>
      <trkpt lat="48.97821" lon="-0.48105">
        <ele>29.2</ele>
        <time>2023-05-02T12:04:46Z</time>
      </trkpt>
      <trkpt lat="48.97815" lon="-0.48104">
        <ele>29.2</ele>
        <time>2023-05-02T12:04:47Z</time>
      </trkpt>
      <trkpt lat="48.97809" lon="-0.48102">
        <ele>29.2</ele>
        <time>2023-05-02T12:04:48Z</time>
      </trkpt>
      <trkpt lat="48.97802" lon="-0.48101">
        <ele>29.2</ele>
        <time>2023-05-02T12:04:49Z</time>
      </trkpt>
      <trkpt lat="48.97796" lon="-0.48099">
        <ele>29.2</ele>
        <time>2023-05-02T12:04:50Z</time>
      </trkpt>
      <trkpt lat="48.9779" lon="-0.48098">
        <ele>29.4</ele>
        <time>2023-05-02T12:04:51Z</time>
      </trkpt>
      <trkpt lat="48.97783" lon="-0.48097">
        <ele>29.4</ele>
        <time>2023-05-02T12:04:52Z</time>
      </trkpt>
      <trkpt lat="48.97777" lon="-0.48096">
        <ele>29.4</ele>
        <time>2023-05-02T12:04:53Z</time>
      </trkpt>
      <trkpt lat="48.9777" lon="-0.48095">
        <ele>29.6</ele>
        <time>2023-05-02T12:04:54Z</time>
      </trkpt>
      <trkpt lat="48.97764" lon="-0.48094">
        <ele>29.6</ele>
        <time>2023-05-02T12:04:55Z</time>
      </trkpt>
      <trkpt lat="48.97757" lon="-0.48093">
        <ele>29.6</ele>
        <time>2023-05-02T12:04:56Z</time>
      </trkpt>
      <trkpt lat="48.97751" lon="-0.48092">
        <ele>29.6</ele>
        <time>2023-05-02T12:04:57Z</time>
      </trkpt>
      <trkpt lat="48.97745" lon="-0.48091">
        <ele>29.6</ele>
        <time>2023-05-02T12:04:58Z</time>
      </trkpt>
      <trkpt lat="48.97739" lon="-0.48089">
        <ele>29.2</ele>
        <time>2023-05-02T12:04:59Z</time>
      </trkpt>
      <trkpt lat="48.97733" lon="-0.48088">
        <ele>29.2</ele>
        <time>2023-05-02T12:05:00Z</time>
      </trkpt>
      <trkpt lat="48.97727" lon="-0.48086">
        <ele>29</ele>
        <time>2023-05-02T12:05:01Z</time>
      </trkpt>
      <trkpt lat="48.97721" lon="-0.48084">
        <ele>28.8</ele>
        <time>2023-05-02T12:05:02Z</time>
      </trkpt>
      <trkpt lat="48.97715" lon="-0.48082">
        <ele>28.8</ele>
        <time>2023-05-02T12:05:03Z</time>
      </trkpt>
      <trkpt lat="48.97709" lon="-0.48081">
        <ele>28.6</ele>
        <time>2023-05-02T12:05:04Z</time>
      </trkpt>
      <trkpt lat="48.97703" lon="-0.4808">
        <ele>28.2</ele>
        <time>2023-05-02T12:05:05Z</time>
      </trkpt>
      <trkpt lat="48.97696" lon="-0.48079">
        <ele>28.2</ele>
        <time>2023-05-02T12:05:06Z</time>
      </trkpt>
      <trkpt lat="48.9769" lon="-0.48079">
        <ele>27.8</ele>
        <time>2023-05-02T12:05:07Z</time>
      </trkpt>
      <trkpt lat="48.97684" lon="-0.48079">
        <ele>27.8</ele>
        <time>2023-05-02T12:05:08Z</time>
      </trkpt>
      <trkpt lat="48.97678" lon="-0.48079">
        <ele>27.6</ele>
        <time>2023-05-02T12:05:09Z</time>
      </trkpt>
      <trkpt lat="48.97672" lon="-0.48079">
        <ele>27.2</ele>
        <time>2023-05-02T12:05:10Z</time>
      </trkpt>
      <trkpt lat="48.97666" lon="-0.4808">
        <ele>27</ele>
        <time>2023-05-02T12:05:11Z</time>
      </trkpt>
      <trkpt lat="48.9766" lon="-0.4808">
        <ele>27.2</ele>
        <time>2023-05-02T12:05:12Z</time>
      </trkpt>
      <trkpt lat="48.97654" lon="-0.48081">
        <ele>27.2</ele>
        <time>2023-05-02T12:05:13Z</time>
      </trkpt>
      <trkpt lat="48.97648" lon="-0.48082">
        <ele>27.2</ele>
        <time>2023-05-02T12:05:14Z</time>
      </trkpt>
      <trkpt lat="48.97641" lon="-0.48083">
        <ele>27.2</ele>
        <time>2023-05-02T12:05:15Z</time>
      </trkpt>
      <trkpt lat="48.97635" lon="-0.48084">
        <ele>27.4</ele>
        <time>2023-05-02T12:05:16Z</time>
      </trkpt>
      <trkpt lat="48.97629" lon="-0.48085">
        <ele>27.4</ele>
        <time>2023-05-02T12:05:17Z</time>
      </trkpt>
      <trkpt lat="48.97622" lon="-0.48087">
        <ele>27.4</ele>
        <time>2023-05-02T12:05:18Z</time>
      </trkpt>
      <trkpt lat="48.97616" lon="-0.48089">
        <ele>27.4</ele>
        <time>2023-05-02T12:05:19Z</time>
      </trkpt>
      <trkpt lat="48.9761" lon="-0.4809">
        <ele>27.4</ele>
        <time>2023-05-02T12:05:20Z</time>
      </trkpt>
      <trkpt lat="48.97604" lon="-0.48093">
        <ele>27.4</ele>
        <time>2023-05-02T12:05:21Z</time>
      </trkpt>
      <trkpt lat="48.97598" lon="-0.48095">
        <ele>27.4</ele>
        <time>2023-05-02T12:05:22Z</time>
      </trkpt>
      <trkpt lat="48.97592" lon="-0.48098">
        <ele>27.4</ele>
        <time>2023-05-02T12:05:23Z</time>
      </trkpt>
      <trkpt lat="48.97586" lon="-0.48101">
        <ele>27.4</ele>
        <time>2023-05-02T12:05:24Z</time>
      </trkpt>
      <trkpt lat="48.9758" lon="-0.48103">
        <ele>27.2</ele>
        <time>2023-05-02T12:05:25Z</time>
      </trkpt>
      <trkpt lat="48.97573" lon="-0.48106">
        <ele>27</ele>
        <time>2023-05-02T12:05:26Z</time>
      </trkpt>
      <trkpt lat="48.97567" lon="-0.4811">
        <ele>26.8</ele>
        <time>2023-05-02T12:05:27Z</time>
      </trkpt>
      <trkpt lat="48.97561" lon="-0.48113">
        <ele>26.8</ele>
        <time>2023-05-02T12:05:28Z</time>
      </trkpt>
      <trkpt lat="48.97556" lon="-0.48116">
        <ele>26.6</ele>
        <time>2023-05-02T12:05:29Z</time>
      </trkpt>
      <trkpt lat="48.9755" lon="-0.4812">
        <ele>26.4</ele>
        <time>2023-05-02T12:05:30Z</time>
      </trkpt>
      <trkpt lat="48.97544" lon="-0.48123">
        <ele>26.2</ele>
        <time>2023-05-02T12:05:31Z</time>
      </trkpt>
      <trkpt lat="48.97538" lon="-0.48127">
        <ele>26.2</ele>
        <time>2023-05-02T12:05:32Z</time>
      </trkpt>
      <trkpt lat="48.97532" lon="-0.48131">
        <ele>26.2</ele>
        <time>2023-05-02T12:05:33Z</time>
      </trkpt>
      <trkpt lat="48.97526" lon="-0.48136">
        <ele>26</ele>
        <time>2023-05-02T12:05:34Z</time>
      </trkpt>
      <trkpt lat="48.97521" lon="-0.48142">
        <ele>26</ele>
        <time>2023-05-02T12:05:35Z</time>
      </trkpt>
      <trkpt lat="48.97515" lon="-0.48148">
        <ele>25.8</ele>
        <time>2023-05-02T12:05:36Z</time>
      </trkpt>
      <trkpt lat="48.97508" lon="-0.48153">
        <ele>25.8</ele>
        <time>2023-05-02T12:05:37Z</time>
      </trkpt>
      <trkpt lat="48.97502" lon="-0.48159">
        <ele>26</ele>
        <time>2023-05-02T12:05:38Z</time>
      </trkpt>
      <trkpt lat="48.97496" lon="-0.48163">
        <ele>25.8</ele>
        <time>2023-05-02T12:05:39Z</time>
      </trkpt>
      <trkpt lat="48.97489" lon="-0.48168">
        <ele>25.8</ele>
        <time>2023-05-02T12:05:40Z</time>
      </trkpt>
      <trkpt lat="48.97483" lon="-0.48172">
        <ele>25.8</ele>
        <time>2023-05-02T12:05:41Z</time>
      </trkpt>
      <trkpt lat="48.97477" lon="-0.48177">
        <ele>25.8</ele>
        <time>2023-05-02T12:05:42Z</time>
      </trkpt>
      <trkpt lat="48.9747" lon="-0.48182">
        <ele>25.8</ele>
        <time>2023-05-02T12:05:43Z</time>
      </trkpt>
      <trkpt lat="48.97464" lon="-0.48186">
        <ele>25.8</ele>
        <time>2023-05-02T12:05:44Z</time>
      </trkpt>
      <trkpt lat="48.97458" lon="-0.48191">
        <ele>25.6</ele>
        <time>2023-05-02T12:05:45Z</time>
      </trkpt>
      <trkpt lat="48.97452" lon="-0.48195">
        <ele>25.6</ele>
        <time>2023-05-02T12:05:46Z</time>
      </trkpt>
      <trkpt lat="48.97446" lon="-0.482">
        <ele>25.6</ele>
        <time>2023-05-02T12:05:47Z</time>
      </trkpt>
      <trkpt lat="48.9744" lon="-0.48204">
        <ele>25.6</ele>
        <time>2023-05-02T12:05:48Z</time>
      </trkpt>
      <trkpt lat="48.97433" lon="-0.48209">
        <ele>25.6</ele>
        <time>2023-05-02T12:05:49Z</time>
      </trkpt>
      <trkpt lat="48.97427" lon="-0.48213">
        <ele>25.6</ele>
        <time>2023-05-02T12:05:50Z</time>
      </trkpt>
      <trkpt lat="48.9742" lon="-0.48218">
        <ele>25.6</ele>
        <time>2023-05-02T12:05:51Z</time>
      </trkpt>
      <trkpt lat="48.97414" lon="-0.48222">
        <ele>25.8</ele>
        <time>2023-05-02T12:05:52Z</time>
      </trkpt>
      <trkpt lat="48.97407" lon="-0.48227">
        <ele>25.8</ele>
        <time>2023-05-02T12:05:53Z</time>
      </trkpt>
      <trkpt lat="48.974" lon="-0.48231">
        <ele>26.2</ele>
        <time>2023-05-02T12:05:54Z</time>
      </trkpt>
      <trkpt lat="48.97393" lon="-0.48235">
        <ele>26.2</ele>
        <time>2023-05-02T12:05:55Z</time>
      </trkpt>
      <trkpt lat="48.97387" lon="-0.48239">
        <ele>26.6</ele>
        <time>2023-05-02T12:05:56Z</time>
      </trkpt>
      <trkpt lat="48.9738" lon="-0.48243">
        <ele>26.8</ele>
        <time>2023-05-02T12:05:57Z</time>
      </trkpt>
      <trkpt lat="48.97373" lon="-0.48247">
        <ele>27</ele>
        <time>2023-05-02T12:05:58Z</time>
      </trkpt>
      <trkpt lat="48.97366" lon="-0.48251">
        <ele>27.2</ele>
        <time>2023-05-02T12:05:59Z</time>
      </trkpt>
      <trkpt lat="48.97359" lon="-0.48254">
        <ele>27.4</ele>
        <time>2023-05-02T12:06:00Z</time>
      </trkpt>
      <trkpt lat="48.97352" lon="-0.48257">
        <ele>27.6</ele>
        <time>2023-05-02T12:06:01Z</time>
      </trkpt>
      <trkpt lat="48.97346" lon="-0.48259">
        <ele>27.6</ele>
        <time>2023-05-02T12:06:02Z</time>
      </trkpt>
      <trkpt lat="48.97339" lon="-0.48262">
        <ele>27.8</ele>
        <time>2023-05-02T12:06:03Z</time>
      </trkpt>
      <trkpt lat="48.97332" lon="-0.48264">
        <ele>27.8</ele>
        <time>2023-05-02T12:06:04Z</time>
      </trkpt>
      <trkpt lat="48.97325" lon="-0.48265">
        <ele>27.8</ele>
        <time>2023-05-02T12:06:05Z</time>
      </trkpt>
      <trkpt lat="48.97318" lon="-0.48267">
        <ele>28</ele>
        <time>2023-05-02T12:06:06Z</time>
      </trkpt>
      <trkpt lat="48.97311" lon="-0.48269">
        <ele>28.2</ele>
        <time>2023-05-02T12:06:07Z</time>
      </trkpt>
      <trkpt lat="48.97305" lon="-0.4827">
        <ele>28.2</ele>
        <time>2023-05-02T12:06:08Z</time>
      </trkpt>
      <trkpt lat="48.97298" lon="-0.48271">
        <ele>28.2</ele>
        <time>2023-05-02T12:06:09Z</time>
      </trkpt>
      <trkpt lat="48.97291" lon="-0.48271">
        <ele>28.4</ele>
        <time>2023-05-02T12:06:10Z</time>
      </trkpt>
      <trkpt lat="48.97284" lon="-0.48272">
        <ele>28.6</ele>
        <time>2023-05-02T12:06:11Z</time>
      </trkpt>
      <trkpt lat="48.97277" lon="-0.48273">
        <ele>28.6</ele>
        <time>2023-05-02T12:06:12Z</time>
      </trkpt>
      <trkpt lat="48.97271" lon="-0.48273">
        <ele>28.8</ele>
        <time>2023-05-02T12:06:13Z</time>
      </trkpt>
      <trkpt lat="48.97264" lon="-0.48273">
        <ele>28.8</ele>
        <time>2023-05-02T12:06:14Z</time>
      </trkpt>
      <trkpt lat="48.97257" lon="-0.48273">
        <ele>28.8</ele>
        <time>2023-05-02T12:06:15Z</time>
      </trkpt>
      <trkpt lat="48.97251" lon="-0.48272">
        <ele>29</ele>
        <time>2023-05-02T12:06:16Z</time>
      </trkpt>
      <trkpt lat="48.97244" lon="-0.48272">
        <ele>29</ele>
        <time>2023-05-02T12:06:17Z</time>
      </trkpt>
      <trkpt lat="48.97238" lon="-0.48271">
        <ele>29.2</ele>
        <time>2023-05-02T12:06:18Z</time>
      </trkpt>
      <trkpt lat="48.97231" lon="-0.4827">
        <ele>29.2</ele>
        <time>2023-05-02T12:06:19Z</time>
      </trkpt>
      <trkpt lat="48.97225" lon="-0.48269">
        <ele>29.2</ele>
        <time>2023-05-02T12:06:20Z</time>
      </trkpt>
      <trkpt lat="48.97219" lon="-0.48268">
        <ele>29.2</ele>
        <time>2023-05-02T12:06:21Z</time>
      </trkpt>
      <trkpt lat="48.97212" lon="-0.48267">
        <ele>29.2</ele>
        <time>2023-05-02T12:06:22Z</time>
      </trkpt>
      <trkpt lat="48.97206" lon="-0.48266">
        <ele>29.2</ele>
        <time>2023-05-02T12:06:23Z</time>
      </trkpt>
      <trkpt lat="48.972" lon="-0.48264">
        <ele>29.2</ele>
        <time>2023-05-02T12:06:24Z</time>
      </trkpt>
      <trkpt lat="48.97193" lon="-0.48263">
        <ele>29.2</ele>
        <time>2023-05-02T12:06:25Z</time>
      </trkpt>
      <trkpt lat="48.97187" lon="-0.48261">
        <ele>29.2</ele>
        <time>2023-05-02T12:06:26Z</time>
      </trkpt>
      <trkpt lat="48.9718" lon="-0.4826">
        <ele>29.2</ele>
        <time>2023-05-02T12:06:27Z</time>
      </trkpt>
      <trkpt lat="48.97174" lon="-0.48258">
        <ele>29.2</ele>
        <time>2023-05-02T12:06:28Z</time>
      </trkpt>
      <trkpt lat="48.97167" lon="-0.48257">
        <ele>29.2</ele>
        <time>2023-05-02T12:06:29Z</time>
      </trkpt>
      <trkpt lat="48.97161" lon="-0.48255">
        <ele>29.2</ele>
        <time>2023-05-02T12:06:30Z</time>
      </trkpt>
      <trkpt lat="48.97155" lon="-0.48254">
        <ele>29.6</ele>
        <time>2023-05-02T12:06:31Z</time>
      </trkpt>
      <trkpt lat="48.97148" lon="-0.48252">
        <ele>29.8</ele>
        <time>2023-05-02T12:06:32Z</time>
      </trkpt>
      <trkpt lat="48.97142" lon="-0.4825">
        <ele>29.8</ele>
        <time>2023-05-02T12:06:33Z</time>
      </trkpt>
      <trkpt lat="48.97135" lon="-0.48249">
        <ele>30.2</ele>
        <time>2023-05-02T12:06:34Z</time>
      </trkpt>
      <trkpt lat="48.97129" lon="-0.48247">
        <ele>30.2</ele>
        <time>2023-05-02T12:06:35Z</time>
      </trkpt>
      <trkpt lat="48.97123" lon="-0.48245">
        <ele>30.4</ele>
        <time>2023-05-02T12:06:36Z</time>
      </trkpt>
      <trkpt lat="48.97117" lon="-0.48244">
        <ele>30.6</ele>
        <time>2023-05-02T12:06:37Z</time>
      </trkpt>
      <trkpt lat="48.9711" lon="-0.48242">
        <ele>30.8</ele>
        <time>2023-05-02T12:06:38Z</time>
      </trkpt>
      <trkpt lat="48.97104" lon="-0.4824">
        <ele>30.8</ele>
        <time>2023-05-02T12:06:39Z</time>
      </trkpt>
      <trkpt lat="48.97098" lon="-0.48238">
        <ele>31</ele>
        <time>2023-05-02T12:06:40Z</time>
      </trkpt>
      <trkpt lat="48.97092" lon="-0.48236">
        <ele>31.2</ele>
        <time>2023-05-02T12:06:41Z</time>
      </trkpt>
      <trkpt lat="48.97086" lon="-0.48235">
        <ele>31.2</ele>
        <time>2023-05-02T12:06:42Z</time>
      </trkpt>
      <trkpt lat="48.9708" lon="-0.48233">
        <ele>31.6</ele>
        <time>2023-05-02T12:06:43Z</time>
      </trkpt>
      <trkpt lat="48.97074" lon="-0.48231">
        <ele>31.6</ele>
        <time>2023-05-02T12:06:44Z</time>
      </trkpt>
      <trkpt lat="48.97068" lon="-0.4823">
        <ele>31.6</ele>
        <time>2023-05-02T12:06:45Z</time>
      </trkpt>
      <trkpt lat="48.97062" lon="-0.48228">
        <ele>31.6</ele>
        <time>2023-05-02T12:06:46Z</time>
      </trkpt>
      <trkpt lat="48.97057" lon="-0.48226">
        <ele>31.8</ele>
        <time>2023-05-02T12:06:47Z</time>
      </trkpt>
      <trkpt lat="48.97051" lon="-0.48225">
        <ele>31.8</ele>
        <time>2023-05-02T12:06:48Z</time>
      </trkpt>
      <trkpt lat="48.97045" lon="-0.48224">
        <ele>31.8</ele>
        <time>2023-05-02T12:06:49Z</time>
      </trkpt>
      <trkpt lat="48.97039" lon="-0.48222">
        <ele>31.8</ele>
        <time>2023-05-02T12:06:50Z</time>
      </trkpt>
      <trkpt lat="48.97033" lon="-0.48221">
        <ele>31.8</ele>
        <time>2023-05-02T12:06:51Z</time>
      </trkpt>
      <trkpt lat="48.97028" lon="-0.4822">
        <ele>32</ele>
        <time>2023-05-02T12:06:52Z</time>
      </trkpt>
      <trkpt lat="48.97022" lon="-0.48219">
        <ele>32</ele>
        <time>2023-05-02T12:06:53Z</time>
      </trkpt>
      <trkpt lat="48.97016" lon="-0.48218">
        <ele>32</ele>
        <time>2023-05-02T12:06:54Z</time>
      </trkpt>
      <trkpt lat="48.9701" lon="-0.48217">
        <ele>32.2</ele>
        <time>2023-05-02T12:06:55Z</time>
      </trkpt>
      <trkpt lat="48.97005" lon="-0.48216">
        <ele>32.2</ele>
        <time>2023-05-02T12:06:56Z</time>
      </trkpt>
      <trkpt lat="48.96999" lon="-0.48214">
        <ele>32.2</ele>
        <time>2023-05-02T12:06:57Z</time>
      </trkpt>
      <trkpt lat="48.96993" lon="-0.48213">
        <ele>32.4</ele>
        <time>2023-05-02T12:06:58Z</time>
      </trkpt>
      <trkpt lat="48.96987" lon="-0.48211">
        <ele>32.6</ele>
        <time>2023-05-02T12:06:59Z</time>
      </trkpt>
      <trkpt lat="48.96982" lon="-0.48209">
        <ele>32.6</ele>
        <time>2023-05-02T12:07:00Z</time>
      </trkpt>
      <trkpt lat="48.96976" lon="-0.48205">
        <ele>32.6</ele>
        <time>2023-05-02T12:07:01Z</time>
      </trkpt>
      <trkpt lat="48.96971" lon="-0.48202">
        <ele>32.6</ele>
        <time>2023-05-02T12:07:02Z</time>
      </trkpt>
      <trkpt lat="48.96965" lon="-0.48198">
        <ele>32.6</ele>
        <time>2023-05-02T12:07:03Z</time>
      </trkpt>
      <trkpt lat="48.9696" lon="-0.48196">
        <ele>32.8</ele>
        <time>2023-05-02T12:07:04Z</time>
      </trkpt>
      <trkpt lat="48.96954" lon="-0.48194">
        <ele>32.8</ele>
        <time>2023-05-02T12:07:05Z</time>
      </trkpt>
      <trkpt lat="48.96948" lon="-0.48192">
        <ele>33</ele>
        <time>2023-05-02T12:07:06Z</time>
      </trkpt>
      <trkpt lat="48.96942" lon="-0.48191">
        <ele>33</ele>
        <time>2023-05-02T12:07:07Z</time>
      </trkpt>
      <trkpt lat="48.96936" lon="-0.48189">
        <ele>33.2</ele>
        <time>2023-05-02T12:07:08Z</time>
      </trkpt>
      <trkpt lat="48.9693" lon="-0.48188">
        <ele>33.2</ele>
        <time>2023-05-02T12:07:09Z</time>
      </trkpt>
      <trkpt lat="48.96924" lon="-0.48186">
        <ele>33.6</ele>
        <time>2023-05-02T12:07:10Z</time>
      </trkpt>
      <trkpt lat="48.96918" lon="-0.48185">
        <ele>33.6</ele>
        <time>2023-05-02T12:07:11Z</time>
      </trkpt>
      <trkpt lat="48.96912" lon="-0.48183">
        <ele>33.8</ele>
        <time>2023-05-02T12:07:12Z</time>
      </trkpt>
      <trkpt lat="48.96906" lon="-0.48182">
        <ele>33.8</ele>
        <time>2023-05-02T12:07:13Z</time>
      </trkpt>
      <trkpt lat="48.969" lon="-0.4818">
        <ele>33.8</ele>
        <time>2023-05-02T12:07:14Z</time>
      </trkpt>
      <trkpt lat="48.96894" lon="-0.48179">
        <ele>33.8</ele>
        <time>2023-05-02T12:07:15Z</time>
      </trkpt>
      <trkpt lat="48.96888" lon="-0.48177">
        <ele>33.8</ele>
        <time>2023-05-02T12:07:16Z</time>
      </trkpt>
      <trkpt lat="48.96882" lon="-0.48176">
        <ele>33.8</ele>
        <time>2023-05-02T12:07:17Z</time>
      </trkpt>
      <trkpt lat="48.96877" lon="-0.48174">
        <ele>33.8</ele>
        <time>2023-05-02T12:07:18Z</time>
      </trkpt>
      <trkpt lat="48.96871" lon="-0.48173">
        <ele>33.8</ele>
        <time>2023-05-02T12:07:19Z</time>
      </trkpt>
      <trkpt lat="48.96865" lon="-0.48171">
        <ele>33.8</ele>
        <time>2023-05-02T12:07:20Z</time>
      </trkpt>
      <trkpt lat="48.96859" lon="-0.4817">
        <ele>33.8</ele>
        <time>2023-05-02T12:07:21Z</time>
      </trkpt>
      <trkpt lat="48.96853" lon="-0.48168">
        <ele>33.8</ele>
        <time>2023-05-02T12:07:22Z</time>
      </trkpt>
      <trkpt lat="48.96847" lon="-0.48167">
        <ele>33.8</ele>
        <time>2023-05-02T12:07:23Z</time>
      </trkpt>
      <trkpt lat="48.96841" lon="-0.48165">
        <ele>33.8</ele>
        <time>2023-05-02T12:07:24Z</time>
      </trkpt>
      <trkpt lat="48.96836" lon="-0.48163">
        <ele>33.8</ele>
        <time>2023-05-02T12:07:25Z</time>
      </trkpt>
      <trkpt lat="48.9683" lon="-0.48162">
        <ele>33.8</ele>
        <time>2023-05-02T12:07:26Z</time>
      </trkpt>
      <trkpt lat="48.96824" lon="-0.4816">
        <ele>33.6</ele>
        <time>2023-05-02T12:07:27Z</time>
      </trkpt>
      <trkpt lat="48.96818" lon="-0.48159">
        <ele>33.6</ele>
        <time>2023-05-02T12:07:28Z</time>
      </trkpt>
      <trkpt lat="48.96812" lon="-0.48157">
        <ele>33.2</ele>
        <time>2023-05-02T12:07:29Z</time>
      </trkpt>
      <trkpt lat="48.96806" lon="-0.48156">
        <ele>33.2</ele>
        <time>2023-05-02T12:07:30Z</time>
      </trkpt>
      <trkpt lat="48.96801" lon="-0.48154">
        <ele>33</ele>
        <time>2023-05-02T12:07:31Z</time>
      </trkpt>
      <trkpt lat="48.96795" lon="-0.48152">
        <ele>33</ele>
        <time>2023-05-02T12:07:32Z</time>
      </trkpt>
      <trkpt lat="48.96789" lon="-0.48151">
        <ele>32.8</ele>
        <time>2023-05-02T12:07:33Z</time>
      </trkpt>
      <trkpt lat="48.96783" lon="-0.48149">
        <ele>32.8</ele>
        <time>2023-05-02T12:07:34Z</time>
      </trkpt>
      <trkpt lat="48.96778" lon="-0.48148">
        <ele>32.6</ele>
        <time>2023-05-02T12:07:35Z</time>
      </trkpt>
      <trkpt lat="48.96773" lon="-0.48147">
        <ele>32.6</ele>
        <time>2023-05-02T12:07:36Z</time>
      </trkpt>
      <trkpt lat="48.96768" lon="-0.48145">
        <ele>32.4</ele>
        <time>2023-05-02T12:07:37Z</time>
      </trkpt>
      <trkpt lat="48.96764" lon="-0.48142">
        <ele>32.2</ele>
        <time>2023-05-02T12:07:38Z</time>
      </trkpt>
      <trkpt lat="48.96762" lon="-0.48137">
        <ele>32</ele>
        <time>2023-05-02T12:07:39Z</time>
      </trkpt>
      <trkpt lat="48.9676" lon="-0.48132">
        <ele>31.8</ele>
        <time>2023-05-02T12:07:40Z</time>
      </trkpt>
      <trkpt lat="48.96758" lon="-0.48127">
        <ele>31.6</ele>
        <time>2023-05-02T12:07:41Z</time>
      </trkpt>
      <trkpt lat="48.96754" lon="-0.48124">
        <ele>31.6</ele>
        <time>2023-05-02T12:07:42Z</time>
      </trkpt>
      <trkpt lat="48.9675" lon="-0.48123">
        <ele>31.4</ele>
        <time>2023-05-02T12:07:43Z</time>
      </trkpt>
      <trkpt lat="48.96745" lon="-0.48123">
        <ele>31.6</ele>
        <time>2023-05-02T12:07:44Z</time>
      </trkpt>
      <trkpt lat="48.96741" lon="-0.48124">
        <ele>31.6</ele>
        <time>2023-05-02T12:07:45Z</time>
      </trkpt>
      <trkpt lat="48.96736" lon="-0.48125">
        <ele>31.6</ele>
        <time>2023-05-02T12:07:46Z</time>
      </trkpt>
      <trkpt lat="48.96731" lon="-0.48126">
        <ele>31.8</ele>
        <time>2023-05-02T12:07:47Z</time>
      </trkpt>
      <trkpt lat="48.96725" lon="-0.48126">
        <ele>31.8</ele>
        <time>2023-05-02T12:07:48Z</time>
      </trkpt>
      <trkpt lat="48.9672" lon="-0.48126">
        <ele>31.8</ele>
        <time>2023-05-02T12:07:49Z</time>
      </trkpt>
      <trkpt lat="48.96713" lon="-0.48125">
        <ele>31.8</ele>
        <time>2023-05-02T12:07:50Z</time>
      </trkpt>
      <trkpt lat="48.96707" lon="-0.48124">
        <ele>31.8</ele>
        <time>2023-05-02T12:07:51Z</time>
      </trkpt>
      <trkpt lat="48.96701" lon="-0.48122">
        <ele>31.8</ele>
        <time>2023-05-02T12:07:52Z</time>
      </trkpt>
      <trkpt lat="48.96695" lon="-0.4812">
        <ele>31.6</ele>
        <time>2023-05-02T12:07:53Z</time>
      </trkpt>
      <trkpt lat="48.96689" lon="-0.48119">
        <ele>31.6</ele>
        <time>2023-05-02T12:07:54Z</time>
      </trkpt>
      <trkpt lat="48.96683" lon="-0.48117">
        <ele>31.6</ele>
        <time>2023-05-02T12:07:55Z</time>
      </trkpt>
      <trkpt lat="48.96677" lon="-0.48116">
        <ele>31.6</ele>
        <time>2023-05-02T12:07:56Z</time>
      </trkpt>
      <trkpt lat="48.96671" lon="-0.48114">
        <ele>31.6</ele>
        <time>2023-05-02T12:07:57Z</time>
      </trkpt>
      <trkpt lat="48.96666" lon="-0.48113">
        <ele>31.4</ele>
        <time>2023-05-02T12:07:58Z</time>
      </trkpt>
      <trkpt lat="48.9666" lon="-0.48111">
        <ele>31.4</ele>
        <time>2023-05-02T12:07:59Z</time>
      </trkpt>
      <trkpt lat="48.96654" lon="-0.4811">
        <ele>31.4</ele>
        <time>2023-05-02T12:08:00Z</time>
      </trkpt>
      <trkpt lat="48.96648" lon="-0.48108">
        <ele>31.2</ele>
        <time>2023-05-02T12:08:01Z</time>
      </trkpt>
      <trkpt lat="48.96642" lon="-0.48106">
        <ele>31.2</ele>
        <time>2023-05-02T12:08:02Z</time>
      </trkpt>
      <trkpt lat="48.96636" lon="-0.48105">
        <ele>31.2</ele>
        <time>2023-05-02T12:08:03Z</time>
      </trkpt>
      <trkpt lat="48.96631" lon="-0.48103">
        <ele>31.2</ele>
        <time>2023-05-02T12:08:04Z</time>
      </trkpt>
      <trkpt lat="48.96625" lon="-0.48101">
        <ele>31.2</ele>
        <time>2023-05-02T12:08:05Z</time>
      </trkpt>
      <trkpt lat="48.9662" lon="-0.48099">
        <ele>31.2</ele>
        <time>2023-05-02T12:08:06Z</time>
      </trkpt>
      <trkpt lat="48.96616" lon="-0.48097">
        <ele>31.2</ele>
        <time>2023-05-02T12:08:07Z</time>
      </trkpt>
      <trkpt lat="48.96613" lon="-0.48096">
        <ele>31.2</ele>
        <time>2023-05-02T12:08:08Z</time>
      </trkpt>
      <trkpt lat="48.96611" lon="-0.48095">
        <ele>31.2</ele>
        <time>2023-05-02T12:08:09Z</time>
      </trkpt>
      <trkpt lat="48.96611" lon="-0.48095">
        <ele>31.2</ele>
        <time>2023-05-02T12:08:10Z</time>
      </trkpt>
      <trkpt lat="48.9661" lon="-0.48095">
        <ele>31.2</ele>
        <time>2023-05-02T12:08:11Z</time>
      </trkpt>
      <trkpt lat="48.9661" lon="-0.48095">
        <ele>31.2</ele>
        <time>2023-05-02T12:08:12Z</time>
      </trkpt>
      <trkpt lat="48.9661" lon="-0.48095">
        <ele>31.2</ele>
        <time>2023-05-02T12:08:13Z</time>
      </trkpt>
      <trkpt lat="48.9661" lon="-0.48095">
        <ele>31.2</ele>
        <time>2023-05-02T12:08:14Z</time>
      </trkpt>
      <trkpt lat="48.9661" lon="-0.48095">
        <ele>31.2</ele>
        <time>2023-05-02T12:08:15Z</time>
      </trkpt>
      <trkpt lat="48.9661" lon="-0.48095">
        <ele>31.2</ele>
        <time>2023-05-02T12:08:16Z</time>
      </trkpt>
      <trkpt lat="48.9661" lon="-0.48095">
        <ele>31.2</ele>
        <time>2023-05-02T12:08:17Z</time>
      </trkpt>
      <trkpt lat="48.9661" lon="-0.48095">
        <ele>31.2</ele>
        <time>2023-05-02T12:08:18Z</time>
      </trkpt>
      <trkpt lat="48.9661" lon="-0.48095">
        <ele>31.2</ele>
        <time>2023-05-02T12:08:19Z</time>
      </trkpt>
      <trkpt lat="48.9661" lon="-0.48095">
        <ele>31.2</ele>
        <time>2023-05-02T12:08:20Z</time>
      </trkpt>
      <trkpt lat="48.9661" lon="-0.48095">
        <ele>31.2</ele>
        <time>2023-05-02T12:08:21Z</time>
      </trkpt>
      <trkpt lat="48.9661" lon="-0.48095">
        <ele>31.2</ele>
        <time>2023-05-02T12:08:22Z</time>
      </trkpt>
      <trkpt lat="48.9661" lon="-0.48095">
        <ele>31.2</ele>
        <time>2023-05-02T12:08:23Z</time>
      </trkpt>
      <trkpt lat="48.9661" lon="-0.48095">
        <ele>31.2</ele>
        <time>2023-05-02T12:08:24Z</time>
      </trkpt>
      <trkpt lat="48.9661" lon="-0.48095">
        <ele>31.2</ele>
        <time>2023-05-02T12:08:25Z</time>
      </trkpt>
      <trkpt lat="48.9661" lon="-0.48095">
        <ele>31.2</ele>
        <time>2023-05-02T12:08:26Z</time>
      </trkpt>
      <trkpt lat="48.9661" lon="-0.48095">
        <ele>31.2</ele>
        <time>2023-05-02T12:08:27Z</time>
      </trkpt>
      <trkpt lat="48.9661" lon="-0.48095">
        <ele>31.2</ele>
        <time>2023-05-02T12:08:28Z</time>
      </trkpt>
      <trkpt lat="48.9661" lon="-0.48095">
        <ele>31.2</ele>
        <time>2023-05-02T12:08:29Z</time>
      </trkpt>
      <trkpt lat="48.9661" lon="-0.48095">
        <ele>31.2</ele>
        <time>2023-05-02T12:08:30Z</time>
      </trkpt>
      <trkpt lat="48.9661" lon="-0.48095">
        <ele>31.2</ele>
        <time>2023-05-02T12:08:31Z</time>
      </trkpt>
      <trkpt lat="48.9661" lon="-0.48095">
        <ele>31.2</ele>
        <time>2023-05-02T12:08:32Z</time>
      </trkpt>
      <trkpt lat="48.9661" lon="-0.48095">
        <ele>31.2</ele>
        <time>2023-05-02T12:08:33Z</time>
      </trkpt>
      <trkpt lat="48.9661" lon="-0.48095">
        <ele>31.2</ele>
        <time>2023-05-02T12:08:34Z</time>
      </trkpt>
      <trkpt lat="48.9661" lon="-0.48095">
        <ele>31.2</ele>
        <time>2023-05-02T12:08:35Z</time>
      </trkpt>
      <trkpt lat="48.9661" lon="-0.48095">
        <ele>31.2</ele>
        <time>2023-05-02T12:08:36Z</time>
      </trkpt>
      <trkpt lat="48.9661" lon="-0.48095">
        <ele>31.2</ele>
        <time>2023-05-02T12:08:37Z</time>
      </trkpt>
      <trkpt lat="48.9661" lon="-0.48095">
        <ele>31.2</ele>
        <time>2023-05-02T12:08:38Z</time>
      </trkpt>
      <trkpt lat="48.9661" lon="-0.48095">
        <ele>31.2</ele>
        <time>2023-05-02T12:08:39Z</time>
      </trkpt>
      <trkpt lat="48.9661" lon="-0.48095">
        <ele>31.2</ele>
        <time>2023-05-02T12:08:40Z</time>
      </trkpt>
      <trkpt lat="48.9661" lon="-0.48095">
        <ele>31.2</ele>
        <time>2023-05-02T12:08:41Z</time>
      </trkpt>
      <trkpt lat="48.9661" lon="-0.48095">
        <ele>31.2</ele>
        <time>2023-05-02T12:08:42Z</time>
      </trkpt>
      <trkpt lat="48.9661" lon="-0.48095">
        <ele>31.2</ele>
        <time>2023-05-02T12:08:43Z</time>
      </trkpt>
      <trkpt lat="48.9661" lon="-0.48095">
        <ele>31.2</ele>
        <time>2023-05-02T12:08:44Z</time>
      </trkpt>
      <trkpt lat="48.9661" lon="-0.48095">
        <ele>31.2</ele>
        <time>2023-05-02T12:08:45Z</time>
      </trkpt>
      <trkpt lat="48.9661" lon="-0.48095">
        <ele>31.2</ele>
        <time>2023-05-02T12:08:46Z</time>
      </trkpt>
      <trkpt lat="48.9661" lon="-0.48095">
        <ele>31.2</ele>
        <time>2023-05-02T12:08:47Z</time>
      </trkpt>
      <trkpt lat="48.9661" lon="-0.48095">
        <ele>31.2</ele>
        <time>2023-05-02T12:08:48Z</time>
      </trkpt>
      <trkpt lat="48.9661" lon="-0.48095">
        <ele>31.2</ele>
        <time>2023-05-02T12:08:49Z</time>
      </trkpt>
      <trkpt lat="48.9661" lon="-0.48095">
        <ele>31.2</ele>
        <time>2023-05-02T12:08:50Z</time>
      </trkpt>
      <trkpt lat="48.9661" lon="-0.48095">
        <ele>31.2</ele>
        <time>2023-05-02T12:08:51Z</time>
      </trkpt>
      <trkpt lat="48.9661" lon="-0.48095">
        <ele>31.2</ele>
        <time>2023-05-02T12:08:52Z</time>
      </trkpt>
      <trkpt lat="48.9661" lon="-0.48095">
        <ele>31.2</ele>
        <time>2023-05-02T12:08:53Z</time>
      </trkpt>
      <trkpt lat="48.9661" lon="-0.48095">
        <ele>31.2</ele>
        <time>2023-05-02T12:08:54Z</time>
      </trkpt>
      <trkpt lat="48.9661" lon="-0.48095">
        <ele>31.2</ele>
        <time>2023-05-02T12:08:55Z</time>
      </trkpt>
      <trkpt lat="48.9661" lon="-0.48095">
        <ele>31.2</ele>
        <time>2023-05-02T12:08:56Z</time>
      </trkpt>
      <trkpt lat="48.9661" lon="-0.48095">
        <ele>31.2</ele>
        <time>2023-05-02T12:08:57Z</time>
      </trkpt>
      <trkpt lat="48.9661" lon="-0.48095">
        <ele>31.2</ele>
        <time>2023-05-02T12:08:58Z</time>
      </trkpt>
      <trkpt lat="48.9661" lon="-0.48095">
        <ele>31.2</ele>
        <time>2023-05-02T12:08:59Z</time>
      </trkpt>
      <trkpt lat="48.9661" lon="-0.48095">
        <ele>31.2</ele>
        <time>2023-05-02T12:09:00Z</time>
      </trkpt>
      <trkpt lat="48.9661" lon="-0.48095">
        <ele>31.2</ele>
        <time>2023-05-02T12:09:01Z</time>
      </trkpt>
      <trkpt lat="48.9661" lon="-0.48096">
        <ele>31.2</ele>
        <time>2023-05-02T12:09:02Z</time>
      </trkpt>
      <trkpt lat="48.9661" lon="-0.48096">
        <ele>31.2</ele>
        <time>2023-05-02T12:09:03Z</time>
      </trkpt>
      <trkpt lat="48.96609" lon="-0.48096">
        <ele>31.2</ele>
        <time>2023-05-02T12:09:04Z</time>
      </trkpt>
      <trkpt lat="48.96608" lon="-0.48097">
        <ele>31.2</ele>
        <time>2023-05-02T12:09:05Z</time>
      </trkpt>
      <trkpt lat="48.96607" lon="-0.48097">
        <ele>31.2</ele>
        <time>2023-05-02T12:09:06Z</time>
      </trkpt>
      <trkpt lat="48.96604" lon="-0.48097">
        <ele>31.2</ele>
        <time>2023-05-02T12:09:07Z</time>
      </trkpt>
      <trkpt lat="48.96601" lon="-0.48097">
        <ele>31.2</ele>
        <time>2023-05-02T12:09:08Z</time>
      </trkpt>
      <trkpt lat="48.96598" lon="-0.48097">
        <ele>31.2</ele>
        <time>2023-05-02T12:09:09Z</time>
      </trkpt>
      <trkpt lat="48.96595" lon="-0.48096">
        <ele>31.2</ele>
        <time>2023-05-02T12:09:10Z</time>
      </trkpt>
      <trkpt lat="48.96591" lon="-0.48096">
        <ele>31.4</ele>
        <time>2023-05-02T12:09:11Z</time>
      </trkpt>
      <trkpt lat="48.96586" lon="-0.48095">
        <ele>31.4</ele>
        <time>2023-05-02T12:09:12Z</time>
      </trkpt>
      <trkpt lat="48.96582" lon="-0.48094">
        <ele>31.4</ele>
        <time>2023-05-02T12:09:13Z</time>
      </trkpt>
      <trkpt lat="48.96577" lon="-0.48093">
        <ele>31.4</ele>
        <time>2023-05-02T12:09:14Z</time>
      </trkpt>
      <trkpt lat="48.96572" lon="-0.48091">
        <ele>31.4</ele>
        <time>2023-05-02T12:09:15Z</time>
      </trkpt>
      <trkpt lat="48.96567" lon="-0.48089">
        <ele>31.4</ele>
        <time>2023-05-02T12:09:16Z</time>
      </trkpt>
      <trkpt lat="48.9656" lon="-0.48087">
        <ele>31.4</ele>
        <time>2023-05-02T12:09:17Z</time>
      </trkpt>
      <trkpt lat="48.96554" lon="-0.48085">
        <ele>31.4</ele>
        <time>2023-05-02T12:09:18Z</time>
      </trkpt>
      <trkpt lat="48.96547" lon="-0.48083">
        <ele>31.4</ele>
        <time>2023-05-02T12:09:19Z</time>
      </trkpt>
      <trkpt lat="48.96539" lon="-0.48081">
        <ele>31.6</ele>
        <time>2023-05-02T12:09:20Z</time>
      </trkpt>
      <trkpt lat="48.96532" lon="-0.4808">
        <ele>31.6</ele>
        <time>2023-05-02T12:09:21Z</time>
      </trkpt>
      <trkpt lat="48.96524" lon="-0.48078">
        <ele>31.6</ele>
        <time>2023-05-02T12:09:22Z</time>
      </trkpt>
      <trkpt lat="48.96516" lon="-0.48076">
        <ele>31.6</ele>
        <time>2023-05-02T12:09:23Z</time>
      </trkpt>
      <trkpt lat="48.96509" lon="-0.48074">
        <ele>31.6</ele>
        <time>2023-05-02T12:09:24Z</time>
      </trkpt>
      <trkpt lat="48.96501" lon="-0.48072">
        <ele>31.6</ele>
        <time>2023-05-02T12:09:25Z</time>
      </trkpt>
      <trkpt lat="48.96493" lon="-0.4807">
        <ele>31.6</ele>
        <time>2023-05-02T12:09:26Z</time>
      </trkpt>
      <trkpt lat="48.96486" lon="-0.48068">
        <ele>31.6</ele>
        <time>2023-05-02T12:09:27Z</time>
      </trkpt>
      <trkpt lat="48.96478" lon="-0.48066">
        <ele>31.4</ele>
        <time>2023-05-02T12:09:28Z</time>
      </trkpt>
      <trkpt lat="48.9647" lon="-0.48064">
        <ele>31.4</ele>
        <time>2023-05-02T12:09:29Z</time>
      </trkpt>
      <trkpt lat="48.96463" lon="-0.48063">
        <ele>31.4</ele>
        <time>2023-05-02T12:09:30Z</time>
      </trkpt>
      <trkpt lat="48.96456" lon="-0.48061">
        <ele>31.2</ele>
        <time>2023-05-02T12:09:31Z</time>
      </trkpt>
      <trkpt lat="48.96448" lon="-0.48059">
        <ele>31.2</ele>
        <time>2023-05-02T12:09:32Z</time>
      </trkpt>
      <trkpt lat="48.96441" lon="-0.48057">
        <ele>31.2</ele>
        <time>2023-05-02T12:09:33Z</time>
      </trkpt>
      <trkpt lat="48.96434" lon="-0.48054">
        <ele>31.2</ele>
        <time>2023-05-02T12:09:34Z</time>
      </trkpt>
      <trkpt lat="48.96427" lon="-0.48052">
        <ele>31.2</ele>
        <time>2023-05-02T12:09:35Z</time>
      </trkpt>
      <trkpt lat="48.9642" lon="-0.4805">
        <ele>31.2</ele>
        <time>2023-05-02T12:09:36Z</time>
      </trkpt>
      <trkpt lat="48.96414" lon="-0.48048">
        <ele>31.2</ele>
        <time>2023-05-02T12:09:37Z</time>
      </trkpt>
      <trkpt lat="48.96407" lon="-0.48047">
        <ele>31.2</ele>
        <time>2023-05-02T12:09:38Z</time>
      </trkpt>
      <trkpt lat="48.96401" lon="-0.48047">
        <ele>31.2</ele>
        <time>2023-05-02T12:09:39Z</time>
      </trkpt>
      <trkpt lat="48.96395" lon="-0.48048">
        <ele>31.2</ele>
        <time>2023-05-02T12:09:40Z</time>
      </trkpt>
      <trkpt lat="48.96388" lon="-0.48053">
        <ele>31.2</ele>
        <time>2023-05-02T12:09:41Z</time>
      </trkpt>
      <trkpt lat="48.96382" lon="-0.48057">
        <ele>31.4</ele>
        <time>2023-05-02T12:09:42Z</time>
      </trkpt>
      <trkpt lat="48.96375" lon="-0.48061">
        <ele>31.6</ele>
        <time>2023-05-02T12:09:43Z</time>
      </trkpt>
      <trkpt lat="48.96368" lon="-0.48063">
        <ele>31.8</ele>
        <time>2023-05-02T12:09:44Z</time>
      </trkpt>
      <trkpt lat="48.9636" lon="-0.48063">
        <ele>31.8</ele>
        <time>2023-05-02T12:09:45Z</time>
      </trkpt>
      <trkpt lat="48.96353" lon="-0.48061">
        <ele>31.6</ele>
        <time>2023-05-02T12:09:46Z</time>
      </trkpt>
      <trkpt lat="48.96346" lon="-0.48059">
        <ele>31.6</ele>
        <time>2023-05-02T12:09:47Z</time>
      </trkpt>
      <trkpt lat="48.96339" lon="-0.48058">
        <ele>31.6</ele>
        <time>2023-05-02T12:09:48Z</time>
      </trkpt>
      <trkpt lat="48.96333" lon="-0.48057">
        <ele>31.4</ele>
        <time>2023-05-02T12:09:49Z</time>
      </trkpt>
      <trkpt lat="48.96326" lon="-0.48055">
        <ele>31.2</ele>
        <time>2023-05-02T12:09:50Z</time>
      </trkpt>
      <trkpt lat="48.9632" lon="-0.48055">
        <ele>31.2</ele>
        <time>2023-05-02T12:09:51Z</time>
      </trkpt>
      <trkpt lat="48.96313" lon="-0.48055">
        <ele>31.2</ele>
        <time>2023-05-02T12:09:52Z</time>
      </trkpt>
      <trkpt lat="48.96306" lon="-0.48055">
        <ele>31.2</ele>
        <time>2023-05-02T12:09:53Z</time>
      </trkpt>
      <trkpt lat="48.96298" lon="-0.48056">
        <ele>31.2</ele>
        <time>2023-05-02T12:09:54Z</time>
      </trkpt>
      <trkpt lat="48.96291" lon="-0.48057">
        <ele>31.2</ele>
        <time>2023-05-02T12:09:55Z</time>
      </trkpt>
      <trkpt lat="48.96284" lon="-0.48059">
        <ele>31.2</ele>
        <time>2023-05-02T12:09:56Z</time>
      </trkpt>
      <trkpt lat="48.96276" lon="-0.4806">
        <ele>31.2</ele>
        <time>2023-05-02T12:09:57Z</time>
      </trkpt>
      <trkpt lat="48.96269" lon="-0.48062">
        <ele>31.2</ele>
        <time>2023-05-02T12:09:58Z</time>
      </trkpt>
      <trkpt lat="48.96261" lon="-0.48064">
        <ele>31.2</ele>
        <time>2023-05-02T12:09:59Z</time>
      </trkpt>
      <trkpt lat="48.96254" lon="-0.48066">
        <ele>31.2</ele>
        <time>2023-05-02T12:10:00Z</time>
      </trkpt>
      <trkpt lat="48.96247" lon="-0.48068">
        <ele>31.2</ele>
        <time>2023-05-02T12:10:01Z</time>
      </trkpt>
      <trkpt lat="48.9624" lon="-0.4807">
        <ele>31.2</ele>
        <time>2023-05-02T12:10:02Z</time>
      </trkpt>
      <trkpt lat="48.96233" lon="-0.48073">
        <ele>31.2</ele>
        <time>2023-05-02T12:10:03Z</time>
      </trkpt>
      <trkpt lat="48.96226" lon="-0.48076">
        <ele>31.2</ele>
        <time>2023-05-02T12:10:04Z</time>
      </trkpt>
      <trkpt lat="48.96218" lon="-0.48079">
        <ele>31.4</ele>
        <time>2023-05-02T12:10:05Z</time>
      </trkpt>
      <trkpt lat="48.96211" lon="-0.48082">
        <ele>31.6</ele>
        <time>2023-05-02T12:10:06Z</time>
      </trkpt>
      <trkpt lat="48.96204" lon="-0.48085">
        <ele>31.6</ele>
        <time>2023-05-02T12:10:07Z</time>
      </trkpt>
      <trkpt lat="48.96197" lon="-0.48089">
        <ele>31.6</ele>
        <time>2023-05-02T12:10:08Z</time>
      </trkpt>
      <trkpt lat="48.9619" lon="-0.48092">
        <ele>31.8</ele>
        <time>2023-05-02T12:10:09Z</time>
      </trkpt>
      <trkpt lat="48.96183" lon="-0.48096">
        <ele>31.8</ele>
        <time>2023-05-02T12:10:10Z</time>
      </trkpt>
      <trkpt lat="48.96177" lon="-0.481">
        <ele>31.8</ele>
        <time>2023-05-02T12:10:11Z</time>
      </trkpt>
      <trkpt lat="48.9617" lon="-0.48104">
        <ele>32</ele>
        <time>2023-05-02T12:10:12Z</time>
      </trkpt>
      <trkpt lat="48.96163" lon="-0.48108">
        <ele>32</ele>
        <time>2023-05-02T12:10:13Z</time>
      </trkpt>
      <trkpt lat="48.96156" lon="-0.48112">
        <ele>32</ele>
        <time>2023-05-02T12:10:14Z</time>
      </trkpt>
      <trkpt lat="48.9615" lon="-0.48117">
        <ele>32</ele>
        <time>2023-05-02T12:10:15Z</time>
      </trkpt>
      <trkpt lat="48.96143" lon="-0.48122">
        <ele>32</ele>
        <time>2023-05-02T12:10:16Z</time>
      </trkpt>
      <trkpt lat="48.96137" lon="-0.48126">
        <ele>32.2</ele>
        <time>2023-05-02T12:10:17Z</time>
      </trkpt>
      <trkpt lat="48.9613" lon="-0.48132">
        <ele>32.2</ele>
        <time>2023-05-02T12:10:18Z</time>
      </trkpt>
      <trkpt lat="48.96123" lon="-0.48137">
        <ele>32.2</ele>
        <time>2023-05-02T12:10:19Z</time>
      </trkpt>
      <trkpt lat="48.96117" lon="-0.48142">
        <ele>32.6</ele>
        <time>2023-05-02T12:10:20Z</time>
      </trkpt>
      <trkpt lat="48.96111" lon="-0.48148">
        <ele>32.6</ele>
        <time>2023-05-02T12:10:21Z</time>
      </trkpt>
      <trkpt lat="48.96104" lon="-0.48154">
        <ele>32.8</ele>
        <time>2023-05-02T12:10:22Z</time>
      </trkpt>
      <trkpt lat="48.96098" lon="-0.48159">
        <ele>33</ele>
        <time>2023-05-02T12:10:23Z</time>
      </trkpt>
      <trkpt lat="48.96092" lon="-0.48166">
        <ele>33</ele>
        <time>2023-05-02T12:10:24Z</time>
      </trkpt>
      <trkpt lat="48.96086" lon="-0.48172">
        <ele>33.2</ele>
        <time>2023-05-02T12:10:25Z</time>
      </trkpt>
      <trkpt lat="48.9608" lon="-0.48178">
        <ele>33.2</ele>
        <time>2023-05-02T12:10:26Z</time>
      </trkpt>
      <trkpt lat="48.96074" lon="-0.48185">
        <ele>33</ele>
        <time>2023-05-02T12:10:27Z</time>
      </trkpt>
      <trkpt lat="48.96068" lon="-0.48191">
        <ele>33</ele>
        <time>2023-05-02T12:10:28Z</time>
      </trkpt>
      <trkpt lat="48.96062" lon="-0.48198">
        <ele>32.8</ele>
        <time>2023-05-02T12:10:29Z</time>
      </trkpt>
      <trkpt lat="48.96057" lon="-0.48205">
        <ele>32.8</ele>
        <time>2023-05-02T12:10:30Z</time>
      </trkpt>
      <trkpt lat="48.96051" lon="-0.48211">
        <ele>32.8</ele>
        <time>2023-05-02T12:10:31Z</time>
      </trkpt>
      <trkpt lat="48.96046" lon="-0.48218">
        <ele>32.8</ele>
        <time>2023-05-02T12:10:32Z</time>
      </trkpt>
      <trkpt lat="48.9604" lon="-0.48225">
        <ele>32.8</ele>
        <time>2023-05-02T12:10:33Z</time>
      </trkpt>
      <trkpt lat="48.96035" lon="-0.48232">
        <ele>32.8</ele>
        <time>2023-05-02T12:10:34Z</time>
      </trkpt>
      <trkpt lat="48.9603" lon="-0.48239">
        <ele>33</ele>
        <time>2023-05-02T12:10:35Z</time>
      </trkpt>
      <trkpt lat="48.96024" lon="-0.48247">
        <ele>33</ele>
        <time>2023-05-02T12:10:36Z</time>
      </trkpt>
      <trkpt lat="48.96019" lon="-0.48254">
        <ele>33</ele>
        <time>2023-05-02T12:10:37Z</time>
      </trkpt>
      <trkpt lat="48.96014" lon="-0.48261">
        <ele>33</ele>
        <time>2023-05-02T12:10:38Z</time>
      </trkpt>
      <trkpt lat="48.96009" lon="-0.48269">
        <ele>33</ele>
        <time>2023-05-02T12:10:39Z</time>
      </trkpt>
      <trkpt lat="48.96004" lon="-0.48277">
        <ele>32.8</ele>
        <time>2023-05-02T12:10:40Z</time>
      </trkpt>
      <trkpt lat="48.95999" lon="-0.48285">
        <ele>32.8</ele>
        <time>2023-05-02T12:10:41Z</time>
      </trkpt>
      <trkpt lat="48.95994" lon="-0.48293">
        <ele>32.6</ele>
        <time>2023-05-02T12:10:42Z</time>
      </trkpt>
      <trkpt lat="48.9599" lon="-0.48301">
        <ele>32.6</ele>
        <time>2023-05-02T12:10:43Z</time>
      </trkpt>
      <trkpt lat="48.95985" lon="-0.48309">
        <ele>32.2</ele>
        <time>2023-05-02T12:10:44Z</time>
      </trkpt>
      <trkpt lat="48.9598" lon="-0.48317">
        <ele>32.2</ele>
        <time>2023-05-02T12:10:45Z</time>
      </trkpt>
      <trkpt lat="48.95975" lon="-0.48326">
        <ele>32</ele>
        <time>2023-05-02T12:10:46Z</time>
      </trkpt>
      <trkpt lat="48.95971" lon="-0.48334">
        <ele>31.8</ele>
        <time>2023-05-02T12:10:47Z</time>
      </trkpt>
      <trkpt lat="48.95966" lon="-0.48343">
        <ele>31.8</ele>
        <time>2023-05-02T12:10:48Z</time>
      </trkpt>
      <trkpt lat="48.95961" lon="-0.48351">
        <ele>31.6</ele>
        <time>2023-05-02T12:10:49Z</time>
      </trkpt>
      <trkpt lat="48.95956" lon="-0.48359">
        <ele>31.6</ele>
        <time>2023-05-02T12:10:50Z</time>
      </trkpt>
      <trkpt lat="48.95951" lon="-0.48368">
        <ele>31.4</ele>
        <time>2023-05-02T12:10:51Z</time>
      </trkpt>
      <trkpt lat="48.95946" lon="-0.48376">
        <ele>31.2</ele>
        <time>2023-05-02T12:10:52Z</time>
      </trkpt>
      <trkpt lat="48.95941" lon="-0.48385">
        <ele>31.2</ele>
        <time>2023-05-02T12:10:53Z</time>
      </trkpt>
      <trkpt lat="48.95936" lon="-0.48393">
        <ele>31.2</ele>
        <time>2023-05-02T12:10:54Z</time>
      </trkpt>
      <trkpt lat="48.95931" lon="-0.48402">
        <ele>31.2</ele>
        <time>2023-05-02T12:10:55Z</time>
      </trkpt>
      <trkpt lat="48.95926" lon="-0.4841">
        <ele>31.2</ele>
        <time>2023-05-02T12:10:56Z</time>
      </trkpt>
      <trkpt lat="48.95922" lon="-0.48419">
        <ele>31.2</ele>
        <time>2023-05-02T12:10:57Z</time>
      </trkpt>
      <trkpt lat="48.95917" lon="-0.48427">
        <ele>31.2</ele>
        <time>2023-05-02T12:10:58Z</time>
      </trkpt>
      <trkpt lat="48.95912" lon="-0.48436">
        <ele>31.2</ele>
        <time>2023-05-02T12:10:59Z</time>
      </trkpt>
      <trkpt lat="48.95907" lon="-0.48444">
        <ele>31.2</ele>
        <time>2023-05-02T12:11:00Z</time>
      </trkpt>
      <trkpt lat="48.95902" lon="-0.48452">
        <ele>31</ele>
        <time>2023-05-02T12:11:01Z</time>
      </trkpt>
      <trkpt lat="48.95897" lon="-0.4846">
        <ele>31</ele>
        <time>2023-05-02T12:11:02Z</time>
      </trkpt>
      <trkpt lat="48.95892" lon="-0.48468">
        <ele>30.8</ele>
        <time>2023-05-02T12:11:03Z</time>
      </trkpt>
      <trkpt lat="48.95887" lon="-0.48476">
        <ele>30.8</ele>
        <time>2023-05-02T12:11:04Z</time>
      </trkpt>
      <trkpt lat="48.95882" lon="-0.48484">
        <ele>30.8</ele>
        <time>2023-05-02T12:11:05Z</time>
      </trkpt>
      <trkpt lat="48.95877" lon="-0.48492">
        <ele>30.8</ele>
        <time>2023-05-02T12:11:06Z</time>
      </trkpt>
      <trkpt lat="48.95872" lon="-0.485">
        <ele>30.8</ele>
        <time>2023-05-02T12:11:07Z</time>
      </trkpt>
      <trkpt lat="48.95867" lon="-0.48507">
        <ele>30.8</ele>
        <time>2023-05-02T12:11:08Z</time>
      </trkpt>
      <trkpt lat="48.95863" lon="-0.48515">
        <ele>30.8</ele>
        <time>2023-05-02T12:11:09Z</time>
      </trkpt>
      <trkpt lat="48.95857" lon="-0.48523">
        <ele>30.8</ele>
        <time>2023-05-02T12:11:10Z</time>
      </trkpt>
      <trkpt lat="48.95853" lon="-0.4853">
        <ele>30.8</ele>
        <time>2023-05-02T12:11:11Z</time>
      </trkpt>
      <trkpt lat="48.95848" lon="-0.48538">
        <ele>30.6</ele>
        <time>2023-05-02T12:11:12Z</time>
      </trkpt>
      <trkpt lat="48.95843" lon="-0.48544">
        <ele>30.6</ele>
        <time>2023-05-02T12:11:13Z</time>
      </trkpt>
      <trkpt lat="48.95839" lon="-0.48551">
        <ele>30.6</ele>
        <time>2023-05-02T12:11:14Z</time>
      </trkpt>
      <trkpt lat="48.95835" lon="-0.48559">
        <ele>30.6</ele>
        <time>2023-05-02T12:11:15Z</time>
      </trkpt>
      <trkpt lat="48.9583" lon="-0.48566">
        <ele>30.4</ele>
        <time>2023-05-02T12:11:16Z</time>
      </trkpt>
      <trkpt lat="48.95826" lon="-0.48575">
        <ele>30.4</ele>
        <time>2023-05-02T12:11:17Z</time>
      </trkpt>
      <trkpt lat="48.95821" lon="-0.48583">
        <ele>30.4</ele>
        <time>2023-05-02T12:11:18Z</time>
      </trkpt>
      <trkpt lat="48.95817" lon="-0.48592">
        <ele>30.2</ele>
        <time>2023-05-02T12:11:19Z</time>
      </trkpt>
      <trkpt lat="48.95812" lon="-0.48601">
        <ele>30</ele>
        <time>2023-05-02T12:11:20Z</time>
      </trkpt>
      <trkpt lat="48.95807" lon="-0.4861">
        <ele>29.8</ele>
        <time>2023-05-02T12:11:21Z</time>
      </trkpt>
      <trkpt lat="48.95803" lon="-0.48619">
        <ele>29.8</ele>
        <time>2023-05-02T12:11:22Z</time>
      </trkpt>
      <trkpt lat="48.95798" lon="-0.48628">
        <ele>29.8</ele>
        <time>2023-05-02T12:11:23Z</time>
      </trkpt>
      <trkpt lat="48.95793" lon="-0.48637">
        <ele>29.8</ele>
        <time>2023-05-02T12:11:24Z</time>
      </trkpt>
      <trkpt lat="48.95787" lon="-0.48646">
        <ele>29.8</ele>
        <time>2023-05-02T12:11:25Z</time>
      </trkpt>
      <trkpt lat="48.95782" lon="-0.48655">
        <ele>29.8</ele>
        <time>2023-05-02T12:11:26Z</time>
      </trkpt>
      <trkpt lat="48.95778" lon="-0.48664">
        <ele>29.8</ele>
        <time>2023-05-02T12:11:27Z</time>
      </trkpt>
      <trkpt lat="48.95773" lon="-0.48672">
        <ele>30.2</ele>
        <time>2023-05-02T12:11:28Z</time>
      </trkpt>
      <trkpt lat="48.95768" lon="-0.48681">
        <ele>30.2</ele>
        <time>2023-05-02T12:11:29Z</time>
      </trkpt>
      <trkpt lat="48.95763" lon="-0.48689">
        <ele>30.4</ele>
        <time>2023-05-02T12:11:30Z</time>
      </trkpt>
      <trkpt lat="48.95758" lon="-0.48698">
        <ele>30.4</ele>
        <time>2023-05-02T12:11:31Z</time>
      </trkpt>
      <trkpt lat="48.95753" lon="-0.48706">
        <ele>30.6</ele>
        <time>2023-05-02T12:11:32Z</time>
      </trkpt>
      <trkpt lat="48.95748" lon="-0.48714">
        <ele>30.6</ele>
        <time>2023-05-02T12:11:33Z</time>
      </trkpt>
      <trkpt lat="48.95744" lon="-0.48723">
        <ele>30.4</ele>
        <time>2023-05-02T12:11:34Z</time>
      </trkpt>
      <trkpt lat="48.95739" lon="-0.48731">
        <ele>30.2</ele>
        <time>2023-05-02T12:11:35Z</time>
      </trkpt>
      <trkpt lat="48.95734" lon="-0.48739">
        <ele>30.2</ele>
        <time>2023-05-02T12:11:36Z</time>
      </trkpt>
      <trkpt lat="48.95729" lon="-0.48747">
        <ele>30</ele>
        <time>2023-05-02T12:11:37Z</time>
      </trkpt>
      <trkpt lat="48.95724" lon="-0.48756">
        <ele>29.8</ele>
        <time>2023-05-02T12:11:38Z</time>
      </trkpt>
      <trkpt lat="48.95719" lon="-0.48764">
        <ele>29.8</ele>
        <time>2023-05-02T12:11:39Z</time>
      </trkpt>
      <trkpt lat="48.95715" lon="-0.48772">
        <ele>29.8</ele>
        <time>2023-05-02T12:11:40Z</time>
      </trkpt>
      <trkpt lat="48.9571" lon="-0.4878">
        <ele>29.6</ele>
        <time>2023-05-02T12:11:41Z</time>
      </trkpt>
      <trkpt lat="48.95705" lon="-0.48788">
        <ele>29.6</ele>
        <time>2023-05-02T12:11:42Z</time>
      </trkpt>
      <trkpt lat="48.957" lon="-0.48796">
        <ele>29.6</ele>
        <time>2023-05-02T12:11:43Z</time>
      </trkpt>
      <trkpt lat="48.95696" lon="-0.48805">
        <ele>29.6</ele>
        <time>2023-05-02T12:11:44Z</time>
      </trkpt>
      <trkpt lat="48.95691" lon="-0.48813">
        <ele>29.6</ele>
        <time>2023-05-02T12:11:45Z</time>
      </trkpt>
      <trkpt lat="48.95686" lon="-0.48821">
        <ele>29.4</ele>
        <time>2023-05-02T12:11:46Z</time>
      </trkpt>
      <trkpt lat="48.95682" lon="-0.48829">
        <ele>29.4</ele>
        <time>2023-05-02T12:11:47Z</time>
      </trkpt>
      <trkpt lat="48.95677" lon="-0.48837">
        <ele>29.4</ele>
        <time>2023-05-02T12:11:48Z</time>
      </trkpt>
      <trkpt lat="48.95672" lon="-0.48845">
        <ele>29.2</ele>
        <time>2023-05-02T12:11:49Z</time>
      </trkpt>
      <trkpt lat="48.95667" lon="-0.48854">
        <ele>29.2</ele>
        <time>2023-05-02T12:11:50Z</time>
      </trkpt>
      <trkpt lat="48.95663" lon="-0.48862">
        <ele>29.2</ele>
        <time>2023-05-02T12:11:51Z</time>
      </trkpt>
      <trkpt lat="48.95658" lon="-0.4887">
        <ele>29.2</ele>
        <time>2023-05-02T12:11:52Z</time>
      </trkpt>
      <trkpt lat="48.95653" lon="-0.48878">
        <ele>29.2</ele>
        <time>2023-05-02T12:11:53Z</time>
      </trkpt>
      <trkpt lat="48.95648" lon="-0.48886">
        <ele>29.2</ele>
        <time>2023-05-02T12:11:54Z</time>
      </trkpt>
      <trkpt lat="48.95643" lon="-0.48894">
        <ele>29.4</ele>
        <time>2023-05-02T12:11:55Z</time>
      </trkpt>
      <trkpt lat="48.95639" lon="-0.48903">
        <ele>29.4</ele>
        <time>2023-05-02T12:11:56Z</time>
      </trkpt>
      <trkpt lat="48.95634" lon="-0.48911">
        <ele>29.6</ele>
        <time>2023-05-02T12:11:57Z</time>
      </trkpt>
      <trkpt lat="48.95629" lon="-0.48919">
        <ele>29.6</ele>
        <time>2023-05-02T12:11:58Z</time>
      </trkpt>
      <trkpt lat="48.95624" lon="-0.48927">
        <ele>29.8</ele>
        <time>2023-05-02T12:11:59Z</time>
      </trkpt>
      <trkpt lat="48.9562" lon="-0.48936">
        <ele>29.8</ele>
        <time>2023-05-02T12:12:00Z</time>
      </trkpt>
      <trkpt lat="48.95615" lon="-0.48944">
        <ele>30</ele>
        <time>2023-05-02T12:12:01Z</time>
      </trkpt>
      <trkpt lat="48.9561" lon="-0.48953">
        <ele>30.2</ele>
        <time>2023-05-02T12:12:02Z</time>
      </trkpt>
      <trkpt lat="48.95606" lon="-0.48961">
        <ele>30.2</ele>
        <time>2023-05-02T12:12:03Z</time>
      </trkpt>
      <trkpt lat="48.95601" lon="-0.4897">
        <ele>30.6</ele>
        <time>2023-05-02T12:12:04Z</time>
      </trkpt>
      <trkpt lat="48.95597" lon="-0.48978">
        <ele>30.6</ele>
        <time>2023-05-02T12:12:05Z</time>
      </trkpt>
      <trkpt lat="48.95592" lon="-0.48987">
        <ele>30.8</ele>
        <time>2023-05-02T12:12:06Z</time>
      </trkpt>
      <trkpt lat="48.95588" lon="-0.48995">
        <ele>30.8</ele>
        <time>2023-05-02T12:12:07Z</time>
      </trkpt>
      <trkpt lat="48.95584" lon="-0.49004">
        <ele>31.2</ele>
        <time>2023-05-02T12:12:08Z</time>
      </trkpt>
      <trkpt lat="48.9558" lon="-0.49013">
        <ele>30.8</ele>
        <time>2023-05-02T12:12:09Z</time>
      </trkpt>
      <trkpt lat="48.95575" lon="-0.49022">
        <ele>30.8</ele>
        <time>2023-05-02T12:12:10Z</time>
      </trkpt>
      <trkpt lat="48.95571" lon="-0.4903">
        <ele>30.8</ele>
        <time>2023-05-02T12:12:11Z</time>
      </trkpt>
      <trkpt lat="48.95567" lon="-0.49039">
        <ele>30.6</ele>
        <time>2023-05-02T12:12:12Z</time>
      </trkpt>
      <trkpt lat="48.95564" lon="-0.49048">
        <ele>30.6</ele>
        <time>2023-05-02T12:12:13Z</time>
      </trkpt>
      <trkpt lat="48.9556" lon="-0.49057">
        <ele>30.6</ele>
        <time>2023-05-02T12:12:14Z</time>
      </trkpt>
      <trkpt lat="48.95556" lon="-0.49066">
        <ele>30.4</ele>
        <time>2023-05-02T12:12:15Z</time>
      </trkpt>
      <trkpt lat="48.95552" lon="-0.49076">
        <ele>30.4</ele>
        <time>2023-05-02T12:12:16Z</time>
      </trkpt>
      <trkpt lat="48.95549" lon="-0.49085">
        <ele>30.4</ele>
        <time>2023-05-02T12:12:17Z</time>
      </trkpt>
      <trkpt lat="48.95545" lon="-0.49094">
        <ele>30.2</ele>
        <time>2023-05-02T12:12:18Z</time>
      </trkpt>
      <trkpt lat="48.95542" lon="-0.49104">
        <ele>30.2</ele>
        <time>2023-05-02T12:12:19Z</time>
      </trkpt>
      <trkpt lat="48.95538" lon="-0.49113">
        <ele>30.2</ele>
        <time>2023-05-02T12:12:20Z</time>
      </trkpt>
      <trkpt lat="48.95535" lon="-0.49123">
        <ele>30.2</ele>
        <time>2023-05-02T12:12:21Z</time>
      </trkpt>
      <trkpt lat="48.95532" lon="-0.49133">
        <ele>30.2</ele>
        <time>2023-05-02T12:12:22Z</time>
      </trkpt>
      <trkpt lat="48.95529" lon="-0.49142">
        <ele>30.2</ele>
        <time>2023-05-02T12:12:23Z</time>
      </trkpt>
      <trkpt lat="48.95525" lon="-0.49152">
        <ele>30.2</ele>
        <time>2023-05-02T12:12:24Z</time>
      </trkpt>
      <trkpt lat="48.95522" lon="-0.49162">
        <ele>30</ele>
        <time>2023-05-02T12:12:25Z</time>
      </trkpt>
      <trkpt lat="48.9552" lon="-0.49172">
        <ele>30</ele>
        <time>2023-05-02T12:12:26Z</time>
      </trkpt>
      <trkpt lat="48.95517" lon="-0.49182">
        <ele>30.2</ele>
        <time>2023-05-02T12:12:27Z</time>
      </trkpt>
      <trkpt lat="48.95514" lon="-0.49192">
        <ele>30.2</ele>
        <time>2023-05-02T12:12:28Z</time>
      </trkpt>
      <trkpt lat="48.95511" lon="-0.49202">
        <ele>30.2</ele>
        <time>2023-05-02T12:12:29Z</time>
      </trkpt>
      <trkpt lat="48.95509" lon="-0.49212">
        <ele>30.2</ele>
        <time>2023-05-02T12:12:30Z</time>
      </trkpt>
      <trkpt lat="48.95506" lon="-0.49222">
        <ele>30.2</ele>
        <time>2023-05-02T12:12:31Z</time>
      </trkpt>
      <trkpt lat="48.95504" lon="-0.49232">
        <ele>30</ele>
        <time>2023-05-02T12:12:32Z</time>
      </trkpt>
      <trkpt lat="48.95501" lon="-0.49242">
        <ele>30</ele>
        <time>2023-05-02T12:12:33Z</time>
      </trkpt>
      <trkpt lat="48.95499" lon="-0.49252">
        <ele>30.2</ele>
        <time>2023-05-02T12:12:34Z</time>
      </trkpt>
      <trkpt lat="48.95497" lon="-0.49262">
        <ele>30.4</ele>
        <time>2023-05-02T12:12:35Z</time>
      </trkpt>
      <trkpt lat="48.95495" lon="-0.49273">
        <ele>30.8</ele>
        <time>2023-05-02T12:12:36Z</time>
      </trkpt>
      <trkpt lat="48.95493" lon="-0.49283">
        <ele>31.2</ele>
        <time>2023-05-02T12:12:37Z</time>
      </trkpt>
      <trkpt lat="48.95491" lon="-0.49293">
        <ele>31.4</ele>
        <time>2023-05-02T12:12:38Z</time>
      </trkpt>
      <trkpt lat="48.95489" lon="-0.49303">
        <ele>31.8</ele>
        <time>2023-05-02T12:12:39Z</time>
      </trkpt>
      <trkpt lat="48.95487" lon="-0.49313">
        <ele>32</ele>
        <time>2023-05-02T12:12:40Z</time>
      </trkpt>
      <trkpt lat="48.95486" lon="-0.49323">
        <ele>32.6</ele>
        <time>2023-05-02T12:12:41Z</time>
      </trkpt>
      <trkpt lat="48.95484" lon="-0.49333">
        <ele>32.8</ele>
        <time>2023-05-02T12:12:42Z</time>
      </trkpt>
      <trkpt lat="48.95482" lon="-0.49344">
        <ele>33</ele>
        <time>2023-05-02T12:12:43Z</time>
      </trkpt>
      <trkpt lat="48.95481" lon="-0.49354">
        <ele>33.4</ele>
        <time>2023-05-02T12:12:44Z</time>
      </trkpt>
      <trkpt lat="48.95479" lon="-0.49364">
        <ele>33.6</ele>
        <time>2023-05-02T12:12:45Z</time>
      </trkpt>
      <trkpt lat="48.95478" lon="-0.49375">
        <ele>33.8</ele>
        <time>2023-05-02T12:12:46Z</time>
      </trkpt>
      <trkpt lat="48.95476" lon="-0.49385">
        <ele>34</ele>
        <time>2023-05-02T12:12:47Z</time>
      </trkpt>
      <trkpt lat="48.95475" lon="-0.49396">
        <ele>34.2</ele>
        <time>2023-05-02T12:12:48Z</time>
      </trkpt>
      <trkpt lat="48.95473" lon="-0.49406">
        <ele>34.4</ele>
        <time>2023-05-02T12:12:49Z</time>
      </trkpt>
      <trkpt lat="48.95472" lon="-0.49416">
        <ele>34.6</ele>
        <time>2023-05-02T12:12:50Z</time>
      </trkpt>
      <trkpt lat="48.9547" lon="-0.49427">
        <ele>35</ele>
        <time>2023-05-02T12:12:51Z</time>
      </trkpt>
      <trkpt lat="48.95468" lon="-0.49437">
        <ele>35.6</ele>
        <time>2023-05-02T12:12:52Z</time>
      </trkpt>
      <trkpt lat="48.95467" lon="-0.49448">
        <ele>36</ele>
        <time>2023-05-02T12:12:53Z</time>
      </trkpt>
      <trkpt lat="48.95465" lon="-0.49458">
        <ele>36.4</ele>
        <time>2023-05-02T12:12:54Z</time>
      </trkpt>
      <trkpt lat="48.95463" lon="-0.49469">
        <ele>36.8</ele>
        <time>2023-05-02T12:12:55Z</time>
      </trkpt>
      <trkpt lat="48.95462" lon="-0.49479">
        <ele>37</ele>
        <time>2023-05-02T12:12:56Z</time>
      </trkpt>
      <trkpt lat="48.9546" lon="-0.4949">
        <ele>37.2</ele>
        <time>2023-05-02T12:12:57Z</time>
      </trkpt>
      <trkpt lat="48.95459" lon="-0.495">
        <ele>37.6</ele>
        <time>2023-05-02T12:12:58Z</time>
      </trkpt>
      <trkpt lat="48.95457" lon="-0.49511">
        <ele>38</ele>
        <time>2023-05-02T12:12:59Z</time>
      </trkpt>
      <trkpt lat="48.95455" lon="-0.49521">
        <ele>38</ele>
        <time>2023-05-02T12:13:00Z</time>
      </trkpt>
      <trkpt lat="48.95454" lon="-0.49532">
        <ele>38.4</ele>
        <time>2023-05-02T12:13:01Z</time>
      </trkpt>
      <trkpt lat="48.95452" lon="-0.49542">
        <ele>38.6</ele>
        <time>2023-05-02T12:13:02Z</time>
      </trkpt>
      <trkpt lat="48.9545" lon="-0.49553">
        <ele>38.8</ele>
        <time>2023-05-02T12:13:03Z</time>
      </trkpt>
      <trkpt lat="48.95449" lon="-0.49563">
        <ele>39</ele>
        <time>2023-05-02T12:13:04Z</time>
      </trkpt>
      <trkpt lat="48.95447" lon="-0.49573">
        <ele>39.2</ele>
        <time>2023-05-02T12:13:05Z</time>
      </trkpt>
      <trkpt lat="48.95446" lon="-0.49584">
        <ele>39.2</ele>
        <time>2023-05-02T12:13:06Z</time>
      </trkpt>
      <trkpt lat="48.95444" lon="-0.49594">
        <ele>39.4</ele>
        <time>2023-05-02T12:13:07Z</time>
      </trkpt>
      <trkpt lat="48.95442" lon="-0.49605">
        <ele>39.6</ele>
        <time>2023-05-02T12:13:08Z</time>
      </trkpt>
      <trkpt lat="48.95441" lon="-0.49615">
        <ele>39.6</ele>
        <time>2023-05-02T12:13:09Z</time>
      </trkpt>
      <trkpt lat="48.95439" lon="-0.49626">
        <ele>39.6</ele>
        <time>2023-05-02T12:13:10Z</time>
      </trkpt>
      <trkpt lat="48.95438" lon="-0.49636">
        <ele>39.6</ele>
        <time>2023-05-02T12:13:11Z</time>
      </trkpt>
      <trkpt lat="48.95436" lon="-0.49647">
        <ele>39.6</ele>
        <time>2023-05-02T12:13:12Z</time>
      </trkpt>
      <trkpt lat="48.95435" lon="-0.49657">
        <ele>39.6</ele>
        <time>2023-05-02T12:13:13Z</time>
      </trkpt>
      <trkpt lat="48.95433" lon="-0.49668">
        <ele>39.2</ele>
        <time>2023-05-02T12:13:14Z</time>
      </trkpt>
      <trkpt lat="48.95432" lon="-0.49678">
        <ele>39</ele>
        <time>2023-05-02T12:13:15Z</time>
      </trkpt>
      <trkpt lat="48.9543" lon="-0.49689">
        <ele>38.8</ele>
        <time>2023-05-02T12:13:16Z</time>
      </trkpt>
      <trkpt lat="48.95429" lon="-0.49699">
        <ele>38.6</ele>
        <time>2023-05-02T12:13:17Z</time>
      </trkpt>
      <trkpt lat="48.95427" lon="-0.49709">
        <ele>38.2</ele>
        <time>2023-05-02T12:13:18Z</time>
      </trkpt>
      <trkpt lat="48.95426" lon="-0.49719">
        <ele>37.8</ele>
        <time>2023-05-02T12:13:19Z</time>
      </trkpt>
      <trkpt lat="48.95424" lon="-0.4973">
        <ele>37.4</ele>
        <time>2023-05-02T12:13:20Z</time>
      </trkpt>
      <trkpt lat="48.95422" lon="-0.4974">
        <ele>37</ele>
        <time>2023-05-02T12:13:21Z</time>
      </trkpt>
      <trkpt lat="48.95421" lon="-0.4975">
        <ele>36.6</ele>
        <time>2023-05-02T12:13:22Z</time>
      </trkpt>
      <trkpt lat="48.95419" lon="-0.49761">
        <ele>36</ele>
        <time>2023-05-02T12:13:23Z</time>
      </trkpt>
      <trkpt lat="48.95418" lon="-0.49771">
        <ele>35.2</ele>
        <time>2023-05-02T12:13:24Z</time>
      </trkpt>
      <trkpt lat="48.95416" lon="-0.49781">
        <ele>34.6</ele>
        <time>2023-05-02T12:13:25Z</time>
      </trkpt>
      <trkpt lat="48.95415" lon="-0.49792">
        <ele>34.6</ele>
        <time>2023-05-02T12:13:26Z</time>
      </trkpt>
      <trkpt lat="48.95413" lon="-0.49802">
        <ele>34.6</ele>
        <time>2023-05-02T12:13:27Z</time>
      </trkpt>
      <trkpt lat="48.95411" lon="-0.49813">
        <ele>34.4</ele>
        <time>2023-05-02T12:13:28Z</time>
      </trkpt>
      <trkpt lat="48.9541" lon="-0.49823">
        <ele>34.4</ele>
        <time>2023-05-02T12:13:29Z</time>
      </trkpt>
      <trkpt lat="48.95408" lon="-0.49833">
        <ele>34.4</ele>
        <time>2023-05-02T12:13:30Z</time>
      </trkpt>
      <trkpt lat="48.95406" lon="-0.49843">
        <ele>34.6</ele>
        <time>2023-05-02T12:13:31Z</time>
      </trkpt>
      <trkpt lat="48.95404" lon="-0.49853">
        <ele>34.8</ele>
        <time>2023-05-02T12:13:32Z</time>
      </trkpt>
      <trkpt lat="48.95403" lon="-0.49862">
        <ele>35</ele>
        <time>2023-05-02T12:13:33Z</time>
      </trkpt>
      <trkpt lat="48.95401" lon="-0.49872">
        <ele>35</ele>
        <time>2023-05-02T12:13:34Z</time>
      </trkpt>
      <trkpt lat="48.95399" lon="-0.49882">
        <ele>35.2</ele>
        <time>2023-05-02T12:13:35Z</time>
      </trkpt>
      <trkpt lat="48.95397" lon="-0.49892">
        <ele>35.6</ele>
        <time>2023-05-02T12:13:36Z</time>
      </trkpt>
      <trkpt lat="48.95396" lon="-0.49902">
        <ele>35.6</ele>
        <time>2023-05-02T12:13:37Z</time>
      </trkpt>
      <trkpt lat="48.95394" lon="-0.49912">
        <ele>35.8</ele>
        <time>2023-05-02T12:13:38Z</time>
      </trkpt>
      <trkpt lat="48.95393" lon="-0.49922">
        <ele>36</ele>
        <time>2023-05-02T12:13:39Z</time>
      </trkpt>
      <trkpt lat="48.95392" lon="-0.49932">
        <ele>36</ele>
        <time>2023-05-02T12:13:40Z</time>
      </trkpt>
      <trkpt lat="48.9539" lon="-0.49942">
        <ele>36</ele>
        <time>2023-05-02T12:13:41Z</time>
      </trkpt>
      <trkpt lat="48.95389" lon="-0.49953">
        <ele>36.2</ele>
        <time>2023-05-02T12:13:42Z</time>
      </trkpt>
      <trkpt lat="48.95388" lon="-0.49963">
        <ele>36.4</ele>
        <time>2023-05-02T12:13:43Z</time>
      </trkpt>
      <trkpt lat="48.95387" lon="-0.49974">
        <ele>36.6</ele>
        <time>2023-05-02T12:13:44Z</time>
      </trkpt>
      <trkpt lat="48.95385" lon="-0.49984">
        <ele>36.8</ele>
        <time>2023-05-02T12:13:45Z</time>
      </trkpt>
      <trkpt lat="48.95384" lon="-0.49995">
        <ele>37</ele>
        <time>2023-05-02T12:13:46Z</time>
      </trkpt>
      <trkpt lat="48.95382" lon="-0.50006">
        <ele>37</ele>
        <time>2023-05-02T12:13:47Z</time>
      </trkpt>
      <trkpt lat="48.9538" lon="-0.50017">
        <ele>37</ele>
        <time>2023-05-02T12:13:48Z</time>
      </trkpt>
      <trkpt lat="48.95378" lon="-0.50028">
        <ele>36.8</ele>
        <time>2023-05-02T12:13:49Z</time>
      </trkpt>
      <trkpt lat="48.95377" lon="-0.50038">
        <ele>36.8</ele>
        <time>2023-05-02T12:13:50Z</time>
      </trkpt>
      <trkpt lat="48.95375" lon="-0.50049">
        <ele>36.6</ele>
        <time>2023-05-02T12:13:51Z</time>
      </trkpt>
      <trkpt lat="48.95373" lon="-0.5006">
        <ele>36.6</ele>
        <time>2023-05-02T12:13:52Z</time>
      </trkpt>
      <trkpt lat="48.95371" lon="-0.5007">
        <ele>36.6</ele>
        <time>2023-05-02T12:13:53Z</time>
      </trkpt>
      <trkpt lat="48.95369" lon="-0.5008">
        <ele>36.6</ele>
        <time>2023-05-02T12:13:54Z</time>
      </trkpt>
      <trkpt lat="48.95367" lon="-0.50089">
        <ele>36.6</ele>
        <time>2023-05-02T12:13:55Z</time>
      </trkpt>
      <trkpt lat="48.95364" lon="-0.50099">
        <ele>36.6</ele>
        <time>2023-05-02T12:13:56Z</time>
      </trkpt>
      <trkpt lat="48.95361" lon="-0.50108">
        <ele>36.6</ele>
        <time>2023-05-02T12:13:57Z</time>
      </trkpt>
      <trkpt lat="48.95358" lon="-0.50116">
        <ele>36.6</ele>
        <time>2023-05-02T12:13:58Z</time>
      </trkpt>
      <trkpt lat="48.95355" lon="-0.50125">
        <ele>36.6</ele>
        <time>2023-05-02T12:13:59Z</time>
      </trkpt>
      <trkpt lat="48.95352" lon="-0.50133">
        <ele>36.4</ele>
        <time>2023-05-02T12:14:00Z</time>
      </trkpt>
      <trkpt lat="48.95348" lon="-0.50142">
        <ele>36.2</ele>
        <time>2023-05-02T12:14:01Z</time>
      </trkpt>
      <trkpt lat="48.95345" lon="-0.5015">
        <ele>36.2</ele>
        <time>2023-05-02T12:14:02Z</time>
      </trkpt>
      <trkpt lat="48.95341" lon="-0.50158">
        <ele>36</ele>
        <time>2023-05-02T12:14:03Z</time>
      </trkpt>
      <trkpt lat="48.95338" lon="-0.50166">
        <ele>36</ele>
        <time>2023-05-02T12:14:04Z</time>
      </trkpt>
      <trkpt lat="48.95334" lon="-0.50174">
        <ele>35.8</ele>
        <time>2023-05-02T12:14:05Z</time>
      </trkpt>
      <trkpt lat="48.9533" lon="-0.50182">
        <ele>35.6</ele>
        <time>2023-05-02T12:14:06Z</time>
      </trkpt>
      <trkpt lat="48.95326" lon="-0.5019">
        <ele>35.4</ele>
        <time>2023-05-02T12:14:07Z</time>
      </trkpt>
      <trkpt lat="48.95322" lon="-0.50198">
        <ele>35.2</ele>
        <time>2023-05-02T12:14:08Z</time>
      </trkpt>
      <trkpt lat="48.95318" lon="-0.50205">
        <ele>35.2</ele>
        <time>2023-05-02T12:14:09Z</time>
      </trkpt>
      <trkpt lat="48.95314" lon="-0.50213">
        <ele>35.2</ele>
        <time>2023-05-02T12:14:10Z</time>
      </trkpt>
      <trkpt lat="48.95309" lon="-0.50219">
        <ele>35.2</ele>
        <time>2023-05-02T12:14:11Z</time>
      </trkpt>
      <trkpt lat="48.95305" lon="-0.50226">
        <ele>35</ele>
        <time>2023-05-02T12:14:12Z</time>
      </trkpt>
      <trkpt lat="48.95301" lon="-0.50231">
        <ele>35</ele>
        <time>2023-05-02T12:14:13Z</time>
      </trkpt>
      <trkpt lat="48.95298" lon="-0.50237">
        <ele>35</ele>
        <time>2023-05-02T12:14:14Z</time>
      </trkpt>
      <trkpt lat="48.95294" lon="-0.50241">
        <ele>35</ele>
        <time>2023-05-02T12:14:15Z</time>
      </trkpt>
      <trkpt lat="48.95291" lon="-0.50245">
        <ele>35.2</ele>
        <time>2023-05-02T12:14:16Z</time>
      </trkpt>
      <trkpt lat="48.95289" lon="-0.50249">
        <ele>35.2</ele>
        <time>2023-05-02T12:14:17Z</time>
      </trkpt>
      <trkpt lat="48.95287" lon="-0.50251">
        <ele>35.2</ele>
        <time>2023-05-02T12:14:18Z</time>
      </trkpt>
      <trkpt lat="48.95284" lon="-0.50254">
        <ele>35.2</ele>
        <time>2023-05-02T12:14:19Z</time>
      </trkpt>
      <trkpt lat="48.95282" lon="-0.50257">
        <ele>35.2</ele>
        <time>2023-05-02T12:14:20Z</time>
      </trkpt>
      <trkpt lat="48.95279" lon="-0.50261">
        <ele>35.2</ele>
        <time>2023-05-02T12:14:21Z</time>
      </trkpt>
      <trkpt lat="48.95277" lon="-0.50265">
        <ele>35</ele>
        <time>2023-05-02T12:14:22Z</time>
      </trkpt>
      <trkpt lat="48.95274" lon="-0.50269">
        <ele>35</ele>
        <time>2023-05-02T12:14:23Z</time>
      </trkpt>
      <trkpt lat="48.95271" lon="-0.50273">
        <ele>35</ele>
        <time>2023-05-02T12:14:24Z</time>
      </trkpt>
      <trkpt lat="48.95266" lon="-0.50278">
        <ele>35</ele>
        <time>2023-05-02T12:14:25Z</time>
      </trkpt>
      <trkpt lat="48.95262" lon="-0.50283">
        <ele>35</ele>
        <time>2023-05-02T12:14:26Z</time>
      </trkpt>
      <trkpt lat="48.95257" lon="-0.50287">
        <ele>35</ele>
        <time>2023-05-02T12:14:27Z</time>
      </trkpt>
      <trkpt lat="48.95252" lon="-0.50292">
        <ele>35</ele>
        <time>2023-05-02T12:14:28Z</time>
      </trkpt>
      <trkpt lat="48.95247" lon="-0.50296">
        <ele>34.8</ele>
        <time>2023-05-02T12:14:29Z</time>
      </trkpt>
      <trkpt lat="48.95242" lon="-0.50301">
        <ele>34.8</ele>
        <time>2023-05-02T12:14:30Z</time>
      </trkpt>
      <trkpt lat="48.95237" lon="-0.50305">
        <ele>34.8</ele>
        <time>2023-05-02T12:14:31Z</time>
      </trkpt>
      <trkpt lat="48.95231" lon="-0.5031">
        <ele>34.6</ele>
        <time>2023-05-02T12:14:32Z</time>
      </trkpt>
      <trkpt lat="48.95226" lon="-0.50314">
        <ele>34.6</ele>
        <time>2023-05-02T12:14:33Z</time>
      </trkpt>
      <trkpt lat="48.9522" lon="-0.50318">
        <ele>34.6</ele>
        <time>2023-05-02T12:14:34Z</time>
      </trkpt>
      <trkpt lat="48.95214" lon="-0.50321">
        <ele>34.6</ele>
        <time>2023-05-02T12:14:35Z</time>
      </trkpt>
      <trkpt lat="48.95208" lon="-0.50325">
        <ele>34.6</ele>
        <time>2023-05-02T12:14:36Z</time>
      </trkpt>
      <trkpt lat="48.95202" lon="-0.50328">
        <ele>34.6</ele>
        <time>2023-05-02T12:14:37Z</time>
      </trkpt>
      <trkpt lat="48.95196" lon="-0.5033">
        <ele>34.6</ele>
        <time>2023-05-02T12:14:38Z</time>
      </trkpt>
      <trkpt lat="48.95189" lon="-0.50333">
        <ele>34.6</ele>
        <time>2023-05-02T12:14:39Z</time>
      </trkpt>
      <trkpt lat="48.95183" lon="-0.50335">
        <ele>34.6</ele>
        <time>2023-05-02T12:14:40Z</time>
      </trkpt>
      <trkpt lat="48.95176" lon="-0.50338">
        <ele>34.6</ele>
        <time>2023-05-02T12:14:41Z</time>
      </trkpt>
      <trkpt lat="48.9517" lon="-0.5034">
        <ele>34.8</ele>
        <time>2023-05-02T12:14:42Z</time>
      </trkpt>
      <trkpt lat="48.95163" lon="-0.50343">
        <ele>34.8</ele>
        <time>2023-05-02T12:14:43Z</time>
      </trkpt>
      <trkpt lat="48.95157" lon="-0.50345">
        <ele>34.6</ele>
        <time>2023-05-02T12:14:44Z</time>
      </trkpt>
      <trkpt lat="48.9515" lon="-0.50348">
        <ele>34.4</ele>
        <time>2023-05-02T12:14:45Z</time>
      </trkpt>
      <trkpt lat="48.95142" lon="-0.50352">
        <ele>34.2</ele>
        <time>2023-05-02T12:14:46Z</time>
      </trkpt>
      <trkpt lat="48.95134" lon="-0.50355">
        <ele>34</ele>
        <time>2023-05-02T12:14:47Z</time>
      </trkpt>
      <trkpt lat="48.95127" lon="-0.50358">
        <ele>34</ele>
        <time>2023-05-02T12:14:48Z</time>
      </trkpt>
      <trkpt lat="48.95118" lon="-0.50359">
        <ele>34</ele>
        <time>2023-05-02T12:14:49Z</time>
      </trkpt>
      <trkpt lat="48.9511" lon="-0.5036">
        <ele>33.8</ele>
        <time>2023-05-02T12:14:50Z</time>
      </trkpt>
      <trkpt lat="48.95102" lon="-0.5036">
        <ele>33.8</ele>
        <time>2023-05-02T12:14:51Z</time>
      </trkpt>
      <trkpt lat="48.95093" lon="-0.50359">
        <ele>33.8</ele>
        <time>2023-05-02T12:14:52Z</time>
      </trkpt>
      <trkpt lat="48.95084" lon="-0.50358">
        <ele>33.8</ele>
        <time>2023-05-02T12:14:53Z</time>
      </trkpt>
      <trkpt lat="48.95075" lon="-0.50356">
        <ele>33.8</ele>
        <time>2023-05-02T12:14:54Z</time>
      </trkpt>
      <trkpt lat="48.95065" lon="-0.50355">
        <ele>33.8</ele>
        <time>2023-05-02T12:14:55Z</time>
      </trkpt>
      <trkpt lat="48.95056" lon="-0.50354">
        <ele>33.8</ele>
        <time>2023-05-02T12:14:56Z</time>
      </trkpt>
      <trkpt lat="48.95046" lon="-0.50352">
        <ele>33.8</ele>
        <time>2023-05-02T12:14:57Z</time>
      </trkpt>
      <trkpt lat="48.95036" lon="-0.50349">
        <ele>33.8</ele>
        <time>2023-05-02T12:14:58Z</time>
      </trkpt>
      <trkpt lat="48.95027" lon="-0.50345">
        <ele>34</ele>
        <time>2023-05-02T12:14:59Z</time>
      </trkpt>
      <trkpt lat="48.95017" lon="-0.50341">
        <ele>34</ele>
        <time>2023-05-02T12:15:00Z</time>
      </trkpt>
      <trkpt lat="48.95008" lon="-0.50337">
        <ele>34</ele>
        <time>2023-05-02T12:15:01Z</time>
      </trkpt>
      <trkpt lat="48.94999" lon="-0.50333">
        <ele>34</ele>
        <time>2023-05-02T12:15:02Z</time>
      </trkpt>
      <trkpt lat="48.9499" lon="-0.50329">
        <ele>34.4</ele>
        <time>2023-05-02T12:15:03Z</time>
      </trkpt>
      <trkpt lat="48.94981" lon="-0.50326">
        <ele>34.8</ele>
        <time>2023-05-02T12:15:04Z</time>
      </trkpt>
      <trkpt lat="48.94972" lon="-0.50322">
        <ele>35</ele>
        <time>2023-05-02T12:15:05Z</time>
      </trkpt>
      <trkpt lat="48.94963" lon="-0.50319">
        <ele>35.4</ele>
        <time>2023-05-02T12:15:06Z</time>
      </trkpt>
      <trkpt lat="48.94954" lon="-0.50316">
        <ele>35.6</ele>
        <time>2023-05-02T12:15:07Z</time>
      </trkpt>
      <trkpt lat="48.94946" lon="-0.50313">
        <ele>36</ele>
        <time>2023-05-02T12:15:08Z</time>
      </trkpt>
      <trkpt lat="48.94937" lon="-0.50309">
        <ele>36.2</ele>
        <time>2023-05-02T12:15:09Z</time>
      </trkpt>
      <trkpt lat="48.94929" lon="-0.50306">
        <ele>36.4</ele>
        <time>2023-05-02T12:15:10Z</time>
      </trkpt>
      <trkpt lat="48.9492" lon="-0.50303">
        <ele>36.8</ele>
        <time>2023-05-02T12:15:11Z</time>
      </trkpt>
      <trkpt lat="48.94912" lon="-0.503">
        <ele>37</ele>
        <time>2023-05-02T12:15:12Z</time>
      </trkpt>
      <trkpt lat="48.94904" lon="-0.50297">
        <ele>37</ele>
        <time>2023-05-02T12:15:13Z</time>
      </trkpt>
      <trkpt lat="48.94896" lon="-0.50293">
        <ele>37</ele>
        <time>2023-05-02T12:15:14Z</time>
      </trkpt>
      <trkpt lat="48.94888" lon="-0.5029">
        <ele>37</ele>
        <time>2023-05-02T12:15:15Z</time>
      </trkpt>
      <trkpt lat="48.9488" lon="-0.50288">
        <ele>37</ele>
        <time>2023-05-02T12:15:16Z</time>
      </trkpt>
      <trkpt lat="48.94872" lon="-0.50286">
        <ele>37</ele>
        <time>2023-05-02T12:15:17Z</time>
      </trkpt>
      <trkpt lat="48.94865" lon="-0.50284">
        <ele>37</ele>
        <time>2023-05-02T12:15:18Z</time>
      </trkpt>
      <trkpt lat="48.94857" lon="-0.50283">
        <ele>37</ele>
        <time>2023-05-02T12:15:19Z</time>
      </trkpt>
      <trkpt lat="48.9485" lon="-0.50283">
        <ele>36.6</ele>
        <time>2023-05-02T12:15:20Z</time>
      </trkpt>
      <trkpt lat="48.94842" lon="-0.50283">
        <ele>36.4</ele>
        <time>2023-05-02T12:15:21Z</time>
      </trkpt>
      <trkpt lat="48.94834" lon="-0.50282">
        <ele>36</ele>
        <time>2023-05-02T12:15:22Z</time>
      </trkpt>
      <trkpt lat="48.94826" lon="-0.50282">
        <ele>36.2</ele>
        <time>2023-05-02T12:15:23Z</time>
      </trkpt>
      <trkpt lat="48.94818" lon="-0.50281">
        <ele>36.2</ele>
        <time>2023-05-02T12:15:24Z</time>
      </trkpt>
      <trkpt lat="48.9481" lon="-0.5028">
        <ele>36.4</ele>
        <time>2023-05-02T12:15:25Z</time>
      </trkpt>
      <trkpt lat="48.94802" lon="-0.50278">
        <ele>36.6</ele>
        <time>2023-05-02T12:15:26Z</time>
      </trkpt>
      <trkpt lat="48.94794" lon="-0.50277">
        <ele>36.6</ele>
        <time>2023-05-02T12:15:27Z</time>
      </trkpt>
      <trkpt lat="48.94786" lon="-0.50276">
        <ele>36.8</ele>
        <time>2023-05-02T12:15:28Z</time>
      </trkpt>
      <trkpt lat="48.94779" lon="-0.50275">
        <ele>36.8</ele>
        <time>2023-05-02T12:15:29Z</time>
      </trkpt>
      <trkpt lat="48.94771" lon="-0.50274">
        <ele>36.8</ele>
        <time>2023-05-02T12:15:30Z</time>
      </trkpt>
      <trkpt lat="48.94764" lon="-0.50275">
        <ele>36.8</ele>
        <time>2023-05-02T12:15:31Z</time>
      </trkpt>
      <trkpt lat="48.94757" lon="-0.50276">
        <ele>36.6</ele>
        <time>2023-05-02T12:15:32Z</time>
      </trkpt>
      <trkpt lat="48.94749" lon="-0.50276">
        <ele>36.6</ele>
        <time>2023-05-02T12:15:33Z</time>
      </trkpt>
      <trkpt lat="48.94741" lon="-0.50277">
        <ele>36.6</ele>
        <time>2023-05-02T12:15:34Z</time>
      </trkpt>
      <trkpt lat="48.94734" lon="-0.50277">
        <ele>36.6</ele>
        <time>2023-05-02T12:15:35Z</time>
      </trkpt>
      <trkpt lat="48.94725" lon="-0.50277">
        <ele>36.8</ele>
        <time>2023-05-02T12:15:36Z</time>
      </trkpt>
      <trkpt lat="48.94717" lon="-0.50276">
        <ele>37</ele>
        <time>2023-05-02T12:15:37Z</time>
      </trkpt>
      <trkpt lat="48.94709" lon="-0.50275">
        <ele>37</ele>
        <time>2023-05-02T12:15:38Z</time>
      </trkpt>
      <trkpt lat="48.94701" lon="-0.50274">
        <ele>37.2</ele>
        <time>2023-05-02T12:15:39Z</time>
      </trkpt>
      <trkpt lat="48.94692" lon="-0.50273">
        <ele>37.6</ele>
        <time>2023-05-02T12:15:40Z</time>
      </trkpt>
      <trkpt lat="48.94685" lon="-0.50271">
        <ele>37.8</ele>
        <time>2023-05-02T12:15:41Z</time>
      </trkpt>
      <trkpt lat="48.94677" lon="-0.50269">
        <ele>38</ele>
        <time>2023-05-02T12:15:42Z</time>
      </trkpt>
      <trkpt lat="48.9467" lon="-0.50267">
        <ele>38.4</ele>
        <time>2023-05-02T12:15:43Z</time>
      </trkpt>
      <trkpt lat="48.94664" lon="-0.50264">
        <ele>38.6</ele>
        <time>2023-05-02T12:15:44Z</time>
      </trkpt>
      <trkpt lat="48.94658" lon="-0.50261">
        <ele>38.4</ele>
        <time>2023-05-02T12:15:45Z</time>
      </trkpt>
      <trkpt lat="48.94652" lon="-0.50258">
        <ele>38.2</ele>
        <time>2023-05-02T12:15:46Z</time>
      </trkpt>
      <trkpt lat="48.94646" lon="-0.50255">
        <ele>38</ele>
        <time>2023-05-02T12:15:47Z</time>
      </trkpt>
      <trkpt lat="48.94641" lon="-0.50252">
        <ele>38</ele>
        <time>2023-05-02T12:15:48Z</time>
      </trkpt>
      <trkpt lat="48.94635" lon="-0.50249">
        <ele>38</ele>
        <time>2023-05-02T12:15:49Z</time>
      </trkpt>
      <trkpt lat="48.9463" lon="-0.50246">
        <ele>38</ele>
        <time>2023-05-02T12:15:50Z</time>
      </trkpt>
      <trkpt lat="48.94625" lon="-0.50243">
        <ele>38</ele>
        <time>2023-05-02T12:15:51Z</time>
      </trkpt>
      <trkpt lat="48.9462" lon="-0.50241">
        <ele>38</ele>
        <time>2023-05-02T12:15:52Z</time>
      </trkpt>
      <trkpt lat="48.94615" lon="-0.50238">
        <ele>38.2</ele>
        <time>2023-05-02T12:15:53Z</time>
      </trkpt>
      <trkpt lat="48.9461" lon="-0.50235">
        <ele>38.2</ele>
        <time>2023-05-02T12:15:54Z</time>
      </trkpt>
      <trkpt lat="48.94606" lon="-0.50233">
        <ele>38.2</ele>
        <time>2023-05-02T12:15:55Z</time>
      </trkpt>
      <trkpt lat="48.94602" lon="-0.5023">
        <ele>38.2</ele>
        <time>2023-05-02T12:15:56Z</time>
      </trkpt>
      <trkpt lat="48.94598" lon="-0.50227">
        <ele>38.4</ele>
        <time>2023-05-02T12:15:57Z</time>
      </trkpt>
      <trkpt lat="48.94594" lon="-0.50224">
        <ele>38.4</ele>
        <time>2023-05-02T12:15:58Z</time>
      </trkpt>
      <trkpt lat="48.9459" lon="-0.5022">
        <ele>38.6</ele>
        <time>2023-05-02T12:15:59Z</time>
      </trkpt>
      <trkpt lat="48.94586" lon="-0.50217">
        <ele>38.6</ele>
        <time>2023-05-02T12:16:00Z</time>
      </trkpt>
      <trkpt lat="48.94581" lon="-0.50213">
        <ele>38.8</ele>
        <time>2023-05-02T12:16:01Z</time>
      </trkpt>
      <trkpt lat="48.94577" lon="-0.5021">
        <ele>39</ele>
        <time>2023-05-02T12:16:02Z</time>
      </trkpt>
      <trkpt lat="48.94573" lon="-0.50206">
        <ele>39</ele>
        <time>2023-05-02T12:16:03Z</time>
      </trkpt>
      <trkpt lat="48.94569" lon="-0.50203">
        <ele>39</ele>
        <time>2023-05-02T12:16:04Z</time>
      </trkpt>
      <trkpt lat="48.94564" lon="-0.502">
        <ele>39.2</ele>
        <time>2023-05-02T12:16:05Z</time>
      </trkpt>
      <trkpt lat="48.9456" lon="-0.50197">
        <ele>39.2</ele>
        <time>2023-05-02T12:16:06Z</time>
      </trkpt>
      <trkpt lat="48.94556" lon="-0.50194">
        <ele>39.2</ele>
        <time>2023-05-02T12:16:07Z</time>
      </trkpt>
      <trkpt lat="48.94552" lon="-0.50191">
        <ele>39.2</ele>
        <time>2023-05-02T12:16:08Z</time>
      </trkpt>
      <trkpt lat="48.94548" lon="-0.50188">
        <ele>39.4</ele>
        <time>2023-05-02T12:16:09Z</time>
      </trkpt>
      <trkpt lat="48.94544" lon="-0.50185">
        <ele>39.6</ele>
        <time>2023-05-02T12:16:10Z</time>
      </trkpt>
      <trkpt lat="48.94541" lon="-0.50182">
        <ele>39.6</ele>
        <time>2023-05-02T12:16:11Z</time>
      </trkpt>
      <trkpt lat="48.94537" lon="-0.5018">
        <ele>39.6</ele>
        <time>2023-05-02T12:16:12Z</time>
      </trkpt>
      <trkpt lat="48.94533" lon="-0.50177">
        <ele>39.6</ele>
        <time>2023-05-02T12:16:13Z</time>
      </trkpt>
      <trkpt lat="48.94528" lon="-0.50175">
        <ele>39.4</ele>
        <time>2023-05-02T12:16:14Z</time>
      </trkpt>
      <trkpt lat="48.94524" lon="-0.50173">
        <ele>39.2</ele>
        <time>2023-05-02T12:16:15Z</time>
      </trkpt>
      <trkpt lat="48.9452" lon="-0.50171">
        <ele>39.2</ele>
        <time>2023-05-02T12:16:16Z</time>
      </trkpt>
      <trkpt lat="48.94516" lon="-0.50168">
        <ele>39</ele>
        <time>2023-05-02T12:16:17Z</time>
      </trkpt>
      <trkpt lat="48.94511" lon="-0.50166">
        <ele>39</ele>
        <time>2023-05-02T12:16:18Z</time>
      </trkpt>
      <trkpt lat="48.94507" lon="-0.50163">
        <ele>39</ele>
        <time>2023-05-02T12:16:19Z</time>
      </trkpt>
      <trkpt lat="48.94504" lon="-0.50161">
        <ele>39</ele>
        <time>2023-05-02T12:16:20Z</time>
      </trkpt>
      <trkpt lat="48.945" lon="-0.50158">
        <ele>39</ele>
        <time>2023-05-02T12:16:21Z</time>
      </trkpt>
      <trkpt lat="48.94495" lon="-0.50156">
        <ele>39</ele>
        <time>2023-05-02T12:16:22Z</time>
      </trkpt>
      <trkpt lat="48.94491" lon="-0.50154">
        <ele>39.2</ele>
        <time>2023-05-02T12:16:23Z</time>
      </trkpt>
      <trkpt lat="48.94486" lon="-0.50152">
        <ele>39.2</ele>
        <time>2023-05-02T12:16:24Z</time>
      </trkpt>
      <trkpt lat="48.94481" lon="-0.50151">
        <ele>39.2</ele>
        <time>2023-05-02T12:16:25Z</time>
      </trkpt>
      <trkpt lat="48.94476" lon="-0.5015">
        <ele>39</ele>
        <time>2023-05-02T12:16:26Z</time>
      </trkpt>
      <trkpt lat="48.94471" lon="-0.50149">
        <ele>39</ele>
        <time>2023-05-02T12:16:27Z</time>
      </trkpt>
      <trkpt lat="48.94465" lon="-0.50148">
        <ele>39</ele>
        <time>2023-05-02T12:16:28Z</time>
      </trkpt>
      <trkpt lat="48.9446" lon="-0.50148">
        <ele>38.8</ele>
        <time>2023-05-02T12:16:29Z</time>
      </trkpt>
      <trkpt lat="48.94455" lon="-0.50147">
        <ele>38.8</ele>
        <time>2023-05-02T12:16:30Z</time>
      </trkpt>
      <trkpt lat="48.9445" lon="-0.50146">
        <ele>38.6</ele>
        <time>2023-05-02T12:16:31Z</time>
      </trkpt>
      <trkpt lat="48.94445" lon="-0.50145">
        <ele>38.4</ele>
        <time>2023-05-02T12:16:32Z</time>
      </trkpt>
      <trkpt lat="48.9444" lon="-0.50144">
        <ele>38.2</ele>
        <time>2023-05-02T12:16:33Z</time>
      </trkpt>
      <trkpt lat="48.94435" lon="-0.50144">
        <ele>38</ele>
        <time>2023-05-02T12:16:34Z</time>
      </trkpt>
      <trkpt lat="48.94431" lon="-0.50143">
        <ele>38</ele>
        <time>2023-05-02T12:16:35Z</time>
      </trkpt>
      <trkpt lat="48.94427" lon="-0.50142">
        <ele>38</ele>
        <time>2023-05-02T12:16:36Z</time>
      </trkpt>
      <trkpt lat="48.94423" lon="-0.50142">
        <ele>37.8</ele>
        <time>2023-05-02T12:16:37Z</time>
      </trkpt>
      <trkpt lat="48.94419" lon="-0.50141">
        <ele>37.8</ele>
        <time>2023-05-02T12:16:38Z</time>
      </trkpt>
      <trkpt lat="48.94415" lon="-0.50141">
        <ele>37.6</ele>
        <time>2023-05-02T12:16:39Z</time>
      </trkpt>
      <trkpt lat="48.9441" lon="-0.50141">
        <ele>37.6</ele>
        <time>2023-05-02T12:16:40Z</time>
      </trkpt>
      <trkpt lat="48.94405" lon="-0.50142">
        <ele>37.8</ele>
        <time>2023-05-02T12:16:41Z</time>
      </trkpt>
      <trkpt lat="48.944" lon="-0.50143">
        <ele>37.8</ele>
        <time>2023-05-02T12:16:42Z</time>
      </trkpt>
      <trkpt lat="48.94394" lon="-0.50143">
        <ele>37.8</ele>
        <time>2023-05-02T12:16:43Z</time>
      </trkpt>
      <trkpt lat="48.94389" lon="-0.50143">
        <ele>37.8</ele>
        <time>2023-05-02T12:16:44Z</time>
      </trkpt>
      <trkpt lat="48.94384" lon="-0.50144">
        <ele>37.8</ele>
        <time>2023-05-02T12:16:45Z</time>
      </trkpt>
      <trkpt lat="48.94378" lon="-0.50147">
        <ele>37.8</ele>
        <time>2023-05-02T12:16:46Z</time>
      </trkpt>
      <trkpt lat="48.94372" lon="-0.50149">
        <ele>37.8</ele>
        <time>2023-05-02T12:16:47Z</time>
      </trkpt>
      <trkpt lat="48.94366" lon="-0.50152">
        <ele>37.8</ele>
        <time>2023-05-02T12:16:48Z</time>
      </trkpt>
      <trkpt lat="48.9436" lon="-0.50155">
        <ele>37.8</ele>
        <time>2023-05-02T12:16:49Z</time>
      </trkpt>
      <trkpt lat="48.94354" lon="-0.50158">
        <ele>37.8</ele>
        <time>2023-05-02T12:16:50Z</time>
      </trkpt>
      <trkpt lat="48.94348" lon="-0.50161">
        <ele>37.8</ele>
        <time>2023-05-02T12:16:51Z</time>
      </trkpt>
      <trkpt lat="48.94342" lon="-0.50164">
        <ele>38</ele>
        <time>2023-05-02T12:16:52Z</time>
      </trkpt>
      <trkpt lat="48.94336" lon="-0.50167">
        <ele>38</ele>
        <time>2023-05-02T12:16:53Z</time>
      </trkpt>
      <trkpt lat="48.9433" lon="-0.5017">
        <ele>38</ele>
        <time>2023-05-02T12:16:54Z</time>
      </trkpt>
      <trkpt lat="48.94324" lon="-0.50174">
        <ele>38</ele>
        <time>2023-05-02T12:16:55Z</time>
      </trkpt>
      <trkpt lat="48.94319" lon="-0.50177">
        <ele>37.8</ele>
        <time>2023-05-02T12:16:56Z</time>
      </trkpt>
      <trkpt lat="48.94314" lon="-0.50181">
        <ele>37.8</ele>
        <time>2023-05-02T12:16:57Z</time>
      </trkpt>
      <trkpt lat="48.94308" lon="-0.50184">
        <ele>37.8</ele>
        <time>2023-05-02T12:16:58Z</time>
      </trkpt>
      <trkpt lat="48.94303" lon="-0.50187">
        <ele>37.8</ele>
        <time>2023-05-02T12:16:59Z</time>
      </trkpt>
      <trkpt lat="48.94298" lon="-0.50189">
        <ele>37.8</ele>
        <time>2023-05-02T12:17:00Z</time>
      </trkpt>
      <trkpt lat="48.94294" lon="-0.50192">
        <ele>37.8</ele>
        <time>2023-05-02T12:17:01Z</time>
      </trkpt>
      <trkpt lat="48.9429" lon="-0.50195">
        <ele>37.8</ele>
        <time>2023-05-02T12:17:02Z</time>
      </trkpt>
      <trkpt lat="48.94286" lon="-0.50198">
        <ele>37.6</ele>
        <time>2023-05-02T12:17:03Z</time>
      </trkpt>
      <trkpt lat="48.94282" lon="-0.50203">
        <ele>37.6</ele>
        <time>2023-05-02T12:17:04Z</time>
      </trkpt>
      <trkpt lat="48.94279" lon="-0.50207">
        <ele>37.6</ele>
        <time>2023-05-02T12:17:05Z</time>
      </trkpt>
      <trkpt lat="48.94275" lon="-0.50211">
        <ele>37.6</ele>
        <time>2023-05-02T12:17:06Z</time>
      </trkpt>
      <trkpt lat="48.94271" lon="-0.50215">
        <ele>37.4</ele>
        <time>2023-05-02T12:17:07Z</time>
      </trkpt>
      <trkpt lat="48.94267" lon="-0.50219">
        <ele>37.4</ele>
        <time>2023-05-02T12:17:08Z</time>
      </trkpt>
      <trkpt lat="48.94263" lon="-0.50224">
        <ele>37.4</ele>
        <time>2023-05-02T12:17:09Z</time>
      </trkpt>
      <trkpt lat="48.94258" lon="-0.50228">
        <ele>37.4</ele>
        <time>2023-05-02T12:17:10Z</time>
      </trkpt>
      <trkpt lat="48.94254" lon="-0.50233">
        <ele>37.2</ele>
        <time>2023-05-02T12:17:11Z</time>
      </trkpt>
      <trkpt lat="48.94249" lon="-0.50237">
        <ele>37.2</ele>
        <time>2023-05-02T12:17:12Z</time>
      </trkpt>
      <trkpt lat="48.94244" lon="-0.50242">
        <ele>37.2</ele>
        <time>2023-05-02T12:17:13Z</time>
      </trkpt>
      <trkpt lat="48.94239" lon="-0.50247">
        <ele>37</ele>
        <time>2023-05-02T12:17:14Z</time>
      </trkpt>
      <trkpt lat="48.94235" lon="-0.50252">
        <ele>37</ele>
        <time>2023-05-02T12:17:15Z</time>
      </trkpt>
      <trkpt lat="48.9423" lon="-0.50257">
        <ele>36.8</ele>
        <time>2023-05-02T12:17:16Z</time>
      </trkpt>
      <trkpt lat="48.94225" lon="-0.50263">
        <ele>36.6</ele>
        <time>2023-05-02T12:17:17Z</time>
      </trkpt>
      <trkpt lat="48.94219" lon="-0.50268">
        <ele>36.4</ele>
        <time>2023-05-02T12:17:18Z</time>
      </trkpt>
      <trkpt lat="48.94214" lon="-0.50272">
        <ele>36.2</ele>
        <time>2023-05-02T12:17:19Z</time>
      </trkpt>
      <trkpt lat="48.94208" lon="-0.50275">
        <ele>36.2</ele>
        <time>2023-05-02T12:17:20Z</time>
      </trkpt>
      <trkpt lat="48.94202" lon="-0.50278">
        <ele>36.2</ele>
        <time>2023-05-02T12:17:21Z</time>
      </trkpt>
      <trkpt lat="48.94196" lon="-0.50283">
        <ele>36.2</ele>
        <time>2023-05-02T12:17:22Z</time>
      </trkpt>
      <trkpt lat="48.9419" lon="-0.50288">
        <ele>36.2</ele>
        <time>2023-05-02T12:17:23Z</time>
      </trkpt>
      <trkpt lat="48.94185" lon="-0.50293">
        <ele>36.2</ele>
        <time>2023-05-02T12:17:24Z</time>
      </trkpt>
      <trkpt lat="48.94179" lon="-0.50298">
        <ele>36.2</ele>
        <time>2023-05-02T12:17:25Z</time>
      </trkpt>
      <trkpt lat="48.94173" lon="-0.50304">
        <ele>36.2</ele>
        <time>2023-05-02T12:17:26Z</time>
      </trkpt>
      <trkpt lat="48.94168" lon="-0.5031">
        <ele>36.2</ele>
        <time>2023-05-02T12:17:27Z</time>
      </trkpt>
      <trkpt lat="48.94162" lon="-0.50315">
        <ele>36.4</ele>
        <time>2023-05-02T12:17:28Z</time>
      </trkpt>
      <trkpt lat="48.94157" lon="-0.50321">
        <ele>36.6</ele>
        <time>2023-05-02T12:17:29Z</time>
      </trkpt>
      <trkpt lat="48.94151" lon="-0.50326">
        <ele>36.6</ele>
        <time>2023-05-02T12:17:30Z</time>
      </trkpt>
      <trkpt lat="48.94146" lon="-0.50332">
        <ele>36.8</ele>
        <time>2023-05-02T12:17:31Z</time>
      </trkpt>
      <trkpt lat="48.94141" lon="-0.50337">
        <ele>37</ele>
        <time>2023-05-02T12:17:32Z</time>
      </trkpt>
      <trkpt lat="48.94135" lon="-0.50343">
        <ele>37</ele>
        <time>2023-05-02T12:17:33Z</time>
      </trkpt>
      <trkpt lat="48.9413" lon="-0.50348">
        <ele>37</ele>
        <time>2023-05-02T12:17:34Z</time>
      </trkpt>
      <trkpt lat="48.94124" lon="-0.50354">
        <ele>37</ele>
        <time>2023-05-02T12:17:35Z</time>
      </trkpt>
      <trkpt lat="48.94119" lon="-0.5036">
        <ele>37.2</ele>
        <time>2023-05-02T12:17:36Z</time>
      </trkpt>
      <trkpt lat="48.94114" lon="-0.50365">
        <ele>37.2</ele>
        <time>2023-05-02T12:17:37Z</time>
      </trkpt>
      <trkpt lat="48.94108" lon="-0.50371">
        <ele>37.2</ele>
        <time>2023-05-02T12:17:38Z</time>
      </trkpt>
      <trkpt lat="48.94103" lon="-0.50377">
        <ele>37.4</ele>
        <time>2023-05-02T12:17:39Z</time>
      </trkpt>
      <trkpt lat="48.94097" lon="-0.50383">
        <ele>37.4</ele>
        <time>2023-05-02T12:17:40Z</time>
      </trkpt>
      <trkpt lat="48.94091" lon="-0.50389">
        <ele>37.4</ele>
        <time>2023-05-02T12:17:41Z</time>
      </trkpt>
      <trkpt lat="48.94086" lon="-0.50394">
        <ele>37.6</ele>
        <time>2023-05-02T12:17:42Z</time>
      </trkpt>
      <trkpt lat="48.9408" lon="-0.50401">
        <ele>37.4</ele>
        <time>2023-05-02T12:17:43Z</time>
      </trkpt>
      <trkpt lat="48.94074" lon="-0.50407">
        <ele>37.2</ele>
        <time>2023-05-02T12:17:44Z</time>
      </trkpt>
      <trkpt lat="48.94068" lon="-0.50413">
        <ele>37.2</ele>
        <time>2023-05-02T12:17:45Z</time>
      </trkpt>
      <trkpt lat="48.94063" lon="-0.50419">
        <ele>37.2</ele>
        <time>2023-05-02T12:17:46Z</time>
      </trkpt>
      <trkpt lat="48.94057" lon="-0.50425">
        <ele>37</ele>
        <time>2023-05-02T12:17:47Z</time>
      </trkpt>
      <trkpt lat="48.94051" lon="-0.50431">
        <ele>37</ele>
        <time>2023-05-02T12:17:48Z</time>
      </trkpt>
      <trkpt lat="48.94044" lon="-0.50438">
        <ele>36.8</ele>
        <time>2023-05-02T12:17:49Z</time>
      </trkpt>
      <trkpt lat="48.94038" lon="-0.50444">
        <ele>36.8</ele>
        <time>2023-05-02T12:17:50Z</time>
      </trkpt>
      <trkpt lat="48.94032" lon="-0.5045">
        <ele>36.6</ele>
        <time>2023-05-02T12:17:51Z</time>
      </trkpt>
      <trkpt lat="48.94026" lon="-0.50457">
        <ele>36.6</ele>
        <time>2023-05-02T12:17:52Z</time>
      </trkpt>
      <trkpt lat="48.9402" lon="-0.50463">
        <ele>36.6</ele>
        <time>2023-05-02T12:17:53Z</time>
      </trkpt>
      <trkpt lat="48.94014" lon="-0.50469">
        <ele>36.6</ele>
        <time>2023-05-02T12:17:54Z</time>
      </trkpt>
      <trkpt lat="48.94008" lon="-0.50476">
        <ele>36.4</ele>
        <time>2023-05-02T12:17:55Z</time>
      </trkpt>
      <trkpt lat="48.94002" lon="-0.50482">
        <ele>36.4</ele>
        <time>2023-05-02T12:17:56Z</time>
      </trkpt>
      <trkpt lat="48.93997" lon="-0.50488">
        <ele>36.4</ele>
        <time>2023-05-02T12:17:57Z</time>
      </trkpt>
      <trkpt lat="48.93991" lon="-0.50494">
        <ele>36.4</ele>
        <time>2023-05-02T12:17:58Z</time>
      </trkpt>
      <trkpt lat="48.93985" lon="-0.505">
        <ele>36.4</ele>
        <time>2023-05-02T12:17:59Z</time>
      </trkpt>
      <trkpt lat="48.93979" lon="-0.50506">
        <ele>36.4</ele>
        <time>2023-05-02T12:18:00Z</time>
      </trkpt>
      <trkpt lat="48.93973" lon="-0.50513">
        <ele>36.4</ele>
        <time>2023-05-02T12:18:01Z</time>
      </trkpt>
      <trkpt lat="48.93968" lon="-0.50519">
        <ele>36.6</ele>
        <time>2023-05-02T12:18:02Z</time>
      </trkpt>
      <trkpt lat="48.93962" lon="-0.50525">
        <ele>36.6</ele>
        <time>2023-05-02T12:18:03Z</time>
      </trkpt>
      <trkpt lat="48.93956" lon="-0.50531">
        <ele>36.6</ele>
        <time>2023-05-02T12:18:04Z</time>
      </trkpt>
      <trkpt lat="48.9395" lon="-0.50537">
        <ele>36.6</ele>
        <time>2023-05-02T12:18:05Z</time>
      </trkpt>
      <trkpt lat="48.93945" lon="-0.50543">
        <ele>36.6</ele>
        <time>2023-05-02T12:18:06Z</time>
      </trkpt>
      <trkpt lat="48.93939" lon="-0.50549">
        <ele>36.6</ele>
        <time>2023-05-02T12:18:07Z</time>
      </trkpt>
      <trkpt lat="48.93933" lon="-0.50555">
        <ele>36.4</ele>
        <time>2023-05-02T12:18:08Z</time>
      </trkpt>
      <trkpt lat="48.93927" lon="-0.50561">
        <ele>36.4</ele>
        <time>2023-05-02T12:18:09Z</time>
      </trkpt>
      <trkpt lat="48.93921" lon="-0.50567">
        <ele>36.2</ele>
        <time>2023-05-02T12:18:10Z</time>
      </trkpt>
      <trkpt lat="48.93916" lon="-0.50573">
        <ele>36.2</ele>
        <time>2023-05-02T12:18:11Z</time>
      </trkpt>
      <trkpt lat="48.9391" lon="-0.50579">
        <ele>36.4</ele>
        <time>2023-05-02T12:18:12Z</time>
      </trkpt>
      <trkpt lat="48.93904" lon="-0.50585">
        <ele>36.6</ele>
        <time>2023-05-02T12:18:13Z</time>
      </trkpt>
      <trkpt lat="48.93898" lon="-0.50591">
        <ele>36.8</ele>
        <time>2023-05-02T12:18:14Z</time>
      </trkpt>
      <trkpt lat="48.93893" lon="-0.50598">
        <ele>37</ele>
        <time>2023-05-02T12:18:15Z</time>
      </trkpt>
      <trkpt lat="48.93887" lon="-0.50603">
        <ele>37.2</ele>
        <time>2023-05-02T12:18:16Z</time>
      </trkpt>
      <trkpt lat="48.93881" lon="-0.50609">
        <ele>37.6</ele>
        <time>2023-05-02T12:18:17Z</time>
      </trkpt>
      <trkpt lat="48.93875" lon="-0.50615">
        <ele>37.6</ele>
        <time>2023-05-02T12:18:18Z</time>
      </trkpt>
      <trkpt lat="48.9387" lon="-0.50621">
        <ele>37.8</ele>
        <time>2023-05-02T12:18:19Z</time>
      </trkpt>
      <trkpt lat="48.93865" lon="-0.50629">
        <ele>37.8</ele>
        <time>2023-05-02T12:18:20Z</time>
      </trkpt>
      <trkpt lat="48.9386" lon="-0.50637">
        <ele>38</ele>
        <time>2023-05-02T12:18:21Z</time>
      </trkpt>
      <trkpt lat="48.93855" lon="-0.50644">
        <ele>38</ele>
        <time>2023-05-02T12:18:22Z</time>
      </trkpt>
      <trkpt lat="48.9385" lon="-0.50651">
        <ele>38</ele>
        <time>2023-05-02T12:18:23Z</time>
      </trkpt>
      <trkpt lat="48.93844" lon="-0.50657">
        <ele>38</ele>
        <time>2023-05-02T12:18:24Z</time>
      </trkpt>
      <trkpt lat="48.93839" lon="-0.50663">
        <ele>38</ele>
        <time>2023-05-02T12:18:25Z</time>
      </trkpt>
      <trkpt lat="48.93833" lon="-0.50668">
        <ele>38</ele>
        <time>2023-05-02T12:18:26Z</time>
      </trkpt>
      <trkpt lat="48.93827" lon="-0.50673">
        <ele>38</ele>
        <time>2023-05-02T12:18:27Z</time>
      </trkpt>
      <trkpt lat="48.93822" lon="-0.50677">
        <ele>38</ele>
        <time>2023-05-02T12:18:28Z</time>
      </trkpt>
      <trkpt lat="48.93818" lon="-0.50682">
        <ele>38</ele>
        <time>2023-05-02T12:18:29Z</time>
      </trkpt>
      <trkpt lat="48.93814" lon="-0.50686">
        <ele>38.2</ele>
        <time>2023-05-02T12:18:30Z</time>
      </trkpt>
      <trkpt lat="48.93811" lon="-0.5069">
        <ele>38.2</ele>
        <time>2023-05-02T12:18:31Z</time>
      </trkpt>
      <trkpt lat="48.93808" lon="-0.50693">
        <ele>38.2</ele>
        <time>2023-05-02T12:18:32Z</time>
      </trkpt>
      <trkpt lat="48.93806" lon="-0.50696">
        <ele>38.2</ele>
        <time>2023-05-02T12:18:33Z</time>
      </trkpt>
      <trkpt lat="48.93803" lon="-0.50699">
        <ele>38.2</ele>
        <time>2023-05-02T12:18:34Z</time>
      </trkpt>
      <trkpt lat="48.93799" lon="-0.50702">
        <ele>38.2</ele>
        <time>2023-05-02T12:18:35Z</time>
      </trkpt>
      <trkpt lat="48.93796" lon="-0.50706">
        <ele>38.2</ele>
        <time>2023-05-02T12:18:36Z</time>
      </trkpt>
      <trkpt lat="48.93792" lon="-0.50711">
        <ele>38.2</ele>
        <time>2023-05-02T12:18:37Z</time>
      </trkpt>
      <trkpt lat="48.93787" lon="-0.50715">
        <ele>38</ele>
        <time>2023-05-02T12:18:38Z</time>
      </trkpt>
      <trkpt lat="48.93782" lon="-0.5072">
        <ele>38</ele>
        <time>2023-05-02T12:18:39Z</time>
      </trkpt>
      <trkpt lat="48.93778" lon="-0.50725">
        <ele>38</ele>
        <time>2023-05-02T12:18:40Z</time>
      </trkpt>
      <trkpt lat="48.93772" lon="-0.5073">
        <ele>38</ele>
        <time>2023-05-02T12:18:41Z</time>
      </trkpt>
      <trkpt lat="48.93768" lon="-0.50735">
        <ele>38</ele>
        <time>2023-05-02T12:18:42Z</time>
      </trkpt>
      <trkpt lat="48.93762" lon="-0.5074">
        <ele>38</ele>
        <time>2023-05-02T12:18:43Z</time>
      </trkpt>
      <trkpt lat="48.93758" lon="-0.50745">
        <ele>38</ele>
        <time>2023-05-02T12:18:44Z</time>
      </trkpt>
      <trkpt lat="48.93752" lon="-0.5075">
        <ele>38</ele>
        <time>2023-05-02T12:18:45Z</time>
      </trkpt>
      <trkpt lat="48.93747" lon="-0.50754">
        <ele>37.8</ele>
        <time>2023-05-02T12:18:46Z</time>
      </trkpt>
      <trkpt lat="48.93742" lon="-0.50759">
        <ele>37.8</ele>
        <time>2023-05-02T12:18:47Z</time>
      </trkpt>
      <trkpt lat="48.93737" lon="-0.50763">
        <ele>37.6</ele>
        <time>2023-05-02T12:18:48Z</time>
      </trkpt>
      <trkpt lat="48.93732" lon="-0.50767">
        <ele>37.4</ele>
        <time>2023-05-02T12:18:49Z</time>
      </trkpt>
      <trkpt lat="48.93726" lon="-0.50772">
        <ele>37.2</ele>
        <time>2023-05-02T12:18:50Z</time>
      </trkpt>
      <trkpt lat="48.93721" lon="-0.50776">
        <ele>37</ele>
        <time>2023-05-02T12:18:51Z</time>
      </trkpt>
      <trkpt lat="48.93715" lon="-0.50782">
        <ele>37</ele>
        <time>2023-05-02T12:18:52Z</time>
      </trkpt>
      <trkpt lat="48.9371" lon="-0.50787">
        <ele>36.8</ele>
        <time>2023-05-02T12:18:53Z</time>
      </trkpt>
      <trkpt lat="48.93704" lon="-0.50793">
        <ele>36.6</ele>
        <time>2023-05-02T12:18:54Z</time>
      </trkpt>
      <trkpt lat="48.93698" lon="-0.50799">
        <ele>36.2</ele>
        <time>2023-05-02T12:18:55Z</time>
      </trkpt>
      <trkpt lat="48.93692" lon="-0.50805">
        <ele>36</ele>
        <time>2023-05-02T12:18:56Z</time>
      </trkpt>
      <trkpt lat="48.93686" lon="-0.50811">
        <ele>35.8</ele>
        <time>2023-05-02T12:18:57Z</time>
      </trkpt>
      <trkpt lat="48.9368" lon="-0.50817">
        <ele>35.6</ele>
        <time>2023-05-02T12:18:58Z</time>
      </trkpt>
      <trkpt lat="48.93674" lon="-0.50822">
        <ele>35.4</ele>
        <time>2023-05-02T12:18:59Z</time>
      </trkpt>
      <trkpt lat="48.93668" lon="-0.50828">
        <ele>35.2</ele>
        <time>2023-05-02T12:19:00Z</time>
      </trkpt>
      <trkpt lat="48.93662" lon="-0.50833">
        <ele>35</ele>
        <time>2023-05-02T12:19:01Z</time>
      </trkpt>
      <trkpt lat="48.93657" lon="-0.50838">
        <ele>35</ele>
        <time>2023-05-02T12:19:02Z</time>
      </trkpt>
      <trkpt lat="48.93651" lon="-0.50843">
        <ele>34.8</ele>
        <time>2023-05-02T12:19:03Z</time>
      </trkpt>
      <trkpt lat="48.93645" lon="-0.50849">
        <ele>34.6</ele>
        <time>2023-05-02T12:19:04Z</time>
      </trkpt>
      <trkpt lat="48.93639" lon="-0.50855">
        <ele>34.4</ele>
        <time>2023-05-02T12:19:05Z</time>
      </trkpt>
      <trkpt lat="48.93633" lon="-0.50861">
        <ele>34.2</ele>
        <time>2023-05-02T12:19:06Z</time>
      </trkpt>
      <trkpt lat="48.93627" lon="-0.50868">
        <ele>34</ele>
        <time>2023-05-02T12:19:07Z</time>
      </trkpt>
      <trkpt lat="48.9362" lon="-0.50874">
        <ele>34</ele>
        <time>2023-05-02T12:19:08Z</time>
      </trkpt>
      <trkpt lat="48.93614" lon="-0.50881">
        <ele>33.8</ele>
        <time>2023-05-02T12:19:09Z</time>
      </trkpt>
      <trkpt lat="48.93608" lon="-0.50887">
        <ele>33.6</ele>
        <time>2023-05-02T12:19:10Z</time>
      </trkpt>
      <trkpt lat="48.93602" lon="-0.50893">
        <ele>33.4</ele>
        <time>2023-05-02T12:19:11Z</time>
      </trkpt>
      <trkpt lat="48.93596" lon="-0.50899">
        <ele>33.2</ele>
        <time>2023-05-02T12:19:12Z</time>
      </trkpt>
      <trkpt lat="48.9359" lon="-0.50905">
        <ele>33.2</ele>
        <time>2023-05-02T12:19:13Z</time>
      </trkpt>
      <trkpt lat="48.93584" lon="-0.50911">
        <ele>33.2</ele>
        <time>2023-05-02T12:19:14Z</time>
      </trkpt>
      <trkpt lat="48.93578" lon="-0.50917">
        <ele>33</ele>
        <time>2023-05-02T12:19:15Z</time>
      </trkpt>
      <trkpt lat="48.93572" lon="-0.50922">
        <ele>33</ele>
        <time>2023-05-02T12:19:16Z</time>
      </trkpt>
      <trkpt lat="48.93566" lon="-0.50928">
        <ele>33.2</ele>
        <time>2023-05-02T12:19:17Z</time>
      </trkpt>
      <trkpt lat="48.9356" lon="-0.50934">
        <ele>33.2</ele>
        <time>2023-05-02T12:19:18Z</time>
      </trkpt>
      <trkpt lat="48.93554" lon="-0.5094">
        <ele>33.2</ele>
        <time>2023-05-02T12:19:19Z</time>
      </trkpt>
      <trkpt lat="48.93548" lon="-0.50946">
        <ele>33.2</ele>
        <time>2023-05-02T12:19:20Z</time>
      </trkpt>
      <trkpt lat="48.93542" lon="-0.50953">
        <ele>33.2</ele>
        <time>2023-05-02T12:19:21Z</time>
      </trkpt>
      <trkpt lat="48.93536" lon="-0.50959">
        <ele>33.4</ele>
        <time>2023-05-02T12:19:22Z</time>
      </trkpt>
      <trkpt lat="48.93529" lon="-0.50966">
        <ele>33.6</ele>
        <time>2023-05-02T12:19:23Z</time>
      </trkpt>
      <trkpt lat="48.93523" lon="-0.50973">
        <ele>33.6</ele>
        <time>2023-05-02T12:19:24Z</time>
      </trkpt>
      <trkpt lat="48.93517" lon="-0.5098">
        <ele>33.8</ele>
        <time>2023-05-02T12:19:25Z</time>
      </trkpt>
      <trkpt lat="48.9351" lon="-0.50987">
        <ele>33.8</ele>
        <time>2023-05-02T12:19:26Z</time>
      </trkpt>
      <trkpt lat="48.93504" lon="-0.50994">
        <ele>34</ele>
        <time>2023-05-02T12:19:27Z</time>
      </trkpt>
      <trkpt lat="48.93497" lon="-0.51001">
        <ele>34</ele>
        <time>2023-05-02T12:19:28Z</time>
      </trkpt>
      <trkpt lat="48.9349" lon="-0.51008">
        <ele>33.6</ele>
        <time>2023-05-02T12:19:29Z</time>
      </trkpt>
      <trkpt lat="48.93483" lon="-0.51015">
        <ele>33.4</ele>
        <time>2023-05-02T12:19:30Z</time>
      </trkpt>
      <trkpt lat="48.93476" lon="-0.51021">
        <ele>33.2</ele>
        <time>2023-05-02T12:19:31Z</time>
      </trkpt>
      <trkpt lat="48.93469" lon="-0.51027">
        <ele>33</ele>
        <time>2023-05-02T12:19:32Z</time>
      </trkpt>
      <trkpt lat="48.93462" lon="-0.51032">
        <ele>33</ele>
        <time>2023-05-02T12:19:33Z</time>
      </trkpt>
      <trkpt lat="48.93456" lon="-0.51037">
        <ele>33</ele>
        <time>2023-05-02T12:19:34Z</time>
      </trkpt>
      <trkpt lat="48.93449" lon="-0.51042">
        <ele>33</ele>
        <time>2023-05-02T12:19:35Z</time>
      </trkpt>
      <trkpt lat="48.93442" lon="-0.51047">
        <ele>33</ele>
        <time>2023-05-02T12:19:36Z</time>
      </trkpt>
      <trkpt lat="48.93435" lon="-0.51051">
        <ele>33</ele>
        <time>2023-05-02T12:19:37Z</time>
      </trkpt>
      <trkpt lat="48.93428" lon="-0.51055">
        <ele>33</ele>
        <time>2023-05-02T12:19:38Z</time>
      </trkpt>
      <trkpt lat="48.93421" lon="-0.51058">
        <ele>33.2</ele>
        <time>2023-05-02T12:19:39Z</time>
      </trkpt>
      <trkpt lat="48.93414" lon="-0.51062">
        <ele>33.2</ele>
        <time>2023-05-02T12:19:40Z</time>
      </trkpt>
      <trkpt lat="48.93408" lon="-0.51065">
        <ele>33</ele>
        <time>2023-05-02T12:19:41Z</time>
      </trkpt>
      <trkpt lat="48.93401" lon="-0.51067">
        <ele>33</ele>
        <time>2023-05-02T12:19:42Z</time>
      </trkpt>
      <trkpt lat="48.93394" lon="-0.5107">
        <ele>33</ele>
        <time>2023-05-02T12:19:43Z</time>
      </trkpt>
      <trkpt lat="48.93386" lon="-0.51072">
        <ele>32.8</ele>
        <time>2023-05-02T12:19:44Z</time>
      </trkpt>
      <trkpt lat="48.93379" lon="-0.51074">
        <ele>32.8</ele>
        <time>2023-05-02T12:19:45Z</time>
      </trkpt>
      <trkpt lat="48.93372" lon="-0.51076">
        <ele>32.6</ele>
        <time>2023-05-02T12:19:46Z</time>
      </trkpt>
      <trkpt lat="48.93365" lon="-0.51078">
        <ele>32.4</ele>
        <time>2023-05-02T12:19:47Z</time>
      </trkpt>
      <trkpt lat="48.93357" lon="-0.51079">
        <ele>32.2</ele>
        <time>2023-05-02T12:19:48Z</time>
      </trkpt>
      <trkpt lat="48.9335" lon="-0.5108">
        <ele>32.2</ele>
        <time>2023-05-02T12:19:49Z</time>
      </trkpt>
      <trkpt lat="48.93342" lon="-0.51081">
        <ele>32</ele>
        <time>2023-05-02T12:19:50Z</time>
      </trkpt>
      <trkpt lat="48.93335" lon="-0.51082">
        <ele>32</ele>
        <time>2023-05-02T12:19:51Z</time>
      </trkpt>
      <trkpt lat="48.93328" lon="-0.51082">
        <ele>31.8</ele>
        <time>2023-05-02T12:19:52Z</time>
      </trkpt>
      <trkpt lat="48.9332" lon="-0.51083">
        <ele>31.8</ele>
        <time>2023-05-02T12:19:53Z</time>
      </trkpt>
      <trkpt lat="48.93313" lon="-0.51083">
        <ele>31.8</ele>
        <time>2023-05-02T12:19:54Z</time>
      </trkpt>
      <trkpt lat="48.93305" lon="-0.51083">
        <ele>31.8</ele>
        <time>2023-05-02T12:19:55Z</time>
      </trkpt>
      <trkpt lat="48.93298" lon="-0.51082">
        <ele>31.6</ele>
        <time>2023-05-02T12:19:56Z</time>
      </trkpt>
      <trkpt lat="48.9329" lon="-0.51081">
        <ele>31.6</ele>
        <time>2023-05-02T12:19:57Z</time>
      </trkpt>
      <trkpt lat="48.93283" lon="-0.5108">
        <ele>31.4</ele>
        <time>2023-05-02T12:19:58Z</time>
      </trkpt>
      <trkpt lat="48.93276" lon="-0.51079">
        <ele>31.4</ele>
        <time>2023-05-02T12:19:59Z</time>
      </trkpt>
      <trkpt lat="48.93268" lon="-0.51078">
        <ele>31.2</ele>
        <time>2023-05-02T12:20:00Z</time>
      </trkpt>
      <trkpt lat="48.93261" lon="-0.51077">
        <ele>31.2</ele>
        <time>2023-05-02T12:20:01Z</time>
      </trkpt>
      <trkpt lat="48.93254" lon="-0.51075">
        <ele>31.2</ele>
        <time>2023-05-02T12:20:02Z</time>
      </trkpt>
      <trkpt lat="48.93247" lon="-0.51073">
        <ele>31.2</ele>
        <time>2023-05-02T12:20:03Z</time>
      </trkpt>
      <trkpt lat="48.9324" lon="-0.51071">
        <ele>31.4</ele>
        <time>2023-05-02T12:20:04Z</time>
      </trkpt>
      <trkpt lat="48.93234" lon="-0.51069">
        <ele>31.6</ele>
        <time>2023-05-02T12:20:05Z</time>
      </trkpt>
      <trkpt lat="48.93227" lon="-0.51066">
        <ele>31.8</ele>
        <time>2023-05-02T12:20:06Z</time>
      </trkpt>
      <trkpt lat="48.93221" lon="-0.51064">
        <ele>32</ele>
        <time>2023-05-02T12:20:07Z</time>
      </trkpt>
      <trkpt lat="48.93215" lon="-0.51061">
        <ele>32.2</ele>
        <time>2023-05-02T12:20:08Z</time>
      </trkpt>
      <trkpt lat="48.93209" lon="-0.51058">
        <ele>32.4</ele>
        <time>2023-05-02T12:20:09Z</time>
      </trkpt>
      <trkpt lat="48.93203" lon="-0.51056">
        <ele>32.6</ele>
        <time>2023-05-02T12:20:10Z</time>
      </trkpt>
      <trkpt lat="48.93198" lon="-0.51053">
        <ele>32.8</ele>
        <time>2023-05-02T12:20:11Z</time>
      </trkpt>
      <trkpt lat="48.93193" lon="-0.5105">
        <ele>33</ele>
        <time>2023-05-02T12:20:12Z</time>
      </trkpt>
      <trkpt lat="48.93188" lon="-0.51048">
        <ele>33.2</ele>
        <time>2023-05-02T12:20:13Z</time>
      </trkpt>
      <trkpt lat="48.93185" lon="-0.51045">
        <ele>33.4</ele>
        <time>2023-05-02T12:20:14Z</time>
      </trkpt>
      <trkpt lat="48.93181" lon="-0.51044">
        <ele>33.6</ele>
        <time>2023-05-02T12:20:15Z</time>
      </trkpt>
      <trkpt lat="48.93177" lon="-0.51043">
        <ele>33.8</ele>
        <time>2023-05-02T12:20:16Z</time>
      </trkpt>
      <trkpt lat="48.93174" lon="-0.51043">
        <ele>33.8</ele>
        <time>2023-05-02T12:20:17Z</time>
      </trkpt>
      <trkpt lat="48.9317" lon="-0.51044">
        <ele>33.8</ele>
        <time>2023-05-02T12:20:18Z</time>
      </trkpt>
      <trkpt lat="48.93167" lon="-0.51043">
        <ele>34</ele>
        <time>2023-05-02T12:20:19Z</time>
      </trkpt>
      <trkpt lat="48.93165" lon="-0.5104">
        <ele>34</ele>
        <time>2023-05-02T12:20:20Z</time>
      </trkpt>
      <trkpt lat="48.93163" lon="-0.51035">
        <ele>34.2</ele>
        <time>2023-05-02T12:20:21Z</time>
      </trkpt>
      <trkpt lat="48.93162" lon="-0.51031">
        <ele>34.6</ele>
        <time>2023-05-02T12:20:22Z</time>
      </trkpt>
      <trkpt lat="48.93161" lon="-0.51027">
        <ele>34.8</ele>
        <time>2023-05-02T12:20:23Z</time>
      </trkpt>
      <trkpt lat="48.93159" lon="-0.51026">
        <ele>34.8</ele>
        <time>2023-05-02T12:20:24Z</time>
      </trkpt>
      <trkpt lat="48.93158" lon="-0.51027">
        <ele>34.8</ele>
        <time>2023-05-02T12:20:25Z</time>
      </trkpt>
      <trkpt lat="48.93156" lon="-0.51029">
        <ele>34.6</ele>
        <time>2023-05-02T12:20:26Z</time>
      </trkpt>
      <trkpt lat="48.93153" lon="-0.51031">
        <ele>34.4</ele>
        <time>2023-05-02T12:20:27Z</time>
      </trkpt>
      <trkpt lat="48.93151" lon="-0.51031">
        <ele>34.6</ele>
        <time>2023-05-02T12:20:28Z</time>
      </trkpt>
      <trkpt lat="48.93149" lon="-0.51028">
        <ele>34.6</ele>
        <time>2023-05-02T12:20:29Z</time>
      </trkpt>
      <trkpt lat="48.93146" lon="-0.51024">
        <ele>34.8</ele>
        <time>2023-05-02T12:20:30Z</time>
      </trkpt>
      <trkpt lat="48.93143" lon="-0.51023">
        <ele>34.8</ele>
        <time>2023-05-02T12:20:31Z</time>
      </trkpt>
      <trkpt lat="48.93139" lon="-0.51022">
        <ele>35</ele>
        <time>2023-05-02T12:20:32Z</time>
      </trkpt>
      <trkpt lat="48.93136" lon="-0.51018">
        <ele>35</ele>
        <time>2023-05-02T12:20:33Z</time>
      </trkpt>
      <trkpt lat="48.93134" lon="-0.51013">
        <ele>35.2</ele>
        <time>2023-05-02T12:20:34Z</time>
      </trkpt>
      <trkpt lat="48.93131" lon="-0.51008">
        <ele>35.6</ele>
        <time>2023-05-02T12:20:35Z</time>
      </trkpt>
      <trkpt lat="48.93128" lon="-0.51005">
        <ele>35.8</ele>
        <time>2023-05-02T12:20:36Z</time>
      </trkpt>
      <trkpt lat="48.93125" lon="-0.51002">
        <ele>36</ele>
        <time>2023-05-02T12:20:37Z</time>
      </trkpt>
      <trkpt lat="48.93121" lon="-0.50999">
        <ele>36</ele>
        <time>2023-05-02T12:20:38Z</time>
      </trkpt>
      <trkpt lat="48.93117" lon="-0.50995">
        <ele>36.2</ele>
        <time>2023-05-02T12:20:39Z</time>
      </trkpt>
      <trkpt lat="48.93113" lon="-0.5099">
        <ele>36.6</ele>
        <time>2023-05-02T12:20:40Z</time>
      </trkpt>
      <trkpt lat="48.93109" lon="-0.50986">
        <ele>36.8</ele>
        <time>2023-05-02T12:20:41Z</time>
      </trkpt>
      <trkpt lat="48.93105" lon="-0.50981">
        <ele>37</ele>
        <time>2023-05-02T12:20:42Z</time>
      </trkpt>
      <trkpt lat="48.931" lon="-0.50976">
        <ele>37.4</ele>
        <time>2023-05-02T12:20:43Z</time>
      </trkpt>
      <trkpt lat="48.93096" lon="-0.50972">
        <ele>37.8</ele>
        <time>2023-05-02T12:20:44Z</time>
      </trkpt>
      <trkpt lat="48.93091" lon="-0.50966">
        <ele>38</ele>
        <time>2023-05-02T12:20:45Z</time>
      </trkpt>
      <trkpt lat="48.93087" lon="-0.50961">
        <ele>38.2</ele>
        <time>2023-05-02T12:20:46Z</time>
      </trkpt>
      <trkpt lat="48.93082" lon="-0.50955">
        <ele>38.8</ele>
        <time>2023-05-02T12:20:47Z</time>
      </trkpt>
      <trkpt lat="48.93078" lon="-0.50949">
        <ele>39</ele>
        <time>2023-05-02T12:20:48Z</time>
      </trkpt>
      <trkpt lat="48.93073" lon="-0.50943">
        <ele>39.2</ele>
        <time>2023-05-02T12:20:49Z</time>
      </trkpt>
      <trkpt lat="48.93069" lon="-0.50937">
        <ele>39.6</ele>
        <time>2023-05-02T12:20:50Z</time>
      </trkpt>
      <trkpt lat="48.93065" lon="-0.50931">
        <ele>40</ele>
        <time>2023-05-02T12:20:51Z</time>
      </trkpt>
      <trkpt lat="48.9306" lon="-0.50925">
        <ele>40.2</ele>
        <time>2023-05-02T12:20:52Z</time>
      </trkpt>
      <trkpt lat="48.93056" lon="-0.50918">
        <ele>40.6</ele>
        <time>2023-05-02T12:20:53Z</time>
      </trkpt>
      <trkpt lat="48.93052" lon="-0.50912">
        <ele>41</ele>
        <time>2023-05-02T12:20:54Z</time>
      </trkpt>
      <trkpt lat="48.93048" lon="-0.50905">
        <ele>41.2</ele>
        <time>2023-05-02T12:20:55Z</time>
      </trkpt>
      <trkpt lat="48.93044" lon="-0.50898">
        <ele>41.6</ele>
        <time>2023-05-02T12:20:56Z</time>
      </trkpt>
      <trkpt lat="48.9304" lon="-0.50892">
        <ele>42</ele>
        <time>2023-05-02T12:20:57Z</time>
      </trkpt>
      <trkpt lat="48.93037" lon="-0.50885">
        <ele>42.2</ele>
        <time>2023-05-02T12:20:58Z</time>
      </trkpt>
      <trkpt lat="48.93033" lon="-0.50878">
        <ele>42.6</ele>
        <time>2023-05-02T12:20:59Z</time>
      </trkpt>
      <trkpt lat="48.9303" lon="-0.50871">
        <ele>43</ele>
        <time>2023-05-02T12:21:00Z</time>
      </trkpt>
      <trkpt lat="48.93026" lon="-0.50863">
        <ele>43.2</ele>
        <time>2023-05-02T12:21:01Z</time>
      </trkpt>
      <trkpt lat="48.93023" lon="-0.50856">
        <ele>43.6</ele>
        <time>2023-05-02T12:21:02Z</time>
      </trkpt>
      <trkpt lat="48.93019" lon="-0.50848">
        <ele>44</ele>
        <time>2023-05-02T12:21:03Z</time>
      </trkpt>
      <trkpt lat="48.93015" lon="-0.5084">
        <ele>44.2</ele>
        <time>2023-05-02T12:21:04Z</time>
      </trkpt>
      <trkpt lat="48.93012" lon="-0.50831">
        <ele>44.6</ele>
        <time>2023-05-02T12:21:05Z</time>
      </trkpt>
      <trkpt lat="48.93008" lon="-0.50823">
        <ele>44.6</ele>
        <time>2023-05-02T12:21:06Z</time>
      </trkpt>
      <trkpt lat="48.93005" lon="-0.50814">
        <ele>44.4</ele>
        <time>2023-05-02T12:21:07Z</time>
      </trkpt>
      <trkpt lat="48.93001" lon="-0.50805">
        <ele>44.4</ele>
        <time>2023-05-02T12:21:08Z</time>
      </trkpt>
      <trkpt lat="48.92998" lon="-0.50797">
        <ele>44.2</ele>
        <time>2023-05-02T12:21:09Z</time>
      </trkpt>
      <trkpt lat="48.92995" lon="-0.50788">
        <ele>44</ele>
        <time>2023-05-02T12:21:10Z</time>
      </trkpt>
      <trkpt lat="48.92992" lon="-0.50779">
        <ele>43.6</ele>
        <time>2023-05-02T12:21:11Z</time>
      </trkpt>
      <trkpt lat="48.9299" lon="-0.50771">
        <ele>43.2</ele>
        <time>2023-05-02T12:21:12Z</time>
      </trkpt>
      <trkpt lat="48.92987" lon="-0.50762">
        <ele>43</ele>
        <time>2023-05-02T12:21:13Z</time>
      </trkpt>
      <trkpt lat="48.92984" lon="-0.50753">
        <ele>42.8</ele>
        <time>2023-05-02T12:21:14Z</time>
      </trkpt>
      <trkpt lat="48.92982" lon="-0.50744">
        <ele>42.6</ele>
        <time>2023-05-02T12:21:15Z</time>
      </trkpt>
      <trkpt lat="48.9298" lon="-0.50735">
        <ele>42.2</ele>
        <time>2023-05-02T12:21:16Z</time>
      </trkpt>
      <trkpt lat="48.92977" lon="-0.50726">
        <ele>42</ele>
        <time>2023-05-02T12:21:17Z</time>
      </trkpt>
      <trkpt lat="48.92975" lon="-0.50717">
        <ele>41.8</ele>
        <time>2023-05-02T12:21:18Z</time>
      </trkpt>
      <trkpt lat="48.92973" lon="-0.50707">
        <ele>41.6</ele>
        <time>2023-05-02T12:21:19Z</time>
      </trkpt>
      <trkpt lat="48.92971" lon="-0.50698">
        <ele>41.4</ele>
        <time>2023-05-02T12:21:20Z</time>
      </trkpt>
      <trkpt lat="48.92968" lon="-0.50688">
        <ele>41</ele>
        <time>2023-05-02T12:21:21Z</time>
      </trkpt>
      <trkpt lat="48.92966" lon="-0.50677">
        <ele>40.8</ele>
        <time>2023-05-02T12:21:22Z</time>
      </trkpt>
      <trkpt lat="48.92964" lon="-0.50667">
        <ele>40.6</ele>
        <time>2023-05-02T12:21:23Z</time>
      </trkpt>
      <trkpt lat="48.92962" lon="-0.50657">
        <ele>40.6</ele>
        <time>2023-05-02T12:21:24Z</time>
      </trkpt>
      <trkpt lat="48.92961" lon="-0.50647">
        <ele>40.6</ele>
        <time>2023-05-02T12:21:25Z</time>
      </trkpt>
      <trkpt lat="48.92959" lon="-0.50636">
        <ele>40.6</ele>
        <time>2023-05-02T12:21:26Z</time>
      </trkpt>
      <trkpt lat="48.92957" lon="-0.50626">
        <ele>40.6</ele>
        <time>2023-05-02T12:21:27Z</time>
      </trkpt>
      <trkpt lat="48.92956" lon="-0.50616">
        <ele>40.6</ele>
        <time>2023-05-02T12:21:28Z</time>
      </trkpt>
      <trkpt lat="48.92955" lon="-0.50606">
        <ele>40.6</ele>
        <time>2023-05-02T12:21:29Z</time>
      </trkpt>
      <trkpt lat="48.92953" lon="-0.50596">
        <ele>40.8</ele>
        <time>2023-05-02T12:21:30Z</time>
      </trkpt>
      <trkpt lat="48.92952" lon="-0.50585">
        <ele>40.8</ele>
        <time>2023-05-02T12:21:31Z</time>
      </trkpt>
      <trkpt lat="48.92951" lon="-0.50575">
        <ele>41</ele>
        <time>2023-05-02T12:21:32Z</time>
      </trkpt>
      <trkpt lat="48.9295" lon="-0.50564">
        <ele>41</ele>
        <time>2023-05-02T12:21:33Z</time>
      </trkpt>
      <trkpt lat="48.92948" lon="-0.50554">
        <ele>41.2</ele>
        <time>2023-05-02T12:21:34Z</time>
      </trkpt>
      <trkpt lat="48.92947" lon="-0.50543">
        <ele>41.2</ele>
        <time>2023-05-02T12:21:35Z</time>
      </trkpt>
      <trkpt lat="48.92945" lon="-0.50532">
        <ele>41.4</ele>
        <time>2023-05-02T12:21:36Z</time>
      </trkpt>
      <trkpt lat="48.92944" lon="-0.50522">
        <ele>41.6</ele>
        <time>2023-05-02T12:21:37Z</time>
      </trkpt>
      <trkpt lat="48.92943" lon="-0.50511">
        <ele>41.6</ele>
        <time>2023-05-02T12:21:38Z</time>
      </trkpt>
      <trkpt lat="48.92942" lon="-0.50502">
        <ele>41.8</ele>
        <time>2023-05-02T12:21:39Z</time>
      </trkpt>
      <trkpt lat="48.92941" lon="-0.50492">
        <ele>41.6</ele>
        <time>2023-05-02T12:21:40Z</time>
      </trkpt>
      <trkpt lat="48.9294" lon="-0.50482">
        <ele>41.4</ele>
        <time>2023-05-02T12:21:41Z</time>
      </trkpt>
      <trkpt lat="48.92939" lon="-0.50473">
        <ele>41.2</ele>
        <time>2023-05-02T12:21:42Z</time>
      </trkpt>
      <trkpt lat="48.92938" lon="-0.50463">
        <ele>41</ele>
        <time>2023-05-02T12:21:43Z</time>
      </trkpt>
      <trkpt lat="48.92938" lon="-0.50453">
        <ele>41</ele>
        <time>2023-05-02T12:21:44Z</time>
      </trkpt>
      <trkpt lat="48.92936" lon="-0.50443">
        <ele>40.8</ele>
        <time>2023-05-02T12:21:45Z</time>
      </trkpt>
      <trkpt lat="48.92935" lon="-0.50433">
        <ele>40.6</ele>
        <time>2023-05-02T12:21:46Z</time>
      </trkpt>
      <trkpt lat="48.92934" lon="-0.50422">
        <ele>40.2</ele>
        <time>2023-05-02T12:21:47Z</time>
      </trkpt>
      <trkpt lat="48.92933" lon="-0.50412">
        <ele>40</ele>
        <time>2023-05-02T12:21:48Z</time>
      </trkpt>
      <trkpt lat="48.92932" lon="-0.50402">
        <ele>40.2</ele>
        <time>2023-05-02T12:21:49Z</time>
      </trkpt>
      <trkpt lat="48.92931" lon="-0.50393">
        <ele>40.2</ele>
        <time>2023-05-02T12:21:50Z</time>
      </trkpt>
      <trkpt lat="48.9293" lon="-0.50383">
        <ele>40.6</ele>
        <time>2023-05-02T12:21:51Z</time>
      </trkpt>
      <trkpt lat="48.92929" lon="-0.50373">
        <ele>40.8</ele>
        <time>2023-05-02T12:21:52Z</time>
      </trkpt>
      <trkpt lat="48.92928" lon="-0.50363">
        <ele>41</ele>
        <time>2023-05-02T12:21:53Z</time>
      </trkpt>
      <trkpt lat="48.92926" lon="-0.50353">
        <ele>41</ele>
        <time>2023-05-02T12:21:54Z</time>
      </trkpt>
      <trkpt lat="48.92925" lon="-0.50342">
        <ele>41</ele>
        <time>2023-05-02T12:21:55Z</time>
      </trkpt>
      <trkpt lat="48.92923" lon="-0.50332">
        <ele>40.8</ele>
        <time>2023-05-02T12:21:56Z</time>
      </trkpt>
      <trkpt lat="48.92921" lon="-0.50322">
        <ele>41</ele>
        <time>2023-05-02T12:21:57Z</time>
      </trkpt>
      <trkpt lat="48.92919" lon="-0.50311">
        <ele>41.6</ele>
        <time>2023-05-02T12:21:58Z</time>
      </trkpt>
      <trkpt lat="48.92917" lon="-0.50301">
        <ele>41.8</ele>
        <time>2023-05-02T12:21:59Z</time>
      </trkpt>
      <trkpt lat="48.92915" lon="-0.50291">
        <ele>42.4</ele>
        <time>2023-05-02T12:22:00Z</time>
      </trkpt>
      <trkpt lat="48.92913" lon="-0.5028">
        <ele>43</ele>
        <time>2023-05-02T12:22:01Z</time>
      </trkpt>
      <trkpt lat="48.92912" lon="-0.5027">
        <ele>43.6</ele>
        <time>2023-05-02T12:22:02Z</time>
      </trkpt>
      <trkpt lat="48.9291" lon="-0.5026">
        <ele>44</ele>
        <time>2023-05-02T12:22:03Z</time>
      </trkpt>
      <trkpt lat="48.92908" lon="-0.5025">
        <ele>44.8</ele>
        <time>2023-05-02T12:22:04Z</time>
      </trkpt>
      <trkpt lat="48.92907" lon="-0.5024">
        <ele>45</ele>
        <time>2023-05-02T12:22:05Z</time>
      </trkpt>
      <trkpt lat="48.92905" lon="-0.5023">
        <ele>45</ele>
        <time>2023-05-02T12:22:06Z</time>
      </trkpt>
      <trkpt lat="48.92903" lon="-0.50221">
        <ele>45.2</ele>
        <time>2023-05-02T12:22:07Z</time>
      </trkpt>
      <trkpt lat="48.92902" lon="-0.50211">
        <ele>45.2</ele>
        <time>2023-05-02T12:22:08Z</time>
      </trkpt>
      <trkpt lat="48.929" lon="-0.50201">
        <ele>45.6</ele>
        <time>2023-05-02T12:22:09Z</time>
      </trkpt>
      <trkpt lat="48.92899" lon="-0.50191">
        <ele>45.6</ele>
        <time>2023-05-02T12:22:10Z</time>
      </trkpt>
      <trkpt lat="48.92897" lon="-0.5018">
        <ele>45.8</ele>
        <time>2023-05-02T12:22:11Z</time>
      </trkpt>
      <trkpt lat="48.92895" lon="-0.5017">
        <ele>45.8</ele>
        <time>2023-05-02T12:22:12Z</time>
      </trkpt>
      <trkpt lat="48.92894" lon="-0.5016">
        <ele>45.8</ele>
        <time>2023-05-02T12:22:13Z</time>
      </trkpt>
      <trkpt lat="48.92892" lon="-0.5015">
        <ele>45.8</ele>
        <time>2023-05-02T12:22:14Z</time>
      </trkpt>
      <trkpt lat="48.9289" lon="-0.5014">
        <ele>45.6</ele>
        <time>2023-05-02T12:22:15Z</time>
      </trkpt>
      <trkpt lat="48.92889" lon="-0.5013">
        <ele>45.6</ele>
        <time>2023-05-02T12:22:16Z</time>
      </trkpt>
      <trkpt lat="48.92888" lon="-0.5012">
        <ele>45.6</ele>
        <time>2023-05-02T12:22:17Z</time>
      </trkpt>
      <trkpt lat="48.92886" lon="-0.50111">
        <ele>45.4</ele>
        <time>2023-05-02T12:22:18Z</time>
      </trkpt>
      <trkpt lat="48.92885" lon="-0.50101">
        <ele>45.2</ele>
        <time>2023-05-02T12:22:19Z</time>
      </trkpt>
      <trkpt lat="48.92883" lon="-0.50092">
        <ele>45.2</ele>
        <time>2023-05-02T12:22:20Z</time>
      </trkpt>
      <trkpt lat="48.92882" lon="-0.50082">
        <ele>45</ele>
        <time>2023-05-02T12:22:21Z</time>
      </trkpt>
      <trkpt lat="48.92881" lon="-0.50073">
        <ele>45</ele>
        <time>2023-05-02T12:22:22Z</time>
      </trkpt>
      <trkpt lat="48.9288" lon="-0.50063">
        <ele>44.6</ele>
        <time>2023-05-02T12:22:23Z</time>
      </trkpt>
      <trkpt lat="48.92879" lon="-0.50054">
        <ele>44.2</ele>
        <time>2023-05-02T12:22:24Z</time>
      </trkpt>
      <trkpt lat="48.92877" lon="-0.50045">
        <ele>44</ele>
        <time>2023-05-02T12:22:25Z</time>
      </trkpt>
      <trkpt lat="48.92876" lon="-0.50035">
        <ele>43.8</ele>
        <time>2023-05-02T12:22:26Z</time>
      </trkpt>
      <trkpt lat="48.92875" lon="-0.50026">
        <ele>43.6</ele>
        <time>2023-05-02T12:22:27Z</time>
      </trkpt>
      <trkpt lat="48.92874" lon="-0.50016">
        <ele>43.2</ele>
        <time>2023-05-02T12:22:28Z</time>
      </trkpt>
      <trkpt lat="48.92873" lon="-0.50007">
        <ele>43</ele>
        <time>2023-05-02T12:22:29Z</time>
      </trkpt>
      <trkpt lat="48.92871" lon="-0.49997">
        <ele>42.8</ele>
        <time>2023-05-02T12:22:30Z</time>
      </trkpt>
      <trkpt lat="48.9287" lon="-0.49987">
        <ele>42.6</ele>
        <time>2023-05-02T12:22:31Z</time>
      </trkpt>
      <trkpt lat="48.92868" lon="-0.49976">
        <ele>42.6</ele>
        <time>2023-05-02T12:22:32Z</time>
      </trkpt>
      <trkpt lat="48.92867" lon="-0.49966">
        <ele>42.4</ele>
        <time>2023-05-02T12:22:33Z</time>
      </trkpt>
      <trkpt lat="48.92865" lon="-0.49956">
        <ele>42.4</ele>
        <time>2023-05-02T12:22:34Z</time>
      </trkpt>
      <trkpt lat="48.92864" lon="-0.49945">
        <ele>42.4</ele>
        <time>2023-05-02T12:22:35Z</time>
      </trkpt>
      <trkpt lat="48.92863" lon="-0.49935">
        <ele>42.4</ele>
        <time>2023-05-02T12:22:36Z</time>
      </trkpt>
      <trkpt lat="48.92863" lon="-0.49926">
        <ele>42.6</ele>
        <time>2023-05-02T12:22:37Z</time>
      </trkpt>
      <trkpt lat="48.92863" lon="-0.49917">
        <ele>42.8</ele>
        <time>2023-05-02T12:22:38Z</time>
      </trkpt>
      <trkpt lat="48.92862" lon="-0.49908">
        <ele>43</ele>
        <time>2023-05-02T12:22:39Z</time>
      </trkpt>
      <trkpt lat="48.92862" lon="-0.49899">
        <ele>43</ele>
        <time>2023-05-02T12:22:40Z</time>
      </trkpt>
      <trkpt lat="48.92862" lon="-0.49889">
        <ele>43.2</ele>
        <time>2023-05-02T12:22:41Z</time>
      </trkpt>
      <trkpt lat="48.92861" lon="-0.49879">
        <ele>43.6</ele>
        <time>2023-05-02T12:22:42Z</time>
      </trkpt>
      <trkpt lat="48.92861" lon="-0.49868">
        <ele>43.6</ele>
        <time>2023-05-02T12:22:43Z</time>
      </trkpt>
      <trkpt lat="48.9286" lon="-0.49858">
        <ele>43.8</ele>
        <time>2023-05-02T12:22:44Z</time>
      </trkpt>
      <trkpt lat="48.9286" lon="-0.49848">
        <ele>44</ele>
        <time>2023-05-02T12:22:45Z</time>
      </trkpt>
      <trkpt lat="48.92859" lon="-0.49838">
        <ele>44</ele>
        <time>2023-05-02T12:22:46Z</time>
      </trkpt>
      <trkpt lat="48.92858" lon="-0.49828">
        <ele>43.8</ele>
        <time>2023-05-02T12:22:47Z</time>
      </trkpt>
      <trkpt lat="48.92857" lon="-0.49818">
        <ele>43.4</ele>
        <time>2023-05-02T12:22:48Z</time>
      </trkpt>
      <trkpt lat="48.92856" lon="-0.49809">
        <ele>43</ele>
        <time>2023-05-02T12:22:49Z</time>
      </trkpt>
      <trkpt lat="48.92855" lon="-0.49799">
        <ele>42.8</ele>
        <time>2023-05-02T12:22:50Z</time>
      </trkpt>
      <trkpt lat="48.92854" lon="-0.49789">
        <ele>42.4</ele>
        <time>2023-05-02T12:22:51Z</time>
      </trkpt>
      <trkpt lat="48.92853" lon="-0.4978">
        <ele>42</ele>
        <time>2023-05-02T12:22:52Z</time>
      </trkpt>
      <trkpt lat="48.92853" lon="-0.4977">
        <ele>41.8</ele>
        <time>2023-05-02T12:22:53Z</time>
      </trkpt>
      <trkpt lat="48.92852" lon="-0.49761">
        <ele>41.6</ele>
        <time>2023-05-02T12:22:54Z</time>
      </trkpt>
      <trkpt lat="48.92851" lon="-0.49751">
        <ele>41.2</ele>
        <time>2023-05-02T12:22:55Z</time>
      </trkpt>
      <trkpt lat="48.9285" lon="-0.49742">
        <ele>41</ele>
        <time>2023-05-02T12:22:56Z</time>
      </trkpt>
      <trkpt lat="48.92849" lon="-0.49732">
        <ele>40.8</ele>
        <time>2023-05-02T12:22:57Z</time>
      </trkpt>
      <trkpt lat="48.92849" lon="-0.49723">
        <ele>40.6</ele>
        <time>2023-05-02T12:22:58Z</time>
      </trkpt>
      <trkpt lat="48.92848" lon="-0.49715">
        <ele>40.2</ele>
        <time>2023-05-02T12:22:59Z</time>
      </trkpt>
      <trkpt lat="48.92848" lon="-0.49706">
        <ele>40</ele>
        <time>2023-05-02T12:23:00Z</time>
      </trkpt>
      <trkpt lat="48.92848" lon="-0.49697">
        <ele>39.8</ele>
        <time>2023-05-02T12:23:01Z</time>
      </trkpt>
      <trkpt lat="48.92848" lon="-0.49687">
        <ele>39.6</ele>
        <time>2023-05-02T12:23:02Z</time>
      </trkpt>
      <trkpt lat="48.92847" lon="-0.49678">
        <ele>39.4</ele>
        <time>2023-05-02T12:23:03Z</time>
      </trkpt>
      <trkpt lat="48.92846" lon="-0.49669">
        <ele>39</ele>
        <time>2023-05-02T12:23:04Z</time>
      </trkpt>
      <trkpt lat="48.92846" lon="-0.49659">
        <ele>39</ele>
        <time>2023-05-02T12:23:05Z</time>
      </trkpt>
      <trkpt lat="48.92845" lon="-0.4965">
        <ele>39</ele>
        <time>2023-05-02T12:23:06Z</time>
      </trkpt>
      <trkpt lat="48.92844" lon="-0.49641">
        <ele>39.2</ele>
        <time>2023-05-02T12:23:07Z</time>
      </trkpt>
      <trkpt lat="48.92844" lon="-0.49632">
        <ele>39.2</ele>
        <time>2023-05-02T12:23:08Z</time>
      </trkpt>
      <trkpt lat="48.92843" lon="-0.49623">
        <ele>39.2</ele>
        <time>2023-05-02T12:23:09Z</time>
      </trkpt>
      <trkpt lat="48.92843" lon="-0.49614">
        <ele>39.4</ele>
        <time>2023-05-02T12:23:10Z</time>
      </trkpt>
      <trkpt lat="48.92843" lon="-0.49605">
        <ele>39.4</ele>
        <time>2023-05-02T12:23:11Z</time>
      </trkpt>
      <trkpt lat="48.92842" lon="-0.49596">
        <ele>39.6</ele>
        <time>2023-05-02T12:23:12Z</time>
      </trkpt>
      <trkpt lat="48.92842" lon="-0.49587">
        <ele>39.6</ele>
        <time>2023-05-02T12:23:13Z</time>
      </trkpt>
      <trkpt lat="48.92842" lon="-0.49577">
        <ele>39.6</ele>
        <time>2023-05-02T12:23:14Z</time>
      </trkpt>
      <trkpt lat="48.92841" lon="-0.49568">
        <ele>39.6</ele>
        <time>2023-05-02T12:23:15Z</time>
      </trkpt>
      <trkpt lat="48.9284" lon="-0.49559">
        <ele>39.6</ele>
        <time>2023-05-02T12:23:16Z</time>
      </trkpt>
      <trkpt lat="48.9284" lon="-0.49549">
        <ele>39.6</ele>
        <time>2023-05-02T12:23:17Z</time>
      </trkpt>
      <trkpt lat="48.9284" lon="-0.4954">
        <ele>39.6</ele>
        <time>2023-05-02T12:23:18Z</time>
      </trkpt>
      <trkpt lat="48.92839" lon="-0.49531">
        <ele>39.6</ele>
        <time>2023-05-02T12:23:19Z</time>
      </trkpt>
      <trkpt lat="48.92839" lon="-0.49522">
        <ele>39.6</ele>
        <time>2023-05-02T12:23:20Z</time>
      </trkpt>
      <trkpt lat="48.92839" lon="-0.49514">
        <ele>39.6</ele>
        <time>2023-05-02T12:23:21Z</time>
      </trkpt>
      <trkpt lat="48.92839" lon="-0.49505">
        <ele>39.6</ele>
        <time>2023-05-02T12:23:22Z</time>
      </trkpt>
      <trkpt lat="48.9284" lon="-0.49497">
        <ele>39.6</ele>
        <time>2023-05-02T12:23:23Z</time>
      </trkpt>
      <trkpt lat="48.9284" lon="-0.49489">
        <ele>39.8</ele>
        <time>2023-05-02T12:23:24Z</time>
      </trkpt>
      <trkpt lat="48.9284" lon="-0.49481">
        <ele>39.8</ele>
        <time>2023-05-02T12:23:25Z</time>
      </trkpt>
      <trkpt lat="48.9284" lon="-0.49473">
        <ele>40</ele>
        <time>2023-05-02T12:23:26Z</time>
      </trkpt>
      <trkpt lat="48.92839" lon="-0.49465">
        <ele>40</ele>
        <time>2023-05-02T12:23:27Z</time>
      </trkpt>
      <trkpt lat="48.92839" lon="-0.49458">
        <ele>40</ele>
        <time>2023-05-02T12:23:28Z</time>
      </trkpt>
      <trkpt lat="48.92838" lon="-0.49452">
        <ele>40</ele>
        <time>2023-05-02T12:23:29Z</time>
      </trkpt>
      <trkpt lat="48.92837" lon="-0.49448">
        <ele>40</ele>
        <time>2023-05-02T12:23:30Z</time>
      </trkpt>
      <trkpt lat="48.92836" lon="-0.49444">
        <ele>40</ele>
        <time>2023-05-02T12:23:31Z</time>
      </trkpt>
      <trkpt lat="48.92837" lon="-0.49439">
        <ele>40</ele>
        <time>2023-05-02T12:23:32Z</time>
      </trkpt>
      <trkpt lat="48.92837" lon="-0.49435">
        <ele>40</ele>
        <time>2023-05-02T12:23:33Z</time>
      </trkpt>
      <trkpt lat="48.92836" lon="-0.4943">
        <ele>40</ele>
        <time>2023-05-02T12:23:34Z</time>
      </trkpt>
      <trkpt lat="48.92835" lon="-0.49425">
        <ele>40</ele>
        <time>2023-05-02T12:23:35Z</time>
      </trkpt>
      <trkpt lat="48.92835" lon="-0.49419">
        <ele>40</ele>
        <time>2023-05-02T12:23:36Z</time>
      </trkpt>
      <trkpt lat="48.92835" lon="-0.49413">
        <ele>40.2</ele>
        <time>2023-05-02T12:23:37Z</time>
      </trkpt>
      <trkpt lat="48.92834" lon="-0.49407">
        <ele>40.2</ele>
        <time>2023-05-02T12:23:38Z</time>
      </trkpt>
      <trkpt lat="48.92834" lon="-0.494">
        <ele>40.4</ele>
        <time>2023-05-02T12:23:39Z</time>
      </trkpt>
      <trkpt lat="48.92833" lon="-0.49394">
        <ele>40.6</ele>
        <time>2023-05-02T12:23:40Z</time>
      </trkpt>
      <trkpt lat="48.92833" lon="-0.49387">
        <ele>40.8</ele>
        <time>2023-05-02T12:23:41Z</time>
      </trkpt>
      <trkpt lat="48.92832" lon="-0.49379">
        <ele>40.8</ele>
        <time>2023-05-02T12:23:42Z</time>
      </trkpt>
      <trkpt lat="48.92832" lon="-0.49372">
        <ele>41</ele>
        <time>2023-05-02T12:23:43Z</time>
      </trkpt>
      <trkpt lat="48.92831" lon="-0.49364">
        <ele>41</ele>
        <time>2023-05-02T12:23:44Z</time>
      </trkpt>
      <trkpt lat="48.92831" lon="-0.49356">
        <ele>41.2</ele>
        <time>2023-05-02T12:23:45Z</time>
      </trkpt>
      <trkpt lat="48.92831" lon="-0.49348">
        <ele>41.6</ele>
        <time>2023-05-02T12:23:46Z</time>
      </trkpt>
      <trkpt lat="48.9283" lon="-0.49339">
        <ele>41.6</ele>
        <time>2023-05-02T12:23:47Z</time>
      </trkpt>
      <trkpt lat="48.9283" lon="-0.49331">
        <ele>41.8</ele>
        <time>2023-05-02T12:23:48Z</time>
      </trkpt>
      <trkpt lat="48.92829" lon="-0.49323">
        <ele>41.8</ele>
        <time>2023-05-02T12:23:49Z</time>
      </trkpt>
      <trkpt lat="48.92829" lon="-0.49314">
        <ele>41.8</ele>
        <time>2023-05-02T12:23:50Z</time>
      </trkpt>
      <trkpt lat="48.92828" lon="-0.49306">
        <ele>41.6</ele>
        <time>2023-05-02T12:23:51Z</time>
      </trkpt>
      <trkpt lat="48.92827" lon="-0.49298">
        <ele>41.6</ele>
        <time>2023-05-02T12:23:52Z</time>
      </trkpt>
      <trkpt lat="48.92826" lon="-0.49289">
        <ele>41.6</ele>
        <time>2023-05-02T12:23:53Z</time>
      </trkpt>
      <trkpt lat="48.92825" lon="-0.49281">
        <ele>41.4</ele>
        <time>2023-05-02T12:23:54Z</time>
      </trkpt>
      <trkpt lat="48.92824" lon="-0.49272">
        <ele>41.2</ele>
        <time>2023-05-02T12:23:55Z</time>
      </trkpt>
      <trkpt lat="48.92823" lon="-0.49263">
        <ele>41.2</ele>
        <time>2023-05-02T12:23:56Z</time>
      </trkpt>
      <trkpt lat="48.92823" lon="-0.49253">
        <ele>41.2</ele>
        <time>2023-05-02T12:23:57Z</time>
      </trkpt>
      <trkpt lat="48.92822" lon="-0.49244">
        <ele>41.2</ele>
        <time>2023-05-02T12:23:58Z</time>
      </trkpt>
      <trkpt lat="48.92822" lon="-0.49235">
        <ele>41.2</ele>
        <time>2023-05-02T12:23:59Z</time>
      </trkpt>
      <trkpt lat="48.92821" lon="-0.49225">
        <ele>41.2</ele>
        <time>2023-05-02T12:24:00Z</time>
      </trkpt>
      <trkpt lat="48.92821" lon="-0.49216">
        <ele>41.2</ele>
        <time>2023-05-02T12:24:01Z</time>
      </trkpt>
      <trkpt lat="48.9282" lon="-0.49206">
        <ele>41.2</ele>
        <time>2023-05-02T12:24:02Z</time>
      </trkpt>
      <trkpt lat="48.9282" lon="-0.49197">
        <ele>41</ele>
        <time>2023-05-02T12:24:03Z</time>
      </trkpt>
      <trkpt lat="48.92819" lon="-0.49188">
        <ele>41</ele>
        <time>2023-05-02T12:24:04Z</time>
      </trkpt>
      <trkpt lat="48.92819" lon="-0.49179">
        <ele>41</ele>
        <time>2023-05-02T12:24:05Z</time>
      </trkpt>
      <trkpt lat="48.92818" lon="-0.49169">
        <ele>41</ele>
        <time>2023-05-02T12:24:06Z</time>
      </trkpt>
      <trkpt lat="48.92818" lon="-0.4916">
        <ele>41.2</ele>
        <time>2023-05-02T12:24:07Z</time>
      </trkpt>
      <trkpt lat="48.92817" lon="-0.49151">
        <ele>41.2</ele>
        <time>2023-05-02T12:24:08Z</time>
      </trkpt>
      <trkpt lat="48.92817" lon="-0.49141">
        <ele>41.2</ele>
        <time>2023-05-02T12:24:09Z</time>
      </trkpt>
      <trkpt lat="48.92817" lon="-0.49132">
        <ele>41.4</ele>
        <time>2023-05-02T12:24:10Z</time>
      </trkpt>
      <trkpt lat="48.92816" lon="-0.49122">
        <ele>41.6</ele>
        <time>2023-05-02T12:24:11Z</time>
      </trkpt>
      <trkpt lat="48.92816" lon="-0.49113">
        <ele>41.6</ele>
        <time>2023-05-02T12:24:12Z</time>
      </trkpt>
      <trkpt lat="48.92815" lon="-0.49103">
        <ele>41.8</ele>
        <time>2023-05-02T12:24:13Z</time>
      </trkpt>
      <trkpt lat="48.92815" lon="-0.49094">
        <ele>41.8</ele>
        <time>2023-05-02T12:24:14Z</time>
      </trkpt>
      <trkpt lat="48.92814" lon="-0.49084">
        <ele>42</ele>
        <time>2023-05-02T12:24:15Z</time>
      </trkpt>
      <trkpt lat="48.92814" lon="-0.49074">
        <ele>41.8</ele>
        <time>2023-05-02T12:24:16Z</time>
      </trkpt>
      <trkpt lat="48.92813" lon="-0.49065">
        <ele>41.8</ele>
        <time>2023-05-02T12:24:17Z</time>
      </trkpt>
      <trkpt lat="48.92813" lon="-0.49055">
        <ele>41.8</ele>
        <time>2023-05-02T12:24:18Z</time>
      </trkpt>
      <trkpt lat="48.92812" lon="-0.49045">
        <ele>41.6</ele>
        <time>2023-05-02T12:24:19Z</time>
      </trkpt>
      <trkpt lat="48.92812" lon="-0.49035">
        <ele>41.6</ele>
        <time>2023-05-02T12:24:20Z</time>
      </trkpt>
      <trkpt lat="48.92811" lon="-0.49025">
        <ele>41.6</ele>
        <time>2023-05-02T12:24:21Z</time>
      </trkpt>
      <trkpt lat="48.92811" lon="-0.49015">
        <ele>41.4</ele>
        <time>2023-05-02T12:24:22Z</time>
      </trkpt>
      <trkpt lat="48.9281" lon="-0.49005">
        <ele>41.4</ele>
        <time>2023-05-02T12:24:23Z</time>
      </trkpt>
      <trkpt lat="48.9281" lon="-0.48995">
        <ele>41.2</ele>
        <time>2023-05-02T12:24:24Z</time>
      </trkpt>
      <trkpt lat="48.92809" lon="-0.48985">
        <ele>41.2</ele>
        <time>2023-05-02T12:24:25Z</time>
      </trkpt>
      <trkpt lat="48.92809" lon="-0.48975">
        <ele>41.2</ele>
        <time>2023-05-02T12:24:26Z</time>
      </trkpt>
      <trkpt lat="48.92808" lon="-0.48965">
        <ele>41.2</ele>
        <time>2023-05-02T12:24:27Z</time>
      </trkpt>
      <trkpt lat="48.92807" lon="-0.48955">
        <ele>41</ele>
        <time>2023-05-02T12:24:28Z</time>
      </trkpt>
      <trkpt lat="48.92807" lon="-0.48945">
        <ele>41</ele>
        <time>2023-05-02T12:24:29Z</time>
      </trkpt>
      <trkpt lat="48.92806" lon="-0.48935">
        <ele>41</ele>
        <time>2023-05-02T12:24:30Z</time>
      </trkpt>
      <trkpt lat="48.92806" lon="-0.48925">
        <ele>41</ele>
        <time>2023-05-02T12:24:31Z</time>
      </trkpt>
      <trkpt lat="48.92805" lon="-0.48915">
        <ele>41</ele>
        <time>2023-05-02T12:24:32Z</time>
      </trkpt>
      <trkpt lat="48.92804" lon="-0.48905">
        <ele>41</ele>
        <time>2023-05-02T12:24:33Z</time>
      </trkpt>
      <trkpt lat="48.92804" lon="-0.48895">
        <ele>41</ele>
        <time>2023-05-02T12:24:34Z</time>
      </trkpt>
      <trkpt lat="48.92803" lon="-0.48886">
        <ele>40.8</ele>
        <time>2023-05-02T12:24:35Z</time>
      </trkpt>
      <trkpt lat="48.92803" lon="-0.48876">
        <ele>40.8</ele>
        <time>2023-05-02T12:24:36Z</time>
      </trkpt>
      <trkpt lat="48.92802" lon="-0.48866">
        <ele>40.8</ele>
        <time>2023-05-02T12:24:37Z</time>
      </trkpt>
      <trkpt lat="48.92802" lon="-0.48856">
        <ele>40.8</ele>
        <time>2023-05-02T12:24:38Z</time>
      </trkpt>
      <trkpt lat="48.92801" lon="-0.48846">
        <ele>40.8</ele>
        <time>2023-05-02T12:24:39Z</time>
      </trkpt>
      <trkpt lat="48.92801" lon="-0.48836">
        <ele>40.8</ele>
        <time>2023-05-02T12:24:40Z</time>
      </trkpt>
      <trkpt lat="48.928" lon="-0.48827">
        <ele>40.6</ele>
        <time>2023-05-02T12:24:41Z</time>
      </trkpt>
      <trkpt lat="48.928" lon="-0.48817">
        <ele>40.4</ele>
        <time>2023-05-02T12:24:42Z</time>
      </trkpt>
      <trkpt lat="48.92799" lon="-0.48806">
        <ele>40.2</ele>
        <time>2023-05-02T12:24:43Z</time>
      </trkpt>
      <trkpt lat="48.92799" lon="-0.48796">
        <ele>40</ele>
        <time>2023-05-02T12:24:44Z</time>
      </trkpt>
      <trkpt lat="48.92798" lon="-0.48786">
        <ele>40</ele>
        <time>2023-05-02T12:24:45Z</time>
      </trkpt>
      <trkpt lat="48.92798" lon="-0.48776">
        <ele>40</ele>
        <time>2023-05-02T12:24:46Z</time>
      </trkpt>
      <trkpt lat="48.92797" lon="-0.48766">
        <ele>39.8</ele>
        <time>2023-05-02T12:24:47Z</time>
      </trkpt>
      <trkpt lat="48.92797" lon="-0.48755">
        <ele>39.6</ele>
        <time>2023-05-02T12:24:48Z</time>
      </trkpt>
      <trkpt lat="48.92797" lon="-0.48745">
        <ele>39.6</ele>
        <time>2023-05-02T12:24:49Z</time>
      </trkpt>
      <trkpt lat="48.92798" lon="-0.48735">
        <ele>39.4</ele>
        <time>2023-05-02T12:24:50Z</time>
      </trkpt>
      <trkpt lat="48.92798" lon="-0.48725">
        <ele>39.2</ele>
        <time>2023-05-02T12:24:51Z</time>
      </trkpt>
      <trkpt lat="48.92798" lon="-0.48715">
        <ele>39.2</ele>
        <time>2023-05-02T12:24:52Z</time>
      </trkpt>
      <trkpt lat="48.92797" lon="-0.48704">
        <ele>39</ele>
        <time>2023-05-02T12:24:53Z</time>
      </trkpt>
      <trkpt lat="48.92797" lon="-0.48694">
        <ele>38.8</ele>
        <time>2023-05-02T12:24:54Z</time>
      </trkpt>
      <trkpt lat="48.92796" lon="-0.48684">
        <ele>38.6</ele>
        <time>2023-05-02T12:24:55Z</time>
      </trkpt>
      <trkpt lat="48.92796" lon="-0.48673">
        <ele>38.6</ele>
        <time>2023-05-02T12:24:56Z</time>
      </trkpt>
      <trkpt lat="48.92795" lon="-0.48663">
        <ele>38.4</ele>
        <time>2023-05-02T12:24:57Z</time>
      </trkpt>
      <trkpt lat="48.92795" lon="-0.48654">
        <ele>38.4</ele>
        <time>2023-05-02T12:24:58Z</time>
      </trkpt>
      <trkpt lat="48.92795" lon="-0.48645">
        <ele>38.4</ele>
        <time>2023-05-02T12:24:59Z</time>
      </trkpt>
      <trkpt lat="48.92795" lon="-0.48636">
        <ele>38.6</ele>
        <time>2023-05-02T12:25:00Z</time>
      </trkpt>
      <trkpt lat="48.92794" lon="-0.48627">
        <ele>38.6</ele>
        <time>2023-05-02T12:25:01Z</time>
      </trkpt>
      <trkpt lat="48.92794" lon="-0.48618">
        <ele>38.6</ele>
        <time>2023-05-02T12:25:02Z</time>
      </trkpt>
      <trkpt lat="48.92794" lon="-0.48608">
        <ele>38.6</ele>
        <time>2023-05-02T12:25:03Z</time>
      </trkpt>
      <trkpt lat="48.92794" lon="-0.48599">
        <ele>38.8</ele>
        <time>2023-05-02T12:25:04Z</time>
      </trkpt>
      <trkpt lat="48.92794" lon="-0.48589">
        <ele>38.8</ele>
        <time>2023-05-02T12:25:05Z</time>
      </trkpt>
      <trkpt lat="48.92794" lon="-0.4858">
        <ele>38.8</ele>
        <time>2023-05-02T12:25:06Z</time>
      </trkpt>
      <trkpt lat="48.92794" lon="-0.4857">
        <ele>38.8</ele>
        <time>2023-05-02T12:25:07Z</time>
      </trkpt>
      <trkpt lat="48.92793" lon="-0.4856">
        <ele>38.8</ele>
        <time>2023-05-02T12:25:08Z</time>
      </trkpt>
      <trkpt lat="48.92793" lon="-0.4855">
        <ele>38.8</ele>
        <time>2023-05-02T12:25:09Z</time>
      </trkpt>
      <trkpt lat="48.92793" lon="-0.4854">
        <ele>39</ele>
        <time>2023-05-02T12:25:10Z</time>
      </trkpt>
      <trkpt lat="48.92792" lon="-0.4853">
        <ele>39</ele>
        <time>2023-05-02T12:25:11Z</time>
      </trkpt>
      <trkpt lat="48.92791" lon="-0.48519">
        <ele>39</ele>
        <time>2023-05-02T12:25:12Z</time>
      </trkpt>
      <trkpt lat="48.92791" lon="-0.48508">
        <ele>38.8</ele>
        <time>2023-05-02T12:25:13Z</time>
      </trkpt>
      <trkpt lat="48.9279" lon="-0.48496">
        <ele>38.8</ele>
        <time>2023-05-02T12:25:14Z</time>
      </trkpt>
      <trkpt lat="48.92789" lon="-0.48485">
        <ele>38.8</ele>
        <time>2023-05-02T12:25:15Z</time>
      </trkpt>
      <trkpt lat="48.92788" lon="-0.48473">
        <ele>38.8</ele>
        <time>2023-05-02T12:25:16Z</time>
      </trkpt>
      <trkpt lat="48.92787" lon="-0.48462">
        <ele>38.8</ele>
        <time>2023-05-02T12:25:17Z</time>
      </trkpt>
      <trkpt lat="48.92786" lon="-0.48451">
        <ele>38.8</ele>
        <time>2023-05-02T12:25:18Z</time>
      </trkpt>
      <trkpt lat="48.92785" lon="-0.4844">
        <ele>38.8</ele>
        <time>2023-05-02T12:25:19Z</time>
      </trkpt>
      <trkpt lat="48.92785" lon="-0.48429">
        <ele>38.8</ele>
        <time>2023-05-02T12:25:20Z</time>
      </trkpt>
      <trkpt lat="48.92784" lon="-0.4842">
        <ele>38.8</ele>
        <time>2023-05-02T12:25:21Z</time>
      </trkpt>
      <trkpt lat="48.92784" lon="-0.48411">
        <ele>38.8</ele>
        <time>2023-05-02T12:25:22Z</time>
      </trkpt>
      <trkpt lat="48.92784" lon="-0.48402">
        <ele>39</ele>
        <time>2023-05-02T12:25:23Z</time>
      </trkpt>
      <trkpt lat="48.92784" lon="-0.48394">
        <ele>39</ele>
        <time>2023-05-02T12:25:24Z</time>
      </trkpt>
      <trkpt lat="48.92784" lon="-0.48385">
        <ele>39</ele>
        <time>2023-05-02T12:25:25Z</time>
      </trkpt>
      <trkpt lat="48.92784" lon="-0.48376">
        <ele>39.2</ele>
        <time>2023-05-02T12:25:26Z</time>
      </trkpt>
      <trkpt lat="48.92783" lon="-0.48366">
        <ele>39.2</ele>
        <time>2023-05-02T12:25:27Z</time>
      </trkpt>
      <trkpt lat="48.92783" lon="-0.48356">
        <ele>39.4</ele>
        <time>2023-05-02T12:25:28Z</time>
      </trkpt>
      <trkpt lat="48.92782" lon="-0.48346">
        <ele>39.6</ele>
        <time>2023-05-02T12:25:29Z</time>
      </trkpt>
      <trkpt lat="48.92782" lon="-0.48335">
        <ele>39.6</ele>
        <time>2023-05-02T12:25:30Z</time>
      </trkpt>
      <trkpt lat="48.92781" lon="-0.48325">
        <ele>39.6</ele>
        <time>2023-05-02T12:25:31Z</time>
      </trkpt>
      <trkpt lat="48.9278" lon="-0.48315">
        <ele>39.6</ele>
        <time>2023-05-02T12:25:32Z</time>
      </trkpt>
      <trkpt lat="48.9278" lon="-0.48304">
        <ele>39.6</ele>
        <time>2023-05-02T12:25:33Z</time>
      </trkpt>
      <trkpt lat="48.92779" lon="-0.48294">
        <ele>39.8</ele>
        <time>2023-05-02T12:25:34Z</time>
      </trkpt>
      <trkpt lat="48.92779" lon="-0.48285">
        <ele>39.8</ele>
        <time>2023-05-02T12:25:35Z</time>
      </trkpt>
      <trkpt lat="48.92778" lon="-0.48276">
        <ele>39.8</ele>
        <time>2023-05-02T12:25:36Z</time>
      </trkpt>
      <trkpt lat="48.92778" lon="-0.48268">
        <ele>40</ele>
        <time>2023-05-02T12:25:37Z</time>
      </trkpt>
      <trkpt lat="48.92779" lon="-0.48262">
        <ele>40</ele>
        <time>2023-05-02T12:25:38Z</time>
      </trkpt>
      <trkpt lat="48.92779" lon="-0.48257">
        <ele>40</ele>
        <time>2023-05-02T12:25:39Z</time>
      </trkpt>
      <trkpt lat="48.92779" lon="-0.48255">
        <ele>40</ele>
        <time>2023-05-02T12:25:40Z</time>
      </trkpt>
      <trkpt lat="48.92778" lon="-0.48254">
        <ele>40</ele>
        <time>2023-05-02T12:25:41Z</time>
      </trkpt>
      <trkpt lat="48.92778" lon="-0.48254">
        <ele>40</ele>
        <time>2023-05-02T12:25:42Z</time>
      </trkpt>
      <trkpt lat="48.92778" lon="-0.48254">
        <ele>40</ele>
        <time>2023-05-02T12:25:43Z</time>
      </trkpt>
      <trkpt lat="48.92778" lon="-0.48253">
        <ele>40</ele>
        <time>2023-05-02T12:25:44Z</time>
      </trkpt>
      <trkpt lat="48.92778" lon="-0.48253">
        <ele>40</ele>
        <time>2023-05-02T12:25:45Z</time>
      </trkpt>
      <trkpt lat="48.92778" lon="-0.48253">
        <ele>40</ele>
        <time>2023-05-02T12:25:46Z</time>
      </trkpt>
      <trkpt lat="48.92778" lon="-0.48253">
        <ele>40</ele>
        <time>2023-05-02T12:25:47Z</time>
      </trkpt>
      <trkpt lat="48.92778" lon="-0.48253">
        <ele>40</ele>
        <time>2023-05-02T12:25:48Z</time>
      </trkpt>
      <trkpt lat="48.92778" lon="-0.48253">
        <ele>40</ele>
        <time>2023-05-02T12:25:49Z</time>
      </trkpt>
      <trkpt lat="48.92778" lon="-0.48253">
        <ele>40</ele>
        <time>2023-05-02T12:25:50Z</time>
      </trkpt>
      <trkpt lat="48.92778" lon="-0.48253">
        <ele>40</ele>
        <time>2023-05-02T12:25:51Z</time>
      </trkpt>
      <trkpt lat="48.92778" lon="-0.48253">
        <ele>40</ele>
        <time>2023-05-02T12:25:52Z</time>
      </trkpt>
      <trkpt lat="48.92778" lon="-0.48253">
        <ele>40</ele>
        <time>2023-05-02T12:25:53Z</time>
      </trkpt>
      <trkpt lat="48.92778" lon="-0.48253">
        <ele>40</ele>
        <time>2023-05-02T12:25:54Z</time>
      </trkpt>
      <trkpt lat="48.92778" lon="-0.48253">
        <ele>40</ele>
        <time>2023-05-02T12:25:55Z</time>
      </trkpt>
      <trkpt lat="48.92778" lon="-0.48253">
        <ele>40</ele>
        <time>2023-05-02T12:25:56Z</time>
      </trkpt>
      <trkpt lat="48.92778" lon="-0.48253">
        <ele>40</ele>
        <time>2023-05-02T12:25:57Z</time>
      </trkpt>
      <trkpt lat="48.92778" lon="-0.48253">
        <ele>40</ele>
        <time>2023-05-02T12:25:58Z</time>
      </trkpt>
      <trkpt lat="48.92778" lon="-0.48253">
        <ele>40</ele>
        <time>2023-05-02T12:25:59Z</time>
      </trkpt>
      <trkpt lat="48.92778" lon="-0.48253">
        <ele>40</ele>
        <time>2023-05-02T12:26:00Z</time>
      </trkpt>
      <trkpt lat="48.92778" lon="-0.48253">
        <ele>40</ele>
        <time>2023-05-02T12:26:01Z</time>
      </trkpt>
      <trkpt lat="48.92778" lon="-0.48253">
        <ele>40</ele>
        <time>2023-05-02T12:26:02Z</time>
      </trkpt>
      <trkpt lat="48.92778" lon="-0.48253">
        <ele>40</ele>
        <time>2023-05-02T12:26:03Z</time>
      </trkpt>
      <trkpt lat="48.92778" lon="-0.48253">
        <ele>40</ele>
        <time>2023-05-02T12:26:04Z</time>
      </trkpt>
      <trkpt lat="48.92778" lon="-0.48253">
        <ele>40</ele>
        <time>2023-05-02T12:26:05Z</time>
      </trkpt>
      <trkpt lat="48.92778" lon="-0.48253">
        <ele>40</ele>
        <time>2023-05-02T12:26:06Z</time>
      </trkpt>
      <trkpt lat="48.92778" lon="-0.48253">
        <ele>40</ele>
        <time>2023-05-02T12:26:07Z</time>
      </trkpt>
      <trkpt lat="48.92778" lon="-0.48253">
        <ele>40</ele>
        <time>2023-05-02T12:26:08Z</time>
      </trkpt>
      <trkpt lat="48.92778" lon="-0.48253">
        <ele>40</ele>
        <time>2023-05-02T12:26:09Z</time>
      </trkpt>
      <trkpt lat="48.92778" lon="-0.48253">
        <ele>40</ele>
        <time>2023-05-02T12:26:10Z</time>
      </trkpt>
      <trkpt lat="48.92778" lon="-0.48253">
        <ele>40</ele>
        <time>2023-05-02T12:26:11Z</time>
      </trkpt>
      <trkpt lat="48.92778" lon="-0.48253">
        <ele>40</ele>
        <time>2023-05-02T12:26:12Z</time>
      </trkpt>
      <trkpt lat="48.92778" lon="-0.48253">
        <ele>40</ele>
        <time>2023-05-02T12:26:13Z</time>
      </trkpt>
      <trkpt lat="48.92778" lon="-0.48253">
        <ele>40</ele>
        <time>2023-05-02T12:26:14Z</time>
      </trkpt>
      <trkpt lat="48.92778" lon="-0.48253">
        <ele>40</ele>
        <time>2023-05-02T12:26:15Z</time>
      </trkpt>
      <trkpt lat="48.92778" lon="-0.48253">
        <ele>40</ele>
        <time>2023-05-02T12:26:16Z</time>
      </trkpt>
      <trkpt lat="48.92778" lon="-0.48253">
        <ele>40</ele>
        <time>2023-05-02T12:26:17Z</time>
      </trkpt>
      <trkpt lat="48.92778" lon="-0.48253">
        <ele>40</ele>
        <time>2023-05-02T12:26:18Z</time>
      </trkpt>
      <trkpt lat="48.92778" lon="-0.48253">
        <ele>40</ele>
        <time>2023-05-02T12:26:19Z</time>
      </trkpt>
      <trkpt lat="48.92778" lon="-0.48253">
        <ele>40</ele>
        <time>2023-05-02T12:26:20Z</time>
      </trkpt>
      <trkpt lat="48.92778" lon="-0.48253">
        <ele>40</ele>
        <time>2023-05-02T12:26:21Z</time>
      </trkpt>
      <trkpt lat="48.92778" lon="-0.48253">
        <ele>40</ele>
        <time>2023-05-02T12:26:22Z</time>
      </trkpt>
      <trkpt lat="48.92778" lon="-0.48253">
        <ele>40</ele>
        <time>2023-05-02T12:26:23Z</time>
      </trkpt>
      <trkpt lat="48.92778" lon="-0.48253">
        <ele>40</ele>
        <time>2023-05-02T12:26:24Z</time>
      </trkpt>
      <trkpt lat="48.92778" lon="-0.48253">
        <ele>40</ele>
        <time>2023-05-02T12:26:25Z</time>
      </trkpt>
      <trkpt lat="48.92778" lon="-0.48253">
        <ele>40</ele>
        <time>2023-05-02T12:26:26Z</time>
      </trkpt>
      <trkpt lat="48.92778" lon="-0.48253">
        <ele>40</ele>
        <time>2023-05-02T12:26:27Z</time>
      </trkpt>
      <trkpt lat="48.92778" lon="-0.48253">
        <ele>40</ele>
        <time>2023-05-02T12:26:28Z</time>
      </trkpt>
      <trkpt lat="48.92778" lon="-0.48253">
        <ele>40</ele>
        <time>2023-05-02T12:26:29Z</time>
      </trkpt>
      <trkpt lat="48.92778" lon="-0.48253">
        <ele>40</ele>
        <time>2023-05-02T12:26:30Z</time>
      </trkpt>
      <trkpt lat="48.92778" lon="-0.48253">
        <ele>40</ele>
        <time>2023-05-02T12:26:31Z</time>
      </trkpt>
      <trkpt lat="48.92778" lon="-0.48253">
        <ele>40</ele>
        <time>2023-05-02T12:26:32Z</time>
      </trkpt>
      <trkpt lat="48.92778" lon="-0.48253">
        <ele>40</ele>
        <time>2023-05-02T12:26:33Z</time>
      </trkpt>
      <trkpt lat="48.92778" lon="-0.48253">
        <ele>40</ele>
        <time>2023-05-02T12:26:34Z</time>
      </trkpt>
      <trkpt lat="48.92778" lon="-0.48253">
        <ele>40</ele>
        <time>2023-05-02T12:26:35Z</time>
      </trkpt>
      <trkpt lat="48.92778" lon="-0.48253">
        <ele>40</ele>
        <time>2023-05-02T12:26:36Z</time>
      </trkpt>
      <trkpt lat="48.92778" lon="-0.48252">
        <ele>40</ele>
        <time>2023-05-02T12:26:37Z</time>
      </trkpt>
      <trkpt lat="48.92778" lon="-0.4825">
        <ele>40</ele>
        <time>2023-05-02T12:26:38Z</time>
      </trkpt>
      <trkpt lat="48.92778" lon="-0.48246">
        <ele>40</ele>
        <time>2023-05-02T12:26:39Z</time>
      </trkpt>
      <trkpt lat="48.92778" lon="-0.48243">
        <ele>40.2</ele>
        <time>2023-05-02T12:26:40Z</time>
      </trkpt>
      <trkpt lat="48.92777" lon="-0.4824">
        <ele>40.2</ele>
        <time>2023-05-02T12:26:41Z</time>
      </trkpt>
      <trkpt lat="48.92777" lon="-0.48235">
        <ele>40.2</ele>
        <time>2023-05-02T12:26:42Z</time>
      </trkpt>
      <trkpt lat="48.92777" lon="-0.48231">
        <ele>40.2</ele>
        <time>2023-05-02T12:26:43Z</time>
      </trkpt>
      <trkpt lat="48.92776" lon="-0.48226">
        <ele>40.4</ele>
        <time>2023-05-02T12:26:44Z</time>
      </trkpt>
      <trkpt lat="48.92776" lon="-0.4822">
        <ele>40.6</ele>
        <time>2023-05-02T12:26:45Z</time>
      </trkpt>
      <trkpt lat="48.92775" lon="-0.48215">
        <ele>40.6</ele>
        <time>2023-05-02T12:26:46Z</time>
      </trkpt>
      <trkpt lat="48.92775" lon="-0.48209">
        <ele>40.8</ele>
        <time>2023-05-02T12:26:47Z</time>
      </trkpt>
      <trkpt lat="48.92774" lon="-0.48204">
        <ele>40.8</ele>
        <time>2023-05-02T12:26:48Z</time>
      </trkpt>
      <trkpt lat="48.92774" lon="-0.48198">
        <ele>40.8</ele>
        <time>2023-05-02T12:26:49Z</time>
      </trkpt>
      <trkpt lat="48.92773" lon="-0.48192">
        <ele>41</ele>
        <time>2023-05-02T12:26:50Z</time>
      </trkpt>
      <trkpt lat="48.92772" lon="-0.48186">
        <ele>41</ele>
        <time>2023-05-02T12:26:51Z</time>
      </trkpt>
      <trkpt lat="48.92771" lon="-0.48181">
        <ele>41</ele>
        <time>2023-05-02T12:26:52Z</time>
      </trkpt>
      <trkpt lat="48.92771" lon="-0.48175">
        <ele>41</ele>
        <time>2023-05-02T12:26:53Z</time>
      </trkpt>
      <trkpt lat="48.9277" lon="-0.48169">
        <ele>41</ele>
        <time>2023-05-02T12:26:54Z</time>
      </trkpt>
      <trkpt lat="48.92771" lon="-0.48163">
        <ele>41.2</ele>
        <time>2023-05-02T12:26:55Z</time>
      </trkpt>
      <trkpt lat="48.92771" lon="-0.48155">
        <ele>41.2</ele>
        <time>2023-05-02T12:26:56Z</time>
      </trkpt>
      <trkpt lat="48.9277" lon="-0.48147">
        <ele>41.2</ele>
        <time>2023-05-02T12:26:57Z</time>
      </trkpt>
      <trkpt lat="48.9277" lon="-0.48137">
        <ele>41.2</ele>
        <time>2023-05-02T12:26:58Z</time>
      </trkpt>
      <trkpt lat="48.92769" lon="-0.48128">
        <ele>41</ele>
        <time>2023-05-02T12:26:59Z</time>
      </trkpt>
      <trkpt lat="48.92768" lon="-0.48118">
        <ele>41</ele>
        <time>2023-05-02T12:27:00Z</time>
      </trkpt>
      <trkpt lat="48.92768" lon="-0.48109">
        <ele>41</ele>
        <time>2023-05-02T12:27:01Z</time>
      </trkpt>
      <trkpt lat="48.92767" lon="-0.481">
        <ele>40.8</ele>
        <time>2023-05-02T12:27:02Z</time>
      </trkpt>
      <trkpt lat="48.92767" lon="-0.48091">
        <ele>40.8</ele>
        <time>2023-05-02T12:27:03Z</time>
      </trkpt>
      <trkpt lat="48.92766" lon="-0.48081">
        <ele>40.8</ele>
        <time>2023-05-02T12:27:04Z</time>
      </trkpt>
      <trkpt lat="48.92766" lon="-0.48072">
        <ele>40.8</ele>
        <time>2023-05-02T12:27:05Z</time>
      </trkpt>
      <trkpt lat="48.92766" lon="-0.48063">
        <ele>41</ele>
        <time>2023-05-02T12:27:06Z</time>
      </trkpt>
      <trkpt lat="48.92765" lon="-0.48053">
        <ele>41</ele>
        <time>2023-05-02T12:27:07Z</time>
      </trkpt>
      <trkpt lat="48.92765" lon="-0.48044">
        <ele>41</ele>
        <time>2023-05-02T12:27:08Z</time>
      </trkpt>
      <trkpt lat="48.92765" lon="-0.48035">
        <ele>41</ele>
        <time>2023-05-02T12:27:09Z</time>
      </trkpt>
      <trkpt lat="48.92764" lon="-0.48025">
        <ele>41</ele>
        <time>2023-05-02T12:27:10Z</time>
      </trkpt>
      <trkpt lat="48.92764" lon="-0.48016">
        <ele>41</ele>
        <time>2023-05-02T12:27:11Z</time>
      </trkpt>
      <trkpt lat="48.92763" lon="-0.48005">
        <ele>41</ele>
        <time>2023-05-02T12:27:12Z</time>
      </trkpt>
      <trkpt lat="48.92763" lon="-0.47995">
        <ele>41</ele>
        <time>2023-05-02T12:27:13Z</time>
      </trkpt>
      <trkpt lat="48.92762" lon="-0.47984">
        <ele>41</ele>
        <time>2023-05-02T12:27:14Z</time>
      </trkpt>
      <trkpt lat="48.92762" lon="-0.47972">
        <ele>41.2</ele>
        <time>2023-05-02T12:27:15Z</time>
      </trkpt>
      <trkpt lat="48.92762" lon="-0.47961">
        <ele>41.2</ele>
        <time>2023-05-02T12:27:16Z</time>
      </trkpt>
      <trkpt lat="48.92762" lon="-0.4795">
        <ele>41.6</ele>
        <time>2023-05-02T12:27:17Z</time>
      </trkpt>
      <trkpt lat="48.92762" lon="-0.47939">
        <ele>42</ele>
        <time>2023-05-02T12:27:18Z</time>
      </trkpt>
      <trkpt lat="48.92763" lon="-0.47928">
        <ele>42.2</ele>
        <time>2023-05-02T12:27:19Z</time>
      </trkpt>
      <trkpt lat="48.92764" lon="-0.47917">
        <ele>42.8</ele>
        <time>2023-05-02T12:27:20Z</time>
      </trkpt>
      <trkpt lat="48.92764" lon="-0.47907">
        <ele>43.2</ele>
        <time>2023-05-02T12:27:21Z</time>
      </trkpt>
      <trkpt lat="48.92765" lon="-0.47896">
        <ele>44</ele>
        <time>2023-05-02T12:27:22Z</time>
      </trkpt>
      <trkpt lat="48.92767" lon="-0.47885">
        <ele>44.6</ele>
        <time>2023-05-02T12:27:23Z</time>
      </trkpt>
      <trkpt lat="48.92768" lon="-0.47874">
        <ele>45.4</ele>
        <time>2023-05-02T12:27:24Z</time>
      </trkpt>
      <trkpt lat="48.92769" lon="-0.47864">
        <ele>46</ele>
        <time>2023-05-02T12:27:25Z</time>
      </trkpt>
      <trkpt lat="48.9277" lon="-0.47853">
        <ele>47</ele>
        <time>2023-05-02T12:27:26Z</time>
      </trkpt>
      <trkpt lat="48.92771" lon="-0.47842">
        <ele>48</ele>
        <time>2023-05-02T12:27:27Z</time>
      </trkpt>
      <trkpt lat="48.92773" lon="-0.47831">
        <ele>48.8</ele>
        <time>2023-05-02T12:27:28Z</time>
      </trkpt>
      <trkpt lat="48.92774" lon="-0.47821">
        <ele>50</ele>
        <time>2023-05-02T12:27:29Z</time>
      </trkpt>
      <trkpt lat="48.92776" lon="-0.4781">
        <ele>51</ele>
        <time>2023-05-02T12:27:30Z</time>
      </trkpt>
      <trkpt lat="48.92777" lon="-0.478">
        <ele>52.2</ele>
        <time>2023-05-02T12:27:31Z</time>
      </trkpt>
      <trkpt lat="48.92779" lon="-0.4779">
        <ele>53.4</ele>
        <time>2023-05-02T12:27:32Z</time>
      </trkpt>
      <trkpt lat="48.92781" lon="-0.47779">
        <ele>54.8</ele>
        <time>2023-05-02T12:27:33Z</time>
      </trkpt>
      <trkpt lat="48.92783" lon="-0.47769">
        <ele>56</ele>
        <time>2023-05-02T12:27:34Z</time>
      </trkpt>
      <trkpt lat="48.92784" lon="-0.47759">
        <ele>57.2</ele>
        <time>2023-05-02T12:27:35Z</time>
      </trkpt>
      <trkpt lat="48.92786" lon="-0.47748">
        <ele>58.4</ele>
        <time>2023-05-02T12:27:36Z</time>
      </trkpt>
      <trkpt lat="48.92788" lon="-0.47738">
        <ele>58.6</ele>
        <time>2023-05-02T12:27:37Z</time>
      </trkpt>
      <trkpt lat="48.9279" lon="-0.47728">
        <ele>58.8</ele>
        <time>2023-05-02T12:27:38Z</time>
      </trkpt>
      <trkpt lat="48.92792" lon="-0.47717">
        <ele>58.8</ele>
        <time>2023-05-02T12:27:39Z</time>
      </trkpt>
      <trkpt lat="48.92794" lon="-0.47706">
        <ele>59</ele>
        <time>2023-05-02T12:27:40Z</time>
      </trkpt>
      <trkpt lat="48.92796" lon="-0.47696">
        <ele>59</ele>
        <time>2023-05-02T12:27:41Z</time>
      </trkpt>
      <trkpt lat="48.92798" lon="-0.47685">
        <ele>59</ele>
        <time>2023-05-02T12:27:42Z</time>
      </trkpt>
      <trkpt lat="48.928" lon="-0.47674">
        <ele>59</ele>
        <time>2023-05-02T12:27:43Z</time>
      </trkpt>
      <trkpt lat="48.92802" lon="-0.47663">
        <ele>59</ele>
        <time>2023-05-02T12:27:44Z</time>
      </trkpt>
      <trkpt lat="48.92804" lon="-0.47653">
        <ele>59</ele>
        <time>2023-05-02T12:27:45Z</time>
      </trkpt>
      <trkpt lat="48.92806" lon="-0.47642">
        <ele>58.8</ele>
        <time>2023-05-02T12:27:46Z</time>
      </trkpt>
      <trkpt lat="48.92808" lon="-0.47632">
        <ele>58.6</ele>
        <time>2023-05-02T12:27:47Z</time>
      </trkpt>
      <trkpt lat="48.9281" lon="-0.47622">
        <ele>58.2</ele>
        <time>2023-05-02T12:27:48Z</time>
      </trkpt>
      <trkpt lat="48.92812" lon="-0.47612">
        <ele>58</ele>
        <time>2023-05-02T12:27:49Z</time>
      </trkpt>
      <trkpt lat="48.92814" lon="-0.47601">
        <ele>57.4</ele>
        <time>2023-05-02T12:27:50Z</time>
      </trkpt>
      <trkpt lat="48.92816" lon="-0.4759">
        <ele>56.8</ele>
        <time>2023-05-02T12:27:51Z</time>
      </trkpt>
      <trkpt lat="48.92818" lon="-0.47579">
        <ele>56</ele>
        <time>2023-05-02T12:27:52Z</time>
      </trkpt>
      <trkpt lat="48.92819" lon="-0.47569">
        <ele>55.8</ele>
        <time>2023-05-02T12:27:53Z</time>
      </trkpt>
      <trkpt lat="48.9282" lon="-0.47558">
        <ele>55.2</ele>
        <time>2023-05-02T12:27:54Z</time>
      </trkpt>
      <trkpt lat="48.92821" lon="-0.47546">
        <ele>54.8</ele>
        <time>2023-05-02T12:27:55Z</time>
      </trkpt>
      <trkpt lat="48.92822" lon="-0.47535">
        <ele>54.2</ele>
        <time>2023-05-02T12:27:56Z</time>
      </trkpt>
      <trkpt lat="48.92823" lon="-0.47524">
        <ele>53.6</ele>
        <time>2023-05-02T12:27:57Z</time>
      </trkpt>
      <trkpt lat="48.92823" lon="-0.47513">
        <ele>52.8</ele>
        <time>2023-05-02T12:27:58Z</time>
      </trkpt>
      <trkpt lat="48.92823" lon="-0.47502">
        <ele>52</ele>
        <time>2023-05-02T12:27:59Z</time>
      </trkpt>
      <trkpt lat="48.92823" lon="-0.4749">
        <ele>51</ele>
        <time>2023-05-02T12:28:00Z</time>
      </trkpt>
      <trkpt lat="48.92823" lon="-0.47479">
        <ele>50</ele>
        <time>2023-05-02T12:28:01Z</time>
      </trkpt>
      <trkpt lat="48.92823" lon="-0.47468">
        <ele>48.8</ele>
        <time>2023-05-02T12:28:02Z</time>
      </trkpt>
      <trkpt lat="48.92822" lon="-0.47457">
        <ele>47.8</ele>
        <time>2023-05-02T12:28:03Z</time>
      </trkpt>
      <trkpt lat="48.92821" lon="-0.47446">
        <ele>46.6</ele>
        <time>2023-05-02T12:28:04Z</time>
      </trkpt>
      <trkpt lat="48.92821" lon="-0.47435">
        <ele>45.6</ele>
        <time>2023-05-02T12:28:05Z</time>
      </trkpt>
      <trkpt lat="48.9282" lon="-0.47424">
        <ele>44.6</ele>
        <time>2023-05-02T12:28:06Z</time>
      </trkpt>
      <trkpt lat="48.92819" lon="-0.47414">
        <ele>43.6</ele>
        <time>2023-05-02T12:28:07Z</time>
      </trkpt>
      <trkpt lat="48.92817" lon="-0.47403">
        <ele>43</ele>
        <time>2023-05-02T12:28:08Z</time>
      </trkpt>
      <trkpt lat="48.92816" lon="-0.47393">
        <ele>42.6</ele>
        <time>2023-05-02T12:28:09Z</time>
      </trkpt>
      <trkpt lat="48.92814" lon="-0.47383">
        <ele>42.2</ele>
        <time>2023-05-02T12:28:10Z</time>
      </trkpt>
      <trkpt lat="48.92813" lon="-0.47372">
        <ele>41.8</ele>
        <time>2023-05-02T12:28:11Z</time>
      </trkpt>
      <trkpt lat="48.92811" lon="-0.47362">
        <ele>41.2</ele>
        <time>2023-05-02T12:28:12Z</time>
      </trkpt>
      <trkpt lat="48.92809" lon="-0.47352">
        <ele>40.8</ele>
        <time>2023-05-02T12:28:13Z</time>
      </trkpt>
      <trkpt lat="48.92806" lon="-0.47342">
        <ele>40.2</ele>
        <time>2023-05-02T12:28:14Z</time>
      </trkpt>
      <trkpt lat="48.92804" lon="-0.47332">
        <ele>40</ele>
        <time>2023-05-02T12:28:15Z</time>
      </trkpt>
      <trkpt lat="48.92801" lon="-0.47322">
        <ele>40.8</ele>
        <time>2023-05-02T12:28:16Z</time>
      </trkpt>
      <trkpt lat="48.92798" lon="-0.47312">
        <ele>41.2</ele>
        <time>2023-05-02T12:28:17Z</time>
      </trkpt>
      <trkpt lat="48.92796" lon="-0.47302">
        <ele>41.6</ele>
        <time>2023-05-02T12:28:18Z</time>
      </trkpt>
      <trkpt lat="48.92793" lon="-0.47292">
        <ele>41.8</ele>
        <time>2023-05-02T12:28:19Z</time>
      </trkpt>
      <trkpt lat="48.9279" lon="-0.47282">
        <ele>42</ele>
        <time>2023-05-02T12:28:20Z</time>
      </trkpt>
      <trkpt lat="48.92786" lon="-0.47272">
        <ele>42</ele>
        <time>2023-05-02T12:28:21Z</time>
      </trkpt>
      <trkpt lat="48.92783" lon="-0.47263">
        <ele>41.8</ele>
        <time>2023-05-02T12:28:22Z</time>
      </trkpt>
      <trkpt lat="48.92779" lon="-0.47253">
        <ele>41.6</ele>
        <time>2023-05-02T12:28:23Z</time>
      </trkpt>
      <trkpt lat="48.92775" lon="-0.47243">
        <ele>41.8</ele>
        <time>2023-05-02T12:28:24Z</time>
      </trkpt>
      <trkpt lat="48.92772" lon="-0.47234">
        <ele>42.2</ele>
        <time>2023-05-02T12:28:25Z</time>
      </trkpt>
      <trkpt lat="48.92768" lon="-0.47224">
        <ele>42.4</ele>
        <time>2023-05-02T12:28:26Z</time>
      </trkpt>
      <trkpt lat="48.92764" lon="-0.47215">
        <ele>42.6</ele>
        <time>2023-05-02T12:28:27Z</time>
      </trkpt>
      <trkpt lat="48.9276" lon="-0.47206">
        <ele>42.2</ele>
        <time>2023-05-02T12:28:28Z</time>
      </trkpt>
      <trkpt lat="48.92755" lon="-0.47197">
        <ele>42</ele>
        <time>2023-05-02T12:28:29Z</time>
      </trkpt>
      <trkpt lat="48.92751" lon="-0.47189">
        <ele>41.4</ele>
        <time>2023-05-02T12:28:30Z</time>
      </trkpt>
      <trkpt lat="48.92747" lon="-0.47181">
        <ele>41.6</ele>
        <time>2023-05-02T12:28:31Z</time>
      </trkpt>
      <trkpt lat="48.92742" lon="-0.47172">
        <ele>41.8</ele>
        <time>2023-05-02T12:28:32Z</time>
      </trkpt>
      <trkpt lat="48.92737" lon="-0.47165">
        <ele>42.2</ele>
        <time>2023-05-02T12:28:33Z</time>
      </trkpt>
      <trkpt lat="48.92733" lon="-0.47157">
        <ele>43.8</ele>
        <time>2023-05-02T12:28:34Z</time>
      </trkpt>
      <trkpt lat="48.92728" lon="-0.4715">
        <ele>45</ele>
        <time>2023-05-02T12:28:35Z</time>
      </trkpt>
      <trkpt lat="48.92723" lon="-0.47142">
        <ele>46</ele>
        <time>2023-05-02T12:28:36Z</time>
      </trkpt>
      <trkpt lat="48.92718" lon="-0.47136">
        <ele>47</ele>
        <time>2023-05-02T12:28:37Z</time>
      </trkpt>
      <trkpt lat="48.92713" lon="-0.47129">
        <ele>47.8</ele>
        <time>2023-05-02T12:28:38Z</time>
      </trkpt>
      <trkpt lat="48.92708" lon="-0.47122">
        <ele>48.2</ele>
        <time>2023-05-02T12:28:39Z</time>
      </trkpt>
      <trkpt lat="48.92703" lon="-0.47116">
        <ele>48.8</ele>
        <time>2023-05-02T12:28:40Z</time>
      </trkpt>
      <trkpt lat="48.92698" lon="-0.4711">
        <ele>49.2</ele>
        <time>2023-05-02T12:28:41Z</time>
      </trkpt>
      <trkpt lat="48.92693" lon="-0.47104">
        <ele>49.4</ele>
        <time>2023-05-02T12:28:42Z</time>
      </trkpt>
      <trkpt lat="48.92688" lon="-0.47099">
        <ele>49.6</ele>
        <time>2023-05-02T12:28:43Z</time>
      </trkpt>
      <trkpt lat="48.92682" lon="-0.47093">
        <ele>49.6</ele>
        <time>2023-05-02T12:28:44Z</time>
      </trkpt>
      <trkpt lat="48.92677" lon="-0.47088">
        <ele>49.4</ele>
        <time>2023-05-02T12:28:45Z</time>
      </trkpt>
      <trkpt lat="48.92672" lon="-0.47083">
        <ele>49.2</ele>
        <time>2023-05-02T12:28:46Z</time>
      </trkpt>
      <trkpt lat="48.92666" lon="-0.47078">
        <ele>50</ele>
        <time>2023-05-02T12:28:47Z</time>
      </trkpt>
      <trkpt lat="48.92661" lon="-0.47073">
        <ele>51</ele>
        <time>2023-05-02T12:28:48Z</time>
      </trkpt>
      <trkpt lat="48.92655" lon="-0.47069">
        <ele>52.2</ele>
        <time>2023-05-02T12:28:49Z</time>
      </trkpt>
      <trkpt lat="48.9265" lon="-0.47064">
        <ele>53</ele>
        <time>2023-05-02T12:28:50Z</time>
      </trkpt>
      <trkpt lat="48.92644" lon="-0.4706">
        <ele>54</ele>
        <time>2023-05-02T12:28:51Z</time>
      </trkpt>
      <trkpt lat="48.92638" lon="-0.47056">
        <ele>54.6</ele>
        <time>2023-05-02T12:28:52Z</time>
      </trkpt>
      <trkpt lat="48.92632" lon="-0.47052">
        <ele>55.2</ele>
        <time>2023-05-02T12:28:53Z</time>
      </trkpt>
      <trkpt lat="48.92626" lon="-0.47048">
        <ele>55.8</ele>
        <time>2023-05-02T12:28:54Z</time>
      </trkpt>
      <trkpt lat="48.9262" lon="-0.47045">
        <ele>56</ele>
        <time>2023-05-02T12:28:55Z</time>
      </trkpt>
      <trkpt lat="48.92614" lon="-0.47042">
        <ele>56.2</ele>
        <time>2023-05-02T12:28:56Z</time>
      </trkpt>
      <trkpt lat="48.92608" lon="-0.47038">
        <ele>56.6</ele>
        <time>2023-05-02T12:28:57Z</time>
      </trkpt>
      <trkpt lat="48.92602" lon="-0.47035">
        <ele>56.6</ele>
        <time>2023-05-02T12:28:58Z</time>
      </trkpt>
      <trkpt lat="48.92596" lon="-0.47033">
        <ele>56.4</ele>
        <time>2023-05-02T12:28:59Z</time>
      </trkpt>
      <trkpt lat="48.9259" lon="-0.4703">
        <ele>56.2</ele>
        <time>2023-05-02T12:29:00Z</time>
      </trkpt>
      <trkpt lat="48.92583" lon="-0.47028">
        <ele>56</ele>
        <time>2023-05-02T12:29:01Z</time>
      </trkpt>
      <trkpt lat="48.92577" lon="-0.47026">
        <ele>56</ele>
        <time>2023-05-02T12:29:02Z</time>
      </trkpt>
      <trkpt lat="48.92571" lon="-0.47024">
        <ele>56.2</ele>
        <time>2023-05-02T12:29:03Z</time>
      </trkpt>
      <trkpt lat="48.92564" lon="-0.47022">
        <ele>56</ele>
        <time>2023-05-02T12:29:04Z</time>
      </trkpt>
      <trkpt lat="48.92558" lon="-0.47021">
        <ele>56</ele>
        <time>2023-05-02T12:29:05Z</time>
      </trkpt>
      <trkpt lat="48.92552" lon="-0.4702">
        <ele>55.8</ele>
        <time>2023-05-02T12:29:06Z</time>
      </trkpt>
      <trkpt lat="48.92545" lon="-0.47019">
        <ele>55.6</ele>
        <time>2023-05-02T12:29:07Z</time>
      </trkpt>
      <trkpt lat="48.92539" lon="-0.47018">
        <ele>55.2</ele>
        <time>2023-05-02T12:29:08Z</time>
      </trkpt>
      <trkpt lat="48.92532" lon="-0.47018">
        <ele>54.8</ele>
        <time>2023-05-02T12:29:09Z</time>
      </trkpt>
      <trkpt lat="48.92526" lon="-0.47018">
        <ele>54.2</ele>
        <time>2023-05-02T12:29:10Z</time>
      </trkpt>
      <trkpt lat="48.9252" lon="-0.47017">
        <ele>53.8</ele>
        <time>2023-05-02T12:29:11Z</time>
      </trkpt>
      <trkpt lat="48.92513" lon="-0.47018">
        <ele>53.2</ele>
        <time>2023-05-02T12:29:12Z</time>
      </trkpt>
      <trkpt lat="48.92507" lon="-0.47018">
        <ele>52.8</ele>
        <time>2023-05-02T12:29:13Z</time>
      </trkpt>
      <trkpt lat="48.925" lon="-0.47018">
        <ele>52</ele>
        <time>2023-05-02T12:29:14Z</time>
      </trkpt>
      <trkpt lat="48.92494" lon="-0.47019">
        <ele>52</ele>
        <time>2023-05-02T12:29:15Z</time>
      </trkpt>
      <trkpt lat="48.92488" lon="-0.4702">
        <ele>52.2</ele>
        <time>2023-05-02T12:29:16Z</time>
      </trkpt>
      <trkpt lat="48.92481" lon="-0.47021">
        <ele>52.2</ele>
        <time>2023-05-02T12:29:17Z</time>
      </trkpt>
      <trkpt lat="48.92475" lon="-0.47022">
        <ele>52</ele>
        <time>2023-05-02T12:29:18Z</time>
      </trkpt>
      <trkpt lat="48.92469" lon="-0.47023">
        <ele>52</ele>
        <time>2023-05-02T12:29:19Z</time>
      </trkpt>
      <trkpt lat="48.92462" lon="-0.47025">
        <ele>52</ele>
        <time>2023-05-02T12:29:20Z</time>
      </trkpt>
      <trkpt lat="48.92456" lon="-0.47026">
        <ele>52</ele>
        <time>2023-05-02T12:29:21Z</time>
      </trkpt>
      <trkpt lat="48.92449" lon="-0.47027">
        <ele>51.8</ele>
        <time>2023-05-02T12:29:22Z</time>
      </trkpt>
      <trkpt lat="48.92443" lon="-0.47029">
        <ele>51.6</ele>
        <time>2023-05-02T12:29:23Z</time>
      </trkpt>
      <trkpt lat="48.92437" lon="-0.4703">
        <ele>51.4</ele>
        <time>2023-05-02T12:29:24Z</time>
      </trkpt>
      <trkpt lat="48.9243" lon="-0.47032">
        <ele>51.2</ele>
        <time>2023-05-02T12:29:25Z</time>
      </trkpt>
      <trkpt lat="48.92424" lon="-0.47033">
        <ele>51</ele>
        <time>2023-05-02T12:29:26Z</time>
      </trkpt>
      <trkpt lat="48.92418" lon="-0.47035">
        <ele>50.8</ele>
        <time>2023-05-02T12:29:27Z</time>
      </trkpt>
      <trkpt lat="48.92412" lon="-0.47036">
        <ele>50.8</ele>
        <time>2023-05-02T12:29:28Z</time>
      </trkpt>
      <trkpt lat="48.92405" lon="-0.47038">
        <ele>50.6</ele>
        <time>2023-05-02T12:29:29Z</time>
      </trkpt>
      <trkpt lat="48.92399" lon="-0.4704">
        <ele>50.4</ele>
        <time>2023-05-02T12:29:30Z</time>
      </trkpt>
      <trkpt lat="48.92393" lon="-0.47041">
        <ele>50.2</ele>
        <time>2023-05-02T12:29:31Z</time>
      </trkpt>
      <trkpt lat="48.92387" lon="-0.47043">
        <ele>50</ele>
        <time>2023-05-02T12:29:32Z</time>
      </trkpt>
      <trkpt lat="48.9238" lon="-0.47045">
        <ele>50</ele>
        <time>2023-05-02T12:29:33Z</time>
      </trkpt>
      <trkpt lat="48.92374" lon="-0.47047">
        <ele>49.6</ele>
        <time>2023-05-02T12:29:34Z</time>
      </trkpt>
      <trkpt lat="48.92368" lon="-0.47049">
        <ele>49.4</ele>
        <time>2023-05-02T12:29:35Z</time>
      </trkpt>
      <trkpt lat="48.92361" lon="-0.47051">
        <ele>49</ele>
        <time>2023-05-02T12:29:36Z</time>
      </trkpt>
      <trkpt lat="48.92355" lon="-0.47053">
        <ele>48.8</ele>
        <time>2023-05-02T12:29:37Z</time>
      </trkpt>
      <trkpt lat="48.92348" lon="-0.47055">
        <ele>48.6</ele>
        <time>2023-05-02T12:29:38Z</time>
      </trkpt>
      <trkpt lat="48.92342" lon="-0.47057">
        <ele>48.2</ele>
        <time>2023-05-02T12:29:39Z</time>
      </trkpt>
      <trkpt lat="48.92335" lon="-0.47059">
        <ele>48</ele>
        <time>2023-05-02T12:29:40Z</time>
      </trkpt>
      <trkpt lat="48.92329" lon="-0.47061">
        <ele>47.8</ele>
        <time>2023-05-02T12:29:41Z</time>
      </trkpt>
      <trkpt lat="48.92323" lon="-0.47063">
        <ele>47.6</ele>
        <time>2023-05-02T12:29:42Z</time>
      </trkpt>
      <trkpt lat="48.92316" lon="-0.47065">
        <ele>47.4</ele>
        <time>2023-05-02T12:29:43Z</time>
      </trkpt>
      <trkpt lat="48.9231" lon="-0.47067">
        <ele>47.2</ele>
        <time>2023-05-02T12:29:44Z</time>
      </trkpt>
      <trkpt lat="48.92303" lon="-0.47069">
        <ele>47</ele>
        <time>2023-05-02T12:29:45Z</time>
      </trkpt>
      <trkpt lat="48.92297" lon="-0.47071">
        <ele>47</ele>
        <time>2023-05-02T12:29:46Z</time>
      </trkpt>
      <trkpt lat="48.92291" lon="-0.47073">
        <ele>47</ele>
        <time>2023-05-02T12:29:47Z</time>
      </trkpt>
      <trkpt lat="48.92285" lon="-0.47075">
        <ele>46.8</ele>
        <time>2023-05-02T12:29:48Z</time>
      </trkpt>
      <trkpt lat="48.92278" lon="-0.47077">
        <ele>46.8</ele>
        <time>2023-05-02T12:29:49Z</time>
      </trkpt>
      <trkpt lat="48.92272" lon="-0.47078">
        <ele>46.8</ele>
        <time>2023-05-02T12:29:50Z</time>
      </trkpt>
      <trkpt lat="48.92266" lon="-0.4708">
        <ele>46.8</ele>
        <time>2023-05-02T12:29:51Z</time>
      </trkpt>
      <trkpt lat="48.9226" lon="-0.47081">
        <ele>46.8</ele>
        <time>2023-05-02T12:29:52Z</time>
      </trkpt>
      <trkpt lat="48.92254" lon="-0.47083">
        <ele>46.8</ele>
        <time>2023-05-02T12:29:53Z</time>
      </trkpt>
      <trkpt lat="48.92248" lon="-0.47085">
        <ele>47</ele>
        <time>2023-05-02T12:29:54Z</time>
      </trkpt>
      <trkpt lat="48.92243" lon="-0.47086">
        <ele>47.4</ele>
        <time>2023-05-02T12:29:55Z</time>
      </trkpt>
      <trkpt lat="48.92237" lon="-0.47089">
        <ele>47.8</ele>
        <time>2023-05-02T12:29:56Z</time>
      </trkpt>
      <trkpt lat="48.92231" lon="-0.4709">
        <ele>48</ele>
        <time>2023-05-02T12:29:57Z</time>
      </trkpt>
      <trkpt lat="48.92226" lon="-0.47092">
        <ele>48.6</ele>
        <time>2023-05-02T12:29:58Z</time>
      </trkpt>
      <trkpt lat="48.92219" lon="-0.47094">
        <ele>49</ele>
        <time>2023-05-02T12:29:59Z</time>
      </trkpt>
      <trkpt lat="48.92213" lon="-0.47096">
        <ele>49.2</ele>
        <time>2023-05-02T12:30:00Z</time>
      </trkpt>
      <trkpt lat="48.92206" lon="-0.47098">
        <ele>49.8</ele>
        <time>2023-05-02T12:30:01Z</time>
      </trkpt>
      <trkpt lat="48.922" lon="-0.471">
        <ele>50</ele>
        <time>2023-05-02T12:30:02Z</time>
      </trkpt>
      <trkpt lat="48.92193" lon="-0.47102">
        <ele>50.4</ele>
        <time>2023-05-02T12:30:03Z</time>
      </trkpt>
      <trkpt lat="48.92187" lon="-0.47104">
        <ele>50.8</ele>
        <time>2023-05-02T12:30:04Z</time>
      </trkpt>
      <trkpt lat="48.9218" lon="-0.47106">
        <ele>51</ele>
        <time>2023-05-02T12:30:05Z</time>
      </trkpt>
      <trkpt lat="48.92174" lon="-0.47108">
        <ele>51.2</ele>
        <time>2023-05-02T12:30:06Z</time>
      </trkpt>
      <trkpt lat="48.92167" lon="-0.4711">
        <ele>51.4</ele>
        <time>2023-05-02T12:30:07Z</time>
      </trkpt>
      <trkpt lat="48.92161" lon="-0.47112">
        <ele>51.6</ele>
        <time>2023-05-02T12:30:08Z</time>
      </trkpt>
      <trkpt lat="48.92155" lon="-0.47115">
        <ele>51.6</ele>
        <time>2023-05-02T12:30:09Z</time>
      </trkpt>
      <trkpt lat="48.92148" lon="-0.47117">
        <ele>51.6</ele>
        <time>2023-05-02T12:30:10Z</time>
      </trkpt>
      <trkpt lat="48.92142" lon="-0.47119">
        <ele>51.8</ele>
        <time>2023-05-02T12:30:11Z</time>
      </trkpt>
      <trkpt lat="48.92135" lon="-0.47122">
        <ele>51.6</ele>
        <time>2023-05-02T12:30:12Z</time>
      </trkpt>
      <trkpt lat="48.92129" lon="-0.47124">
        <ele>51.6</ele>
        <time>2023-05-02T12:30:13Z</time>
      </trkpt>
      <trkpt lat="48.92123" lon="-0.47127">
        <ele>51.6</ele>
        <time>2023-05-02T12:30:14Z</time>
      </trkpt>
      <trkpt lat="48.92117" lon="-0.47129">
        <ele>51.4</ele>
        <time>2023-05-02T12:30:15Z</time>
      </trkpt>
      <trkpt lat="48.9211" lon="-0.47132">
        <ele>51.2</ele>
        <time>2023-05-02T12:30:16Z</time>
      </trkpt>
      <trkpt lat="48.92104" lon="-0.47135">
        <ele>51</ele>
        <time>2023-05-02T12:30:17Z</time>
      </trkpt>
      <trkpt lat="48.92097" lon="-0.47138">
        <ele>51</ele>
        <time>2023-05-02T12:30:18Z</time>
      </trkpt>
      <trkpt lat="48.92091" lon="-0.4714">
        <ele>50.8</ele>
        <time>2023-05-02T12:30:19Z</time>
      </trkpt>
      <trkpt lat="48.92084" lon="-0.47143">
        <ele>50.6</ele>
        <time>2023-05-02T12:30:20Z</time>
      </trkpt>
      <trkpt lat="48.92078" lon="-0.47145">
        <ele>50</ele>
        <time>2023-05-02T12:30:21Z</time>
      </trkpt>
      <trkpt lat="48.92072" lon="-0.47148">
        <ele>49.6</ele>
        <time>2023-05-02T12:30:22Z</time>
      </trkpt>
      <trkpt lat="48.92065" lon="-0.47149">
        <ele>49</ele>
        <time>2023-05-02T12:30:23Z</time>
      </trkpt>
      <trkpt lat="48.92059" lon="-0.47151">
        <ele>48.8</ele>
        <time>2023-05-02T12:30:24Z</time>
      </trkpt>
      <trkpt lat="48.92053" lon="-0.47153">
        <ele>48.2</ele>
        <time>2023-05-02T12:30:25Z</time>
      </trkpt>
      <trkpt lat="48.92046" lon="-0.47155">
        <ele>48</ele>
        <time>2023-05-02T12:30:26Z</time>
      </trkpt>
      <trkpt lat="48.9204" lon="-0.47156">
        <ele>47.6</ele>
        <time>2023-05-02T12:30:27Z</time>
      </trkpt>
      <trkpt lat="48.92034" lon="-0.47158">
        <ele>47.2</ele>
        <time>2023-05-02T12:30:28Z</time>
      </trkpt>
      <trkpt lat="48.92027" lon="-0.4716">
        <ele>47</ele>
        <time>2023-05-02T12:30:29Z</time>
      </trkpt>
      <trkpt lat="48.92021" lon="-0.47161">
        <ele>46.8</ele>
        <time>2023-05-02T12:30:30Z</time>
      </trkpt>
      <trkpt lat="48.92015" lon="-0.47163">
        <ele>46.6</ele>
        <time>2023-05-02T12:30:31Z</time>
      </trkpt>
      <trkpt lat="48.92008" lon="-0.47164">
        <ele>46.2</ele>
        <time>2023-05-02T12:30:32Z</time>
      </trkpt>
      <trkpt lat="48.92002" lon="-0.47166">
        <ele>46</ele>
        <time>2023-05-02T12:30:33Z</time>
      </trkpt>
      <trkpt lat="48.91996" lon="-0.47167">
        <ele>46</ele>
        <time>2023-05-02T12:30:34Z</time>
      </trkpt>
      <trkpt lat="48.91989" lon="-0.47168">
        <ele>46</ele>
        <time>2023-05-02T12:30:35Z</time>
      </trkpt>
      <trkpt lat="48.91983" lon="-0.4717">
        <ele>46</ele>
        <time>2023-05-02T12:30:36Z</time>
      </trkpt>
      <trkpt lat="48.91977" lon="-0.47171">
        <ele>46</ele>
        <time>2023-05-02T12:30:37Z</time>
      </trkpt>
      <trkpt lat="48.9197" lon="-0.47172">
        <ele>45.8</ele>
        <time>2023-05-02T12:30:38Z</time>
      </trkpt>
      <trkpt lat="48.91964" lon="-0.47173">
        <ele>45.8</ele>
        <time>2023-05-02T12:30:39Z</time>
      </trkpt>
      <trkpt lat="48.91958" lon="-0.47174">
        <ele>45.8</ele>
        <time>2023-05-02T12:30:40Z</time>
      </trkpt>
      <trkpt lat="48.91952" lon="-0.47175">
        <ele>45.8</ele>
        <time>2023-05-02T12:30:41Z</time>
      </trkpt>
      <trkpt lat="48.91945" lon="-0.47176">
        <ele>45.8</ele>
        <time>2023-05-02T12:30:42Z</time>
      </trkpt>
      <trkpt lat="48.91939" lon="-0.47176">
        <ele>45.8</ele>
        <time>2023-05-02T12:30:43Z</time>
      </trkpt>
      <trkpt lat="48.91933" lon="-0.47177">
        <ele>45.8</ele>
        <time>2023-05-02T12:30:44Z</time>
      </trkpt>
      <trkpt lat="48.91927" lon="-0.47177">
        <ele>45.8</ele>
        <time>2023-05-02T12:30:45Z</time>
      </trkpt>
      <trkpt lat="48.91921" lon="-0.47178">
        <ele>45.8</ele>
        <time>2023-05-02T12:30:46Z</time>
      </trkpt>
      <trkpt lat="48.91915" lon="-0.47178">
        <ele>45.8</ele>
        <time>2023-05-02T12:30:47Z</time>
      </trkpt>
      <trkpt lat="48.91909" lon="-0.47178">
        <ele>45.8</ele>
        <time>2023-05-02T12:30:48Z</time>
      </trkpt>
      <trkpt lat="48.91903" lon="-0.47178">
        <ele>45.8</ele>
        <time>2023-05-02T12:30:49Z</time>
      </trkpt>
      <trkpt lat="48.91898" lon="-0.47179">
        <ele>45.8</ele>
        <time>2023-05-02T12:30:50Z</time>
      </trkpt>
      <trkpt lat="48.91892" lon="-0.47179">
        <ele>45.8</ele>
        <time>2023-05-02T12:30:51Z</time>
      </trkpt>
      <trkpt lat="48.91886" lon="-0.4718">
        <ele>45.8</ele>
        <time>2023-05-02T12:30:52Z</time>
      </trkpt>
      <trkpt lat="48.9188" lon="-0.47181">
        <ele>45.8</ele>
        <time>2023-05-02T12:30:53Z</time>
      </trkpt>
      <trkpt lat="48.91874" lon="-0.47182">
        <ele>45.8</ele>
        <time>2023-05-02T12:30:54Z</time>
      </trkpt>
      <trkpt lat="48.91868" lon="-0.47182">
        <ele>45.8</ele>
        <time>2023-05-02T12:30:55Z</time>
      </trkpt>
      <trkpt lat="48.91862" lon="-0.47183">
        <ele>45.8</ele>
        <time>2023-05-02T12:30:56Z</time>
      </trkpt>
      <trkpt lat="48.91857" lon="-0.47184">
        <ele>45.8</ele>
        <time>2023-05-02T12:30:57Z</time>
      </trkpt>
      <trkpt lat="48.91851" lon="-0.47184">
        <ele>45.8</ele>
        <time>2023-05-02T12:30:58Z</time>
      </trkpt>
      <trkpt lat="48.91846" lon="-0.47184">
        <ele>45.8</ele>
        <time>2023-05-02T12:30:59Z</time>
      </trkpt>
      <trkpt lat="48.9184" lon="-0.47185">
        <ele>45.8</ele>
        <time>2023-05-02T12:31:00Z</time>
      </trkpt>
      <trkpt lat="48.91835" lon="-0.47186">
        <ele>45.8</ele>
        <time>2023-05-02T12:31:01Z</time>
      </trkpt>
      <trkpt lat="48.91829" lon="-0.47186">
        <ele>45.8</ele>
        <time>2023-05-02T12:31:02Z</time>
      </trkpt>
      <trkpt lat="48.91824" lon="-0.47187">
        <ele>45.6</ele>
        <time>2023-05-02T12:31:03Z</time>
      </trkpt>
      <trkpt lat="48.91818" lon="-0.47188">
        <ele>45.4</ele>
        <time>2023-05-02T12:31:04Z</time>
      </trkpt>
      <trkpt lat="48.91812" lon="-0.47188">
        <ele>45.2</ele>
        <time>2023-05-02T12:31:05Z</time>
      </trkpt>
      <trkpt lat="48.91806" lon="-0.47189">
        <ele>45</ele>
        <time>2023-05-02T12:31:06Z</time>
      </trkpt>
      <trkpt lat="48.918" lon="-0.4719">
        <ele>45</ele>
        <time>2023-05-02T12:31:07Z</time>
      </trkpt>
      <trkpt lat="48.91795" lon="-0.4719">
        <ele>44.8</ele>
        <time>2023-05-02T12:31:08Z</time>
      </trkpt>
      <trkpt lat="48.91789" lon="-0.47191">
        <ele>44.6</ele>
        <time>2023-05-02T12:31:09Z</time>
      </trkpt>
      <trkpt lat="48.91784" lon="-0.47191">
        <ele>44.6</ele>
        <time>2023-05-02T12:31:10Z</time>
      </trkpt>
      <trkpt lat="48.91778" lon="-0.47192">
        <ele>44.4</ele>
        <time>2023-05-02T12:31:11Z</time>
      </trkpt>
      <trkpt lat="48.91773" lon="-0.47193">
        <ele>44.2</ele>
        <time>2023-05-02T12:31:12Z</time>
      </trkpt>
      <trkpt lat="48.91767" lon="-0.47194">
        <ele>44</ele>
        <time>2023-05-02T12:31:13Z</time>
      </trkpt>
      <trkpt lat="48.91761" lon="-0.47195">
        <ele>44</ele>
        <time>2023-05-02T12:31:14Z</time>
      </trkpt>
      <trkpt lat="48.91756" lon="-0.47196">
        <ele>43.8</ele>
        <time>2023-05-02T12:31:15Z</time>
      </trkpt>
      <trkpt lat="48.9175" lon="-0.47197">
        <ele>43.6</ele>
        <time>2023-05-02T12:31:16Z</time>
      </trkpt>
      <trkpt lat="48.91744" lon="-0.47198">
        <ele>43.6</ele>
        <time>2023-05-02T12:31:17Z</time>
      </trkpt>
      <trkpt lat="48.91739" lon="-0.47199">
        <ele>43.6</ele>
        <time>2023-05-02T12:31:18Z</time>
      </trkpt>
      <trkpt lat="48.91733" lon="-0.47201">
        <ele>43.8</ele>
        <time>2023-05-02T12:31:19Z</time>
      </trkpt>
      <trkpt lat="48.91727" lon="-0.47202">
        <ele>43.8</ele>
        <time>2023-05-02T12:31:20Z</time>
      </trkpt>
      <trkpt lat="48.91721" lon="-0.47204">
        <ele>43.8</ele>
        <time>2023-05-02T12:31:21Z</time>
      </trkpt>
      <trkpt lat="48.91716" lon="-0.47206">
        <ele>43.8</ele>
        <time>2023-05-02T12:31:22Z</time>
      </trkpt>
      <trkpt lat="48.9171" lon="-0.47207">
        <ele>43.8</ele>
        <time>2023-05-02T12:31:23Z</time>
      </trkpt>
      <trkpt lat="48.91704" lon="-0.47209">
        <ele>43.8</ele>
        <time>2023-05-02T12:31:24Z</time>
      </trkpt>
      <trkpt lat="48.91697" lon="-0.4721">
        <ele>44</ele>
        <time>2023-05-02T12:31:25Z</time>
      </trkpt>
      <trkpt lat="48.91691" lon="-0.47211">
        <ele>44</ele>
        <time>2023-05-02T12:31:26Z</time>
      </trkpt>
      <trkpt lat="48.91685" lon="-0.47212">
        <ele>44</ele>
        <time>2023-05-02T12:31:27Z</time>
      </trkpt>
      <trkpt lat="48.91679" lon="-0.47213">
        <ele>44</ele>
        <time>2023-05-02T12:31:28Z</time>
      </trkpt>
      <trkpt lat="48.91673" lon="-0.47213">
        <ele>44.2</ele>
        <time>2023-05-02T12:31:29Z</time>
      </trkpt>
      <trkpt lat="48.91667" lon="-0.47214">
        <ele>44.2</ele>
        <time>2023-05-02T12:31:30Z</time>
      </trkpt>
      <trkpt lat="48.91661" lon="-0.47215">
        <ele>44.4</ele>
        <time>2023-05-02T12:31:31Z</time>
      </trkpt>
      <trkpt lat="48.91655" lon="-0.47215">
        <ele>44.6</ele>
        <time>2023-05-02T12:31:32Z</time>
      </trkpt>
      <trkpt lat="48.91649" lon="-0.47216">
        <ele>44.6</ele>
        <time>2023-05-02T12:31:33Z</time>
      </trkpt>
      <trkpt lat="48.91644" lon="-0.47217">
        <ele>44.6</ele>
        <time>2023-05-02T12:31:34Z</time>
      </trkpt>
      <trkpt lat="48.91638" lon="-0.47218">
        <ele>44.8</ele>
        <time>2023-05-02T12:31:35Z</time>
      </trkpt>
      <trkpt lat="48.91632" lon="-0.47219">
        <ele>44.8</ele>
        <time>2023-05-02T12:31:36Z</time>
      </trkpt>
      <trkpt lat="48.91626" lon="-0.4722">
        <ele>45</ele>
        <time>2023-05-02T12:31:37Z</time>
      </trkpt>
      <trkpt lat="48.9162" lon="-0.47221">
        <ele>45</ele>
        <time>2023-05-02T12:31:38Z</time>
      </trkpt>
      <trkpt lat="48.91614" lon="-0.47221">
        <ele>45</ele>
        <time>2023-05-02T12:31:39Z</time>
      </trkpt>
      <trkpt lat="48.91609" lon="-0.47222">
        <ele>45.2</ele>
        <time>2023-05-02T12:31:40Z</time>
      </trkpt>
      <trkpt lat="48.91603" lon="-0.47223">
        <ele>45.2</ele>
        <time>2023-05-02T12:31:41Z</time>
      </trkpt>
      <trkpt lat="48.91597" lon="-0.47224">
        <ele>45.2</ele>
        <time>2023-05-02T12:31:42Z</time>
      </trkpt>
      <trkpt lat="48.91591" lon="-0.47225">
        <ele>45.4</ele>
        <time>2023-05-02T12:31:43Z</time>
      </trkpt>
      <trkpt lat="48.91586" lon="-0.47226">
        <ele>45.6</ele>
        <time>2023-05-02T12:31:44Z</time>
      </trkpt>
      <trkpt lat="48.9158" lon="-0.47226">
        <ele>45.6</ele>
        <time>2023-05-02T12:31:45Z</time>
      </trkpt>
      <trkpt lat="48.91574" lon="-0.47227">
        <ele>45.6</ele>
        <time>2023-05-02T12:31:46Z</time>
      </trkpt>
      <trkpt lat="48.91569" lon="-0.47228">
        <ele>45.6</ele>
        <time>2023-05-02T12:31:47Z</time>
      </trkpt>
      <trkpt lat="48.91563" lon="-0.47229">
        <ele>45.6</ele>
        <time>2023-05-02T12:31:48Z</time>
      </trkpt>
      <trkpt lat="48.91557" lon="-0.47229">
        <ele>45.6</ele>
        <time>2023-05-02T12:31:49Z</time>
      </trkpt>
      <trkpt lat="48.91551" lon="-0.4723">
        <ele>45.6</ele>
        <time>2023-05-02T12:31:50Z</time>
      </trkpt>
      <trkpt lat="48.91545" lon="-0.47231">
        <ele>45.6</ele>
        <time>2023-05-02T12:31:51Z</time>
      </trkpt>
      <trkpt lat="48.9154" lon="-0.47232">
        <ele>45.4</ele>
        <time>2023-05-02T12:31:52Z</time>
      </trkpt>
      <trkpt lat="48.91534" lon="-0.47232">
        <ele>45.4</ele>
        <time>2023-05-02T12:31:53Z</time>
      </trkpt>
      <trkpt lat="48.91528" lon="-0.47233">
        <ele>45.4</ele>
        <time>2023-05-02T12:31:54Z</time>
      </trkpt>
      <trkpt lat="48.91522" lon="-0.47234">
        <ele>45.4</ele>
        <time>2023-05-02T12:31:55Z</time>
      </trkpt>
      <trkpt lat="48.91516" lon="-0.47235">
        <ele>45.4</ele>
        <time>2023-05-02T12:31:56Z</time>
      </trkpt>
      <trkpt lat="48.9151" lon="-0.47236">
        <ele>45.2</ele>
        <time>2023-05-02T12:31:57Z</time>
      </trkpt>
      <trkpt lat="48.91504" lon="-0.47236">
        <ele>45.2</ele>
        <time>2023-05-02T12:31:58Z</time>
      </trkpt>
      <trkpt lat="48.91498" lon="-0.47237">
        <ele>45.2</ele>
        <time>2023-05-02T12:31:59Z</time>
      </trkpt>
      <trkpt lat="48.91492" lon="-0.47238">
        <ele>45.2</ele>
        <time>2023-05-02T12:32:00Z</time>
      </trkpt>
      <trkpt lat="48.91486" lon="-0.47239">
        <ele>45.2</ele>
        <time>2023-05-02T12:32:01Z</time>
      </trkpt>
      <trkpt lat="48.91481" lon="-0.4724">
        <ele>45.2</ele>
        <time>2023-05-02T12:32:02Z</time>
      </trkpt>
      <trkpt lat="48.91475" lon="-0.4724">
        <ele>45.2</ele>
        <time>2023-05-02T12:32:03Z</time>
      </trkpt>
      <trkpt lat="48.91469" lon="-0.47241">
        <ele>45</ele>
        <time>2023-05-02T12:32:04Z</time>
      </trkpt>
      <trkpt lat="48.91463" lon="-0.47242">
        <ele>45</ele>
        <time>2023-05-02T12:32:05Z</time>
      </trkpt>
      <trkpt lat="48.91457" lon="-0.47243">
        <ele>45</ele>
        <time>2023-05-02T12:32:06Z</time>
      </trkpt>
      <trkpt lat="48.91451" lon="-0.47243">
        <ele>45</ele>
        <time>2023-05-02T12:32:07Z</time>
      </trkpt>
      <trkpt lat="48.91445" lon="-0.47244">
        <ele>45</ele>
        <time>2023-05-02T12:32:08Z</time>
      </trkpt>
      <trkpt lat="48.9144" lon="-0.47245">
        <ele>45</ele>
        <time>2023-05-02T12:32:09Z</time>
      </trkpt>
      <trkpt lat="48.91434" lon="-0.47245">
        <ele>45</ele>
        <time>2023-05-02T12:32:10Z</time>
      </trkpt>
      <trkpt lat="48.91428" lon="-0.47246">
        <ele>45</ele>
        <time>2023-05-02T12:32:11Z</time>
      </trkpt>
      <trkpt lat="48.91422" lon="-0.47247">
        <ele>45</ele>
        <time>2023-05-02T12:32:12Z</time>
      </trkpt>
      <trkpt lat="48.91416" lon="-0.47247">
        <ele>45</ele>
        <time>2023-05-02T12:32:13Z</time>
      </trkpt>
      <trkpt lat="48.91411" lon="-0.47248">
        <ele>45.4</ele>
        <time>2023-05-02T12:32:14Z</time>
      </trkpt>
      <trkpt lat="48.91405" lon="-0.47249">
        <ele>45.8</ele>
        <time>2023-05-02T12:32:15Z</time>
      </trkpt>
      <trkpt lat="48.91399" lon="-0.4725">
        <ele>46</ele>
        <time>2023-05-02T12:32:16Z</time>
      </trkpt>
      <trkpt lat="48.91393" lon="-0.4725">
        <ele>46.4</ele>
        <time>2023-05-02T12:32:17Z</time>
      </trkpt>
      <trkpt lat="48.91388" lon="-0.47251">
        <ele>46.8</ele>
        <time>2023-05-02T12:32:18Z</time>
      </trkpt>
      <trkpt lat="48.91382" lon="-0.47252">
        <ele>47</ele>
        <time>2023-05-02T12:32:19Z</time>
      </trkpt>
      <trkpt lat="48.91376" lon="-0.47252">
        <ele>47.2</ele>
        <time>2023-05-02T12:32:20Z</time>
      </trkpt>
      <trkpt lat="48.9137" lon="-0.47253">
        <ele>47.6</ele>
        <time>2023-05-02T12:32:21Z</time>
      </trkpt>
      <trkpt lat="48.91365" lon="-0.47254">
        <ele>48</ele>
        <time>2023-05-02T12:32:22Z</time>
      </trkpt>
      <trkpt lat="48.91359" lon="-0.47255">
        <ele>48.2</ele>
        <time>2023-05-02T12:32:23Z</time>
      </trkpt>
      <trkpt lat="48.91353" lon="-0.47255">
        <ele>48.6</ele>
        <time>2023-05-02T12:32:24Z</time>
      </trkpt>
      <trkpt lat="48.91347" lon="-0.47256">
        <ele>48.8</ele>
        <time>2023-05-02T12:32:25Z</time>
      </trkpt>
      <trkpt lat="48.91342" lon="-0.47257">
        <ele>49</ele>
        <time>2023-05-02T12:32:26Z</time>
      </trkpt>
      <trkpt lat="48.91336" lon="-0.47257">
        <ele>49.4</ele>
        <time>2023-05-02T12:32:27Z</time>
      </trkpt>
      <trkpt lat="48.9133" lon="-0.47258">
        <ele>49.8</ele>
        <time>2023-05-02T12:32:28Z</time>
      </trkpt>
      <trkpt lat="48.91324" lon="-0.47259">
        <ele>50</ele>
        <time>2023-05-02T12:32:29Z</time>
      </trkpt>
      <trkpt lat="48.91319" lon="-0.4726">
        <ele>50</ele>
        <time>2023-05-02T12:32:30Z</time>
      </trkpt>
      <trkpt lat="48.91313" lon="-0.4726">
        <ele>50.2</ele>
        <time>2023-05-02T12:32:31Z</time>
      </trkpt>
      <trkpt lat="48.91307" lon="-0.47261">
        <ele>50.6</ele>
        <time>2023-05-02T12:32:32Z</time>
      </trkpt>
      <trkpt lat="48.91301" lon="-0.47261">
        <ele>50.8</ele>
        <time>2023-05-02T12:32:33Z</time>
      </trkpt>
      <trkpt lat="48.91296" lon="-0.47262">
        <ele>51</ele>
        <time>2023-05-02T12:32:34Z</time>
      </trkpt>
      <trkpt lat="48.9129" lon="-0.47262">
        <ele>51.2</ele>
        <time>2023-05-02T12:32:35Z</time>
      </trkpt>
      <trkpt lat="48.91284" lon="-0.47263">
        <ele>51.4</ele>
        <time>2023-05-02T12:32:36Z</time>
      </trkpt>
      <trkpt lat="48.91278" lon="-0.47263">
        <ele>51.6</ele>
        <time>2023-05-02T12:32:37Z</time>
      </trkpt>
      <trkpt lat="48.91273" lon="-0.47263">
        <ele>52</ele>
        <time>2023-05-02T12:32:38Z</time>
      </trkpt>
      <trkpt lat="48.91267" lon="-0.47264">
        <ele>52</ele>
        <time>2023-05-02T12:32:39Z</time>
      </trkpt>
      <trkpt lat="48.91261" lon="-0.47263">
        <ele>52.4</ele>
        <time>2023-05-02T12:32:40Z</time>
      </trkpt>
      <trkpt lat="48.91255" lon="-0.47263">
        <ele>52.8</ele>
        <time>2023-05-02T12:32:41Z</time>
      </trkpt>
      <trkpt lat="48.91249" lon="-0.47262">
        <ele>53</ele>
        <time>2023-05-02T12:32:42Z</time>
      </trkpt>
      <trkpt lat="48.91244" lon="-0.47261">
        <ele>53.2</ele>
        <time>2023-05-02T12:32:43Z</time>
      </trkpt>
      <trkpt lat="48.91238" lon="-0.47261">
        <ele>53.6</ele>
        <time>2023-05-02T12:32:44Z</time>
      </trkpt>
      <trkpt lat="48.91232" lon="-0.47262">
        <ele>53.8</ele>
        <time>2023-05-02T12:32:45Z</time>
      </trkpt>
      <trkpt lat="48.91226" lon="-0.47262">
        <ele>54</ele>
        <time>2023-05-02T12:32:46Z</time>
      </trkpt>
      <trkpt lat="48.91221" lon="-0.47262">
        <ele>54.2</ele>
        <time>2023-05-02T12:32:47Z</time>
      </trkpt>
      <trkpt lat="48.91215" lon="-0.47261">
        <ele>54.6</ele>
        <time>2023-05-02T12:32:48Z</time>
      </trkpt>
      <trkpt lat="48.91209" lon="-0.4726">
        <ele>55</ele>
        <time>2023-05-02T12:32:49Z</time>
      </trkpt>
      <trkpt lat="48.91203" lon="-0.47259">
        <ele>55.2</ele>
        <time>2023-05-02T12:32:50Z</time>
      </trkpt>
      <trkpt lat="48.91197" lon="-0.47258">
        <ele>55.6</ele>
        <time>2023-05-02T12:32:51Z</time>
      </trkpt>
      <trkpt lat="48.91192" lon="-0.47257">
        <ele>56</ele>
        <time>2023-05-02T12:32:52Z</time>
      </trkpt>
      <trkpt lat="48.91186" lon="-0.47255">
        <ele>56.6</ele>
        <time>2023-05-02T12:32:53Z</time>
      </trkpt>
      <trkpt lat="48.9118" lon="-0.47254">
        <ele>57</ele>
        <time>2023-05-02T12:32:54Z</time>
      </trkpt>
      <trkpt lat="48.91175" lon="-0.47252">
        <ele>57.4</ele>
        <time>2023-05-02T12:32:55Z</time>
      </trkpt>
      <trkpt lat="48.91169" lon="-0.4725">
        <ele>57.8</ele>
        <time>2023-05-02T12:32:56Z</time>
      </trkpt>
      <trkpt lat="48.91163" lon="-0.47249">
        <ele>58</ele>
        <time>2023-05-02T12:32:57Z</time>
      </trkpt>
      <trkpt lat="48.91158" lon="-0.47247">
        <ele>58</ele>
        <time>2023-05-02T12:32:58Z</time>
      </trkpt>
      <trkpt lat="48.91153" lon="-0.47245">
        <ele>58</ele>
        <time>2023-05-02T12:32:59Z</time>
      </trkpt>
      <trkpt lat="48.91147" lon="-0.47243">
        <ele>57.8</ele>
        <time>2023-05-02T12:33:00Z</time>
      </trkpt>
      <trkpt lat="48.91142" lon="-0.47241">
        <ele>57.8</ele>
        <time>2023-05-02T12:33:01Z</time>
      </trkpt>
      <trkpt lat="48.91136" lon="-0.47239">
        <ele>57.8</ele>
        <time>2023-05-02T12:33:02Z</time>
      </trkpt>
      <trkpt lat="48.91131" lon="-0.47237">
        <ele>57.8</ele>
        <time>2023-05-02T12:33:03Z</time>
      </trkpt>
      <trkpt lat="48.91125" lon="-0.47235">
        <ele>57.8</ele>
        <time>2023-05-02T12:33:04Z</time>
      </trkpt>
      <trkpt lat="48.9112" lon="-0.47233">
        <ele>57.8</ele>
        <time>2023-05-02T12:33:05Z</time>
      </trkpt>
      <trkpt lat="48.91115" lon="-0.4723">
        <ele>57.8</ele>
        <time>2023-05-02T12:33:06Z</time>
      </trkpt>
      <trkpt lat="48.91109" lon="-0.47228">
        <ele>57.8</ele>
        <time>2023-05-02T12:33:07Z</time>
      </trkpt>
      <trkpt lat="48.91104" lon="-0.47225">
        <ele>57.8</ele>
        <time>2023-05-02T12:33:08Z</time>
      </trkpt>
      <trkpt lat="48.91098" lon="-0.47223">
        <ele>57.6</ele>
        <time>2023-05-02T12:33:09Z</time>
      </trkpt>
      <trkpt lat="48.91093" lon="-0.4722">
        <ele>57.6</ele>
        <time>2023-05-02T12:33:10Z</time>
      </trkpt>
      <trkpt lat="48.91088" lon="-0.47218">
        <ele>57.6</ele>
        <time>2023-05-02T12:33:11Z</time>
      </trkpt>
      <trkpt lat="48.91082" lon="-0.47215">
        <ele>57.4</ele>
        <time>2023-05-02T12:33:12Z</time>
      </trkpt>
      <trkpt lat="48.91077" lon="-0.47212">
        <ele>56.6</ele>
        <time>2023-05-02T12:33:13Z</time>
      </trkpt>
      <trkpt lat="48.91071" lon="-0.4721">
        <ele>55.8</ele>
        <time>2023-05-02T12:33:14Z</time>
      </trkpt>
      <trkpt lat="48.91066" lon="-0.47207">
        <ele>55</ele>
        <time>2023-05-02T12:33:15Z</time>
      </trkpt>
      <trkpt lat="48.9106" lon="-0.47205">
        <ele>54.2</ele>
        <time>2023-05-02T12:33:16Z</time>
      </trkpt>
      <trkpt lat="48.91055" lon="-0.47202">
        <ele>53.2</ele>
        <time>2023-05-02T12:33:17Z</time>
      </trkpt>
      <trkpt lat="48.91049" lon="-0.472">
        <ele>52.6</ele>
        <time>2023-05-02T12:33:18Z</time>
      </trkpt>
      <trkpt lat="48.91044" lon="-0.47197">
        <ele>51.6</ele>
        <time>2023-05-02T12:33:19Z</time>
      </trkpt>
      <trkpt lat="48.91039" lon="-0.47195">
        <ele>50.8</ele>
        <time>2023-05-02T12:33:20Z</time>
      </trkpt>
      <trkpt lat="48.91034" lon="-0.47192">
        <ele>49.8</ele>
        <time>2023-05-02T12:33:21Z</time>
      </trkpt>
      <trkpt lat="48.91028" lon="-0.4719">
        <ele>49</ele>
        <time>2023-05-02T12:33:22Z</time>
      </trkpt>
      <trkpt lat="48.91024" lon="-0.47187">
        <ele>48</ele>
        <time>2023-05-02T12:33:23Z</time>
      </trkpt>
      <trkpt lat="48.91019" lon="-0.47185">
        <ele>47</ele>
        <time>2023-05-02T12:33:24Z</time>
      </trkpt>
      <trkpt lat="48.91014" lon="-0.47183">
        <ele>46.2</ele>
        <time>2023-05-02T12:33:25Z</time>
      </trkpt>
      <trkpt lat="48.91009" lon="-0.47181">
        <ele>45.2</ele>
        <time>2023-05-02T12:33:26Z</time>
      </trkpt>
      <trkpt lat="48.91005" lon="-0.47179">
        <ele>44.4</ele>
        <time>2023-05-02T12:33:27Z</time>
      </trkpt>
      <trkpt lat="48.91" lon="-0.47177">
        <ele>43.6</ele>
        <time>2023-05-02T12:33:28Z</time>
      </trkpt>
      <trkpt lat="48.90996" lon="-0.47175">
        <ele>43.4</ele>
        <time>2023-05-02T12:33:29Z</time>
      </trkpt>
      <trkpt lat="48.90991" lon="-0.47173">
        <ele>43.2</ele>
        <time>2023-05-02T12:33:30Z</time>
      </trkpt>
      <trkpt lat="48.90987" lon="-0.47171">
        <ele>43.2</ele>
        <time>2023-05-02T12:33:31Z</time>
      </trkpt>
      <trkpt lat="48.90983" lon="-0.47169">
        <ele>43.2</ele>
        <time>2023-05-02T12:33:32Z</time>
      </trkpt>
      <trkpt lat="48.90979" lon="-0.47167">
        <ele>43.2</ele>
        <time>2023-05-02T12:33:33Z</time>
      </trkpt>
      <trkpt lat="48.90975" lon="-0.47165">
        <ele>43</ele>
        <time>2023-05-02T12:33:34Z</time>
      </trkpt>
      <trkpt lat="48.90972" lon="-0.47164">
        <ele>43</ele>
        <time>2023-05-02T12:33:35Z</time>
      </trkpt>
      <trkpt lat="48.90969" lon="-0.47162">
        <ele>43</ele>
        <time>2023-05-02T12:33:36Z</time>
      </trkpt>
      <trkpt lat="48.90965" lon="-0.47161">
        <ele>43</ele>
        <time>2023-05-02T12:33:37Z</time>
      </trkpt>
      <trkpt lat="48.90962" lon="-0.4716">
        <ele>42.8</ele>
        <time>2023-05-02T12:33:38Z</time>
      </trkpt>
      <trkpt lat="48.90959" lon="-0.47158">
        <ele>42.8</ele>
        <time>2023-05-02T12:33:39Z</time>
      </trkpt>
      <trkpt lat="48.90956" lon="-0.47157">
        <ele>42.8</ele>
        <time>2023-05-02T12:33:40Z</time>
      </trkpt>
      <trkpt lat="48.90953" lon="-0.47156">
        <ele>42.8</ele>
        <time>2023-05-02T12:33:41Z</time>
      </trkpt>
      <trkpt lat="48.90951" lon="-0.47155">
        <ele>42.6</ele>
        <time>2023-05-02T12:33:42Z</time>
      </trkpt>
      <trkpt lat="48.90948" lon="-0.47154">
        <ele>42.6</ele>
        <time>2023-05-02T12:33:43Z</time>
      </trkpt>
      <trkpt lat="48.90946" lon="-0.47153">
        <ele>42.6</ele>
        <time>2023-05-02T12:33:44Z</time>
      </trkpt>
      <trkpt lat="48.90945" lon="-0.47153">
        <ele>42.6</ele>
        <time>2023-05-02T12:33:45Z</time>
      </trkpt>
      <trkpt lat="48.90944" lon="-0.47152">
        <ele>42.6</ele>
        <time>2023-05-02T12:33:46Z</time>
      </trkpt>
      <trkpt lat="48.90944" lon="-0.47152">
        <ele>42.4</ele>
        <time>2023-05-02T12:33:47Z</time>
      </trkpt>
      <trkpt lat="48.90944" lon="-0.47152">
        <ele>42.4</ele>
        <time>2023-05-02T12:41:16Z</time>
      </trkpt>
      <trkpt lat="48.90944" lon="-0.47152">
        <ele>42.4</ele>
        <time>2023-05-02T12:41:17Z</time>
      </trkpt>
      <trkpt lat="48.90944" lon="-0.47152">
        <ele>42.6</ele>
        <time>2023-05-02T12:41:18Z</time>
      </trkpt>
      <trkpt lat="48.90944" lon="-0.47151">
        <ele>42.6</ele>
        <time>2023-05-02T12:41:19Z</time>
      </trkpt>
      <trkpt lat="48.90945" lon="-0.47151">
        <ele>42.6</ele>
        <time>2023-05-02T12:41:20Z</time>
      </trkpt>
      <trkpt lat="48.90946" lon="-0.47151">
        <ele>42.6</ele>
        <time>2023-05-02T12:41:21Z</time>
      </trkpt>
      <trkpt lat="48.90947" lon="-0.47151">
        <ele>42.6</ele>
        <time>2023-05-02T12:41:22Z</time>
      </trkpt>
      <trkpt lat="48.90949" lon="-0.47152">
        <ele>42.6</ele>
        <time>2023-05-02T12:41:23Z</time>
      </trkpt>
      <trkpt lat="48.90951" lon="-0.47153">
        <ele>42.8</ele>
        <time>2023-05-02T12:41:24Z</time>
      </trkpt>
      <trkpt lat="48.90953" lon="-0.47154">
        <ele>42.8</ele>
        <time>2023-05-02T12:41:25Z</time>
      </trkpt>
      <trkpt lat="48.90956" lon="-0.47155">
        <ele>42.8</ele>
        <time>2023-05-02T12:41:26Z</time>
      </trkpt>
      <trkpt lat="48.90959" lon="-0.47156">
        <ele>42.8</ele>
        <time>2023-05-02T12:41:27Z</time>
      </trkpt>
      <trkpt lat="48.90962" lon="-0.47158">
        <ele>43</ele>
        <time>2023-05-02T12:41:28Z</time>
      </trkpt>
      <trkpt lat="48.90965" lon="-0.47159">
        <ele>43</ele>
        <time>2023-05-02T12:41:29Z</time>
      </trkpt>
      <trkpt lat="48.90969" lon="-0.47161">
        <ele>43</ele>
        <time>2023-05-02T12:41:30Z</time>
      </trkpt>
      <trkpt lat="48.90973" lon="-0.47162">
        <ele>43.2</ele>
        <time>2023-05-02T12:41:31Z</time>
      </trkpt>
      <trkpt lat="48.90978" lon="-0.47165">
        <ele>43.2</ele>
        <time>2023-05-02T12:41:32Z</time>
      </trkpt>
      <trkpt lat="48.90983" lon="-0.47167">
        <ele>43.4</ele>
        <time>2023-05-02T12:41:33Z</time>
      </trkpt>
      <trkpt lat="48.90989" lon="-0.4717">
        <ele>43.4</ele>
        <time>2023-05-02T12:41:34Z</time>
      </trkpt>
      <trkpt lat="48.90995" lon="-0.47173">
        <ele>43.4</ele>
        <time>2023-05-02T12:41:35Z</time>
      </trkpt>
      <trkpt lat="48.91001" lon="-0.47176">
        <ele>43.8</ele>
        <time>2023-05-02T12:41:36Z</time>
      </trkpt>
      <trkpt lat="48.91008" lon="-0.4718">
        <ele>45</ele>
        <time>2023-05-02T12:41:37Z</time>
      </trkpt>
      <trkpt lat="48.91014" lon="-0.47183">
        <ele>46.2</ele>
        <time>2023-05-02T12:41:38Z</time>
      </trkpt>
      <trkpt lat="48.91021" lon="-0.47186">
        <ele>47.6</ele>
        <time>2023-05-02T12:41:39Z</time>
      </trkpt>
      <trkpt lat="48.91028" lon="-0.4719">
        <ele>48.8</ele>
        <time>2023-05-02T12:41:40Z</time>
      </trkpt>
      <trkpt lat="48.91034" lon="-0.47193">
        <ele>49.8</ele>
        <time>2023-05-02T12:41:41Z</time>
      </trkpt>
      <trkpt lat="48.91041" lon="-0.47196">
        <ele>51</ele>
        <time>2023-05-02T12:41:42Z</time>
      </trkpt>
      <trkpt lat="48.91047" lon="-0.472">
        <ele>52</ele>
        <time>2023-05-02T12:41:43Z</time>
      </trkpt>
      <trkpt lat="48.91054" lon="-0.47203">
        <ele>53</ele>
        <time>2023-05-02T12:41:44Z</time>
      </trkpt>
      <trkpt lat="48.91061" lon="-0.47207">
        <ele>54</ele>
        <time>2023-05-02T12:41:45Z</time>
      </trkpt>
      <trkpt lat="48.91067" lon="-0.4721">
        <ele>55</ele>
        <time>2023-05-02T12:41:46Z</time>
      </trkpt>
      <trkpt lat="48.91074" lon="-0.47214">
        <ele>56</ele>
        <time>2023-05-02T12:41:47Z</time>
      </trkpt>
      <trkpt lat="48.91081" lon="-0.47217">
        <ele>57</ele>
        <time>2023-05-02T12:41:48Z</time>
      </trkpt>
      <trkpt lat="48.91088" lon="-0.4722">
        <ele>57.2</ele>
        <time>2023-05-02T12:41:49Z</time>
      </trkpt>
      <trkpt lat="48.91095" lon="-0.47223">
        <ele>57.2</ele>
        <time>2023-05-02T12:41:50Z</time>
      </trkpt>
      <trkpt lat="48.91102" lon="-0.47227">
        <ele>57.2</ele>
        <time>2023-05-02T12:41:51Z</time>
      </trkpt>
      <trkpt lat="48.91109" lon="-0.4723">
        <ele>57.4</ele>
        <time>2023-05-02T12:41:52Z</time>
      </trkpt>
      <trkpt lat="48.91116" lon="-0.47232">
        <ele>57.6</ele>
        <time>2023-05-02T12:41:53Z</time>
      </trkpt>
      <trkpt lat="48.91123" lon="-0.47235">
        <ele>57.6</ele>
        <time>2023-05-02T12:41:54Z</time>
      </trkpt>
      <trkpt lat="48.91131" lon="-0.47238">
        <ele>57.6</ele>
        <time>2023-05-02T12:41:55Z</time>
      </trkpt>
      <trkpt lat="48.91138" lon="-0.4724">
        <ele>57.8</ele>
        <time>2023-05-02T12:41:56Z</time>
      </trkpt>
      <trkpt lat="48.91145" lon="-0.47243">
        <ele>57.8</ele>
        <time>2023-05-02T12:41:57Z</time>
      </trkpt>
      <trkpt lat="48.91153" lon="-0.47246">
        <ele>57.8</ele>
        <time>2023-05-02T12:41:58Z</time>
      </trkpt>
      <trkpt lat="48.9116" lon="-0.47248">
        <ele>58</ele>
        <time>2023-05-02T12:41:59Z</time>
      </trkpt>
      <trkpt lat="48.91167" lon="-0.47251">
        <ele>58</ele>
        <time>2023-05-02T12:42:00Z</time>
      </trkpt>
      <trkpt lat="48.91175" lon="-0.47253">
        <ele>57.2</ele>
        <time>2023-05-02T12:42:01Z</time>
      </trkpt>
      <trkpt lat="48.91182" lon="-0.47255">
        <ele>56.6</ele>
        <time>2023-05-02T12:42:02Z</time>
      </trkpt>
      <trkpt lat="48.9119" lon="-0.47257">
        <ele>56</ele>
        <time>2023-05-02T12:42:03Z</time>
      </trkpt>
      <trkpt lat="48.91198" lon="-0.47258">
        <ele>55.6</ele>
        <time>2023-05-02T12:42:04Z</time>
      </trkpt>
      <trkpt lat="48.91205" lon="-0.4726">
        <ele>55</ele>
        <time>2023-05-02T12:42:05Z</time>
      </trkpt>
      <trkpt lat="48.91213" lon="-0.47261">
        <ele>54.8</ele>
        <time>2023-05-02T12:42:06Z</time>
      </trkpt>
      <trkpt lat="48.91221" lon="-0.47262">
        <ele>54.2</ele>
        <time>2023-05-02T12:42:07Z</time>
      </trkpt>
      <trkpt lat="48.91229" lon="-0.47262">
        <ele>53.8</ele>
        <time>2023-05-02T12:42:08Z</time>
      </trkpt>
      <trkpt lat="48.91237" lon="-0.47263">
        <ele>53.6</ele>
        <time>2023-05-02T12:42:09Z</time>
      </trkpt>
      <trkpt lat="48.91245" lon="-0.47263">
        <ele>53</ele>
        <time>2023-05-02T12:42:10Z</time>
      </trkpt>
      <trkpt lat="48.91253" lon="-0.47263">
        <ele>52.8</ele>
        <time>2023-05-02T12:42:11Z</time>
      </trkpt>
      <trkpt lat="48.91261" lon="-0.47263">
        <ele>52.4</ele>
        <time>2023-05-02T12:42:12Z</time>
      </trkpt>
      <trkpt lat="48.91269" lon="-0.47263">
        <ele>52</ele>
        <time>2023-05-02T12:42:13Z</time>
      </trkpt>
      <trkpt lat="48.91277" lon="-0.47263">
        <ele>51.8</ele>
        <time>2023-05-02T12:42:14Z</time>
      </trkpt>
      <trkpt lat="48.91285" lon="-0.47263">
        <ele>51.4</ele>
        <time>2023-05-02T12:42:15Z</time>
      </trkpt>
      <trkpt lat="48.91293" lon="-0.47262">
        <ele>51</ele>
        <time>2023-05-02T12:42:16Z</time>
      </trkpt>
      <trkpt lat="48.913" lon="-0.47262">
        <ele>50.8</ele>
        <time>2023-05-02T12:42:17Z</time>
      </trkpt>
      <trkpt lat="48.91308" lon="-0.47261">
        <ele>50.6</ele>
        <time>2023-05-02T12:42:18Z</time>
      </trkpt>
      <trkpt lat="48.91316" lon="-0.4726">
        <ele>50.2</ele>
        <time>2023-05-02T12:42:19Z</time>
      </trkpt>
      <trkpt lat="48.91324" lon="-0.47259">
        <ele>50</ele>
        <time>2023-05-02T12:42:20Z</time>
      </trkpt>
      <trkpt lat="48.91332" lon="-0.47258">
        <ele>49.6</ele>
        <time>2023-05-02T12:42:21Z</time>
      </trkpt>
      <trkpt lat="48.9134" lon="-0.47257">
        <ele>49.2</ele>
        <time>2023-05-02T12:42:22Z</time>
      </trkpt>
      <trkpt lat="48.91348" lon="-0.47256">
        <ele>48.8</ele>
        <time>2023-05-02T12:42:23Z</time>
      </trkpt>
      <trkpt lat="48.91356" lon="-0.47255">
        <ele>48.4</ele>
        <time>2023-05-02T12:42:24Z</time>
      </trkpt>
      <trkpt lat="48.91364" lon="-0.47254">
        <ele>48</ele>
        <time>2023-05-02T12:42:25Z</time>
      </trkpt>
      <trkpt lat="48.91372" lon="-0.47253">
        <ele>47.6</ele>
        <time>2023-05-02T12:42:26Z</time>
      </trkpt>
      <trkpt lat="48.9138" lon="-0.47252">
        <ele>47</ele>
        <time>2023-05-02T12:42:27Z</time>
      </trkpt>
      <trkpt lat="48.91388" lon="-0.47251">
        <ele>46.8</ele>
        <time>2023-05-02T12:42:28Z</time>
      </trkpt>
      <trkpt lat="48.91396" lon="-0.4725">
        <ele>46.2</ele>
        <time>2023-05-02T12:42:29Z</time>
      </trkpt>
      <trkpt lat="48.91404" lon="-0.47249">
        <ele>45.8</ele>
        <time>2023-05-02T12:42:30Z</time>
      </trkpt>
      <trkpt lat="48.91412" lon="-0.47247">
        <ele>45.2</ele>
        <time>2023-05-02T12:42:31Z</time>
      </trkpt>
      <trkpt lat="48.91419" lon="-0.47246">
        <ele>45</ele>
        <time>2023-05-02T12:42:32Z</time>
      </trkpt>
      <trkpt lat="48.91428" lon="-0.47245">
        <ele>45</ele>
        <time>2023-05-02T12:42:33Z</time>
      </trkpt>
      <trkpt lat="48.91435" lon="-0.47244">
        <ele>45</ele>
        <time>2023-05-02T12:42:34Z</time>
      </trkpt>
      <trkpt lat="48.91444" lon="-0.47243">
        <ele>45</ele>
        <time>2023-05-02T12:42:35Z</time>
      </trkpt>
      <trkpt lat="48.91451" lon="-0.47242">
        <ele>45</ele>
        <time>2023-05-02T12:42:36Z</time>
      </trkpt>
      <trkpt lat="48.9146" lon="-0.47241">
        <ele>45</ele>
        <time>2023-05-02T12:42:37Z</time>
      </trkpt>
      <trkpt lat="48.91468" lon="-0.4724">
        <ele>45</ele>
        <time>2023-05-02T12:42:38Z</time>
      </trkpt>
      <trkpt lat="48.91476" lon="-0.47239">
        <ele>45.2</ele>
        <time>2023-05-02T12:42:39Z</time>
      </trkpt>
      <trkpt lat="48.91484" lon="-0.47238">
        <ele>45.2</ele>
        <time>2023-05-02T12:42:40Z</time>
      </trkpt>
      <trkpt lat="48.91492" lon="-0.47237">
        <ele>45.2</ele>
        <time>2023-05-02T12:42:41Z</time>
      </trkpt>
      <trkpt lat="48.915" lon="-0.47236">
        <ele>45.2</ele>
        <time>2023-05-02T12:42:42Z</time>
      </trkpt>
      <trkpt lat="48.91507" lon="-0.47235">
        <ele>45.4</ele>
        <time>2023-05-02T12:42:43Z</time>
      </trkpt>
      <trkpt lat="48.91516" lon="-0.47234">
        <ele>45.4</ele>
        <time>2023-05-02T12:42:44Z</time>
      </trkpt>
      <trkpt lat="48.91523" lon="-0.47233">
        <ele>45.4</ele>
        <time>2023-05-02T12:42:45Z</time>
      </trkpt>
      <trkpt lat="48.91531" lon="-0.47232">
        <ele>45.4</ele>
        <time>2023-05-02T12:42:46Z</time>
      </trkpt>
      <trkpt lat="48.91539" lon="-0.4723">
        <ele>45.6</ele>
        <time>2023-05-02T12:42:47Z</time>
      </trkpt>
      <trkpt lat="48.91547" lon="-0.47229">
        <ele>45.6</ele>
        <time>2023-05-02T12:42:48Z</time>
      </trkpt>
      <trkpt lat="48.91555" lon="-0.47228">
        <ele>45.6</ele>
        <time>2023-05-02T12:42:49Z</time>
      </trkpt>
      <trkpt lat="48.91563" lon="-0.47227">
        <ele>45.6</ele>
        <time>2023-05-02T12:42:50Z</time>
      </trkpt>
      <trkpt lat="48.91571" lon="-0.47226">
        <ele>45.6</ele>
        <time>2023-05-02T12:42:51Z</time>
      </trkpt>
      <trkpt lat="48.91579" lon="-0.47225">
        <ele>45.6</ele>
        <time>2023-05-02T12:42:52Z</time>
      </trkpt>
      <trkpt lat="48.91587" lon="-0.47224">
        <ele>45.6</ele>
        <time>2023-05-02T12:42:53Z</time>
      </trkpt>
      <trkpt lat="48.91595" lon="-0.47223">
        <ele>45.4</ele>
        <time>2023-05-02T12:42:54Z</time>
      </trkpt>
      <trkpt lat="48.91602" lon="-0.47222">
        <ele>45.2</ele>
        <time>2023-05-02T12:42:55Z</time>
      </trkpt>
      <trkpt lat="48.9161" lon="-0.47221">
        <ele>45.2</ele>
        <time>2023-05-02T12:42:56Z</time>
      </trkpt>
      <trkpt lat="48.91618" lon="-0.4722">
        <ele>45</ele>
        <time>2023-05-02T12:42:57Z</time>
      </trkpt>
      <trkpt lat="48.91626" lon="-0.47219">
        <ele>45</ele>
        <time>2023-05-02T12:42:58Z</time>
      </trkpt>
      <trkpt lat="48.91633" lon="-0.47217">
        <ele>44.8</ele>
        <time>2023-05-02T12:42:59Z</time>
      </trkpt>
      <trkpt lat="48.91641" lon="-0.47216">
        <ele>44.8</ele>
        <time>2023-05-02T12:43:00Z</time>
      </trkpt>
      <trkpt lat="48.91649" lon="-0.47215">
        <ele>44.6</ele>
        <time>2023-05-02T12:43:01Z</time>
      </trkpt>
      <trkpt lat="48.91656" lon="-0.47214">
        <ele>44.6</ele>
        <time>2023-05-02T12:43:02Z</time>
      </trkpt>
      <trkpt lat="48.91664" lon="-0.47213">
        <ele>44.4</ele>
        <time>2023-05-02T12:43:03Z</time>
      </trkpt>
      <trkpt lat="48.91671" lon="-0.47212">
        <ele>44.2</ele>
        <time>2023-05-02T12:43:04Z</time>
      </trkpt>
      <trkpt lat="48.91679" lon="-0.47211">
        <ele>44.2</ele>
        <time>2023-05-02T12:43:05Z</time>
      </trkpt>
      <trkpt lat="48.91687" lon="-0.47211">
        <ele>44</ele>
        <time>2023-05-02T12:43:06Z</time>
      </trkpt>
      <trkpt lat="48.91694" lon="-0.4721">
        <ele>44</ele>
        <time>2023-05-02T12:43:07Z</time>
      </trkpt>
      <trkpt lat="48.91702" lon="-0.47208">
        <ele>44</ele>
        <time>2023-05-02T12:43:08Z</time>
      </trkpt>
      <trkpt lat="48.91709" lon="-0.47206">
        <ele>43.8</ele>
        <time>2023-05-02T12:43:09Z</time>
      </trkpt>
      <trkpt lat="48.91717" lon="-0.47204">
        <ele>43.8</ele>
        <time>2023-05-02T12:43:10Z</time>
      </trkpt>
      <trkpt lat="48.91724" lon="-0.47202">
        <ele>43.8</ele>
        <time>2023-05-02T12:43:11Z</time>
      </trkpt>
      <trkpt lat="48.91731" lon="-0.47201">
        <ele>43.8</ele>
        <time>2023-05-02T12:43:12Z</time>
      </trkpt>
      <trkpt lat="48.91739" lon="-0.472">
        <ele>43.6</ele>
        <time>2023-05-02T12:43:13Z</time>
      </trkpt>
      <trkpt lat="48.91746" lon="-0.47199">
        <ele>43.6</ele>
        <time>2023-05-02T12:43:14Z</time>
      </trkpt>
      <trkpt lat="48.91753" lon="-0.47198">
        <ele>43.6</ele>
        <time>2023-05-02T12:43:15Z</time>
      </trkpt>
      <trkpt lat="48.9176" lon="-0.47197">
        <ele>43.8</ele>
        <time>2023-05-02T12:43:16Z</time>
      </trkpt>
      <trkpt lat="48.91768" lon="-0.47197">
        <ele>44</ele>
        <time>2023-05-02T12:43:17Z</time>
      </trkpt>
      <trkpt lat="48.91775" lon="-0.47196">
        <ele>44</ele>
        <time>2023-05-02T12:43:18Z</time>
      </trkpt>
      <trkpt lat="48.91783" lon="-0.47195">
        <ele>44.2</ele>
        <time>2023-05-02T12:43:19Z</time>
      </trkpt>
      <trkpt lat="48.91791" lon="-0.47194">
        <ele>44.6</ele>
        <time>2023-05-02T12:43:20Z</time>
      </trkpt>
      <trkpt lat="48.91798" lon="-0.47193">
        <ele>44.8</ele>
        <time>2023-05-02T12:43:21Z</time>
      </trkpt>
      <trkpt lat="48.91806" lon="-0.47191">
        <ele>45</ele>
        <time>2023-05-02T12:43:22Z</time>
      </trkpt>
      <trkpt lat="48.91814" lon="-0.47191">
        <ele>45.2</ele>
        <time>2023-05-02T12:43:23Z</time>
      </trkpt>
      <trkpt lat="48.91822" lon="-0.4719">
        <ele>45.4</ele>
        <time>2023-05-02T12:43:24Z</time>
      </trkpt>
      <trkpt lat="48.91829" lon="-0.47189">
        <ele>45.6</ele>
        <time>2023-05-02T12:43:25Z</time>
      </trkpt>
      <trkpt lat="48.91837" lon="-0.47188">
        <ele>45.8</ele>
        <time>2023-05-02T12:43:26Z</time>
      </trkpt>
      <trkpt lat="48.91844" lon="-0.47188">
        <ele>45.6</ele>
        <time>2023-05-02T12:43:27Z</time>
      </trkpt>
      <trkpt lat="48.91852" lon="-0.47187">
        <ele>45.6</ele>
        <time>2023-05-02T12:43:28Z</time>
      </trkpt>
      <trkpt lat="48.91859" lon="-0.47186">
        <ele>45.6</ele>
        <time>2023-05-02T12:43:29Z</time>
      </trkpt>
      <trkpt lat="48.91867" lon="-0.47185">
        <ele>45.6</ele>
        <time>2023-05-02T12:43:30Z</time>
      </trkpt>
      <trkpt lat="48.91874" lon="-0.47184">
        <ele>45.6</ele>
        <time>2023-05-02T12:43:31Z</time>
      </trkpt>
      <trkpt lat="48.91882" lon="-0.47183">
        <ele>45.6</ele>
        <time>2023-05-02T12:43:32Z</time>
      </trkpt>
      <trkpt lat="48.9189" lon="-0.47182">
        <ele>45.6</ele>
        <time>2023-05-02T12:43:33Z</time>
      </trkpt>
      <trkpt lat="48.91897" lon="-0.47181">
        <ele>45.6</ele>
        <time>2023-05-02T12:43:34Z</time>
      </trkpt>
      <trkpt lat="48.91905" lon="-0.47181">
        <ele>45.6</ele>
        <time>2023-05-02T12:43:35Z</time>
      </trkpt>
      <trkpt lat="48.91913" lon="-0.47181">
        <ele>45.6</ele>
        <time>2023-05-02T12:43:36Z</time>
      </trkpt>
      <trkpt lat="48.91921" lon="-0.4718">
        <ele>45.6</ele>
        <time>2023-05-02T12:43:37Z</time>
      </trkpt>
      <trkpt lat="48.9193" lon="-0.47179">
        <ele>45.6</ele>
        <time>2023-05-02T12:43:38Z</time>
      </trkpt>
      <trkpt lat="48.91938" lon="-0.47178">
        <ele>45.6</ele>
        <time>2023-05-02T12:43:39Z</time>
      </trkpt>
      <trkpt lat="48.91946" lon="-0.47177">
        <ele>45.6</ele>
        <time>2023-05-02T12:43:40Z</time>
      </trkpt>
      <trkpt lat="48.91954" lon="-0.47176">
        <ele>45.6</ele>
        <time>2023-05-02T12:43:41Z</time>
      </trkpt>
      <trkpt lat="48.91962" lon="-0.47175">
        <ele>45.6</ele>
        <time>2023-05-02T12:43:42Z</time>
      </trkpt>
      <trkpt lat="48.9197" lon="-0.47174">
        <ele>45.6</ele>
        <time>2023-05-02T12:43:43Z</time>
      </trkpt>
      <trkpt lat="48.91978" lon="-0.47172">
        <ele>45.6</ele>
        <time>2023-05-02T12:43:44Z</time>
      </trkpt>
      <trkpt lat="48.91986" lon="-0.47171">
        <ele>45.8</ele>
        <time>2023-05-02T12:43:45Z</time>
      </trkpt>
      <trkpt lat="48.91994" lon="-0.4717">
        <ele>45.8</ele>
        <time>2023-05-02T12:43:46Z</time>
      </trkpt>
      <trkpt lat="48.92002" lon="-0.47169">
        <ele>45.8</ele>
        <time>2023-05-02T12:43:47Z</time>
      </trkpt>
      <trkpt lat="48.9201" lon="-0.47167">
        <ele>45.8</ele>
        <time>2023-05-02T12:43:48Z</time>
      </trkpt>
      <trkpt lat="48.92018" lon="-0.47165">
        <ele>46</ele>
        <time>2023-05-02T12:43:49Z</time>
      </trkpt>
      <trkpt lat="48.92026" lon="-0.47163">
        <ele>46.2</ele>
        <time>2023-05-02T12:43:50Z</time>
      </trkpt>
      <trkpt lat="48.92034" lon="-0.47161">
        <ele>46.6</ele>
        <time>2023-05-02T12:43:51Z</time>
      </trkpt>
      <trkpt lat="48.92042" lon="-0.47159">
        <ele>47</ele>
        <time>2023-05-02T12:43:52Z</time>
      </trkpt>
      <trkpt lat="48.9205" lon="-0.47157">
        <ele>47.6</ele>
        <time>2023-05-02T12:43:53Z</time>
      </trkpt>
      <trkpt lat="48.92058" lon="-0.47155">
        <ele>48</ele>
        <time>2023-05-02T12:43:54Z</time>
      </trkpt>
      <trkpt lat="48.92066" lon="-0.47152">
        <ele>48.4</ele>
        <time>2023-05-02T12:43:55Z</time>
      </trkpt>
      <trkpt lat="48.92074" lon="-0.4715">
        <ele>49</ele>
        <time>2023-05-02T12:43:56Z</time>
      </trkpt>
      <trkpt lat="48.92082" lon="-0.47148">
        <ele>49.6</ele>
        <time>2023-05-02T12:43:57Z</time>
      </trkpt>
      <trkpt lat="48.9209" lon="-0.47146">
        <ele>49.6</ele>
        <time>2023-05-02T12:43:58Z</time>
      </trkpt>
      <trkpt lat="48.92098" lon="-0.47143">
        <ele>49.6</ele>
        <time>2023-05-02T12:43:59Z</time>
      </trkpt>
      <trkpt lat="48.92106" lon="-0.47141">
        <ele>49.6</ele>
        <time>2023-05-02T12:44:00Z</time>
      </trkpt>
      <trkpt lat="48.92113" lon="-0.47138">
        <ele>49.8</ele>
        <time>2023-05-02T12:44:01Z</time>
      </trkpt>
      <trkpt lat="48.92121" lon="-0.47135">
        <ele>50</ele>
        <time>2023-05-02T12:44:02Z</time>
      </trkpt>
      <trkpt lat="48.92128" lon="-0.47132">
        <ele>50</ele>
        <time>2023-05-02T12:44:03Z</time>
      </trkpt>
      <trkpt lat="48.92135" lon="-0.47128">
        <ele>50.2</ele>
        <time>2023-05-02T12:44:04Z</time>
      </trkpt>
      <trkpt lat="48.92143" lon="-0.47126">
        <ele>50.2</ele>
        <time>2023-05-02T12:44:05Z</time>
      </trkpt>
      <trkpt lat="48.9215" lon="-0.47123">
        <ele>50.2</ele>
        <time>2023-05-02T12:44:06Z</time>
      </trkpt>
      <trkpt lat="48.92158" lon="-0.47121">
        <ele>50</ele>
        <time>2023-05-02T12:44:07Z</time>
      </trkpt>
      <trkpt lat="48.92166" lon="-0.47118">
        <ele>50</ele>
        <time>2023-05-02T12:44:08Z</time>
      </trkpt>
      <trkpt lat="48.92174" lon="-0.47115">
        <ele>50</ele>
        <time>2023-05-02T12:44:09Z</time>
      </trkpt>
      <trkpt lat="48.92182" lon="-0.47112">
        <ele>49.8</ele>
        <time>2023-05-02T12:44:10Z</time>
      </trkpt>
      <trkpt lat="48.9219" lon="-0.47109">
        <ele>49.6</ele>
        <time>2023-05-02T12:44:11Z</time>
      </trkpt>
      <trkpt lat="48.92197" lon="-0.47105">
        <ele>49.2</ele>
        <time>2023-05-02T12:44:12Z</time>
      </trkpt>
      <trkpt lat="48.92205" lon="-0.47103">
        <ele>49</ele>
        <time>2023-05-02T12:44:13Z</time>
      </trkpt>
      <trkpt lat="48.92213" lon="-0.471">
        <ele>48.6</ele>
        <time>2023-05-02T12:44:14Z</time>
      </trkpt>
      <trkpt lat="48.92221" lon="-0.47098">
        <ele>48</ele>
        <time>2023-05-02T12:44:15Z</time>
      </trkpt>
      <trkpt lat="48.92228" lon="-0.47095">
        <ele>47.8</ele>
        <time>2023-05-02T12:44:16Z</time>
      </trkpt>
      <trkpt lat="48.92236" lon="-0.47093">
        <ele>47.2</ele>
        <time>2023-05-02T12:44:17Z</time>
      </trkpt>
      <trkpt lat="48.92244" lon="-0.47091">
        <ele>46.6</ele>
        <time>2023-05-02T12:44:18Z</time>
      </trkpt>
      <trkpt lat="48.92251" lon="-0.47089">
        <ele>46.2</ele>
        <time>2023-05-02T12:44:19Z</time>
      </trkpt>
      <trkpt lat="48.92259" lon="-0.47086">
        <ele>46</ele>
        <time>2023-05-02T12:44:20Z</time>
      </trkpt>
      <trkpt lat="48.92267" lon="-0.47084">
        <ele>45.8</ele>
        <time>2023-05-02T12:44:21Z</time>
      </trkpt>
      <trkpt lat="48.92275" lon="-0.47081">
        <ele>45.8</ele>
        <time>2023-05-02T12:44:22Z</time>
      </trkpt>
      <trkpt lat="48.92283" lon="-0.47079">
        <ele>46</ele>
        <time>2023-05-02T12:44:23Z</time>
      </trkpt>
      <trkpt lat="48.9229" lon="-0.47076">
        <ele>46</ele>
        <time>2023-05-02T12:44:24Z</time>
      </trkpt>
      <trkpt lat="48.92298" lon="-0.47073">
        <ele>46.2</ele>
        <time>2023-05-02T12:44:25Z</time>
      </trkpt>
      <trkpt lat="48.92306" lon="-0.47071">
        <ele>46.6</ele>
        <time>2023-05-02T12:44:26Z</time>
      </trkpt>
      <trkpt lat="48.92314" lon="-0.47068">
        <ele>46.8</ele>
        <time>2023-05-02T12:44:27Z</time>
      </trkpt>
      <trkpt lat="48.92322" lon="-0.47065">
        <ele>47</ele>
        <time>2023-05-02T12:44:28Z</time>
      </trkpt>
      <trkpt lat="48.9233" lon="-0.47062">
        <ele>47.2</ele>
        <time>2023-05-02T12:44:29Z</time>
      </trkpt>
      <trkpt lat="48.92338" lon="-0.4706">
        <ele>47.6</ele>
        <time>2023-05-02T12:44:30Z</time>
      </trkpt>
      <trkpt lat="48.92346" lon="-0.47057">
        <ele>48</ele>
        <time>2023-05-02T12:44:31Z</time>
      </trkpt>
      <trkpt lat="48.92354" lon="-0.47054">
        <ele>48.6</ele>
        <time>2023-05-02T12:44:32Z</time>
      </trkpt>
      <trkpt lat="48.92362" lon="-0.47052">
        <ele>48.8</ele>
        <time>2023-05-02T12:44:33Z</time>
      </trkpt>
      <trkpt lat="48.9237" lon="-0.47049">
        <ele>49</ele>
        <time>2023-05-02T12:44:34Z</time>
      </trkpt>
      <trkpt lat="48.92377" lon="-0.47047">
        <ele>49.4</ele>
        <time>2023-05-02T12:44:35Z</time>
      </trkpt>
      <trkpt lat="48.92385" lon="-0.47045">
        <ele>49.8</ele>
        <time>2023-05-02T12:44:36Z</time>
      </trkpt>
      <trkpt lat="48.92393" lon="-0.47043">
        <ele>50</ele>
        <time>2023-05-02T12:44:37Z</time>
      </trkpt>
      <trkpt lat="48.92401" lon="-0.47041">
        <ele>50</ele>
        <time>2023-05-02T12:44:38Z</time>
      </trkpt>
      <trkpt lat="48.92409" lon="-0.47039">
        <ele>50</ele>
        <time>2023-05-02T12:44:39Z</time>
      </trkpt>
      <trkpt lat="48.92416" lon="-0.47037">
        <ele>50.2</ele>
        <time>2023-05-02T12:44:40Z</time>
      </trkpt>
      <trkpt lat="48.92424" lon="-0.47035">
        <ele>50.6</ele>
        <time>2023-05-02T12:44:41Z</time>
      </trkpt>
      <trkpt lat="48.92432" lon="-0.47034">
        <ele>50.8</ele>
        <time>2023-05-02T12:44:42Z</time>
      </trkpt>
      <trkpt lat="48.92439" lon="-0.47032">
        <ele>51</ele>
        <time>2023-05-02T12:44:43Z</time>
      </trkpt>
      <trkpt lat="48.92447" lon="-0.4703">
        <ele>51</ele>
        <time>2023-05-02T12:44:44Z</time>
      </trkpt>
      <trkpt lat="48.92454" lon="-0.47029">
        <ele>51.2</ele>
        <time>2023-05-02T12:44:45Z</time>
      </trkpt>
      <trkpt lat="48.92462" lon="-0.47027">
        <ele>51.4</ele>
        <time>2023-05-02T12:44:46Z</time>
      </trkpt>
      <trkpt lat="48.92469" lon="-0.47026">
        <ele>51.6</ele>
        <time>2023-05-02T12:44:47Z</time>
      </trkpt>
      <trkpt lat="48.92477" lon="-0.47024">
        <ele>51.6</ele>
        <time>2023-05-02T12:44:48Z</time>
      </trkpt>
      <trkpt lat="48.92485" lon="-0.47023">
        <ele>51.6</ele>
        <time>2023-05-02T12:44:49Z</time>
      </trkpt>
      <trkpt lat="48.92492" lon="-0.47022">
        <ele>51.6</ele>
        <time>2023-05-02T12:44:50Z</time>
      </trkpt>
      <trkpt lat="48.925" lon="-0.47021">
        <ele>51.4</ele>
        <time>2023-05-02T12:44:51Z</time>
      </trkpt>
      <trkpt lat="48.92508" lon="-0.47021">
        <ele>52</ele>
        <time>2023-05-02T12:44:52Z</time>
      </trkpt>
      <trkpt lat="48.92516" lon="-0.47021">
        <ele>52.8</ele>
        <time>2023-05-02T12:44:53Z</time>
      </trkpt>
      <trkpt lat="48.92523" lon="-0.47021">
        <ele>53.2</ele>
        <time>2023-05-02T12:44:54Z</time>
      </trkpt>
      <trkpt lat="48.92531" lon="-0.47022">
        <ele>53.8</ele>
        <time>2023-05-02T12:44:55Z</time>
      </trkpt>
      <trkpt lat="48.92538" lon="-0.47023">
        <ele>54</ele>
        <time>2023-05-02T12:44:56Z</time>
      </trkpt>
      <trkpt lat="48.92546" lon="-0.47024">
        <ele>54.2</ele>
        <time>2023-05-02T12:44:57Z</time>
      </trkpt>
      <trkpt lat="48.92553" lon="-0.47025">
        <ele>54.6</ele>
        <time>2023-05-02T12:44:58Z</time>
      </trkpt>
      <trkpt lat="48.92561" lon="-0.47027">
        <ele>54.6</ele>
        <time>2023-05-02T12:44:59Z</time>
      </trkpt>
      <trkpt lat="48.92568" lon="-0.4703">
        <ele>54.4</ele>
        <time>2023-05-02T12:45:00Z</time>
      </trkpt>
      <trkpt lat="48.92575" lon="-0.47032">
        <ele>54</ele>
        <time>2023-05-02T12:45:01Z</time>
      </trkpt>
      <trkpt lat="48.92583" lon="-0.47036">
        <ele>53.8</ele>
        <time>2023-05-02T12:45:02Z</time>
      </trkpt>
      <trkpt lat="48.9259" lon="-0.47039">
        <ele>53.8</ele>
        <time>2023-05-02T12:45:03Z</time>
      </trkpt>
      <trkpt lat="48.92597" lon="-0.47043">
        <ele>53.6</ele>
        <time>2023-05-02T12:45:04Z</time>
      </trkpt>
      <trkpt lat="48.92604" lon="-0.47046">
        <ele>53.4</ele>
        <time>2023-05-02T12:45:05Z</time>
      </trkpt>
      <trkpt lat="48.92611" lon="-0.4705">
        <ele>53</ele>
        <time>2023-05-02T12:45:06Z</time>
      </trkpt>
      <trkpt lat="48.92619" lon="-0.47055">
        <ele>52.8</ele>
        <time>2023-05-02T12:45:07Z</time>
      </trkpt>
      <trkpt lat="48.92626" lon="-0.47059">
        <ele>52.2</ele>
        <time>2023-05-02T12:45:08Z</time>
      </trkpt>
      <trkpt lat="48.92633" lon="-0.47063">
        <ele>51.8</ele>
        <time>2023-05-02T12:45:09Z</time>
      </trkpt>
      <trkpt lat="48.92641" lon="-0.47067">
        <ele>51</ele>
        <time>2023-05-02T12:45:10Z</time>
      </trkpt>
      <trkpt lat="48.92648" lon="-0.47072">
        <ele>50</ele>
        <time>2023-05-02T12:45:11Z</time>
      </trkpt>
      <trkpt lat="48.92655" lon="-0.47077">
        <ele>49</ele>
        <time>2023-05-02T12:45:12Z</time>
      </trkpt>
      <trkpt lat="48.92662" lon="-0.47083">
        <ele>47.8</ele>
        <time>2023-05-02T12:45:13Z</time>
      </trkpt>
      <trkpt lat="48.92669" lon="-0.47088">
        <ele>47.8</ele>
        <time>2023-05-02T12:45:14Z</time>
      </trkpt>
      <trkpt lat="48.92676" lon="-0.47094">
        <ele>48</ele>
        <time>2023-05-02T12:45:15Z</time>
      </trkpt>
      <trkpt lat="48.92682" lon="-0.471">
        <ele>48</ele>
        <time>2023-05-02T12:45:16Z</time>
      </trkpt>
      <trkpt lat="48.92689" lon="-0.47107">
        <ele>48</ele>
        <time>2023-05-02T12:45:17Z</time>
      </trkpt>
      <trkpt lat="48.92695" lon="-0.47114">
        <ele>48</ele>
        <time>2023-05-02T12:45:18Z</time>
      </trkpt>
      <trkpt lat="48.92701" lon="-0.47121">
        <ele>47.6</ele>
        <time>2023-05-02T12:45:19Z</time>
      </trkpt>
      <trkpt lat="48.92708" lon="-0.47128">
        <ele>47</ele>
        <time>2023-05-02T12:45:20Z</time>
      </trkpt>
      <trkpt lat="48.92714" lon="-0.47136">
        <ele>46.2</ele>
        <time>2023-05-02T12:45:21Z</time>
      </trkpt>
      <trkpt lat="48.9272" lon="-0.47144">
        <ele>45.2</ele>
        <time>2023-05-02T12:45:22Z</time>
      </trkpt>
      <trkpt lat="48.92725" lon="-0.47152">
        <ele>44</ele>
        <time>2023-05-02T12:45:23Z</time>
      </trkpt>
      <trkpt lat="48.92731" lon="-0.47161">
        <ele>42.6</ele>
        <time>2023-05-02T12:45:24Z</time>
      </trkpt>
      <trkpt lat="48.92737" lon="-0.47169">
        <ele>41.6</ele>
        <time>2023-05-02T12:45:25Z</time>
      </trkpt>
      <trkpt lat="48.92742" lon="-0.47178">
        <ele>41.4</ele>
        <time>2023-05-02T12:45:26Z</time>
      </trkpt>
      <trkpt lat="48.92748" lon="-0.47187">
        <ele>41</ele>
        <time>2023-05-02T12:45:27Z</time>
      </trkpt>
      <trkpt lat="48.92753" lon="-0.47197">
        <ele>41.2</ele>
        <time>2023-05-02T12:45:28Z</time>
      </trkpt>
      <trkpt lat="48.92758" lon="-0.47206">
        <ele>42</ele>
        <time>2023-05-02T12:45:29Z</time>
      </trkpt>
      <trkpt lat="48.92763" lon="-0.47216">
        <ele>42.2</ele>
        <time>2023-05-02T12:45:30Z</time>
      </trkpt>
      <trkpt lat="48.92768" lon="-0.47226">
        <ele>42.2</ele>
        <time>2023-05-02T12:45:31Z</time>
      </trkpt>
      <trkpt lat="48.92772" lon="-0.47236">
        <ele>42</ele>
        <time>2023-05-02T12:45:32Z</time>
      </trkpt>
      <trkpt lat="48.92777" lon="-0.47246">
        <ele>41.6</ele>
        <time>2023-05-02T12:45:33Z</time>
      </trkpt>
      <trkpt lat="48.92781" lon="-0.47257">
        <ele>41.8</ele>
        <time>2023-05-02T12:45:34Z</time>
      </trkpt>
      <trkpt lat="48.92785" lon="-0.47267">
        <ele>42</ele>
        <time>2023-05-02T12:45:35Z</time>
      </trkpt>
      <trkpt lat="48.92788" lon="-0.47278">
        <ele>42</ele>
        <time>2023-05-02T12:45:36Z</time>
      </trkpt>
      <trkpt lat="48.92792" lon="-0.47288">
        <ele>42</ele>
        <time>2023-05-02T12:45:37Z</time>
      </trkpt>
      <trkpt lat="48.92795" lon="-0.47299">
        <ele>41.8</ele>
        <time>2023-05-02T12:45:38Z</time>
      </trkpt>
      <trkpt lat="48.92798" lon="-0.4731">
        <ele>41.2</ele>
        <time>2023-05-02T12:45:39Z</time>
      </trkpt>
      <trkpt lat="48.928" lon="-0.4732">
        <ele>40.8</ele>
        <time>2023-05-02T12:45:40Z</time>
      </trkpt>
      <trkpt lat="48.92803" lon="-0.47331">
        <ele>40</ele>
        <time>2023-05-02T12:45:41Z</time>
      </trkpt>
      <trkpt lat="48.92805" lon="-0.47341">
        <ele>40.2</ele>
        <time>2023-05-02T12:45:42Z</time>
      </trkpt>
      <trkpt lat="48.92808" lon="-0.47352">
        <ele>40.8</ele>
        <time>2023-05-02T12:45:43Z</time>
      </trkpt>
      <trkpt lat="48.9281" lon="-0.47362">
        <ele>41</ele>
        <time>2023-05-02T12:45:44Z</time>
      </trkpt>
      <trkpt lat="48.92812" lon="-0.47373">
        <ele>41.6</ele>
        <time>2023-05-02T12:45:45Z</time>
      </trkpt>
      <trkpt lat="48.92814" lon="-0.47383">
        <ele>42</ele>
        <time>2023-05-02T12:45:46Z</time>
      </trkpt>
      <trkpt lat="48.92815" lon="-0.47394">
        <ele>42.6</ele>
        <time>2023-05-02T12:45:47Z</time>
      </trkpt>
      <trkpt lat="48.92817" lon="-0.47404">
        <ele>43</ele>
        <time>2023-05-02T12:45:48Z</time>
      </trkpt>
      <trkpt lat="48.92818" lon="-0.47415">
        <ele>43.8</ele>
        <time>2023-05-02T12:45:49Z</time>
      </trkpt>
      <trkpt lat="48.9282" lon="-0.47426">
        <ele>44.8</ele>
        <time>2023-05-02T12:45:50Z</time>
      </trkpt>
      <trkpt lat="48.9282" lon="-0.47437">
        <ele>45.8</ele>
        <time>2023-05-02T12:45:51Z</time>
      </trkpt>
      <trkpt lat="48.92821" lon="-0.47448">
        <ele>46.8</ele>
        <time>2023-05-02T12:45:52Z</time>
      </trkpt>
      <trkpt lat="48.92822" lon="-0.47459">
        <ele>48</ele>
        <time>2023-05-02T12:45:53Z</time>
      </trkpt>
      <trkpt lat="48.92822" lon="-0.4747">
        <ele>49</ele>
        <time>2023-05-02T12:45:54Z</time>
      </trkpt>
      <trkpt lat="48.92822" lon="-0.47481">
        <ele>50</ele>
        <time>2023-05-02T12:45:55Z</time>
      </trkpt>
      <trkpt lat="48.92822" lon="-0.47492">
        <ele>51</ele>
        <time>2023-05-02T12:45:56Z</time>
      </trkpt>
      <trkpt lat="48.92822" lon="-0.47502">
        <ele>51.8</ele>
        <time>2023-05-02T12:45:57Z</time>
      </trkpt>
      <trkpt lat="48.92821" lon="-0.47513">
        <ele>52.6</ele>
        <time>2023-05-02T12:45:58Z</time>
      </trkpt>
      <trkpt lat="48.92821" lon="-0.47523">
        <ele>53</ele>
        <time>2023-05-02T12:45:59Z</time>
      </trkpt>
      <trkpt lat="48.9282" lon="-0.47534">
        <ele>53.6</ele>
        <time>2023-05-02T12:46:00Z</time>
      </trkpt>
      <trkpt lat="48.92819" lon="-0.47544">
        <ele>54</ele>
        <time>2023-05-02T12:46:01Z</time>
      </trkpt>
      <trkpt lat="48.92818" lon="-0.47554">
        <ele>54.6</ele>
        <time>2023-05-02T12:46:02Z</time>
      </trkpt>
      <trkpt lat="48.92817" lon="-0.47565">
        <ele>55</ele>
        <time>2023-05-02T12:46:03Z</time>
      </trkpt>
      <trkpt lat="48.92816" lon="-0.47575">
        <ele>55.2</ele>
        <time>2023-05-02T12:46:04Z</time>
      </trkpt>
      <trkpt lat="48.92814" lon="-0.47585">
        <ele>55.6</ele>
        <time>2023-05-02T12:46:05Z</time>
      </trkpt>
      <trkpt lat="48.92813" lon="-0.47595">
        <ele>56.2</ele>
        <time>2023-05-02T12:46:06Z</time>
      </trkpt>
      <trkpt lat="48.92811" lon="-0.47605">
        <ele>56.8</ele>
        <time>2023-05-02T12:46:07Z</time>
      </trkpt>
      <trkpt lat="48.9281" lon="-0.47615">
        <ele>57.2</ele>
        <time>2023-05-02T12:46:08Z</time>
      </trkpt>
      <trkpt lat="48.92808" lon="-0.47625">
        <ele>57.8</ele>
        <time>2023-05-02T12:46:09Z</time>
      </trkpt>
      <trkpt lat="48.92806" lon="-0.47635">
        <ele>58</ele>
        <time>2023-05-02T12:46:10Z</time>
      </trkpt>
      <trkpt lat="48.92804" lon="-0.47645">
        <ele>58.2</ele>
        <time>2023-05-02T12:46:11Z</time>
      </trkpt>
      <trkpt lat="48.92802" lon="-0.47655">
        <ele>58.6</ele>
        <time>2023-05-02T12:46:12Z</time>
      </trkpt>
      <trkpt lat="48.928" lon="-0.47665">
        <ele>58.8</ele>
        <time>2023-05-02T12:46:13Z</time>
      </trkpt>
      <trkpt lat="48.92798" lon="-0.47675">
        <ele>58.6</ele>
        <time>2023-05-02T12:46:14Z</time>
      </trkpt>
      <trkpt lat="48.92797" lon="-0.47685">
        <ele>58.6</ele>
        <time>2023-05-02T12:46:15Z</time>
      </trkpt>
      <trkpt lat="48.92795" lon="-0.47695">
        <ele>58.4</ele>
        <time>2023-05-02T12:46:16Z</time>
      </trkpt>
      <trkpt lat="48.92793" lon="-0.47706">
        <ele>58.2</ele>
        <time>2023-05-02T12:46:17Z</time>
      </trkpt>
      <trkpt lat="48.92791" lon="-0.47716">
        <ele>58</ele>
        <time>2023-05-02T12:46:18Z</time>
      </trkpt>
      <trkpt lat="48.92789" lon="-0.47726">
        <ele>58</ele>
        <time>2023-05-02T12:46:19Z</time>
      </trkpt>
      <trkpt lat="48.92787" lon="-0.47736">
        <ele>57.8</ele>
        <time>2023-05-02T12:46:20Z</time>
      </trkpt>
      <trkpt lat="48.92785" lon="-0.47746">
        <ele>57.6</ele>
        <time>2023-05-02T12:46:21Z</time>
      </trkpt>
      <trkpt lat="48.92783" lon="-0.47756">
        <ele>56.8</ele>
        <time>2023-05-02T12:46:22Z</time>
      </trkpt>
      <trkpt lat="48.92781" lon="-0.47766">
        <ele>55.4</ele>
        <time>2023-05-02T12:46:23Z</time>
      </trkpt>
      <trkpt lat="48.92779" lon="-0.47776">
        <ele>54</ele>
        <time>2023-05-02T12:46:24Z</time>
      </trkpt>
      <trkpt lat="48.92777" lon="-0.47786">
        <ele>52.8</ele>
        <time>2023-05-02T12:46:25Z</time>
      </trkpt>
      <trkpt lat="48.92775" lon="-0.47796">
        <ele>51.6</ele>
        <time>2023-05-02T12:46:26Z</time>
      </trkpt>
      <trkpt lat="48.92774" lon="-0.47807">
        <ele>50.2</ele>
        <time>2023-05-02T12:46:27Z</time>
      </trkpt>
      <trkpt lat="48.92772" lon="-0.47817">
        <ele>49.2</ele>
        <time>2023-05-02T12:46:28Z</time>
      </trkpt>
      <trkpt lat="48.9277" lon="-0.47827">
        <ele>48</ele>
        <time>2023-05-02T12:46:29Z</time>
      </trkpt>
      <trkpt lat="48.92769" lon="-0.47837">
        <ele>47</ele>
        <time>2023-05-02T12:46:30Z</time>
      </trkpt>
      <trkpt lat="48.92767" lon="-0.47847">
        <ele>46</ele>
        <time>2023-05-02T12:46:31Z</time>
      </trkpt>
      <trkpt lat="48.92766" lon="-0.47857">
        <ele>45.2</ele>
        <time>2023-05-02T12:46:32Z</time>
      </trkpt>
      <trkpt lat="48.92765" lon="-0.47868">
        <ele>44.6</ele>
        <time>2023-05-02T12:46:33Z</time>
      </trkpt>
      <trkpt lat="48.92764" lon="-0.47878">
        <ele>43.8</ele>
        <time>2023-05-02T12:46:34Z</time>
      </trkpt>
      <trkpt lat="48.92763" lon="-0.47888">
        <ele>43</ele>
        <time>2023-05-02T12:46:35Z</time>
      </trkpt>
      <trkpt lat="48.92762" lon="-0.47898">
        <ele>42.6</ele>
        <time>2023-05-02T12:46:36Z</time>
      </trkpt>
      <trkpt lat="48.92761" lon="-0.47908">
        <ele>42</ele>
        <time>2023-05-02T12:46:37Z</time>
      </trkpt>
      <trkpt lat="48.9276" lon="-0.47918">
        <ele>41.4</ele>
        <time>2023-05-02T12:46:38Z</time>
      </trkpt>
      <trkpt lat="48.92759" lon="-0.47928">
        <ele>41</ele>
        <time>2023-05-02T12:46:39Z</time>
      </trkpt>
      <trkpt lat="48.92759" lon="-0.47938">
        <ele>40.8</ele>
        <time>2023-05-02T12:46:40Z</time>
      </trkpt>
      <trkpt lat="48.92758" lon="-0.47948">
        <ele>40.6</ele>
        <time>2023-05-02T12:46:41Z</time>
      </trkpt>
      <trkpt lat="48.92758" lon="-0.47958">
        <ele>40.2</ele>
        <time>2023-05-02T12:46:42Z</time>
      </trkpt>
      <trkpt lat="48.92758" lon="-0.47968">
        <ele>40.2</ele>
        <time>2023-05-02T12:46:43Z</time>
      </trkpt>
      <trkpt lat="48.92758" lon="-0.47978">
        <ele>40</ele>
        <time>2023-05-02T12:46:44Z</time>
      </trkpt>
      <trkpt lat="48.92758" lon="-0.47988">
        <ele>40</ele>
        <time>2023-05-02T12:46:45Z</time>
      </trkpt>
      <trkpt lat="48.92759" lon="-0.47998">
        <ele>40</ele>
        <time>2023-05-02T12:46:46Z</time>
      </trkpt>
      <trkpt lat="48.9276" lon="-0.48008">
        <ele>40.2</ele>
        <time>2023-05-02T12:46:47Z</time>
      </trkpt>
      <trkpt lat="48.92761" lon="-0.48018">
        <ele>40.2</ele>
        <time>2023-05-02T12:46:48Z</time>
      </trkpt>
      <trkpt lat="48.92762" lon="-0.48028">
        <ele>40.4</ele>
        <time>2023-05-02T12:46:49Z</time>
      </trkpt>
      <trkpt lat="48.92763" lon="-0.48038">
        <ele>40.6</ele>
        <time>2023-05-02T12:46:50Z</time>
      </trkpt>
      <trkpt lat="48.92763" lon="-0.48048">
        <ele>40.6</ele>
        <time>2023-05-02T12:46:51Z</time>
      </trkpt>
      <trkpt lat="48.92764" lon="-0.48059">
        <ele>40.6</ele>
        <time>2023-05-02T12:46:52Z</time>
      </trkpt>
      <trkpt lat="48.92764" lon="-0.48069">
        <ele>40.6</ele>
        <time>2023-05-02T12:46:53Z</time>
      </trkpt>
      <trkpt lat="48.92764" lon="-0.48079">
        <ele>40.6</ele>
        <time>2023-05-02T12:46:54Z</time>
      </trkpt>
      <trkpt lat="48.92765" lon="-0.48089">
        <ele>40.6</ele>
        <time>2023-05-02T12:46:55Z</time>
      </trkpt>
      <trkpt lat="48.92765" lon="-0.48099">
        <ele>40.6</ele>
        <time>2023-05-02T12:46:56Z</time>
      </trkpt>
      <trkpt lat="48.92766" lon="-0.48109">
        <ele>40.6</ele>
        <time>2023-05-02T12:46:57Z</time>
      </trkpt>
      <trkpt lat="48.92766" lon="-0.48119">
        <ele>40.8</ele>
        <time>2023-05-02T12:46:58Z</time>
      </trkpt>
      <trkpt lat="48.92767" lon="-0.48129">
        <ele>40.8</ele>
        <time>2023-05-02T12:46:59Z</time>
      </trkpt>
      <trkpt lat="48.92767" lon="-0.48138">
        <ele>40.8</ele>
        <time>2023-05-02T12:47:00Z</time>
      </trkpt>
      <trkpt lat="48.92767" lon="-0.48147">
        <ele>40.8</ele>
        <time>2023-05-02T12:47:01Z</time>
      </trkpt>
      <trkpt lat="48.92768" lon="-0.48156">
        <ele>40.8</ele>
        <time>2023-05-02T12:47:02Z</time>
      </trkpt>
      <trkpt lat="48.92768" lon="-0.48164">
        <ele>40.8</ele>
        <time>2023-05-02T12:47:03Z</time>
      </trkpt>
      <trkpt lat="48.92768" lon="-0.48172">
        <ele>40.8</ele>
        <time>2023-05-02T12:47:04Z</time>
      </trkpt>
      <trkpt lat="48.92769" lon="-0.48179">
        <ele>40.6</ele>
        <time>2023-05-02T12:47:05Z</time>
      </trkpt>
      <trkpt lat="48.9277" lon="-0.48185">
        <ele>40.6</ele>
        <time>2023-05-02T12:47:06Z</time>
      </trkpt>
      <trkpt lat="48.9277" lon="-0.4819">
        <ele>40.6</ele>
        <time>2023-05-02T12:47:07Z</time>
      </trkpt>
      <trkpt lat="48.92771" lon="-0.48195">
        <ele>40.4</ele>
        <time>2023-05-02T12:47:08Z</time>
      </trkpt>
      <trkpt lat="48.92772" lon="-0.48201">
        <ele>40.4</ele>
        <time>2023-05-02T12:47:09Z</time>
      </trkpt>
      <trkpt lat="48.92773" lon="-0.48208">
        <ele>40.2</ele>
        <time>2023-05-02T12:47:10Z</time>
      </trkpt>
      <trkpt lat="48.92774" lon="-0.48214">
        <ele>40.2</ele>
        <time>2023-05-02T12:47:11Z</time>
      </trkpt>
      <trkpt lat="48.92774" lon="-0.48222">
        <ele>40.2</ele>
        <time>2023-05-02T12:47:12Z</time>
      </trkpt>
      <trkpt lat="48.92775" lon="-0.48229">
        <ele>40</ele>
        <time>2023-05-02T12:47:13Z</time>
      </trkpt>
      <trkpt lat="48.92775" lon="-0.48237">
        <ele>40</ele>
        <time>2023-05-02T12:47:14Z</time>
      </trkpt>
      <trkpt lat="48.92776" lon="-0.48245">
        <ele>39.8</ele>
        <time>2023-05-02T12:47:15Z</time>
      </trkpt>
      <trkpt lat="48.92776" lon="-0.48254">
        <ele>39.8</ele>
        <time>2023-05-02T12:47:16Z</time>
      </trkpt>
      <trkpt lat="48.92777" lon="-0.48263">
        <ele>39.8</ele>
        <time>2023-05-02T12:47:17Z</time>
      </trkpt>
      <trkpt lat="48.92777" lon="-0.48273">
        <ele>39.6</ele>
        <time>2023-05-02T12:47:18Z</time>
      </trkpt>
      <trkpt lat="48.92777" lon="-0.48282">
        <ele>39.6</ele>
        <time>2023-05-02T12:47:19Z</time>
      </trkpt>
      <trkpt lat="48.92777" lon="-0.48292">
        <ele>39.4</ele>
        <time>2023-05-02T12:47:20Z</time>
      </trkpt>
      <trkpt lat="48.92778" lon="-0.48302">
        <ele>39.4</ele>
        <time>2023-05-02T12:47:21Z</time>
      </trkpt>
      <trkpt lat="48.92778" lon="-0.48311">
        <ele>39.2</ele>
        <time>2023-05-02T12:47:22Z</time>
      </trkpt>
      <trkpt lat="48.92778" lon="-0.48321">
        <ele>39.2</ele>
        <time>2023-05-02T12:47:23Z</time>
      </trkpt>
      <trkpt lat="48.92778" lon="-0.48331">
        <ele>39</ele>
        <time>2023-05-02T12:47:24Z</time>
      </trkpt>
      <trkpt lat="48.92779" lon="-0.48341">
        <ele>39</ele>
        <time>2023-05-02T12:47:25Z</time>
      </trkpt>
      <trkpt lat="48.92779" lon="-0.48351">
        <ele>39</ele>
        <time>2023-05-02T12:47:26Z</time>
      </trkpt>
      <trkpt lat="48.9278" lon="-0.48361">
        <ele>39</ele>
        <time>2023-05-02T12:47:27Z</time>
      </trkpt>
      <trkpt lat="48.9278" lon="-0.4837">
        <ele>39</ele>
        <time>2023-05-02T12:47:28Z</time>
      </trkpt>
      <trkpt lat="48.92781" lon="-0.4838">
        <ele>38.8</ele>
        <time>2023-05-02T12:47:29Z</time>
      </trkpt>
      <trkpt lat="48.92781" lon="-0.4839">
        <ele>38.8</ele>
        <time>2023-05-02T12:47:30Z</time>
      </trkpt>
      <trkpt lat="48.92782" lon="-0.484">
        <ele>38.8</ele>
        <time>2023-05-02T12:47:31Z</time>
      </trkpt>
      <trkpt lat="48.92783" lon="-0.4841">
        <ele>38.6</ele>
        <time>2023-05-02T12:47:32Z</time>
      </trkpt>
      <trkpt lat="48.92783" lon="-0.4842">
        <ele>38.6</ele>
        <time>2023-05-02T12:47:33Z</time>
      </trkpt>
      <trkpt lat="48.92784" lon="-0.4843">
        <ele>38.6</ele>
        <time>2023-05-02T12:47:34Z</time>
      </trkpt>
      <trkpt lat="48.92784" lon="-0.4844">
        <ele>38.6</ele>
        <time>2023-05-02T12:47:35Z</time>
      </trkpt>
      <trkpt lat="48.92785" lon="-0.48451">
        <ele>38.6</ele>
        <time>2023-05-02T12:47:36Z</time>
      </trkpt>
      <trkpt lat="48.92785" lon="-0.48461">
        <ele>38.6</ele>
        <time>2023-05-02T12:47:37Z</time>
      </trkpt>
      <trkpt lat="48.92786" lon="-0.48472">
        <ele>38.6</ele>
        <time>2023-05-02T12:47:38Z</time>
      </trkpt>
      <trkpt lat="48.92787" lon="-0.48483">
        <ele>38.6</ele>
        <time>2023-05-02T12:47:39Z</time>
      </trkpt>
      <trkpt lat="48.92787" lon="-0.48493">
        <ele>38.6</ele>
        <time>2023-05-02T12:47:40Z</time>
      </trkpt>
      <trkpt lat="48.92788" lon="-0.48504">
        <ele>38.6</ele>
        <time>2023-05-02T12:47:41Z</time>
      </trkpt>
      <trkpt lat="48.92788" lon="-0.48514">
        <ele>38.6</ele>
        <time>2023-05-02T12:47:42Z</time>
      </trkpt>
      <trkpt lat="48.92788" lon="-0.48524">
        <ele>38.6</ele>
        <time>2023-05-02T12:47:43Z</time>
      </trkpt>
      <trkpt lat="48.92788" lon="-0.48534">
        <ele>38.6</ele>
        <time>2023-05-02T12:47:44Z</time>
      </trkpt>
      <trkpt lat="48.92788" lon="-0.48543">
        <ele>38.4</ele>
        <time>2023-05-02T12:47:45Z</time>
      </trkpt>
      <trkpt lat="48.92788" lon="-0.48552">
        <ele>38.2</ele>
        <time>2023-05-02T12:47:46Z</time>
      </trkpt>
      <trkpt lat="48.92788" lon="-0.48562">
        <ele>38.2</ele>
        <time>2023-05-02T12:47:47Z</time>
      </trkpt>
      <trkpt lat="48.92788" lon="-0.48571">
        <ele>38.2</ele>
        <time>2023-05-02T12:47:48Z</time>
      </trkpt>
      <trkpt lat="48.92789" lon="-0.48581">
        <ele>38.2</ele>
        <time>2023-05-02T12:47:49Z</time>
      </trkpt>
      <trkpt lat="48.92789" lon="-0.48591">
        <ele>38</ele>
        <time>2023-05-02T12:47:50Z</time>
      </trkpt>
      <trkpt lat="48.92789" lon="-0.48601">
        <ele>38</ele>
        <time>2023-05-02T12:47:51Z</time>
      </trkpt>
      <trkpt lat="48.9279" lon="-0.48611">
        <ele>38</ele>
        <time>2023-05-02T12:47:52Z</time>
      </trkpt>
      <trkpt lat="48.9279" lon="-0.48621">
        <ele>38</ele>
        <time>2023-05-02T12:47:53Z</time>
      </trkpt>
      <trkpt lat="48.92791" lon="-0.48632">
        <ele>38</ele>
        <time>2023-05-02T12:47:54Z</time>
      </trkpt>
      <trkpt lat="48.92791" lon="-0.48642">
        <ele>38</ele>
        <time>2023-05-02T12:47:55Z</time>
      </trkpt>
      <trkpt lat="48.92792" lon="-0.48653">
        <ele>38</ele>
        <time>2023-05-02T12:47:56Z</time>
      </trkpt>
      <trkpt lat="48.92793" lon="-0.48664">
        <ele>38</ele>
        <time>2023-05-02T12:47:57Z</time>
      </trkpt>
      <trkpt lat="48.92794" lon="-0.48674">
        <ele>38.2</ele>
        <time>2023-05-02T12:47:58Z</time>
      </trkpt>
      <trkpt lat="48.92794" lon="-0.48685">
        <ele>38.6</ele>
        <time>2023-05-02T12:47:59Z</time>
      </trkpt>
      <trkpt lat="48.92795" lon="-0.48696">
        <ele>38.8</ele>
        <time>2023-05-02T12:48:00Z</time>
      </trkpt>
      <trkpt lat="48.92796" lon="-0.48707">
        <ele>39</ele>
        <time>2023-05-02T12:48:01Z</time>
      </trkpt>
      <trkpt lat="48.92796" lon="-0.48717">
        <ele>39</ele>
        <time>2023-05-02T12:48:02Z</time>
      </trkpt>
      <trkpt lat="48.92796" lon="-0.48728">
        <ele>39.2</ele>
        <time>2023-05-02T12:48:03Z</time>
      </trkpt>
      <trkpt lat="48.92797" lon="-0.48739">
        <ele>39.2</ele>
        <time>2023-05-02T12:48:04Z</time>
      </trkpt>
      <trkpt lat="48.92797" lon="-0.4875">
        <ele>39.6</ele>
        <time>2023-05-02T12:48:05Z</time>
      </trkpt>
      <trkpt lat="48.92797" lon="-0.48761">
        <ele>39.6</ele>
        <time>2023-05-02T12:48:06Z</time>
      </trkpt>
      <trkpt lat="48.92798" lon="-0.48772">
        <ele>39.8</ele>
        <time>2023-05-02T12:48:07Z</time>
      </trkpt>
      <trkpt lat="48.92798" lon="-0.48783">
        <ele>40</ele>
        <time>2023-05-02T12:48:08Z</time>
      </trkpt>
      <trkpt lat="48.92799" lon="-0.48794">
        <ele>40</ele>
        <time>2023-05-02T12:48:09Z</time>
      </trkpt>
      <trkpt lat="48.928" lon="-0.48805">
        <ele>40.2</ele>
        <time>2023-05-02T12:48:10Z</time>
      </trkpt>
      <trkpt lat="48.928" lon="-0.48815">
        <ele>40.4</ele>
        <time>2023-05-02T12:48:11Z</time>
      </trkpt>
      <trkpt lat="48.92801" lon="-0.48826">
        <ele>40.6</ele>
        <time>2023-05-02T12:48:12Z</time>
      </trkpt>
      <trkpt lat="48.92801" lon="-0.48836">
        <ele>40.8</ele>
        <time>2023-05-02T12:48:13Z</time>
      </trkpt>
      <trkpt lat="48.92802" lon="-0.48847">
        <ele>40.8</ele>
        <time>2023-05-02T12:48:14Z</time>
      </trkpt>
      <trkpt lat="48.92802" lon="-0.48857">
        <ele>40.8</ele>
        <time>2023-05-02T12:48:15Z</time>
      </trkpt>
      <trkpt lat="48.92803" lon="-0.48868">
        <ele>40.8</ele>
        <time>2023-05-02T12:48:16Z</time>
      </trkpt>
      <trkpt lat="48.92804" lon="-0.48878">
        <ele>41</ele>
        <time>2023-05-02T12:48:17Z</time>
      </trkpt>
      <trkpt lat="48.92804" lon="-0.48888">
        <ele>41</ele>
        <time>2023-05-02T12:48:18Z</time>
      </trkpt>
      <trkpt lat="48.92805" lon="-0.48898">
        <ele>41</ele>
        <time>2023-05-02T12:48:19Z</time>
      </trkpt>
      <trkpt lat="48.92805" lon="-0.48909">
        <ele>41</ele>
        <time>2023-05-02T12:48:20Z</time>
      </trkpt>
      <trkpt lat="48.92806" lon="-0.48919">
        <ele>41</ele>
        <time>2023-05-02T12:48:21Z</time>
      </trkpt>
      <trkpt lat="48.92806" lon="-0.48929">
        <ele>41</ele>
        <time>2023-05-02T12:48:22Z</time>
      </trkpt>
      <trkpt lat="48.92807" lon="-0.48939">
        <ele>41</ele>
        <time>2023-05-02T12:48:23Z</time>
      </trkpt>
      <trkpt lat="48.92807" lon="-0.48949">
        <ele>41</ele>
        <time>2023-05-02T12:48:24Z</time>
      </trkpt>
      <trkpt lat="48.92808" lon="-0.48959">
        <ele>41.2</ele>
        <time>2023-05-02T12:48:25Z</time>
      </trkpt>
      <trkpt lat="48.92809" lon="-0.48969">
        <ele>41.2</ele>
        <time>2023-05-02T12:48:26Z</time>
      </trkpt>
      <trkpt lat="48.92809" lon="-0.48979">
        <ele>41.2</ele>
        <time>2023-05-02T12:48:27Z</time>
      </trkpt>
      <trkpt lat="48.9281" lon="-0.48989">
        <ele>41.2</ele>
        <time>2023-05-02T12:48:28Z</time>
      </trkpt>
      <trkpt lat="48.9281" lon="-0.48999">
        <ele>41.2</ele>
        <time>2023-05-02T12:48:29Z</time>
      </trkpt>
      <trkpt lat="48.92811" lon="-0.49009">
        <ele>41.4</ele>
        <time>2023-05-02T12:48:30Z</time>
      </trkpt>
      <trkpt lat="48.92811" lon="-0.4902">
        <ele>41.6</ele>
        <time>2023-05-02T12:48:31Z</time>
      </trkpt>
      <trkpt lat="48.92812" lon="-0.4903">
        <ele>41.6</ele>
        <time>2023-05-02T12:48:32Z</time>
      </trkpt>
      <trkpt lat="48.92813" lon="-0.4904">
        <ele>41.6</ele>
        <time>2023-05-02T12:48:33Z</time>
      </trkpt>
      <trkpt lat="48.92813" lon="-0.49051">
        <ele>41.8</ele>
        <time>2023-05-02T12:48:34Z</time>
      </trkpt>
      <trkpt lat="48.92814" lon="-0.49061">
        <ele>41.8</ele>
        <time>2023-05-02T12:48:35Z</time>
      </trkpt>
      <trkpt lat="48.92814" lon="-0.49072">
        <ele>41.8</ele>
        <time>2023-05-02T12:48:36Z</time>
      </trkpt>
      <trkpt lat="48.92815" lon="-0.49082">
        <ele>42</ele>
        <time>2023-05-02T12:48:37Z</time>
      </trkpt>
      <trkpt lat="48.92815" lon="-0.49093">
        <ele>41.8</ele>
        <time>2023-05-02T12:48:38Z</time>
      </trkpt>
      <trkpt lat="48.92816" lon="-0.49104">
        <ele>41.8</ele>
        <time>2023-05-02T12:48:39Z</time>
      </trkpt>
      <trkpt lat="48.92816" lon="-0.49115">
        <ele>41.6</ele>
        <time>2023-05-02T12:48:40Z</time>
      </trkpt>
      <trkpt lat="48.92817" lon="-0.49126">
        <ele>41.6</ele>
        <time>2023-05-02T12:48:41Z</time>
      </trkpt>
      <trkpt lat="48.92817" lon="-0.49137">
        <ele>41.4</ele>
        <time>2023-05-02T12:48:42Z</time>
      </trkpt>
      <trkpt lat="48.92818" lon="-0.49148">
        <ele>41.2</ele>
        <time>2023-05-02T12:48:43Z</time>
      </trkpt>
      <trkpt lat="48.92819" lon="-0.49159">
        <ele>41.2</ele>
        <time>2023-05-02T12:48:44Z</time>
      </trkpt>
      <trkpt lat="48.92819" lon="-0.49171">
        <ele>41</ele>
        <time>2023-05-02T12:48:45Z</time>
      </trkpt>
      <trkpt lat="48.9282" lon="-0.49182">
        <ele>41.2</ele>
        <time>2023-05-02T12:48:46Z</time>
      </trkpt>
      <trkpt lat="48.9282" lon="-0.49193">
        <ele>41.2</ele>
        <time>2023-05-02T12:48:47Z</time>
      </trkpt>
      <trkpt lat="48.92821" lon="-0.49205">
        <ele>41.2</ele>
        <time>2023-05-02T12:48:48Z</time>
      </trkpt>
      <trkpt lat="48.92821" lon="-0.49216">
        <ele>41.2</ele>
        <time>2023-05-02T12:48:49Z</time>
      </trkpt>
      <trkpt lat="48.92822" lon="-0.49228">
        <ele>41.2</ele>
        <time>2023-05-02T12:48:50Z</time>
      </trkpt>
      <trkpt lat="48.92823" lon="-0.4924">
        <ele>41.2</ele>
        <time>2023-05-02T12:48:51Z</time>
      </trkpt>
      <trkpt lat="48.92823" lon="-0.49252">
        <ele>41.2</ele>
        <time>2023-05-02T12:48:52Z</time>
      </trkpt>
      <trkpt lat="48.92824" lon="-0.49263">
        <ele>41.2</ele>
        <time>2023-05-02T12:48:53Z</time>
      </trkpt>
      <trkpt lat="48.92825" lon="-0.49275">
        <ele>41.4</ele>
        <time>2023-05-02T12:48:54Z</time>
      </trkpt>
      <trkpt lat="48.92826" lon="-0.49286">
        <ele>41.6</ele>
        <time>2023-05-02T12:48:55Z</time>
      </trkpt>
      <trkpt lat="48.92827" lon="-0.49297">
        <ele>41.6</ele>
        <time>2023-05-02T12:48:56Z</time>
      </trkpt>
      <trkpt lat="48.92829" lon="-0.49308">
        <ele>41.8</ele>
        <time>2023-05-02T12:48:57Z</time>
      </trkpt>
      <trkpt lat="48.92829" lon="-0.49319">
        <ele>41.8</ele>
        <time>2023-05-02T12:48:58Z</time>
      </trkpt>
      <trkpt lat="48.9283" lon="-0.49331">
        <ele>41.8</ele>
        <time>2023-05-02T12:48:59Z</time>
      </trkpt>
      <trkpt lat="48.9283" lon="-0.49342">
        <ele>41.6</ele>
        <time>2023-05-02T12:49:00Z</time>
      </trkpt>
      <trkpt lat="48.92831" lon="-0.49353">
        <ele>41.4</ele>
        <time>2023-05-02T12:49:01Z</time>
      </trkpt>
      <trkpt lat="48.92832" lon="-0.49364">
        <ele>41.2</ele>
        <time>2023-05-02T12:49:02Z</time>
      </trkpt>
      <trkpt lat="48.92833" lon="-0.49375">
        <ele>41</ele>
        <time>2023-05-02T12:49:03Z</time>
      </trkpt>
      <trkpt lat="48.92833" lon="-0.49387">
        <ele>40.8</ele>
        <time>2023-05-02T12:49:04Z</time>
      </trkpt>
      <trkpt lat="48.92833" lon="-0.49397">
        <ele>40.6</ele>
        <time>2023-05-02T12:49:05Z</time>
      </trkpt>
      <trkpt lat="48.92834" lon="-0.49408">
        <ele>40.2</ele>
        <time>2023-05-02T12:49:06Z</time>
      </trkpt>
      <trkpt lat="48.92834" lon="-0.49417">
        <ele>40</ele>
        <time>2023-05-02T12:49:07Z</time>
      </trkpt>
      <trkpt lat="48.92834" lon="-0.49425">
        <ele>40</ele>
        <time>2023-05-02T12:49:08Z</time>
      </trkpt>
      <trkpt lat="48.92835" lon="-0.49432">
        <ele>40</ele>
        <time>2023-05-02T12:49:09Z</time>
      </trkpt>
      <trkpt lat="48.92836" lon="-0.49437">
        <ele>40</ele>
        <time>2023-05-02T12:49:10Z</time>
      </trkpt>
      <trkpt lat="48.92836" lon="-0.49441">
        <ele>40</ele>
        <time>2023-05-02T12:49:11Z</time>
      </trkpt>
      <trkpt lat="48.92836" lon="-0.49446">
        <ele>40</ele>
        <time>2023-05-02T12:49:12Z</time>
      </trkpt>
      <trkpt lat="48.92837" lon="-0.49451">
        <ele>40</ele>
        <time>2023-05-02T12:49:13Z</time>
      </trkpt>
      <trkpt lat="48.92837" lon="-0.49457">
        <ele>39.8</ele>
        <time>2023-05-02T12:49:14Z</time>
      </trkpt>
      <trkpt lat="48.92837" lon="-0.49464">
        <ele>39.8</ele>
        <time>2023-05-02T12:49:15Z</time>
      </trkpt>
      <trkpt lat="48.92837" lon="-0.49472">
        <ele>39.8</ele>
        <time>2023-05-02T12:49:16Z</time>
      </trkpt>
      <trkpt lat="48.92838" lon="-0.49479">
        <ele>39.6</ele>
        <time>2023-05-02T12:49:17Z</time>
      </trkpt>
      <trkpt lat="48.92838" lon="-0.49488">
        <ele>39.6</ele>
        <time>2023-05-02T12:49:18Z</time>
      </trkpt>
      <trkpt lat="48.92839" lon="-0.49496">
        <ele>39.6</ele>
        <time>2023-05-02T12:49:19Z</time>
      </trkpt>
      <trkpt lat="48.92839" lon="-0.49505">
        <ele>39.4</ele>
        <time>2023-05-02T12:49:20Z</time>
      </trkpt>
      <trkpt lat="48.92838" lon="-0.49514">
        <ele>39.4</ele>
        <time>2023-05-02T12:49:21Z</time>
      </trkpt>
      <trkpt lat="48.92838" lon="-0.49524">
        <ele>39.4</ele>
        <time>2023-05-02T12:49:22Z</time>
      </trkpt>
      <trkpt lat="48.92839" lon="-0.49534">
        <ele>39.4</ele>
        <time>2023-05-02T12:49:23Z</time>
      </trkpt>
      <trkpt lat="48.92839" lon="-0.49544">
        <ele>39.4</ele>
        <time>2023-05-02T12:49:24Z</time>
      </trkpt>
      <trkpt lat="48.92839" lon="-0.49555">
        <ele>39.4</ele>
        <time>2023-05-02T12:49:25Z</time>
      </trkpt>
      <trkpt lat="48.92839" lon="-0.49566">
        <ele>39.4</ele>
        <time>2023-05-02T12:49:26Z</time>
      </trkpt>
      <trkpt lat="48.9284" lon="-0.49577">
        <ele>39.6</ele>
        <time>2023-05-02T12:49:27Z</time>
      </trkpt>
      <trkpt lat="48.9284" lon="-0.49588">
        <ele>39.4</ele>
        <time>2023-05-02T12:49:28Z</time>
      </trkpt>
      <trkpt lat="48.92841" lon="-0.49599">
        <ele>39.4</ele>
        <time>2023-05-02T12:49:29Z</time>
      </trkpt>
      <trkpt lat="48.92842" lon="-0.4961">
        <ele>39.2</ele>
        <time>2023-05-02T12:49:30Z</time>
      </trkpt>
      <trkpt lat="48.92843" lon="-0.49621">
        <ele>39.2</ele>
        <time>2023-05-02T12:49:31Z</time>
      </trkpt>
      <trkpt lat="48.92843" lon="-0.49633">
        <ele>39.2</ele>
        <time>2023-05-02T12:49:32Z</time>
      </trkpt>
      <trkpt lat="48.92844" lon="-0.49644">
        <ele>39</ele>
        <time>2023-05-02T12:49:33Z</time>
      </trkpt>
      <trkpt lat="48.92845" lon="-0.49655">
        <ele>39</ele>
        <time>2023-05-02T12:49:34Z</time>
      </trkpt>
      <trkpt lat="48.92845" lon="-0.49666">
        <ele>39</ele>
        <time>2023-05-02T12:49:35Z</time>
      </trkpt>
      <trkpt lat="48.92846" lon="-0.49678">
        <ele>39.2</ele>
        <time>2023-05-02T12:49:36Z</time>
      </trkpt>
      <trkpt lat="48.92847" lon="-0.49689">
        <ele>39.6</ele>
        <time>2023-05-02T12:49:37Z</time>
      </trkpt>
      <trkpt lat="48.92847" lon="-0.497">
        <ele>39.8</ele>
        <time>2023-05-02T12:49:38Z</time>
      </trkpt>
      <trkpt lat="48.92848" lon="-0.49711">
        <ele>40</ele>
        <time>2023-05-02T12:49:39Z</time>
      </trkpt>
      <trkpt lat="48.92848" lon="-0.49723">
        <ele>40.4</ele>
        <time>2023-05-02T12:49:40Z</time>
      </trkpt>
      <trkpt lat="48.92849" lon="-0.49734">
        <ele>40.8</ele>
        <time>2023-05-02T12:49:41Z</time>
      </trkpt>
      <trkpt lat="48.92849" lon="-0.49745">
        <ele>41</ele>
        <time>2023-05-02T12:49:42Z</time>
      </trkpt>
      <trkpt lat="48.9285" lon="-0.49757">
        <ele>41.2</ele>
        <time>2023-05-02T12:49:43Z</time>
      </trkpt>
      <trkpt lat="48.9285" lon="-0.49768">
        <ele>41.4</ele>
        <time>2023-05-02T12:49:44Z</time>
      </trkpt>
      <trkpt lat="48.92851" lon="-0.4978">
        <ele>41.6</ele>
        <time>2023-05-02T12:49:45Z</time>
      </trkpt>
      <trkpt lat="48.92852" lon="-0.49792">
        <ele>42</ele>
        <time>2023-05-02T12:49:46Z</time>
      </trkpt>
      <trkpt lat="48.92852" lon="-0.49804">
        <ele>42</ele>
        <time>2023-05-02T12:49:47Z</time>
      </trkpt>
      <trkpt lat="48.92853" lon="-0.49816">
        <ele>42.4</ele>
        <time>2023-05-02T12:49:48Z</time>
      </trkpt>
      <trkpt lat="48.92853" lon="-0.49827">
        <ele>42.8</ele>
        <time>2023-05-02T12:49:49Z</time>
      </trkpt>
      <trkpt lat="48.92854" lon="-0.49839">
        <ele>42.8</ele>
        <time>2023-05-02T12:49:50Z</time>
      </trkpt>
      <trkpt lat="48.92854" lon="-0.49851">
        <ele>42.6</ele>
        <time>2023-05-02T12:49:51Z</time>
      </trkpt>
      <trkpt lat="48.92855" lon="-0.49863">
        <ele>42.4</ele>
        <time>2023-05-02T12:49:52Z</time>
      </trkpt>
      <trkpt lat="48.92856" lon="-0.49875">
        <ele>42.2</ele>
        <time>2023-05-02T12:49:53Z</time>
      </trkpt>
      <trkpt lat="48.92856" lon="-0.49886">
        <ele>42</ele>
        <time>2023-05-02T12:49:54Z</time>
      </trkpt>
      <trkpt lat="48.92856" lon="-0.49898">
        <ele>41.8</ele>
        <time>2023-05-02T12:49:55Z</time>
      </trkpt>
      <trkpt lat="48.92857" lon="-0.4991">
        <ele>41.6</ele>
        <time>2023-05-02T12:49:56Z</time>
      </trkpt>
      <trkpt lat="48.92858" lon="-0.49921">
        <ele>41.4</ele>
        <time>2023-05-02T12:49:57Z</time>
      </trkpt>
      <trkpt lat="48.92858" lon="-0.49933">
        <ele>41.2</ele>
        <time>2023-05-02T12:49:58Z</time>
      </trkpt>
      <trkpt lat="48.92859" lon="-0.49944">
        <ele>41.2</ele>
        <time>2023-05-02T12:49:59Z</time>
      </trkpt>
      <trkpt lat="48.9286" lon="-0.49956">
        <ele>41</ele>
        <time>2023-05-02T12:50:00Z</time>
      </trkpt>
      <trkpt lat="48.92861" lon="-0.49967">
        <ele>41</ele>
        <time>2023-05-02T12:50:01Z</time>
      </trkpt>
      <trkpt lat="48.92862" lon="-0.49979">
        <ele>41</ele>
        <time>2023-05-02T12:50:02Z</time>
      </trkpt>
      <trkpt lat="48.92863" lon="-0.4999">
        <ele>41</ele>
        <time>2023-05-02T12:50:03Z</time>
      </trkpt>
      <trkpt lat="48.92864" lon="-0.50001">
        <ele>41</ele>
        <time>2023-05-02T12:50:04Z</time>
      </trkpt>
      <trkpt lat="48.92866" lon="-0.50013">
        <ele>41.4</ele>
        <time>2023-05-02T12:50:05Z</time>
      </trkpt>
      <trkpt lat="48.92867" lon="-0.50024">
        <ele>41.8</ele>
        <time>2023-05-02T12:50:06Z</time>
      </trkpt>
      <trkpt lat="48.92869" lon="-0.50036">
        <ele>42.2</ele>
        <time>2023-05-02T12:50:07Z</time>
      </trkpt>
      <trkpt lat="48.92871" lon="-0.50047">
        <ele>42.6</ele>
        <time>2023-05-02T12:50:08Z</time>
      </trkpt>
      <trkpt lat="48.92873" lon="-0.50059">
        <ele>43</ele>
        <time>2023-05-02T12:50:09Z</time>
      </trkpt>
      <trkpt lat="48.92875" lon="-0.5007">
        <ele>43.4</ele>
        <time>2023-05-02T12:50:10Z</time>
      </trkpt>
      <trkpt lat="48.92877" lon="-0.50082">
        <ele>44</ele>
        <time>2023-05-02T12:50:11Z</time>
      </trkpt>
      <trkpt lat="48.92879" lon="-0.50093">
        <ele>44</ele>
        <time>2023-05-02T12:50:12Z</time>
      </trkpt>
      <trkpt lat="48.92881" lon="-0.50105">
        <ele>44.2</ele>
        <time>2023-05-02T12:50:13Z</time>
      </trkpt>
      <trkpt lat="48.92883" lon="-0.50116">
        <ele>44.6</ele>
        <time>2023-05-02T12:50:14Z</time>
      </trkpt>
      <trkpt lat="48.92885" lon="-0.50128">
        <ele>44.8</ele>
        <time>2023-05-02T12:50:15Z</time>
      </trkpt>
      <trkpt lat="48.92887" lon="-0.5014">
        <ele>45</ele>
        <time>2023-05-02T12:50:16Z</time>
      </trkpt>
      <trkpt lat="48.92889" lon="-0.50151">
        <ele>45</ele>
        <time>2023-05-02T12:50:17Z</time>
      </trkpt>
      <trkpt lat="48.9289" lon="-0.50163">
        <ele>45</ele>
        <time>2023-05-02T12:50:18Z</time>
      </trkpt>
      <trkpt lat="48.92892" lon="-0.50174">
        <ele>45</ele>
        <time>2023-05-02T12:50:19Z</time>
      </trkpt>
      <trkpt lat="48.92894" lon="-0.50186">
        <ele>45</ele>
        <time>2023-05-02T12:50:20Z</time>
      </trkpt>
      <trkpt lat="48.92896" lon="-0.50197">
        <ele>45</ele>
        <time>2023-05-02T12:50:21Z</time>
      </trkpt>
      <trkpt lat="48.92898" lon="-0.50209">
        <ele>44.8</ele>
        <time>2023-05-02T12:50:22Z</time>
      </trkpt>
      <trkpt lat="48.929" lon="-0.5022">
        <ele>44.6</ele>
        <time>2023-05-02T12:50:23Z</time>
      </trkpt>
      <trkpt lat="48.92902" lon="-0.50231">
        <ele>44.4</ele>
        <time>2023-05-02T12:50:24Z</time>
      </trkpt>
      <trkpt lat="48.92903" lon="-0.50242">
        <ele>44.2</ele>
        <time>2023-05-02T12:50:25Z</time>
      </trkpt>
      <trkpt lat="48.92905" lon="-0.50253">
        <ele>44</ele>
        <time>2023-05-02T12:50:26Z</time>
      </trkpt>
      <trkpt lat="48.92907" lon="-0.50264">
        <ele>43.6</ele>
        <time>2023-05-02T12:50:27Z</time>
      </trkpt>
      <trkpt lat="48.92909" lon="-0.50274">
        <ele>43</ele>
        <time>2023-05-02T12:50:28Z</time>
      </trkpt>
      <trkpt lat="48.92912" lon="-0.50285">
        <ele>42.4</ele>
        <time>2023-05-02T12:50:29Z</time>
      </trkpt>
      <trkpt lat="48.92914" lon="-0.50296">
        <ele>41.8</ele>
        <time>2023-05-02T12:50:30Z</time>
      </trkpt>
      <trkpt lat="48.92916" lon="-0.50307">
        <ele>41.2</ele>
        <time>2023-05-02T12:50:31Z</time>
      </trkpt>
      <trkpt lat="48.92918" lon="-0.50318">
        <ele>40.8</ele>
        <time>2023-05-02T12:50:32Z</time>
      </trkpt>
      <trkpt lat="48.9292" lon="-0.50329">
        <ele>40.2</ele>
        <time>2023-05-02T12:50:33Z</time>
      </trkpt>
      <trkpt lat="48.92921" lon="-0.5034">
        <ele>40</ele>
        <time>2023-05-02T12:50:34Z</time>
      </trkpt>
      <trkpt lat="48.92923" lon="-0.50351">
        <ele>40</ele>
        <time>2023-05-02T12:50:35Z</time>
      </trkpt>
      <trkpt lat="48.92925" lon="-0.50363">
        <ele>40</ele>
        <time>2023-05-02T12:50:36Z</time>
      </trkpt>
      <trkpt lat="48.92926" lon="-0.50374">
        <ele>40</ele>
        <time>2023-05-02T12:50:37Z</time>
      </trkpt>
      <trkpt lat="48.92927" lon="-0.50386">
        <ele>39.8</ele>
        <time>2023-05-02T12:50:38Z</time>
      </trkpt>
      <trkpt lat="48.92929" lon="-0.50397">
        <ele>39.8</ele>
        <time>2023-05-02T12:50:39Z</time>
      </trkpt>
      <trkpt lat="48.9293" lon="-0.50409">
        <ele>39.6</ele>
        <time>2023-05-02T12:50:40Z</time>
      </trkpt>
      <trkpt lat="48.92931" lon="-0.5042">
        <ele>39.6</ele>
        <time>2023-05-02T12:50:41Z</time>
      </trkpt>
      <trkpt lat="48.92933" lon="-0.50431">
        <ele>39.8</ele>
        <time>2023-05-02T12:50:42Z</time>
      </trkpt>
      <trkpt lat="48.92934" lon="-0.50443">
        <ele>40</ele>
        <time>2023-05-02T12:50:43Z</time>
      </trkpt>
      <trkpt lat="48.92935" lon="-0.50454">
        <ele>40.4</ele>
        <time>2023-05-02T12:50:44Z</time>
      </trkpt>
      <trkpt lat="48.92937" lon="-0.50465">
        <ele>40.8</ele>
        <time>2023-05-02T12:50:45Z</time>
      </trkpt>
      <trkpt lat="48.92938" lon="-0.50476">
        <ele>41</ele>
        <time>2023-05-02T12:50:46Z</time>
      </trkpt>
      <trkpt lat="48.92939" lon="-0.50487">
        <ele>41.2</ele>
        <time>2023-05-02T12:50:47Z</time>
      </trkpt>
      <trkpt lat="48.92941" lon="-0.50498">
        <ele>41.6</ele>
        <time>2023-05-02T12:50:48Z</time>
      </trkpt>
      <trkpt lat="48.92942" lon="-0.50509">
        <ele>41.4</ele>
        <time>2023-05-02T12:50:49Z</time>
      </trkpt>
      <trkpt lat="48.92943" lon="-0.5052">
        <ele>41.2</ele>
        <time>2023-05-02T12:50:50Z</time>
      </trkpt>
      <trkpt lat="48.92944" lon="-0.50531">
        <ele>41.2</ele>
        <time>2023-05-02T12:50:51Z</time>
      </trkpt>
      <trkpt lat="48.92946" lon="-0.50542">
        <ele>41</ele>
        <time>2023-05-02T12:50:52Z</time>
      </trkpt>
      <trkpt lat="48.92947" lon="-0.50552">
        <ele>41</ele>
        <time>2023-05-02T12:50:53Z</time>
      </trkpt>
      <trkpt lat="48.92948" lon="-0.50563">
        <ele>40.8</ele>
        <time>2023-05-02T12:50:54Z</time>
      </trkpt>
      <trkpt lat="48.92949" lon="-0.50574">
        <ele>40.8</ele>
        <time>2023-05-02T12:50:55Z</time>
      </trkpt>
      <trkpt lat="48.92951" lon="-0.50584">
        <ele>40.6</ele>
        <time>2023-05-02T12:50:56Z</time>
      </trkpt>
      <trkpt lat="48.92952" lon="-0.50594">
        <ele>40.4</ele>
        <time>2023-05-02T12:50:57Z</time>
      </trkpt>
      <trkpt lat="48.92953" lon="-0.50604">
        <ele>40.4</ele>
        <time>2023-05-02T12:50:58Z</time>
      </trkpt>
      <trkpt lat="48.92954" lon="-0.50614">
        <ele>40.2</ele>
        <time>2023-05-02T12:50:59Z</time>
      </trkpt>
      <trkpt lat="48.92956" lon="-0.50624">
        <ele>40.2</ele>
        <time>2023-05-02T12:51:00Z</time>
      </trkpt>
      <trkpt lat="48.92957" lon="-0.50634">
        <ele>40.2</ele>
        <time>2023-05-02T12:51:01Z</time>
      </trkpt>
      <trkpt lat="48.92958" lon="-0.50643">
        <ele>40.2</ele>
        <time>2023-05-02T12:51:02Z</time>
      </trkpt>
      <trkpt lat="48.9296" lon="-0.50652">
        <ele>40.2</ele>
        <time>2023-05-02T12:51:03Z</time>
      </trkpt>
      <trkpt lat="48.92961" lon="-0.50661">
        <ele>40.2</ele>
        <time>2023-05-02T12:51:04Z</time>
      </trkpt>
      <trkpt lat="48.92962" lon="-0.50669">
        <ele>40.2</ele>
        <time>2023-05-02T12:51:05Z</time>
      </trkpt>
      <trkpt lat="48.92964" lon="-0.50677">
        <ele>40.4</ele>
        <time>2023-05-02T12:51:06Z</time>
      </trkpt>
      <trkpt lat="48.92965" lon="-0.50685">
        <ele>40.6</ele>
        <time>2023-05-02T12:51:07Z</time>
      </trkpt>
      <trkpt lat="48.92967" lon="-0.50693">
        <ele>40.8</ele>
        <time>2023-05-02T12:51:08Z</time>
      </trkpt>
      <trkpt lat="48.92969" lon="-0.50701">
        <ele>41</ele>
        <time>2023-05-02T12:51:09Z</time>
      </trkpt>
      <trkpt lat="48.92971" lon="-0.5071">
        <ele>41.2</ele>
        <time>2023-05-02T12:51:10Z</time>
      </trkpt>
      <trkpt lat="48.92973" lon="-0.50718">
        <ele>41.6</ele>
        <time>2023-05-02T12:51:11Z</time>
      </trkpt>
      <trkpt lat="48.92975" lon="-0.50726">
        <ele>41.8</ele>
        <time>2023-05-02T12:51:12Z</time>
      </trkpt>
      <trkpt lat="48.92978" lon="-0.50734">
        <ele>42</ele>
        <time>2023-05-02T12:51:13Z</time>
      </trkpt>
      <trkpt lat="48.9298" lon="-0.50741">
        <ele>42.2</ele>
        <time>2023-05-02T12:51:14Z</time>
      </trkpt>
      <trkpt lat="48.92983" lon="-0.50749">
        <ele>42.6</ele>
        <time>2023-05-02T12:51:15Z</time>
      </trkpt>
      <trkpt lat="48.92986" lon="-0.50756">
        <ele>43</ele>
        <time>2023-05-02T12:51:16Z</time>
      </trkpt>
      <trkpt lat="48.92989" lon="-0.50764">
        <ele>43.2</ele>
        <time>2023-05-02T12:51:17Z</time>
      </trkpt>
      <trkpt lat="48.92992" lon="-0.50772">
        <ele>43.8</ele>
        <time>2023-05-02T12:51:18Z</time>
      </trkpt>
      <trkpt lat="48.92995" lon="-0.5078">
        <ele>44</ele>
        <time>2023-05-02T12:51:19Z</time>
      </trkpt>
      <trkpt lat="48.92998" lon="-0.50788">
        <ele>44.2</ele>
        <time>2023-05-02T12:51:20Z</time>
      </trkpt>
      <trkpt lat="48.93001" lon="-0.50797">
        <ele>44.6</ele>
        <time>2023-05-02T12:51:21Z</time>
      </trkpt>
      <trkpt lat="48.93004" lon="-0.50806">
        <ele>44.6</ele>
        <time>2023-05-02T12:51:22Z</time>
      </trkpt>
      <trkpt lat="48.93007" lon="-0.50815">
        <ele>44.6</ele>
        <time>2023-05-02T12:51:23Z</time>
      </trkpt>
      <trkpt lat="48.9301" lon="-0.50824">
        <ele>44.6</ele>
        <time>2023-05-02T12:51:24Z</time>
      </trkpt>
      <trkpt lat="48.93014" lon="-0.50833">
        <ele>44.6</ele>
        <time>2023-05-02T12:51:25Z</time>
      </trkpt>
      <trkpt lat="48.93017" lon="-0.50842">
        <ele>44.2</ele>
        <time>2023-05-02T12:51:26Z</time>
      </trkpt>
      <trkpt lat="48.93021" lon="-0.5085">
        <ele>43.8</ele>
        <time>2023-05-02T12:51:27Z</time>
      </trkpt>
      <trkpt lat="48.93025" lon="-0.50859">
        <ele>43.6</ele>
        <time>2023-05-02T12:51:28Z</time>
      </trkpt>
      <trkpt lat="48.93029" lon="-0.50867">
        <ele>43</ele>
        <time>2023-05-02T12:51:29Z</time>
      </trkpt>
      <trkpt lat="48.93034" lon="-0.50876">
        <ele>42.8</ele>
        <time>2023-05-02T12:51:30Z</time>
      </trkpt>
      <trkpt lat="48.93038" lon="-0.50884">
        <ele>42.4</ele>
        <time>2023-05-02T12:51:31Z</time>
      </trkpt>
      <trkpt lat="48.93043" lon="-0.50892">
        <ele>42</ele>
        <time>2023-05-02T12:51:32Z</time>
      </trkpt>
      <trkpt lat="48.93048" lon="-0.509">
        <ele>41.6</ele>
        <time>2023-05-02T12:51:33Z</time>
      </trkpt>
      <trkpt lat="48.93053" lon="-0.50907">
        <ele>41.2</ele>
        <time>2023-05-02T12:51:34Z</time>
      </trkpt>
      <trkpt lat="48.93057" lon="-0.50915">
        <ele>40.8</ele>
        <time>2023-05-02T12:51:35Z</time>
      </trkpt>
      <trkpt lat="48.93062" lon="-0.50923">
        <ele>40.4</ele>
        <time>2023-05-02T12:51:36Z</time>
      </trkpt>
      <trkpt lat="48.93067" lon="-0.5093">
        <ele>40</ele>
        <time>2023-05-02T12:51:37Z</time>
      </trkpt>
      <trkpt lat="48.93072" lon="-0.50938">
        <ele>39.6</ele>
        <time>2023-05-02T12:51:38Z</time>
      </trkpt>
      <trkpt lat="48.93077" lon="-0.50945">
        <ele>39.2</ele>
        <time>2023-05-02T12:51:39Z</time>
      </trkpt>
      <trkpt lat="48.93083" lon="-0.50952">
        <ele>38.8</ele>
        <time>2023-05-02T12:51:40Z</time>
      </trkpt>
      <trkpt lat="48.93088" lon="-0.50959">
        <ele>38.4</ele>
        <time>2023-05-02T12:51:41Z</time>
      </trkpt>
      <trkpt lat="48.93093" lon="-0.50966">
        <ele>38</ele>
        <time>2023-05-02T12:51:42Z</time>
      </trkpt>
      <trkpt lat="48.93098" lon="-0.50973">
        <ele>37.6</ele>
        <time>2023-05-02T12:51:43Z</time>
      </trkpt>
      <trkpt lat="48.93103" lon="-0.50979">
        <ele>37.2</ele>
        <time>2023-05-02T12:51:44Z</time>
      </trkpt>
      <trkpt lat="48.93108" lon="-0.50985">
        <ele>37</ele>
        <time>2023-05-02T12:51:45Z</time>
      </trkpt>
      <trkpt lat="48.93113" lon="-0.50991">
        <ele>36.6</ele>
        <time>2023-05-02T12:51:46Z</time>
      </trkpt>
      <trkpt lat="48.93118" lon="-0.50996">
        <ele>36.2</ele>
        <time>2023-05-02T12:51:47Z</time>
      </trkpt>
      <trkpt lat="48.93122" lon="-0.51002">
        <ele>36</ele>
        <time>2023-05-02T12:51:48Z</time>
      </trkpt>
      <trkpt lat="48.93126" lon="-0.51007">
        <ele>35.6</ele>
        <time>2023-05-02T12:51:49Z</time>
      </trkpt>
      <trkpt lat="48.9313" lon="-0.51012">
        <ele>35.2</ele>
        <time>2023-05-02T12:51:50Z</time>
      </trkpt>
      <trkpt lat="48.93133" lon="-0.51017">
        <ele>35</ele>
        <time>2023-05-02T12:51:51Z</time>
      </trkpt>
      <trkpt lat="48.93136" lon="-0.5102">
        <ele>35</ele>
        <time>2023-05-02T12:51:52Z</time>
      </trkpt>
      <trkpt lat="48.93141" lon="-0.51021">
        <ele>35</ele>
        <time>2023-05-02T12:51:53Z</time>
      </trkpt>
      <trkpt lat="48.93145" lon="-0.51022">
        <ele>35</ele>
        <time>2023-05-02T12:51:54Z</time>
      </trkpt>
      <trkpt lat="48.93149" lon="-0.51024">
        <ele>34.8</ele>
        <time>2023-05-02T12:51:55Z</time>
      </trkpt>
      <trkpt lat="48.93151" lon="-0.51028">
        <ele>34.6</ele>
        <time>2023-05-02T12:51:56Z</time>
      </trkpt>
      <trkpt lat="48.93153" lon="-0.51032">
        <ele>34.4</ele>
        <time>2023-05-02T12:51:57Z</time>
      </trkpt>
      <trkpt lat="48.93155" lon="-0.51033">
        <ele>34.4</ele>
        <time>2023-05-02T12:51:58Z</time>
      </trkpt>
      <trkpt lat="48.93157" lon="-0.51032">
        <ele>34.4</ele>
        <time>2023-05-02T12:51:59Z</time>
      </trkpt>
      <trkpt lat="48.9316" lon="-0.5103">
        <ele>34.6</ele>
        <time>2023-05-02T12:52:00Z</time>
      </trkpt>
      <trkpt lat="48.93162" lon="-0.5103">
        <ele>34.6</ele>
        <time>2023-05-02T12:52:01Z</time>
      </trkpt>
      <trkpt lat="48.93165" lon="-0.51032">
        <ele>34.6</ele>
        <time>2023-05-02T12:52:02Z</time>
      </trkpt>
      <trkpt lat="48.93167" lon="-0.51036">
        <ele>34.2</ele>
        <time>2023-05-02T12:52:03Z</time>
      </trkpt>
      <trkpt lat="48.93169" lon="-0.5104">
        <ele>34</ele>
        <time>2023-05-02T12:52:04Z</time>
      </trkpt>
      <trkpt lat="48.93172" lon="-0.51042">
        <ele>33.8</ele>
        <time>2023-05-02T12:52:05Z</time>
      </trkpt>
      <trkpt lat="48.93176" lon="-0.51042">
        <ele>33.8</ele>
        <time>2023-05-02T12:52:06Z</time>
      </trkpt>
      <trkpt lat="48.9318" lon="-0.51043">
        <ele>33.6</ele>
        <time>2023-05-02T12:52:07Z</time>
      </trkpt>
      <trkpt lat="48.93184" lon="-0.51044">
        <ele>33.6</ele>
        <time>2023-05-02T12:52:08Z</time>
      </trkpt>
      <trkpt lat="48.93188" lon="-0.51045">
        <ele>33.2</ele>
        <time>2023-05-02T12:52:09Z</time>
      </trkpt>
      <trkpt lat="48.93192" lon="-0.51047">
        <ele>33.2</ele>
        <time>2023-05-02T12:52:10Z</time>
      </trkpt>
      <trkpt lat="48.93197" lon="-0.51049">
        <ele>33</ele>
        <time>2023-05-02T12:52:11Z</time>
      </trkpt>
      <trkpt lat="48.93201" lon="-0.51051">
        <ele>32.8</ele>
        <time>2023-05-02T12:52:12Z</time>
      </trkpt>
      <trkpt lat="48.93206" lon="-0.51054">
        <ele>32.6</ele>
        <time>2023-05-02T12:52:13Z</time>
      </trkpt>
      <trkpt lat="48.93211" lon="-0.51056">
        <ele>32.4</ele>
        <time>2023-05-02T12:52:14Z</time>
      </trkpt>
      <trkpt lat="48.93217" lon="-0.51058">
        <ele>32.2</ele>
        <time>2023-05-02T12:52:15Z</time>
      </trkpt>
      <trkpt lat="48.93222" lon="-0.51061">
        <ele>32</ele>
        <time>2023-05-02T12:52:16Z</time>
      </trkpt>
      <trkpt lat="48.93228" lon="-0.51063">
        <ele>31.8</ele>
        <time>2023-05-02T12:52:17Z</time>
      </trkpt>
      <trkpt lat="48.93233" lon="-0.51065">
        <ele>31.8</ele>
        <time>2023-05-02T12:52:18Z</time>
      </trkpt>
      <trkpt lat="48.93239" lon="-0.51067">
        <ele>31.6</ele>
        <time>2023-05-02T12:52:19Z</time>
      </trkpt>
      <trkpt lat="48.93245" lon="-0.51069">
        <ele>31.4</ele>
        <time>2023-05-02T12:52:20Z</time>
      </trkpt>
      <trkpt lat="48.93251" lon="-0.51071">
        <ele>31.2</ele>
        <time>2023-05-02T12:52:21Z</time>
      </trkpt>
      <trkpt lat="48.93257" lon="-0.51072">
        <ele>31.2</ele>
        <time>2023-05-02T12:52:22Z</time>
      </trkpt>
      <trkpt lat="48.93263" lon="-0.51074">
        <ele>31.4</ele>
        <time>2023-05-02T12:52:23Z</time>
      </trkpt>
      <trkpt lat="48.93269" lon="-0.51075">
        <ele>31.4</ele>
        <time>2023-05-02T12:52:24Z</time>
      </trkpt>
      <trkpt lat="48.93275" lon="-0.51076">
        <ele>31.6</ele>
        <time>2023-05-02T12:52:25Z</time>
      </trkpt>
      <trkpt lat="48.93282" lon="-0.51077">
        <ele>31.6</ele>
        <time>2023-05-02T12:52:26Z</time>
      </trkpt>
      <trkpt lat="48.93288" lon="-0.51077">
        <ele>31.6</ele>
        <time>2023-05-02T12:52:27Z</time>
      </trkpt>
      <trkpt lat="48.93294" lon="-0.51078">
        <ele>31.6</ele>
        <time>2023-05-02T12:52:28Z</time>
      </trkpt>
      <trkpt lat="48.933" lon="-0.51079">
        <ele>31.8</ele>
        <time>2023-05-02T12:52:29Z</time>
      </trkpt>
      <trkpt lat="48.93306" lon="-0.51079">
        <ele>31.8</ele>
        <time>2023-05-02T12:52:30Z</time>
      </trkpt>
      <trkpt lat="48.93312" lon="-0.51079">
        <ele>31.8</ele>
        <time>2023-05-02T12:52:31Z</time>
      </trkpt>
      <trkpt lat="48.93318" lon="-0.51079">
        <ele>31.8</ele>
        <time>2023-05-02T12:52:32Z</time>
      </trkpt>
      <trkpt lat="48.93325" lon="-0.51079">
        <ele>32</ele>
        <time>2023-05-02T12:52:33Z</time>
      </trkpt>
      <trkpt lat="48.93331" lon="-0.51079">
        <ele>32</ele>
        <time>2023-05-02T12:52:34Z</time>
      </trkpt>
      <trkpt lat="48.93337" lon="-0.51078">
        <ele>32</ele>
        <time>2023-05-02T12:52:35Z</time>
      </trkpt>
      <trkpt lat="48.93343" lon="-0.51077">
        <ele>32.2</ele>
        <time>2023-05-02T12:52:36Z</time>
      </trkpt>
      <trkpt lat="48.93349" lon="-0.51077">
        <ele>32.2</ele>
        <time>2023-05-02T12:52:37Z</time>
      </trkpt>
      <trkpt lat="48.93356" lon="-0.51076">
        <ele>32.4</ele>
        <time>2023-05-02T12:52:38Z</time>
      </trkpt>
      <trkpt lat="48.93362" lon="-0.51075">
        <ele>32.4</ele>
        <time>2023-05-02T12:52:39Z</time>
      </trkpt>
      <trkpt lat="48.93368" lon="-0.51074">
        <ele>32.6</ele>
        <time>2023-05-02T12:52:40Z</time>
      </trkpt>
      <trkpt lat="48.93374" lon="-0.51073">
        <ele>32.6</ele>
        <time>2023-05-02T12:52:41Z</time>
      </trkpt>
      <trkpt lat="48.93381" lon="-0.51071">
        <ele>32.8</ele>
        <time>2023-05-02T12:52:42Z</time>
      </trkpt>
      <trkpt lat="48.93387" lon="-0.5107">
        <ele>32.8</ele>
        <time>2023-05-02T12:52:43Z</time>
      </trkpt>
      <trkpt lat="48.93393" lon="-0.51068">
        <ele>33</ele>
        <time>2023-05-02T12:52:44Z</time>
      </trkpt>
      <trkpt lat="48.93399" lon="-0.51066">
        <ele>33</ele>
        <time>2023-05-02T12:52:45Z</time>
      </trkpt>
      <trkpt lat="48.93405" lon="-0.51063">
        <ele>33</ele>
        <time>2023-05-02T12:52:46Z</time>
      </trkpt>
      <trkpt lat="48.93412" lon="-0.51061">
        <ele>33.2</ele>
        <time>2023-05-02T12:52:47Z</time>
      </trkpt>
      <trkpt lat="48.93418" lon="-0.51058">
        <ele>33.2</ele>
        <time>2023-05-02T12:52:48Z</time>
      </trkpt>
      <trkpt lat="48.93424" lon="-0.51055">
        <ele>33.2</ele>
        <time>2023-05-02T12:52:49Z</time>
      </trkpt>
      <trkpt lat="48.9343" lon="-0.51052">
        <ele>33</ele>
        <time>2023-05-02T12:52:50Z</time>
      </trkpt>
      <trkpt lat="48.93436" lon="-0.51049">
        <ele>33</ele>
        <time>2023-05-02T12:52:51Z</time>
      </trkpt>
      <trkpt lat="48.93442" lon="-0.51046">
        <ele>33</ele>
        <time>2023-05-02T12:52:52Z</time>
      </trkpt>
      <trkpt lat="48.93448" lon="-0.51042">
        <ele>33</ele>
        <time>2023-05-02T12:52:53Z</time>
      </trkpt>
      <trkpt lat="48.93454" lon="-0.51038">
        <ele>33</ele>
        <time>2023-05-02T12:52:54Z</time>
      </trkpt>
      <trkpt lat="48.9346" lon="-0.51035">
        <ele>33</ele>
        <time>2023-05-02T12:52:55Z</time>
      </trkpt>
      <trkpt lat="48.93466" lon="-0.51031">
        <ele>33</ele>
        <time>2023-05-02T12:52:56Z</time>
      </trkpt>
      <trkpt lat="48.93472" lon="-0.51027">
        <ele>33</ele>
        <time>2023-05-02T12:52:57Z</time>
      </trkpt>
      <trkpt lat="48.93477" lon="-0.51022">
        <ele>33</ele>
        <time>2023-05-02T12:52:58Z</time>
      </trkpt>
      <trkpt lat="48.93483" lon="-0.51018">
        <ele>33.2</ele>
        <time>2023-05-02T12:52:59Z</time>
      </trkpt>
      <trkpt lat="48.93489" lon="-0.51014">
        <ele>33.4</ele>
        <time>2023-05-02T12:53:00Z</time>
      </trkpt>
      <trkpt lat="48.93495" lon="-0.51009">
        <ele>33.6</ele>
        <time>2023-05-02T12:53:01Z</time>
      </trkpt>
      <trkpt lat="48.935" lon="-0.51004">
        <ele>33.8</ele>
        <time>2023-05-02T12:53:02Z</time>
      </trkpt>
      <trkpt lat="48.93506" lon="-0.50999">
        <ele>33.8</ele>
        <time>2023-05-02T12:53:03Z</time>
      </trkpt>
      <trkpt lat="48.93512" lon="-0.50994">
        <ele>33.8</ele>
        <time>2023-05-02T12:53:04Z</time>
      </trkpt>
      <trkpt lat="48.93517" lon="-0.50988">
        <ele>33.6</ele>
        <time>2023-05-02T12:53:05Z</time>
      </trkpt>
      <trkpt lat="48.93521" lon="-0.50983">
        <ele>33.6</ele>
        <time>2023-05-02T12:53:06Z</time>
      </trkpt>
      <trkpt lat="48.93526" lon="-0.50978">
        <ele>33.4</ele>
        <time>2023-05-02T12:53:07Z</time>
      </trkpt>
      <trkpt lat="48.93531" lon="-0.50973">
        <ele>33.2</ele>
        <time>2023-05-02T12:53:08Z</time>
      </trkpt>
      <trkpt lat="48.93536" lon="-0.50967">
        <ele>33.2</ele>
        <time>2023-05-02T12:53:09Z</time>
      </trkpt>
      <trkpt lat="48.93541" lon="-0.50962">
        <ele>33.2</ele>
        <time>2023-05-02T12:53:10Z</time>
      </trkpt>
      <trkpt lat="48.93547" lon="-0.50956">
        <ele>33</ele>
        <time>2023-05-02T12:53:11Z</time>
      </trkpt>
      <trkpt lat="48.93552" lon="-0.5095">
        <ele>33</ele>
        <time>2023-05-02T12:53:12Z</time>
      </trkpt>
      <trkpt lat="48.93558" lon="-0.50944">
        <ele>33</ele>
        <time>2023-05-02T12:53:13Z</time>
      </trkpt>
      <trkpt lat="48.93564" lon="-0.50939">
        <ele>33</ele>
        <time>2023-05-02T12:53:14Z</time>
      </trkpt>
      <trkpt lat="48.9357" lon="-0.50934">
        <ele>33</ele>
        <time>2023-05-02T12:53:15Z</time>
      </trkpt>
      <trkpt lat="48.93576" lon="-0.50929">
        <ele>33</ele>
        <time>2023-05-02T12:53:16Z</time>
      </trkpt>
      <trkpt lat="48.93582" lon="-0.50925">
        <ele>32.8</ele>
        <time>2023-05-02T12:53:17Z</time>
      </trkpt>
      <trkpt lat="48.93588" lon="-0.5092">
        <ele>32.8</ele>
        <time>2023-05-02T12:53:18Z</time>
      </trkpt>
      <trkpt lat="48.93593" lon="-0.50915">
        <ele>32.8</ele>
        <time>2023-05-02T12:53:19Z</time>
      </trkpt>
      <trkpt lat="48.93599" lon="-0.5091">
        <ele>33</ele>
        <time>2023-05-02T12:53:20Z</time>
      </trkpt>
      <trkpt lat="48.93605" lon="-0.50904">
        <ele>33</ele>
        <time>2023-05-02T12:53:21Z</time>
      </trkpt>
      <trkpt lat="48.9361" lon="-0.50898">
        <ele>33</ele>
        <time>2023-05-02T12:53:22Z</time>
      </trkpt>
      <trkpt lat="48.93615" lon="-0.50892">
        <ele>33.2</ele>
        <time>2023-05-02T12:53:23Z</time>
      </trkpt>
      <trkpt lat="48.9362" lon="-0.50887">
        <ele>33.4</ele>
        <time>2023-05-02T12:53:24Z</time>
      </trkpt>
      <trkpt lat="48.93625" lon="-0.50881">
        <ele>33.6</ele>
        <time>2023-05-02T12:53:25Z</time>
      </trkpt>
      <trkpt lat="48.93629" lon="-0.50876">
        <ele>33.6</ele>
        <time>2023-05-02T12:53:26Z</time>
      </trkpt>
      <trkpt lat="48.93634" lon="-0.5087">
        <ele>33.8</ele>
        <time>2023-05-02T12:53:27Z</time>
      </trkpt>
      <trkpt lat="48.93639" lon="-0.50865">
        <ele>34</ele>
        <time>2023-05-02T12:53:28Z</time>
      </trkpt>
      <trkpt lat="48.93644" lon="-0.5086">
        <ele>34</ele>
        <time>2023-05-02T12:53:29Z</time>
      </trkpt>
      <trkpt lat="48.9365" lon="-0.50854">
        <ele>34.2</ele>
        <time>2023-05-02T12:53:30Z</time>
      </trkpt>
      <trkpt lat="48.93655" lon="-0.50848">
        <ele>34.4</ele>
        <time>2023-05-02T12:53:31Z</time>
      </trkpt>
      <trkpt lat="48.9366" lon="-0.50843">
        <ele>34.6</ele>
        <time>2023-05-02T12:53:32Z</time>
      </trkpt>
      <trkpt lat="48.93665" lon="-0.50837">
        <ele>34.8</ele>
        <time>2023-05-02T12:53:33Z</time>
      </trkpt>
      <trkpt lat="48.93671" lon="-0.50831">
        <ele>35</ele>
        <time>2023-05-02T12:53:34Z</time>
      </trkpt>
      <trkpt lat="48.93677" lon="-0.50825">
        <ele>35.2</ele>
        <time>2023-05-02T12:53:35Z</time>
      </trkpt>
      <trkpt lat="48.93684" lon="-0.50819">
        <ele>35.6</ele>
        <time>2023-05-02T12:53:36Z</time>
      </trkpt>
      <trkpt lat="48.9369" lon="-0.50813">
        <ele>35.8</ele>
        <time>2023-05-02T12:53:37Z</time>
      </trkpt>
      <trkpt lat="48.93696" lon="-0.50808">
        <ele>36</ele>
        <time>2023-05-02T12:53:38Z</time>
      </trkpt>
      <trkpt lat="48.93702" lon="-0.50802">
        <ele>36</ele>
        <time>2023-05-02T12:53:39Z</time>
      </trkpt>
      <trkpt lat="48.93707" lon="-0.50796">
        <ele>36.2</ele>
        <time>2023-05-02T12:53:40Z</time>
      </trkpt>
      <trkpt lat="48.93713" lon="-0.5079">
        <ele>36.6</ele>
        <time>2023-05-02T12:53:41Z</time>
      </trkpt>
      <trkpt lat="48.93718" lon="-0.50785">
        <ele>36.8</ele>
        <time>2023-05-02T12:53:42Z</time>
      </trkpt>
      <trkpt lat="48.93723" lon="-0.50779">
        <ele>37</ele>
        <time>2023-05-02T12:53:43Z</time>
      </trkpt>
      <trkpt lat="48.93728" lon="-0.50774">
        <ele>37.2</ele>
        <time>2023-05-02T12:53:44Z</time>
      </trkpt>
      <trkpt lat="48.93733" lon="-0.50768">
        <ele>37.4</ele>
        <time>2023-05-02T12:53:45Z</time>
      </trkpt>
      <trkpt lat="48.93738" lon="-0.50762">
        <ele>37.6</ele>
        <time>2023-05-02T12:53:46Z</time>
      </trkpt>
      <trkpt lat="48.93743" lon="-0.50757">
        <ele>37.8</ele>
        <time>2023-05-02T12:53:47Z</time>
      </trkpt>
      <trkpt lat="48.93748" lon="-0.50752">
        <ele>38</ele>
        <time>2023-05-02T12:53:48Z</time>
      </trkpt>
      <trkpt lat="48.93753" lon="-0.50746">
        <ele>38</ele>
        <time>2023-05-02T12:53:49Z</time>
      </trkpt>
      <trkpt lat="48.93759" lon="-0.5074">
        <ele>38</ele>
        <time>2023-05-02T12:53:50Z</time>
      </trkpt>
      <trkpt lat="48.93764" lon="-0.50735">
        <ele>38.2</ele>
        <time>2023-05-02T12:53:51Z</time>
      </trkpt>
      <trkpt lat="48.93769" lon="-0.5073">
        <ele>38.2</ele>
        <time>2023-05-02T12:53:52Z</time>
      </trkpt>
      <trkpt lat="48.93775" lon="-0.50724">
        <ele>38.2</ele>
        <time>2023-05-02T12:53:53Z</time>
      </trkpt>
      <trkpt lat="48.9378" lon="-0.50719">
        <ele>38.2</ele>
        <time>2023-05-02T12:53:54Z</time>
      </trkpt>
      <trkpt lat="48.93785" lon="-0.50715">
        <ele>38.2</ele>
        <time>2023-05-02T12:53:55Z</time>
      </trkpt>
      <trkpt lat="48.9379" lon="-0.5071">
        <ele>38.2</ele>
        <time>2023-05-02T12:53:56Z</time>
      </trkpt>
      <trkpt lat="48.93794" lon="-0.50706">
        <ele>38.2</ele>
        <time>2023-05-02T12:53:57Z</time>
      </trkpt>
      <trkpt lat="48.93797" lon="-0.50702">
        <ele>38.2</ele>
        <time>2023-05-02T12:53:58Z</time>
      </trkpt>
      <trkpt lat="48.938" lon="-0.50699">
        <ele>38.2</ele>
        <time>2023-05-02T12:53:59Z</time>
      </trkpt>
      <trkpt lat="48.93803" lon="-0.50695">
        <ele>38.2</ele>
        <time>2023-05-02T12:54:00Z</time>
      </trkpt>
      <trkpt lat="48.93806" lon="-0.50692">
        <ele>38.2</ele>
        <time>2023-05-02T12:54:01Z</time>
      </trkpt>
      <trkpt lat="48.93809" lon="-0.50689">
        <ele>38.2</ele>
        <time>2023-05-02T12:54:02Z</time>
      </trkpt>
      <trkpt lat="48.93813" lon="-0.50686">
        <ele>38.2</ele>
        <time>2023-05-02T12:54:03Z</time>
      </trkpt>
      <trkpt lat="48.93816" lon="-0.50682">
        <ele>38.2</ele>
        <time>2023-05-02T12:54:04Z</time>
      </trkpt>
      <trkpt lat="48.93821" lon="-0.50677">
        <ele>38.2</ele>
        <time>2023-05-02T12:54:05Z</time>
      </trkpt>
      <trkpt lat="48.93825" lon="-0.50672">
        <ele>38.2</ele>
        <time>2023-05-02T12:54:06Z</time>
      </trkpt>
      <trkpt lat="48.9383" lon="-0.50668">
        <ele>38</ele>
        <time>2023-05-02T12:54:07Z</time>
      </trkpt>
      <trkpt lat="48.93835" lon="-0.50663">
        <ele>38</ele>
        <time>2023-05-02T12:54:08Z</time>
      </trkpt>
      <trkpt lat="48.9384" lon="-0.50659">
        <ele>38</ele>
        <time>2023-05-02T12:54:09Z</time>
      </trkpt>
      <trkpt lat="48.93845" lon="-0.50654">
        <ele>38</ele>
        <time>2023-05-02T12:54:10Z</time>
      </trkpt>
      <trkpt lat="48.93849" lon="-0.50648">
        <ele>38</ele>
        <time>2023-05-02T12:54:11Z</time>
      </trkpt>
      <trkpt lat="48.93854" lon="-0.50643">
        <ele>38</ele>
        <time>2023-05-02T12:54:12Z</time>
      </trkpt>
      <trkpt lat="48.93857" lon="-0.50636">
        <ele>38</ele>
        <time>2023-05-02T12:54:13Z</time>
      </trkpt>
      <trkpt lat="48.9386" lon="-0.5063">
        <ele>38</ele>
        <time>2023-05-02T12:54:14Z</time>
      </trkpt>
      <trkpt lat="48.93864" lon="-0.50623">
        <ele>38</ele>
        <time>2023-05-02T12:54:15Z</time>
      </trkpt>
      <trkpt lat="48.93868" lon="-0.50617">
        <ele>38</ele>
        <time>2023-05-02T12:54:16Z</time>
      </trkpt>
      <trkpt lat="48.93873" lon="-0.50611">
        <ele>37.8</ele>
        <time>2023-05-02T12:54:17Z</time>
      </trkpt>
      <trkpt lat="48.93878" lon="-0.50606">
        <ele>37.6</ele>
        <time>2023-05-02T12:54:18Z</time>
      </trkpt>
      <trkpt lat="48.93883" lon="-0.50601">
        <ele>37.4</ele>
        <time>2023-05-02T12:54:19Z</time>
      </trkpt>
      <trkpt lat="48.93888" lon="-0.50596">
        <ele>37.2</ele>
        <time>2023-05-02T12:54:20Z</time>
      </trkpt>
      <trkpt lat="48.93893" lon="-0.50591">
        <ele>37</ele>
        <time>2023-05-02T12:54:21Z</time>
      </trkpt>
      <trkpt lat="48.93899" lon="-0.50586">
        <ele>37</ele>
        <time>2023-05-02T12:54:22Z</time>
      </trkpt>
      <trkpt lat="48.93904" lon="-0.50581">
        <ele>36.8</ele>
        <time>2023-05-02T12:54:23Z</time>
      </trkpt>
      <trkpt lat="48.93909" lon="-0.50575">
        <ele>36.6</ele>
        <time>2023-05-02T12:54:24Z</time>
      </trkpt>
      <trkpt lat="48.93914" lon="-0.5057">
        <ele>36.6</ele>
        <time>2023-05-02T12:54:25Z</time>
      </trkpt>
      <trkpt lat="48.93919" lon="-0.50565">
        <ele>36.4</ele>
        <time>2023-05-02T12:54:26Z</time>
      </trkpt>
      <trkpt lat="48.93924" lon="-0.5056">
        <ele>36.4</ele>
        <time>2023-05-02T12:54:27Z</time>
      </trkpt>
      <trkpt lat="48.93929" lon="-0.50555">
        <ele>36.6</ele>
        <time>2023-05-02T12:54:28Z</time>
      </trkpt>
      <trkpt lat="48.93934" lon="-0.5055">
        <ele>36.6</ele>
        <time>2023-05-02T12:54:29Z</time>
      </trkpt>
      <trkpt lat="48.93939" lon="-0.50544">
        <ele>36.6</ele>
        <time>2023-05-02T12:54:30Z</time>
      </trkpt>
      <trkpt lat="48.93944" lon="-0.50539">
        <ele>36.6</ele>
        <time>2023-05-02T12:54:31Z</time>
      </trkpt>
      <trkpt lat="48.93949" lon="-0.50534">
        <ele>36.6</ele>
        <time>2023-05-02T12:54:32Z</time>
      </trkpt>
      <trkpt lat="48.93954" lon="-0.50529">
        <ele>36.6</ele>
        <time>2023-05-02T12:54:33Z</time>
      </trkpt>
      <trkpt lat="48.93959" lon="-0.50523">
        <ele>36.6</ele>
        <time>2023-05-02T12:54:34Z</time>
      </trkpt>
      <trkpt lat="48.93965" lon="-0.50518">
        <ele>36.6</ele>
        <time>2023-05-02T12:54:35Z</time>
      </trkpt>
      <trkpt lat="48.9397" lon="-0.50512">
        <ele>36.6</ele>
        <time>2023-05-02T12:54:36Z</time>
      </trkpt>
      <trkpt lat="48.93975" lon="-0.50507">
        <ele>36.6</ele>
        <time>2023-05-02T12:54:37Z</time>
      </trkpt>
      <trkpt lat="48.93981" lon="-0.50502">
        <ele>36.4</ele>
        <time>2023-05-02T12:54:38Z</time>
      </trkpt>
      <trkpt lat="48.93986" lon="-0.50496">
        <ele>36.4</ele>
        <time>2023-05-02T12:54:39Z</time>
      </trkpt>
      <trkpt lat="48.93991" lon="-0.5049">
        <ele>36.4</ele>
        <time>2023-05-02T12:54:40Z</time>
      </trkpt>
      <trkpt lat="48.93997" lon="-0.50485">
        <ele>36.4</ele>
        <time>2023-05-02T12:54:41Z</time>
      </trkpt>
      <trkpt lat="48.94002" lon="-0.5048">
        <ele>36.4</ele>
        <time>2023-05-02T12:54:42Z</time>
      </trkpt>
      <trkpt lat="48.94007" lon="-0.50474">
        <ele>36.6</ele>
        <time>2023-05-02T12:54:43Z</time>
      </trkpt>
      <trkpt lat="48.94013" lon="-0.50468">
        <ele>36.6</ele>
        <time>2023-05-02T12:54:44Z</time>
      </trkpt>
      <trkpt lat="48.94018" lon="-0.50463">
        <ele>36.6</ele>
        <time>2023-05-02T12:54:45Z</time>
      </trkpt>
      <trkpt lat="48.94023" lon="-0.50457">
        <ele>36.6</ele>
        <time>2023-05-02T12:54:46Z</time>
      </trkpt>
      <trkpt lat="48.94028" lon="-0.50452">
        <ele>36.8</ele>
        <time>2023-05-02T12:54:47Z</time>
      </trkpt>
      <trkpt lat="48.94034" lon="-0.50446">
        <ele>36.8</ele>
        <time>2023-05-02T12:54:48Z</time>
      </trkpt>
      <trkpt lat="48.94039" lon="-0.50441">
        <ele>36.8</ele>
        <time>2023-05-02T12:54:49Z</time>
      </trkpt>
      <trkpt lat="48.94044" lon="-0.50435">
        <ele>37</ele>
        <time>2023-05-02T12:54:50Z</time>
      </trkpt>
      <trkpt lat="48.94049" lon="-0.5043">
        <ele>37</ele>
        <time>2023-05-02T12:54:51Z</time>
      </trkpt>
      <trkpt lat="48.94054" lon="-0.50424">
        <ele>37</ele>
        <time>2023-05-02T12:54:52Z</time>
      </trkpt>
      <trkpt lat="48.94059" lon="-0.50419">
        <ele>37.2</ele>
        <time>2023-05-02T12:54:53Z</time>
      </trkpt>
      <trkpt lat="48.94064" lon="-0.50414">
        <ele>37.2</ele>
        <time>2023-05-02T12:54:54Z</time>
      </trkpt>
      <trkpt lat="48.94069" lon="-0.50409">
        <ele>37.4</ele>
        <time>2023-05-02T12:54:55Z</time>
      </trkpt>
      <trkpt lat="48.94074" lon="-0.50404">
        <ele>37.4</ele>
        <time>2023-05-02T12:54:56Z</time>
      </trkpt>
      <trkpt lat="48.94079" lon="-0.50399">
        <ele>37.6</ele>
        <time>2023-05-02T12:54:57Z</time>
      </trkpt>
      <trkpt lat="48.94084" lon="-0.50394">
        <ele>37.6</ele>
        <time>2023-05-02T12:54:58Z</time>
      </trkpt>
      <trkpt lat="48.94088" lon="-0.50389">
        <ele>37.6</ele>
        <time>2023-05-02T12:54:59Z</time>
      </trkpt>
      <trkpt lat="48.94093" lon="-0.50384">
        <ele>37.6</ele>
        <time>2023-05-02T12:55:00Z</time>
      </trkpt>
      <trkpt lat="48.94098" lon="-0.50379">
        <ele>37.6</ele>
        <time>2023-05-02T12:55:01Z</time>
      </trkpt>
      <trkpt lat="48.94103" lon="-0.50374">
        <ele>37.4</ele>
        <time>2023-05-02T12:55:02Z</time>
      </trkpt>
      <trkpt lat="48.94108" lon="-0.50369">
        <ele>37.4</ele>
        <time>2023-05-02T12:55:03Z</time>
      </trkpt>
      <trkpt lat="48.94113" lon="-0.50364">
        <ele>37.2</ele>
        <time>2023-05-02T12:55:04Z</time>
      </trkpt>
      <trkpt lat="48.94118" lon="-0.50358">
        <ele>37.2</ele>
        <time>2023-05-02T12:55:05Z</time>
      </trkpt>
      <trkpt lat="48.94123" lon="-0.50353">
        <ele>37.2</ele>
        <time>2023-05-02T12:55:06Z</time>
      </trkpt>
      <trkpt lat="48.94127" lon="-0.50348">
        <ele>37.2</ele>
        <time>2023-05-02T12:55:07Z</time>
      </trkpt>
      <trkpt lat="48.94132" lon="-0.50343">
        <ele>37</ele>
        <time>2023-05-02T12:55:08Z</time>
      </trkpt>
      <trkpt lat="48.94137" lon="-0.50338">
        <ele>37</ele>
        <time>2023-05-02T12:55:09Z</time>
      </trkpt>
      <trkpt lat="48.94142" lon="-0.50333">
        <ele>37</ele>
        <time>2023-05-02T12:55:10Z</time>
      </trkpt>
      <trkpt lat="48.94147" lon="-0.50328">
        <ele>36.8</ele>
        <time>2023-05-02T12:55:11Z</time>
      </trkpt>
      <trkpt lat="48.94152" lon="-0.50323">
        <ele>36.6</ele>
        <time>2023-05-02T12:55:12Z</time>
      </trkpt>
      <trkpt lat="48.94157" lon="-0.50318">
        <ele>36.6</ele>
        <time>2023-05-02T12:55:13Z</time>
      </trkpt>
      <trkpt lat="48.94163" lon="-0.50312">
        <ele>36.4</ele>
        <time>2023-05-02T12:55:14Z</time>
      </trkpt>
      <trkpt lat="48.94168" lon="-0.50307">
        <ele>36.2</ele>
        <time>2023-05-02T12:55:15Z</time>
      </trkpt>
      <trkpt lat="48.94174" lon="-0.50302">
        <ele>36.2</ele>
        <time>2023-05-02T12:55:16Z</time>
      </trkpt>
      <trkpt lat="48.94179" lon="-0.50296">
        <ele>36.2</ele>
        <time>2023-05-02T12:55:17Z</time>
      </trkpt>
      <trkpt lat="48.94184" lon="-0.5029">
        <ele>36.2</ele>
        <time>2023-05-02T12:55:18Z</time>
      </trkpt>
      <trkpt lat="48.9419" lon="-0.50285">
        <ele>36.2</ele>
        <time>2023-05-02T12:55:19Z</time>
      </trkpt>
      <trkpt lat="48.94195" lon="-0.5028">
        <ele>36.2</ele>
        <time>2023-05-02T12:55:20Z</time>
      </trkpt>
      <trkpt lat="48.94201" lon="-0.50277">
        <ele>36.2</ele>
        <time>2023-05-02T12:55:21Z</time>
      </trkpt>
      <trkpt lat="48.94207" lon="-0.50273">
        <ele>36.2</ele>
        <time>2023-05-02T12:55:22Z</time>
      </trkpt>
      <trkpt lat="48.94213" lon="-0.5027">
        <ele>36.4</ele>
        <time>2023-05-02T12:55:23Z</time>
      </trkpt>
      <trkpt lat="48.94219" lon="-0.50266">
        <ele>36.6</ele>
        <time>2023-05-02T12:55:24Z</time>
      </trkpt>
      <trkpt lat="48.94224" lon="-0.50261">
        <ele>36.6</ele>
        <time>2023-05-02T12:55:25Z</time>
      </trkpt>
      <trkpt lat="48.94229" lon="-0.50255">
        <ele>36.8</ele>
        <time>2023-05-02T12:55:26Z</time>
      </trkpt>
      <trkpt lat="48.94234" lon="-0.5025">
        <ele>37</ele>
        <time>2023-05-02T12:55:27Z</time>
      </trkpt>
      <trkpt lat="48.94239" lon="-0.50245">
        <ele>37</ele>
        <time>2023-05-02T12:55:28Z</time>
      </trkpt>
      <trkpt lat="48.94245" lon="-0.5024">
        <ele>37.2</ele>
        <time>2023-05-02T12:55:29Z</time>
      </trkpt>
      <trkpt lat="48.9425" lon="-0.50235">
        <ele>37.4</ele>
        <time>2023-05-02T12:55:30Z</time>
      </trkpt>
      <trkpt lat="48.94255" lon="-0.50231">
        <ele>37.2</ele>
        <time>2023-05-02T12:55:31Z</time>
      </trkpt>
      <trkpt lat="48.9426" lon="-0.50227">
        <ele>37.2</ele>
        <time>2023-05-02T12:55:32Z</time>
      </trkpt>
      <trkpt lat="48.94264" lon="-0.50223">
        <ele>37.4</ele>
        <time>2023-05-02T12:55:33Z</time>
      </trkpt>
      <trkpt lat="48.94268" lon="-0.50218">
        <ele>37.4</ele>
        <time>2023-05-02T12:55:34Z</time>
      </trkpt>
      <trkpt lat="48.94271" lon="-0.50214">
        <ele>37.6</ele>
        <time>2023-05-02T12:55:35Z</time>
      </trkpt>
      <trkpt lat="48.94274" lon="-0.5021">
        <ele>37.6</ele>
        <time>2023-05-02T12:55:36Z</time>
      </trkpt>
      <trkpt lat="48.94276" lon="-0.50207">
        <ele>37.6</ele>
        <time>2023-05-02T12:55:37Z</time>
      </trkpt>
      <trkpt lat="48.94279" lon="-0.50206">
        <ele>37.6</ele>
        <time>2023-05-02T12:55:38Z</time>
      </trkpt>
      <trkpt lat="48.94281" lon="-0.50204">
        <ele>37.6</ele>
        <time>2023-05-02T12:55:39Z</time>
      </trkpt>
      <trkpt lat="48.94284" lon="-0.50203">
        <ele>37.6</ele>
        <time>2023-05-02T12:55:40Z</time>
      </trkpt>
      <trkpt lat="48.94286" lon="-0.50201">
        <ele>37.6</ele>
        <time>2023-05-02T12:55:41Z</time>
      </trkpt>
      <trkpt lat="48.94289" lon="-0.50199">
        <ele>37.6</ele>
        <time>2023-05-02T12:55:42Z</time>
      </trkpt>
      <trkpt lat="48.94292" lon="-0.50197">
        <ele>37.6</ele>
        <time>2023-05-02T12:55:43Z</time>
      </trkpt>
      <trkpt lat="48.94297" lon="-0.50193">
        <ele>37.6</ele>
        <time>2023-05-02T12:55:44Z</time>
      </trkpt>
      <trkpt lat="48.94301" lon="-0.5019">
        <ele>37.8</ele>
        <time>2023-05-02T12:55:45Z</time>
      </trkpt>
      <trkpt lat="48.94307" lon="-0.50186">
        <ele>37.8</ele>
        <time>2023-05-02T12:55:46Z</time>
      </trkpt>
      <trkpt lat="48.94313" lon="-0.50182">
        <ele>37.8</ele>
        <time>2023-05-02T12:55:47Z</time>
      </trkpt>
      <trkpt lat="48.94318" lon="-0.50178">
        <ele>37.8</ele>
        <time>2023-05-02T12:55:48Z</time>
      </trkpt>
      <trkpt lat="48.94323" lon="-0.50175">
        <ele>38</ele>
        <time>2023-05-02T12:55:49Z</time>
      </trkpt>
      <trkpt lat="48.94327" lon="-0.50171">
        <ele>38</ele>
        <time>2023-05-02T12:55:50Z</time>
      </trkpt>
      <trkpt lat="48.94332" lon="-0.50168">
        <ele>38</ele>
        <time>2023-05-02T12:55:51Z</time>
      </trkpt>
      <trkpt lat="48.94338" lon="-0.50166">
        <ele>38</ele>
        <time>2023-05-02T12:55:52Z</time>
      </trkpt>
      <trkpt lat="48.94345" lon="-0.50163">
        <ele>37.8</ele>
        <time>2023-05-02T12:55:53Z</time>
      </trkpt>
      <trkpt lat="48.94353" lon="-0.5016">
        <ele>37.8</ele>
        <time>2023-05-02T12:55:54Z</time>
      </trkpt>
      <trkpt lat="48.9436" lon="-0.50158">
        <ele>37.8</ele>
        <time>2023-05-02T12:55:55Z</time>
      </trkpt>
      <trkpt lat="48.94367" lon="-0.50156">
        <ele>37.6</ele>
        <time>2023-05-02T12:55:56Z</time>
      </trkpt>
      <trkpt lat="48.94374" lon="-0.50154">
        <ele>37.6</ele>
        <time>2023-05-02T12:55:57Z</time>
      </trkpt>
      <trkpt lat="48.94382" lon="-0.50152">
        <ele>37.6</ele>
        <time>2023-05-02T12:55:58Z</time>
      </trkpt>
      <trkpt lat="48.94389" lon="-0.50151">
        <ele>37.4</ele>
        <time>2023-05-02T12:55:59Z</time>
      </trkpt>
      <trkpt lat="48.94396" lon="-0.50149">
        <ele>37.4</ele>
        <time>2023-05-02T12:56:00Z</time>
      </trkpt>
      <trkpt lat="48.94404" lon="-0.50149">
        <ele>37.2</ele>
        <time>2023-05-02T12:56:01Z</time>
      </trkpt>
      <trkpt lat="48.94411" lon="-0.50148">
        <ele>37.2</ele>
        <time>2023-05-02T12:56:02Z</time>
      </trkpt>
      <trkpt lat="48.94419" lon="-0.50148">
        <ele>37.2</ele>
        <time>2023-05-02T12:56:03Z</time>
      </trkpt>
      <trkpt lat="48.94426" lon="-0.50149">
        <ele>37.4</ele>
        <time>2023-05-02T12:56:04Z</time>
      </trkpt>
      <trkpt lat="48.94434" lon="-0.50149">
        <ele>37.8</ele>
        <time>2023-05-02T12:56:05Z</time>
      </trkpt>
      <trkpt lat="48.94442" lon="-0.5015">
        <ele>38</ele>
        <time>2023-05-02T12:56:06Z</time>
      </trkpt>
      <trkpt lat="48.94449" lon="-0.50151">
        <ele>38</ele>
        <time>2023-05-02T12:56:07Z</time>
      </trkpt>
      <trkpt lat="48.94457" lon="-0.50153">
        <ele>38.2</ele>
        <time>2023-05-02T12:56:08Z</time>
      </trkpt>
      <trkpt lat="48.94465" lon="-0.50155">
        <ele>38.2</ele>
        <time>2023-05-02T12:56:09Z</time>
      </trkpt>
      <trkpt lat="48.94473" lon="-0.50157">
        <ele>38.2</ele>
        <time>2023-05-02T12:56:10Z</time>
      </trkpt>
      <trkpt lat="48.94481" lon="-0.50159">
        <ele>38.2</ele>
        <time>2023-05-02T12:56:11Z</time>
      </trkpt>
      <trkpt lat="48.94488" lon="-0.50162">
        <ele>38.2</ele>
        <time>2023-05-02T12:56:12Z</time>
      </trkpt>
      <trkpt lat="48.94495" lon="-0.50165">
        <ele>38</ele>
        <time>2023-05-02T12:56:13Z</time>
      </trkpt>
      <trkpt lat="48.94503" lon="-0.50168">
        <ele>38</ele>
        <time>2023-05-02T12:56:14Z</time>
      </trkpt>
      <trkpt lat="48.9451" lon="-0.50172">
        <ele>38.2</ele>
        <time>2023-05-02T12:56:15Z</time>
      </trkpt>
      <trkpt lat="48.94517" lon="-0.50176">
        <ele>38.4</ele>
        <time>2023-05-02T12:56:16Z</time>
      </trkpt>
      <trkpt lat="48.94524" lon="-0.5018">
        <ele>38.4</ele>
        <time>2023-05-02T12:56:17Z</time>
      </trkpt>
      <trkpt lat="48.94531" lon="-0.50185">
        <ele>38.6</ele>
        <time>2023-05-02T12:56:18Z</time>
      </trkpt>
      <trkpt lat="48.94538" lon="-0.50189">
        <ele>38.6</ele>
        <time>2023-05-02T12:56:19Z</time>
      </trkpt>
      <trkpt lat="48.94545" lon="-0.50194">
        <ele>38.6</ele>
        <time>2023-05-02T12:56:20Z</time>
      </trkpt>
      <trkpt lat="48.94551" lon="-0.50199">
        <ele>38.4</ele>
        <time>2023-05-02T12:56:21Z</time>
      </trkpt>
      <trkpt lat="48.94559" lon="-0.50204">
        <ele>38.2</ele>
        <time>2023-05-02T12:56:22Z</time>
      </trkpt>
      <trkpt lat="48.94566" lon="-0.5021">
        <ele>38</ele>
        <time>2023-05-02T12:56:23Z</time>
      </trkpt>
      <trkpt lat="48.94573" lon="-0.50215">
        <ele>38</ele>
        <time>2023-05-02T12:56:24Z</time>
      </trkpt>
      <trkpt lat="48.9458" lon="-0.50221">
        <ele>37.6</ele>
        <time>2023-05-02T12:56:25Z</time>
      </trkpt>
      <trkpt lat="48.94588" lon="-0.50227">
        <ele>37.6</ele>
        <time>2023-05-02T12:56:26Z</time>
      </trkpt>
      <trkpt lat="48.94596" lon="-0.50233">
        <ele>37.2</ele>
        <time>2023-05-02T12:56:27Z</time>
      </trkpt>
      <trkpt lat="48.94604" lon="-0.50239">
        <ele>37.2</ele>
        <time>2023-05-02T12:56:28Z</time>
      </trkpt>
      <trkpt lat="48.94613" lon="-0.50245">
        <ele>37</ele>
        <time>2023-05-02T12:56:29Z</time>
      </trkpt>
      <trkpt lat="48.94621" lon="-0.5025">
        <ele>36.8</ele>
        <time>2023-05-02T12:56:30Z</time>
      </trkpt>
      <trkpt lat="48.9463" lon="-0.50256">
        <ele>37</ele>
        <time>2023-05-02T12:56:31Z</time>
      </trkpt>
      <trkpt lat="48.94639" lon="-0.50261">
        <ele>37.2</ele>
        <time>2023-05-02T12:56:32Z</time>
      </trkpt>
      <trkpt lat="48.94649" lon="-0.50265">
        <ele>37.4</ele>
        <time>2023-05-02T12:56:33Z</time>
      </trkpt>
      <trkpt lat="48.94658" lon="-0.5027">
        <ele>37.6</ele>
        <time>2023-05-02T12:56:34Z</time>
      </trkpt>
      <trkpt lat="48.94668" lon="-0.50274">
        <ele>37.8</ele>
        <time>2023-05-02T12:56:35Z</time>
      </trkpt>
      <trkpt lat="48.94678" lon="-0.50278">
        <ele>37.2</ele>
        <time>2023-05-02T12:56:36Z</time>
      </trkpt>
      <trkpt lat="48.94688" lon="-0.50281">
        <ele>36.8</ele>
        <time>2023-05-02T12:56:37Z</time>
      </trkpt>
      <trkpt lat="48.94698" lon="-0.50284">
        <ele>36.4</ele>
        <time>2023-05-02T12:56:38Z</time>
      </trkpt>
      <trkpt lat="48.94709" lon="-0.50286">
        <ele>36</ele>
        <time>2023-05-02T12:56:39Z</time>
      </trkpt>
      <trkpt lat="48.94719" lon="-0.50287">
        <ele>35.8</ele>
        <time>2023-05-02T12:56:40Z</time>
      </trkpt>
      <trkpt lat="48.94728" lon="-0.50288">
        <ele>35.6</ele>
        <time>2023-05-02T12:56:41Z</time>
      </trkpt>
      <trkpt lat="48.94738" lon="-0.50287">
        <ele>35.6</ele>
        <time>2023-05-02T12:56:42Z</time>
      </trkpt>
      <trkpt lat="48.94747" lon="-0.50286">
        <ele>35.6</ele>
        <time>2023-05-02T12:56:43Z</time>
      </trkpt>
      <trkpt lat="48.94756" lon="-0.50286">
        <ele>35.6</ele>
        <time>2023-05-02T12:56:44Z</time>
      </trkpt>
      <trkpt lat="48.94765" lon="-0.50286">
        <ele>35.6</ele>
        <time>2023-05-02T12:56:45Z</time>
      </trkpt>
      <trkpt lat="48.94773" lon="-0.50286">
        <ele>35.6</ele>
        <time>2023-05-02T12:56:46Z</time>
      </trkpt>
      <trkpt lat="48.94782" lon="-0.50287">
        <ele>35.4</ele>
        <time>2023-05-02T12:56:47Z</time>
      </trkpt>
      <trkpt lat="48.9479" lon="-0.50289">
        <ele>35.2</ele>
        <time>2023-05-02T12:56:48Z</time>
      </trkpt>
      <trkpt lat="48.94799" lon="-0.50289">
        <ele>35.2</ele>
        <time>2023-05-02T12:56:49Z</time>
      </trkpt>
      <trkpt lat="48.94807" lon="-0.5029">
        <ele>35.2</ele>
        <time>2023-05-02T12:56:50Z</time>
      </trkpt>
      <trkpt lat="48.94815" lon="-0.5029">
        <ele>35.2</ele>
        <time>2023-05-02T12:56:51Z</time>
      </trkpt>
      <trkpt lat="48.94823" lon="-0.5029">
        <ele>35.2</ele>
        <time>2023-05-02T12:56:52Z</time>
      </trkpt>
      <trkpt lat="48.94831" lon="-0.50289">
        <ele>35.2</ele>
        <time>2023-05-02T12:56:53Z</time>
      </trkpt>
      <trkpt lat="48.94839" lon="-0.50289">
        <ele>35.6</ele>
        <time>2023-05-02T12:56:54Z</time>
      </trkpt>
      <trkpt lat="48.94847" lon="-0.50289">
        <ele>35.8</ele>
        <time>2023-05-02T12:56:55Z</time>
      </trkpt>
      <trkpt lat="48.94855" lon="-0.50289">
        <ele>36</ele>
        <time>2023-05-02T12:56:56Z</time>
      </trkpt>
      <trkpt lat="48.94862" lon="-0.50289">
        <ele>36.2</ele>
        <time>2023-05-02T12:56:57Z</time>
      </trkpt>
      <trkpt lat="48.9487" lon="-0.50291">
        <ele>36.4</ele>
        <time>2023-05-02T12:56:58Z</time>
      </trkpt>
      <trkpt lat="48.94877" lon="-0.50293">
        <ele>36.4</ele>
        <time>2023-05-02T12:56:59Z</time>
      </trkpt>
      <trkpt lat="48.94884" lon="-0.50295">
        <ele>36.4</ele>
        <time>2023-05-02T12:57:00Z</time>
      </trkpt>
      <trkpt lat="48.94891" lon="-0.50298">
        <ele>36.4</ele>
        <time>2023-05-02T12:57:01Z</time>
      </trkpt>
      <trkpt lat="48.94899" lon="-0.503">
        <ele>36.2</ele>
        <time>2023-05-02T12:57:02Z</time>
      </trkpt>
      <trkpt lat="48.94907" lon="-0.50302">
        <ele>36.4</ele>
        <time>2023-05-02T12:57:03Z</time>
      </trkpt>
      <trkpt lat="48.94914" lon="-0.50305">
        <ele>36.4</ele>
        <time>2023-05-02T12:57:04Z</time>
      </trkpt>
      <trkpt lat="48.94922" lon="-0.50307">
        <ele>36.2</ele>
        <time>2023-05-02T12:57:05Z</time>
      </trkpt>
      <trkpt lat="48.9493" lon="-0.5031">
        <ele>36</ele>
        <time>2023-05-02T12:57:06Z</time>
      </trkpt>
      <trkpt lat="48.94937" lon="-0.50312">
        <ele>35.8</ele>
        <time>2023-05-02T12:57:07Z</time>
      </trkpt>
      <trkpt lat="48.94944" lon="-0.50315">
        <ele>35.6</ele>
        <time>2023-05-02T12:57:08Z</time>
      </trkpt>
      <trkpt lat="48.94952" lon="-0.50318">
        <ele>35.4</ele>
        <time>2023-05-02T12:57:09Z</time>
      </trkpt>
      <trkpt lat="48.94959" lon="-0.50321">
        <ele>35</ele>
        <time>2023-05-02T12:57:10Z</time>
      </trkpt>
      <trkpt lat="48.94966" lon="-0.50324">
        <ele>34.8</ele>
        <time>2023-05-02T12:57:11Z</time>
      </trkpt>
      <trkpt lat="48.94973" lon="-0.50327">
        <ele>34.6</ele>
        <time>2023-05-02T12:57:12Z</time>
      </trkpt>
      <trkpt lat="48.9498" lon="-0.5033">
        <ele>34.2</ele>
        <time>2023-05-02T12:57:13Z</time>
      </trkpt>
      <trkpt lat="48.94987" lon="-0.50333">
        <ele>34</ele>
        <time>2023-05-02T12:57:14Z</time>
      </trkpt>
      <trkpt lat="48.94994" lon="-0.50336">
        <ele>33.8</ele>
        <time>2023-05-02T12:57:15Z</time>
      </trkpt>
      <trkpt lat="48.95001" lon="-0.50339">
        <ele>33.8</ele>
        <time>2023-05-02T12:57:16Z</time>
      </trkpt>
      <trkpt lat="48.95008" lon="-0.50341">
        <ele>33.8</ele>
        <time>2023-05-02T12:57:17Z</time>
      </trkpt>
      <trkpt lat="48.95015" lon="-0.50344">
        <ele>33.8</ele>
        <time>2023-05-02T12:57:18Z</time>
      </trkpt>
      <trkpt lat="48.95022" lon="-0.50347">
        <ele>33.8</ele>
        <time>2023-05-02T12:57:19Z</time>
      </trkpt>
      <trkpt lat="48.9503" lon="-0.5035">
        <ele>33.8</ele>
        <time>2023-05-02T12:57:20Z</time>
      </trkpt>
      <trkpt lat="48.95037" lon="-0.50352">
        <ele>33.8</ele>
        <time>2023-05-02T12:57:21Z</time>
      </trkpt>
      <trkpt lat="48.95044" lon="-0.50354">
        <ele>33.6</ele>
        <time>2023-05-02T12:57:22Z</time>
      </trkpt>
      <trkpt lat="48.95049" lon="-0.50355">
        <ele>33.8</ele>
        <time>2023-05-02T12:57:23Z</time>
      </trkpt>
      <trkpt lat="48.95053" lon="-0.50355">
        <ele>33.8</ele>
        <time>2023-05-02T12:57:24Z</time>
      </trkpt>
      <trkpt lat="48.95057" lon="-0.50355">
        <ele>33.8</ele>
        <time>2023-05-02T12:57:25Z</time>
      </trkpt>
      <trkpt lat="48.95062" lon="-0.50355">
        <ele>33.8</ele>
        <time>2023-05-02T12:57:26Z</time>
      </trkpt>
      <trkpt lat="48.95066" lon="-0.50355">
        <ele>33.8</ele>
        <time>2023-05-02T12:57:27Z</time>
      </trkpt>
      <trkpt lat="48.95071" lon="-0.50356">
        <ele>33.8</ele>
        <time>2023-05-02T12:57:28Z</time>
      </trkpt>
      <trkpt lat="48.95075" lon="-0.50357">
        <ele>33.8</ele>
        <time>2023-05-02T12:57:29Z</time>
      </trkpt>
      <trkpt lat="48.9508" lon="-0.50357">
        <ele>33.8</ele>
        <time>2023-05-02T12:57:30Z</time>
      </trkpt>
      <trkpt lat="48.95085" lon="-0.50358">
        <ele>33.8</ele>
        <time>2023-05-02T12:57:31Z</time>
      </trkpt>
      <trkpt lat="48.9509" lon="-0.50358">
        <ele>33.8</ele>
        <time>2023-05-02T12:57:32Z</time>
      </trkpt>
      <trkpt lat="48.95095" lon="-0.50359">
        <ele>33.8</ele>
        <time>2023-05-02T12:57:33Z</time>
      </trkpt>
      <trkpt lat="48.951" lon="-0.50359">
        <ele>33.8</ele>
        <time>2023-05-02T12:57:34Z</time>
      </trkpt>
      <trkpt lat="48.95105" lon="-0.50359">
        <ele>34</ele>
        <time>2023-05-02T12:57:35Z</time>
      </trkpt>
      <trkpt lat="48.95109" lon="-0.50359">
        <ele>34</ele>
        <time>2023-05-02T12:57:36Z</time>
      </trkpt>
      <trkpt lat="48.95114" lon="-0.50358">
        <ele>34</ele>
        <time>2023-05-02T12:57:37Z</time>
      </trkpt>
      <trkpt lat="48.95118" lon="-0.50358">
        <ele>34</ele>
        <time>2023-05-02T12:57:38Z</time>
      </trkpt>
      <trkpt lat="48.95123" lon="-0.50358">
        <ele>34</ele>
        <time>2023-05-02T12:57:39Z</time>
      </trkpt>
      <trkpt lat="48.95127" lon="-0.50357">
        <ele>34</ele>
        <time>2023-05-02T12:57:40Z</time>
      </trkpt>
      <trkpt lat="48.95132" lon="-0.50357">
        <ele>34</ele>
        <time>2023-05-02T12:57:41Z</time>
      </trkpt>
      <trkpt lat="48.95136" lon="-0.50356">
        <ele>34</ele>
        <time>2023-05-02T12:57:42Z</time>
      </trkpt>
      <trkpt lat="48.9514" lon="-0.50354">
        <ele>34.2</ele>
        <time>2023-05-02T12:57:43Z</time>
      </trkpt>
      <trkpt lat="48.95144" lon="-0.50352">
        <ele>34.2</ele>
        <time>2023-05-02T12:57:44Z</time>
      </trkpt>
      <trkpt lat="48.95148" lon="-0.5035">
        <ele>34.4</ele>
        <time>2023-05-02T12:57:45Z</time>
      </trkpt>
      <trkpt lat="48.95152" lon="-0.50348">
        <ele>34.6</ele>
        <time>2023-05-02T12:57:46Z</time>
      </trkpt>
      <trkpt lat="48.95155" lon="-0.50346">
        <ele>34.6</ele>
        <time>2023-05-02T12:57:47Z</time>
      </trkpt>
      <trkpt lat="48.95159" lon="-0.50344">
        <ele>34.6</ele>
        <time>2023-05-02T12:57:48Z</time>
      </trkpt>
      <trkpt lat="48.95163" lon="-0.50343">
        <ele>34.6</ele>
        <time>2023-05-02T12:57:49Z</time>
      </trkpt>
      <trkpt lat="48.95167" lon="-0.50342">
        <ele>34.8</ele>
        <time>2023-05-02T12:57:50Z</time>
      </trkpt>
      <trkpt lat="48.95171" lon="-0.5034">
        <ele>34.6</ele>
        <time>2023-05-02T12:57:51Z</time>
      </trkpt>
      <trkpt lat="48.95176" lon="-0.50339">
        <ele>34.6</ele>
        <time>2023-05-02T12:57:52Z</time>
      </trkpt>
      <trkpt lat="48.95181" lon="-0.50337">
        <ele>34.6</ele>
        <time>2023-05-02T12:57:53Z</time>
      </trkpt>
      <trkpt lat="48.95186" lon="-0.50335">
        <ele>34.6</ele>
        <time>2023-05-02T12:57:54Z</time>
      </trkpt>
      <trkpt lat="48.95191" lon="-0.50332">
        <ele>34.6</ele>
        <time>2023-05-02T12:57:55Z</time>
      </trkpt>
      <trkpt lat="48.95197" lon="-0.5033">
        <ele>34.6</ele>
        <time>2023-05-02T12:57:56Z</time>
      </trkpt>
      <trkpt lat="48.95202" lon="-0.50328">
        <ele>34.6</ele>
        <time>2023-05-02T12:57:57Z</time>
      </trkpt>
      <trkpt lat="48.95207" lon="-0.50325">
        <ele>34.6</ele>
        <time>2023-05-02T12:57:58Z</time>
      </trkpt>
      <trkpt lat="48.95212" lon="-0.50322">
        <ele>34.6</ele>
        <time>2023-05-02T12:57:59Z</time>
      </trkpt>
      <trkpt lat="48.95217" lon="-0.50319">
        <ele>34.6</ele>
        <time>2023-05-02T12:58:00Z</time>
      </trkpt>
      <trkpt lat="48.95222" lon="-0.50316">
        <ele>34.6</ele>
        <time>2023-05-02T12:58:01Z</time>
      </trkpt>
      <trkpt lat="48.95227" lon="-0.50312">
        <ele>34.8</ele>
        <time>2023-05-02T12:58:02Z</time>
      </trkpt>
      <trkpt lat="48.95232" lon="-0.50308">
        <ele>34.8</ele>
        <time>2023-05-02T12:58:03Z</time>
      </trkpt>
      <trkpt lat="48.95237" lon="-0.50304">
        <ele>34.8</ele>
        <time>2023-05-02T12:58:04Z</time>
      </trkpt>
      <trkpt lat="48.95242" lon="-0.503">
        <ele>35</ele>
        <time>2023-05-02T12:58:05Z</time>
      </trkpt>
      <trkpt lat="48.95247" lon="-0.50295">
        <ele>35</ele>
        <time>2023-05-02T12:58:06Z</time>
      </trkpt>
      <trkpt lat="48.95252" lon="-0.5029">
        <ele>35</ele>
        <time>2023-05-02T12:58:07Z</time>
      </trkpt>
      <trkpt lat="48.95257" lon="-0.50286">
        <ele>35</ele>
        <time>2023-05-02T12:58:08Z</time>
      </trkpt>
      <trkpt lat="48.95262" lon="-0.50281">
        <ele>35</ele>
        <time>2023-05-02T12:58:09Z</time>
      </trkpt>
      <trkpt lat="48.95266" lon="-0.50277">
        <ele>35</ele>
        <time>2023-05-02T12:58:10Z</time>
      </trkpt>
      <trkpt lat="48.95271" lon="-0.50273">
        <ele>35</ele>
        <time>2023-05-02T12:58:11Z</time>
      </trkpt>
      <trkpt lat="48.95274" lon="-0.50269">
        <ele>35</ele>
        <time>2023-05-02T12:58:12Z</time>
      </trkpt>
      <trkpt lat="48.95277" lon="-0.50265">
        <ele>35</ele>
        <time>2023-05-02T12:58:13Z</time>
      </trkpt>
      <trkpt lat="48.9528" lon="-0.50262">
        <ele>35.2</ele>
        <time>2023-05-02T12:58:14Z</time>
      </trkpt>
      <trkpt lat="48.95282" lon="-0.50259">
        <ele>35.2</ele>
        <time>2023-05-02T12:58:15Z</time>
      </trkpt>
      <trkpt lat="48.95284" lon="-0.50256">
        <ele>35.2</ele>
        <time>2023-05-02T12:58:16Z</time>
      </trkpt>
      <trkpt lat="48.95286" lon="-0.50254">
        <ele>35</ele>
        <time>2023-05-02T12:58:17Z</time>
      </trkpt>
      <trkpt lat="48.95289" lon="-0.50251">
        <ele>35</ele>
        <time>2023-05-02T12:58:18Z</time>
      </trkpt>
      <trkpt lat="48.95291" lon="-0.50249">
        <ele>35</ele>
        <time>2023-05-02T12:58:19Z</time>
      </trkpt>
      <trkpt lat="48.95294" lon="-0.50245">
        <ele>35</ele>
        <time>2023-05-02T12:58:20Z</time>
      </trkpt>
      <trkpt lat="48.95296" lon="-0.50241">
        <ele>35</ele>
        <time>2023-05-02T12:58:21Z</time>
      </trkpt>
      <trkpt lat="48.95299" lon="-0.50236">
        <ele>35</ele>
        <time>2023-05-02T12:58:22Z</time>
      </trkpt>
      <trkpt lat="48.95303" lon="-0.50231">
        <ele>35</ele>
        <time>2023-05-02T12:58:23Z</time>
      </trkpt>
      <trkpt lat="48.95306" lon="-0.50226">
        <ele>35</ele>
        <time>2023-05-02T12:58:24Z</time>
      </trkpt>
      <trkpt lat="48.9531" lon="-0.5022">
        <ele>35</ele>
        <time>2023-05-02T12:58:25Z</time>
      </trkpt>
      <trkpt lat="48.95314" lon="-0.50214">
        <ele>35</ele>
        <time>2023-05-02T12:58:26Z</time>
      </trkpt>
      <trkpt lat="48.95318" lon="-0.50207">
        <ele>35.2</ele>
        <time>2023-05-02T12:58:27Z</time>
      </trkpt>
      <trkpt lat="48.95321" lon="-0.50201">
        <ele>35.2</ele>
        <time>2023-05-02T12:58:28Z</time>
      </trkpt>
      <trkpt lat="48.95325" lon="-0.50194">
        <ele>35.4</ele>
        <time>2023-05-02T12:58:29Z</time>
      </trkpt>
      <trkpt lat="48.95328" lon="-0.50187">
        <ele>35.6</ele>
        <time>2023-05-02T12:58:30Z</time>
      </trkpt>
      <trkpt lat="48.95331" lon="-0.5018">
        <ele>35.6</ele>
        <time>2023-05-02T12:58:31Z</time>
      </trkpt>
      <trkpt lat="48.95334" lon="-0.50172">
        <ele>35.8</ele>
        <time>2023-05-02T12:58:32Z</time>
      </trkpt>
      <trkpt lat="48.95337" lon="-0.50165">
        <ele>36</ele>
        <time>2023-05-02T12:58:33Z</time>
      </trkpt>
      <trkpt lat="48.95341" lon="-0.50158">
        <ele>36</ele>
        <time>2023-05-02T12:58:34Z</time>
      </trkpt>
      <trkpt lat="48.95344" lon="-0.5015">
        <ele>36.2</ele>
        <time>2023-05-02T12:58:35Z</time>
      </trkpt>
      <trkpt lat="48.95347" lon="-0.50142">
        <ele>36.2</ele>
        <time>2023-05-02T12:58:36Z</time>
      </trkpt>
      <trkpt lat="48.95351" lon="-0.50135">
        <ele>36.4</ele>
        <time>2023-05-02T12:58:37Z</time>
      </trkpt>
      <trkpt lat="48.95354" lon="-0.50127">
        <ele>36.6</ele>
        <time>2023-05-02T12:58:38Z</time>
      </trkpt>
      <trkpt lat="48.95357" lon="-0.50119">
        <ele>36.6</ele>
        <time>2023-05-02T12:58:39Z</time>
      </trkpt>
      <trkpt lat="48.9536" lon="-0.50111">
        <ele>36.6</ele>
        <time>2023-05-02T12:58:40Z</time>
      </trkpt>
      <trkpt lat="48.95363" lon="-0.50103">
        <ele>36.6</ele>
        <time>2023-05-02T12:58:41Z</time>
      </trkpt>
      <trkpt lat="48.95365" lon="-0.50094">
        <ele>36.6</ele>
        <time>2023-05-02T12:58:42Z</time>
      </trkpt>
      <trkpt lat="48.95368" lon="-0.50085">
        <ele>36.6</ele>
        <time>2023-05-02T12:58:43Z</time>
      </trkpt>
      <trkpt lat="48.9537" lon="-0.50075">
        <ele>36.6</ele>
        <time>2023-05-02T12:58:44Z</time>
      </trkpt>
      <trkpt lat="48.95372" lon="-0.50065">
        <ele>36.6</ele>
        <time>2023-05-02T12:58:45Z</time>
      </trkpt>
      <trkpt lat="48.95374" lon="-0.50054">
        <ele>36.6</ele>
        <time>2023-05-02T12:58:46Z</time>
      </trkpt>
      <trkpt lat="48.95376" lon="-0.50043">
        <ele>36.6</ele>
        <time>2023-05-02T12:58:47Z</time>
      </trkpt>
      <trkpt lat="48.95378" lon="-0.50033">
        <ele>36.8</ele>
        <time>2023-05-02T12:58:48Z</time>
      </trkpt>
      <trkpt lat="48.9538" lon="-0.50023">
        <ele>36.8</ele>
        <time>2023-05-02T12:58:49Z</time>
      </trkpt>
      <trkpt lat="48.95381" lon="-0.50013">
        <ele>37</ele>
        <time>2023-05-02T12:58:50Z</time>
      </trkpt>
      <trkpt lat="48.95382" lon="-0.50003">
        <ele>37</ele>
        <time>2023-05-02T12:58:51Z</time>
      </trkpt>
      <trkpt lat="48.95383" lon="-0.49993">
        <ele>37</ele>
        <time>2023-05-02T12:58:52Z</time>
      </trkpt>
      <trkpt lat="48.95384" lon="-0.49984">
        <ele>36.8</ele>
        <time>2023-05-02T12:58:53Z</time>
      </trkpt>
      <trkpt lat="48.95385" lon="-0.49975">
        <ele>36.8</ele>
        <time>2023-05-02T12:58:54Z</time>
      </trkpt>
      <trkpt lat="48.95386" lon="-0.49965">
        <ele>36.6</ele>
        <time>2023-05-02T12:58:55Z</time>
      </trkpt>
      <trkpt lat="48.95387" lon="-0.49955">
        <ele>36.4</ele>
        <time>2023-05-02T12:58:56Z</time>
      </trkpt>
      <trkpt lat="48.95388" lon="-0.49945">
        <ele>36.2</ele>
        <time>2023-05-02T12:58:57Z</time>
      </trkpt>
      <trkpt lat="48.95389" lon="-0.49935">
        <ele>36</ele>
        <time>2023-05-02T12:58:58Z</time>
      </trkpt>
      <trkpt lat="48.95391" lon="-0.49926">
        <ele>36</ele>
        <time>2023-05-02T12:58:59Z</time>
      </trkpt>
      <trkpt lat="48.95392" lon="-0.49916">
        <ele>36</ele>
        <time>2023-05-02T12:59:00Z</time>
      </trkpt>
      <trkpt lat="48.95393" lon="-0.49906">
        <ele>35.8</ele>
        <time>2023-05-02T12:59:01Z</time>
      </trkpt>
      <trkpt lat="48.95395" lon="-0.49896">
        <ele>35.6</ele>
        <time>2023-05-02T12:59:02Z</time>
      </trkpt>
      <trkpt lat="48.95396" lon="-0.49886">
        <ele>35.6</ele>
        <time>2023-05-02T12:59:03Z</time>
      </trkpt>
      <trkpt lat="48.95398" lon="-0.49877">
        <ele>35.2</ele>
        <time>2023-05-02T12:59:04Z</time>
      </trkpt>
      <trkpt lat="48.954" lon="-0.49867">
        <ele>35</ele>
        <time>2023-05-02T12:59:05Z</time>
      </trkpt>
      <trkpt lat="48.95401" lon="-0.49857">
        <ele>35</ele>
        <time>2023-05-02T12:59:06Z</time>
      </trkpt>
      <trkpt lat="48.95403" lon="-0.49847">
        <ele>34.8</ele>
        <time>2023-05-02T12:59:07Z</time>
      </trkpt>
      <trkpt lat="48.95405" lon="-0.49837">
        <ele>34.6</ele>
        <time>2023-05-02T12:59:08Z</time>
      </trkpt>
      <trkpt lat="48.95407" lon="-0.49827">
        <ele>34.6</ele>
        <time>2023-05-02T12:59:09Z</time>
      </trkpt>
      <trkpt lat="48.95409" lon="-0.49816">
        <ele>34.6</ele>
        <time>2023-05-02T12:59:10Z</time>
      </trkpt>
      <trkpt lat="48.9541" lon="-0.49805">
        <ele>34.6</ele>
        <time>2023-05-02T12:59:11Z</time>
      </trkpt>
      <trkpt lat="48.95412" lon="-0.49794">
        <ele>34.6</ele>
        <time>2023-05-02T12:59:12Z</time>
      </trkpt>
      <trkpt lat="48.95414" lon="-0.49784">
        <ele>34.8</ele>
        <time>2023-05-02T12:59:13Z</time>
      </trkpt>
      <trkpt lat="48.95416" lon="-0.49772">
        <ele>34.8</ele>
        <time>2023-05-02T12:59:14Z</time>
      </trkpt>
      <trkpt lat="48.95417" lon="-0.49761">
        <ele>35</ele>
        <time>2023-05-02T12:59:15Z</time>
      </trkpt>
      <trkpt lat="48.95419" lon="-0.4975">
        <ele>36</ele>
        <time>2023-05-02T12:59:16Z</time>
      </trkpt>
      <trkpt lat="48.95421" lon="-0.49739">
        <ele>36.6</ele>
        <time>2023-05-02T12:59:17Z</time>
      </trkpt>
      <trkpt lat="48.95423" lon="-0.49728">
        <ele>37</ele>
        <time>2023-05-02T12:59:18Z</time>
      </trkpt>
      <trkpt lat="48.95424" lon="-0.49717">
        <ele>37.4</ele>
        <time>2023-05-02T12:59:19Z</time>
      </trkpt>
      <trkpt lat="48.95426" lon="-0.49706">
        <ele>37.8</ele>
        <time>2023-05-02T12:59:20Z</time>
      </trkpt>
      <trkpt lat="48.95428" lon="-0.49696">
        <ele>38.2</ele>
        <time>2023-05-02T12:59:21Z</time>
      </trkpt>
      <trkpt lat="48.9543" lon="-0.49685">
        <ele>38.6</ele>
        <time>2023-05-02T12:59:22Z</time>
      </trkpt>
      <trkpt lat="48.95432" lon="-0.49674">
        <ele>39</ele>
        <time>2023-05-02T12:59:23Z</time>
      </trkpt>
      <trkpt lat="48.95433" lon="-0.49663">
        <ele>39.2</ele>
        <time>2023-05-02T12:59:24Z</time>
      </trkpt>
      <trkpt lat="48.95435" lon="-0.49652">
        <ele>39.4</ele>
        <time>2023-05-02T12:59:25Z</time>
      </trkpt>
      <trkpt lat="48.95437" lon="-0.49642">
        <ele>39.6</ele>
        <time>2023-05-02T12:59:26Z</time>
      </trkpt>
      <trkpt lat="48.95438" lon="-0.49631">
        <ele>39.6</ele>
        <time>2023-05-02T12:59:27Z</time>
      </trkpt>
      <trkpt lat="48.9544" lon="-0.4962">
        <ele>39.6</ele>
        <time>2023-05-02T12:59:28Z</time>
      </trkpt>
      <trkpt lat="48.95442" lon="-0.4961">
        <ele>39.6</ele>
        <time>2023-05-02T12:59:29Z</time>
      </trkpt>
      <trkpt lat="48.95443" lon="-0.49599">
        <ele>39.4</ele>
        <time>2023-05-02T12:59:30Z</time>
      </trkpt>
      <trkpt lat="48.95444" lon="-0.49589">
        <ele>39.2</ele>
        <time>2023-05-02T12:59:31Z</time>
      </trkpt>
      <trkpt lat="48.95446" lon="-0.4958">
        <ele>39</ele>
        <time>2023-05-02T12:59:32Z</time>
      </trkpt>
      <trkpt lat="48.95447" lon="-0.4957">
        <ele>39</ele>
        <time>2023-05-02T12:59:33Z</time>
      </trkpt>
      <trkpt lat="48.95449" lon="-0.4956">
        <ele>38.8</ele>
        <time>2023-05-02T12:59:34Z</time>
      </trkpt>
      <trkpt lat="48.9545" lon="-0.49549">
        <ele>38.6</ele>
        <time>2023-05-02T12:59:35Z</time>
      </trkpt>
      <trkpt lat="48.95452" lon="-0.49538">
        <ele>38.2</ele>
        <time>2023-05-02T12:59:36Z</time>
      </trkpt>
      <trkpt lat="48.95454" lon="-0.49527">
        <ele>38</ele>
        <time>2023-05-02T12:59:37Z</time>
      </trkpt>
      <trkpt lat="48.95455" lon="-0.49516">
        <ele>37.8</ele>
        <time>2023-05-02T12:59:38Z</time>
      </trkpt>
      <trkpt lat="48.95457" lon="-0.49505">
        <ele>37.6</ele>
        <time>2023-05-02T12:59:39Z</time>
      </trkpt>
      <trkpt lat="48.95459" lon="-0.49494">
        <ele>37.2</ele>
        <time>2023-05-02T12:59:40Z</time>
      </trkpt>
      <trkpt lat="48.9546" lon="-0.49483">
        <ele>37</ele>
        <time>2023-05-02T12:59:41Z</time>
      </trkpt>
      <trkpt lat="48.95462" lon="-0.49472">
        <ele>36.6</ele>
        <time>2023-05-02T12:59:42Z</time>
      </trkpt>
      <trkpt lat="48.95464" lon="-0.49462">
        <ele>36.2</ele>
        <time>2023-05-02T12:59:43Z</time>
      </trkpt>
      <trkpt lat="48.95465" lon="-0.49451">
        <ele>36</ele>
        <time>2023-05-02T12:59:44Z</time>
      </trkpt>
      <trkpt lat="48.95467" lon="-0.4944">
        <ele>35.6</ele>
        <time>2023-05-02T12:59:45Z</time>
      </trkpt>
      <trkpt lat="48.95469" lon="-0.4943">
        <ele>35</ele>
        <time>2023-05-02T12:59:46Z</time>
      </trkpt>
      <trkpt lat="48.9547" lon="-0.49419">
        <ele>34.6</ele>
        <time>2023-05-02T12:59:47Z</time>
      </trkpt>
      <trkpt lat="48.95472" lon="-0.49408">
        <ele>34.4</ele>
        <time>2023-05-02T12:59:48Z</time>
      </trkpt>
      <trkpt lat="48.95473" lon="-0.49398">
        <ele>34.2</ele>
        <time>2023-05-02T12:59:49Z</time>
      </trkpt>
      <trkpt lat="48.95475" lon="-0.49387">
        <ele>34</ele>
        <time>2023-05-02T12:59:50Z</time>
      </trkpt>
      <trkpt lat="48.95477" lon="-0.49376">
        <ele>33.8</ele>
        <time>2023-05-02T12:59:51Z</time>
      </trkpt>
      <trkpt lat="48.95478" lon="-0.49365">
        <ele>33.6</ele>
        <time>2023-05-02T12:59:52Z</time>
      </trkpt>
      <trkpt lat="48.9548" lon="-0.49354">
        <ele>33.2</ele>
        <time>2023-05-02T12:59:53Z</time>
      </trkpt>
      <trkpt lat="48.95482" lon="-0.49343">
        <ele>33</ele>
        <time>2023-05-02T12:59:54Z</time>
      </trkpt>
      <trkpt lat="48.95483" lon="-0.49332">
        <ele>32.8</ele>
        <time>2023-05-02T12:59:55Z</time>
      </trkpt>
      <trkpt lat="48.95485" lon="-0.49321">
        <ele>32.4</ele>
        <time>2023-05-02T12:59:56Z</time>
      </trkpt>
      <trkpt lat="48.95487" lon="-0.4931">
        <ele>32</ele>
        <time>2023-05-02T12:59:57Z</time>
      </trkpt>
      <trkpt lat="48.95489" lon="-0.49299">
        <ele>31.6</ele>
        <time>2023-05-02T12:59:58Z</time>
      </trkpt>
      <trkpt lat="48.95491" lon="-0.49289">
        <ele>31.2</ele>
        <time>2023-05-02T12:59:59Z</time>
      </trkpt>
      <trkpt lat="48.95493" lon="-0.49278">
        <ele>30.8</ele>
        <time>2023-05-02T13:00:00Z</time>
      </trkpt>
      <trkpt lat="48.95496" lon="-0.49268">
        <ele>30.6</ele>
        <time>2023-05-02T13:00:01Z</time>
      </trkpt>
      <trkpt lat="48.95498" lon="-0.49258">
        <ele>30.2</ele>
        <time>2023-05-02T13:00:02Z</time>
      </trkpt>
      <trkpt lat="48.955" lon="-0.49247">
        <ele>30</ele>
        <time>2023-05-02T13:00:03Z</time>
      </trkpt>
      <trkpt lat="48.95502" lon="-0.49237">
        <ele>30</ele>
        <time>2023-05-02T13:00:04Z</time>
      </trkpt>
      <trkpt lat="48.95505" lon="-0.49227">
        <ele>30</ele>
        <time>2023-05-02T13:00:05Z</time>
      </trkpt>
      <trkpt lat="48.95507" lon="-0.49216">
        <ele>30</ele>
        <time>2023-05-02T13:00:06Z</time>
      </trkpt>
      <trkpt lat="48.9551" lon="-0.49206">
        <ele>30.2</ele>
        <time>2023-05-02T13:00:07Z</time>
      </trkpt>
      <trkpt lat="48.95512" lon="-0.49196">
        <ele>30</ele>
        <time>2023-05-02T13:00:08Z</time>
      </trkpt>
      <trkpt lat="48.95515" lon="-0.49186">
        <ele>30</ele>
        <time>2023-05-02T13:00:09Z</time>
      </trkpt>
      <trkpt lat="48.95518" lon="-0.49176">
        <ele>30</ele>
        <time>2023-05-02T13:00:10Z</time>
      </trkpt>
      <trkpt lat="48.95521" lon="-0.49166">
        <ele>30</ele>
        <time>2023-05-02T13:00:11Z</time>
      </trkpt>
      <trkpt lat="48.95524" lon="-0.49156">
        <ele>30</ele>
        <time>2023-05-02T13:00:12Z</time>
      </trkpt>
      <trkpt lat="48.95527" lon="-0.49146">
        <ele>30.2</ele>
        <time>2023-05-02T13:00:13Z</time>
      </trkpt>
      <trkpt lat="48.9553" lon="-0.49136">
        <ele>30.2</ele>
        <time>2023-05-02T13:00:14Z</time>
      </trkpt>
      <trkpt lat="48.95533" lon="-0.49127">
        <ele>30.2</ele>
        <time>2023-05-02T13:00:15Z</time>
      </trkpt>
      <trkpt lat="48.95537" lon="-0.49117">
        <ele>30.2</ele>
        <time>2023-05-02T13:00:16Z</time>
      </trkpt>
      <trkpt lat="48.9554" lon="-0.49107">
        <ele>30.2</ele>
        <time>2023-05-02T13:00:17Z</time>
      </trkpt>
      <trkpt lat="48.95543" lon="-0.49098">
        <ele>30.2</ele>
        <time>2023-05-02T13:00:18Z</time>
      </trkpt>
      <trkpt lat="48.95547" lon="-0.49089">
        <ele>30.2</ele>
        <time>2023-05-02T13:00:19Z</time>
      </trkpt>
      <trkpt lat="48.9555" lon="-0.4908">
        <ele>30.2</ele>
        <time>2023-05-02T13:00:20Z</time>
      </trkpt>
      <trkpt lat="48.95554" lon="-0.49071">
        <ele>30.4</ele>
        <time>2023-05-02T13:00:21Z</time>
      </trkpt>
      <trkpt lat="48.95557" lon="-0.49062">
        <ele>30.4</ele>
        <time>2023-05-02T13:00:22Z</time>
      </trkpt>
      <trkpt lat="48.95561" lon="-0.49054">
        <ele>30.6</ele>
        <time>2023-05-02T13:00:23Z</time>
      </trkpt>
      <trkpt lat="48.95565" lon="-0.49045">
        <ele>30.6</ele>
        <time>2023-05-02T13:00:24Z</time>
      </trkpt>
      <trkpt lat="48.95569" lon="-0.49035">
        <ele>30.6</ele>
        <time>2023-05-02T13:00:25Z</time>
      </trkpt>
      <trkpt lat="48.95573" lon="-0.49026">
        <ele>30.8</ele>
        <time>2023-05-02T13:00:26Z</time>
      </trkpt>
      <trkpt lat="48.95577" lon="-0.49017">
        <ele>30.8</ele>
        <time>2023-05-02T13:00:27Z</time>
      </trkpt>
      <trkpt lat="48.95582" lon="-0.49007">
        <ele>31</ele>
        <time>2023-05-02T13:00:28Z</time>
      </trkpt>
      <trkpt lat="48.95586" lon="-0.48998">
        <ele>31</ele>
        <time>2023-05-02T13:00:29Z</time>
      </trkpt>
      <trkpt lat="48.95591" lon="-0.48989">
        <ele>30.8</ele>
        <time>2023-05-02T13:00:30Z</time>
      </trkpt>
      <trkpt lat="48.95596" lon="-0.4898">
        <ele>30.8</ele>
        <time>2023-05-02T13:00:31Z</time>
      </trkpt>
      <trkpt lat="48.956" lon="-0.48971">
        <ele>30.6</ele>
        <time>2023-05-02T13:00:32Z</time>
      </trkpt>
      <trkpt lat="48.95605" lon="-0.48963">
        <ele>30.4</ele>
        <time>2023-05-02T13:00:33Z</time>
      </trkpt>
      <trkpt lat="48.9561" lon="-0.48954">
        <ele>30.2</ele>
        <time>2023-05-02T13:00:34Z</time>
      </trkpt>
      <trkpt lat="48.95614" lon="-0.48945">
        <ele>30.2</ele>
        <time>2023-05-02T13:00:35Z</time>
      </trkpt>
      <trkpt lat="48.95619" lon="-0.48937">
        <ele>29.8</ele>
        <time>2023-05-02T13:00:36Z</time>
      </trkpt>
      <trkpt lat="48.95624" lon="-0.48928">
        <ele>29.8</ele>
        <time>2023-05-02T13:00:37Z</time>
      </trkpt>
      <trkpt lat="48.95629" lon="-0.4892">
        <ele>29.6</ele>
        <time>2023-05-02T13:00:38Z</time>
      </trkpt>
      <trkpt lat="48.95634" lon="-0.48911">
        <ele>29.6</ele>
        <time>2023-05-02T13:00:39Z</time>
      </trkpt>
      <trkpt lat="48.95639" lon="-0.48903">
        <ele>29.4</ele>
        <time>2023-05-02T13:00:40Z</time>
      </trkpt>
      <trkpt lat="48.95643" lon="-0.48894">
        <ele>29.4</ele>
        <time>2023-05-02T13:00:41Z</time>
      </trkpt>
      <trkpt lat="48.95648" lon="-0.48886">
        <ele>29.2</ele>
        <time>2023-05-02T13:00:42Z</time>
      </trkpt>
      <trkpt lat="48.95653" lon="-0.48878">
        <ele>29.2</ele>
        <time>2023-05-02T13:00:43Z</time>
      </trkpt>
      <trkpt lat="48.95657" lon="-0.48869">
        <ele>29.2</ele>
        <time>2023-05-02T13:00:44Z</time>
      </trkpt>
      <trkpt lat="48.95662" lon="-0.48861">
        <ele>29.2</ele>
        <time>2023-05-02T13:00:45Z</time>
      </trkpt>
      <trkpt lat="48.95667" lon="-0.48853">
        <ele>29.2</ele>
        <time>2023-05-02T13:00:46Z</time>
      </trkpt>
      <trkpt lat="48.95672" lon="-0.48845">
        <ele>29.2</ele>
        <time>2023-05-02T13:00:47Z</time>
      </trkpt>
      <trkpt lat="48.95676" lon="-0.48837">
        <ele>29.4</ele>
        <time>2023-05-02T13:00:48Z</time>
      </trkpt>
      <trkpt lat="48.95681" lon="-0.48829">
        <ele>29.4</ele>
        <time>2023-05-02T13:00:49Z</time>
      </trkpt>
      <trkpt lat="48.95686" lon="-0.48821">
        <ele>29.4</ele>
        <time>2023-05-02T13:00:50Z</time>
      </trkpt>
      <trkpt lat="48.95691" lon="-0.48812">
        <ele>29.4</ele>
        <time>2023-05-02T13:00:51Z</time>
      </trkpt>
      <trkpt lat="48.95695" lon="-0.48804">
        <ele>29.6</ele>
        <time>2023-05-02T13:00:52Z</time>
      </trkpt>
      <trkpt lat="48.957" lon="-0.48796">
        <ele>29.6</ele>
        <time>2023-05-02T13:00:53Z</time>
      </trkpt>
      <trkpt lat="48.95705" lon="-0.48788">
        <ele>29.6</ele>
        <time>2023-05-02T13:00:54Z</time>
      </trkpt>
      <trkpt lat="48.95709" lon="-0.4878">
        <ele>29.6</ele>
        <time>2023-05-02T13:00:55Z</time>
      </trkpt>
      <trkpt lat="48.95714" lon="-0.48772">
        <ele>29.8</ele>
        <time>2023-05-02T13:00:56Z</time>
      </trkpt>
      <trkpt lat="48.95719" lon="-0.48763">
        <ele>29.8</ele>
        <time>2023-05-02T13:00:57Z</time>
      </trkpt>
      <trkpt lat="48.95724" lon="-0.48755">
        <ele>29.8</ele>
        <time>2023-05-02T13:00:58Z</time>
      </trkpt>
      <trkpt lat="48.95729" lon="-0.48747">
        <ele>30</ele>
        <time>2023-05-02T13:00:59Z</time>
      </trkpt>
      <trkpt lat="48.95734" lon="-0.48739">
        <ele>30.2</ele>
        <time>2023-05-02T13:01:00Z</time>
      </trkpt>
      <trkpt lat="48.95739" lon="-0.4873">
        <ele>30.2</ele>
        <time>2023-05-02T13:01:01Z</time>
      </trkpt>
      <trkpt lat="48.95744" lon="-0.48722">
        <ele>30.4</ele>
        <time>2023-05-02T13:01:02Z</time>
      </trkpt>
      <trkpt lat="48.95749" lon="-0.48714">
        <ele>30.6</ele>
        <time>2023-05-02T13:01:03Z</time>
      </trkpt>
      <trkpt lat="48.95754" lon="-0.48705">
        <ele>30.6</ele>
        <time>2023-05-02T13:01:04Z</time>
      </trkpt>
      <trkpt lat="48.95758" lon="-0.48697">
        <ele>30.4</ele>
        <time>2023-05-02T13:01:05Z</time>
      </trkpt>
      <trkpt lat="48.95763" lon="-0.48689">
        <ele>30.4</ele>
        <time>2023-05-02T13:01:06Z</time>
      </trkpt>
      <trkpt lat="48.95768" lon="-0.48681">
        <ele>30.2</ele>
        <time>2023-05-02T13:01:07Z</time>
      </trkpt>
      <trkpt lat="48.95773" lon="-0.48673">
        <ele>30.2</ele>
        <time>2023-05-02T13:01:08Z</time>
      </trkpt>
      <trkpt lat="48.95777" lon="-0.48664">
        <ele>30</ele>
        <time>2023-05-02T13:01:09Z</time>
      </trkpt>
      <trkpt lat="48.95782" lon="-0.48656">
        <ele>29.8</ele>
        <time>2023-05-02T13:01:10Z</time>
      </trkpt>
      <trkpt lat="48.95787" lon="-0.48648">
        <ele>29.8</ele>
        <time>2023-05-02T13:01:11Z</time>
      </trkpt>
      <trkpt lat="48.95792" lon="-0.48639">
        <ele>29.8</ele>
        <time>2023-05-02T13:01:12Z</time>
      </trkpt>
      <trkpt lat="48.95796" lon="-0.48631">
        <ele>29.8</ele>
        <time>2023-05-02T13:01:13Z</time>
      </trkpt>
      <trkpt lat="48.95801" lon="-0.48623">
        <ele>29.8</ele>
        <time>2023-05-02T13:01:14Z</time>
      </trkpt>
      <trkpt lat="48.95805" lon="-0.48614">
        <ele>29.8</ele>
        <time>2023-05-02T13:01:15Z</time>
      </trkpt>
      <trkpt lat="48.9581" lon="-0.48606">
        <ele>29.8</ele>
        <time>2023-05-02T13:01:16Z</time>
      </trkpt>
      <trkpt lat="48.95814" lon="-0.48598">
        <ele>30</ele>
        <time>2023-05-02T13:01:17Z</time>
      </trkpt>
      <trkpt lat="48.95817" lon="-0.48589">
        <ele>30.2</ele>
        <time>2023-05-02T13:01:18Z</time>
      </trkpt>
      <trkpt lat="48.9582" lon="-0.48582">
        <ele>30.2</ele>
        <time>2023-05-02T13:01:19Z</time>
      </trkpt>
      <trkpt lat="48.95824" lon="-0.48574">
        <ele>30.2</ele>
        <time>2023-05-02T13:01:20Z</time>
      </trkpt>
      <trkpt lat="48.95828" lon="-0.48566">
        <ele>30.2</ele>
        <time>2023-05-02T13:01:21Z</time>
      </trkpt>
      <trkpt lat="48.95831" lon="-0.48559">
        <ele>30.2</ele>
        <time>2023-05-02T13:01:22Z</time>
      </trkpt>
      <trkpt lat="48.95836" lon="-0.48552">
        <ele>30.2</ele>
        <time>2023-05-02T13:01:23Z</time>
      </trkpt>
      <trkpt lat="48.9584" lon="-0.48544">
        <ele>30.4</ele>
        <time>2023-05-02T13:01:24Z</time>
      </trkpt>
      <trkpt lat="48.95844" lon="-0.48537">
        <ele>30.4</ele>
        <time>2023-05-02T13:01:25Z</time>
      </trkpt>
      <trkpt lat="48.95849" lon="-0.4853">
        <ele>30.6</ele>
        <time>2023-05-02T13:01:26Z</time>
      </trkpt>
      <trkpt lat="48.95854" lon="-0.48523">
        <ele>30.6</ele>
        <time>2023-05-02T13:01:27Z</time>
      </trkpt>
      <trkpt lat="48.95858" lon="-0.48516">
        <ele>30.6</ele>
        <time>2023-05-02T13:01:28Z</time>
      </trkpt>
      <trkpt lat="48.95863" lon="-0.48509">
        <ele>30.6</ele>
        <time>2023-05-02T13:01:29Z</time>
      </trkpt>
      <trkpt lat="48.95868" lon="-0.48502">
        <ele>30.8</ele>
        <time>2023-05-02T13:01:30Z</time>
      </trkpt>
      <trkpt lat="48.95873" lon="-0.48495">
        <ele>30.8</ele>
        <time>2023-05-02T13:01:31Z</time>
      </trkpt>
      <trkpt lat="48.95878" lon="-0.48488">
        <ele>30.8</ele>
        <time>2023-05-02T13:01:32Z</time>
      </trkpt>
      <trkpt lat="48.95882" lon="-0.48481">
        <ele>30.8</ele>
        <time>2023-05-02T13:01:33Z</time>
      </trkpt>
      <trkpt lat="48.95887" lon="-0.48473">
        <ele>30.8</ele>
        <time>2023-05-02T13:01:34Z</time>
      </trkpt>
      <trkpt lat="48.95892" lon="-0.48466">
        <ele>30.8</ele>
        <time>2023-05-02T13:01:35Z</time>
      </trkpt>
      <trkpt lat="48.95896" lon="-0.48458">
        <ele>30.8</ele>
        <time>2023-05-02T13:01:36Z</time>
      </trkpt>
      <trkpt lat="48.959" lon="-0.48451">
        <ele>30.8</ele>
        <time>2023-05-02T13:01:37Z</time>
      </trkpt>
      <trkpt lat="48.95905" lon="-0.48443">
        <ele>31</ele>
        <time>2023-05-02T13:01:38Z</time>
      </trkpt>
      <trkpt lat="48.95909" lon="-0.48435">
        <ele>31</ele>
        <time>2023-05-02T13:01:39Z</time>
      </trkpt>
      <trkpt lat="48.95914" lon="-0.48428">
        <ele>31.2</ele>
        <time>2023-05-02T13:01:40Z</time>
      </trkpt>
      <trkpt lat="48.95918" lon="-0.4842">
        <ele>31.2</ele>
        <time>2023-05-02T13:01:41Z</time>
      </trkpt>
      <trkpt lat="48.95922" lon="-0.48413">
        <ele>31.2</ele>
        <time>2023-05-02T13:01:42Z</time>
      </trkpt>
      <trkpt lat="48.95927" lon="-0.48405">
        <ele>31.2</ele>
        <time>2023-05-02T13:01:43Z</time>
      </trkpt>
      <trkpt lat="48.95931" lon="-0.48398">
        <ele>31.2</ele>
        <time>2023-05-02T13:01:44Z</time>
      </trkpt>
      <trkpt lat="48.95935" lon="-0.4839">
        <ele>31.2</ele>
        <time>2023-05-02T13:01:45Z</time>
      </trkpt>
      <trkpt lat="48.9594" lon="-0.48383">
        <ele>31.2</ele>
        <time>2023-05-02T13:01:46Z</time>
      </trkpt>
      <trkpt lat="48.95944" lon="-0.48375">
        <ele>31.2</ele>
        <time>2023-05-02T13:01:47Z</time>
      </trkpt>
      <trkpt lat="48.95949" lon="-0.48368">
        <ele>31.2</ele>
        <time>2023-05-02T13:01:48Z</time>
      </trkpt>
      <trkpt lat="48.95953" lon="-0.4836">
        <ele>31.2</ele>
        <time>2023-05-02T13:01:49Z</time>
      </trkpt>
      <trkpt lat="48.95958" lon="-0.48353">
        <ele>31.4</ele>
        <time>2023-05-02T13:01:50Z</time>
      </trkpt>
      <trkpt lat="48.95962" lon="-0.48345">
        <ele>31.6</ele>
        <time>2023-05-02T13:01:51Z</time>
      </trkpt>
      <trkpt lat="48.95967" lon="-0.48338">
        <ele>31.8</ele>
        <time>2023-05-02T13:01:52Z</time>
      </trkpt>
      <trkpt lat="48.95971" lon="-0.4833">
        <ele>31.8</ele>
        <time>2023-05-02T13:01:53Z</time>
      </trkpt>
      <trkpt lat="48.95975" lon="-0.48323">
        <ele>32</ele>
        <time>2023-05-02T13:01:54Z</time>
      </trkpt>
      <trkpt lat="48.9598" lon="-0.48315">
        <ele>32</ele>
        <time>2023-05-02T13:01:55Z</time>
      </trkpt>
      <trkpt lat="48.95984" lon="-0.48307">
        <ele>32.2</ele>
        <time>2023-05-02T13:01:56Z</time>
      </trkpt>
      <trkpt lat="48.95989" lon="-0.483">
        <ele>32.4</ele>
        <time>2023-05-02T13:01:57Z</time>
      </trkpt>
      <trkpt lat="48.95993" lon="-0.48292">
        <ele>32.6</ele>
        <time>2023-05-02T13:01:58Z</time>
      </trkpt>
      <trkpt lat="48.95998" lon="-0.48285">
        <ele>32.8</ele>
        <time>2023-05-02T13:01:59Z</time>
      </trkpt>
      <trkpt lat="48.96002" lon="-0.48277">
        <ele>32.8</ele>
        <time>2023-05-02T13:02:00Z</time>
      </trkpt>
      <trkpt lat="48.96007" lon="-0.4827">
        <ele>32.8</ele>
        <time>2023-05-02T13:02:01Z</time>
      </trkpt>
      <trkpt lat="48.96011" lon="-0.48263">
        <ele>32.8</ele>
        <time>2023-05-02T13:02:02Z</time>
      </trkpt>
      <trkpt lat="48.96016" lon="-0.48256">
        <ele>33</ele>
        <time>2023-05-02T13:02:03Z</time>
      </trkpt>
      <trkpt lat="48.96021" lon="-0.48248">
        <ele>33</ele>
        <time>2023-05-02T13:02:04Z</time>
      </trkpt>
      <trkpt lat="48.96026" lon="-0.48241">
        <ele>32.8</ele>
        <time>2023-05-02T13:02:05Z</time>
      </trkpt>
      <trkpt lat="48.9603" lon="-0.48235">
        <ele>32.8</ele>
        <time>2023-05-02T13:02:06Z</time>
      </trkpt>
      <trkpt lat="48.96036" lon="-0.48228">
        <ele>32.6</ele>
        <time>2023-05-02T13:02:07Z</time>
      </trkpt>
      <trkpt lat="48.96041" lon="-0.48221">
        <ele>32.6</ele>
        <time>2023-05-02T13:02:08Z</time>
      </trkpt>
      <trkpt lat="48.96046" lon="-0.48214">
        <ele>32.6</ele>
        <time>2023-05-02T13:02:09Z</time>
      </trkpt>
      <trkpt lat="48.96051" lon="-0.48208">
        <ele>32.6</ele>
        <time>2023-05-02T13:02:10Z</time>
      </trkpt>
      <trkpt lat="48.96057" lon="-0.48201">
        <ele>32.6</ele>
        <time>2023-05-02T13:02:11Z</time>
      </trkpt>
      <trkpt lat="48.96062" lon="-0.48195">
        <ele>32.8</ele>
        <time>2023-05-02T13:02:12Z</time>
      </trkpt>
      <trkpt lat="48.96067" lon="-0.48189">
        <ele>32.8</ele>
        <time>2023-05-02T13:02:13Z</time>
      </trkpt>
      <trkpt lat="48.96073" lon="-0.48182">
        <ele>33</ele>
        <time>2023-05-02T13:02:14Z</time>
      </trkpt>
      <trkpt lat="48.96078" lon="-0.48176">
        <ele>33</ele>
        <time>2023-05-02T13:02:15Z</time>
      </trkpt>
      <trkpt lat="48.96084" lon="-0.48171">
        <ele>33.2</ele>
        <time>2023-05-02T13:02:16Z</time>
      </trkpt>
      <trkpt lat="48.96089" lon="-0.48165">
        <ele>33</ele>
        <time>2023-05-02T13:02:17Z</time>
      </trkpt>
      <trkpt lat="48.96095" lon="-0.48159">
        <ele>33</ele>
        <time>2023-05-02T13:02:18Z</time>
      </trkpt>
      <trkpt lat="48.96101" lon="-0.48154">
        <ele>32.8</ele>
        <time>2023-05-02T13:02:19Z</time>
      </trkpt>
      <trkpt lat="48.96106" lon="-0.48149">
        <ele>32.6</ele>
        <time>2023-05-02T13:02:20Z</time>
      </trkpt>
      <trkpt lat="48.96112" lon="-0.48144">
        <ele>32.4</ele>
        <time>2023-05-02T13:02:21Z</time>
      </trkpt>
      <trkpt lat="48.96118" lon="-0.48139">
        <ele>32.2</ele>
        <time>2023-05-02T13:02:22Z</time>
      </trkpt>
      <trkpt lat="48.96124" lon="-0.48135">
        <ele>32.2</ele>
        <time>2023-05-02T13:02:23Z</time>
      </trkpt>
      <trkpt lat="48.9613" lon="-0.4813">
        <ele>32.2</ele>
        <time>2023-05-02T13:02:24Z</time>
      </trkpt>
      <trkpt lat="48.96136" lon="-0.48126">
        <ele>32</ele>
        <time>2023-05-02T13:02:25Z</time>
      </trkpt>
      <trkpt lat="48.96142" lon="-0.48121">
        <ele>32</ele>
        <time>2023-05-02T13:02:26Z</time>
      </trkpt>
      <trkpt lat="48.96148" lon="-0.48117">
        <ele>32</ele>
        <time>2023-05-02T13:02:27Z</time>
      </trkpt>
      <trkpt lat="48.96154" lon="-0.48113">
        <ele>32</ele>
        <time>2023-05-02T13:02:28Z</time>
      </trkpt>
      <trkpt lat="48.96161" lon="-0.48109">
        <ele>32</ele>
        <time>2023-05-02T13:02:29Z</time>
      </trkpt>
      <trkpt lat="48.96167" lon="-0.48105">
        <ele>32</ele>
        <time>2023-05-02T13:02:30Z</time>
      </trkpt>
      <trkpt lat="48.96173" lon="-0.48102">
        <ele>31.8</ele>
        <time>2023-05-02T13:02:31Z</time>
      </trkpt>
      <trkpt lat="48.96179" lon="-0.48098">
        <ele>31.8</ele>
        <time>2023-05-02T13:02:32Z</time>
      </trkpt>
      <trkpt lat="48.96186" lon="-0.48095">
        <ele>31.8</ele>
        <time>2023-05-02T13:02:33Z</time>
      </trkpt>
      <trkpt lat="48.96192" lon="-0.48091">
        <ele>31.6</ele>
        <time>2023-05-02T13:02:34Z</time>
      </trkpt>
      <trkpt lat="48.96199" lon="-0.48088">
        <ele>31.6</ele>
        <time>2023-05-02T13:02:35Z</time>
      </trkpt>
      <trkpt lat="48.96205" lon="-0.48085">
        <ele>31.6</ele>
        <time>2023-05-02T13:02:36Z</time>
      </trkpt>
      <trkpt lat="48.96212" lon="-0.48082">
        <ele>31.6</ele>
        <time>2023-05-02T13:02:37Z</time>
      </trkpt>
      <trkpt lat="48.96218" lon="-0.4808">
        <ele>31.4</ele>
        <time>2023-05-02T13:02:38Z</time>
      </trkpt>
      <trkpt lat="48.96225" lon="-0.48077">
        <ele>31.4</ele>
        <time>2023-05-02T13:02:39Z</time>
      </trkpt>
      <trkpt lat="48.96232" lon="-0.48075">
        <ele>31.2</ele>
        <time>2023-05-02T13:02:40Z</time>
      </trkpt>
      <trkpt lat="48.96238" lon="-0.48073">
        <ele>31.2</ele>
        <time>2023-05-02T13:02:41Z</time>
      </trkpt>
      <trkpt lat="48.96245" lon="-0.4807">
        <ele>31.2</ele>
        <time>2023-05-02T13:02:42Z</time>
      </trkpt>
      <trkpt lat="48.96252" lon="-0.48069">
        <ele>31.2</ele>
        <time>2023-05-02T13:02:43Z</time>
      </trkpt>
      <trkpt lat="48.96259" lon="-0.48067">
        <ele>31.2</ele>
        <time>2023-05-02T13:02:44Z</time>
      </trkpt>
      <trkpt lat="48.96265" lon="-0.48066">
        <ele>31.2</ele>
        <time>2023-05-02T13:02:45Z</time>
      </trkpt>
      <trkpt lat="48.96272" lon="-0.48064">
        <ele>31.2</ele>
        <time>2023-05-02T13:02:46Z</time>
      </trkpt>
      <trkpt lat="48.96279" lon="-0.48063">
        <ele>31.2</ele>
        <time>2023-05-02T13:02:47Z</time>
      </trkpt>
      <trkpt lat="48.96286" lon="-0.48062">
        <ele>31.2</ele>
        <time>2023-05-02T13:02:48Z</time>
      </trkpt>
      <trkpt lat="48.96292" lon="-0.48061">
        <ele>31.2</ele>
        <time>2023-05-02T13:02:49Z</time>
      </trkpt>
      <trkpt lat="48.96299" lon="-0.48061">
        <ele>31.2</ele>
        <time>2023-05-02T13:02:50Z</time>
      </trkpt>
      <trkpt lat="48.96306" lon="-0.4806">
        <ele>31.4</ele>
        <time>2023-05-02T13:02:51Z</time>
      </trkpt>
      <trkpt lat="48.96312" lon="-0.4806">
        <ele>31.4</ele>
        <time>2023-05-02T13:02:52Z</time>
      </trkpt>
      <trkpt lat="48.96319" lon="-0.4806">
        <ele>31.6</ele>
        <time>2023-05-02T13:02:53Z</time>
      </trkpt>
      <trkpt lat="48.96325" lon="-0.4806">
        <ele>31.6</ele>
        <time>2023-05-02T13:02:54Z</time>
      </trkpt>
      <trkpt lat="48.96332" lon="-0.4806">
        <ele>31.6</ele>
        <time>2023-05-02T13:02:55Z</time>
      </trkpt>
      <trkpt lat="48.96338" lon="-0.4806">
        <ele>31.6</ele>
        <time>2023-05-02T13:02:56Z</time>
      </trkpt>
      <trkpt lat="48.96345" lon="-0.48061">
        <ele>31.6</ele>
        <time>2023-05-02T13:02:57Z</time>
      </trkpt>
      <trkpt lat="48.96351" lon="-0.48062">
        <ele>31.6</ele>
        <time>2023-05-02T13:02:58Z</time>
      </trkpt>
      <trkpt lat="48.96358" lon="-0.48063">
        <ele>31.8</ele>
        <time>2023-05-02T13:02:59Z</time>
      </trkpt>
      <trkpt lat="48.96364" lon="-0.48065">
        <ele>31.8</ele>
        <time>2023-05-02T13:03:00Z</time>
      </trkpt>
      <trkpt lat="48.96371" lon="-0.48065">
        <ele>31.8</ele>
        <time>2023-05-02T13:03:01Z</time>
      </trkpt>
      <trkpt lat="48.96377" lon="-0.48064">
        <ele>31.8</ele>
        <time>2023-05-02T13:03:02Z</time>
      </trkpt>
      <trkpt lat="48.96383" lon="-0.48061">
        <ele>31.6</ele>
        <time>2023-05-02T13:03:03Z</time>
      </trkpt>
      <trkpt lat="48.96388" lon="-0.48057">
        <ele>31.4</ele>
        <time>2023-05-02T13:03:04Z</time>
      </trkpt>
      <trkpt lat="48.96392" lon="-0.48053">
        <ele>31.2</ele>
        <time>2023-05-02T13:03:05Z</time>
      </trkpt>
      <trkpt lat="48.96397" lon="-0.4805">
        <ele>31.2</ele>
        <time>2023-05-02T13:03:06Z</time>
      </trkpt>
      <trkpt lat="48.96402" lon="-0.48048">
        <ele>31.2</ele>
        <time>2023-05-02T13:03:07Z</time>
      </trkpt>
      <trkpt lat="48.96408" lon="-0.48049">
        <ele>31.2</ele>
        <time>2023-05-02T13:03:08Z</time>
      </trkpt>
      <trkpt lat="48.96413" lon="-0.48051">
        <ele>31.2</ele>
        <time>2023-05-02T13:03:09Z</time>
      </trkpt>
      <trkpt lat="48.96419" lon="-0.48053">
        <ele>31.2</ele>
        <time>2023-05-02T13:03:10Z</time>
      </trkpt>
      <trkpt lat="48.96425" lon="-0.48055">
        <ele>31.2</ele>
        <time>2023-05-02T13:03:11Z</time>
      </trkpt>
      <trkpt lat="48.96432" lon="-0.48057">
        <ele>31.2</ele>
        <time>2023-05-02T13:03:12Z</time>
      </trkpt>
      <trkpt lat="48.96438" lon="-0.48059">
        <ele>31.2</ele>
        <time>2023-05-02T13:03:13Z</time>
      </trkpt>
      <trkpt lat="48.96444" lon="-0.4806">
        <ele>31.4</ele>
        <time>2023-05-02T13:03:14Z</time>
      </trkpt>
      <trkpt lat="48.96451" lon="-0.48062">
        <ele>31.4</ele>
        <time>2023-05-02T13:03:15Z</time>
      </trkpt>
      <trkpt lat="48.96457" lon="-0.48064">
        <ele>31.4</ele>
        <time>2023-05-02T13:03:16Z</time>
      </trkpt>
      <trkpt lat="48.96464" lon="-0.48066">
        <ele>31.6</ele>
        <time>2023-05-02T13:03:17Z</time>
      </trkpt>
      <trkpt lat="48.96471" lon="-0.48068">
        <ele>31.6</ele>
        <time>2023-05-02T13:03:18Z</time>
      </trkpt>
      <trkpt lat="48.96477" lon="-0.4807">
        <ele>31.6</ele>
        <time>2023-05-02T13:03:19Z</time>
      </trkpt>
      <trkpt lat="48.96484" lon="-0.48071">
        <ele>31.6</ele>
        <time>2023-05-02T13:03:20Z</time>
      </trkpt>
      <trkpt lat="48.9649" lon="-0.48073">
        <ele>31.6</ele>
        <time>2023-05-02T13:03:21Z</time>
      </trkpt>
      <trkpt lat="48.96496" lon="-0.48075">
        <ele>31.8</ele>
        <time>2023-05-02T13:03:22Z</time>
      </trkpt>
      <trkpt lat="48.96503" lon="-0.48077">
        <ele>31.8</ele>
        <time>2023-05-02T13:03:23Z</time>
      </trkpt>
      <trkpt lat="48.96509" lon="-0.48078">
        <ele>31.8</ele>
        <time>2023-05-02T13:03:24Z</time>
      </trkpt>
      <trkpt lat="48.96514" lon="-0.4808">
        <ele>31.8</ele>
        <time>2023-05-02T13:03:25Z</time>
      </trkpt>
      <trkpt lat="48.9652" lon="-0.48082">
        <ele>31.8</ele>
        <time>2023-05-02T13:03:26Z</time>
      </trkpt>
      <trkpt lat="48.96526" lon="-0.48084">
        <ele>31.8</ele>
        <time>2023-05-02T13:03:27Z</time>
      </trkpt>
      <trkpt lat="48.96533" lon="-0.48085">
        <ele>31.8</ele>
        <time>2023-05-02T13:03:28Z</time>
      </trkpt>
      <trkpt lat="48.9654" lon="-0.48087">
        <ele>31.6</ele>
        <time>2023-05-02T13:03:29Z</time>
      </trkpt>
      <trkpt lat="48.96548" lon="-0.48088">
        <ele>31.6</ele>
        <time>2023-05-02T13:03:30Z</time>
      </trkpt>
      <trkpt lat="48.96554" lon="-0.4809">
        <ele>31.6</ele>
        <time>2023-05-02T13:03:31Z</time>
      </trkpt>
      <trkpt lat="48.96561" lon="-0.48092">
        <ele>31.6</ele>
        <time>2023-05-02T13:03:32Z</time>
      </trkpt>
      <trkpt lat="48.96567" lon="-0.48094">
        <ele>31.6</ele>
        <time>2023-05-02T13:03:33Z</time>
      </trkpt>
      <trkpt lat="48.96574" lon="-0.48095">
        <ele>31.6</ele>
        <time>2023-05-02T13:03:34Z</time>
      </trkpt>
      <trkpt lat="48.9658" lon="-0.48097">
        <ele>31.6</ele>
        <time>2023-05-02T13:03:35Z</time>
      </trkpt>
      <trkpt lat="48.96587" lon="-0.48099">
        <ele>31.6</ele>
        <time>2023-05-02T13:03:36Z</time>
      </trkpt>
      <trkpt lat="48.96593" lon="-0.481">
        <ele>31.6</ele>
        <time>2023-05-02T13:03:37Z</time>
      </trkpt>
      <trkpt lat="48.966" lon="-0.48101">
        <ele>31.6</ele>
        <time>2023-05-02T13:03:38Z</time>
      </trkpt>
      <trkpt lat="48.96608" lon="-0.48103">
        <ele>31.6</ele>
        <time>2023-05-02T13:03:39Z</time>
      </trkpt>
      <trkpt lat="48.96615" lon="-0.48104">
        <ele>31.6</ele>
        <time>2023-05-02T13:03:40Z</time>
      </trkpt>
      <trkpt lat="48.96622" lon="-0.48106">
        <ele>31.6</ele>
        <time>2023-05-02T13:03:41Z</time>
      </trkpt>
      <trkpt lat="48.9663" lon="-0.48108">
        <ele>31.6</ele>
        <time>2023-05-02T13:03:42Z</time>
      </trkpt>
      <trkpt lat="48.96637" lon="-0.4811">
        <ele>31.6</ele>
        <time>2023-05-02T13:03:43Z</time>
      </trkpt>
      <trkpt lat="48.96644" lon="-0.48112">
        <ele>31.6</ele>
        <time>2023-05-02T13:03:44Z</time>
      </trkpt>
      <trkpt lat="48.96652" lon="-0.48114">
        <ele>31.6</ele>
        <time>2023-05-02T13:03:45Z</time>
      </trkpt>
      <trkpt lat="48.96659" lon="-0.48116">
        <ele>31.6</ele>
        <time>2023-05-02T13:03:46Z</time>
      </trkpt>
      <trkpt lat="48.96667" lon="-0.48118">
        <ele>31.8</ele>
        <time>2023-05-02T13:03:47Z</time>
      </trkpt>
      <trkpt lat="48.96674" lon="-0.4812">
        <ele>31.8</ele>
        <time>2023-05-02T13:03:48Z</time>
      </trkpt>
      <trkpt lat="48.96682" lon="-0.48122">
        <ele>31.8</ele>
        <time>2023-05-02T13:03:49Z</time>
      </trkpt>
      <trkpt lat="48.9669" lon="-0.48124">
        <ele>31.8</ele>
        <time>2023-05-02T13:03:50Z</time>
      </trkpt>
      <trkpt lat="48.96697" lon="-0.48126">
        <ele>31.8</ele>
        <time>2023-05-02T13:03:51Z</time>
      </trkpt>
      <trkpt lat="48.96704" lon="-0.48128">
        <ele>31.8</ele>
        <time>2023-05-02T13:03:52Z</time>
      </trkpt>
      <trkpt lat="48.96711" lon="-0.48129">
        <ele>31.8</ele>
        <time>2023-05-02T13:03:53Z</time>
      </trkpt>
      <trkpt lat="48.96718" lon="-0.4813">
        <ele>31.8</ele>
        <time>2023-05-02T13:03:54Z</time>
      </trkpt>
      <trkpt lat="48.96724" lon="-0.4813">
        <ele>31.8</ele>
        <time>2023-05-02T13:03:55Z</time>
      </trkpt>
      <trkpt lat="48.96731" lon="-0.4813">
        <ele>31.8</ele>
        <time>2023-05-02T13:03:56Z</time>
      </trkpt>
      <trkpt lat="48.96738" lon="-0.48128">
        <ele>31.8</ele>
        <time>2023-05-02T13:03:57Z</time>
      </trkpt>
      <trkpt lat="48.96744" lon="-0.48126">
        <ele>31.6</ele>
        <time>2023-05-02T13:03:58Z</time>
      </trkpt>
      <trkpt lat="48.96751" lon="-0.48126">
        <ele>31.6</ele>
        <time>2023-05-02T13:03:59Z</time>
      </trkpt>
      <trkpt lat="48.96757" lon="-0.48129">
        <ele>31.8</ele>
        <time>2023-05-02T13:04:00Z</time>
      </trkpt>
      <trkpt lat="48.96761" lon="-0.48133">
        <ele>31.8</ele>
        <time>2023-05-02T13:04:01Z</time>
      </trkpt>
      <trkpt lat="48.96765" lon="-0.48135">
        <ele>32</ele>
        <time>2023-05-02T13:04:02Z</time>
      </trkpt>
      <trkpt lat="48.96768" lon="-0.48136">
        <ele>32</ele>
        <time>2023-05-02T13:04:03Z</time>
      </trkpt>
      <trkpt lat="48.96771" lon="-0.48137">
        <ele>32</ele>
        <time>2023-05-02T13:04:04Z</time>
      </trkpt>
      <trkpt lat="48.96773" lon="-0.48137">
        <ele>32</ele>
        <time>2023-05-02T13:04:05Z</time>
      </trkpt>
      <trkpt lat="48.96775" lon="-0.48137">
        <ele>32</ele>
        <time>2023-05-02T13:04:06Z</time>
      </trkpt>
      <trkpt lat="48.96776" lon="-0.48137">
        <ele>32.2</ele>
        <time>2023-05-02T13:04:07Z</time>
      </trkpt>
      <trkpt lat="48.96776" lon="-0.48137">
        <ele>32.2</ele>
        <time>2023-05-02T13:04:08Z</time>
      </trkpt>
      <trkpt lat="48.96777" lon="-0.48137">
        <ele>32</ele>
        <time>2023-05-02T13:04:09Z</time>
      </trkpt>
      <trkpt lat="48.96777" lon="-0.48137">
        <ele>32.2</ele>
        <time>2023-05-02T13:04:10Z</time>
      </trkpt>
      <trkpt lat="48.96777" lon="-0.48137">
        <ele>32</ele>
        <time>2023-05-02T13:04:11Z</time>
      </trkpt>
      <trkpt lat="48.96777" lon="-0.48137">
        <ele>32</ele>
        <time>2023-05-02T13:04:12Z</time>
      </trkpt>
      <trkpt lat="48.96777" lon="-0.48137">
        <ele>32</ele>
        <time>2023-05-02T13:04:13Z</time>
      </trkpt>
      <trkpt lat="48.96777" lon="-0.48137">
        <ele>32</ele>
        <time>2023-05-02T13:04:14Z</time>
      </trkpt>
      <trkpt lat="48.96777" lon="-0.48137">
        <ele>32</ele>
        <time>2023-05-02T13:04:15Z</time>
      </trkpt>
      <trkpt lat="48.96777" lon="-0.48137">
        <ele>32</ele>
        <time>2023-05-02T13:04:16Z</time>
      </trkpt>
      <trkpt lat="48.96777" lon="-0.48137">
        <ele>32</ele>
        <time>2023-05-02T13:04:17Z</time>
      </trkpt>
      <trkpt lat="48.96777" lon="-0.48137">
        <ele>32</ele>
        <time>2023-05-02T13:04:18Z</time>
      </trkpt>
      <trkpt lat="48.96777" lon="-0.48137">
        <ele>32</ele>
        <time>2023-05-02T13:04:19Z</time>
      </trkpt>
      <trkpt lat="48.96777" lon="-0.48137">
        <ele>32</ele>
        <time>2023-05-02T13:04:20Z</time>
      </trkpt>
      <trkpt lat="48.96777" lon="-0.48137">
        <ele>32</ele>
        <time>2023-05-02T13:04:21Z</time>
      </trkpt>
      <trkpt lat="48.96777" lon="-0.48137">
        <ele>32</ele>
        <time>2023-05-02T13:04:22Z</time>
      </trkpt>
      <trkpt lat="48.96777" lon="-0.48137">
        <ele>32</ele>
        <time>2023-05-02T13:04:23Z</time>
      </trkpt>
      <trkpt lat="48.96777" lon="-0.48137">
        <ele>32</ele>
        <time>2023-05-02T13:04:24Z</time>
      </trkpt>
      <trkpt lat="48.96777" lon="-0.48137">
        <ele>32</ele>
        <time>2023-05-02T13:04:25Z</time>
      </trkpt>
      <trkpt lat="48.96777" lon="-0.48137">
        <ele>32</ele>
        <time>2023-05-02T13:04:26Z</time>
      </trkpt>
      <trkpt lat="48.96777" lon="-0.48137">
        <ele>32</ele>
        <time>2023-05-02T13:04:27Z</time>
      </trkpt>
      <trkpt lat="48.96777" lon="-0.48137">
        <ele>32</ele>
        <time>2023-05-02T13:04:28Z</time>
      </trkpt>
      <trkpt lat="48.96777" lon="-0.48137">
        <ele>32</ele>
        <time>2023-05-02T13:04:29Z</time>
      </trkpt>
      <trkpt lat="48.96777" lon="-0.48137">
        <ele>32</ele>
        <time>2023-05-02T13:04:30Z</time>
      </trkpt>
      <trkpt lat="48.96777" lon="-0.48137">
        <ele>32</ele>
        <time>2023-05-02T13:04:31Z</time>
      </trkpt>
      <trkpt lat="48.96777" lon="-0.48137">
        <ele>32</ele>
        <time>2023-05-02T13:04:32Z</time>
      </trkpt>
      <trkpt lat="48.96777" lon="-0.48137">
        <ele>32</ele>
        <time>2023-05-02T13:04:33Z</time>
      </trkpt>
      <trkpt lat="48.96777" lon="-0.48137">
        <ele>32</ele>
        <time>2023-05-02T13:04:34Z</time>
      </trkpt>
      <trkpt lat="48.96777" lon="-0.48137">
        <ele>32</ele>
        <time>2023-05-02T13:04:35Z</time>
      </trkpt>
      <trkpt lat="48.96777" lon="-0.48137">
        <ele>32</ele>
        <time>2023-05-02T13:04:36Z</time>
      </trkpt>
      <trkpt lat="48.96777" lon="-0.48137">
        <ele>32</ele>
        <time>2023-05-02T13:04:37Z</time>
      </trkpt>
      <trkpt lat="48.96777" lon="-0.48137">
        <ele>32</ele>
        <time>2023-05-02T13:04:38Z</time>
      </trkpt>
      <trkpt lat="48.96777" lon="-0.48137">
        <ele>32</ele>
        <time>2023-05-02T13:04:39Z</time>
      </trkpt>
      <trkpt lat="48.96777" lon="-0.48137">
        <ele>32</ele>
        <time>2023-05-02T13:04:40Z</time>
      </trkpt>
      <trkpt lat="48.96777" lon="-0.48137">
        <ele>32</ele>
        <time>2023-05-02T13:04:41Z</time>
      </trkpt>
      <trkpt lat="48.96777" lon="-0.48137">
        <ele>32</ele>
        <time>2023-05-02T13:04:42Z</time>
      </trkpt>
      <trkpt lat="48.96777" lon="-0.48137">
        <ele>32</ele>
        <time>2023-05-02T13:04:43Z</time>
      </trkpt>
      <trkpt lat="48.96777" lon="-0.48137">
        <ele>32</ele>
        <time>2023-05-02T13:04:44Z</time>
      </trkpt>
      <trkpt lat="48.96777" lon="-0.48137">
        <ele>32</ele>
        <time>2023-05-02T13:04:45Z</time>
      </trkpt>
      <trkpt lat="48.96777" lon="-0.48137">
        <ele>32</ele>
        <time>2023-05-02T13:04:46Z</time>
      </trkpt>
      <trkpt lat="48.96777" lon="-0.48137">
        <ele>32</ele>
        <time>2023-05-02T13:04:47Z</time>
      </trkpt>
      <trkpt lat="48.96777" lon="-0.48137">
        <ele>32</ele>
        <time>2023-05-02T13:04:48Z</time>
      </trkpt>
      <trkpt lat="48.96777" lon="-0.48137">
        <ele>32</ele>
        <time>2023-05-02T13:04:49Z</time>
      </trkpt>
      <trkpt lat="48.96777" lon="-0.48137">
        <ele>32</ele>
        <time>2023-05-02T13:04:50Z</time>
      </trkpt>
      <trkpt lat="48.96777" lon="-0.48137">
        <ele>32</ele>
        <time>2023-05-02T13:04:51Z</time>
      </trkpt>
      <trkpt lat="48.96777" lon="-0.48137">
        <ele>32</ele>
        <time>2023-05-02T13:04:52Z</time>
      </trkpt>
      <trkpt lat="48.96777" lon="-0.48137">
        <ele>32</ele>
        <time>2023-05-02T13:04:53Z</time>
      </trkpt>
      <trkpt lat="48.96777" lon="-0.48137">
        <ele>32</ele>
        <time>2023-05-02T13:04:54Z</time>
      </trkpt>
      <trkpt lat="48.96777" lon="-0.48137">
        <ele>32</ele>
        <time>2023-05-02T13:04:55Z</time>
      </trkpt>
      <trkpt lat="48.96777" lon="-0.48137">
        <ele>32</ele>
        <time>2023-05-02T13:04:56Z</time>
      </trkpt>
      <trkpt lat="48.96777" lon="-0.48137">
        <ele>32</ele>
        <time>2023-05-02T13:04:57Z</time>
      </trkpt>
      <trkpt lat="48.96777" lon="-0.48137">
        <ele>32</ele>
        <time>2023-05-02T13:04:58Z</time>
      </trkpt>
      <trkpt lat="48.96777" lon="-0.48137">
        <ele>32</ele>
        <time>2023-05-02T13:04:59Z</time>
      </trkpt>
      <trkpt lat="48.96777" lon="-0.48137">
        <ele>32</ele>
        <time>2023-05-02T13:05:00Z</time>
      </trkpt>
      <trkpt lat="48.96777" lon="-0.48137">
        <ele>32</ele>
        <time>2023-05-02T13:05:01Z</time>
      </trkpt>
      <trkpt lat="48.96777" lon="-0.48137">
        <ele>32</ele>
        <time>2023-05-02T13:05:02Z</time>
      </trkpt>
      <trkpt lat="48.96777" lon="-0.48137">
        <ele>32</ele>
        <time>2023-05-02T13:05:03Z</time>
      </trkpt>
      <trkpt lat="48.96777" lon="-0.48137">
        <ele>32</ele>
        <time>2023-05-02T13:05:04Z</time>
      </trkpt>
      <trkpt lat="48.96777" lon="-0.48137">
        <ele>32</ele>
        <time>2023-05-02T13:05:05Z</time>
      </trkpt>
      <trkpt lat="48.96777" lon="-0.48137">
        <ele>32</ele>
        <time>2023-05-02T13:05:06Z</time>
      </trkpt>
      <trkpt lat="48.96777" lon="-0.48137">
        <ele>32</ele>
        <time>2023-05-02T13:05:07Z</time>
      </trkpt>
      <trkpt lat="48.96777" lon="-0.48137">
        <ele>32</ele>
        <time>2023-05-02T13:05:08Z</time>
      </trkpt>
      <trkpt lat="48.96777" lon="-0.48137">
        <ele>32</ele>
        <time>2023-05-02T13:05:09Z</time>
      </trkpt>
      <trkpt lat="48.96777" lon="-0.48137">
        <ele>32</ele>
        <time>2023-05-02T13:05:10Z</time>
      </trkpt>
      <trkpt lat="48.96777" lon="-0.48137">
        <ele>32</ele>
        <time>2023-05-02T13:05:11Z</time>
      </trkpt>
      <trkpt lat="48.96777" lon="-0.48137">
        <ele>32</ele>
        <time>2023-05-02T13:05:12Z</time>
      </trkpt>
      <trkpt lat="48.96777" lon="-0.48137">
        <ele>32</ele>
        <time>2023-05-02T13:05:13Z</time>
      </trkpt>
      <trkpt lat="48.96777" lon="-0.48137">
        <ele>32</ele>
        <time>2023-05-02T13:05:14Z</time>
      </trkpt>
      <trkpt lat="48.96778" lon="-0.48137">
        <ele>32</ele>
        <time>2023-05-02T13:05:15Z</time>
      </trkpt>
      <trkpt lat="48.96778" lon="-0.48137">
        <ele>32</ele>
        <time>2023-05-02T13:05:16Z</time>
      </trkpt>
      <trkpt lat="48.96778" lon="-0.48137">
        <ele>32</ele>
        <time>2023-05-02T13:05:17Z</time>
      </trkpt>
      <trkpt lat="48.96778" lon="-0.48137">
        <ele>32</ele>
        <time>2023-05-02T13:05:18Z</time>
      </trkpt>
      <trkpt lat="48.96776" lon="-0.48138">
        <ele>32.2</ele>
        <time>2023-05-02T13:05:19Z</time>
      </trkpt>
      <trkpt lat="48.96775" lon="-0.48138">
        <ele>32.2</ele>
        <time>2023-05-02T13:05:20Z</time>
      </trkpt>
      <trkpt lat="48.96774" lon="-0.48138">
        <ele>32</ele>
        <time>2023-05-02T13:05:21Z</time>
      </trkpt>
      <trkpt lat="48.96773" lon="-0.48137">
        <ele>32</ele>
        <time>2023-05-02T13:05:22Z</time>
      </trkpt>
      <trkpt lat="48.96772" lon="-0.48137">
        <ele>32</ele>
        <time>2023-05-02T13:05:23Z</time>
      </trkpt>
      <trkpt lat="48.96771" lon="-0.48136">
        <ele>32</ele>
        <time>2023-05-02T13:05:24Z</time>
      </trkpt>
      <trkpt lat="48.96769" lon="-0.48137">
        <ele>32</ele>
        <time>2023-05-02T13:05:25Z</time>
      </trkpt>
      <trkpt lat="48.96767" lon="-0.48138">
        <ele>32</ele>
        <time>2023-05-02T13:05:26Z</time>
      </trkpt>
      <trkpt lat="48.96766" lon="-0.4814">
        <ele>32.2</ele>
        <time>2023-05-02T13:05:27Z</time>
      </trkpt>
      <trkpt lat="48.96765" lon="-0.48143">
        <ele>32.2</ele>
        <time>2023-05-02T13:05:28Z</time>
      </trkpt>
      <trkpt lat="48.96765" lon="-0.48145">
        <ele>32.4</ele>
        <time>2023-05-02T13:05:29Z</time>
      </trkpt>
      <trkpt lat="48.96766" lon="-0.48147">
        <ele>32.4</ele>
        <time>2023-05-02T13:05:30Z</time>
      </trkpt>
      <trkpt lat="48.96768" lon="-0.48148">
        <ele>32.6</ele>
        <time>2023-05-02T13:05:31Z</time>
      </trkpt>
      <trkpt lat="48.96771" lon="-0.48149">
        <ele>32.6</ele>
        <time>2023-05-02T13:05:32Z</time>
      </trkpt>
      <trkpt lat="48.96775" lon="-0.48149">
        <ele>32.6</ele>
        <time>2023-05-02T13:05:33Z</time>
      </trkpt>
      <trkpt lat="48.96779" lon="-0.4815">
        <ele>32.8</ele>
        <time>2023-05-02T13:05:34Z</time>
      </trkpt>
      <trkpt lat="48.96783" lon="-0.48151">
        <ele>32.8</ele>
        <time>2023-05-02T13:05:35Z</time>
      </trkpt>
      <trkpt lat="48.96789" lon="-0.48152">
        <ele>33</ele>
        <time>2023-05-02T13:05:36Z</time>
      </trkpt>
      <trkpt lat="48.96794" lon="-0.48154">
        <ele>33</ele>
        <time>2023-05-02T13:05:37Z</time>
      </trkpt>
      <trkpt lat="48.968" lon="-0.48155">
        <ele>33</ele>
        <time>2023-05-02T13:05:38Z</time>
      </trkpt>
      <trkpt lat="48.96807" lon="-0.48157">
        <ele>33.2</ele>
        <time>2023-05-02T13:05:39Z</time>
      </trkpt>
      <trkpt lat="48.96814" lon="-0.48159">
        <ele>33.4</ele>
        <time>2023-05-02T13:05:40Z</time>
      </trkpt>
      <trkpt lat="48.96822" lon="-0.4816">
        <ele>33.6</ele>
        <time>2023-05-02T13:05:41Z</time>
      </trkpt>
      <trkpt lat="48.96829" lon="-0.48162">
        <ele>33.8</ele>
        <time>2023-05-02T13:05:42Z</time>
      </trkpt>
      <trkpt lat="48.96837" lon="-0.48164">
        <ele>33.8</ele>
        <time>2023-05-02T13:05:43Z</time>
      </trkpt>
      <trkpt lat="48.96844" lon="-0.48166">
        <ele>33.8</ele>
        <time>2023-05-02T13:05:44Z</time>
      </trkpt>
      <trkpt lat="48.96852" lon="-0.48168">
        <ele>33.8</ele>
        <time>2023-05-02T13:05:45Z</time>
      </trkpt>
      <trkpt lat="48.9686" lon="-0.48169">
        <ele>33.8</ele>
        <time>2023-05-02T13:05:46Z</time>
      </trkpt>
      <trkpt lat="48.96867" lon="-0.48171">
        <ele>33.8</ele>
        <time>2023-05-02T13:05:47Z</time>
      </trkpt>
      <trkpt lat="48.96875" lon="-0.48173">
        <ele>33.8</ele>
        <time>2023-05-02T13:05:48Z</time>
      </trkpt>
      <trkpt lat="48.96883" lon="-0.48175">
        <ele>33.8</ele>
        <time>2023-05-02T13:05:49Z</time>
      </trkpt>
      <trkpt lat="48.9689" lon="-0.48176">
        <ele>33.8</ele>
        <time>2023-05-02T13:05:50Z</time>
      </trkpt>
      <trkpt lat="48.96898" lon="-0.48178">
        <ele>33.6</ele>
        <time>2023-05-02T13:05:51Z</time>
      </trkpt>
      <trkpt lat="48.96905" lon="-0.48179">
        <ele>33.6</ele>
        <time>2023-05-02T13:05:52Z</time>
      </trkpt>
      <trkpt lat="48.96912" lon="-0.48181">
        <ele>33.6</ele>
        <time>2023-05-02T13:05:53Z</time>
      </trkpt>
      <trkpt lat="48.96919" lon="-0.48183">
        <ele>33.6</ele>
        <time>2023-05-02T13:05:54Z</time>
      </trkpt>
      <trkpt lat="48.96926" lon="-0.48184">
        <ele>33.2</ele>
        <time>2023-05-02T13:05:55Z</time>
      </trkpt>
      <trkpt lat="48.96933" lon="-0.48186">
        <ele>33</ele>
        <time>2023-05-02T13:05:56Z</time>
      </trkpt>
      <trkpt lat="48.9694" lon="-0.48187">
        <ele>33</ele>
        <time>2023-05-02T13:05:57Z</time>
      </trkpt>
      <trkpt lat="48.96947" lon="-0.48189">
        <ele>32.8</ele>
        <time>2023-05-02T13:05:58Z</time>
      </trkpt>
      <trkpt lat="48.96954" lon="-0.48191">
        <ele>32.8</ele>
        <time>2023-05-02T13:05:59Z</time>
      </trkpt>
      <trkpt lat="48.9696" lon="-0.48193">
        <ele>32.6</ele>
        <time>2023-05-02T13:06:00Z</time>
      </trkpt>
      <trkpt lat="48.96967" lon="-0.48196">
        <ele>32.6</ele>
        <time>2023-05-02T13:06:01Z</time>
      </trkpt>
      <trkpt lat="48.96973" lon="-0.48201">
        <ele>32.6</ele>
        <time>2023-05-02T13:06:02Z</time>
      </trkpt>
      <trkpt lat="48.96979" lon="-0.48205">
        <ele>32.6</ele>
        <time>2023-05-02T13:06:03Z</time>
      </trkpt>
      <trkpt lat="48.96985" lon="-0.48208">
        <ele>32.4</ele>
        <time>2023-05-02T13:06:04Z</time>
      </trkpt>
      <trkpt lat="48.96992" lon="-0.48209">
        <ele>32.2</ele>
        <time>2023-05-02T13:06:05Z</time>
      </trkpt>
      <trkpt lat="48.96999" lon="-0.48211">
        <ele>32.2</ele>
        <time>2023-05-02T13:06:06Z</time>
      </trkpt>
      <trkpt lat="48.97006" lon="-0.48212">
        <ele>32</ele>
        <time>2023-05-02T13:06:07Z</time>
      </trkpt>
      <trkpt lat="48.97013" lon="-0.48214">
        <ele>32</ele>
        <time>2023-05-02T13:06:08Z</time>
      </trkpt>
      <trkpt lat="48.9702" lon="-0.48216">
        <ele>32</ele>
        <time>2023-05-02T13:06:09Z</time>
      </trkpt>
      <trkpt lat="48.97026" lon="-0.48218">
        <ele>31.8</ele>
        <time>2023-05-02T13:06:10Z</time>
      </trkpt>
      <trkpt lat="48.97033" lon="-0.48219">
        <ele>31.8</ele>
        <time>2023-05-02T13:06:11Z</time>
      </trkpt>
      <trkpt lat="48.9704" lon="-0.48221">
        <ele>31.8</ele>
        <time>2023-05-02T13:06:12Z</time>
      </trkpt>
      <trkpt lat="48.97047" lon="-0.48222">
        <ele>31.8</ele>
        <time>2023-05-02T13:06:13Z</time>
      </trkpt>
      <trkpt lat="48.97054" lon="-0.48224">
        <ele>31.6</ele>
        <time>2023-05-02T13:06:14Z</time>
      </trkpt>
      <trkpt lat="48.97061" lon="-0.48225">
        <ele>31.6</ele>
        <time>2023-05-02T13:06:15Z</time>
      </trkpt>
      <trkpt lat="48.97069" lon="-0.48227">
        <ele>31.6</ele>
        <time>2023-05-02T13:06:16Z</time>
      </trkpt>
      <trkpt lat="48.97075" lon="-0.48228">
        <ele>31.4</ele>
        <time>2023-05-02T13:06:17Z</time>
      </trkpt>
      <trkpt lat="48.97082" lon="-0.4823">
        <ele>31.2</ele>
        <time>2023-05-02T13:06:18Z</time>
      </trkpt>
      <trkpt lat="48.97089" lon="-0.48232">
        <ele>31.2</ele>
        <time>2023-05-02T13:06:19Z</time>
      </trkpt>
      <trkpt lat="48.97096" lon="-0.48234">
        <ele>31</ele>
        <time>2023-05-02T13:06:20Z</time>
      </trkpt>
      <trkpt lat="48.97103" lon="-0.48236">
        <ele>30.8</ele>
        <time>2023-05-02T13:06:21Z</time>
      </trkpt>
      <trkpt lat="48.9711" lon="-0.48238">
        <ele>30.6</ele>
        <time>2023-05-02T13:06:22Z</time>
      </trkpt>
      <trkpt lat="48.97117" lon="-0.4824">
        <ele>30.4</ele>
        <time>2023-05-02T13:06:23Z</time>
      </trkpt>
      <trkpt lat="48.97124" lon="-0.48242">
        <ele>30.2</ele>
        <time>2023-05-02T13:06:24Z</time>
      </trkpt>
      <trkpt lat="48.97132" lon="-0.48244">
        <ele>30</ele>
        <time>2023-05-02T13:06:25Z</time>
      </trkpt>
      <trkpt lat="48.97139" lon="-0.48246">
        <ele>29.8</ele>
        <time>2023-05-02T13:06:26Z</time>
      </trkpt>
      <trkpt lat="48.97147" lon="-0.48248">
        <ele>29.6</ele>
        <time>2023-05-02T13:06:27Z</time>
      </trkpt>
      <trkpt lat="48.97155" lon="-0.4825">
        <ele>29.4</ele>
        <time>2023-05-02T13:06:28Z</time>
      </trkpt>
      <trkpt lat="48.97162" lon="-0.48252">
        <ele>29.2</ele>
        <time>2023-05-02T13:06:29Z</time>
      </trkpt>
      <trkpt lat="48.9717" lon="-0.48254">
        <ele>29.2</ele>
        <time>2023-05-02T13:06:30Z</time>
      </trkpt>
      <trkpt lat="48.97178" lon="-0.48256">
        <ele>29.2</ele>
        <time>2023-05-02T13:06:31Z</time>
      </trkpt>
      <trkpt lat="48.97185" lon="-0.48257">
        <ele>29.2</ele>
        <time>2023-05-02T13:06:32Z</time>
      </trkpt>
      <trkpt lat="48.97193" lon="-0.48259">
        <ele>29.2</ele>
        <time>2023-05-02T13:06:33Z</time>
      </trkpt>
      <trkpt lat="48.972" lon="-0.4826">
        <ele>29.2</ele>
        <time>2023-05-02T13:06:34Z</time>
      </trkpt>
      <trkpt lat="48.97208" lon="-0.48262">
        <ele>29.2</ele>
        <time>2023-05-02T13:06:35Z</time>
      </trkpt>
      <trkpt lat="48.97215" lon="-0.48264">
        <ele>29.2</ele>
        <time>2023-05-02T13:06:36Z</time>
      </trkpt>
      <trkpt lat="48.97223" lon="-0.48266">
        <ele>29.2</ele>
        <time>2023-05-02T13:06:37Z</time>
      </trkpt>
      <trkpt lat="48.9723" lon="-0.48268">
        <ele>29.2</ele>
        <time>2023-05-02T13:06:38Z</time>
      </trkpt>
      <trkpt lat="48.97237" lon="-0.48269">
        <ele>29.2</ele>
        <time>2023-05-02T13:06:39Z</time>
      </trkpt>
      <trkpt lat="48.97244" lon="-0.48271">
        <ele>29</ele>
        <time>2023-05-02T13:06:40Z</time>
      </trkpt>
      <trkpt lat="48.97252" lon="-0.48271">
        <ele>29</ele>
        <time>2023-05-02T13:06:41Z</time>
      </trkpt>
      <trkpt lat="48.9726" lon="-0.48271">
        <ele>28.8</ele>
        <time>2023-05-02T13:06:42Z</time>
      </trkpt>
      <trkpt lat="48.97268" lon="-0.48271">
        <ele>28.8</ele>
        <time>2023-05-02T13:06:43Z</time>
      </trkpt>
      <trkpt lat="48.97275" lon="-0.48271">
        <ele>28.6</ele>
        <time>2023-05-02T13:06:44Z</time>
      </trkpt>
      <trkpt lat="48.97283" lon="-0.48271">
        <ele>28.6</ele>
        <time>2023-05-02T13:06:45Z</time>
      </trkpt>
      <trkpt lat="48.97291" lon="-0.4827">
        <ele>28.4</ele>
        <time>2023-05-02T13:06:46Z</time>
      </trkpt>
      <trkpt lat="48.97298" lon="-0.4827">
        <ele>28.2</ele>
        <time>2023-05-02T13:06:47Z</time>
      </trkpt>
      <trkpt lat="48.97306" lon="-0.48269">
        <ele>28.2</ele>
        <time>2023-05-02T13:06:48Z</time>
      </trkpt>
      <trkpt lat="48.97313" lon="-0.48267">
        <ele>28.2</ele>
        <time>2023-05-02T13:06:49Z</time>
      </trkpt>
      <trkpt lat="48.97321" lon="-0.48266">
        <ele>28</ele>
        <time>2023-05-02T13:06:50Z</time>
      </trkpt>
      <trkpt lat="48.97328" lon="-0.48264">
        <ele>27.8</ele>
        <time>2023-05-02T13:06:51Z</time>
      </trkpt>
      <trkpt lat="48.97336" lon="-0.48262">
        <ele>27.8</ele>
        <time>2023-05-02T13:06:52Z</time>
      </trkpt>
      <trkpt lat="48.97343" lon="-0.48259">
        <ele>27.8</ele>
        <time>2023-05-02T13:06:53Z</time>
      </trkpt>
      <trkpt lat="48.97351" lon="-0.48256">
        <ele>27.6</ele>
        <time>2023-05-02T13:06:54Z</time>
      </trkpt>
      <trkpt lat="48.97358" lon="-0.48253">
        <ele>27.4</ele>
        <time>2023-05-02T13:06:55Z</time>
      </trkpt>
      <trkpt lat="48.97366" lon="-0.48249">
        <ele>27.2</ele>
        <time>2023-05-02T13:06:56Z</time>
      </trkpt>
      <trkpt lat="48.97373" lon="-0.48246">
        <ele>26.8</ele>
        <time>2023-05-02T13:06:57Z</time>
      </trkpt>
      <trkpt lat="48.9738" lon="-0.48242">
        <ele>26.8</ele>
        <time>2023-05-02T13:06:58Z</time>
      </trkpt>
      <trkpt lat="48.97387" lon="-0.48238">
        <ele>26.4</ele>
        <time>2023-05-02T13:06:59Z</time>
      </trkpt>
      <trkpt lat="48.97395" lon="-0.48233">
        <ele>26.2</ele>
        <time>2023-05-02T13:07:00Z</time>
      </trkpt>
      <trkpt lat="48.97402" lon="-0.48229">
        <ele>26</ele>
        <time>2023-05-02T13:07:01Z</time>
      </trkpt>
      <trkpt lat="48.97408" lon="-0.48224">
        <ele>25.8</ele>
        <time>2023-05-02T13:07:02Z</time>
      </trkpt>
      <trkpt lat="48.97415" lon="-0.4822">
        <ele>25.8</ele>
        <time>2023-05-02T13:07:03Z</time>
      </trkpt>
      <trkpt lat="48.97422" lon="-0.48215">
        <ele>25.6</ele>
        <time>2023-05-02T13:07:04Z</time>
      </trkpt>
      <trkpt lat="48.97428" lon="-0.48211">
        <ele>25.6</ele>
        <time>2023-05-02T13:07:05Z</time>
      </trkpt>
      <trkpt lat="48.97434" lon="-0.48206">
        <ele>25.6</ele>
        <time>2023-05-02T13:07:06Z</time>
      </trkpt>
      <trkpt lat="48.97441" lon="-0.48202">
        <ele>25.6</ele>
        <time>2023-05-02T13:07:07Z</time>
      </trkpt>
      <trkpt lat="48.97447" lon="-0.48197">
        <ele>25.6</ele>
        <time>2023-05-02T13:07:08Z</time>
      </trkpt>
      <trkpt lat="48.97452" lon="-0.48193">
        <ele>25.6</ele>
        <time>2023-05-02T13:07:09Z</time>
      </trkpt>
      <trkpt lat="48.97458" lon="-0.48189">
        <ele>25.6</ele>
        <time>2023-05-02T13:07:10Z</time>
      </trkpt>
      <trkpt lat="48.97464" lon="-0.48185">
        <ele>25.8</ele>
        <time>2023-05-02T13:07:11Z</time>
      </trkpt>
      <trkpt lat="48.97469" lon="-0.48182">
        <ele>25.8</ele>
        <time>2023-05-02T13:07:12Z</time>
      </trkpt>
      <trkpt lat="48.97475" lon="-0.48178">
        <ele>25.8</ele>
        <time>2023-05-02T13:07:13Z</time>
      </trkpt>
      <trkpt lat="48.97481" lon="-0.48173">
        <ele>25.8</ele>
        <time>2023-05-02T13:07:14Z</time>
      </trkpt>
      <trkpt lat="48.97487" lon="-0.48169">
        <ele>25.8</ele>
        <time>2023-05-02T13:07:15Z</time>
      </trkpt>
      <trkpt lat="48.97493" lon="-0.48164">
        <ele>25.8</ele>
        <time>2023-05-02T13:07:16Z</time>
      </trkpt>
      <trkpt lat="48.97499" lon="-0.48159">
        <ele>26</ele>
        <time>2023-05-02T13:07:17Z</time>
      </trkpt>
      <trkpt lat="48.97505" lon="-0.48154">
        <ele>26</ele>
        <time>2023-05-02T13:07:18Z</time>
      </trkpt>
      <trkpt lat="48.97511" lon="-0.48149">
        <ele>25.8</ele>
        <time>2023-05-02T13:07:19Z</time>
      </trkpt>
      <trkpt lat="48.97517" lon="-0.48144">
        <ele>26</ele>
        <time>2023-05-02T13:07:20Z</time>
      </trkpt>
      <trkpt lat="48.97523" lon="-0.48139">
        <ele>26</ele>
        <time>2023-05-02T13:07:21Z</time>
      </trkpt>
      <trkpt lat="48.97528" lon="-0.48134">
        <ele>26.2</ele>
        <time>2023-05-02T13:07:22Z</time>
      </trkpt>
      <trkpt lat="48.97534" lon="-0.48129">
        <ele>26.2</ele>
        <time>2023-05-02T13:07:23Z</time>
      </trkpt>
      <trkpt lat="48.97539" lon="-0.48124">
        <ele>26.2</ele>
        <time>2023-05-02T13:07:24Z</time>
      </trkpt>
      <trkpt lat="48.97546" lon="-0.4812">
        <ele>26.4</ele>
        <time>2023-05-02T13:07:25Z</time>
      </trkpt>
      <trkpt lat="48.97552" lon="-0.48116">
        <ele>26.6</ele>
        <time>2023-05-02T13:07:26Z</time>
      </trkpt>
      <trkpt lat="48.97558" lon="-0.48113">
        <ele>26.8</ele>
        <time>2023-05-02T13:07:27Z</time>
      </trkpt>
      <trkpt lat="48.97564" lon="-0.4811">
        <ele>26.8</ele>
        <time>2023-05-02T13:07:28Z</time>
      </trkpt>
      <trkpt lat="48.97571" lon="-0.48106">
        <ele>27</ele>
        <time>2023-05-02T13:07:29Z</time>
      </trkpt>
      <trkpt lat="48.97577" lon="-0.48103">
        <ele>27.2</ele>
        <time>2023-05-02T13:07:30Z</time>
      </trkpt>
      <trkpt lat="48.97584" lon="-0.481">
        <ele>27.4</ele>
        <time>2023-05-02T13:07:31Z</time>
      </trkpt>
      <trkpt lat="48.97592" lon="-0.48097">
        <ele>27.4</ele>
        <time>2023-05-02T13:07:32Z</time>
      </trkpt>
      <trkpt lat="48.97599" lon="-0.48094">
        <ele>27.6</ele>
        <time>2023-05-02T13:07:33Z</time>
      </trkpt>
      <trkpt lat="48.97607" lon="-0.48091">
        <ele>27.6</ele>
        <time>2023-05-02T13:07:34Z</time>
      </trkpt>
      <trkpt lat="48.97614" lon="-0.48089">
        <ele>27.6</ele>
        <time>2023-05-02T13:07:35Z</time>
      </trkpt>
      <trkpt lat="48.97622" lon="-0.48087">
        <ele>27.4</ele>
        <time>2023-05-02T13:07:36Z</time>
      </trkpt>
      <trkpt lat="48.97629" lon="-0.48085">
        <ele>27.4</ele>
        <time>2023-05-02T13:07:37Z</time>
      </trkpt>
      <trkpt lat="48.97637" lon="-0.48084">
        <ele>27.2</ele>
        <time>2023-05-02T13:07:38Z</time>
      </trkpt>
      <trkpt lat="48.97645" lon="-0.48082">
        <ele>27.2</ele>
        <time>2023-05-02T13:07:39Z</time>
      </trkpt>
      <trkpt lat="48.97652" lon="-0.48081">
        <ele>27.2</ele>
        <time>2023-05-02T13:07:40Z</time>
      </trkpt>
      <trkpt lat="48.9766" lon="-0.4808">
        <ele>27.2</ele>
        <time>2023-05-02T13:07:41Z</time>
      </trkpt>
      <trkpt lat="48.97668" lon="-0.4808">
        <ele>27.2</ele>
        <time>2023-05-02T13:07:42Z</time>
      </trkpt>
      <trkpt lat="48.97676" lon="-0.48079">
        <ele>27.4</ele>
        <time>2023-05-02T13:07:43Z</time>
      </trkpt>
      <trkpt lat="48.97684" lon="-0.4808">
        <ele>27.8</ele>
        <time>2023-05-02T13:07:44Z</time>
      </trkpt>
      <trkpt lat="48.97692" lon="-0.4808">
        <ele>27.8</ele>
        <time>2023-05-02T13:07:45Z</time>
      </trkpt>
      <trkpt lat="48.977" lon="-0.48081">
        <ele>28.2</ele>
        <time>2023-05-02T13:07:46Z</time>
      </trkpt>
      <trkpt lat="48.97707" lon="-0.48083">
        <ele>28.6</ele>
        <time>2023-05-02T13:07:47Z</time>
      </trkpt>
      <trkpt lat="48.97715" lon="-0.48084">
        <ele>28.8</ele>
        <time>2023-05-02T13:07:48Z</time>
      </trkpt>
      <trkpt lat="48.97722" lon="-0.48086">
        <ele>28.8</ele>
        <time>2023-05-02T13:07:49Z</time>
      </trkpt>
      <trkpt lat="48.9773" lon="-0.48088">
        <ele>29.2</ele>
        <time>2023-05-02T13:07:50Z</time>
      </trkpt>
      <trkpt lat="48.97738" lon="-0.4809">
        <ele>29.2</ele>
        <time>2023-05-02T13:07:51Z</time>
      </trkpt>
      <trkpt lat="48.97745" lon="-0.48091">
        <ele>29.6</ele>
        <time>2023-05-02T13:07:52Z</time>
      </trkpt>
      <trkpt lat="48.97753" lon="-0.48093">
        <ele>29.6</ele>
        <time>2023-05-02T13:07:53Z</time>
      </trkpt>
      <trkpt lat="48.97761" lon="-0.48095">
        <ele>29.6</ele>
        <time>2023-05-02T13:07:54Z</time>
      </trkpt>
      <trkpt lat="48.97769" lon="-0.48097">
        <ele>29.4</ele>
        <time>2023-05-02T13:07:55Z</time>
      </trkpt>
      <trkpt lat="48.97777" lon="-0.48099">
        <ele>29.2</ele>
        <time>2023-05-02T13:07:56Z</time>
      </trkpt>
      <trkpt lat="48.97785" lon="-0.48101">
        <ele>29.2</ele>
        <time>2023-05-02T13:07:57Z</time>
      </trkpt>
      <trkpt lat="48.97793" lon="-0.48102">
        <ele>29.2</ele>
        <time>2023-05-02T13:07:58Z</time>
      </trkpt>
      <trkpt lat="48.97801" lon="-0.48104">
        <ele>29.2</ele>
        <time>2023-05-02T13:07:59Z</time>
      </trkpt>
      <trkpt lat="48.97809" lon="-0.48106">
        <ele>29.2</ele>
        <time>2023-05-02T13:08:00Z</time>
      </trkpt>
      <trkpt lat="48.97816" lon="-0.48107">
        <ele>29.2</ele>
        <time>2023-05-02T13:08:01Z</time>
      </trkpt>
      <trkpt lat="48.97824" lon="-0.48109">
        <ele>29.2</ele>
        <time>2023-05-02T13:08:02Z</time>
      </trkpt>
      <trkpt lat="48.97832" lon="-0.4811">
        <ele>29</ele>
        <time>2023-05-02T13:08:03Z</time>
      </trkpt>
      <trkpt lat="48.9784" lon="-0.48112">
        <ele>29.2</ele>
        <time>2023-05-02T13:08:04Z</time>
      </trkpt>
      <trkpt lat="48.97848" lon="-0.48113">
        <ele>29.2</ele>
        <time>2023-05-02T13:08:05Z</time>
      </trkpt>
      <trkpt lat="48.97856" lon="-0.48115">
        <ele>29.2</ele>
        <time>2023-05-02T13:08:06Z</time>
      </trkpt>
      <trkpt lat="48.97863" lon="-0.48117">
        <ele>29.2</ele>
        <time>2023-05-02T13:08:07Z</time>
      </trkpt>
      <trkpt lat="48.97871" lon="-0.48119">
        <ele>29.4</ele>
        <time>2023-05-02T13:08:08Z</time>
      </trkpt>
      <trkpt lat="48.97879" lon="-0.48121">
        <ele>29.4</ele>
        <time>2023-05-02T13:08:09Z</time>
      </trkpt>
      <trkpt lat="48.97887" lon="-0.48123">
        <ele>29.6</ele>
        <time>2023-05-02T13:08:10Z</time>
      </trkpt>
      <trkpt lat="48.97894" lon="-0.48124">
        <ele>29.6</ele>
        <time>2023-05-02T13:08:11Z</time>
      </trkpt>
      <trkpt lat="48.97902" lon="-0.48126">
        <ele>29.8</ele>
        <time>2023-05-02T13:08:12Z</time>
      </trkpt>
      <trkpt lat="48.9791" lon="-0.48128">
        <ele>29.8</ele>
        <time>2023-05-02T13:08:13Z</time>
      </trkpt>
      <trkpt lat="48.97918" lon="-0.4813">
        <ele>29.8</ele>
        <time>2023-05-02T13:08:14Z</time>
      </trkpt>
      <trkpt lat="48.97926" lon="-0.48132">
        <ele>29.8</ele>
        <time>2023-05-02T13:08:15Z</time>
      </trkpt>
      <trkpt lat="48.97934" lon="-0.48133">
        <ele>29.8</ele>
        <time>2023-05-02T13:08:16Z</time>
      </trkpt>
      <trkpt lat="48.97942" lon="-0.48135">
        <ele>29.8</ele>
        <time>2023-05-02T13:08:17Z</time>
      </trkpt>
      <trkpt lat="48.9795" lon="-0.48137">
        <ele>29.8</ele>
        <time>2023-05-02T13:08:18Z</time>
      </trkpt>
      <trkpt lat="48.97958" lon="-0.48139">
        <ele>29.8</ele>
        <time>2023-05-02T13:08:19Z</time>
      </trkpt>
      <trkpt lat="48.97966" lon="-0.48141">
        <ele>29.6</ele>
        <time>2023-05-02T13:08:20Z</time>
      </trkpt>
      <trkpt lat="48.97973" lon="-0.48143">
        <ele>29.6</ele>
        <time>2023-05-02T13:08:21Z</time>
      </trkpt>
      <trkpt lat="48.97981" lon="-0.48145">
        <ele>29.6</ele>
        <time>2023-05-02T13:08:22Z</time>
      </trkpt>
      <trkpt lat="48.97988" lon="-0.48147">
        <ele>29.6</ele>
        <time>2023-05-02T13:08:23Z</time>
      </trkpt>
      <trkpt lat="48.97995" lon="-0.48149">
        <ele>29.4</ele>
        <time>2023-05-02T13:08:24Z</time>
      </trkpt>
      <trkpt lat="48.98003" lon="-0.48151">
        <ele>29.4</ele>
        <time>2023-05-02T13:08:25Z</time>
      </trkpt>
      <trkpt lat="48.98011" lon="-0.48153">
        <ele>29.2</ele>
        <time>2023-05-02T13:08:26Z</time>
      </trkpt>
      <trkpt lat="48.98019" lon="-0.48155">
        <ele>29.2</ele>
        <time>2023-05-02T13:08:27Z</time>
      </trkpt>
      <trkpt lat="48.98027" lon="-0.48156">
        <ele>29.2</ele>
        <time>2023-05-02T13:08:28Z</time>
      </trkpt>
      <trkpt lat="48.98034" lon="-0.48158">
        <ele>29.2</ele>
        <time>2023-05-02T13:08:29Z</time>
      </trkpt>
      <trkpt lat="48.98042" lon="-0.4816">
        <ele>29.2</ele>
        <time>2023-05-02T13:08:30Z</time>
      </trkpt>
      <trkpt lat="48.98049" lon="-0.48162">
        <ele>29.2</ele>
        <time>2023-05-02T13:08:31Z</time>
      </trkpt>
      <trkpt lat="48.98056" lon="-0.48163">
        <ele>29.2</ele>
        <time>2023-05-02T13:08:32Z</time>
      </trkpt>
      <trkpt lat="48.98064" lon="-0.48165">
        <ele>29</ele>
        <time>2023-05-02T13:08:33Z</time>
      </trkpt>
      <trkpt lat="48.98071" lon="-0.48167">
        <ele>29</ele>
        <time>2023-05-02T13:08:34Z</time>
      </trkpt>
      <trkpt lat="48.98079" lon="-0.48168">
        <ele>28.8</ele>
        <time>2023-05-02T13:08:35Z</time>
      </trkpt>
      <trkpt lat="48.98087" lon="-0.4817">
        <ele>28.8</ele>
        <time>2023-05-02T13:08:36Z</time>
      </trkpt>
      <trkpt lat="48.98095" lon="-0.48172">
        <ele>28.8</ele>
        <time>2023-05-02T13:08:37Z</time>
      </trkpt>
      <trkpt lat="48.98102" lon="-0.48174">
        <ele>28.8</ele>
        <time>2023-05-02T13:08:38Z</time>
      </trkpt>
      <trkpt lat="48.9811" lon="-0.48176">
        <ele>29</ele>
        <time>2023-05-02T13:08:39Z</time>
      </trkpt>
      <trkpt lat="48.98118" lon="-0.48177">
        <ele>29.2</ele>
        <time>2023-05-02T13:08:40Z</time>
      </trkpt>
      <trkpt lat="48.98125" lon="-0.48179">
        <ele>29.2</ele>
        <time>2023-05-02T13:08:41Z</time>
      </trkpt>
      <trkpt lat="48.98133" lon="-0.48181">
        <ele>29.2</ele>
        <time>2023-05-02T13:08:42Z</time>
      </trkpt>
      <trkpt lat="48.9814" lon="-0.48182">
        <ele>29.2</ele>
        <time>2023-05-02T13:08:43Z</time>
      </trkpt>
      <trkpt lat="48.98148" lon="-0.48184">
        <ele>29.4</ele>
        <time>2023-05-02T13:08:44Z</time>
      </trkpt>
      <trkpt lat="48.98155" lon="-0.48185">
        <ele>29.6</ele>
        <time>2023-05-02T13:08:45Z</time>
      </trkpt>
      <trkpt lat="48.98163" lon="-0.48187">
        <ele>29.8</ele>
        <time>2023-05-02T13:08:46Z</time>
      </trkpt>
      <trkpt lat="48.9817" lon="-0.48188">
        <ele>29.8</ele>
        <time>2023-05-02T13:08:47Z</time>
      </trkpt>
      <trkpt lat="48.98178" lon="-0.4819">
        <ele>29.6</ele>
        <time>2023-05-02T13:08:48Z</time>
      </trkpt>
      <trkpt lat="48.98186" lon="-0.48191">
        <ele>29.6</ele>
        <time>2023-05-02T13:08:49Z</time>
      </trkpt>
      <trkpt lat="48.98194" lon="-0.48193">
        <ele>29.6</ele>
        <time>2023-05-02T13:08:50Z</time>
      </trkpt>
      <trkpt lat="48.98201" lon="-0.48194">
        <ele>29.4</ele>
        <time>2023-05-02T13:08:51Z</time>
      </trkpt>
      <trkpt lat="48.98209" lon="-0.48195">
        <ele>29.2</ele>
        <time>2023-05-02T13:08:52Z</time>
      </trkpt>
      <trkpt lat="48.98217" lon="-0.48197">
        <ele>29.2</ele>
        <time>2023-05-02T13:08:53Z</time>
      </trkpt>
      <trkpt lat="48.98225" lon="-0.48199">
        <ele>29.2</ele>
        <time>2023-05-02T13:08:54Z</time>
      </trkpt>
      <trkpt lat="48.98233" lon="-0.48201">
        <ele>29.2</ele>
        <time>2023-05-02T13:08:55Z</time>
      </trkpt>
      <trkpt lat="48.9824" lon="-0.48202">
        <ele>29.2</ele>
        <time>2023-05-02T13:08:56Z</time>
      </trkpt>
      <trkpt lat="48.98248" lon="-0.48204">
        <ele>29</ele>
        <time>2023-05-02T13:08:57Z</time>
      </trkpt>
      <trkpt lat="48.98256" lon="-0.48206">
        <ele>28.8</ele>
        <time>2023-05-02T13:08:58Z</time>
      </trkpt>
      <trkpt lat="48.98263" lon="-0.48207">
        <ele>28.6</ele>
        <time>2023-05-02T13:08:59Z</time>
      </trkpt>
      <trkpt lat="48.9827" lon="-0.48209">
        <ele>28.4</ele>
        <time>2023-05-02T13:09:00Z</time>
      </trkpt>
      <trkpt lat="48.98278" lon="-0.48209">
        <ele>28.2</ele>
        <time>2023-05-02T13:09:01Z</time>
      </trkpt>
      <trkpt lat="48.98285" lon="-0.4821">
        <ele>27.8</ele>
        <time>2023-05-02T13:09:02Z</time>
      </trkpt>
      <trkpt lat="48.98293" lon="-0.48211">
        <ele>27.8</ele>
        <time>2023-05-02T13:09:03Z</time>
      </trkpt>
      <trkpt lat="48.983" lon="-0.48212">
        <ele>27.6</ele>
        <time>2023-05-02T13:09:04Z</time>
      </trkpt>
      <trkpt lat="48.98308" lon="-0.48213">
        <ele>27.2</ele>
        <time>2023-05-02T13:09:05Z</time>
      </trkpt>
      <trkpt lat="48.98315" lon="-0.48214">
        <ele>27</ele>
        <time>2023-05-02T13:09:06Z</time>
      </trkpt>
      <trkpt lat="48.98323" lon="-0.48216">
        <ele>26.8</ele>
        <time>2023-05-02T13:09:07Z</time>
      </trkpt>
      <trkpt lat="48.98331" lon="-0.48218">
        <ele>26.6</ele>
        <time>2023-05-02T13:09:08Z</time>
      </trkpt>
      <trkpt lat="48.98338" lon="-0.48219">
        <ele>26.2</ele>
        <time>2023-05-02T13:09:09Z</time>
      </trkpt>
      <trkpt lat="48.98346" lon="-0.48221">
        <ele>26.2</ele>
        <time>2023-05-02T13:09:10Z</time>
      </trkpt>
      <trkpt lat="48.98354" lon="-0.48222">
        <ele>26.2</ele>
        <time>2023-05-02T13:09:11Z</time>
      </trkpt>
      <trkpt lat="48.98361" lon="-0.48224">
        <ele>26.2</ele>
        <time>2023-05-02T13:09:12Z</time>
      </trkpt>
      <trkpt lat="48.98369" lon="-0.48225">
        <ele>26</ele>
        <time>2023-05-02T13:09:13Z</time>
      </trkpt>
      <trkpt lat="48.98376" lon="-0.48227">
        <ele>25.8</ele>
        <time>2023-05-02T13:09:14Z</time>
      </trkpt>
      <trkpt lat="48.98383" lon="-0.48228">
        <ele>25.8</ele>
        <time>2023-05-02T13:09:15Z</time>
      </trkpt>
      <trkpt lat="48.98391" lon="-0.4823">
        <ele>25.8</ele>
        <time>2023-05-02T13:09:16Z</time>
      </trkpt>
      <trkpt lat="48.98398" lon="-0.48231">
        <ele>25.6</ele>
        <time>2023-05-02T13:09:17Z</time>
      </trkpt>
      <trkpt lat="48.98406" lon="-0.48233">
        <ele>25.6</ele>
        <time>2023-05-02T13:09:18Z</time>
      </trkpt>
      <trkpt lat="48.98413" lon="-0.48234">
        <ele>25.4</ele>
        <time>2023-05-02T13:09:19Z</time>
      </trkpt>
      <trkpt lat="48.9842" lon="-0.48235">
        <ele>25.4</ele>
        <time>2023-05-02T13:09:20Z</time>
      </trkpt>
      <trkpt lat="48.98428" lon="-0.48237">
        <ele>25.4</ele>
        <time>2023-05-02T13:09:21Z</time>
      </trkpt>
      <trkpt lat="48.98435" lon="-0.48238">
        <ele>25.4</ele>
        <time>2023-05-02T13:09:22Z</time>
      </trkpt>
      <trkpt lat="48.98443" lon="-0.48239">
        <ele>25.4</ele>
        <time>2023-05-02T13:09:23Z</time>
      </trkpt>
      <trkpt lat="48.9845" lon="-0.4824">
        <ele>25.4</ele>
        <time>2023-05-02T13:09:24Z</time>
      </trkpt>
      <trkpt lat="48.98458" lon="-0.48241">
        <ele>25.4</ele>
        <time>2023-05-02T13:09:25Z</time>
      </trkpt>
      <trkpt lat="48.98465" lon="-0.48242">
        <ele>25.4</ele>
        <time>2023-05-02T13:09:26Z</time>
      </trkpt>
      <trkpt lat="48.98473" lon="-0.48242">
        <ele>25.4</ele>
        <time>2023-05-02T13:09:27Z</time>
      </trkpt>
      <trkpt lat="48.9848" lon="-0.48243">
        <ele>25.4</ele>
        <time>2023-05-02T13:09:28Z</time>
      </trkpt>
      <trkpt lat="48.98488" lon="-0.48244">
        <ele>25.4</ele>
        <time>2023-05-02T13:09:29Z</time>
      </trkpt>
      <trkpt lat="48.98495" lon="-0.48244">
        <ele>25.4</ele>
        <time>2023-05-02T13:09:30Z</time>
      </trkpt>
      <trkpt lat="48.98502" lon="-0.48244">
        <ele>25.6</ele>
        <time>2023-05-02T13:09:31Z</time>
      </trkpt>
      <trkpt lat="48.9851" lon="-0.48244">
        <ele>25.8</ele>
        <time>2023-05-02T13:09:32Z</time>
      </trkpt>
      <trkpt lat="48.98517" lon="-0.48244">
        <ele>26</ele>
        <time>2023-05-02T13:09:33Z</time>
      </trkpt>
      <trkpt lat="48.98524" lon="-0.48244">
        <ele>26.2</ele>
        <time>2023-05-02T13:09:34Z</time>
      </trkpt>
      <trkpt lat="48.98531" lon="-0.48244">
        <ele>26.6</ele>
        <time>2023-05-02T13:09:35Z</time>
      </trkpt>
      <trkpt lat="48.98539" lon="-0.48244">
        <ele>26.8</ele>
        <time>2023-05-02T13:09:36Z</time>
      </trkpt>
      <trkpt lat="48.98546" lon="-0.48244">
        <ele>27.2</ele>
        <time>2023-05-02T13:09:37Z</time>
      </trkpt>
      <trkpt lat="48.98553" lon="-0.48244">
        <ele>27.4</ele>
        <time>2023-05-02T13:09:38Z</time>
      </trkpt>
      <trkpt lat="48.9856" lon="-0.48244">
        <ele>27.8</ele>
        <time>2023-05-02T13:09:39Z</time>
      </trkpt>
      <trkpt lat="48.98567" lon="-0.48244">
        <ele>27.8</ele>
        <time>2023-05-02T13:09:40Z</time>
      </trkpt>
      <trkpt lat="48.98574" lon="-0.48244">
        <ele>28.2</ele>
        <time>2023-05-02T13:09:41Z</time>
      </trkpt>
      <trkpt lat="48.98581" lon="-0.48244">
        <ele>28.6</ele>
        <time>2023-05-02T13:09:42Z</time>
      </trkpt>
      <trkpt lat="48.98588" lon="-0.48243">
        <ele>28.8</ele>
        <time>2023-05-02T13:09:43Z</time>
      </trkpt>
      <trkpt lat="48.98595" lon="-0.48242">
        <ele>28.8</ele>
        <time>2023-05-02T13:09:44Z</time>
      </trkpt>
      <trkpt lat="48.98602" lon="-0.48242">
        <ele>29</ele>
        <time>2023-05-02T13:09:45Z</time>
      </trkpt>
      <trkpt lat="48.98609" lon="-0.48241">
        <ele>29.2</ele>
        <time>2023-05-02T13:09:46Z</time>
      </trkpt>
      <trkpt lat="48.98616" lon="-0.4824">
        <ele>29.2</ele>
        <time>2023-05-02T13:09:47Z</time>
      </trkpt>
      <trkpt lat="48.98623" lon="-0.48239">
        <ele>29.4</ele>
        <time>2023-05-02T13:09:48Z</time>
      </trkpt>
      <trkpt lat="48.9863" lon="-0.48238">
        <ele>29.6</ele>
        <time>2023-05-02T13:09:49Z</time>
      </trkpt>
      <trkpt lat="48.98637" lon="-0.48237">
        <ele>29.8</ele>
        <time>2023-05-02T13:09:50Z</time>
      </trkpt>
      <trkpt lat="48.98644" lon="-0.48236">
        <ele>29.8</ele>
        <time>2023-05-02T13:09:51Z</time>
      </trkpt>
      <trkpt lat="48.98651" lon="-0.48234">
        <ele>30</ele>
        <time>2023-05-02T13:09:52Z</time>
      </trkpt>
      <trkpt lat="48.98658" lon="-0.48233">
        <ele>30.2</ele>
        <time>2023-05-02T13:09:53Z</time>
      </trkpt>
      <trkpt lat="48.98665" lon="-0.48232">
        <ele>30.2</ele>
        <time>2023-05-02T13:09:54Z</time>
      </trkpt>
      <trkpt lat="48.98672" lon="-0.4823">
        <ele>30.6</ele>
        <time>2023-05-02T13:09:55Z</time>
      </trkpt>
      <trkpt lat="48.98679" lon="-0.48229">
        <ele>30.8</ele>
        <time>2023-05-02T13:09:56Z</time>
      </trkpt>
      <trkpt lat="48.98686" lon="-0.48227">
        <ele>30.8</ele>
        <time>2023-05-02T13:09:57Z</time>
      </trkpt>
      <trkpt lat="48.98692" lon="-0.48225">
        <ele>31.2</ele>
        <time>2023-05-02T13:09:58Z</time>
      </trkpt>
      <trkpt lat="48.98699" lon="-0.48224">
        <ele>31.2</ele>
        <time>2023-05-02T13:09:59Z</time>
      </trkpt>
      <trkpt lat="48.98706" lon="-0.48222">
        <ele>31.6</ele>
        <time>2023-05-02T13:10:00Z</time>
      </trkpt>
      <trkpt lat="48.98712" lon="-0.4822">
        <ele>31.8</ele>
        <time>2023-05-02T13:10:01Z</time>
      </trkpt>
      <trkpt lat="48.98718" lon="-0.48218">
        <ele>31.8</ele>
        <time>2023-05-02T13:10:02Z</time>
      </trkpt>
      <trkpt lat="48.98724" lon="-0.48216">
        <ele>32</ele>
        <time>2023-05-02T13:10:03Z</time>
      </trkpt>
      <trkpt lat="48.9873" lon="-0.48214">
        <ele>32.2</ele>
        <time>2023-05-02T13:10:04Z</time>
      </trkpt>
      <trkpt lat="48.98735" lon="-0.48213">
        <ele>32.6</ele>
        <time>2023-05-02T13:10:05Z</time>
      </trkpt>
      <trkpt lat="48.9874" lon="-0.48212">
        <ele>32.6</ele>
        <time>2023-05-02T13:10:06Z</time>
      </trkpt>
      <trkpt lat="48.98745" lon="-0.48211">
        <ele>32.8</ele>
        <time>2023-05-02T13:10:07Z</time>
      </trkpt>
      <trkpt lat="48.98751" lon="-0.4821">
        <ele>32.8</ele>
        <time>2023-05-02T13:10:08Z</time>
      </trkpt>
      <trkpt lat="48.98756" lon="-0.48208">
        <ele>32.6</ele>
        <time>2023-05-02T13:10:09Z</time>
      </trkpt>
      <trkpt lat="48.98762" lon="-0.48207">
        <ele>32.2</ele>
        <time>2023-05-02T13:10:10Z</time>
      </trkpt>
      <trkpt lat="48.98768" lon="-0.48205">
        <ele>31.8</ele>
        <time>2023-05-02T13:10:11Z</time>
      </trkpt>
      <trkpt lat="48.98775" lon="-0.48202">
        <ele>31.8</ele>
        <time>2023-05-02T13:10:12Z</time>
      </trkpt>
      <trkpt lat="48.98781" lon="-0.48199">
        <ele>31.4</ele>
        <time>2023-05-02T13:10:13Z</time>
      </trkpt>
      <trkpt lat="48.98788" lon="-0.48197">
        <ele>31.2</ele>
        <time>2023-05-02T13:10:14Z</time>
      </trkpt>
      <trkpt lat="48.98794" lon="-0.48194">
        <ele>30.8</ele>
        <time>2023-05-02T13:10:15Z</time>
      </trkpt>
      <trkpt lat="48.988" lon="-0.48192">
        <ele>30.6</ele>
        <time>2023-05-02T13:10:16Z</time>
      </trkpt>
      <trkpt lat="48.98807" lon="-0.4819">
        <ele>30.2</ele>
        <time>2023-05-02T13:10:17Z</time>
      </trkpt>
      <trkpt lat="48.98813" lon="-0.48188">
        <ele>30</ele>
        <time>2023-05-02T13:10:18Z</time>
      </trkpt>
      <trkpt lat="48.98819" lon="-0.48186">
        <ele>29.8</ele>
        <time>2023-05-02T13:10:19Z</time>
      </trkpt>
      <trkpt lat="48.98825" lon="-0.48184">
        <ele>29.4</ele>
        <time>2023-05-02T13:10:20Z</time>
      </trkpt>
      <trkpt lat="48.9883" lon="-0.48182">
        <ele>29.2</ele>
        <time>2023-05-02T13:10:21Z</time>
      </trkpt>
      <trkpt lat="48.98836" lon="-0.48181">
        <ele>28.8</ele>
        <time>2023-05-02T13:10:22Z</time>
      </trkpt>
      <trkpt lat="48.98841" lon="-0.4818">
        <ele>28.8</ele>
        <time>2023-05-02T13:10:23Z</time>
      </trkpt>
      <trkpt lat="48.98847" lon="-0.48178">
        <ele>28.6</ele>
        <time>2023-05-02T13:10:24Z</time>
      </trkpt>
      <trkpt lat="48.98852" lon="-0.48177">
        <ele>28.2</ele>
        <time>2023-05-02T13:10:25Z</time>
      </trkpt>
      <trkpt lat="48.98856" lon="-0.48175">
        <ele>28.2</ele>
        <time>2023-05-02T13:10:26Z</time>
      </trkpt>
      <trkpt lat="48.98861" lon="-0.48173">
        <ele>28</ele>
        <time>2023-05-02T13:10:27Z</time>
      </trkpt>
      <trkpt lat="48.98865" lon="-0.48171">
        <ele>27.8</ele>
        <time>2023-05-02T13:10:28Z</time>
      </trkpt>
      <trkpt lat="48.9887" lon="-0.48169">
        <ele>27.8</ele>
        <time>2023-05-02T13:10:29Z</time>
      </trkpt>
      <trkpt lat="48.98875" lon="-0.48168">
        <ele>27.4</ele>
        <time>2023-05-02T13:10:30Z</time>
      </trkpt>
      <trkpt lat="48.98881" lon="-0.48166">
        <ele>27.2</ele>
        <time>2023-05-02T13:10:31Z</time>
      </trkpt>
      <trkpt lat="48.98887" lon="-0.48166">
        <ele>26.8</ele>
        <time>2023-05-02T13:10:32Z</time>
      </trkpt>
      <trkpt lat="48.98893" lon="-0.48165">
        <ele>26.6</ele>
        <time>2023-05-02T13:10:33Z</time>
      </trkpt>
      <trkpt lat="48.98898" lon="-0.48165">
        <ele>26.2</ele>
        <time>2023-05-02T13:10:34Z</time>
      </trkpt>
      <trkpt lat="48.98903" lon="-0.48164">
        <ele>25.8</ele>
        <time>2023-05-02T13:10:35Z</time>
      </trkpt>
      <trkpt lat="48.98909" lon="-0.48163">
        <ele>25.6</ele>
        <time>2023-05-02T13:10:36Z</time>
      </trkpt>
      <trkpt lat="48.98914" lon="-0.48162">
        <ele>25.4</ele>
        <time>2023-05-02T13:10:37Z</time>
      </trkpt>
      <trkpt lat="48.98919" lon="-0.4816">
        <ele>25.4</ele>
        <time>2023-05-02T13:10:38Z</time>
      </trkpt>
      <trkpt lat="48.98923" lon="-0.48159">
        <ele>25.6</ele>
        <time>2023-05-02T13:10:39Z</time>
      </trkpt>
      <trkpt lat="48.98926" lon="-0.48159">
        <ele>25.6</ele>
        <time>2023-05-02T13:10:40Z</time>
      </trkpt>
      <trkpt lat="48.98929" lon="-0.48159">
        <ele>25.8</ele>
        <time>2023-05-02T13:10:41Z</time>
      </trkpt>
      <trkpt lat="48.98933" lon="-0.4816">
        <ele>25.8</ele>
        <time>2023-05-02T13:10:42Z</time>
      </trkpt>
      <trkpt lat="48.98936" lon="-0.4816">
        <ele>25.8</ele>
        <time>2023-05-02T13:10:43Z</time>
      </trkpt>
      <trkpt lat="48.9894" lon="-0.48159">
        <ele>26</ele>
        <time>2023-05-02T13:10:44Z</time>
      </trkpt>
      <trkpt lat="48.98944" lon="-0.48159">
        <ele>26.2</ele>
        <time>2023-05-02T13:10:45Z</time>
      </trkpt>
      <trkpt lat="48.98949" lon="-0.4816">
        <ele>26.2</ele>
        <time>2023-05-02T13:10:46Z</time>
      </trkpt>
      <trkpt lat="48.98954" lon="-0.48161">
        <ele>26.2</ele>
        <time>2023-05-02T13:10:47Z</time>
      </trkpt>
      <trkpt lat="48.98959" lon="-0.48162">
        <ele>26.4</ele>
        <time>2023-05-02T13:10:48Z</time>
      </trkpt>
      <trkpt lat="48.98964" lon="-0.48163">
        <ele>26.4</ele>
        <time>2023-05-02T13:10:49Z</time>
      </trkpt>
      <trkpt lat="48.9897" lon="-0.48164">
        <ele>26.6</ele>
        <time>2023-05-02T13:10:50Z</time>
      </trkpt>
      <trkpt lat="48.98975" lon="-0.48164">
        <ele>26.6</ele>
        <time>2023-05-02T13:10:51Z</time>
      </trkpt>
      <trkpt lat="48.9898" lon="-0.48164">
        <ele>26.8</ele>
        <time>2023-05-02T13:10:52Z</time>
      </trkpt>
      <trkpt lat="48.98985" lon="-0.48165">
        <ele>26.8</ele>
        <time>2023-05-02T13:10:53Z</time>
      </trkpt>
      <trkpt lat="48.9899" lon="-0.48165">
        <ele>26.8</ele>
        <time>2023-05-02T13:10:54Z</time>
      </trkpt>
      <trkpt lat="48.98995" lon="-0.48165">
        <ele>27</ele>
        <time>2023-05-02T13:10:55Z</time>
      </trkpt>
      <trkpt lat="48.98999" lon="-0.48166">
        <ele>27</ele>
        <time>2023-05-02T13:10:56Z</time>
      </trkpt>
      <trkpt lat="48.99003" lon="-0.48167">
        <ele>27</ele>
        <time>2023-05-02T13:10:57Z</time>
      </trkpt>
      <trkpt lat="48.99005" lon="-0.48167">
        <ele>27.2</ele>
        <time>2023-05-02T13:10:58Z</time>
      </trkpt>
      <trkpt lat="48.99006" lon="-0.48167">
        <ele>27.2</ele>
        <time>2023-05-02T13:10:59Z</time>
      </trkpt>
      <trkpt lat="48.99006" lon="-0.48167">
        <ele>27.2</ele>
        <time>2023-05-02T13:11:00Z</time>
      </trkpt>
      <trkpt lat="48.99006" lon="-0.48167">
        <ele>27.2</ele>
        <time>2023-05-02T13:11:01Z</time>
      </trkpt>
      <trkpt lat="48.99006" lon="-0.48167">
        <ele>27.2</ele>
        <time>2023-05-02T13:11:02Z</time>
      </trkpt>
      <trkpt lat="48.99006" lon="-0.48167">
        <ele>27.2</ele>
        <time>2023-05-02T13:11:03Z</time>
      </trkpt>
      <trkpt lat="48.99006" lon="-0.48167">
        <ele>27.2</ele>
        <time>2023-05-02T13:11:04Z</time>
      </trkpt>
      <trkpt lat="48.99006" lon="-0.48167">
        <ele>27.2</ele>
        <time>2023-05-02T13:11:05Z</time>
      </trkpt>
      <trkpt lat="48.99006" lon="-0.48167">
        <ele>27.2</ele>
        <time>2023-05-02T13:11:06Z</time>
      </trkpt>
      <trkpt lat="48.99006" lon="-0.48167">
        <ele>27.2</ele>
        <time>2023-05-02T13:11:07Z</time>
      </trkpt>
      <trkpt lat="48.99006" lon="-0.48167">
        <ele>27.2</ele>
        <time>2023-05-02T13:11:08Z</time>
      </trkpt>
      <trkpt lat="48.99006" lon="-0.48167">
        <ele>27.2</ele>
        <time>2023-05-02T13:11:09Z</time>
      </trkpt>
      <trkpt lat="48.99006" lon="-0.48167">
        <ele>27.2</ele>
        <time>2023-05-02T13:11:10Z</time>
      </trkpt>
      <trkpt lat="48.99006" lon="-0.48167">
        <ele>27.2</ele>
        <time>2023-05-02T13:11:11Z</time>
      </trkpt>
      <trkpt lat="48.99006" lon="-0.48167">
        <ele>27.2</ele>
        <time>2023-05-02T13:11:12Z</time>
      </trkpt>
      <trkpt lat="48.99006" lon="-0.48167">
        <ele>27.2</ele>
        <time>2023-05-02T13:11:13Z</time>
      </trkpt>
      <trkpt lat="48.99006" lon="-0.48167">
        <ele>27.2</ele>
        <time>2023-05-02T13:11:14Z</time>
      </trkpt>
      <trkpt lat="48.99006" lon="-0.48167">
        <ele>27.2</ele>
        <time>2023-05-02T13:11:15Z</time>
      </trkpt>
      <trkpt lat="48.99006" lon="-0.48167">
        <ele>27.2</ele>
        <time>2023-05-02T13:11:16Z</time>
      </trkpt>
      <trkpt lat="48.99006" lon="-0.48167">
        <ele>27.2</ele>
        <time>2023-05-02T13:11:17Z</time>
      </trkpt>
      <trkpt lat="48.99006" lon="-0.48167">
        <ele>27.2</ele>
        <time>2023-05-02T13:11:18Z</time>
      </trkpt>
      <trkpt lat="48.99006" lon="-0.48167">
        <ele>27.2</ele>
        <time>2023-05-02T13:11:19Z</time>
      </trkpt>
      <trkpt lat="48.99006" lon="-0.48167">
        <ele>27.2</ele>
        <time>2023-05-02T13:11:20Z</time>
      </trkpt>
      <trkpt lat="48.99006" lon="-0.48167">
        <ele>27.2</ele>
        <time>2023-05-02T13:11:21Z</time>
      </trkpt>
      <trkpt lat="48.99006" lon="-0.48167">
        <ele>27.2</ele>
        <time>2023-05-02T13:11:22Z</time>
      </trkpt>
      <trkpt lat="48.99006" lon="-0.48167">
        <ele>27.2</ele>
        <time>2023-05-02T13:11:23Z</time>
      </trkpt>
      <trkpt lat="48.99006" lon="-0.48167">
        <ele>27.2</ele>
        <time>2023-05-02T13:11:24Z</time>
      </trkpt>
      <trkpt lat="48.99006" lon="-0.48167">
        <ele>27.2</ele>
        <time>2023-05-02T13:11:25Z</time>
      </trkpt>
      <trkpt lat="48.99006" lon="-0.48167">
        <ele>27.2</ele>
        <time>2023-05-02T13:11:26Z</time>
      </trkpt>
      <trkpt lat="48.99006" lon="-0.48167">
        <ele>27.2</ele>
        <time>2023-05-02T13:11:27Z</time>
      </trkpt>
      <trkpt lat="48.99006" lon="-0.48167">
        <ele>27.2</ele>
        <time>2023-05-02T13:11:28Z</time>
      </trkpt>
      <trkpt lat="48.99006" lon="-0.48167">
        <ele>27.2</ele>
        <time>2023-05-02T13:11:29Z</time>
      </trkpt>
      <trkpt lat="48.99006" lon="-0.48167">
        <ele>27.2</ele>
        <time>2023-05-02T13:11:30Z</time>
      </trkpt>
      <trkpt lat="48.99006" lon="-0.48167">
        <ele>27.2</ele>
        <time>2023-05-02T13:11:31Z</time>
      </trkpt>
      <trkpt lat="48.99006" lon="-0.48167">
        <ele>27.2</ele>
        <time>2023-05-02T13:11:32Z</time>
      </trkpt>
      <trkpt lat="48.99006" lon="-0.48167">
        <ele>27.2</ele>
        <time>2023-05-02T13:11:33Z</time>
      </trkpt>
      <trkpt lat="48.99006" lon="-0.48167">
        <ele>27.2</ele>
        <time>2023-05-02T13:11:34Z</time>
      </trkpt>
      <trkpt lat="48.99007" lon="-0.48167">
        <ele>27.2</ele>
        <time>2023-05-02T13:11:35Z</time>
      </trkpt>
      <trkpt lat="48.99007" lon="-0.48168">
        <ele>27.2</ele>
        <time>2023-05-02T13:11:36Z</time>
      </trkpt>
      <trkpt lat="48.99009" lon="-0.48169">
        <ele>27</ele>
        <time>2023-05-02T13:11:37Z</time>
      </trkpt>
      <trkpt lat="48.99011" lon="-0.48171">
        <ele>27</ele>
        <time>2023-05-02T13:11:38Z</time>
      </trkpt>
      <trkpt lat="48.99014" lon="-0.48171">
        <ele>27</ele>
        <time>2023-05-02T13:11:39Z</time>
      </trkpt>
      <trkpt lat="48.99018" lon="-0.48172">
        <ele>27</ele>
        <time>2023-05-02T13:11:40Z</time>
      </trkpt>
      <trkpt lat="48.99023" lon="-0.48173">
        <ele>27</ele>
        <time>2023-05-02T13:11:41Z</time>
      </trkpt>
      <trkpt lat="48.99029" lon="-0.48175">
        <ele>27</ele>
        <time>2023-05-02T13:11:42Z</time>
      </trkpt>
      <trkpt lat="48.99035" lon="-0.48177">
        <ele>27</ele>
        <time>2023-05-02T13:11:43Z</time>
      </trkpt>
      <trkpt lat="48.99041" lon="-0.48179">
        <ele>27</ele>
        <time>2023-05-02T13:11:44Z</time>
      </trkpt>
      <trkpt lat="48.99048" lon="-0.48181">
        <ele>27</ele>
        <time>2023-05-02T13:11:45Z</time>
      </trkpt>
      <trkpt lat="48.99055" lon="-0.48182">
        <ele>26.8</ele>
        <time>2023-05-02T13:11:46Z</time>
      </trkpt>
      <trkpt lat="48.99062" lon="-0.48184">
        <ele>26.8</ele>
        <time>2023-05-02T13:11:47Z</time>
      </trkpt>
      <trkpt lat="48.99069" lon="-0.48185">
        <ele>26.8</ele>
        <time>2023-05-02T13:11:48Z</time>
      </trkpt>
      <trkpt lat="48.99075" lon="-0.48187">
        <ele>26.8</ele>
        <time>2023-05-02T13:11:49Z</time>
      </trkpt>
      <trkpt lat="48.99082" lon="-0.48189">
        <ele>26.8</ele>
        <time>2023-05-02T13:11:50Z</time>
      </trkpt>
      <trkpt lat="48.99089" lon="-0.48191">
        <ele>26.8</ele>
        <time>2023-05-02T13:11:51Z</time>
      </trkpt>
      <trkpt lat="48.99096" lon="-0.48193">
        <ele>26.8</ele>
        <time>2023-05-02T13:11:52Z</time>
      </trkpt>
      <trkpt lat="48.99103" lon="-0.48195">
        <ele>26.8</ele>
        <time>2023-05-02T13:11:53Z</time>
      </trkpt>
      <trkpt lat="48.99111" lon="-0.48197">
        <ele>27</ele>
        <time>2023-05-02T13:11:54Z</time>
      </trkpt>
      <trkpt lat="48.99118" lon="-0.48199">
        <ele>27</ele>
        <time>2023-05-02T13:11:55Z</time>
      </trkpt>
      <trkpt lat="48.99125" lon="-0.48202">
        <ele>27.2</ele>
        <time>2023-05-02T13:11:56Z</time>
      </trkpt>
      <trkpt lat="48.99132" lon="-0.48204">
        <ele>27.2</ele>
        <time>2023-05-02T13:11:57Z</time>
      </trkpt>
      <trkpt lat="48.99139" lon="-0.48206">
        <ele>27.2</ele>
        <time>2023-05-02T13:11:58Z</time>
      </trkpt>
      <trkpt lat="48.99146" lon="-0.48208">
        <ele>27.2</ele>
        <time>2023-05-02T13:11:59Z</time>
      </trkpt>
      <trkpt lat="48.99153" lon="-0.48209">
        <ele>27.2</ele>
        <time>2023-05-02T13:12:00Z</time>
      </trkpt>
      <trkpt lat="48.99161" lon="-0.48211">
        <ele>27</ele>
        <time>2023-05-02T13:12:01Z</time>
      </trkpt>
      <trkpt lat="48.99168" lon="-0.48213">
        <ele>27.2</ele>
        <time>2023-05-02T13:12:02Z</time>
      </trkpt>
      <trkpt lat="48.99175" lon="-0.48215">
        <ele>27.6</ele>
        <time>2023-05-02T13:12:03Z</time>
      </trkpt>
      <trkpt lat="48.99182" lon="-0.48217">
        <ele>27.8</ele>
        <time>2023-05-02T13:12:04Z</time>
      </trkpt>
      <trkpt lat="48.99189" lon="-0.48218">
        <ele>28.2</ele>
        <time>2023-05-02T13:12:05Z</time>
      </trkpt>
      <trkpt lat="48.99196" lon="-0.4822">
        <ele>28.6</ele>
        <time>2023-05-02T13:12:06Z</time>
      </trkpt>
      <trkpt lat="48.99202" lon="-0.48222">
        <ele>28.8</ele>
        <time>2023-05-02T13:12:07Z</time>
      </trkpt>
      <trkpt lat="48.99209" lon="-0.48224">
        <ele>29.2</ele>
        <time>2023-05-02T13:12:08Z</time>
      </trkpt>
      <trkpt lat="48.99216" lon="-0.48225">
        <ele>29.4</ele>
        <time>2023-05-02T13:12:09Z</time>
      </trkpt>
      <trkpt lat="48.99223" lon="-0.48227">
        <ele>29.8</ele>
        <time>2023-05-02T13:12:10Z</time>
      </trkpt>
      <trkpt lat="48.9923" lon="-0.48229">
        <ele>29.8</ele>
        <time>2023-05-02T13:12:11Z</time>
      </trkpt>
      <trkpt lat="48.99237" lon="-0.48231">
        <ele>30</ele>
        <time>2023-05-02T13:12:12Z</time>
      </trkpt>
      <trkpt lat="48.99244" lon="-0.48232">
        <ele>30.2</ele>
        <time>2023-05-02T13:12:13Z</time>
      </trkpt>
      <trkpt lat="48.9925" lon="-0.48234">
        <ele>30.2</ele>
        <time>2023-05-02T13:12:14Z</time>
      </trkpt>
      <trkpt lat="48.99257" lon="-0.48236">
        <ele>31.2</ele>
        <time>2023-05-02T13:12:15Z</time>
      </trkpt>
      <trkpt lat="48.99264" lon="-0.48238">
        <ele>31.8</ele>
        <time>2023-05-02T13:12:16Z</time>
      </trkpt>
      <trkpt lat="48.9927" lon="-0.48239">
        <ele>32.8</ele>
        <time>2023-05-02T13:12:17Z</time>
      </trkpt>
      <trkpt lat="48.99276" lon="-0.48241">
        <ele>33.4</ele>
        <time>2023-05-02T13:12:18Z</time>
      </trkpt>
      <trkpt lat="48.99282" lon="-0.48244">
        <ele>34</ele>
        <time>2023-05-02T13:12:19Z</time>
      </trkpt>
      <trkpt lat="48.99288" lon="-0.48246">
        <ele>34.6</ele>
        <time>2023-05-02T13:12:20Z</time>
      </trkpt>
      <trkpt lat="48.99293" lon="-0.4825">
        <ele>34.8</ele>
        <time>2023-05-02T13:12:21Z</time>
      </trkpt>
      <trkpt lat="48.99298" lon="-0.48255">
        <ele>35</ele>
        <time>2023-05-02T13:12:22Z</time>
      </trkpt>
      <trkpt lat="48.99303" lon="-0.48258">
        <ele>35.6</ele>
        <time>2023-05-02T13:12:23Z</time>
      </trkpt>
      <trkpt lat="48.99308" lon="-0.48259">
        <ele>36.4</ele>
        <time>2023-05-02T13:12:24Z</time>
      </trkpt>
      <trkpt lat="48.99313" lon="-0.4826">
        <ele>37.2</ele>
        <time>2023-05-02T13:12:25Z</time>
      </trkpt>
      <trkpt lat="48.99318" lon="-0.4826">
        <ele>38</ele>
        <time>2023-05-02T13:12:26Z</time>
      </trkpt>
      <trkpt lat="48.99324" lon="-0.4826">
        <ele>39</ele>
        <time>2023-05-02T13:12:27Z</time>
      </trkpt>
      <trkpt lat="48.99329" lon="-0.4826">
        <ele>40</ele>
        <time>2023-05-02T13:12:28Z</time>
      </trkpt>
      <trkpt lat="48.99333" lon="-0.48259">
        <ele>40.8</ele>
        <time>2023-05-02T13:12:29Z</time>
      </trkpt>
      <trkpt lat="48.99338" lon="-0.48258">
        <ele>41.2</ele>
        <time>2023-05-02T13:12:30Z</time>
      </trkpt>
      <trkpt lat="48.99341" lon="-0.48256">
        <ele>41.8</ele>
        <time>2023-05-02T13:12:31Z</time>
      </trkpt>
      <trkpt lat="48.99345" lon="-0.48254">
        <ele>42.2</ele>
        <time>2023-05-02T13:12:32Z</time>
      </trkpt>
      <trkpt lat="48.99347" lon="-0.48252">
        <ele>42.8</ele>
        <time>2023-05-02T13:12:33Z</time>
      </trkpt>
      <trkpt lat="48.99349" lon="-0.4825">
        <ele>43</ele>
        <time>2023-05-02T13:12:34Z</time>
      </trkpt>
      <trkpt lat="48.99351" lon="-0.48248">
        <ele>43.6</ele>
        <time>2023-05-02T13:12:35Z</time>
      </trkpt>
      <trkpt lat="48.99352" lon="-0.48246">
        <ele>44</ele>
        <time>2023-05-02T13:12:36Z</time>
      </trkpt>
      <trkpt lat="48.99353" lon="-0.48245">
        <ele>44.2</ele>
        <time>2023-05-02T13:12:37Z</time>
      </trkpt>
      <trkpt lat="48.99354" lon="-0.48244">
        <ele>44.6</ele>
        <time>2023-05-02T13:12:38Z</time>
      </trkpt>
      <trkpt lat="48.99355" lon="-0.48241">
        <ele>45</ele>
        <time>2023-05-02T13:12:39Z</time>
      </trkpt>
      <trkpt lat="48.99356" lon="-0.48237">
        <ele>45.8</ele>
        <time>2023-05-02T13:12:40Z</time>
      </trkpt>
      <trkpt lat="48.9936" lon="-0.4823">
        <ele>47</ele>
        <time>2023-05-02T13:12:41Z</time>
      </trkpt>
      <trkpt lat="48.99367" lon="-0.48222">
        <ele>48.8</ele>
        <time>2023-05-02T13:12:42Z</time>
      </trkpt>
      <trkpt lat="48.99376" lon="-0.48214">
        <ele>50.2</ele>
        <time>2023-05-02T13:12:43Z</time>
      </trkpt>
      <trkpt lat="48.99387" lon="-0.48207">
        <ele>51.6</ele>
        <time>2023-05-02T13:12:44Z</time>
      </trkpt>
      <trkpt lat="48.99394" lon="-0.48199">
        <ele>52.8</ele>
        <time>2023-05-02T13:12:45Z</time>
      </trkpt>
      <trkpt lat="48.99399" lon="-0.48192">
        <ele>54</ele>
        <time>2023-05-02T13:12:46Z</time>
      </trkpt>
      <trkpt lat="48.99411" lon="-0.48189">
        <ele>54.4</ele>
        <time>2023-05-02T13:12:47Z</time>
      </trkpt>
      <trkpt lat="48.99443" lon="-0.48199">
        <ele>46</ele>
        <time>2023-05-02T13:12:48Z</time>
      </trkpt>
      <trkpt lat="48.99486" lon="-0.48215">
        <ele>31.8</ele>
        <time>2023-05-02T13:12:49Z</time>
      </trkpt>
      <trkpt lat="48.99492" lon="-0.4821">
        <ele>30.8</ele>
        <time>2023-05-02T13:12:50Z</time>
      </trkpt>
      <trkpt lat="48.99498" lon="-0.48204">
        <ele>29.6</ele>
        <time>2023-05-02T13:12:51Z</time>
      </trkpt>
      <trkpt lat="48.99503" lon="-0.48198">
        <ele>29.2</ele>
        <time>2023-05-02T13:12:52Z</time>
      </trkpt>
      <trkpt lat="48.99508" lon="-0.48192">
        <ele>29.2</ele>
        <time>2023-05-02T13:12:53Z</time>
      </trkpt>
      <trkpt lat="48.99513" lon="-0.48186">
        <ele>29</ele>
        <time>2023-05-02T13:12:54Z</time>
      </trkpt>
      <trkpt lat="48.9952" lon="-0.48179">
        <ele>28.8</ele>
        <time>2023-05-02T13:12:55Z</time>
      </trkpt>
      <trkpt lat="48.99525" lon="-0.48173">
        <ele>28.4</ele>
        <time>2023-05-02T13:12:56Z</time>
      </trkpt>
      <trkpt lat="48.99529" lon="-0.48166">
        <ele>28.2</ele>
        <time>2023-05-02T13:12:57Z</time>
      </trkpt>
      <trkpt lat="48.99534" lon="-0.48159">
        <ele>28.2</ele>
        <time>2023-05-02T13:12:58Z</time>
      </trkpt>
      <trkpt lat="48.99538" lon="-0.48152">
        <ele>28.2</ele>
        <time>2023-05-02T13:12:59Z</time>
      </trkpt>
      <trkpt lat="48.99543" lon="-0.48145">
        <ele>28.2</ele>
        <time>2023-05-02T13:13:00Z</time>
      </trkpt>
      <trkpt lat="48.99548" lon="-0.48137">
        <ele>28</ele>
        <time>2023-05-02T13:13:01Z</time>
      </trkpt>
      <trkpt lat="48.99553" lon="-0.48129">
        <ele>27.8</ele>
        <time>2023-05-02T13:13:02Z</time>
      </trkpt>
      <trkpt lat="48.99559" lon="-0.48122">
        <ele>27.2</ele>
        <time>2023-05-02T13:13:03Z</time>
      </trkpt>
      <trkpt lat="48.99565" lon="-0.48114">
        <ele>26.8</ele>
        <time>2023-05-02T13:13:04Z</time>
      </trkpt>
      <trkpt lat="48.9957" lon="-0.48106">
        <ele>26.2</ele>
        <time>2023-05-02T13:13:05Z</time>
      </trkpt>
      <trkpt lat="48.99576" lon="-0.48098">
        <ele>25.8</ele>
        <time>2023-05-02T13:13:06Z</time>
      </trkpt>
      <trkpt lat="48.99581" lon="-0.4809">
        <ele>25</ele>
        <time>2023-05-02T13:13:07Z</time>
      </trkpt>
      <trkpt lat="48.99587" lon="-0.48082">
        <ele>25.2</ele>
        <time>2023-05-02T13:13:08Z</time>
      </trkpt>
      <trkpt lat="48.99593" lon="-0.48074">
        <ele>26.2</ele>
        <time>2023-05-02T13:13:09Z</time>
      </trkpt>
      <trkpt lat="48.99598" lon="-0.48066">
        <ele>27</ele>
        <time>2023-05-02T13:13:10Z</time>
      </trkpt>
      <trkpt lat="48.99604" lon="-0.48058">
        <ele>27.8</ele>
        <time>2023-05-02T13:13:11Z</time>
      </trkpt>
      <trkpt lat="48.99609" lon="-0.48051">
        <ele>28.4</ele>
        <time>2023-05-02T13:13:12Z</time>
      </trkpt>
      <trkpt lat="48.99615" lon="-0.48043">
        <ele>29</ele>
        <time>2023-05-02T13:13:13Z</time>
      </trkpt>
      <trkpt lat="48.9962" lon="-0.48035">
        <ele>29.4</ele>
        <time>2023-05-02T13:13:14Z</time>
      </trkpt>
      <trkpt lat="48.99626" lon="-0.48027">
        <ele>29.6</ele>
        <time>2023-05-02T13:13:15Z</time>
      </trkpt>
      <trkpt lat="48.99631" lon="-0.48019">
        <ele>29.8</ele>
        <time>2023-05-02T13:13:16Z</time>
      </trkpt>
      <trkpt lat="48.99637" lon="-0.48012">
        <ele>29.8</ele>
        <time>2023-05-02T13:13:17Z</time>
      </trkpt>
      <trkpt lat="48.99642" lon="-0.48004">
        <ele>29.8</ele>
        <time>2023-05-02T13:13:18Z</time>
      </trkpt>
      <trkpt lat="48.99647" lon="-0.47996">
        <ele>29.8</ele>
        <time>2023-05-02T13:13:19Z</time>
      </trkpt>
      <trkpt lat="48.99653" lon="-0.47988">
        <ele>29.6</ele>
        <time>2023-05-02T13:13:20Z</time>
      </trkpt>
      <trkpt lat="48.99658" lon="-0.4798">
        <ele>29.6</ele>
        <time>2023-05-02T13:13:21Z</time>
      </trkpt>
      <trkpt lat="48.99664" lon="-0.47973">
        <ele>29.6</ele>
        <time>2023-05-02T13:13:22Z</time>
      </trkpt>
      <trkpt lat="48.99669" lon="-0.47965">
        <ele>29.6</ele>
        <time>2023-05-02T13:13:23Z</time>
      </trkpt>
      <trkpt lat="48.99675" lon="-0.47957">
        <ele>29.8</ele>
        <time>2023-05-02T13:13:24Z</time>
      </trkpt>
      <trkpt lat="48.9968" lon="-0.47949">
        <ele>29.8</ele>
        <time>2023-05-02T13:13:25Z</time>
      </trkpt>
      <trkpt lat="48.99685" lon="-0.47941">
        <ele>29.8</ele>
        <time>2023-05-02T13:13:26Z</time>
      </trkpt>
      <trkpt lat="48.99691" lon="-0.47933">
        <ele>29.8</ele>
        <time>2023-05-02T13:13:27Z</time>
      </trkpt>
      <trkpt lat="48.99696" lon="-0.47925">
        <ele>29.6</ele>
        <time>2023-05-02T13:13:28Z</time>
      </trkpt>
      <trkpt lat="48.99701" lon="-0.47917">
        <ele>29.2</ele>
        <time>2023-05-02T13:13:29Z</time>
      </trkpt>
      <trkpt lat="48.99707" lon="-0.47909">
        <ele>28.8</ele>
        <time>2023-05-02T13:13:30Z</time>
      </trkpt>
      <trkpt lat="48.99712" lon="-0.479">
        <ele>28.2</ele>
        <time>2023-05-02T13:13:31Z</time>
      </trkpt>
      <trkpt lat="48.99717" lon="-0.47892">
        <ele>27.8</ele>
        <time>2023-05-02T13:13:32Z</time>
      </trkpt>
      <trkpt lat="48.99722" lon="-0.47884">
        <ele>27.6</ele>
        <time>2023-05-02T13:13:33Z</time>
      </trkpt>
      <trkpt lat="48.99727" lon="-0.47876">
        <ele>27.2</ele>
        <time>2023-05-02T13:13:34Z</time>
      </trkpt>
      <trkpt lat="48.99732" lon="-0.47868">
        <ele>26.8</ele>
        <time>2023-05-02T13:13:35Z</time>
      </trkpt>
      <trkpt lat="48.99737" lon="-0.47859">
        <ele>26.6</ele>
        <time>2023-05-02T13:13:36Z</time>
      </trkpt>
      <trkpt lat="48.99742" lon="-0.47851">
        <ele>26.2</ele>
        <time>2023-05-02T13:13:37Z</time>
      </trkpt>
      <trkpt lat="48.99746" lon="-0.47843">
        <ele>26</ele>
        <time>2023-05-02T13:13:38Z</time>
      </trkpt>
      <trkpt lat="48.99751" lon="-0.47834">
        <ele>25.8</ele>
        <time>2023-05-02T13:13:39Z</time>
      </trkpt>
      <trkpt lat="48.99756" lon="-0.47826">
        <ele>26.2</ele>
        <time>2023-05-02T13:13:40Z</time>
      </trkpt>
      <trkpt lat="48.9976" lon="-0.47818">
        <ele>26.6</ele>
        <time>2023-05-02T13:13:41Z</time>
      </trkpt>
      <trkpt lat="48.99765" lon="-0.47809">
        <ele>26.8</ele>
        <time>2023-05-02T13:13:42Z</time>
      </trkpt>
      <trkpt lat="48.99769" lon="-0.47801">
        <ele>27</ele>
        <time>2023-05-02T13:13:43Z</time>
      </trkpt>
      <trkpt lat="48.99774" lon="-0.47792">
        <ele>27.2</ele>
        <time>2023-05-02T13:13:44Z</time>
      </trkpt>
      <trkpt lat="48.99779" lon="-0.47784">
        <ele>27.2</ele>
        <time>2023-05-02T13:13:45Z</time>
      </trkpt>
      <trkpt lat="48.99784" lon="-0.47775">
        <ele>27.2</ele>
        <time>2023-05-02T13:13:46Z</time>
      </trkpt>
      <trkpt lat="48.99789" lon="-0.47766">
        <ele>27</ele>
        <time>2023-05-02T13:13:47Z</time>
      </trkpt>
      <trkpt lat="48.99794" lon="-0.47757">
        <ele>26.8</ele>
        <time>2023-05-02T13:13:48Z</time>
      </trkpt>
      <trkpt lat="48.99799" lon="-0.47749">
        <ele>26.8</ele>
        <time>2023-05-02T13:13:49Z</time>
      </trkpt>
      <trkpt lat="48.99804" lon="-0.4774">
        <ele>26.6</ele>
        <time>2023-05-02T13:13:50Z</time>
      </trkpt>
      <trkpt lat="48.99808" lon="-0.4773">
        <ele>26.6</ele>
        <time>2023-05-02T13:13:51Z</time>
      </trkpt>
      <trkpt lat="48.99813" lon="-0.47721">
        <ele>26.6</ele>
        <time>2023-05-02T13:13:52Z</time>
      </trkpt>
      <trkpt lat="48.99817" lon="-0.47712">
        <ele>26.4</ele>
        <time>2023-05-02T13:13:53Z</time>
      </trkpt>
      <trkpt lat="48.99822" lon="-0.47703">
        <ele>26.2</ele>
        <time>2023-05-02T13:13:54Z</time>
      </trkpt>
      <trkpt lat="48.99826" lon="-0.47694">
        <ele>26.2</ele>
        <time>2023-05-02T13:13:55Z</time>
      </trkpt>
      <trkpt lat="48.9983" lon="-0.47685">
        <ele>26</ele>
        <time>2023-05-02T13:13:56Z</time>
      </trkpt>
      <trkpt lat="48.99835" lon="-0.47676">
        <ele>25.8</ele>
        <time>2023-05-02T13:13:57Z</time>
      </trkpt>
      <trkpt lat="48.99839" lon="-0.47667">
        <ele>25.8</ele>
        <time>2023-05-02T13:13:58Z</time>
      </trkpt>
      <trkpt lat="48.99844" lon="-0.47657">
        <ele>25.6</ele>
        <time>2023-05-02T13:13:59Z</time>
      </trkpt>
      <trkpt lat="48.99848" lon="-0.47648">
        <ele>25.6</ele>
        <time>2023-05-02T13:14:00Z</time>
      </trkpt>
      <trkpt lat="48.99852" lon="-0.47639">
        <ele>25.4</ele>
        <time>2023-05-02T13:14:01Z</time>
      </trkpt>
      <trkpt lat="48.99856" lon="-0.4763">
        <ele>25.2</ele>
        <time>2023-05-02T13:14:02Z</time>
      </trkpt>
      <trkpt lat="48.99861" lon="-0.47621">
        <ele>25.2</ele>
        <time>2023-05-02T13:14:03Z</time>
      </trkpt>
      <trkpt lat="48.99864" lon="-0.47611">
        <ele>25.2</ele>
        <time>2023-05-02T13:14:04Z</time>
      </trkpt>
      <trkpt lat="48.99868" lon="-0.47602">
        <ele>25.2</ele>
        <time>2023-05-02T13:14:05Z</time>
      </trkpt>
      <trkpt lat="48.99872" lon="-0.47592">
        <ele>25</ele>
        <time>2023-05-02T13:14:06Z</time>
      </trkpt>
      <trkpt lat="48.99876" lon="-0.47583">
        <ele>25</ele>
        <time>2023-05-02T13:14:07Z</time>
      </trkpt>
      <trkpt lat="48.9988" lon="-0.47573">
        <ele>25</ele>
        <time>2023-05-02T13:14:08Z</time>
      </trkpt>
      <trkpt lat="48.99883" lon="-0.47563">
        <ele>25.2</ele>
        <time>2023-05-02T13:14:09Z</time>
      </trkpt>
      <trkpt lat="48.99886" lon="-0.47553">
        <ele>25.2</ele>
        <time>2023-05-02T13:14:10Z</time>
      </trkpt>
      <trkpt lat="48.9989" lon="-0.47544">
        <ele>25.2</ele>
        <time>2023-05-02T13:14:11Z</time>
      </trkpt>
      <trkpt lat="48.99893" lon="-0.47534">
        <ele>25.2</ele>
        <time>2023-05-02T13:14:12Z</time>
      </trkpt>
      <trkpt lat="48.99896" lon="-0.47524">
        <ele>25</ele>
        <time>2023-05-02T13:14:13Z</time>
      </trkpt>
      <trkpt lat="48.99899" lon="-0.47515">
        <ele>25</ele>
        <time>2023-05-02T13:14:14Z</time>
      </trkpt>
      <trkpt lat="48.99903" lon="-0.47505">
        <ele>24.8</ele>
        <time>2023-05-02T13:14:15Z</time>
      </trkpt>
      <trkpt lat="48.99906" lon="-0.47495">
        <ele>24.8</ele>
        <time>2023-05-02T13:14:16Z</time>
      </trkpt>
      <trkpt lat="48.99909" lon="-0.47485">
        <ele>24.8</ele>
        <time>2023-05-02T13:14:17Z</time>
      </trkpt>
      <trkpt lat="48.99913" lon="-0.47475">
        <ele>24.6</ele>
        <time>2023-05-02T13:14:18Z</time>
      </trkpt>
      <trkpt lat="48.99916" lon="-0.47464">
        <ele>24.6</ele>
        <time>2023-05-02T13:14:19Z</time>
      </trkpt>
      <trkpt lat="48.99919" lon="-0.47454">
        <ele>24.6</ele>
        <time>2023-05-02T13:14:20Z</time>
      </trkpt>
      <trkpt lat="48.99922" lon="-0.47443">
        <ele>24.8</ele>
        <time>2023-05-02T13:14:21Z</time>
      </trkpt>
      <trkpt lat="48.99925" lon="-0.47432">
        <ele>24.8</ele>
        <time>2023-05-02T13:14:22Z</time>
      </trkpt>
      <trkpt lat="48.99928" lon="-0.47421">
        <ele>24.8</ele>
        <time>2023-05-02T13:14:23Z</time>
      </trkpt>
      <trkpt lat="48.99931" lon="-0.47411">
        <ele>25</ele>
        <time>2023-05-02T13:14:24Z</time>
      </trkpt>
      <trkpt lat="48.99934" lon="-0.474">
        <ele>25.2</ele>
        <time>2023-05-02T13:14:25Z</time>
      </trkpt>
      <trkpt lat="48.99936" lon="-0.47389">
        <ele>25.4</ele>
        <time>2023-05-02T13:14:26Z</time>
      </trkpt>
      <trkpt lat="48.99939" lon="-0.47378">
        <ele>25.6</ele>
        <time>2023-05-02T13:14:27Z</time>
      </trkpt>
      <trkpt lat="48.99941" lon="-0.47368">
        <ele>25.8</ele>
        <time>2023-05-02T13:14:28Z</time>
      </trkpt>
      <trkpt lat="48.99944" lon="-0.47357">
        <ele>25.8</ele>
        <time>2023-05-02T13:14:29Z</time>
      </trkpt>
      <trkpt lat="48.99946" lon="-0.47347">
        <ele>26</ele>
        <time>2023-05-02T13:14:30Z</time>
      </trkpt>
      <trkpt lat="48.99948" lon="-0.47336">
        <ele>26.2</ele>
        <time>2023-05-02T13:14:31Z</time>
      </trkpt>
      <trkpt lat="48.9995" lon="-0.47326">
        <ele>26.2</ele>
        <time>2023-05-02T13:14:32Z</time>
      </trkpt>
      <trkpt lat="48.99952" lon="-0.47316">
        <ele>26</ele>
        <time>2023-05-02T13:14:33Z</time>
      </trkpt>
      <trkpt lat="48.99953" lon="-0.47306">
        <ele>26</ele>
        <time>2023-05-02T13:14:34Z</time>
      </trkpt>
      <trkpt lat="48.99955" lon="-0.47296">
        <ele>25.8</ele>
        <time>2023-05-02T13:14:35Z</time>
      </trkpt>
      <trkpt lat="48.99957" lon="-0.47286">
        <ele>25.8</ele>
        <time>2023-05-02T13:14:36Z</time>
      </trkpt>
      <trkpt lat="48.99959" lon="-0.47275">
        <ele>25.8</ele>
        <time>2023-05-02T13:14:37Z</time>
      </trkpt>
      <trkpt lat="48.99961" lon="-0.47265">
        <ele>25.8</ele>
        <time>2023-05-02T13:14:38Z</time>
      </trkpt>
      <trkpt lat="48.99963" lon="-0.47255">
        <ele>25.6</ele>
        <time>2023-05-02T13:14:39Z</time>
      </trkpt>
      <trkpt lat="48.99965" lon="-0.47245">
        <ele>25.6</ele>
        <time>2023-05-02T13:14:40Z</time>
      </trkpt>
      <trkpt lat="48.99967" lon="-0.47235">
        <ele>25.2</ele>
        <time>2023-05-02T13:14:41Z</time>
      </trkpt>
      <trkpt lat="48.99969" lon="-0.47224">
        <ele>25.2</ele>
        <time>2023-05-02T13:14:42Z</time>
      </trkpt>
      <trkpt lat="48.9997" lon="-0.47214">
        <ele>24.8</ele>
        <time>2023-05-02T13:14:43Z</time>
      </trkpt>
      <trkpt lat="48.99972" lon="-0.47204">
        <ele>24.6</ele>
        <time>2023-05-02T13:14:44Z</time>
      </trkpt>
      <trkpt lat="48.99974" lon="-0.47193">
        <ele>24.4</ele>
        <time>2023-05-02T13:14:45Z</time>
      </trkpt>
      <trkpt lat="48.99976" lon="-0.47183">
        <ele>24.2</ele>
        <time>2023-05-02T13:14:46Z</time>
      </trkpt>
      <trkpt lat="48.99978" lon="-0.47172">
        <ele>23.8</ele>
        <time>2023-05-02T13:14:47Z</time>
      </trkpt>
      <trkpt lat="48.9998" lon="-0.47161">
        <ele>23.8</ele>
        <time>2023-05-02T13:14:48Z</time>
      </trkpt>
      <trkpt lat="48.99982" lon="-0.47151">
        <ele>23.8</ele>
        <time>2023-05-02T13:14:49Z</time>
      </trkpt>
      <trkpt lat="48.99984" lon="-0.4714">
        <ele>24.2</ele>
        <time>2023-05-02T13:14:50Z</time>
      </trkpt>
      <trkpt lat="48.99986" lon="-0.4713">
        <ele>24.2</ele>
        <time>2023-05-02T13:14:51Z</time>
      </trkpt>
      <trkpt lat="48.99988" lon="-0.47119">
        <ele>24.2</ele>
        <time>2023-05-02T13:14:52Z</time>
      </trkpt>
      <trkpt lat="48.9999" lon="-0.47108">
        <ele>24.2</ele>
        <time>2023-05-02T13:14:53Z</time>
      </trkpt>
      <trkpt lat="48.99992" lon="-0.47098">
        <ele>24.4</ele>
        <time>2023-05-02T13:14:54Z</time>
      </trkpt>
      <trkpt lat="48.99994" lon="-0.47087">
        <ele>24.6</ele>
        <time>2023-05-02T13:14:55Z</time>
      </trkpt>
      <trkpt lat="48.99996" lon="-0.47076">
        <ele>24.4</ele>
        <time>2023-05-02T13:14:56Z</time>
      </trkpt>
      <trkpt lat="48.99998" lon="-0.47065">
        <ele>24.2</ele>
        <time>2023-05-02T13:14:57Z</time>
      </trkpt>
      <trkpt lat="49" lon="-0.47055">
        <ele>24</ele>
        <time>2023-05-02T13:14:58Z</time>
      </trkpt>
      <trkpt lat="49.00002" lon="-0.47044">
        <ele>23.8</ele>
        <time>2023-05-02T13:14:59Z</time>
      </trkpt>
      <trkpt lat="49.00004" lon="-0.47033">
        <ele>23.8</ele>
        <time>2023-05-02T13:15:00Z</time>
      </trkpt>
      <trkpt lat="49.00006" lon="-0.47022">
        <ele>23.8</ele>
        <time>2023-05-02T13:15:01Z</time>
      </trkpt>
      <trkpt lat="49.00008" lon="-0.47012">
        <ele>23.8</ele>
        <time>2023-05-02T13:15:02Z</time>
      </trkpt>
      <trkpt lat="49.0001" lon="-0.47001">
        <ele>23.6</ele>
        <time>2023-05-02T13:15:03Z</time>
      </trkpt>
      <trkpt lat="49.00012" lon="-0.4699">
        <ele>23.8</ele>
        <time>2023-05-02T13:15:04Z</time>
      </trkpt>
      <trkpt lat="49.00014" lon="-0.46979">
        <ele>24</ele>
        <time>2023-05-02T13:15:05Z</time>
      </trkpt>
      <trkpt lat="49.00016" lon="-0.46968">
        <ele>24.2</ele>
        <time>2023-05-02T13:15:06Z</time>
      </trkpt>
      <trkpt lat="49.00018" lon="-0.46957">
        <ele>24.2</ele>
        <time>2023-05-02T13:15:07Z</time>
      </trkpt>
      <trkpt lat="49.0002" lon="-0.46946">
        <ele>24.6</ele>
        <time>2023-05-02T13:15:08Z</time>
      </trkpt>
      <trkpt lat="49.00022" lon="-0.46935">
        <ele>24.8</ele>
        <time>2023-05-02T13:15:09Z</time>
      </trkpt>
      <trkpt lat="49.00024" lon="-0.46925">
        <ele>24.8</ele>
        <time>2023-05-02T13:15:10Z</time>
      </trkpt>
      <trkpt lat="49.00026" lon="-0.46914">
        <ele>25</ele>
        <time>2023-05-02T13:15:11Z</time>
      </trkpt>
      <trkpt lat="49.00028" lon="-0.46903">
        <ele>25.6</ele>
        <time>2023-05-02T13:15:12Z</time>
      </trkpt>
      <trkpt lat="49.0003" lon="-0.46892">
        <ele>25.8</ele>
        <time>2023-05-02T13:15:13Z</time>
      </trkpt>
      <trkpt lat="49.00032" lon="-0.46882">
        <ele>26.2</ele>
        <time>2023-05-02T13:15:14Z</time>
      </trkpt>
      <trkpt lat="49.00034" lon="-0.46871">
        <ele>26.8</ele>
        <time>2023-05-02T13:15:15Z</time>
      </trkpt>
      <trkpt lat="49.00036" lon="-0.4686">
        <ele>27</ele>
        <time>2023-05-02T13:15:16Z</time>
      </trkpt>
      <trkpt lat="49.00038" lon="-0.4685">
        <ele>27.2</ele>
        <time>2023-05-02T13:15:17Z</time>
      </trkpt>
      <trkpt lat="49.0004" lon="-0.4684">
        <ele>27.4</ele>
        <time>2023-05-02T13:15:18Z</time>
      </trkpt>
      <trkpt lat="49.00042" lon="-0.4683">
        <ele>27.8</ele>
        <time>2023-05-02T13:15:19Z</time>
      </trkpt>
      <trkpt lat="49.00044" lon="-0.46819">
        <ele>28.6</ele>
        <time>2023-05-02T13:15:20Z</time>
      </trkpt>
      <trkpt lat="49.00047" lon="-0.46809">
        <ele>29.2</ele>
        <time>2023-05-02T13:15:21Z</time>
      </trkpt>
      <trkpt lat="49.00049" lon="-0.46799">
        <ele>29.8</ele>
        <time>2023-05-02T13:15:22Z</time>
      </trkpt>
      <trkpt lat="49.00052" lon="-0.46789">
        <ele>30.2</ele>
        <time>2023-05-02T13:15:23Z</time>
      </trkpt>
      <trkpt lat="49.00054" lon="-0.46779">
        <ele>30.6</ele>
        <time>2023-05-02T13:15:24Z</time>
      </trkpt>
      <trkpt lat="49.00057" lon="-0.46769">
        <ele>30.8</ele>
        <time>2023-05-02T13:15:25Z</time>
      </trkpt>
      <trkpt lat="49.0006" lon="-0.46759">
        <ele>30.8</ele>
        <time>2023-05-02T13:15:26Z</time>
      </trkpt>
      <trkpt lat="49.00063" lon="-0.46749">
        <ele>30.8</ele>
        <time>2023-05-02T13:15:27Z</time>
      </trkpt>
      <trkpt lat="49.00066" lon="-0.4674">
        <ele>31.6</ele>
        <time>2023-05-02T13:15:28Z</time>
      </trkpt>
      <trkpt lat="49.0007" lon="-0.4673">
        <ele>32</ele>
        <time>2023-05-02T13:15:29Z</time>
      </trkpt>
      <trkpt lat="49.00073" lon="-0.46721">
        <ele>32.6</ele>
        <time>2023-05-02T13:15:30Z</time>
      </trkpt>
      <trkpt lat="49.00077" lon="-0.46712">
        <ele>33</ele>
        <time>2023-05-02T13:15:31Z</time>
      </trkpt>
      <trkpt lat="49.00081" lon="-0.46702">
        <ele>33.2</ele>
        <time>2023-05-02T13:15:32Z</time>
      </trkpt>
      <trkpt lat="49.00085" lon="-0.46693">
        <ele>33.6</ele>
        <time>2023-05-02T13:15:33Z</time>
      </trkpt>
      <trkpt lat="49.00089" lon="-0.46684">
        <ele>34.2</ele>
        <time>2023-05-02T13:15:34Z</time>
      </trkpt>
      <trkpt lat="49.00093" lon="-0.46675">
        <ele>34.8</ele>
        <time>2023-05-02T13:15:35Z</time>
      </trkpt>
      <trkpt lat="49.00098" lon="-0.46666">
        <ele>35</ele>
        <time>2023-05-02T13:15:36Z</time>
      </trkpt>
      <trkpt lat="49.00103" lon="-0.46658">
        <ele>36</ele>
        <time>2023-05-02T13:15:37Z</time>
      </trkpt>
      <trkpt lat="49.00108" lon="-0.46649">
        <ele>36.8</ele>
        <time>2023-05-02T13:15:38Z</time>
      </trkpt>
      <trkpt lat="49.00113" lon="-0.4664">
        <ele>37.2</ele>
        <time>2023-05-02T13:15:39Z</time>
      </trkpt>
      <trkpt lat="49.00118" lon="-0.46632">
        <ele>37.8</ele>
        <time>2023-05-02T13:15:40Z</time>
      </trkpt>
      <trkpt lat="49.00124" lon="-0.46624">
        <ele>37.8</ele>
        <time>2023-05-02T13:15:41Z</time>
      </trkpt>
      <trkpt lat="49.00129" lon="-0.46616">
        <ele>37.8</ele>
        <time>2023-05-02T13:15:42Z</time>
      </trkpt>
      <trkpt lat="49.00135" lon="-0.46609">
        <ele>37.6</ele>
        <time>2023-05-02T13:15:43Z</time>
      </trkpt>
      <trkpt lat="49.0014" lon="-0.46601">
        <ele>37.2</ele>
        <time>2023-05-02T13:15:44Z</time>
      </trkpt>
      <trkpt lat="49.00145" lon="-0.46594">
        <ele>37</ele>
        <time>2023-05-02T13:15:45Z</time>
      </trkpt>
      <trkpt lat="49.0015" lon="-0.46587">
        <ele>36.6</ele>
        <time>2023-05-02T13:15:46Z</time>
      </trkpt>
      <trkpt lat="49.00156" lon="-0.4658">
        <ele>36.2</ele>
        <time>2023-05-02T13:15:47Z</time>
      </trkpt>
      <trkpt lat="49.00161" lon="-0.46573">
        <ele>36.4</ele>
        <time>2023-05-02T13:15:48Z</time>
      </trkpt>
      <trkpt lat="49.00167" lon="-0.46567">
        <ele>36.2</ele>
        <time>2023-05-02T13:15:49Z</time>
      </trkpt>
      <trkpt lat="49.00173" lon="-0.46561">
        <ele>37.2</ele>
        <time>2023-05-02T13:15:50Z</time>
      </trkpt>
      <trkpt lat="49.00179" lon="-0.46555">
        <ele>38</ele>
        <time>2023-05-02T13:15:51Z</time>
      </trkpt>
      <trkpt lat="49.00185" lon="-0.46549">
        <ele>38.6</ele>
        <time>2023-05-02T13:15:52Z</time>
      </trkpt>
      <trkpt lat="49.0019" lon="-0.46544">
        <ele>39</ele>
        <time>2023-05-02T13:15:53Z</time>
      </trkpt>
      <trkpt lat="49.00196" lon="-0.46538">
        <ele>39</ele>
        <time>2023-05-02T13:15:54Z</time>
      </trkpt>
      <trkpt lat="49.00202" lon="-0.46534">
        <ele>39.2</ele>
        <time>2023-05-02T13:15:55Z</time>
      </trkpt>
      <trkpt lat="49.00208" lon="-0.46529">
        <ele>39</ele>
        <time>2023-05-02T13:15:56Z</time>
      </trkpt>
      <trkpt lat="49.00214" lon="-0.46525">
        <ele>39</ele>
        <time>2023-05-02T13:15:57Z</time>
      </trkpt>
      <trkpt lat="49.0022" lon="-0.46521">
        <ele>38.6</ele>
        <time>2023-05-02T13:15:58Z</time>
      </trkpt>
      <trkpt lat="49.00226" lon="-0.46517">
        <ele>38</ele>
        <time>2023-05-02T13:15:59Z</time>
      </trkpt>
      <trkpt lat="49.00232" lon="-0.46514">
        <ele>37.4</ele>
        <time>2023-05-02T13:16:00Z</time>
      </trkpt>
      <trkpt lat="49.00239" lon="-0.46512">
        <ele>36.6</ele>
        <time>2023-05-02T13:16:01Z</time>
      </trkpt>
      <trkpt lat="49.00245" lon="-0.4651">
        <ele>35.6</ele>
        <time>2023-05-02T13:16:02Z</time>
      </trkpt>
      <trkpt lat="49.00251" lon="-0.46509">
        <ele>34.6</ele>
        <time>2023-05-02T13:16:03Z</time>
      </trkpt>
      <trkpt lat="49.00257" lon="-0.46508">
        <ele>34</ele>
        <time>2023-05-02T13:16:04Z</time>
      </trkpt>
      <trkpt lat="49.00264" lon="-0.46507">
        <ele>33.6</ele>
        <time>2023-05-02T13:16:05Z</time>
      </trkpt>
      <trkpt lat="49.0027" lon="-0.46505">
        <ele>33.2</ele>
        <time>2023-05-02T13:16:06Z</time>
      </trkpt>
      <trkpt lat="49.00277" lon="-0.46504">
        <ele>32.8</ele>
        <time>2023-05-02T13:16:07Z</time>
      </trkpt>
      <trkpt lat="49.00283" lon="-0.46503">
        <ele>32.2</ele>
        <time>2023-05-02T13:16:08Z</time>
      </trkpt>
      <trkpt lat="49.00289" lon="-0.46502">
        <ele>31.6</ele>
        <time>2023-05-02T13:16:09Z</time>
      </trkpt>
      <trkpt lat="49.00295" lon="-0.46501">
        <ele>31</ele>
        <time>2023-05-02T13:16:10Z</time>
      </trkpt>
      <trkpt lat="49.00302" lon="-0.465">
        <ele>30.4</ele>
        <time>2023-05-02T13:16:11Z</time>
      </trkpt>
      <trkpt lat="49.00309" lon="-0.46499">
        <ele>30</ele>
        <time>2023-05-02T13:16:12Z</time>
      </trkpt>
      <trkpt lat="49.00316" lon="-0.46498">
        <ele>29.6</ele>
        <time>2023-05-02T13:16:13Z</time>
      </trkpt>
      <trkpt lat="49.00324" lon="-0.46497">
        <ele>29.2</ele>
        <time>2023-05-02T13:16:14Z</time>
      </trkpt>
      <trkpt lat="49.00331" lon="-0.46496">
        <ele>28.8</ele>
        <time>2023-05-02T13:16:15Z</time>
      </trkpt>
      <trkpt lat="49.00338" lon="-0.46495">
        <ele>29.2</ele>
        <time>2023-05-02T13:16:16Z</time>
      </trkpt>
      <trkpt lat="49.00345" lon="-0.46494">
        <ele>30.6</ele>
        <time>2023-05-02T13:16:17Z</time>
      </trkpt>
      <trkpt lat="49.00353" lon="-0.46493">
        <ele>31.6</ele>
        <time>2023-05-02T13:16:18Z</time>
      </trkpt>
      <trkpt lat="49.0036" lon="-0.46492">
        <ele>32.6</ele>
        <time>2023-05-02T13:16:19Z</time>
      </trkpt>
      <trkpt lat="49.00367" lon="-0.46492">
        <ele>33.4</ele>
        <time>2023-05-02T13:16:20Z</time>
      </trkpt>
      <trkpt lat="49.00375" lon="-0.46492">
        <ele>34</ele>
        <time>2023-05-02T13:16:21Z</time>
      </trkpt>
      <trkpt lat="49.00382" lon="-0.46492">
        <ele>34.6</ele>
        <time>2023-05-02T13:16:22Z</time>
      </trkpt>
      <trkpt lat="49.00389" lon="-0.46494">
        <ele>34.8</ele>
        <time>2023-05-02T13:16:23Z</time>
      </trkpt>
      <trkpt lat="49.00396" lon="-0.46495">
        <ele>35</ele>
        <time>2023-05-02T13:16:24Z</time>
      </trkpt>
      <trkpt lat="49.00403" lon="-0.46497">
        <ele>35</ele>
        <time>2023-05-02T13:16:25Z</time>
      </trkpt>
      <trkpt lat="49.0041" lon="-0.46498">
        <ele>35</ele>
        <time>2023-05-02T13:16:26Z</time>
      </trkpt>
      <trkpt lat="49.00417" lon="-0.46501">
        <ele>35</ele>
        <time>2023-05-02T13:16:27Z</time>
      </trkpt>
      <trkpt lat="49.00423" lon="-0.46503">
        <ele>35.4</ele>
        <time>2023-05-02T13:16:28Z</time>
      </trkpt>
      <trkpt lat="49.0043" lon="-0.46506">
        <ele>35.8</ele>
        <time>2023-05-02T13:16:29Z</time>
      </trkpt>
      <trkpt lat="49.00437" lon="-0.46509">
        <ele>36.2</ele>
        <time>2023-05-02T13:16:30Z</time>
      </trkpt>
      <trkpt lat="49.00444" lon="-0.46512">
        <ele>36.6</ele>
        <time>2023-05-02T13:16:31Z</time>
      </trkpt>
      <trkpt lat="49.00451" lon="-0.46515">
        <ele>36.6</ele>
        <time>2023-05-02T13:16:32Z</time>
      </trkpt>
      <trkpt lat="49.00458" lon="-0.46519">
        <ele>36.6</ele>
        <time>2023-05-02T13:16:33Z</time>
      </trkpt>
      <trkpt lat="49.00464" lon="-0.46523">
        <ele>36.6</ele>
        <time>2023-05-02T13:16:34Z</time>
      </trkpt>
      <trkpt lat="49.00471" lon="-0.46528">
        <ele>36.2</ele>
        <time>2023-05-02T13:16:35Z</time>
      </trkpt>
      <trkpt lat="49.00478" lon="-0.46532">
        <ele>36</ele>
        <time>2023-05-02T13:16:36Z</time>
      </trkpt>
      <trkpt lat="49.00484" lon="-0.46537">
        <ele>35.6</ele>
        <time>2023-05-02T13:16:37Z</time>
      </trkpt>
      <trkpt lat="49.00491" lon="-0.46543">
        <ele>34.8</ele>
        <time>2023-05-02T13:16:38Z</time>
      </trkpt>
      <trkpt lat="49.00497" lon="-0.46548">
        <ele>34</ele>
        <time>2023-05-02T13:16:39Z</time>
      </trkpt>
      <trkpt lat="49.00503" lon="-0.46554">
        <ele>33.6</ele>
        <time>2023-05-02T13:16:40Z</time>
      </trkpt>
      <trkpt lat="49.00509" lon="-0.4656">
        <ele>33.6</ele>
        <time>2023-05-02T13:16:41Z</time>
      </trkpt>
      <trkpt lat="49.00515" lon="-0.46566">
        <ele>33.2</ele>
        <time>2023-05-02T13:16:42Z</time>
      </trkpt>
      <trkpt lat="49.0052" lon="-0.46573">
        <ele>33</ele>
        <time>2023-05-02T13:16:43Z</time>
      </trkpt>
      <trkpt lat="49.00526" lon="-0.4658">
        <ele>32.8</ele>
        <time>2023-05-02T13:16:44Z</time>
      </trkpt>
      <trkpt lat="49.00531" lon="-0.46587">
        <ele>33</ele>
        <time>2023-05-02T13:16:45Z</time>
      </trkpt>
      <trkpt lat="49.00536" lon="-0.46594">
        <ele>33.4</ele>
        <time>2023-05-02T13:16:46Z</time>
      </trkpt>
      <trkpt lat="49.00541" lon="-0.46601">
        <ele>33.8</ele>
        <time>2023-05-02T13:16:47Z</time>
      </trkpt>
      <trkpt lat="49.00546" lon="-0.46609">
        <ele>34</ele>
        <time>2023-05-02T13:16:48Z</time>
      </trkpt>
      <trkpt lat="49.00551" lon="-0.46616">
        <ele>34</ele>
        <time>2023-05-02T13:16:49Z</time>
      </trkpt>
      <trkpt lat="49.00555" lon="-0.46624">
        <ele>33.8</ele>
        <time>2023-05-02T13:16:50Z</time>
      </trkpt>
      <trkpt lat="49.0056" lon="-0.46632">
        <ele>33.4</ele>
        <time>2023-05-02T13:16:51Z</time>
      </trkpt>
      <trkpt lat="49.00564" lon="-0.46641">
        <ele>33</ele>
        <time>2023-05-02T13:16:52Z</time>
      </trkpt>
      <trkpt lat="49.00569" lon="-0.46649">
        <ele>32.2</ele>
        <time>2023-05-02T13:16:53Z</time>
      </trkpt>
      <trkpt lat="49.00573" lon="-0.46658">
        <ele>31.2</ele>
        <time>2023-05-02T13:16:54Z</time>
      </trkpt>
      <trkpt lat="49.00577" lon="-0.46667">
        <ele>30.2</ele>
        <time>2023-05-02T13:16:55Z</time>
      </trkpt>
      <trkpt lat="49.00582" lon="-0.46676">
        <ele>30.2</ele>
        <time>2023-05-02T13:16:56Z</time>
      </trkpt>
      <trkpt lat="49.00586" lon="-0.46685">
        <ele>30</ele>
        <time>2023-05-02T13:16:57Z</time>
      </trkpt>
      <trkpt lat="49.0059" lon="-0.46694">
        <ele>30</ele>
        <time>2023-05-02T13:16:58Z</time>
      </trkpt>
      <trkpt lat="49.00594" lon="-0.46703">
        <ele>30</ele>
        <time>2023-05-02T13:16:59Z</time>
      </trkpt>
      <trkpt lat="49.00598" lon="-0.46712">
        <ele>30</ele>
        <time>2023-05-02T13:17:00Z</time>
      </trkpt>
      <trkpt lat="49.00602" lon="-0.4672">
        <ele>30</ele>
        <time>2023-05-02T13:17:01Z</time>
      </trkpt>
      <trkpt lat="49.00606" lon="-0.46729">
        <ele>29.8</ele>
        <time>2023-05-02T13:17:02Z</time>
      </trkpt>
      <trkpt lat="49.0061" lon="-0.46738">
        <ele>29.8</ele>
        <time>2023-05-02T13:17:03Z</time>
      </trkpt>
      <trkpt lat="49.00613" lon="-0.46747">
        <ele>29.8</ele>
        <time>2023-05-02T13:17:04Z</time>
      </trkpt>
      <trkpt lat="49.00617" lon="-0.46756">
        <ele>29.8</ele>
        <time>2023-05-02T13:17:05Z</time>
      </trkpt>
      <trkpt lat="49.00622" lon="-0.46765">
        <ele>29.8</ele>
        <time>2023-05-02T13:17:06Z</time>
      </trkpt>
      <trkpt lat="49.00626" lon="-0.46774">
        <ele>29.8</ele>
        <time>2023-05-02T13:17:07Z</time>
      </trkpt>
      <trkpt lat="49.0063" lon="-0.46783">
        <ele>29.8</ele>
        <time>2023-05-02T13:17:08Z</time>
      </trkpt>
      <trkpt lat="49.00634" lon="-0.46791">
        <ele>29.8</ele>
        <time>2023-05-02T13:17:09Z</time>
      </trkpt>
      <trkpt lat="49.00638" lon="-0.468">
        <ele>29.6</ele>
        <time>2023-05-02T13:17:10Z</time>
      </trkpt>
      <trkpt lat="49.00642" lon="-0.4681">
        <ele>29.4</ele>
        <time>2023-05-02T13:17:11Z</time>
      </trkpt>
      <trkpt lat="49.00646" lon="-0.46819">
        <ele>29.2</ele>
        <time>2023-05-02T13:17:12Z</time>
      </trkpt>
      <trkpt lat="49.0065" lon="-0.46828">
        <ele>28.8</ele>
        <time>2023-05-02T13:17:13Z</time>
      </trkpt>
      <trkpt lat="49.00654" lon="-0.46837">
        <ele>28.4</ele>
        <time>2023-05-02T13:17:14Z</time>
      </trkpt>
      <trkpt lat="49.00658" lon="-0.46846">
        <ele>28</ele>
        <time>2023-05-02T13:17:15Z</time>
      </trkpt>
      <trkpt lat="49.00662" lon="-0.46855">
        <ele>27.6</ele>
        <time>2023-05-02T13:17:16Z</time>
      </trkpt>
      <trkpt lat="49.00667" lon="-0.46864">
        <ele>27.2</ele>
        <time>2023-05-02T13:17:17Z</time>
      </trkpt>
      <trkpt lat="49.00671" lon="-0.46873">
        <ele>26.8</ele>
        <time>2023-05-02T13:17:18Z</time>
      </trkpt>
      <trkpt lat="49.00676" lon="-0.46881">
        <ele>26.4</ele>
        <time>2023-05-02T13:17:19Z</time>
      </trkpt>
      <trkpt lat="49.0068" lon="-0.4689">
        <ele>26.2</ele>
        <time>2023-05-02T13:17:20Z</time>
      </trkpt>
      <trkpt lat="49.00685" lon="-0.46899">
        <ele>25.8</ele>
        <time>2023-05-02T13:17:21Z</time>
      </trkpt>
      <trkpt lat="49.00689" lon="-0.46907">
        <ele>25.4</ele>
        <time>2023-05-02T13:17:22Z</time>
      </trkpt>
      <trkpt lat="49.00694" lon="-0.46915">
        <ele>25.2</ele>
        <time>2023-05-02T13:17:23Z</time>
      </trkpt>
      <trkpt lat="49.00699" lon="-0.46924">
        <ele>25.2</ele>
        <time>2023-05-02T13:17:24Z</time>
      </trkpt>
      <trkpt lat="49.00704" lon="-0.46932">
        <ele>25.2</ele>
        <time>2023-05-02T13:17:25Z</time>
      </trkpt>
      <trkpt lat="49.00709" lon="-0.4694">
        <ele>25.2</ele>
        <time>2023-05-02T13:17:26Z</time>
      </trkpt>
      <trkpt lat="49.00714" lon="-0.46948">
        <ele>25</ele>
        <time>2023-05-02T13:17:27Z</time>
      </trkpt>
      <trkpt lat="49.00718" lon="-0.46956">
        <ele>24.8</ele>
        <time>2023-05-02T13:17:28Z</time>
      </trkpt>
      <trkpt lat="49.00724" lon="-0.46964">
        <ele>24.8</ele>
        <time>2023-05-02T13:17:29Z</time>
      </trkpt>
      <trkpt lat="49.00729" lon="-0.46971">
        <ele>24.4</ele>
        <time>2023-05-02T13:17:30Z</time>
      </trkpt>
      <trkpt lat="49.00734" lon="-0.46978">
        <ele>24.2</ele>
        <time>2023-05-02T13:17:31Z</time>
      </trkpt>
      <trkpt lat="49.00739" lon="-0.46984">
        <ele>24</ele>
        <time>2023-05-02T13:17:32Z</time>
      </trkpt>
      <trkpt lat="49.00744" lon="-0.46991">
        <ele>23.8</ele>
        <time>2023-05-02T13:17:33Z</time>
      </trkpt>
      <trkpt lat="49.0075" lon="-0.46997">
        <ele>23.2</ele>
        <time>2023-05-02T13:17:34Z</time>
      </trkpt>
      <trkpt lat="49.00755" lon="-0.47004">
        <ele>23.2</ele>
        <time>2023-05-02T13:17:35Z</time>
      </trkpt>
      <trkpt lat="49.0076" lon="-0.47011">
        <ele>23.2</ele>
        <time>2023-05-02T13:17:36Z</time>
      </trkpt>
      <trkpt lat="49.00764" lon="-0.47018">
        <ele>23.2</ele>
        <time>2023-05-02T13:17:37Z</time>
      </trkpt>
      <trkpt lat="49.00768" lon="-0.47025">
        <ele>23.2</ele>
        <time>2023-05-02T13:17:38Z</time>
      </trkpt>
      <trkpt lat="49.00773" lon="-0.47032">
        <ele>23.2</ele>
        <time>2023-05-02T13:17:39Z</time>
      </trkpt>
      <trkpt lat="49.00779" lon="-0.47038">
        <ele>23</ele>
        <time>2023-05-02T13:17:40Z</time>
      </trkpt>
      <trkpt lat="49.00784" lon="-0.47045">
        <ele>23</ele>
        <time>2023-05-02T13:17:41Z</time>
      </trkpt>
      <trkpt lat="49.0079" lon="-0.47052">
        <ele>22.8</ele>
        <time>2023-05-02T13:17:42Z</time>
      </trkpt>
      <trkpt lat="49.00797" lon="-0.47058">
        <ele>22.8</ele>
        <time>2023-05-02T13:17:43Z</time>
      </trkpt>
      <trkpt lat="49.00803" lon="-0.47064">
        <ele>22.6</ele>
        <time>2023-05-02T13:17:44Z</time>
      </trkpt>
      <trkpt lat="49.00809" lon="-0.4707">
        <ele>22.2</ele>
        <time>2023-05-02T13:17:45Z</time>
      </trkpt>
      <trkpt lat="49.00815" lon="-0.47076">
        <ele>22.2</ele>
        <time>2023-05-02T13:17:46Z</time>
      </trkpt>
      <trkpt lat="49.00822" lon="-0.47082">
        <ele>21.8</ele>
        <time>2023-05-02T13:17:47Z</time>
      </trkpt>
      <trkpt lat="49.00828" lon="-0.47087">
        <ele>21.8</ele>
        <time>2023-05-02T13:17:48Z</time>
      </trkpt>
      <trkpt lat="49.00834" lon="-0.47093">
        <ele>21.8</ele>
        <time>2023-05-02T13:17:49Z</time>
      </trkpt>
      <trkpt lat="49.0084" lon="-0.47099">
        <ele>21.8</ele>
        <time>2023-05-02T13:17:50Z</time>
      </trkpt>
      <trkpt lat="49.00846" lon="-0.47104">
        <ele>21.8</ele>
        <time>2023-05-02T13:17:51Z</time>
      </trkpt>
      <trkpt lat="49.00853" lon="-0.4711">
        <ele>21.8</ele>
        <time>2023-05-02T13:17:52Z</time>
      </trkpt>
      <trkpt lat="49.0086" lon="-0.47115">
        <ele>21.8</ele>
        <time>2023-05-02T13:17:53Z</time>
      </trkpt>
      <trkpt lat="49.00867" lon="-0.4712">
        <ele>22</ele>
        <time>2023-05-02T13:17:54Z</time>
      </trkpt>
      <trkpt lat="49.00874" lon="-0.47125">
        <ele>22</ele>
        <time>2023-05-02T13:17:55Z</time>
      </trkpt>
      <trkpt lat="49.00881" lon="-0.47129">
        <ele>22</ele>
        <time>2023-05-02T13:17:56Z</time>
      </trkpt>
      <trkpt lat="49.00888" lon="-0.47133">
        <ele>22.2</ele>
        <time>2023-05-02T13:17:57Z</time>
      </trkpt>
      <trkpt lat="49.00894" lon="-0.47137">
        <ele>22.2</ele>
        <time>2023-05-02T13:17:58Z</time>
      </trkpt>
      <trkpt lat="49.00901" lon="-0.47141">
        <ele>22.2</ele>
        <time>2023-05-02T13:17:59Z</time>
      </trkpt>
      <trkpt lat="49.00908" lon="-0.47145">
        <ele>22.2</ele>
        <time>2023-05-02T13:18:00Z</time>
      </trkpt>
      <trkpt lat="49.00914" lon="-0.47149">
        <ele>22.2</ele>
        <time>2023-05-02T13:18:01Z</time>
      </trkpt>
      <trkpt lat="49.0092" lon="-0.47153">
        <ele>22.2</ele>
        <time>2023-05-02T13:18:02Z</time>
      </trkpt>
      <trkpt lat="49.00927" lon="-0.47156">
        <ele>22.2</ele>
        <time>2023-05-02T13:18:03Z</time>
      </trkpt>
      <trkpt lat="49.00933" lon="-0.4716">
        <ele>22.2</ele>
        <time>2023-05-02T13:18:04Z</time>
      </trkpt>
      <trkpt lat="49.0094" lon="-0.47163">
        <ele>22.4</ele>
        <time>2023-05-02T13:18:05Z</time>
      </trkpt>
      <trkpt lat="49.00946" lon="-0.47166">
        <ele>22.4</ele>
        <time>2023-05-02T13:18:06Z</time>
      </trkpt>
      <trkpt lat="49.00953" lon="-0.47169">
        <ele>22.4</ele>
        <time>2023-05-02T13:18:07Z</time>
      </trkpt>
      <trkpt lat="49.0096" lon="-0.47172">
        <ele>22.4</ele>
        <time>2023-05-02T13:18:08Z</time>
      </trkpt>
      <trkpt lat="49.00967" lon="-0.47175">
        <ele>22.6</ele>
        <time>2023-05-02T13:18:09Z</time>
      </trkpt>
      <trkpt lat="49.00974" lon="-0.47178">
        <ele>22.6</ele>
        <time>2023-05-02T13:18:10Z</time>
      </trkpt>
      <trkpt lat="49.0098" lon="-0.4718">
        <ele>22.6</ele>
        <time>2023-05-02T13:18:11Z</time>
      </trkpt>
      <trkpt lat="49.00987" lon="-0.47182">
        <ele>22.6</ele>
        <time>2023-05-02T13:18:12Z</time>
      </trkpt>
      <trkpt lat="49.00994" lon="-0.47184">
        <ele>22.6</ele>
        <time>2023-05-02T13:18:13Z</time>
      </trkpt>
      <trkpt lat="49.01" lon="-0.47186">
        <ele>22.6</ele>
        <time>2023-05-02T13:18:14Z</time>
      </trkpt>
      <trkpt lat="49.01006" lon="-0.47188">
        <ele>22.6</ele>
        <time>2023-05-02T13:18:15Z</time>
      </trkpt>
      <trkpt lat="49.01011" lon="-0.4719">
        <ele>22.6</ele>
        <time>2023-05-02T13:18:16Z</time>
      </trkpt>
      <trkpt lat="49.01018" lon="-0.47192">
        <ele>22.6</ele>
        <time>2023-05-02T13:18:17Z</time>
      </trkpt>
      <trkpt lat="49.01025" lon="-0.47193">
        <ele>22.6</ele>
        <time>2023-05-02T13:18:18Z</time>
      </trkpt>
      <trkpt lat="49.01032" lon="-0.47195">
        <ele>22.6</ele>
        <time>2023-05-02T13:18:19Z</time>
      </trkpt>
      <trkpt lat="49.01039" lon="-0.47196">
        <ele>22.6</ele>
        <time>2023-05-02T13:18:20Z</time>
      </trkpt>
      <trkpt lat="49.01046" lon="-0.47197">
        <ele>22.6</ele>
        <time>2023-05-02T13:18:21Z</time>
      </trkpt>
      <trkpt lat="49.01053" lon="-0.47198">
        <ele>22.6</ele>
        <time>2023-05-02T13:18:22Z</time>
      </trkpt>
      <trkpt lat="49.0106" lon="-0.472">
        <ele>22.6</ele>
        <time>2023-05-02T13:18:23Z</time>
      </trkpt>
      <trkpt lat="49.01066" lon="-0.472">
        <ele>22.8</ele>
        <time>2023-05-02T13:18:24Z</time>
      </trkpt>
      <trkpt lat="49.01073" lon="-0.47201">
        <ele>22.8</ele>
        <time>2023-05-02T13:18:25Z</time>
      </trkpt>
      <trkpt lat="49.0108" lon="-0.47202">
        <ele>22.8</ele>
        <time>2023-05-02T13:18:26Z</time>
      </trkpt>
      <trkpt lat="49.01086" lon="-0.47202">
        <ele>22.8</ele>
        <time>2023-05-02T13:18:27Z</time>
      </trkpt>
      <trkpt lat="49.01093" lon="-0.47203">
        <ele>22.8</ele>
        <time>2023-05-02T13:18:28Z</time>
      </trkpt>
      <trkpt lat="49.011" lon="-0.47203">
        <ele>23</ele>
        <time>2023-05-02T13:18:29Z</time>
      </trkpt>
      <trkpt lat="49.01106" lon="-0.47203">
        <ele>23.2</ele>
        <time>2023-05-02T13:18:30Z</time>
      </trkpt>
      <trkpt lat="49.01113" lon="-0.47203">
        <ele>23.2</ele>
        <time>2023-05-02T13:18:31Z</time>
      </trkpt>
      <trkpt lat="49.0112" lon="-0.47202">
        <ele>23.2</ele>
        <time>2023-05-02T13:18:32Z</time>
      </trkpt>
      <trkpt lat="49.01127" lon="-0.47202">
        <ele>23.6</ele>
        <time>2023-05-02T13:18:33Z</time>
      </trkpt>
      <trkpt lat="49.01133" lon="-0.47201">
        <ele>23.6</ele>
        <time>2023-05-02T13:18:34Z</time>
      </trkpt>
      <trkpt lat="49.0114" lon="-0.47201">
        <ele>23.8</ele>
        <time>2023-05-02T13:18:35Z</time>
      </trkpt>
      <trkpt lat="49.01147" lon="-0.472">
        <ele>23.8</ele>
        <time>2023-05-02T13:18:36Z</time>
      </trkpt>
      <trkpt lat="49.01153" lon="-0.47199">
        <ele>24</ele>
        <time>2023-05-02T13:18:37Z</time>
      </trkpt>
      <trkpt lat="49.0116" lon="-0.47198">
        <ele>24.2</ele>
        <time>2023-05-02T13:18:38Z</time>
      </trkpt>
      <trkpt lat="49.01167" lon="-0.47197">
        <ele>24.2</ele>
        <time>2023-05-02T13:18:39Z</time>
      </trkpt>
      <trkpt lat="49.01173" lon="-0.47196">
        <ele>24.2</ele>
        <time>2023-05-02T13:18:40Z</time>
      </trkpt>
      <trkpt lat="49.0118" lon="-0.47195">
        <ele>24.4</ele>
        <time>2023-05-02T13:18:41Z</time>
      </trkpt>
      <trkpt lat="49.01187" lon="-0.47193">
        <ele>24.4</ele>
        <time>2023-05-02T13:18:42Z</time>
      </trkpt>
      <trkpt lat="49.01193" lon="-0.47192">
        <ele>24.6</ele>
        <time>2023-05-02T13:18:43Z</time>
      </trkpt>
      <trkpt lat="49.012" lon="-0.4719">
        <ele>24.6</ele>
        <time>2023-05-02T13:18:44Z</time>
      </trkpt>
      <trkpt lat="49.01206" lon="-0.47188">
        <ele>24.8</ele>
        <time>2023-05-02T13:18:45Z</time>
      </trkpt>
      <trkpt lat="49.01213" lon="-0.47187">
        <ele>24.8</ele>
        <time>2023-05-02T13:18:46Z</time>
      </trkpt>
      <trkpt lat="49.01219" lon="-0.47184">
        <ele>24.8</ele>
        <time>2023-05-02T13:18:47Z</time>
      </trkpt>
      <trkpt lat="49.01226" lon="-0.47182">
        <ele>25.2</ele>
        <time>2023-05-02T13:18:48Z</time>
      </trkpt>
      <trkpt lat="49.01232" lon="-0.4718">
        <ele>25.2</ele>
        <time>2023-05-02T13:18:49Z</time>
      </trkpt>
      <trkpt lat="49.01239" lon="-0.47177">
        <ele>25.4</ele>
        <time>2023-05-02T13:18:50Z</time>
      </trkpt>
      <trkpt lat="49.01245" lon="-0.47174">
        <ele>25.6</ele>
        <time>2023-05-02T13:18:51Z</time>
      </trkpt>
      <trkpt lat="49.01252" lon="-0.47171">
        <ele>25.8</ele>
        <time>2023-05-02T13:18:52Z</time>
      </trkpt>
      <trkpt lat="49.01259" lon="-0.47168">
        <ele>25.8</ele>
        <time>2023-05-02T13:18:53Z</time>
      </trkpt>
      <trkpt lat="49.01265" lon="-0.47166">
        <ele>25.8</ele>
        <time>2023-05-02T13:18:54Z</time>
      </trkpt>
      <trkpt lat="49.01272" lon="-0.47163">
        <ele>25.6</ele>
        <time>2023-05-02T13:18:55Z</time>
      </trkpt>
      <trkpt lat="49.01278" lon="-0.47159">
        <ele>25.6</ele>
        <time>2023-05-02T13:18:56Z</time>
      </trkpt>
      <trkpt lat="49.01284" lon="-0.47156">
        <ele>25.6</ele>
        <time>2023-05-02T13:18:57Z</time>
      </trkpt>
      <trkpt lat="49.01291" lon="-0.47152">
        <ele>25.6</ele>
        <time>2023-05-02T13:18:58Z</time>
      </trkpt>
      <trkpt lat="49.01297" lon="-0.47148">
        <ele>25.4</ele>
        <time>2023-05-02T13:18:59Z</time>
      </trkpt>
      <trkpt lat="49.01303" lon="-0.47144">
        <ele>25.4</ele>
        <time>2023-05-02T13:19:00Z</time>
      </trkpt>
      <trkpt lat="49.0131" lon="-0.4714">
        <ele>25.4</ele>
        <time>2023-05-02T13:19:01Z</time>
      </trkpt>
      <trkpt lat="49.01316" lon="-0.47136">
        <ele>25.4</ele>
        <time>2023-05-02T13:19:02Z</time>
      </trkpt>
      <trkpt lat="49.01322" lon="-0.47132">
        <ele>25.6</ele>
        <time>2023-05-02T13:19:03Z</time>
      </trkpt>
      <trkpt lat="49.01328" lon="-0.47128">
        <ele>25.6</ele>
        <time>2023-05-02T13:19:04Z</time>
      </trkpt>
      <trkpt lat="49.01335" lon="-0.47123">
        <ele>25.6</ele>
        <time>2023-05-02T13:19:05Z</time>
      </trkpt>
      <trkpt lat="49.01341" lon="-0.47119">
        <ele>25.6</ele>
        <time>2023-05-02T13:19:06Z</time>
      </trkpt>
      <trkpt lat="49.01347" lon="-0.47114">
        <ele>25.4</ele>
        <time>2023-05-02T13:19:07Z</time>
      </trkpt>
      <trkpt lat="49.01353" lon="-0.47109">
        <ele>25.4</ele>
        <time>2023-05-02T13:19:08Z</time>
      </trkpt>
      <trkpt lat="49.01359" lon="-0.47104">
        <ele>25.2</ele>
        <time>2023-05-02T13:19:09Z</time>
      </trkpt>
      <trkpt lat="49.01365" lon="-0.47099">
        <ele>25.2</ele>
        <time>2023-05-02T13:19:10Z</time>
      </trkpt>
      <trkpt lat="49.01371" lon="-0.47094">
        <ele>25.2</ele>
        <time>2023-05-02T13:19:11Z</time>
      </trkpt>
      <trkpt lat="49.01377" lon="-0.47089">
        <ele>25.2</ele>
        <time>2023-05-02T13:19:12Z</time>
      </trkpt>
      <trkpt lat="49.01382" lon="-0.47084">
        <ele>25.2</ele>
        <time>2023-05-02T13:19:13Z</time>
      </trkpt>
      <trkpt lat="49.01388" lon="-0.47079">
        <ele>25.2</ele>
        <time>2023-05-02T13:19:14Z</time>
      </trkpt>
      <trkpt lat="49.01394" lon="-0.47073">
        <ele>25.2</ele>
        <time>2023-05-02T13:19:15Z</time>
      </trkpt>
      <trkpt lat="49.014" lon="-0.47067">
        <ele>25.2</ele>
        <time>2023-05-02T13:19:16Z</time>
      </trkpt>
      <trkpt lat="49.01406" lon="-0.47062">
        <ele>25.4</ele>
        <time>2023-05-02T13:19:17Z</time>
      </trkpt>
      <trkpt lat="49.01411" lon="-0.47056">
        <ele>25.6</ele>
        <time>2023-05-02T13:19:18Z</time>
      </trkpt>
      <trkpt lat="49.01417" lon="-0.4705">
        <ele>25.6</ele>
        <time>2023-05-02T13:19:19Z</time>
      </trkpt>
      <trkpt lat="49.01423" lon="-0.47045">
        <ele>25.6</ele>
        <time>2023-05-02T13:19:20Z</time>
      </trkpt>
      <trkpt lat="49.01428" lon="-0.47039">
        <ele>25.6</ele>
        <time>2023-05-02T13:19:21Z</time>
      </trkpt>
      <trkpt lat="49.01434" lon="-0.47034">
        <ele>25.6</ele>
        <time>2023-05-02T13:19:22Z</time>
      </trkpt>
      <trkpt lat="49.0144" lon="-0.47028">
        <ele>25.6</ele>
        <time>2023-05-02T13:19:23Z</time>
      </trkpt>
      <trkpt lat="49.01446" lon="-0.47022">
        <ele>25.6</ele>
        <time>2023-05-02T13:19:24Z</time>
      </trkpt>
      <trkpt lat="49.01452" lon="-0.47016">
        <ele>25.6</ele>
        <time>2023-05-02T13:19:25Z</time>
      </trkpt>
      <trkpt lat="49.01458" lon="-0.4701">
        <ele>25.6</ele>
        <time>2023-05-02T13:19:26Z</time>
      </trkpt>
      <trkpt lat="49.01464" lon="-0.47004">
        <ele>25.6</ele>
        <time>2023-05-02T13:19:27Z</time>
      </trkpt>
      <trkpt lat="49.0147" lon="-0.46998">
        <ele>25.6</ele>
        <time>2023-05-02T13:19:28Z</time>
      </trkpt>
      <trkpt lat="49.01476" lon="-0.46992">
        <ele>25.4</ele>
        <time>2023-05-02T13:19:29Z</time>
      </trkpt>
      <trkpt lat="49.01482" lon="-0.46986">
        <ele>25.4</ele>
        <time>2023-05-02T13:19:30Z</time>
      </trkpt>
      <trkpt lat="49.01488" lon="-0.46979">
        <ele>25.2</ele>
        <time>2023-05-02T13:19:31Z</time>
      </trkpt>
      <trkpt lat="49.01494" lon="-0.46973">
        <ele>25.2</ele>
        <time>2023-05-02T13:19:32Z</time>
      </trkpt>
      <trkpt lat="49.015" lon="-0.46967">
        <ele>25.2</ele>
        <time>2023-05-02T13:19:33Z</time>
      </trkpt>
      <trkpt lat="49.01506" lon="-0.46961">
        <ele>25.2</ele>
        <time>2023-05-02T13:19:34Z</time>
      </trkpt>
      <trkpt lat="49.01512" lon="-0.46954">
        <ele>25.2</ele>
        <time>2023-05-02T13:19:35Z</time>
      </trkpt>
      <trkpt lat="49.01519" lon="-0.46948">
        <ele>25.2</ele>
        <time>2023-05-02T13:19:36Z</time>
      </trkpt>
      <trkpt lat="49.01525" lon="-0.46942">
        <ele>25.2</ele>
        <time>2023-05-02T13:19:37Z</time>
      </trkpt>
      <trkpt lat="49.01531" lon="-0.46936">
        <ele>25.2</ele>
        <time>2023-05-02T13:19:38Z</time>
      </trkpt>
      <trkpt lat="49.01538" lon="-0.4693">
        <ele>25.2</ele>
        <time>2023-05-02T13:19:39Z</time>
      </trkpt>
      <trkpt lat="49.01544" lon="-0.46924">
        <ele>25.2</ele>
        <time>2023-05-02T13:19:40Z</time>
      </trkpt>
      <trkpt lat="49.0155" lon="-0.46918">
        <ele>25.2</ele>
        <time>2023-05-02T13:19:41Z</time>
      </trkpt>
      <trkpt lat="49.01557" lon="-0.46912">
        <ele>25.2</ele>
        <time>2023-05-02T13:19:42Z</time>
      </trkpt>
      <trkpt lat="49.01563" lon="-0.46906">
        <ele>25.2</ele>
        <time>2023-05-02T13:19:43Z</time>
      </trkpt>
      <trkpt lat="49.01569" lon="-0.469">
        <ele>25.4</ele>
        <time>2023-05-02T13:19:44Z</time>
      </trkpt>
      <trkpt lat="49.01576" lon="-0.46894">
        <ele>25.4</ele>
        <time>2023-05-02T13:19:45Z</time>
      </trkpt>
      <trkpt lat="49.01582" lon="-0.46888">
        <ele>25.4</ele>
        <time>2023-05-02T13:19:46Z</time>
      </trkpt>
      <trkpt lat="49.01588" lon="-0.46883">
        <ele>25.2</ele>
        <time>2023-05-02T13:19:47Z</time>
      </trkpt>
      <trkpt lat="49.01594" lon="-0.46877">
        <ele>25.2</ele>
        <time>2023-05-02T13:19:48Z</time>
      </trkpt>
      <trkpt lat="49.01601" lon="-0.46871">
        <ele>25</ele>
        <time>2023-05-02T13:19:49Z</time>
      </trkpt>
      <trkpt lat="49.01607" lon="-0.46866">
        <ele>24.8</ele>
        <time>2023-05-02T13:19:50Z</time>
      </trkpt>
      <trkpt lat="49.01613" lon="-0.4686">
        <ele>24.8</ele>
        <time>2023-05-02T13:19:51Z</time>
      </trkpt>
      <trkpt lat="49.0162" lon="-0.46855">
        <ele>24.6</ele>
        <time>2023-05-02T13:19:52Z</time>
      </trkpt>
      <trkpt lat="49.01626" lon="-0.46849">
        <ele>24.2</ele>
        <time>2023-05-02T13:19:53Z</time>
      </trkpt>
      <trkpt lat="49.01632" lon="-0.46844">
        <ele>24.2</ele>
        <time>2023-05-02T13:19:54Z</time>
      </trkpt>
      <trkpt lat="49.01639" lon="-0.46838">
        <ele>23.8</ele>
        <time>2023-05-02T13:19:55Z</time>
      </trkpt>
      <trkpt lat="49.01645" lon="-0.46833">
        <ele>23.6</ele>
        <time>2023-05-02T13:19:56Z</time>
      </trkpt>
      <trkpt lat="49.01652" lon="-0.46827">
        <ele>23.6</ele>
        <time>2023-05-02T13:19:57Z</time>
      </trkpt>
      <trkpt lat="49.01659" lon="-0.46822">
        <ele>23.4</ele>
        <time>2023-05-02T13:19:58Z</time>
      </trkpt>
      <trkpt lat="49.01665" lon="-0.46816">
        <ele>23.2</ele>
        <time>2023-05-02T13:19:59Z</time>
      </trkpt>
      <trkpt lat="49.01672" lon="-0.4681">
        <ele>23.4</ele>
        <time>2023-05-02T13:20:00Z</time>
      </trkpt>
      <trkpt lat="49.01679" lon="-0.46805">
        <ele>23.4</ele>
        <time>2023-05-02T13:20:01Z</time>
      </trkpt>
      <trkpt lat="49.01685" lon="-0.46799">
        <ele>23.6</ele>
        <time>2023-05-02T13:20:02Z</time>
      </trkpt>
      <trkpt lat="49.01691" lon="-0.46793">
        <ele>23.6</ele>
        <time>2023-05-02T13:20:03Z</time>
      </trkpt>
      <trkpt lat="49.01697" lon="-0.46788">
        <ele>23.6</ele>
        <time>2023-05-02T13:20:04Z</time>
      </trkpt>
      <trkpt lat="49.01704" lon="-0.46782">
        <ele>23.6</ele>
        <time>2023-05-02T13:20:05Z</time>
      </trkpt>
      <trkpt lat="49.0171" lon="-0.46777">
        <ele>23.6</ele>
        <time>2023-05-02T13:20:06Z</time>
      </trkpt>
      <trkpt lat="49.01716" lon="-0.46772">
        <ele>23.6</ele>
        <time>2023-05-02T13:20:07Z</time>
      </trkpt>
      <trkpt lat="49.01722" lon="-0.46767">
        <ele>23.6</ele>
        <time>2023-05-02T13:20:08Z</time>
      </trkpt>
      <trkpt lat="49.01728" lon="-0.46762">
        <ele>23.6</ele>
        <time>2023-05-02T13:20:09Z</time>
      </trkpt>
      <trkpt lat="49.01735" lon="-0.46757">
        <ele>23.6</ele>
        <time>2023-05-02T13:20:10Z</time>
      </trkpt>
      <trkpt lat="49.01741" lon="-0.46752">
        <ele>23.4</ele>
        <time>2023-05-02T13:20:11Z</time>
      </trkpt>
      <trkpt lat="49.01746" lon="-0.46748">
        <ele>23.4</ele>
        <time>2023-05-02T13:20:12Z</time>
      </trkpt>
      <trkpt lat="49.01752" lon="-0.46743">
        <ele>23.4</ele>
        <time>2023-05-02T13:20:13Z</time>
      </trkpt>
      <trkpt lat="49.01757" lon="-0.46739">
        <ele>23.4</ele>
        <time>2023-05-02T13:20:14Z</time>
      </trkpt>
      <trkpt lat="49.01763" lon="-0.46734">
        <ele>23.4</ele>
        <time>2023-05-02T13:20:15Z</time>
      </trkpt>
      <trkpt lat="49.01768" lon="-0.46729">
        <ele>23.2</ele>
        <time>2023-05-02T13:20:16Z</time>
      </trkpt>
      <trkpt lat="49.01774" lon="-0.46724">
        <ele>23.2</ele>
        <time>2023-05-02T13:20:17Z</time>
      </trkpt>
      <trkpt lat="49.0178" lon="-0.46719">
        <ele>23.2</ele>
        <time>2023-05-02T13:20:18Z</time>
      </trkpt>
      <trkpt lat="49.01786" lon="-0.46714">
        <ele>23.2</ele>
        <time>2023-05-02T13:20:19Z</time>
      </trkpt>
      <trkpt lat="49.01792" lon="-0.46709">
        <ele>23.2</ele>
        <time>2023-05-02T13:20:20Z</time>
      </trkpt>
      <trkpt lat="49.01799" lon="-0.46704">
        <ele>23.2</ele>
        <time>2023-05-02T13:20:21Z</time>
      </trkpt>
      <trkpt lat="49.01805" lon="-0.46699">
        <ele>23</ele>
        <time>2023-05-02T13:20:22Z</time>
      </trkpt>
      <trkpt lat="49.01811" lon="-0.46694">
        <ele>22.8</ele>
        <time>2023-05-02T13:20:23Z</time>
      </trkpt>
      <trkpt lat="49.01817" lon="-0.46688">
        <ele>22.8</ele>
        <time>2023-05-02T13:20:24Z</time>
      </trkpt>
      <trkpt lat="49.01824" lon="-0.46683">
        <ele>22.8</ele>
        <time>2023-05-02T13:20:25Z</time>
      </trkpt>
      <trkpt lat="49.0183" lon="-0.46677">
        <ele>22.6</ele>
        <time>2023-05-02T13:20:26Z</time>
      </trkpt>
      <trkpt lat="49.01837" lon="-0.46671">
        <ele>22.6</ele>
        <time>2023-05-02T13:20:27Z</time>
      </trkpt>
      <trkpt lat="49.01844" lon="-0.46666">
        <ele>22.8</ele>
        <time>2023-05-02T13:20:28Z</time>
      </trkpt>
      <trkpt lat="49.0185" lon="-0.4666">
        <ele>23.2</ele>
        <time>2023-05-02T13:20:29Z</time>
      </trkpt>
      <trkpt lat="49.01857" lon="-0.46654">
        <ele>23.2</ele>
        <time>2023-05-02T13:20:30Z</time>
      </trkpt>
      <trkpt lat="49.01863" lon="-0.46649">
        <ele>23.6</ele>
        <time>2023-05-02T13:20:31Z</time>
      </trkpt>
      <trkpt lat="49.0187" lon="-0.46643">
        <ele>23.8</ele>
        <time>2023-05-02T13:20:32Z</time>
      </trkpt>
      <trkpt lat="49.01877" lon="-0.46638">
        <ele>23.8</ele>
        <time>2023-05-02T13:20:33Z</time>
      </trkpt>
      <trkpt lat="49.01884" lon="-0.46633">
        <ele>24</ele>
        <time>2023-05-02T13:20:34Z</time>
      </trkpt>
      <trkpt lat="49.01891" lon="-0.46628">
        <ele>24.2</ele>
        <time>2023-05-02T13:20:35Z</time>
      </trkpt>
      <trkpt lat="49.01898" lon="-0.46623">
        <ele>24.2</ele>
        <time>2023-05-02T13:20:36Z</time>
      </trkpt>
      <trkpt lat="49.01905" lon="-0.46619">
        <ele>24.2</ele>
        <time>2023-05-02T13:20:37Z</time>
      </trkpt>
      <trkpt lat="49.01912" lon="-0.46614">
        <ele>24.2</ele>
        <time>2023-05-02T13:20:38Z</time>
      </trkpt>
      <trkpt lat="49.01919" lon="-0.46611">
        <ele>24.2</ele>
        <time>2023-05-02T13:20:39Z</time>
      </trkpt>
      <trkpt lat="49.01925" lon="-0.46607">
        <ele>24.4</ele>
        <time>2023-05-02T13:20:40Z</time>
      </trkpt>
      <trkpt lat="49.01932" lon="-0.46604">
        <ele>24.4</ele>
        <time>2023-05-02T13:20:41Z</time>
      </trkpt>
      <trkpt lat="49.01939" lon="-0.46601">
        <ele>24.4</ele>
        <time>2023-05-02T13:20:42Z</time>
      </trkpt>
      <trkpt lat="49.01946" lon="-0.46597">
        <ele>24.6</ele>
        <time>2023-05-02T13:20:43Z</time>
      </trkpt>
      <trkpt lat="49.01953" lon="-0.46594">
        <ele>24.6</ele>
        <time>2023-05-02T13:20:44Z</time>
      </trkpt>
      <trkpt lat="49.01961" lon="-0.4659">
        <ele>24.6</ele>
        <time>2023-05-02T13:20:45Z</time>
      </trkpt>
      <trkpt lat="49.01968" lon="-0.46587">
        <ele>24.6</ele>
        <time>2023-05-02T13:20:46Z</time>
      </trkpt>
      <trkpt lat="49.01976" lon="-0.46583">
        <ele>24.6</ele>
        <time>2023-05-02T13:20:47Z</time>
      </trkpt>
      <trkpt lat="49.01984" lon="-0.4658">
        <ele>24.8</ele>
        <time>2023-05-02T13:20:48Z</time>
      </trkpt>
      <trkpt lat="49.01992" lon="-0.46577">
        <ele>24.8</ele>
        <time>2023-05-02T13:20:49Z</time>
      </trkpt>
      <trkpt lat="49.02" lon="-0.46574">
        <ele>25</ele>
        <time>2023-05-02T13:20:50Z</time>
      </trkpt>
      <trkpt lat="49.02008" lon="-0.46572">
        <ele>25.2</ele>
        <time>2023-05-02T13:20:51Z</time>
      </trkpt>
      <trkpt lat="49.02016" lon="-0.4657">
        <ele>25.4</ele>
        <time>2023-05-02T13:20:52Z</time>
      </trkpt>
      <trkpt lat="49.02023" lon="-0.46568">
        <ele>25.6</ele>
        <time>2023-05-02T13:20:53Z</time>
      </trkpt>
      <trkpt lat="49.02031" lon="-0.46567">
        <ele>25.8</ele>
        <time>2023-05-02T13:20:54Z</time>
      </trkpt>
      <trkpt lat="49.02038" lon="-0.46565">
        <ele>25.8</ele>
        <time>2023-05-02T13:20:55Z</time>
      </trkpt>
      <trkpt lat="49.02045" lon="-0.46564">
        <ele>26.2</ele>
        <time>2023-05-02T13:20:56Z</time>
      </trkpt>
      <trkpt lat="49.02052" lon="-0.46563">
        <ele>26.2</ele>
        <time>2023-05-02T13:20:57Z</time>
      </trkpt>
      <trkpt lat="49.02059" lon="-0.46561">
        <ele>26.4</ele>
        <time>2023-05-02T13:20:58Z</time>
      </trkpt>
      <trkpt lat="49.02066" lon="-0.4656">
        <ele>26.6</ele>
        <time>2023-05-02T13:20:59Z</time>
      </trkpt>
      <trkpt lat="49.02073" lon="-0.46559">
        <ele>26.8</ele>
        <time>2023-05-02T13:21:00Z</time>
      </trkpt>
      <trkpt lat="49.0208" lon="-0.46557">
        <ele>27.2</ele>
        <time>2023-05-02T13:21:01Z</time>
      </trkpt>
      <trkpt lat="49.02087" lon="-0.46556">
        <ele>27.4</ele>
        <time>2023-05-02T13:21:02Z</time>
      </trkpt>
      <trkpt lat="49.02094" lon="-0.46554">
        <ele>27.8</ele>
        <time>2023-05-02T13:21:03Z</time>
      </trkpt>
      <trkpt lat="49.02101" lon="-0.46553">
        <ele>28</ele>
        <time>2023-05-02T13:21:04Z</time>
      </trkpt>
      <trkpt lat="49.02108" lon="-0.46552">
        <ele>28.2</ele>
        <time>2023-05-02T13:21:05Z</time>
      </trkpt>
      <trkpt lat="49.02116" lon="-0.46551">
        <ele>28.6</ele>
        <time>2023-05-02T13:21:06Z</time>
      </trkpt>
      <trkpt lat="49.02123" lon="-0.4655">
        <ele>28.8</ele>
        <time>2023-05-02T13:21:07Z</time>
      </trkpt>
      <trkpt lat="49.0213" lon="-0.4655">
        <ele>29</ele>
        <time>2023-05-02T13:21:08Z</time>
      </trkpt>
      <trkpt lat="49.02137" lon="-0.4655">
        <ele>29.2</ele>
        <time>2023-05-02T13:21:09Z</time>
      </trkpt>
      <trkpt lat="49.02143" lon="-0.4655">
        <ele>29.2</ele>
        <time>2023-05-02T13:21:10Z</time>
      </trkpt>
      <trkpt lat="49.0215" lon="-0.46549">
        <ele>29.4</ele>
        <time>2023-05-02T13:21:11Z</time>
      </trkpt>
      <trkpt lat="49.02157" lon="-0.46549">
        <ele>29.6</ele>
        <time>2023-05-02T13:21:12Z</time>
      </trkpt>
      <trkpt lat="49.02164" lon="-0.46548">
        <ele>29.8</ele>
        <time>2023-05-02T13:21:13Z</time>
      </trkpt>
      <trkpt lat="49.02171" lon="-0.46547">
        <ele>29.8</ele>
        <time>2023-05-02T13:21:14Z</time>
      </trkpt>
      <trkpt lat="49.02178" lon="-0.46546">
        <ele>29.8</ele>
        <time>2023-05-02T13:21:15Z</time>
      </trkpt>
      <trkpt lat="49.02185" lon="-0.46544">
        <ele>29.6</ele>
        <time>2023-05-02T13:21:16Z</time>
      </trkpt>
      <trkpt lat="49.02191" lon="-0.46543">
        <ele>29.6</ele>
        <time>2023-05-02T13:21:17Z</time>
      </trkpt>
      <trkpt lat="49.02198" lon="-0.46541">
        <ele>29.4</ele>
        <time>2023-05-02T13:21:18Z</time>
      </trkpt>
      <trkpt lat="49.02205" lon="-0.46539">
        <ele>29.2</ele>
        <time>2023-05-02T13:21:19Z</time>
      </trkpt>
      <trkpt lat="49.02213" lon="-0.46537">
        <ele>29.2</ele>
        <time>2023-05-02T13:21:20Z</time>
      </trkpt>
      <trkpt lat="49.02222" lon="-0.46534">
        <ele>29.2</ele>
        <time>2023-05-02T13:21:21Z</time>
      </trkpt>
      <trkpt lat="49.0223" lon="-0.46531">
        <ele>29</ele>
        <time>2023-05-02T13:21:22Z</time>
      </trkpt>
      <trkpt lat="49.02238" lon="-0.46529">
        <ele>28.8</ele>
        <time>2023-05-02T13:21:23Z</time>
      </trkpt>
      <trkpt lat="49.02246" lon="-0.46526">
        <ele>28.8</ele>
        <time>2023-05-02T13:21:24Z</time>
      </trkpt>
      <trkpt lat="49.02254" lon="-0.46524">
        <ele>28.6</ele>
        <time>2023-05-02T13:21:25Z</time>
      </trkpt>
      <trkpt lat="49.02262" lon="-0.46522">
        <ele>28.4</ele>
        <time>2023-05-02T13:21:26Z</time>
      </trkpt>
      <trkpt lat="49.0227" lon="-0.4652">
        <ele>28.2</ele>
        <time>2023-05-02T13:21:27Z</time>
      </trkpt>
      <trkpt lat="49.02277" lon="-0.46519">
        <ele>27.8</ele>
        <time>2023-05-02T13:21:28Z</time>
      </trkpt>
      <trkpt lat="49.02285" lon="-0.46517">
        <ele>27.6</ele>
        <time>2023-05-02T13:21:29Z</time>
      </trkpt>
      <trkpt lat="49.02293" lon="-0.46515">
        <ele>27.2</ele>
        <time>2023-05-02T13:21:30Z</time>
      </trkpt>
      <trkpt lat="49.02301" lon="-0.46513">
        <ele>27</ele>
        <time>2023-05-02T13:21:31Z</time>
      </trkpt>
      <trkpt lat="49.02309" lon="-0.46511">
        <ele>26.8</ele>
        <time>2023-05-02T13:21:32Z</time>
      </trkpt>
      <trkpt lat="49.02316" lon="-0.46509">
        <ele>26.4</ele>
        <time>2023-05-02T13:21:33Z</time>
      </trkpt>
      <trkpt lat="49.02324" lon="-0.46507">
        <ele>26.2</ele>
        <time>2023-05-02T13:21:34Z</time>
      </trkpt>
      <trkpt lat="49.02332" lon="-0.46504">
        <ele>25.8</ele>
        <time>2023-05-02T13:21:35Z</time>
      </trkpt>
      <trkpt lat="49.0234" lon="-0.46502">
        <ele>25.6</ele>
        <time>2023-05-02T13:21:36Z</time>
      </trkpt>
      <trkpt lat="49.02348" lon="-0.46501">
        <ele>25.2</ele>
        <time>2023-05-02T13:21:37Z</time>
      </trkpt>
      <trkpt lat="49.02355" lon="-0.46499">
        <ele>25.2</ele>
        <time>2023-05-02T13:21:38Z</time>
      </trkpt>
      <trkpt lat="49.02362" lon="-0.46498">
        <ele>25.2</ele>
        <time>2023-05-02T13:21:39Z</time>
      </trkpt>
      <trkpt lat="49.02369" lon="-0.46497">
        <ele>25.2</ele>
        <time>2023-05-02T13:21:40Z</time>
      </trkpt>
      <trkpt lat="49.02377" lon="-0.46495">
        <ele>25.2</ele>
        <time>2023-05-02T13:21:41Z</time>
      </trkpt>
      <trkpt lat="49.02384" lon="-0.46493">
        <ele>25.4</ele>
        <time>2023-05-02T13:21:42Z</time>
      </trkpt>
      <trkpt lat="49.02392" lon="-0.46491">
        <ele>25.6</ele>
        <time>2023-05-02T13:21:43Z</time>
      </trkpt>
      <trkpt lat="49.02399" lon="-0.4649">
        <ele>25.6</ele>
        <time>2023-05-02T13:21:44Z</time>
      </trkpt>
      <trkpt lat="49.02407" lon="-0.46489">
        <ele>25.4</ele>
        <time>2023-05-02T13:21:45Z</time>
      </trkpt>
      <trkpt lat="49.02414" lon="-0.46488">
        <ele>25.2</ele>
        <time>2023-05-02T13:21:46Z</time>
      </trkpt>
      <trkpt lat="49.02421" lon="-0.46486">
        <ele>25.2</ele>
        <time>2023-05-02T13:21:47Z</time>
      </trkpt>
      <trkpt lat="49.02428" lon="-0.46485">
        <ele>25.2</ele>
        <time>2023-05-02T13:21:48Z</time>
      </trkpt>
      <trkpt lat="49.02435" lon="-0.46484">
        <ele>25.2</ele>
        <time>2023-05-02T13:21:49Z</time>
      </trkpt>
      <trkpt lat="49.02442" lon="-0.46483">
        <ele>25.4</ele>
        <time>2023-05-02T13:21:50Z</time>
      </trkpt>
      <trkpt lat="49.02449" lon="-0.46481">
        <ele>25.4</ele>
        <time>2023-05-02T13:21:51Z</time>
      </trkpt>
      <trkpt lat="49.02457" lon="-0.46479">
        <ele>25.4</ele>
        <time>2023-05-02T13:21:52Z</time>
      </trkpt>
      <trkpt lat="49.02464" lon="-0.46478">
        <ele>25.4</ele>
        <time>2023-05-02T13:21:53Z</time>
      </trkpt>
      <trkpt lat="49.02472" lon="-0.46476">
        <ele>25.2</ele>
        <time>2023-05-02T13:21:54Z</time>
      </trkpt>
      <trkpt lat="49.02479" lon="-0.46474">
        <ele>25.2</ele>
        <time>2023-05-02T13:21:55Z</time>
      </trkpt>
      <trkpt lat="49.02487" lon="-0.46472">
        <ele>25</ele>
        <time>2023-05-02T13:21:56Z</time>
      </trkpt>
      <trkpt lat="49.02495" lon="-0.46471">
        <ele>24.8</ele>
        <time>2023-05-02T13:21:57Z</time>
      </trkpt>
      <trkpt lat="49.02502" lon="-0.4647">
        <ele>24.6</ele>
        <time>2023-05-02T13:21:58Z</time>
      </trkpt>
      <trkpt lat="49.0251" lon="-0.46469">
        <ele>24.6</ele>
        <time>2023-05-02T13:21:59Z</time>
      </trkpt>
      <trkpt lat="49.02517" lon="-0.46468">
        <ele>24.6</ele>
        <time>2023-05-02T13:22:00Z</time>
      </trkpt>
      <trkpt lat="49.02524" lon="-0.46466">
        <ele>24.6</ele>
        <time>2023-05-02T13:22:01Z</time>
      </trkpt>
      <trkpt lat="49.02532" lon="-0.46465">
        <ele>24.6</ele>
        <time>2023-05-02T13:22:02Z</time>
      </trkpt>
      <trkpt lat="49.02539" lon="-0.46463">
        <ele>24.6</ele>
        <time>2023-05-02T13:22:03Z</time>
      </trkpt>
      <trkpt lat="49.02546" lon="-0.46462">
        <ele>24.6</ele>
        <time>2023-05-02T13:22:04Z</time>
      </trkpt>
      <trkpt lat="49.02552" lon="-0.4646">
        <ele>24.6</ele>
        <time>2023-05-02T13:22:05Z</time>
      </trkpt>
      <trkpt lat="49.02559" lon="-0.46459">
        <ele>24.6</ele>
        <time>2023-05-02T13:22:06Z</time>
      </trkpt>
      <trkpt lat="49.02566" lon="-0.46457">
        <ele>24.6</ele>
        <time>2023-05-02T13:22:07Z</time>
      </trkpt>
      <trkpt lat="49.02573" lon="-0.46455">
        <ele>24.6</ele>
        <time>2023-05-02T13:22:08Z</time>
      </trkpt>
      <trkpt lat="49.02581" lon="-0.46454">
        <ele>24.6</ele>
        <time>2023-05-02T13:22:09Z</time>
      </trkpt>
      <trkpt lat="49.02588" lon="-0.46453">
        <ele>24.6</ele>
        <time>2023-05-02T13:22:10Z</time>
      </trkpt>
      <trkpt lat="49.02595" lon="-0.46452">
        <ele>24.4</ele>
        <time>2023-05-02T13:22:11Z</time>
      </trkpt>
      <trkpt lat="49.02602" lon="-0.46452">
        <ele>24.4</ele>
        <time>2023-05-02T13:22:12Z</time>
      </trkpt>
      <trkpt lat="49.02608" lon="-0.46451">
        <ele>24.6</ele>
        <time>2023-05-02T13:22:13Z</time>
      </trkpt>
      <trkpt lat="49.02616" lon="-0.46449">
        <ele>24.6</ele>
        <time>2023-05-02T13:22:14Z</time>
      </trkpt>
      <trkpt lat="49.02623" lon="-0.46448">
        <ele>24.6</ele>
        <time>2023-05-02T13:22:15Z</time>
      </trkpt>
      <trkpt lat="49.02631" lon="-0.46446">
        <ele>24.6</ele>
        <time>2023-05-02T13:22:16Z</time>
      </trkpt>
      <trkpt lat="49.02639" lon="-0.46445">
        <ele>24.6</ele>
        <time>2023-05-02T13:22:17Z</time>
      </trkpt>
      <trkpt lat="49.02646" lon="-0.46443">
        <ele>24.8</ele>
        <time>2023-05-02T13:22:18Z</time>
      </trkpt>
      <trkpt lat="49.02654" lon="-0.46442">
        <ele>24.8</ele>
        <time>2023-05-02T13:22:19Z</time>
      </trkpt>
      <trkpt lat="49.02662" lon="-0.4644">
        <ele>24.8</ele>
        <time>2023-05-02T13:22:20Z</time>
      </trkpt>
      <trkpt lat="49.02669" lon="-0.46439">
        <ele>24.8</ele>
        <time>2023-05-02T13:22:21Z</time>
      </trkpt>
      <trkpt lat="49.02677" lon="-0.46438">
        <ele>25.2</ele>
        <time>2023-05-02T13:22:22Z</time>
      </trkpt>
      <trkpt lat="49.02684" lon="-0.46438">
        <ele>25.2</ele>
        <time>2023-05-02T13:22:23Z</time>
      </trkpt>
      <trkpt lat="49.02691" lon="-0.46437">
        <ele>25.6</ele>
        <time>2023-05-02T13:22:24Z</time>
      </trkpt>
      <trkpt lat="49.02699" lon="-0.46436">
        <ele>25.8</ele>
        <time>2023-05-02T13:22:25Z</time>
      </trkpt>
      <trkpt lat="49.02706" lon="-0.46435">
        <ele>26.2</ele>
        <time>2023-05-02T13:22:26Z</time>
      </trkpt>
      <trkpt lat="49.02714" lon="-0.46434">
        <ele>26.2</ele>
        <time>2023-05-02T13:22:27Z</time>
      </trkpt>
      <trkpt lat="49.02721" lon="-0.46433">
        <ele>26.6</ele>
        <time>2023-05-02T13:22:28Z</time>
      </trkpt>
      <trkpt lat="49.02729" lon="-0.46432">
        <ele>26.8</ele>
        <time>2023-05-02T13:22:29Z</time>
      </trkpt>
      <trkpt lat="49.02737" lon="-0.46432">
        <ele>27.2</ele>
        <time>2023-05-02T13:22:30Z</time>
      </trkpt>
      <trkpt lat="49.02744" lon="-0.46431">
        <ele>27.2</ele>
        <time>2023-05-02T13:22:31Z</time>
      </trkpt>
      <trkpt lat="49.02752" lon="-0.46431">
        <ele>27.6</ele>
        <time>2023-05-02T13:22:32Z</time>
      </trkpt>
      <trkpt lat="49.0276" lon="-0.46432">
        <ele>27.8</ele>
        <time>2023-05-02T13:22:33Z</time>
      </trkpt>
      <trkpt lat="49.02768" lon="-0.46432">
        <ele>27.8</ele>
        <time>2023-05-02T13:22:34Z</time>
      </trkpt>
      <trkpt lat="49.02776" lon="-0.46432">
        <ele>28</ele>
        <time>2023-05-02T13:22:35Z</time>
      </trkpt>
      <trkpt lat="49.02784" lon="-0.46433">
        <ele>28.2</ele>
        <time>2023-05-02T13:22:36Z</time>
      </trkpt>
      <trkpt lat="49.02792" lon="-0.46434">
        <ele>28.2</ele>
        <time>2023-05-02T13:22:37Z</time>
      </trkpt>
      <trkpt lat="49.028" lon="-0.46435">
        <ele>28.2</ele>
        <time>2023-05-02T13:22:38Z</time>
      </trkpt>
      <trkpt lat="49.02807" lon="-0.46436">
        <ele>28.2</ele>
        <time>2023-05-02T13:22:39Z</time>
      </trkpt>
      <trkpt lat="49.02815" lon="-0.46438">
        <ele>28.2</ele>
        <time>2023-05-02T13:22:40Z</time>
      </trkpt>
      <trkpt lat="49.02823" lon="-0.46439">
        <ele>28.2</ele>
        <time>2023-05-02T13:22:41Z</time>
      </trkpt>
      <trkpt lat="49.02831" lon="-0.46441">
        <ele>28.2</ele>
        <time>2023-05-02T13:22:42Z</time>
      </trkpt>
      <trkpt lat="49.02838" lon="-0.46443">
        <ele>28.2</ele>
        <time>2023-05-02T13:22:43Z</time>
      </trkpt>
      <trkpt lat="49.02846" lon="-0.46445">
        <ele>28.6</ele>
        <time>2023-05-02T13:22:44Z</time>
      </trkpt>
      <trkpt lat="49.02853" lon="-0.46447">
        <ele>28.8</ele>
        <time>2023-05-02T13:22:45Z</time>
      </trkpt>
      <trkpt lat="49.02861" lon="-0.46449">
        <ele>29</ele>
        <time>2023-05-02T13:22:46Z</time>
      </trkpt>
      <trkpt lat="49.02868" lon="-0.46452">
        <ele>29.2</ele>
        <time>2023-05-02T13:22:47Z</time>
      </trkpt>
      <trkpt lat="49.02876" lon="-0.46454">
        <ele>29.2</ele>
        <time>2023-05-02T13:22:48Z</time>
      </trkpt>
      <trkpt lat="49.02883" lon="-0.46456">
        <ele>29.6</ele>
        <time>2023-05-02T13:22:49Z</time>
      </trkpt>
      <trkpt lat="49.02891" lon="-0.46459">
        <ele>29.6</ele>
        <time>2023-05-02T13:22:50Z</time>
      </trkpt>
      <trkpt lat="49.02898" lon="-0.46461">
        <ele>29.8</ele>
        <time>2023-05-02T13:22:51Z</time>
      </trkpt>
      <trkpt lat="49.02906" lon="-0.46463">
        <ele>29.8</ele>
        <time>2023-05-02T13:22:52Z</time>
      </trkpt>
      <trkpt lat="49.02913" lon="-0.46465">
        <ele>29.8</ele>
        <time>2023-05-02T13:22:53Z</time>
      </trkpt>
      <trkpt lat="49.02921" lon="-0.46468">
        <ele>29.8</ele>
        <time>2023-05-02T13:22:54Z</time>
      </trkpt>
      <trkpt lat="49.02928" lon="-0.4647">
        <ele>29.8</ele>
        <time>2023-05-02T13:22:55Z</time>
      </trkpt>
      <trkpt lat="49.02936" lon="-0.46472">
        <ele>29.6</ele>
        <time>2023-05-02T13:22:56Z</time>
      </trkpt>
      <trkpt lat="49.02943" lon="-0.46475">
        <ele>29.6</ele>
        <time>2023-05-02T13:22:57Z</time>
      </trkpt>
      <trkpt lat="49.02951" lon="-0.46477">
        <ele>29.4</ele>
        <time>2023-05-02T13:22:58Z</time>
      </trkpt>
      <trkpt lat="49.02959" lon="-0.46479">
        <ele>29.2</ele>
        <time>2023-05-02T13:22:59Z</time>
      </trkpt>
      <trkpt lat="49.02966" lon="-0.46482">
        <ele>29.2</ele>
        <time>2023-05-02T13:23:00Z</time>
      </trkpt>
      <trkpt lat="49.02974" lon="-0.46484">
        <ele>29.2</ele>
        <time>2023-05-02T13:23:01Z</time>
      </trkpt>
      <trkpt lat="49.02982" lon="-0.46486">
        <ele>29</ele>
        <time>2023-05-02T13:23:02Z</time>
      </trkpt>
      <trkpt lat="49.02989" lon="-0.46488">
        <ele>28.8</ele>
        <time>2023-05-02T13:23:03Z</time>
      </trkpt>
      <trkpt lat="49.02997" lon="-0.4649">
        <ele>28.8</ele>
        <time>2023-05-02T13:23:04Z</time>
      </trkpt>
      <trkpt lat="49.03004" lon="-0.46493">
        <ele>28.8</ele>
        <time>2023-05-02T13:23:05Z</time>
      </trkpt>
      <trkpt lat="49.03012" lon="-0.46495">
        <ele>28.6</ele>
        <time>2023-05-02T13:23:06Z</time>
      </trkpt>
      <trkpt lat="49.03019" lon="-0.46497">
        <ele>28.6</ele>
        <time>2023-05-02T13:23:07Z</time>
      </trkpt>
      <trkpt lat="49.03026" lon="-0.465">
        <ele>28.2</ele>
        <time>2023-05-02T13:23:08Z</time>
      </trkpt>
      <trkpt lat="49.03034" lon="-0.46502">
        <ele>28.4</ele>
        <time>2023-05-02T13:23:09Z</time>
      </trkpt>
      <trkpt lat="49.03041" lon="-0.46505">
        <ele>28.6</ele>
        <time>2023-05-02T13:23:10Z</time>
      </trkpt>
      <trkpt lat="49.03048" lon="-0.46507">
        <ele>28.6</ele>
        <time>2023-05-02T13:23:11Z</time>
      </trkpt>
      <trkpt lat="49.03055" lon="-0.46509">
        <ele>28.8</ele>
        <time>2023-05-02T13:23:12Z</time>
      </trkpt>
      <trkpt lat="49.03063" lon="-0.46512">
        <ele>28.8</ele>
        <time>2023-05-02T13:23:13Z</time>
      </trkpt>
      <trkpt lat="49.0307" lon="-0.46514">
        <ele>28.8</ele>
        <time>2023-05-02T13:23:14Z</time>
      </trkpt>
      <trkpt lat="49.03077" lon="-0.46516">
        <ele>29</ele>
        <time>2023-05-02T13:23:15Z</time>
      </trkpt>
      <trkpt lat="49.03084" lon="-0.46518">
        <ele>29</ele>
        <time>2023-05-02T13:23:16Z</time>
      </trkpt>
      <trkpt lat="49.03092" lon="-0.46521">
        <ele>28.8</ele>
        <time>2023-05-02T13:23:17Z</time>
      </trkpt>
      <trkpt lat="49.03099" lon="-0.46523">
        <ele>28.2</ele>
        <time>2023-05-02T13:23:18Z</time>
      </trkpt>
      <trkpt lat="49.03106" lon="-0.46525">
        <ele>28</ele>
        <time>2023-05-02T13:23:19Z</time>
      </trkpt>
      <trkpt lat="49.03114" lon="-0.46527">
        <ele>27.6</ele>
        <time>2023-05-02T13:23:20Z</time>
      </trkpt>
      <trkpt lat="49.03121" lon="-0.46529">
        <ele>27.2</ele>
        <time>2023-05-02T13:23:21Z</time>
      </trkpt>
      <trkpt lat="49.03128" lon="-0.46531">
        <ele>26.8</ele>
        <time>2023-05-02T13:23:22Z</time>
      </trkpt>
      <trkpt lat="49.03135" lon="-0.46533">
        <ele>26.6</ele>
        <time>2023-05-02T13:23:23Z</time>
      </trkpt>
      <trkpt lat="49.03143" lon="-0.46535">
        <ele>26</ele>
        <time>2023-05-02T13:23:24Z</time>
      </trkpt>
      <trkpt lat="49.0315" lon="-0.46537">
        <ele>25.6</ele>
        <time>2023-05-02T13:23:25Z</time>
      </trkpt>
      <trkpt lat="49.03157" lon="-0.46539">
        <ele>25.2</ele>
        <time>2023-05-02T13:23:26Z</time>
      </trkpt>
      <trkpt lat="49.03164" lon="-0.46541">
        <ele>24.6</ele>
        <time>2023-05-02T13:23:27Z</time>
      </trkpt>
      <trkpt lat="49.03171" lon="-0.46543">
        <ele>24.2</ele>
        <time>2023-05-02T13:23:28Z</time>
      </trkpt>
      <trkpt lat="49.03178" lon="-0.46545">
        <ele>24</ele>
        <time>2023-05-02T13:23:29Z</time>
      </trkpt>
      <trkpt lat="49.03185" lon="-0.46547">
        <ele>23.8</ele>
        <time>2023-05-02T13:23:30Z</time>
      </trkpt>
      <trkpt lat="49.03192" lon="-0.4655">
        <ele>23.6</ele>
        <time>2023-05-02T13:23:31Z</time>
      </trkpt>
      <trkpt lat="49.03199" lon="-0.46552">
        <ele>23.2</ele>
        <time>2023-05-02T13:23:32Z</time>
      </trkpt>
      <trkpt lat="49.03206" lon="-0.46554">
        <ele>23.2</ele>
        <time>2023-05-02T13:23:33Z</time>
      </trkpt>
      <trkpt lat="49.03214" lon="-0.46556">
        <ele>22.8</ele>
        <time>2023-05-02T13:23:34Z</time>
      </trkpt>
      <trkpt lat="49.03221" lon="-0.46558">
        <ele>22.8</ele>
        <time>2023-05-02T13:23:35Z</time>
      </trkpt>
      <trkpt lat="49.03228" lon="-0.4656">
        <ele>22.6</ele>
        <time>2023-05-02T13:23:36Z</time>
      </trkpt>
      <trkpt lat="49.03235" lon="-0.46562">
        <ele>22.4</ele>
        <time>2023-05-02T13:23:37Z</time>
      </trkpt>
      <trkpt lat="49.03242" lon="-0.46564">
        <ele>22.2</ele>
        <time>2023-05-02T13:23:38Z</time>
      </trkpt>
      <trkpt lat="49.03249" lon="-0.46565">
        <ele>22.2</ele>
        <time>2023-05-02T13:23:39Z</time>
      </trkpt>
      <trkpt lat="49.03256" lon="-0.46567">
        <ele>22.2</ele>
        <time>2023-05-02T13:23:40Z</time>
      </trkpt>
      <trkpt lat="49.03263" lon="-0.46569">
        <ele>22</ele>
        <time>2023-05-02T13:23:41Z</time>
      </trkpt>
      <trkpt lat="49.0327" lon="-0.46571">
        <ele>22</ele>
        <time>2023-05-02T13:23:42Z</time>
      </trkpt>
      <trkpt lat="49.03276" lon="-0.46573">
        <ele>21.8</ele>
        <time>2023-05-02T13:23:43Z</time>
      </trkpt>
      <trkpt lat="49.03282" lon="-0.46574">
        <ele>21.8</ele>
        <time>2023-05-02T13:23:44Z</time>
      </trkpt>
      <trkpt lat="49.03288" lon="-0.46576">
        <ele>21.8</ele>
        <time>2023-05-02T13:23:45Z</time>
      </trkpt>
      <trkpt lat="49.03294" lon="-0.46578">
        <ele>21.8</ele>
        <time>2023-05-02T13:23:46Z</time>
      </trkpt>
      <trkpt lat="49.03299" lon="-0.4658">
        <ele>21.6</ele>
        <time>2023-05-02T13:23:47Z</time>
      </trkpt>
      <trkpt lat="49.03305" lon="-0.46581">
        <ele>21.6</ele>
        <time>2023-05-02T13:23:48Z</time>
      </trkpt>
      <trkpt lat="49.03309" lon="-0.46582">
        <ele>21.6</ele>
        <time>2023-05-02T13:23:49Z</time>
      </trkpt>
      <trkpt lat="49.03313" lon="-0.46582">
        <ele>21.8</ele>
        <time>2023-05-02T13:23:50Z</time>
      </trkpt>
      <trkpt lat="49.03316" lon="-0.46581">
        <ele>21.8</ele>
        <time>2023-05-02T13:23:51Z</time>
      </trkpt>
      <trkpt lat="49.03318" lon="-0.46582">
        <ele>21.8</ele>
        <time>2023-05-02T13:23:52Z</time>
      </trkpt>
      <trkpt lat="49.03321" lon="-0.46583">
        <ele>21.8</ele>
        <time>2023-05-02T13:23:53Z</time>
      </trkpt>
      <trkpt lat="49.03322" lon="-0.46584">
        <ele>21.8</ele>
        <time>2023-05-02T13:23:54Z</time>
      </trkpt>
      <trkpt lat="49.03324" lon="-0.46585">
        <ele>21.8</ele>
        <time>2023-05-02T13:23:55Z</time>
      </trkpt>
      <trkpt lat="49.03326" lon="-0.46585">
        <ele>21.8</ele>
        <time>2023-05-02T13:23:56Z</time>
      </trkpt>
      <trkpt lat="49.03328" lon="-0.46585">
        <ele>21.8</ele>
        <time>2023-05-02T13:23:57Z</time>
      </trkpt>
      <trkpt lat="49.0333" lon="-0.46585">
        <ele>21.8</ele>
        <time>2023-05-02T13:23:58Z</time>
      </trkpt>
      <trkpt lat="49.03333" lon="-0.46586">
        <ele>21.8</ele>
        <time>2023-05-02T13:23:59Z</time>
      </trkpt>
      <trkpt lat="49.03337" lon="-0.46587">
        <ele>21.8</ele>
        <time>2023-05-02T13:24:00Z</time>
      </trkpt>
      <trkpt lat="49.03341" lon="-0.46588">
        <ele>21.8</ele>
        <time>2023-05-02T13:24:01Z</time>
      </trkpt>
      <trkpt lat="49.03346" lon="-0.46589">
        <ele>21.8</ele>
        <time>2023-05-02T13:24:02Z</time>
      </trkpt>
      <trkpt lat="49.03352" lon="-0.4659">
        <ele>21.8</ele>
        <time>2023-05-02T13:24:03Z</time>
      </trkpt>
      <trkpt lat="49.03357" lon="-0.46591">
        <ele>22</ele>
        <time>2023-05-02T13:24:04Z</time>
      </trkpt>
      <trkpt lat="49.03364" lon="-0.46592">
        <ele>22</ele>
        <time>2023-05-02T13:24:05Z</time>
      </trkpt>
      <trkpt lat="49.0337" lon="-0.46592">
        <ele>22</ele>
        <time>2023-05-02T13:24:06Z</time>
      </trkpt>
      <trkpt lat="49.03377" lon="-0.46593">
        <ele>22</ele>
        <time>2023-05-02T13:24:07Z</time>
      </trkpt>
      <trkpt lat="49.03383" lon="-0.46593">
        <ele>22</ele>
        <time>2023-05-02T13:24:08Z</time>
      </trkpt>
      <trkpt lat="49.0339" lon="-0.46593">
        <ele>22.2</ele>
        <time>2023-05-02T13:24:09Z</time>
      </trkpt>
      <trkpt lat="49.03397" lon="-0.46594">
        <ele>22.2</ele>
        <time>2023-05-02T13:24:10Z</time>
      </trkpt>
      <trkpt lat="49.03403" lon="-0.46594">
        <ele>22.2</ele>
        <time>2023-05-02T13:24:11Z</time>
      </trkpt>
      <trkpt lat="49.0341" lon="-0.46594">
        <ele>22.2</ele>
        <time>2023-05-02T13:24:12Z</time>
      </trkpt>
      <trkpt lat="49.03417" lon="-0.46594">
        <ele>22.2</ele>
        <time>2023-05-02T13:24:13Z</time>
      </trkpt>
      <trkpt lat="49.03424" lon="-0.46595">
        <ele>22</ele>
        <time>2023-05-02T13:24:14Z</time>
      </trkpt>
      <trkpt lat="49.03431" lon="-0.46595">
        <ele>21.8</ele>
        <time>2023-05-02T13:24:15Z</time>
      </trkpt>
      <trkpt lat="49.03438" lon="-0.46595">
        <ele>21.8</ele>
        <time>2023-05-02T13:24:16Z</time>
      </trkpt>
      <trkpt lat="49.03445" lon="-0.46595">
        <ele>21.6</ele>
        <time>2023-05-02T13:24:17Z</time>
      </trkpt>
      <trkpt lat="49.03452" lon="-0.46594">
        <ele>21.4</ele>
        <time>2023-05-02T13:24:18Z</time>
      </trkpt>
      <trkpt lat="49.03459" lon="-0.46594">
        <ele>21.2</ele>
        <time>2023-05-02T13:24:19Z</time>
      </trkpt>
      <trkpt lat="49.03466" lon="-0.46593">
        <ele>21.2</ele>
        <time>2023-05-02T13:24:20Z</time>
      </trkpt>
      <trkpt lat="49.03474" lon="-0.46593">
        <ele>21</ele>
        <time>2023-05-02T13:24:21Z</time>
      </trkpt>
      <trkpt lat="49.03481" lon="-0.46592">
        <ele>20.8</ele>
        <time>2023-05-02T13:24:22Z</time>
      </trkpt>
      <trkpt lat="49.03488" lon="-0.46591">
        <ele>20.8</ele>
        <time>2023-05-02T13:24:23Z</time>
      </trkpt>
      <trkpt lat="49.03495" lon="-0.4659">
        <ele>20.8</ele>
        <time>2023-05-02T13:24:24Z</time>
      </trkpt>
      <trkpt lat="49.03502" lon="-0.4659">
        <ele>20.6</ele>
        <time>2023-05-02T13:24:25Z</time>
      </trkpt>
      <trkpt lat="49.0351" lon="-0.46589">
        <ele>20.6</ele>
        <time>2023-05-02T13:24:26Z</time>
      </trkpt>
      <trkpt lat="49.03517" lon="-0.46588">
        <ele>20.2</ele>
        <time>2023-05-02T13:24:27Z</time>
      </trkpt>
      <trkpt lat="49.03524" lon="-0.46587">
        <ele>20.2</ele>
        <time>2023-05-02T13:24:28Z</time>
      </trkpt>
      <trkpt lat="49.03531" lon="-0.46585">
        <ele>20.2</ele>
        <time>2023-05-02T13:24:29Z</time>
      </trkpt>
      <trkpt lat="49.03539" lon="-0.46584">
        <ele>20</ele>
        <time>2023-05-02T13:24:30Z</time>
      </trkpt>
      <trkpt lat="49.03546" lon="-0.46582">
        <ele>20.2</ele>
        <time>2023-05-02T13:24:31Z</time>
      </trkpt>
      <trkpt lat="49.03554" lon="-0.4658">
        <ele>20.2</ele>
        <time>2023-05-02T13:24:32Z</time>
      </trkpt>
      <trkpt lat="49.03561" lon="-0.46578">
        <ele>20.2</ele>
        <time>2023-05-02T13:24:33Z</time>
      </trkpt>
      <trkpt lat="49.03568" lon="-0.46576">
        <ele>20.2</ele>
        <time>2023-05-02T13:24:34Z</time>
      </trkpt>
      <trkpt lat="49.03576" lon="-0.46574">
        <ele>20.4</ele>
        <time>2023-05-02T13:24:35Z</time>
      </trkpt>
      <trkpt lat="49.03583" lon="-0.46571">
        <ele>20.6</ele>
        <time>2023-05-02T13:24:36Z</time>
      </trkpt>
      <trkpt lat="49.0359" lon="-0.46569">
        <ele>20.8</ele>
        <time>2023-05-02T13:24:37Z</time>
      </trkpt>
      <trkpt lat="49.03598" lon="-0.46566">
        <ele>20.8</ele>
        <time>2023-05-02T13:24:38Z</time>
      </trkpt>
      <trkpt lat="49.03605" lon="-0.46563">
        <ele>21.2</ele>
        <time>2023-05-02T13:24:39Z</time>
      </trkpt>
      <trkpt lat="49.03613" lon="-0.4656">
        <ele>21.6</ele>
        <time>2023-05-02T13:24:40Z</time>
      </trkpt>
      <trkpt lat="49.0362" lon="-0.46557">
        <ele>21.8</ele>
        <time>2023-05-02T13:24:41Z</time>
      </trkpt>
      <trkpt lat="49.03627" lon="-0.46554">
        <ele>22.2</ele>
        <time>2023-05-02T13:24:42Z</time>
      </trkpt>
      <trkpt lat="49.03635" lon="-0.46551">
        <ele>22.6</ele>
        <time>2023-05-02T13:24:43Z</time>
      </trkpt>
      <trkpt lat="49.03642" lon="-0.46548">
        <ele>22.8</ele>
        <time>2023-05-02T13:24:44Z</time>
      </trkpt>
      <trkpt lat="49.0365" lon="-0.46545">
        <ele>23.2</ele>
        <time>2023-05-02T13:24:45Z</time>
      </trkpt>
      <trkpt lat="49.03657" lon="-0.46542">
        <ele>23.6</ele>
        <time>2023-05-02T13:24:46Z</time>
      </trkpt>
      <trkpt lat="49.03664" lon="-0.46538">
        <ele>23.8</ele>
        <time>2023-05-02T13:24:47Z</time>
      </trkpt>
      <trkpt lat="49.03671" lon="-0.46535">
        <ele>24.2</ele>
        <time>2023-05-02T13:24:48Z</time>
      </trkpt>
      <trkpt lat="49.03678" lon="-0.46532">
        <ele>24.2</ele>
        <time>2023-05-02T13:24:49Z</time>
      </trkpt>
      <trkpt lat="49.03685" lon="-0.46529">
        <ele>24.4</ele>
        <time>2023-05-02T13:24:50Z</time>
      </trkpt>
      <trkpt lat="49.03693" lon="-0.46526">
        <ele>24.6</ele>
        <time>2023-05-02T13:24:51Z</time>
      </trkpt>
      <trkpt lat="49.037" lon="-0.46523">
        <ele>24.6</ele>
        <time>2023-05-02T13:24:52Z</time>
      </trkpt>
      <trkpt lat="49.03707" lon="-0.4652">
        <ele>24.6</ele>
        <time>2023-05-02T13:24:53Z</time>
      </trkpt>
      <trkpt lat="49.03714" lon="-0.46517">
        <ele>24.8</ele>
        <time>2023-05-02T13:24:54Z</time>
      </trkpt>
      <trkpt lat="49.03721" lon="-0.46514">
        <ele>24.8</ele>
        <time>2023-05-02T13:24:55Z</time>
      </trkpt>
      <trkpt lat="49.03728" lon="-0.46511">
        <ele>24.8</ele>
        <time>2023-05-02T13:24:56Z</time>
      </trkpt>
      <trkpt lat="49.03735" lon="-0.46508">
        <ele>24.8</ele>
        <time>2023-05-02T13:24:57Z</time>
      </trkpt>
      <trkpt lat="49.03741" lon="-0.46506">
        <ele>24.8</ele>
        <time>2023-05-02T13:24:58Z</time>
      </trkpt>
      <trkpt lat="49.03747" lon="-0.46503">
        <ele>24.8</ele>
        <time>2023-05-02T13:24:59Z</time>
      </trkpt>
      <trkpt lat="49.03754" lon="-0.465">
        <ele>24.8</ele>
        <time>2023-05-02T13:25:00Z</time>
      </trkpt>
      <trkpt lat="49.0376" lon="-0.46497">
        <ele>24.8</ele>
        <time>2023-05-02T13:25:01Z</time>
      </trkpt>
      <trkpt lat="49.03768" lon="-0.46493">
        <ele>24.6</ele>
        <time>2023-05-02T13:25:02Z</time>
      </trkpt>
      <trkpt lat="49.03775" lon="-0.4649">
        <ele>24.6</ele>
        <time>2023-05-02T13:25:03Z</time>
      </trkpt>
      <trkpt lat="49.03782" lon="-0.46488">
        <ele>24.4</ele>
        <time>2023-05-02T13:25:04Z</time>
      </trkpt>
      <trkpt lat="49.03789" lon="-0.46485">
        <ele>24.2</ele>
        <time>2023-05-02T13:25:05Z</time>
      </trkpt>
      <trkpt lat="49.03796" lon="-0.46482">
        <ele>24.2</ele>
        <time>2023-05-02T13:25:06Z</time>
      </trkpt>
      <trkpt lat="49.03803" lon="-0.46479">
        <ele>24</ele>
        <time>2023-05-02T13:25:07Z</time>
      </trkpt>
      <trkpt lat="49.0381" lon="-0.46476">
        <ele>24</ele>
        <time>2023-05-02T13:25:08Z</time>
      </trkpt>
      <trkpt lat="49.03818" lon="-0.46473">
        <ele>23.8</ele>
        <time>2023-05-02T13:25:09Z</time>
      </trkpt>
      <trkpt lat="49.03826" lon="-0.4647">
        <ele>23.8</ele>
        <time>2023-05-02T13:25:10Z</time>
      </trkpt>
      <trkpt lat="49.03833" lon="-0.46466">
        <ele>23.8</ele>
        <time>2023-05-02T13:25:11Z</time>
      </trkpt>
      <trkpt lat="49.0384" lon="-0.46463">
        <ele>24</ele>
        <time>2023-05-02T13:25:12Z</time>
      </trkpt>
      <trkpt lat="49.03848" lon="-0.4646">
        <ele>24.2</ele>
        <time>2023-05-02T13:25:13Z</time>
      </trkpt>
      <trkpt lat="49.03855" lon="-0.46457">
        <ele>24.2</ele>
        <time>2023-05-02T13:25:14Z</time>
      </trkpt>
      <trkpt lat="49.03862" lon="-0.46454">
        <ele>24.2</ele>
        <time>2023-05-02T13:25:15Z</time>
      </trkpt>
      <trkpt lat="49.03869" lon="-0.46451">
        <ele>24.2</ele>
        <time>2023-05-02T13:25:16Z</time>
      </trkpt>
      <trkpt lat="49.03875" lon="-0.46448">
        <ele>24.2</ele>
        <time>2023-05-02T13:25:17Z</time>
      </trkpt>
      <trkpt lat="49.03882" lon="-0.46445">
        <ele>24</ele>
        <time>2023-05-02T13:25:18Z</time>
      </trkpt>
      <trkpt lat="49.03889" lon="-0.46442">
        <ele>23.8</ele>
        <time>2023-05-02T13:25:19Z</time>
      </trkpt>
      <trkpt lat="49.03896" lon="-0.46438">
        <ele>23.8</ele>
        <time>2023-05-02T13:25:20Z</time>
      </trkpt>
      <trkpt lat="49.03904" lon="-0.46435">
        <ele>23.6</ele>
        <time>2023-05-02T13:25:21Z</time>
      </trkpt>
      <trkpt lat="49.03911" lon="-0.46431">
        <ele>23.2</ele>
        <time>2023-05-02T13:25:22Z</time>
      </trkpt>
      <trkpt lat="49.03919" lon="-0.46428">
        <ele>23.2</ele>
        <time>2023-05-02T13:25:23Z</time>
      </trkpt>
      <trkpt lat="49.03927" lon="-0.46425">
        <ele>23</ele>
        <time>2023-05-02T13:25:24Z</time>
      </trkpt>
      <trkpt lat="49.03934" lon="-0.46421">
        <ele>22.8</ele>
        <time>2023-05-02T13:25:25Z</time>
      </trkpt>
      <trkpt lat="49.03942" lon="-0.46418">
        <ele>22.8</ele>
        <time>2023-05-02T13:25:26Z</time>
      </trkpt>
      <trkpt lat="49.0395" lon="-0.46415">
        <ele>22.8</ele>
        <time>2023-05-02T13:25:27Z</time>
      </trkpt>
      <trkpt lat="49.03958" lon="-0.46411">
        <ele>22.8</ele>
        <time>2023-05-02T13:25:28Z</time>
      </trkpt>
      <trkpt lat="49.03966" lon="-0.46408">
        <ele>22.8</ele>
        <time>2023-05-02T13:25:29Z</time>
      </trkpt>
      <trkpt lat="49.03974" lon="-0.46404">
        <ele>22.8</ele>
        <time>2023-05-02T13:25:30Z</time>
      </trkpt>
      <trkpt lat="49.03981" lon="-0.46401">
        <ele>22.6</ele>
        <time>2023-05-02T13:25:31Z</time>
      </trkpt>
      <trkpt lat="49.03989" lon="-0.46397">
        <ele>22.6</ele>
        <time>2023-05-02T13:25:32Z</time>
      </trkpt>
      <trkpt lat="49.03996" lon="-0.46394">
        <ele>22.4</ele>
        <time>2023-05-02T13:25:33Z</time>
      </trkpt>
      <trkpt lat="49.04004" lon="-0.4639">
        <ele>22.4</ele>
        <time>2023-05-02T13:25:34Z</time>
      </trkpt>
      <trkpt lat="49.04011" lon="-0.46387">
        <ele>22.6</ele>
        <time>2023-05-02T13:25:35Z</time>
      </trkpt>
      <trkpt lat="49.04019" lon="-0.46384">
        <ele>22.6</ele>
        <time>2023-05-02T13:25:36Z</time>
      </trkpt>
      <trkpt lat="49.04026" lon="-0.4638">
        <ele>22.6</ele>
        <time>2023-05-02T13:25:37Z</time>
      </trkpt>
      <trkpt lat="49.04034" lon="-0.46377">
        <ele>22.6</ele>
        <time>2023-05-02T13:25:38Z</time>
      </trkpt>
      <trkpt lat="49.04042" lon="-0.46374">
        <ele>22.6</ele>
        <time>2023-05-02T13:25:39Z</time>
      </trkpt>
      <trkpt lat="49.04049" lon="-0.4637">
        <ele>22.6</ele>
        <time>2023-05-02T13:25:40Z</time>
      </trkpt>
      <trkpt lat="49.04056" lon="-0.46367">
        <ele>22.6</ele>
        <time>2023-05-02T13:25:41Z</time>
      </trkpt>
      <trkpt lat="49.04064" lon="-0.46364">
        <ele>22.6</ele>
        <time>2023-05-02T13:25:42Z</time>
      </trkpt>
      <trkpt lat="49.04071" lon="-0.46361">
        <ele>22.6</ele>
        <time>2023-05-02T13:25:43Z</time>
      </trkpt>
      <trkpt lat="49.04078" lon="-0.46357">
        <ele>22.6</ele>
        <time>2023-05-02T13:25:44Z</time>
      </trkpt>
      <trkpt lat="49.04086" lon="-0.46354">
        <ele>22.2</ele>
        <time>2023-05-02T13:25:45Z</time>
      </trkpt>
      <trkpt lat="49.04093" lon="-0.46351">
        <ele>22</ele>
        <time>2023-05-02T13:25:46Z</time>
      </trkpt>
      <trkpt lat="49.041" lon="-0.46348">
        <ele>21.8</ele>
        <time>2023-05-02T13:25:47Z</time>
      </trkpt>
      <trkpt lat="49.04107" lon="-0.46345">
        <ele>21.2</ele>
        <time>2023-05-02T13:25:48Z</time>
      </trkpt>
      <trkpt lat="49.04114" lon="-0.46342">
        <ele>20.8</ele>
        <time>2023-05-02T13:25:49Z</time>
      </trkpt>
      <trkpt lat="49.04121" lon="-0.46339">
        <ele>20.6</ele>
        <time>2023-05-02T13:25:50Z</time>
      </trkpt>
      <trkpt lat="49.04128" lon="-0.46336">
        <ele>20.2</ele>
        <time>2023-05-02T13:25:51Z</time>
      </trkpt>
      <trkpt lat="49.04135" lon="-0.46333">
        <ele>19.8</ele>
        <time>2023-05-02T13:25:52Z</time>
      </trkpt>
      <trkpt lat="49.04142" lon="-0.4633">
        <ele>19.6</ele>
        <time>2023-05-02T13:25:53Z</time>
      </trkpt>
      <trkpt lat="49.04149" lon="-0.46327">
        <ele>19.4</ele>
        <time>2023-05-02T13:25:54Z</time>
      </trkpt>
      <trkpt lat="49.04156" lon="-0.46324">
        <ele>19.2</ele>
        <time>2023-05-02T13:25:55Z</time>
      </trkpt>
      <trkpt lat="49.04163" lon="-0.46321">
        <ele>19</ele>
        <time>2023-05-02T13:25:56Z</time>
      </trkpt>
      <trkpt lat="49.0417" lon="-0.46318">
        <ele>19</ele>
        <time>2023-05-02T13:25:57Z</time>
      </trkpt>
      <trkpt lat="49.04177" lon="-0.46315">
        <ele>19.2</ele>
        <time>2023-05-02T13:25:58Z</time>
      </trkpt>
      <trkpt lat="49.04184" lon="-0.46312">
        <ele>19.6</ele>
        <time>2023-05-02T13:25:59Z</time>
      </trkpt>
      <trkpt lat="49.0419" lon="-0.46309">
        <ele>19.8</ele>
        <time>2023-05-02T13:26:00Z</time>
      </trkpt>
      <trkpt lat="49.04197" lon="-0.46306">
        <ele>20</ele>
        <time>2023-05-02T13:26:01Z</time>
      </trkpt>
      <trkpt lat="49.04204" lon="-0.46303">
        <ele>20.2</ele>
        <time>2023-05-02T13:26:02Z</time>
      </trkpt>
      <trkpt lat="49.04211" lon="-0.463">
        <ele>20.4</ele>
        <time>2023-05-02T13:26:03Z</time>
      </trkpt>
      <trkpt lat="49.04218" lon="-0.46297">
        <ele>20.6</ele>
        <time>2023-05-02T13:26:04Z</time>
      </trkpt>
      <trkpt lat="49.04225" lon="-0.46293">
        <ele>20.6</ele>
        <time>2023-05-02T13:26:05Z</time>
      </trkpt>
      <trkpt lat="49.04233" lon="-0.4629">
        <ele>20.8</ele>
        <time>2023-05-02T13:26:06Z</time>
      </trkpt>
      <trkpt lat="49.0424" lon="-0.46287">
        <ele>20.8</ele>
        <time>2023-05-02T13:26:07Z</time>
      </trkpt>
      <trkpt lat="49.04247" lon="-0.46283">
        <ele>20.8</ele>
        <time>2023-05-02T13:26:08Z</time>
      </trkpt>
      <trkpt lat="49.04254" lon="-0.4628">
        <ele>20.8</ele>
        <time>2023-05-02T13:26:09Z</time>
      </trkpt>
      <trkpt lat="49.04262" lon="-0.46277">
        <ele>20.8</ele>
        <time>2023-05-02T13:26:10Z</time>
      </trkpt>
      <trkpt lat="49.04269" lon="-0.46274">
        <ele>20.8</ele>
        <time>2023-05-02T13:26:11Z</time>
      </trkpt>
      <trkpt lat="49.04276" lon="-0.46271">
        <ele>20.8</ele>
        <time>2023-05-02T13:26:12Z</time>
      </trkpt>
      <trkpt lat="49.04283" lon="-0.46268">
        <ele>21</ele>
        <time>2023-05-02T13:26:13Z</time>
      </trkpt>
      <trkpt lat="49.0429" lon="-0.46265">
        <ele>21</ele>
        <time>2023-05-02T13:26:14Z</time>
      </trkpt>
      <trkpt lat="49.04298" lon="-0.46262">
        <ele>21.2</ele>
        <time>2023-05-02T13:26:15Z</time>
      </trkpt>
      <trkpt lat="49.04305" lon="-0.46259">
        <ele>21.2</ele>
        <time>2023-05-02T13:26:16Z</time>
      </trkpt>
      <trkpt lat="49.04312" lon="-0.46256">
        <ele>21.2</ele>
        <time>2023-05-02T13:26:17Z</time>
      </trkpt>
      <trkpt lat="49.04319" lon="-0.46252">
        <ele>21.2</ele>
        <time>2023-05-02T13:26:18Z</time>
      </trkpt>
      <trkpt lat="49.04326" lon="-0.46248">
        <ele>21.2</ele>
        <time>2023-05-02T13:26:19Z</time>
      </trkpt>
      <trkpt lat="49.04334" lon="-0.46245">
        <ele>21.4</ele>
        <time>2023-05-02T13:26:20Z</time>
      </trkpt>
      <trkpt lat="49.04341" lon="-0.46241">
        <ele>21.4</ele>
        <time>2023-05-02T13:26:21Z</time>
      </trkpt>
      <trkpt lat="49.04348" lon="-0.46237">
        <ele>21.2</ele>
        <time>2023-05-02T13:26:22Z</time>
      </trkpt>
      <trkpt lat="49.04355" lon="-0.46233">
        <ele>21.2</ele>
        <time>2023-05-02T13:26:23Z</time>
      </trkpt>
      <trkpt lat="49.04362" lon="-0.46229">
        <ele>21.2</ele>
        <time>2023-05-02T13:26:24Z</time>
      </trkpt>
      <trkpt lat="49.04369" lon="-0.46225">
        <ele>21.2</ele>
        <time>2023-05-02T13:26:25Z</time>
      </trkpt>
      <trkpt lat="49.04376" lon="-0.46221">
        <ele>21</ele>
        <time>2023-05-02T13:26:26Z</time>
      </trkpt>
      <trkpt lat="49.04383" lon="-0.46217">
        <ele>20.8</ele>
        <time>2023-05-02T13:26:27Z</time>
      </trkpt>
      <trkpt lat="49.0439" lon="-0.46213">
        <ele>20.8</ele>
        <time>2023-05-02T13:26:28Z</time>
      </trkpt>
      <trkpt lat="49.04397" lon="-0.46209">
        <ele>20.6</ele>
        <time>2023-05-02T13:26:29Z</time>
      </trkpt>
      <trkpt lat="49.04403" lon="-0.46206">
        <ele>20.6</ele>
        <time>2023-05-02T13:26:30Z</time>
      </trkpt>
      <trkpt lat="49.0441" lon="-0.46201">
        <ele>20.2</ele>
        <time>2023-05-02T13:26:31Z</time>
      </trkpt>
      <trkpt lat="49.04417" lon="-0.46197">
        <ele>20.2</ele>
        <time>2023-05-02T13:26:32Z</time>
      </trkpt>
      <trkpt lat="49.04424" lon="-0.46192">
        <ele>20.2</ele>
        <time>2023-05-02T13:26:33Z</time>
      </trkpt>
      <trkpt lat="49.0443" lon="-0.46187">
        <ele>20.2</ele>
        <time>2023-05-02T13:26:34Z</time>
      </trkpt>
      <trkpt lat="49.04436" lon="-0.46181">
        <ele>20.4</ele>
        <time>2023-05-02T13:26:35Z</time>
      </trkpt>
      <trkpt lat="49.04443" lon="-0.46175">
        <ele>20.6</ele>
        <time>2023-05-02T13:26:36Z</time>
      </trkpt>
      <trkpt lat="49.04449" lon="-0.4617">
        <ele>20.6</ele>
        <time>2023-05-02T13:26:37Z</time>
      </trkpt>
      <trkpt lat="49.04456" lon="-0.46165">
        <ele>20.8</ele>
        <time>2023-05-02T13:26:38Z</time>
      </trkpt>
      <trkpt lat="49.04462" lon="-0.4616">
        <ele>21</ele>
        <time>2023-05-02T13:26:39Z</time>
      </trkpt>
      <trkpt lat="49.04469" lon="-0.46155">
        <ele>21.2</ele>
        <time>2023-05-02T13:26:40Z</time>
      </trkpt>
      <trkpt lat="49.04475" lon="-0.46149">
        <ele>21.4</ele>
        <time>2023-05-02T13:26:41Z</time>
      </trkpt>
      <trkpt lat="49.04482" lon="-0.46144">
        <ele>21.6</ele>
        <time>2023-05-02T13:26:42Z</time>
      </trkpt>
      <trkpt lat="49.04488" lon="-0.46138">
        <ele>21.8</ele>
        <time>2023-05-02T13:26:43Z</time>
      </trkpt>
      <trkpt lat="49.04494" lon="-0.46133">
        <ele>21.8</ele>
        <time>2023-05-02T13:26:44Z</time>
      </trkpt>
      <trkpt lat="49.04501" lon="-0.46127">
        <ele>21.8</ele>
        <time>2023-05-02T13:26:45Z</time>
      </trkpt>
      <trkpt lat="49.04507" lon="-0.46121">
        <ele>22</ele>
        <time>2023-05-02T13:26:46Z</time>
      </trkpt>
      <trkpt lat="49.04514" lon="-0.46116">
        <ele>22.2</ele>
        <time>2023-05-02T13:26:47Z</time>
      </trkpt>
      <trkpt lat="49.0452" lon="-0.4611">
        <ele>22.2</ele>
        <time>2023-05-02T13:26:48Z</time>
      </trkpt>
      <trkpt lat="49.04526" lon="-0.46104">
        <ele>22.2</ele>
        <time>2023-05-02T13:26:49Z</time>
      </trkpt>
      <trkpt lat="49.04533" lon="-0.46097">
        <ele>22.4</ele>
        <time>2023-05-02T13:26:50Z</time>
      </trkpt>
      <trkpt lat="49.04539" lon="-0.46091">
        <ele>22.2</ele>
        <time>2023-05-02T13:26:51Z</time>
      </trkpt>
      <trkpt lat="49.04546" lon="-0.46084">
        <ele>22.2</ele>
        <time>2023-05-02T13:26:52Z</time>
      </trkpt>
      <trkpt lat="49.04552" lon="-0.46078">
        <ele>22.2</ele>
        <time>2023-05-02T13:26:53Z</time>
      </trkpt>
      <trkpt lat="49.04559" lon="-0.46071">
        <ele>22.6</ele>
        <time>2023-05-02T13:26:54Z</time>
      </trkpt>
      <trkpt lat="49.04565" lon="-0.46064">
        <ele>22.6</ele>
        <time>2023-05-02T13:26:55Z</time>
      </trkpt>
      <trkpt lat="49.04572" lon="-0.46056">
        <ele>22.8</ele>
        <time>2023-05-02T13:26:56Z</time>
      </trkpt>
      <trkpt lat="49.04579" lon="-0.46049">
        <ele>22.8</ele>
        <time>2023-05-02T13:26:57Z</time>
      </trkpt>
      <trkpt lat="49.04586" lon="-0.46042">
        <ele>22.8</ele>
        <time>2023-05-02T13:26:58Z</time>
      </trkpt>
      <trkpt lat="49.04592" lon="-0.46035">
        <ele>23.2</ele>
        <time>2023-05-02T13:26:59Z</time>
      </trkpt>
      <trkpt lat="49.04599" lon="-0.46027">
        <ele>23.2</ele>
        <time>2023-05-02T13:27:00Z</time>
      </trkpt>
      <trkpt lat="49.04606" lon="-0.4602">
        <ele>23.4</ele>
        <time>2023-05-02T13:27:01Z</time>
      </trkpt>
      <trkpt lat="49.04613" lon="-0.46012">
        <ele>23.6</ele>
        <time>2023-05-02T13:27:02Z</time>
      </trkpt>
      <trkpt lat="49.0462" lon="-0.46005">
        <ele>23.6</ele>
        <time>2023-05-02T13:27:03Z</time>
      </trkpt>
      <trkpt lat="49.04627" lon="-0.45998">
        <ele>23.6</ele>
        <time>2023-05-02T13:27:04Z</time>
      </trkpt>
      <trkpt lat="49.04633" lon="-0.4599">
        <ele>23.8</ele>
        <time>2023-05-02T13:27:05Z</time>
      </trkpt>
      <trkpt lat="49.0464" lon="-0.45983">
        <ele>24</ele>
        <time>2023-05-02T13:27:06Z</time>
      </trkpt>
      <trkpt lat="49.04647" lon="-0.45975">
        <ele>24</ele>
        <time>2023-05-02T13:27:07Z</time>
      </trkpt>
      <trkpt lat="49.04654" lon="-0.45968">
        <ele>24</ele>
        <time>2023-05-02T13:27:08Z</time>
      </trkpt>
      <trkpt lat="49.04661" lon="-0.4596">
        <ele>23.8</ele>
        <time>2023-05-02T13:27:09Z</time>
      </trkpt>
      <trkpt lat="49.04667" lon="-0.45953">
        <ele>23.8</ele>
        <time>2023-05-02T13:27:10Z</time>
      </trkpt>
      <trkpt lat="49.04674" lon="-0.45946">
        <ele>23.8</ele>
        <time>2023-05-02T13:27:11Z</time>
      </trkpt>
      <trkpt lat="49.04681" lon="-0.45939">
        <ele>23.8</ele>
        <time>2023-05-02T13:27:12Z</time>
      </trkpt>
      <trkpt lat="49.04688" lon="-0.45931">
        <ele>23.6</ele>
        <time>2023-05-02T13:27:13Z</time>
      </trkpt>
      <trkpt lat="49.04695" lon="-0.45924">
        <ele>23.2</ele>
        <time>2023-05-02T13:27:14Z</time>
      </trkpt>
      <trkpt lat="49.04702" lon="-0.45918">
        <ele>23</ele>
        <time>2023-05-02T13:27:15Z</time>
      </trkpt>
      <trkpt lat="49.04709" lon="-0.45911">
        <ele>23.2</ele>
        <time>2023-05-02T13:27:16Z</time>
      </trkpt>
      <trkpt lat="49.04716" lon="-0.45904">
        <ele>23.2</ele>
        <time>2023-05-02T13:27:17Z</time>
      </trkpt>
      <trkpt lat="49.04723" lon="-0.45898">
        <ele>23.2</ele>
        <time>2023-05-02T13:27:18Z</time>
      </trkpt>
      <trkpt lat="49.0473" lon="-0.45892">
        <ele>23</ele>
        <time>2023-05-02T13:27:19Z</time>
      </trkpt>
      <trkpt lat="49.04738" lon="-0.45887">
        <ele>22.8</ele>
        <time>2023-05-02T13:27:20Z</time>
      </trkpt>
      <trkpt lat="49.04745" lon="-0.45881">
        <ele>22.6</ele>
        <time>2023-05-02T13:27:21Z</time>
      </trkpt>
      <trkpt lat="49.04753" lon="-0.45876">
        <ele>22.2</ele>
        <time>2023-05-02T13:27:22Z</time>
      </trkpt>
      <trkpt lat="49.0476" lon="-0.45871">
        <ele>22.2</ele>
        <time>2023-05-02T13:27:23Z</time>
      </trkpt>
      <trkpt lat="49.04768" lon="-0.45866">
        <ele>22.2</ele>
        <time>2023-05-02T13:27:24Z</time>
      </trkpt>
      <trkpt lat="49.04775" lon="-0.45861">
        <ele>22.2</ele>
        <time>2023-05-02T13:27:25Z</time>
      </trkpt>
      <trkpt lat="49.04783" lon="-0.45855">
        <ele>22</ele>
        <time>2023-05-02T13:27:26Z</time>
      </trkpt>
      <trkpt lat="49.04791" lon="-0.4585">
        <ele>21.8</ele>
        <time>2023-05-02T13:27:27Z</time>
      </trkpt>
      <trkpt lat="49.04798" lon="-0.45846">
        <ele>21.4</ele>
        <time>2023-05-02T13:27:28Z</time>
      </trkpt>
      <trkpt lat="49.04806" lon="-0.45842">
        <ele>21</ele>
        <time>2023-05-02T13:27:29Z</time>
      </trkpt>
      <trkpt lat="49.04814" lon="-0.45838">
        <ele>20.6</ele>
        <time>2023-05-02T13:27:30Z</time>
      </trkpt>
      <trkpt lat="49.04822" lon="-0.45835">
        <ele>19.8</ele>
        <time>2023-05-02T13:27:31Z</time>
      </trkpt>
      <trkpt lat="49.0483" lon="-0.45832">
        <ele>19.6</ele>
        <time>2023-05-02T13:27:32Z</time>
      </trkpt>
      <trkpt lat="49.04838" lon="-0.45829">
        <ele>19.8</ele>
        <time>2023-05-02T13:27:33Z</time>
      </trkpt>
      <trkpt lat="49.04847" lon="-0.45826">
        <ele>20</ele>
        <time>2023-05-02T13:27:34Z</time>
      </trkpt>
      <trkpt lat="49.04855" lon="-0.45823">
        <ele>20.2</ele>
        <time>2023-05-02T13:27:35Z</time>
      </trkpt>
      <trkpt lat="49.04863" lon="-0.45821">
        <ele>20.6</ele>
        <time>2023-05-02T13:27:36Z</time>
      </trkpt>
      <trkpt lat="49.04872" lon="-0.45819">
        <ele>20.8</ele>
        <time>2023-05-02T13:27:37Z</time>
      </trkpt>
      <trkpt lat="49.0488" lon="-0.45818">
        <ele>21.2</ele>
        <time>2023-05-02T13:27:38Z</time>
      </trkpt>
      <trkpt lat="49.04889" lon="-0.45816">
        <ele>21.2</ele>
        <time>2023-05-02T13:27:39Z</time>
      </trkpt>
      <trkpt lat="49.04897" lon="-0.45815">
        <ele>21.6</ele>
        <time>2023-05-02T13:27:40Z</time>
      </trkpt>
      <trkpt lat="49.04906" lon="-0.45814">
        <ele>21.6</ele>
        <time>2023-05-02T13:27:41Z</time>
      </trkpt>
      <trkpt lat="49.04915" lon="-0.45813">
        <ele>21.8</ele>
        <time>2023-05-02T13:27:42Z</time>
      </trkpt>
      <trkpt lat="49.04923" lon="-0.45813">
        <ele>21.8</ele>
        <time>2023-05-02T13:27:43Z</time>
      </trkpt>
      <trkpt lat="49.04932" lon="-0.45813">
        <ele>21.8</ele>
        <time>2023-05-02T13:27:44Z</time>
      </trkpt>
      <trkpt lat="49.04941" lon="-0.45813">
        <ele>22</ele>
        <time>2023-05-02T13:27:45Z</time>
      </trkpt>
      <trkpt lat="49.0495" lon="-0.45813">
        <ele>22</ele>
        <time>2023-05-02T13:27:46Z</time>
      </trkpt>
      <trkpt lat="49.04958" lon="-0.45814">
        <ele>22</ele>
        <time>2023-05-02T13:27:47Z</time>
      </trkpt>
      <trkpt lat="49.04967" lon="-0.45815">
        <ele>21.8</ele>
        <time>2023-05-02T13:27:48Z</time>
      </trkpt>
      <trkpt lat="49.04976" lon="-0.45816">
        <ele>21.8</ele>
        <time>2023-05-02T13:27:49Z</time>
      </trkpt>
      <trkpt lat="49.04985" lon="-0.45818">
        <ele>21.8</ele>
        <time>2023-05-02T13:27:50Z</time>
      </trkpt>
      <trkpt lat="49.04994" lon="-0.45819">
        <ele>21.6</ele>
        <time>2023-05-02T13:27:51Z</time>
      </trkpt>
      <trkpt lat="49.05002" lon="-0.4582">
        <ele>21.6</ele>
        <time>2023-05-02T13:27:52Z</time>
      </trkpt>
      <trkpt lat="49.05011" lon="-0.45822">
        <ele>21.8</ele>
        <time>2023-05-02T13:27:53Z</time>
      </trkpt>
      <trkpt lat="49.0502" lon="-0.45824">
        <ele>22.2</ele>
        <time>2023-05-02T13:27:54Z</time>
      </trkpt>
      <trkpt lat="49.05028" lon="-0.45825">
        <ele>22.6</ele>
        <time>2023-05-02T13:27:55Z</time>
      </trkpt>
      <trkpt lat="49.05037" lon="-0.45827">
        <ele>22.8</ele>
        <time>2023-05-02T13:27:56Z</time>
      </trkpt>
      <trkpt lat="49.05046" lon="-0.45829">
        <ele>23.2</ele>
        <time>2023-05-02T13:27:57Z</time>
      </trkpt>
      <trkpt lat="49.05054" lon="-0.4583">
        <ele>23.6</ele>
        <time>2023-05-02T13:27:58Z</time>
      </trkpt>
      <trkpt lat="49.05063" lon="-0.45832">
        <ele>23.8</ele>
        <time>2023-05-02T13:27:59Z</time>
      </trkpt>
      <trkpt lat="49.05072" lon="-0.45834">
        <ele>24.2</ele>
        <time>2023-05-02T13:28:00Z</time>
      </trkpt>
      <trkpt lat="49.05081" lon="-0.45835">
        <ele>24.8</ele>
        <time>2023-05-02T13:28:01Z</time>
      </trkpt>
      <trkpt lat="49.0509" lon="-0.45836">
        <ele>24.8</ele>
        <time>2023-05-02T13:28:02Z</time>
      </trkpt>
      <trkpt lat="49.05098" lon="-0.45838">
        <ele>25</ele>
        <time>2023-05-02T13:28:03Z</time>
      </trkpt>
      <trkpt lat="49.05107" lon="-0.45839">
        <ele>25.2</ele>
        <time>2023-05-02T13:28:04Z</time>
      </trkpt>
      <trkpt lat="49.05116" lon="-0.45841">
        <ele>25.2</ele>
        <time>2023-05-02T13:28:05Z</time>
      </trkpt>
      <trkpt lat="49.05125" lon="-0.45842">
        <ele>25.2</ele>
        <time>2023-05-02T13:28:06Z</time>
      </trkpt>
      <trkpt lat="49.05134" lon="-0.45844">
        <ele>25.2</ele>
        <time>2023-05-02T13:28:07Z</time>
      </trkpt>
      <trkpt lat="49.05143" lon="-0.45845">
        <ele>25.2</ele>
        <time>2023-05-02T13:28:08Z</time>
      </trkpt>
      <trkpt lat="49.05152" lon="-0.45847">
        <ele>25.2</ele>
        <time>2023-05-02T13:28:09Z</time>
      </trkpt>
      <trkpt lat="49.05161" lon="-0.45848">
        <ele>25.2</ele>
        <time>2023-05-02T13:28:10Z</time>
      </trkpt>
      <trkpt lat="49.0517" lon="-0.45849">
        <ele>25.2</ele>
        <time>2023-05-02T13:28:11Z</time>
      </trkpt>
      <trkpt lat="49.05179" lon="-0.45851">
        <ele>25.2</ele>
        <time>2023-05-02T13:28:12Z</time>
      </trkpt>
      <trkpt lat="49.05189" lon="-0.45852">
        <ele>25.2</ele>
        <time>2023-05-02T13:28:13Z</time>
      </trkpt>
      <trkpt lat="49.05198" lon="-0.45854">
        <ele>25.2</ele>
        <time>2023-05-02T13:28:14Z</time>
      </trkpt>
      <trkpt lat="49.05207" lon="-0.45855">
        <ele>25.2</ele>
        <time>2023-05-02T13:28:15Z</time>
      </trkpt>
      <trkpt lat="49.05216" lon="-0.45857">
        <ele>25</ele>
        <time>2023-05-02T13:28:16Z</time>
      </trkpt>
      <trkpt lat="49.05225" lon="-0.45858">
        <ele>24.8</ele>
        <time>2023-05-02T13:28:17Z</time>
      </trkpt>
      <trkpt lat="49.05234" lon="-0.45859">
        <ele>24.8</ele>
        <time>2023-05-02T13:28:18Z</time>
      </trkpt>
      <trkpt lat="49.05243" lon="-0.45861">
        <ele>24.6</ele>
        <time>2023-05-02T13:28:19Z</time>
      </trkpt>
      <trkpt lat="49.05252" lon="-0.45862">
        <ele>24.6</ele>
        <time>2023-05-02T13:28:20Z</time>
      </trkpt>
      <trkpt lat="49.05261" lon="-0.45864">
        <ele>24.4</ele>
        <time>2023-05-02T13:28:21Z</time>
      </trkpt>
      <trkpt lat="49.0527" lon="-0.45865">
        <ele>24.2</ele>
        <time>2023-05-02T13:28:22Z</time>
      </trkpt>
      <trkpt lat="49.05279" lon="-0.45867">
        <ele>24</ele>
        <time>2023-05-02T13:28:23Z</time>
      </trkpt>
      <trkpt lat="49.05288" lon="-0.45868">
        <ele>23.8</ele>
        <time>2023-05-02T13:28:24Z</time>
      </trkpt>
      <trkpt lat="49.05297" lon="-0.4587">
        <ele>23.8</ele>
        <time>2023-05-02T13:28:25Z</time>
      </trkpt>
      <trkpt lat="49.05306" lon="-0.45872">
        <ele>23.4</ele>
        <time>2023-05-02T13:28:26Z</time>
      </trkpt>
      <trkpt lat="49.05315" lon="-0.45873">
        <ele>23.2</ele>
        <time>2023-05-02T13:28:27Z</time>
      </trkpt>
      <trkpt lat="49.05324" lon="-0.45875">
        <ele>22.8</ele>
        <time>2023-05-02T13:28:28Z</time>
      </trkpt>
      <trkpt lat="49.05332" lon="-0.45877">
        <ele>22.8</ele>
        <time>2023-05-02T13:28:29Z</time>
      </trkpt>
      <trkpt lat="49.05341" lon="-0.45878">
        <ele>22.6</ele>
        <time>2023-05-02T13:28:30Z</time>
      </trkpt>
      <trkpt lat="49.05349" lon="-0.4588">
        <ele>22.4</ele>
        <time>2023-05-02T13:28:31Z</time>
      </trkpt>
      <trkpt lat="49.05358" lon="-0.45882">
        <ele>22.2</ele>
        <time>2023-05-02T13:28:32Z</time>
      </trkpt>
      <trkpt lat="49.05366" lon="-0.45884">
        <ele>22.2</ele>
        <time>2023-05-02T13:28:33Z</time>
      </trkpt>
      <trkpt lat="49.05375" lon="-0.45885">
        <ele>22.2</ele>
        <time>2023-05-02T13:28:34Z</time>
      </trkpt>
      <trkpt lat="49.05383" lon="-0.45887">
        <ele>22.2</ele>
        <time>2023-05-02T13:28:35Z</time>
      </trkpt>
      <trkpt lat="49.05391" lon="-0.45889">
        <ele>22</ele>
        <time>2023-05-02T13:28:36Z</time>
      </trkpt>
      <trkpt lat="49.05399" lon="-0.4589">
        <ele>21.8</ele>
        <time>2023-05-02T13:28:37Z</time>
      </trkpt>
      <trkpt lat="49.05408" lon="-0.45892">
        <ele>21.8</ele>
        <time>2023-05-02T13:28:38Z</time>
      </trkpt>
      <trkpt lat="49.05416" lon="-0.45894">
        <ele>21.8</ele>
        <time>2023-05-02T13:28:39Z</time>
      </trkpt>
      <trkpt lat="49.05424" lon="-0.45896">
        <ele>21.8</ele>
        <time>2023-05-02T13:28:40Z</time>
      </trkpt>
      <trkpt lat="49.05432" lon="-0.45897">
        <ele>21.6</ele>
        <time>2023-05-02T13:28:41Z</time>
      </trkpt>
      <trkpt lat="49.05439" lon="-0.45899">
        <ele>21.4</ele>
        <time>2023-05-02T13:28:42Z</time>
      </trkpt>
      <trkpt lat="49.05447" lon="-0.45901">
        <ele>21.2</ele>
        <time>2023-05-02T13:28:43Z</time>
      </trkpt>
      <trkpt lat="49.05455" lon="-0.45903">
        <ele>21.2</ele>
        <time>2023-05-02T13:28:44Z</time>
      </trkpt>
      <trkpt lat="49.05463" lon="-0.45905">
        <ele>20.8</ele>
        <time>2023-05-02T13:28:45Z</time>
      </trkpt>
      <trkpt lat="49.0547" lon="-0.45907">
        <ele>20.8</ele>
        <time>2023-05-02T13:28:46Z</time>
      </trkpt>
      <trkpt lat="49.05478" lon="-0.45909">
        <ele>20.6</ele>
        <time>2023-05-02T13:28:47Z</time>
      </trkpt>
      <trkpt lat="49.05485" lon="-0.45911">
        <ele>20.6</ele>
        <time>2023-05-02T13:28:48Z</time>
      </trkpt>
      <trkpt lat="49.05493" lon="-0.45913">
        <ele>20.2</ele>
        <time>2023-05-02T13:28:49Z</time>
      </trkpt>
      <trkpt lat="49.055" lon="-0.45916">
        <ele>20.2</ele>
        <time>2023-05-02T13:28:50Z</time>
      </trkpt>
      <trkpt lat="49.05508" lon="-0.45918">
        <ele>20</ele>
        <time>2023-05-02T13:28:51Z</time>
      </trkpt>
      <trkpt lat="49.05515" lon="-0.4592">
        <ele>20</ele>
        <time>2023-05-02T13:28:52Z</time>
      </trkpt>
      <trkpt lat="49.05523" lon="-0.45923">
        <ele>20</ele>
        <time>2023-05-02T13:28:53Z</time>
      </trkpt>
      <trkpt lat="49.0553" lon="-0.45925">
        <ele>19.8</ele>
        <time>2023-05-02T13:28:54Z</time>
      </trkpt>
      <trkpt lat="49.05538" lon="-0.45927">
        <ele>19.8</ele>
        <time>2023-05-02T13:28:55Z</time>
      </trkpt>
      <trkpt lat="49.05546" lon="-0.45929">
        <ele>19.8</ele>
        <time>2023-05-02T13:28:56Z</time>
      </trkpt>
      <trkpt lat="49.05554" lon="-0.45931">
        <ele>19.8</ele>
        <time>2023-05-02T13:28:57Z</time>
      </trkpt>
      <trkpt lat="49.05562" lon="-0.45933">
        <ele>19.8</ele>
        <time>2023-05-02T13:28:58Z</time>
      </trkpt>
      <trkpt lat="49.05569" lon="-0.45936">
        <ele>19.8</ele>
        <time>2023-05-02T13:28:59Z</time>
      </trkpt>
      <trkpt lat="49.05577" lon="-0.45938">
        <ele>19.8</ele>
        <time>2023-05-02T13:29:00Z</time>
      </trkpt>
      <trkpt lat="49.05584" lon="-0.4594">
        <ele>19.6</ele>
        <time>2023-05-02T13:29:01Z</time>
      </trkpt>
      <trkpt lat="49.05591" lon="-0.45943">
        <ele>19.4</ele>
        <time>2023-05-02T13:29:02Z</time>
      </trkpt>
      <trkpt lat="49.05599" lon="-0.45945">
        <ele>19.2</ele>
        <time>2023-05-02T13:29:03Z</time>
      </trkpt>
      <trkpt lat="49.05606" lon="-0.45947">
        <ele>19</ele>
        <time>2023-05-02T13:29:04Z</time>
      </trkpt>
      <trkpt lat="49.05614" lon="-0.45949">
        <ele>18.8</ele>
        <time>2023-05-02T13:29:05Z</time>
      </trkpt>
      <trkpt lat="49.05622" lon="-0.45951">
        <ele>18.6</ele>
        <time>2023-05-02T13:29:06Z</time>
      </trkpt>
      <trkpt lat="49.05629" lon="-0.45953">
        <ele>18.6</ele>
        <time>2023-05-02T13:29:07Z</time>
      </trkpt>
      <trkpt lat="49.05637" lon="-0.45955">
        <ele>18.2</ele>
        <time>2023-05-02T13:29:08Z</time>
      </trkpt>
      <trkpt lat="49.05645" lon="-0.45957">
        <ele>18.2</ele>
        <time>2023-05-02T13:29:09Z</time>
      </trkpt>
      <trkpt lat="49.05653" lon="-0.45959">
        <ele>18.2</ele>
        <time>2023-05-02T13:29:10Z</time>
      </trkpt>
      <trkpt lat="49.05661" lon="-0.4596">
        <ele>17.8</ele>
        <time>2023-05-02T13:29:11Z</time>
      </trkpt>
      <trkpt lat="49.05669" lon="-0.45962">
        <ele>17.8</ele>
        <time>2023-05-02T13:29:12Z</time>
      </trkpt>
      <trkpt lat="49.05677" lon="-0.45964">
        <ele>17.8</ele>
        <time>2023-05-02T13:29:13Z</time>
      </trkpt>
      <trkpt lat="49.05684" lon="-0.45965">
        <ele>17.6</ele>
        <time>2023-05-02T13:29:14Z</time>
      </trkpt>
      <trkpt lat="49.05692" lon="-0.45966">
        <ele>17.6</ele>
        <time>2023-05-02T13:29:15Z</time>
      </trkpt>
      <trkpt lat="49.057" lon="-0.45967">
        <ele>17.6</ele>
        <time>2023-05-02T13:29:16Z</time>
      </trkpt>
      <trkpt lat="49.05708" lon="-0.45969">
        <ele>17.4</ele>
        <time>2023-05-02T13:29:17Z</time>
      </trkpt>
      <trkpt lat="49.05716" lon="-0.4597">
        <ele>17.2</ele>
        <time>2023-05-02T13:29:18Z</time>
      </trkpt>
      <trkpt lat="49.05724" lon="-0.45971">
        <ele>17.2</ele>
        <time>2023-05-02T13:29:19Z</time>
      </trkpt>
      <trkpt lat="49.05732" lon="-0.45972">
        <ele>17.2</ele>
        <time>2023-05-02T13:29:20Z</time>
      </trkpt>
      <trkpt lat="49.0574" lon="-0.45973">
        <ele>17</ele>
        <time>2023-05-02T13:29:21Z</time>
      </trkpt>
      <trkpt lat="49.05748" lon="-0.45974">
        <ele>16.8</ele>
        <time>2023-05-02T13:29:22Z</time>
      </trkpt>
      <trkpt lat="49.05756" lon="-0.45974">
        <ele>16.8</ele>
        <time>2023-05-02T13:29:23Z</time>
      </trkpt>
      <trkpt lat="49.05764" lon="-0.45975">
        <ele>16.8</ele>
        <time>2023-05-02T13:29:24Z</time>
      </trkpt>
      <trkpt lat="49.05772" lon="-0.45976">
        <ele>16.8</ele>
        <time>2023-05-02T13:29:25Z</time>
      </trkpt>
      <trkpt lat="49.0578" lon="-0.45976">
        <ele>16.8</ele>
        <time>2023-05-02T13:29:26Z</time>
      </trkpt>
      <trkpt lat="49.05788" lon="-0.45976">
        <ele>16.8</ele>
        <time>2023-05-02T13:29:27Z</time>
      </trkpt>
      <trkpt lat="49.05796" lon="-0.45976">
        <ele>16.8</ele>
        <time>2023-05-02T13:29:28Z</time>
      </trkpt>
      <trkpt lat="49.05804" lon="-0.45977">
        <ele>16.8</ele>
        <time>2023-05-02T13:29:29Z</time>
      </trkpt>
      <trkpt lat="49.05812" lon="-0.45977">
        <ele>16.8</ele>
        <time>2023-05-02T13:29:30Z</time>
      </trkpt>
      <trkpt lat="49.05819" lon="-0.45976">
        <ele>16.8</ele>
        <time>2023-05-02T13:29:31Z</time>
      </trkpt>
      <trkpt lat="49.05827" lon="-0.45976">
        <ele>16.8</ele>
        <time>2023-05-02T13:29:32Z</time>
      </trkpt>
      <trkpt lat="49.05835" lon="-0.45976">
        <ele>16.8</ele>
        <time>2023-05-02T13:29:33Z</time>
      </trkpt>
      <trkpt lat="49.05843" lon="-0.45976">
        <ele>16.8</ele>
        <time>2023-05-02T13:29:34Z</time>
      </trkpt>
      <trkpt lat="49.05851" lon="-0.45975">
        <ele>16.8</ele>
        <time>2023-05-02T13:29:35Z</time>
      </trkpt>
      <trkpt lat="49.05858" lon="-0.45974">
        <ele>17.2</ele>
        <time>2023-05-02T13:29:36Z</time>
      </trkpt>
      <trkpt lat="49.05866" lon="-0.45974">
        <ele>17.2</ele>
        <time>2023-05-02T13:29:37Z</time>
      </trkpt>
      <trkpt lat="49.05874" lon="-0.45973">
        <ele>17.2</ele>
        <time>2023-05-02T13:29:38Z</time>
      </trkpt>
      <trkpt lat="49.05881" lon="-0.45972">
        <ele>17.4</ele>
        <time>2023-05-02T13:29:39Z</time>
      </trkpt>
      <trkpt lat="49.05889" lon="-0.45971">
        <ele>17.6</ele>
        <time>2023-05-02T13:29:40Z</time>
      </trkpt>
      <trkpt lat="49.05896" lon="-0.4597">
        <ele>17.8</ele>
        <time>2023-05-02T13:29:41Z</time>
      </trkpt>
      <trkpt lat="49.05904" lon="-0.45969">
        <ele>17.8</ele>
        <time>2023-05-02T13:29:42Z</time>
      </trkpt>
      <trkpt lat="49.05911" lon="-0.45967">
        <ele>17.8</ele>
        <time>2023-05-02T13:29:43Z</time>
      </trkpt>
      <trkpt lat="49.05919" lon="-0.45966">
        <ele>18</ele>
        <time>2023-05-02T13:29:44Z</time>
      </trkpt>
      <trkpt lat="49.05926" lon="-0.45965">
        <ele>17.8</ele>
        <time>2023-05-02T13:29:45Z</time>
      </trkpt>
      <trkpt lat="49.05934" lon="-0.45963">
        <ele>17.8</ele>
        <time>2023-05-02T13:29:46Z</time>
      </trkpt>
      <trkpt lat="49.05941" lon="-0.45962">
        <ele>17.8</ele>
        <time>2023-05-02T13:29:47Z</time>
      </trkpt>
      <trkpt lat="49.05949" lon="-0.4596">
        <ele>17.8</ele>
        <time>2023-05-02T13:29:48Z</time>
      </trkpt>
      <trkpt lat="49.05957" lon="-0.45959">
        <ele>17.8</ele>
        <time>2023-05-02T13:29:49Z</time>
      </trkpt>
      <trkpt lat="49.05964" lon="-0.45957">
        <ele>17.8</ele>
        <time>2023-05-02T13:29:50Z</time>
      </trkpt>
      <trkpt lat="49.05972" lon="-0.45955">
        <ele>17.8</ele>
        <time>2023-05-02T13:29:51Z</time>
      </trkpt>
      <trkpt lat="49.05979" lon="-0.45953">
        <ele>17.8</ele>
        <time>2023-05-02T13:29:52Z</time>
      </trkpt>
      <trkpt lat="49.05987" lon="-0.4595">
        <ele>17.6</ele>
        <time>2023-05-02T13:29:53Z</time>
      </trkpt>
      <trkpt lat="49.05994" lon="-0.45948">
        <ele>17.6</ele>
        <time>2023-05-02T13:29:54Z</time>
      </trkpt>
      <trkpt lat="49.06002" lon="-0.45946">
        <ele>17.6</ele>
        <time>2023-05-02T13:29:55Z</time>
      </trkpt>
      <trkpt lat="49.06009" lon="-0.45943">
        <ele>17.6</ele>
        <time>2023-05-02T13:29:56Z</time>
      </trkpt>
      <trkpt lat="49.06016" lon="-0.45941">
        <ele>17.6</ele>
        <time>2023-05-02T13:29:57Z</time>
      </trkpt>
      <trkpt lat="49.06024" lon="-0.45938">
        <ele>17.6</ele>
        <time>2023-05-02T13:29:58Z</time>
      </trkpt>
      <trkpt lat="49.06031" lon="-0.45936">
        <ele>17.4</ele>
        <time>2023-05-02T13:29:59Z</time>
      </trkpt>
      <trkpt lat="49.06038" lon="-0.45933">
        <ele>17.2</ele>
        <time>2023-05-02T13:30:00Z</time>
      </trkpt>
      <trkpt lat="49.06045" lon="-0.4593">
        <ele>17.2</ele>
        <time>2023-05-02T13:30:01Z</time>
      </trkpt>
      <trkpt lat="49.06052" lon="-0.45928">
        <ele>17</ele>
        <time>2023-05-02T13:30:02Z</time>
      </trkpt>
      <trkpt lat="49.06059" lon="-0.45925">
        <ele>16.8</ele>
        <time>2023-05-02T13:30:03Z</time>
      </trkpt>
      <trkpt lat="49.06066" lon="-0.45922">
        <ele>16.6</ele>
        <time>2023-05-02T13:30:04Z</time>
      </trkpt>
      <trkpt lat="49.06073" lon="-0.45919">
        <ele>16.4</ele>
        <time>2023-05-02T13:30:05Z</time>
      </trkpt>
      <trkpt lat="49.0608" lon="-0.45916">
        <ele>16.2</ele>
        <time>2023-05-02T13:30:06Z</time>
      </trkpt>
      <trkpt lat="49.06087" lon="-0.45913">
        <ele>16.6</ele>
        <time>2023-05-02T13:30:07Z</time>
      </trkpt>
      <trkpt lat="49.06093" lon="-0.4591">
        <ele>17.2</ele>
        <time>2023-05-02T13:30:08Z</time>
      </trkpt>
      <trkpt lat="49.061" lon="-0.45906">
        <ele>17.8</ele>
        <time>2023-05-02T13:30:09Z</time>
      </trkpt>
      <trkpt lat="49.06107" lon="-0.45903">
        <ele>18.2</ele>
        <time>2023-05-02T13:30:10Z</time>
      </trkpt>
      <trkpt lat="49.06114" lon="-0.45899">
        <ele>18.8</ele>
        <time>2023-05-02T13:30:11Z</time>
      </trkpt>
      <trkpt lat="49.06121" lon="-0.45895">
        <ele>19.2</ele>
        <time>2023-05-02T13:30:12Z</time>
      </trkpt>
      <trkpt lat="49.06127" lon="-0.45892">
        <ele>19.6</ele>
        <time>2023-05-02T13:30:13Z</time>
      </trkpt>
      <trkpt lat="49.06134" lon="-0.45888">
        <ele>19.8</ele>
        <time>2023-05-02T13:30:14Z</time>
      </trkpt>
      <trkpt lat="49.0614" lon="-0.45884">
        <ele>20.2</ele>
        <time>2023-05-02T13:30:15Z</time>
      </trkpt>
      <trkpt lat="49.06147" lon="-0.45881">
        <ele>20.4</ele>
        <time>2023-05-02T13:30:16Z</time>
      </trkpt>
      <trkpt lat="49.06153" lon="-0.45877">
        <ele>20.6</ele>
        <time>2023-05-02T13:30:17Z</time>
      </trkpt>
      <trkpt lat="49.06159" lon="-0.45872">
        <ele>20.8</ele>
        <time>2023-05-02T13:30:18Z</time>
      </trkpt>
      <trkpt lat="49.06165" lon="-0.45868">
        <ele>20.8</ele>
        <time>2023-05-02T13:30:19Z</time>
      </trkpt>
      <trkpt lat="49.06171" lon="-0.45863">
        <ele>20.8</ele>
        <time>2023-05-02T13:30:20Z</time>
      </trkpt>
      <trkpt lat="49.06177" lon="-0.45858">
        <ele>20.8</ele>
        <time>2023-05-02T13:30:21Z</time>
      </trkpt>
      <trkpt lat="49.06183" lon="-0.45853">
        <ele>20.8</ele>
        <time>2023-05-02T13:30:22Z</time>
      </trkpt>
      <trkpt lat="49.06189" lon="-0.45848">
        <ele>20.8</ele>
        <time>2023-05-02T13:30:23Z</time>
      </trkpt>
      <trkpt lat="49.06195" lon="-0.45843">
        <ele>20.6</ele>
        <time>2023-05-02T13:30:24Z</time>
      </trkpt>
      <trkpt lat="49.06201" lon="-0.45838">
        <ele>20.4</ele>
        <time>2023-05-02T13:30:25Z</time>
      </trkpt>
      <trkpt lat="49.06206" lon="-0.45832">
        <ele>20.2</ele>
        <time>2023-05-02T13:30:26Z</time>
      </trkpt>
      <trkpt lat="49.06212" lon="-0.45827">
        <ele>20.2</ele>
        <time>2023-05-02T13:30:27Z</time>
      </trkpt>
      <trkpt lat="49.06218" lon="-0.45822">
        <ele>20.6</ele>
        <time>2023-05-02T13:30:28Z</time>
      </trkpt>
      <trkpt lat="49.06224" lon="-0.45816">
        <ele>20.8</ele>
        <time>2023-05-02T13:30:29Z</time>
      </trkpt>
      <trkpt lat="49.06229" lon="-0.45811">
        <ele>20.8</ele>
        <time>2023-05-02T13:30:30Z</time>
      </trkpt>
      <trkpt lat="49.06235" lon="-0.45805">
        <ele>21.2</ele>
        <time>2023-05-02T13:30:31Z</time>
      </trkpt>
      <trkpt lat="49.0624" lon="-0.458">
        <ele>21.2</ele>
        <time>2023-05-02T13:30:32Z</time>
      </trkpt>
      <trkpt lat="49.06245" lon="-0.45794">
        <ele>21.6</ele>
        <time>2023-05-02T13:30:33Z</time>
      </trkpt>
      <trkpt lat="49.0625" lon="-0.45788">
        <ele>21.8</ele>
        <time>2023-05-02T13:30:34Z</time>
      </trkpt>
      <trkpt lat="49.06255" lon="-0.45781">
        <ele>22</ele>
        <time>2023-05-02T13:30:35Z</time>
      </trkpt>
      <trkpt lat="49.0626" lon="-0.45775">
        <ele>22.2</ele>
        <time>2023-05-02T13:30:36Z</time>
      </trkpt>
      <trkpt lat="49.06265" lon="-0.45768">
        <ele>22.2</ele>
        <time>2023-05-02T13:30:37Z</time>
      </trkpt>
      <trkpt lat="49.0627" lon="-0.45761">
        <ele>22.2</ele>
        <time>2023-05-02T13:30:38Z</time>
      </trkpt>
      <trkpt lat="49.06275" lon="-0.45754">
        <ele>22.2</ele>
        <time>2023-05-02T13:30:39Z</time>
      </trkpt>
      <trkpt lat="49.0628" lon="-0.45747">
        <ele>22.4</ele>
        <time>2023-05-02T13:30:40Z</time>
      </trkpt>
      <trkpt lat="49.06285" lon="-0.4574">
        <ele>22.8</ele>
        <time>2023-05-02T13:30:41Z</time>
      </trkpt>
      <trkpt lat="49.0629" lon="-0.45733">
        <ele>23</ele>
        <time>2023-05-02T13:30:42Z</time>
      </trkpt>
      <trkpt lat="49.06295" lon="-0.45725">
        <ele>23.2</ele>
        <time>2023-05-02T13:30:43Z</time>
      </trkpt>
      <trkpt lat="49.063" lon="-0.45718">
        <ele>23.6</ele>
        <time>2023-05-02T13:30:44Z</time>
      </trkpt>
      <trkpt lat="49.06304" lon="-0.4571">
        <ele>23.8</ele>
        <time>2023-05-02T13:30:45Z</time>
      </trkpt>
      <trkpt lat="49.06309" lon="-0.45702">
        <ele>24.2</ele>
        <time>2023-05-02T13:30:46Z</time>
      </trkpt>
      <trkpt lat="49.06313" lon="-0.45694">
        <ele>24.2</ele>
        <time>2023-05-02T13:30:47Z</time>
      </trkpt>
      <trkpt lat="49.06318" lon="-0.45685">
        <ele>24.6</ele>
        <time>2023-05-02T13:30:48Z</time>
      </trkpt>
      <trkpt lat="49.06322" lon="-0.45677">
        <ele>24.8</ele>
        <time>2023-05-02T13:30:49Z</time>
      </trkpt>
      <trkpt lat="49.06327" lon="-0.45669">
        <ele>24.8</ele>
        <time>2023-05-02T13:30:50Z</time>
      </trkpt>
      <trkpt lat="49.06331" lon="-0.4566">
        <ele>25</ele>
        <time>2023-05-02T13:30:51Z</time>
      </trkpt>
      <trkpt lat="49.06335" lon="-0.45652">
        <ele>25.2</ele>
        <time>2023-05-02T13:30:52Z</time>
      </trkpt>
      <trkpt lat="49.06339" lon="-0.45643">
        <ele>25.6</ele>
        <time>2023-05-02T13:30:53Z</time>
      </trkpt>
      <trkpt lat="49.06343" lon="-0.45634">
        <ele>25.8</ele>
        <time>2023-05-02T13:30:54Z</time>
      </trkpt>
      <trkpt lat="49.06346" lon="-0.45626">
        <ele>26.2</ele>
        <time>2023-05-02T13:30:55Z</time>
      </trkpt>
      <trkpt lat="49.0635" lon="-0.45617">
        <ele>26.2</ele>
        <time>2023-05-02T13:30:56Z</time>
      </trkpt>
      <trkpt lat="49.06354" lon="-0.45608">
        <ele>26.6</ele>
        <time>2023-05-02T13:30:57Z</time>
      </trkpt>
      <trkpt lat="49.06357" lon="-0.45599">
        <ele>26.6</ele>
        <time>2023-05-02T13:30:58Z</time>
      </trkpt>
      <trkpt lat="49.0636" lon="-0.4559">
        <ele>26.6</ele>
        <time>2023-05-02T13:30:59Z</time>
      </trkpt>
      <trkpt lat="49.06364" lon="-0.45581">
        <ele>26.8</ele>
        <time>2023-05-02T13:31:00Z</time>
      </trkpt>
      <trkpt lat="49.06367" lon="-0.45571">
        <ele>26.8</ele>
        <time>2023-05-02T13:31:01Z</time>
      </trkpt>
      <trkpt lat="49.06371" lon="-0.45562">
        <ele>26.8</ele>
        <time>2023-05-02T13:31:02Z</time>
      </trkpt>
      <trkpt lat="49.06374" lon="-0.45552">
        <ele>27</ele>
        <time>2023-05-02T13:31:03Z</time>
      </trkpt>
      <trkpt lat="49.06377" lon="-0.45542">
        <ele>27</ele>
        <time>2023-05-02T13:31:04Z</time>
      </trkpt>
      <trkpt lat="49.0638" lon="-0.45532">
        <ele>27</ele>
        <time>2023-05-02T13:31:05Z</time>
      </trkpt>
      <trkpt lat="49.06383" lon="-0.45522">
        <ele>27</ele>
        <time>2023-05-02T13:31:06Z</time>
      </trkpt>
      <trkpt lat="49.06386" lon="-0.45511">
        <ele>27</ele>
        <time>2023-05-02T13:31:07Z</time>
      </trkpt>
      <trkpt lat="49.06389" lon="-0.45501">
        <ele>26.8</ele>
        <time>2023-05-02T13:31:08Z</time>
      </trkpt>
      <trkpt lat="49.06392" lon="-0.45491">
        <ele>27.2</ele>
        <time>2023-05-02T13:31:09Z</time>
      </trkpt>
      <trkpt lat="49.06395" lon="-0.45481">
        <ele>27.2</ele>
        <time>2023-05-02T13:31:10Z</time>
      </trkpt>
      <trkpt lat="49.06397" lon="-0.45471">
        <ele>27.6</ele>
        <time>2023-05-02T13:31:11Z</time>
      </trkpt>
      <trkpt lat="49.064" lon="-0.45461">
        <ele>27.8</ele>
        <time>2023-05-02T13:31:12Z</time>
      </trkpt>
      <trkpt lat="49.06403" lon="-0.45451">
        <ele>27.8</ele>
        <time>2023-05-02T13:31:13Z</time>
      </trkpt>
      <trkpt lat="49.06406" lon="-0.45441">
        <ele>27.8</ele>
        <time>2023-05-02T13:31:14Z</time>
      </trkpt>
      <trkpt lat="49.06409" lon="-0.45432">
        <ele>28</ele>
        <time>2023-05-02T13:31:15Z</time>
      </trkpt>
      <trkpt lat="49.06412" lon="-0.45422">
        <ele>28</ele>
        <time>2023-05-02T13:31:16Z</time>
      </trkpt>
      <trkpt lat="49.06414" lon="-0.45412">
        <ele>28.2</ele>
        <time>2023-05-02T13:31:17Z</time>
      </trkpt>
      <trkpt lat="49.06417" lon="-0.45402">
        <ele>28.8</ele>
        <time>2023-05-02T13:31:18Z</time>
      </trkpt>
      <trkpt lat="49.0642" lon="-0.45393">
        <ele>29.6</ele>
        <time>2023-05-02T13:31:19Z</time>
      </trkpt>
      <trkpt lat="49.06423" lon="-0.45383">
        <ele>30.2</ele>
        <time>2023-05-02T13:31:20Z</time>
      </trkpt>
      <trkpt lat="49.06426" lon="-0.45373">
        <ele>30.8</ele>
        <time>2023-05-02T13:31:21Z</time>
      </trkpt>
      <trkpt lat="49.06429" lon="-0.45364">
        <ele>31.2</ele>
        <time>2023-05-02T13:31:22Z</time>
      </trkpt>
      <trkpt lat="49.06432" lon="-0.45354">
        <ele>31.4</ele>
        <time>2023-05-02T13:31:23Z</time>
      </trkpt>
      <trkpt lat="49.06435" lon="-0.45344">
        <ele>31.8</ele>
        <time>2023-05-02T13:31:24Z</time>
      </trkpt>
      <trkpt lat="49.06438" lon="-0.45335">
        <ele>31.8</ele>
        <time>2023-05-02T13:31:25Z</time>
      </trkpt>
      <trkpt lat="49.06441" lon="-0.45325">
        <ele>31.8</ele>
        <time>2023-05-02T13:31:26Z</time>
      </trkpt>
      <trkpt lat="49.06444" lon="-0.45316">
        <ele>31.6</ele>
        <time>2023-05-02T13:31:27Z</time>
      </trkpt>
      <trkpt lat="49.06447" lon="-0.45306">
        <ele>31.6</ele>
        <time>2023-05-02T13:31:28Z</time>
      </trkpt>
      <trkpt lat="49.0645" lon="-0.45297">
        <ele>31.2</ele>
        <time>2023-05-02T13:31:29Z</time>
      </trkpt>
      <trkpt lat="49.06453" lon="-0.45287">
        <ele>30.8</ele>
        <time>2023-05-02T13:31:30Z</time>
      </trkpt>
      <trkpt lat="49.06456" lon="-0.45278">
        <ele>30.6</ele>
        <time>2023-05-02T13:31:31Z</time>
      </trkpt>
      <trkpt lat="49.06458" lon="-0.45269">
        <ele>30.2</ele>
        <time>2023-05-02T13:31:32Z</time>
      </trkpt>
      <trkpt lat="49.06461" lon="-0.45259">
        <ele>29.6</ele>
        <time>2023-05-02T13:31:33Z</time>
      </trkpt>
      <trkpt lat="49.06464" lon="-0.4525">
        <ele>29</ele>
        <time>2023-05-02T13:31:34Z</time>
      </trkpt>
      <trkpt lat="49.06466" lon="-0.45241">
        <ele>28.8</ele>
        <time>2023-05-02T13:31:35Z</time>
      </trkpt>
      <trkpt lat="49.06469" lon="-0.45232">
        <ele>28.8</ele>
        <time>2023-05-02T13:31:36Z</time>
      </trkpt>
      <trkpt lat="49.06472" lon="-0.45222">
        <ele>28.8</ele>
        <time>2023-05-02T13:31:37Z</time>
      </trkpt>
      <trkpt lat="49.06474" lon="-0.45213">
        <ele>28.8</ele>
        <time>2023-05-02T13:31:38Z</time>
      </trkpt>
      <trkpt lat="49.06477" lon="-0.45204">
        <ele>28.6</ele>
        <time>2023-05-02T13:31:39Z</time>
      </trkpt>
      <trkpt lat="49.06479" lon="-0.45195">
        <ele>28.6</ele>
        <time>2023-05-02T13:31:40Z</time>
      </trkpt>
      <trkpt lat="49.06482" lon="-0.45186">
        <ele>28.6</ele>
        <time>2023-05-02T13:31:41Z</time>
      </trkpt>
      <trkpt lat="49.06484" lon="-0.45177">
        <ele>28.6</ele>
        <time>2023-05-02T13:31:42Z</time>
      </trkpt>
      <trkpt lat="49.06486" lon="-0.45168">
        <ele>28.6</ele>
        <time>2023-05-02T13:31:43Z</time>
      </trkpt>
      <trkpt lat="49.06489" lon="-0.45159">
        <ele>28.6</ele>
        <time>2023-05-02T13:31:44Z</time>
      </trkpt>
      <trkpt lat="49.06491" lon="-0.45151">
        <ele>28.8</ele>
        <time>2023-05-02T13:31:45Z</time>
      </trkpt>
      <trkpt lat="49.06493" lon="-0.45142">
        <ele>28.8</ele>
        <time>2023-05-02T13:31:46Z</time>
      </trkpt>
      <trkpt lat="49.06495" lon="-0.45133">
        <ele>29.2</ele>
        <time>2023-05-02T13:31:47Z</time>
      </trkpt>
      <trkpt lat="49.06498" lon="-0.45124">
        <ele>29.4</ele>
        <time>2023-05-02T13:31:48Z</time>
      </trkpt>
      <trkpt lat="49.06499" lon="-0.45115">
        <ele>29.8</ele>
        <time>2023-05-02T13:31:49Z</time>
      </trkpt>
      <trkpt lat="49.06501" lon="-0.45107">
        <ele>30.2</ele>
        <time>2023-05-02T13:31:50Z</time>
      </trkpt>
      <trkpt lat="49.06503" lon="-0.45098">
        <ele>30.8</ele>
        <time>2023-05-02T13:31:51Z</time>
      </trkpt>
      <trkpt lat="49.06505" lon="-0.4509">
        <ele>31.4</ele>
        <time>2023-05-02T13:31:52Z</time>
      </trkpt>
      <trkpt lat="49.06506" lon="-0.45082">
        <ele>31.8</ele>
        <time>2023-05-02T13:31:53Z</time>
      </trkpt>
      <trkpt lat="49.06508" lon="-0.45073">
        <ele>32</ele>
        <time>2023-05-02T13:31:54Z</time>
      </trkpt>
      <trkpt lat="49.06509" lon="-0.45063">
        <ele>32.4</ele>
        <time>2023-05-02T13:31:55Z</time>
      </trkpt>
      <trkpt lat="49.0651" lon="-0.45053">
        <ele>32.8</ele>
        <time>2023-05-02T13:31:56Z</time>
      </trkpt>
      <trkpt lat="49.06511" lon="-0.45043">
        <ele>33</ele>
        <time>2023-05-02T13:31:57Z</time>
      </trkpt>
      <trkpt lat="49.06512" lon="-0.45032">
        <ele>33.6</ele>
        <time>2023-05-02T13:31:58Z</time>
      </trkpt>
      <trkpt lat="49.06513" lon="-0.45021">
        <ele>33.8</ele>
        <time>2023-05-02T13:31:59Z</time>
      </trkpt>
      <trkpt lat="49.06513" lon="-0.45011">
        <ele>34.2</ele>
        <time>2023-05-02T13:32:00Z</time>
      </trkpt>
      <trkpt lat="49.06514" lon="-0.45">
        <ele>34.6</ele>
        <time>2023-05-02T13:32:01Z</time>
      </trkpt>
      <trkpt lat="49.06515" lon="-0.44989">
        <ele>34.4</ele>
        <time>2023-05-02T13:32:02Z</time>
      </trkpt>
      <trkpt lat="49.06515" lon="-0.44978">
        <ele>34.2</ele>
        <time>2023-05-02T13:32:03Z</time>
      </trkpt>
      <trkpt lat="49.06515" lon="-0.44968">
        <ele>34</ele>
        <time>2023-05-02T13:32:04Z</time>
      </trkpt>
      <trkpt lat="49.06515" lon="-0.44957">
        <ele>34</ele>
        <time>2023-05-02T13:32:05Z</time>
      </trkpt>
      <trkpt lat="49.06515" lon="-0.44946">
        <ele>34</ele>
        <time>2023-05-02T13:32:06Z</time>
      </trkpt>
      <trkpt lat="49.06515" lon="-0.44936">
        <ele>34</ele>
        <time>2023-05-02T13:32:07Z</time>
      </trkpt>
      <trkpt lat="49.06514" lon="-0.44925">
        <ele>34</ele>
        <time>2023-05-02T13:32:08Z</time>
      </trkpt>
      <trkpt lat="49.06514" lon="-0.44915">
        <ele>34</ele>
        <time>2023-05-02T13:32:09Z</time>
      </trkpt>
      <trkpt lat="49.06513" lon="-0.44904">
        <ele>33.8</ele>
        <time>2023-05-02T13:32:10Z</time>
      </trkpt>
      <trkpt lat="49.06512" lon="-0.44893">
        <ele>33.6</ele>
        <time>2023-05-02T13:32:11Z</time>
      </trkpt>
      <trkpt lat="49.06511" lon="-0.44883">
        <ele>33.4</ele>
        <time>2023-05-02T13:32:12Z</time>
      </trkpt>
      <trkpt lat="49.0651" lon="-0.44873">
        <ele>33.2</ele>
        <time>2023-05-02T13:32:13Z</time>
      </trkpt>
      <trkpt lat="49.06509" lon="-0.44862">
        <ele>33</ele>
        <time>2023-05-02T13:32:14Z</time>
      </trkpt>
      <trkpt lat="49.06508" lon="-0.44852">
        <ele>33</ele>
        <time>2023-05-02T13:32:15Z</time>
      </trkpt>
      <trkpt lat="49.06508" lon="-0.44842">
        <ele>32.8</ele>
        <time>2023-05-02T13:32:16Z</time>
      </trkpt>
      <trkpt lat="49.06507" lon="-0.44832">
        <ele>32.6</ele>
        <time>2023-05-02T13:32:17Z</time>
      </trkpt>
      <trkpt lat="49.06507" lon="-0.44823">
        <ele>31.8</ele>
        <time>2023-05-02T13:32:18Z</time>
      </trkpt>
      <trkpt lat="49.06506" lon="-0.44813">
        <ele>31.2</ele>
        <time>2023-05-02T13:32:19Z</time>
      </trkpt>
      <trkpt lat="49.06505" lon="-0.44804">
        <ele>30.8</ele>
        <time>2023-05-02T13:32:20Z</time>
      </trkpt>
      <trkpt lat="49.06504" lon="-0.44794">
        <ele>30.2</ele>
        <time>2023-05-02T13:32:21Z</time>
      </trkpt>
      <trkpt lat="49.06503" lon="-0.44784">
        <ele>29.6</ele>
        <time>2023-05-02T13:32:22Z</time>
      </trkpt>
      <trkpt lat="49.06502" lon="-0.44774">
        <ele>28.8</ele>
        <time>2023-05-02T13:32:23Z</time>
      </trkpt>
      <trkpt lat="49.065" lon="-0.44764">
        <ele>28.2</ele>
        <time>2023-05-02T13:32:24Z</time>
      </trkpt>
      <trkpt lat="49.06498" lon="-0.44754">
        <ele>27.6</ele>
        <time>2023-05-02T13:32:25Z</time>
      </trkpt>
      <trkpt lat="49.06497" lon="-0.44743">
        <ele>27.2</ele>
        <time>2023-05-02T13:32:26Z</time>
      </trkpt>
      <trkpt lat="49.06495" lon="-0.44733">
        <ele>26.6</ele>
        <time>2023-05-02T13:32:27Z</time>
      </trkpt>
      <trkpt lat="49.06493" lon="-0.44723">
        <ele>26.2</ele>
        <time>2023-05-02T13:32:28Z</time>
      </trkpt>
      <trkpt lat="49.06492" lon="-0.44713">
        <ele>25.6</ele>
        <time>2023-05-02T13:32:29Z</time>
      </trkpt>
      <trkpt lat="49.0649" lon="-0.44703">
        <ele>24.8</ele>
        <time>2023-05-02T13:32:30Z</time>
      </trkpt>
      <trkpt lat="49.06488" lon="-0.44693">
        <ele>24.2</ele>
        <time>2023-05-02T13:32:31Z</time>
      </trkpt>
      <trkpt lat="49.06486" lon="-0.44683">
        <ele>23.8</ele>
        <time>2023-05-02T13:32:32Z</time>
      </trkpt>
      <trkpt lat="49.06484" lon="-0.44673">
        <ele>22.8</ele>
        <time>2023-05-02T13:32:33Z</time>
      </trkpt>
      <trkpt lat="49.06482" lon="-0.44663">
        <ele>22.6</ele>
        <time>2023-05-02T13:32:34Z</time>
      </trkpt>
      <trkpt lat="49.0648" lon="-0.44653">
        <ele>22.8</ele>
        <time>2023-05-02T13:32:35Z</time>
      </trkpt>
      <trkpt lat="49.06478" lon="-0.44642">
        <ele>23.2</ele>
        <time>2023-05-02T13:32:36Z</time>
      </trkpt>
      <trkpt lat="49.06476" lon="-0.44632">
        <ele>23.2</ele>
        <time>2023-05-02T13:32:37Z</time>
      </trkpt>
      <trkpt lat="49.06474" lon="-0.44621">
        <ele>23.4</ele>
        <time>2023-05-02T13:32:38Z</time>
      </trkpt>
      <trkpt lat="49.06472" lon="-0.44611">
        <ele>23.2</ele>
        <time>2023-05-02T13:32:39Z</time>
      </trkpt>
      <trkpt lat="49.0647" lon="-0.446">
        <ele>23.2</ele>
        <time>2023-05-02T13:32:40Z</time>
      </trkpt>
      <trkpt lat="49.06469" lon="-0.4459">
        <ele>23</ele>
        <time>2023-05-02T13:32:41Z</time>
      </trkpt>
      <trkpt lat="49.06467" lon="-0.44579">
        <ele>23.4</ele>
        <time>2023-05-02T13:32:42Z</time>
      </trkpt>
      <trkpt lat="49.06465" lon="-0.44568">
        <ele>24.4</ele>
        <time>2023-05-02T13:32:43Z</time>
      </trkpt>
      <trkpt lat="49.06464" lon="-0.44558">
        <ele>25.6</ele>
        <time>2023-05-02T13:32:44Z</time>
      </trkpt>
      <trkpt lat="49.06463" lon="-0.44547">
        <ele>26.6</ele>
        <time>2023-05-02T13:32:45Z</time>
      </trkpt>
      <trkpt lat="49.06461" lon="-0.44537">
        <ele>27.6</ele>
        <time>2023-05-02T13:32:46Z</time>
      </trkpt>
      <trkpt lat="49.0646" lon="-0.44526">
        <ele>28.4</ele>
        <time>2023-05-02T13:32:47Z</time>
      </trkpt>
      <trkpt lat="49.06459" lon="-0.44516">
        <ele>29.2</ele>
        <time>2023-05-02T13:32:48Z</time>
      </trkpt>
      <trkpt lat="49.06457" lon="-0.44505">
        <ele>30.2</ele>
        <time>2023-05-02T13:32:49Z</time>
      </trkpt>
      <trkpt lat="49.06456" lon="-0.44495">
        <ele>30.8</ele>
        <time>2023-05-02T13:32:50Z</time>
      </trkpt>
      <trkpt lat="49.06455" lon="-0.44484">
        <ele>31.4</ele>
        <time>2023-05-02T13:32:51Z</time>
      </trkpt>
      <trkpt lat="49.06454" lon="-0.44474">
        <ele>31.8</ele>
        <time>2023-05-02T13:32:52Z</time>
      </trkpt>
      <trkpt lat="49.06453" lon="-0.44464">
        <ele>32.6</ele>
        <time>2023-05-02T13:32:53Z</time>
      </trkpt>
      <trkpt lat="49.06453" lon="-0.44453">
        <ele>33.2</ele>
        <time>2023-05-02T13:32:54Z</time>
      </trkpt>
      <trkpt lat="49.06453" lon="-0.44443">
        <ele>34</ele>
        <time>2023-05-02T13:32:55Z</time>
      </trkpt>
      <trkpt lat="49.06453" lon="-0.44432">
        <ele>34.8</ele>
        <time>2023-05-02T13:32:56Z</time>
      </trkpt>
      <trkpt lat="49.06453" lon="-0.44421">
        <ele>35.6</ele>
        <time>2023-05-02T13:32:57Z</time>
      </trkpt>
      <trkpt lat="49.06453" lon="-0.44411">
        <ele>35.8</ele>
        <time>2023-05-02T13:32:58Z</time>
      </trkpt>
      <trkpt lat="49.06453" lon="-0.444">
        <ele>35.8</ele>
        <time>2023-05-02T13:32:59Z</time>
      </trkpt>
      <trkpt lat="49.06454" lon="-0.44389">
        <ele>35.6</ele>
        <time>2023-05-02T13:33:00Z</time>
      </trkpt>
      <trkpt lat="49.06454" lon="-0.44379">
        <ele>35.6</ele>
        <time>2023-05-02T13:33:01Z</time>
      </trkpt>
      <trkpt lat="49.06455" lon="-0.44368">
        <ele>35.6</ele>
        <time>2023-05-02T13:33:02Z</time>
      </trkpt>
      <trkpt lat="49.06455" lon="-0.44358">
        <ele>35.6</ele>
        <time>2023-05-02T13:33:03Z</time>
      </trkpt>
      <trkpt lat="49.06456" lon="-0.44347">
        <ele>35.6</ele>
        <time>2023-05-02T13:33:04Z</time>
      </trkpt>
      <trkpt lat="49.06457" lon="-0.44336">
        <ele>35.6</ele>
        <time>2023-05-02T13:33:05Z</time>
      </trkpt>
      <trkpt lat="49.06459" lon="-0.44325">
        <ele>35</ele>
        <time>2023-05-02T13:33:06Z</time>
      </trkpt>
      <trkpt lat="49.0646" lon="-0.44314">
        <ele>34.6</ele>
        <time>2023-05-02T13:33:07Z</time>
      </trkpt>
      <trkpt lat="49.06461" lon="-0.44303">
        <ele>34</ele>
        <time>2023-05-02T13:33:08Z</time>
      </trkpt>
      <trkpt lat="49.06462" lon="-0.44292">
        <ele>33.4</ele>
        <time>2023-05-02T13:33:09Z</time>
      </trkpt>
      <trkpt lat="49.06464" lon="-0.44282">
        <ele>33</ele>
        <time>2023-05-02T13:33:10Z</time>
      </trkpt>
      <trkpt lat="49.06466" lon="-0.44271">
        <ele>32.4</ele>
        <time>2023-05-02T13:33:11Z</time>
      </trkpt>
      <trkpt lat="49.06468" lon="-0.4426">
        <ele>31.8</ele>
        <time>2023-05-02T13:33:12Z</time>
      </trkpt>
      <trkpt lat="49.0647" lon="-0.44249">
        <ele>31.4</ele>
        <time>2023-05-02T13:33:13Z</time>
      </trkpt>
      <trkpt lat="49.06472" lon="-0.44239">
        <ele>30.8</ele>
        <time>2023-05-02T13:33:14Z</time>
      </trkpt>
      <trkpt lat="49.06474" lon="-0.44228">
        <ele>30.2</ele>
        <time>2023-05-02T13:33:15Z</time>
      </trkpt>
      <trkpt lat="49.06476" lon="-0.44217">
        <ele>29.8</ele>
        <time>2023-05-02T13:33:16Z</time>
      </trkpt>
      <trkpt lat="49.06479" lon="-0.44207">
        <ele>29.2</ele>
        <time>2023-05-02T13:33:17Z</time>
      </trkpt>
      <trkpt lat="49.06482" lon="-0.44196">
        <ele>28.8</ele>
        <time>2023-05-02T13:33:18Z</time>
      </trkpt>
      <trkpt lat="49.06484" lon="-0.44185">
        <ele>28.2</ele>
        <time>2023-05-02T13:33:19Z</time>
      </trkpt>
      <trkpt lat="49.06487" lon="-0.44175">
        <ele>27.8</ele>
        <time>2023-05-02T13:33:20Z</time>
      </trkpt>
      <trkpt lat="49.0649" lon="-0.44165">
        <ele>27.2</ele>
        <time>2023-05-02T13:33:21Z</time>
      </trkpt>
      <trkpt lat="49.06494" lon="-0.44155">
        <ele>26.6</ele>
        <time>2023-05-02T13:33:22Z</time>
      </trkpt>
      <trkpt lat="49.06497" lon="-0.44146">
        <ele>26.2</ele>
        <time>2023-05-02T13:33:23Z</time>
      </trkpt>
      <trkpt lat="49.065" lon="-0.44137">
        <ele>25.6</ele>
        <time>2023-05-02T13:33:24Z</time>
      </trkpt>
      <trkpt lat="49.06504" lon="-0.44128">
        <ele>24.8</ele>
        <time>2023-05-02T13:33:25Z</time>
      </trkpt>
      <trkpt lat="49.06508" lon="-0.44119">
        <ele>24.2</ele>
        <time>2023-05-02T13:33:26Z</time>
      </trkpt>
      <trkpt lat="49.06511" lon="-0.44111">
        <ele>23.6</ele>
        <time>2023-05-02T13:33:27Z</time>
      </trkpt>
      <trkpt lat="49.06514" lon="-0.44103">
        <ele>23</ele>
        <time>2023-05-02T13:33:28Z</time>
      </trkpt>
      <trkpt lat="49.06517" lon="-0.44095">
        <ele>22.2</ele>
        <time>2023-05-02T13:33:29Z</time>
      </trkpt>
      <trkpt lat="49.0652" lon="-0.44086">
        <ele>21.6</ele>
        <time>2023-05-02T13:33:30Z</time>
      </trkpt>
      <trkpt lat="49.06524" lon="-0.44078">
        <ele>20.8</ele>
        <time>2023-05-02T13:33:31Z</time>
      </trkpt>
      <trkpt lat="49.06528" lon="-0.4407">
        <ele>20.2</ele>
        <time>2023-05-02T13:33:32Z</time>
      </trkpt>
      <trkpt lat="49.06532" lon="-0.44061">
        <ele>19.6</ele>
        <time>2023-05-02T13:33:33Z</time>
      </trkpt>
      <trkpt lat="49.06537" lon="-0.44053">
        <ele>18.8</ele>
        <time>2023-05-02T13:33:34Z</time>
      </trkpt>
      <trkpt lat="49.06541" lon="-0.44044">
        <ele>18.2</ele>
        <time>2023-05-02T13:33:35Z</time>
      </trkpt>
      <trkpt lat="49.06545" lon="-0.44036">
        <ele>17.6</ele>
        <time>2023-05-02T13:33:36Z</time>
      </trkpt>
      <trkpt lat="49.0655" lon="-0.44027">
        <ele>16.8</ele>
        <time>2023-05-02T13:33:37Z</time>
      </trkpt>
      <trkpt lat="49.06554" lon="-0.44018">
        <ele>15.8</ele>
        <time>2023-05-02T13:33:38Z</time>
      </trkpt>
      <trkpt lat="49.06559" lon="-0.4401">
        <ele>15.2</ele>
        <time>2023-05-02T13:33:39Z</time>
      </trkpt>
      <trkpt lat="49.06563" lon="-0.44001">
        <ele>14.4</ele>
        <time>2023-05-02T13:33:40Z</time>
      </trkpt>
      <trkpt lat="49.06568" lon="-0.43992">
        <ele>14.8</ele>
        <time>2023-05-02T13:33:41Z</time>
      </trkpt>
      <trkpt lat="49.06572" lon="-0.43984">
        <ele>15.6</ele>
        <time>2023-05-02T13:33:42Z</time>
      </trkpt>
      <trkpt lat="49.06577" lon="-0.43975">
        <ele>16.2</ele>
        <time>2023-05-02T13:33:43Z</time>
      </trkpt>
      <trkpt lat="49.06582" lon="-0.43967">
        <ele>16.8</ele>
        <time>2023-05-02T13:33:44Z</time>
      </trkpt>
      <trkpt lat="49.06587" lon="-0.43958">
        <ele>17.4</ele>
        <time>2023-05-02T13:33:45Z</time>
      </trkpt>
      <trkpt lat="49.06592" lon="-0.4395">
        <ele>17.8</ele>
        <time>2023-05-02T13:33:46Z</time>
      </trkpt>
      <trkpt lat="49.06597" lon="-0.43941">
        <ele>18.2</ele>
        <time>2023-05-02T13:33:47Z</time>
      </trkpt>
      <trkpt lat="49.06602" lon="-0.43933">
        <ele>18.6</ele>
        <time>2023-05-02T13:33:48Z</time>
      </trkpt>
      <trkpt lat="49.06607" lon="-0.43924">
        <ele>19</ele>
        <time>2023-05-02T13:33:49Z</time>
      </trkpt>
      <trkpt lat="49.06613" lon="-0.43916">
        <ele>19.4</ele>
        <time>2023-05-02T13:33:50Z</time>
      </trkpt>
      <trkpt lat="49.06618" lon="-0.43907">
        <ele>20.2</ele>
        <time>2023-05-02T13:33:51Z</time>
      </trkpt>
      <trkpt lat="49.06623" lon="-0.43899">
        <ele>21.2</ele>
        <time>2023-05-02T13:33:52Z</time>
      </trkpt>
      <trkpt lat="49.06629" lon="-0.4389">
        <ele>22</ele>
        <time>2023-05-02T13:33:53Z</time>
      </trkpt>
      <trkpt lat="49.06634" lon="-0.43881">
        <ele>22.8</ele>
        <time>2023-05-02T13:33:54Z</time>
      </trkpt>
      <trkpt lat="49.06639" lon="-0.43873">
        <ele>23.6</ele>
        <time>2023-05-02T13:33:55Z</time>
      </trkpt>
      <trkpt lat="49.06644" lon="-0.43864">
        <ele>24.2</ele>
        <time>2023-05-02T13:33:56Z</time>
      </trkpt>
      <trkpt lat="49.06649" lon="-0.43856">
        <ele>24.6</ele>
        <time>2023-05-02T13:33:57Z</time>
      </trkpt>
      <trkpt lat="49.06654" lon="-0.43847">
        <ele>25.2</ele>
        <time>2023-05-02T13:33:58Z</time>
      </trkpt>
      <trkpt lat="49.06659" lon="-0.43839">
        <ele>25.4</ele>
        <time>2023-05-02T13:33:59Z</time>
      </trkpt>
      <trkpt lat="49.06664" lon="-0.4383">
        <ele>25.8</ele>
        <time>2023-05-02T13:34:00Z</time>
      </trkpt>
      <trkpt lat="49.06669" lon="-0.43822">
        <ele>26.2</ele>
        <time>2023-05-02T13:34:01Z</time>
      </trkpt>
      <trkpt lat="49.06674" lon="-0.43813">
        <ele>26.6</ele>
        <time>2023-05-02T13:34:02Z</time>
      </trkpt>
      <trkpt lat="49.06679" lon="-0.43805">
        <ele>26.8</ele>
        <time>2023-05-02T13:34:03Z</time>
      </trkpt>
      <trkpt lat="49.06684" lon="-0.43797">
        <ele>26.8</ele>
        <time>2023-05-02T13:34:04Z</time>
      </trkpt>
      <trkpt lat="49.06689" lon="-0.43788">
        <ele>26.8</ele>
        <time>2023-05-02T13:34:05Z</time>
      </trkpt>
      <trkpt lat="49.06695" lon="-0.4378">
        <ele>26.6</ele>
        <time>2023-05-02T13:34:06Z</time>
      </trkpt>
      <trkpt lat="49.067" lon="-0.43772">
        <ele>26.4</ele>
        <time>2023-05-02T13:34:07Z</time>
      </trkpt>
      <trkpt lat="49.06705" lon="-0.43763">
        <ele>26.2</ele>
        <time>2023-05-02T13:34:08Z</time>
      </trkpt>
      <trkpt lat="49.0671" lon="-0.43755">
        <ele>25.6</ele>
        <time>2023-05-02T13:34:09Z</time>
      </trkpt>
      <trkpt lat="49.06715" lon="-0.43746">
        <ele>25.2</ele>
        <time>2023-05-02T13:34:10Z</time>
      </trkpt>
      <trkpt lat="49.0672" lon="-0.43737">
        <ele>25.2</ele>
        <time>2023-05-02T13:34:11Z</time>
      </trkpt>
      <trkpt lat="49.06726" lon="-0.43729">
        <ele>25</ele>
        <time>2023-05-02T13:34:12Z</time>
      </trkpt>
      <trkpt lat="49.06731" lon="-0.4372">
        <ele>25</ele>
        <time>2023-05-02T13:34:13Z</time>
      </trkpt>
      <trkpt lat="49.06736" lon="-0.43712">
        <ele>24.8</ele>
        <time>2023-05-02T13:34:14Z</time>
      </trkpt>
      <trkpt lat="49.06741" lon="-0.43703">
        <ele>24.8</ele>
        <time>2023-05-02T13:34:15Z</time>
      </trkpt>
      <trkpt lat="49.06747" lon="-0.43694">
        <ele>24.8</ele>
        <time>2023-05-02T13:34:16Z</time>
      </trkpt>
      <trkpt lat="49.06752" lon="-0.43686">
        <ele>25</ele>
        <time>2023-05-02T13:34:17Z</time>
      </trkpt>
      <trkpt lat="49.06757" lon="-0.43677">
        <ele>25.2</ele>
        <time>2023-05-02T13:34:18Z</time>
      </trkpt>
      <trkpt lat="49.06762" lon="-0.43668">
        <ele>25.6</ele>
        <time>2023-05-02T13:34:19Z</time>
      </trkpt>
      <trkpt lat="49.06767" lon="-0.4366">
        <ele>25.8</ele>
        <time>2023-05-02T13:34:20Z</time>
      </trkpt>
      <trkpt lat="49.06773" lon="-0.43651">
        <ele>26.2</ele>
        <time>2023-05-02T13:34:21Z</time>
      </trkpt>
      <trkpt lat="49.06778" lon="-0.43642">
        <ele>26.6</ele>
        <time>2023-05-02T13:34:22Z</time>
      </trkpt>
      <trkpt lat="49.06784" lon="-0.43633">
        <ele>26.8</ele>
        <time>2023-05-02T13:34:23Z</time>
      </trkpt>
      <trkpt lat="49.06789" lon="-0.43625">
        <ele>26.8</ele>
        <time>2023-05-02T13:34:24Z</time>
      </trkpt>
      <trkpt lat="49.06795" lon="-0.43616">
        <ele>26.8</ele>
        <time>2023-05-02T13:34:25Z</time>
      </trkpt>
      <trkpt lat="49.068" lon="-0.43607">
        <ele>26.8</ele>
        <time>2023-05-02T13:34:26Z</time>
      </trkpt>
      <trkpt lat="49.06806" lon="-0.43599">
        <ele>26.6</ele>
        <time>2023-05-02T13:34:27Z</time>
      </trkpt>
      <trkpt lat="49.06812" lon="-0.4359">
        <ele>26.2</ele>
        <time>2023-05-02T13:34:28Z</time>
      </trkpt>
      <trkpt lat="49.06818" lon="-0.43581">
        <ele>25.8</ele>
        <time>2023-05-02T13:34:29Z</time>
      </trkpt>
      <trkpt lat="49.06824" lon="-0.43573">
        <ele>26</ele>
        <time>2023-05-02T13:34:30Z</time>
      </trkpt>
      <trkpt lat="49.0683" lon="-0.43564">
        <ele>26.2</ele>
        <time>2023-05-02T13:34:31Z</time>
      </trkpt>
      <trkpt lat="49.06836" lon="-0.43556">
        <ele>26.8</ele>
        <time>2023-05-02T13:34:32Z</time>
      </trkpt>
      <trkpt lat="49.06842" lon="-0.43548">
        <ele>27.4</ele>
        <time>2023-05-02T13:34:33Z</time>
      </trkpt>
      <trkpt lat="49.06848" lon="-0.4354">
        <ele>27.8</ele>
        <time>2023-05-02T13:34:34Z</time>
      </trkpt>
      <trkpt lat="49.06855" lon="-0.43532">
        <ele>27.8</ele>
        <time>2023-05-02T13:34:35Z</time>
      </trkpt>
      <trkpt lat="49.06861" lon="-0.43524">
        <ele>27.6</ele>
        <time>2023-05-02T13:34:36Z</time>
      </trkpt>
      <trkpt lat="49.06868" lon="-0.43517">
        <ele>27</ele>
        <time>2023-05-02T13:34:37Z</time>
      </trkpt>
      <trkpt lat="49.06875" lon="-0.43509">
        <ele>26.2</ele>
        <time>2023-05-02T13:34:38Z</time>
      </trkpt>
      <trkpt lat="49.06881" lon="-0.43502">
        <ele>25.4</ele>
        <time>2023-05-02T13:34:39Z</time>
      </trkpt>
      <trkpt lat="49.06888" lon="-0.43495">
        <ele>24.4</ele>
        <time>2023-05-02T13:34:40Z</time>
      </trkpt>
      <trkpt lat="49.06895" lon="-0.43488">
        <ele>23.4</ele>
        <time>2023-05-02T13:34:41Z</time>
      </trkpt>
      <trkpt lat="49.06902" lon="-0.4348">
        <ele>22.6</ele>
        <time>2023-05-02T13:34:42Z</time>
      </trkpt>
      <trkpt lat="49.06909" lon="-0.43473">
        <ele>21.6</ele>
        <time>2023-05-02T13:34:43Z</time>
      </trkpt>
      <trkpt lat="49.06915" lon="-0.43466">
        <ele>20.6</ele>
        <time>2023-05-02T13:34:44Z</time>
      </trkpt>
      <trkpt lat="49.06922" lon="-0.43459">
        <ele>20.8</ele>
        <time>2023-05-02T13:34:45Z</time>
      </trkpt>
      <trkpt lat="49.06929" lon="-0.43453">
        <ele>21.2</ele>
        <time>2023-05-02T13:34:46Z</time>
      </trkpt>
      <trkpt lat="49.06936" lon="-0.43446">
        <ele>21.2</ele>
        <time>2023-05-02T13:34:47Z</time>
      </trkpt>
      <trkpt lat="49.06942" lon="-0.4344">
        <ele>21.2</ele>
        <time>2023-05-02T13:34:48Z</time>
      </trkpt>
      <trkpt lat="49.06949" lon="-0.43433">
        <ele>21</ele>
        <time>2023-05-02T13:34:49Z</time>
      </trkpt>
      <trkpt lat="49.06956" lon="-0.43427">
        <ele>20.6</ele>
        <time>2023-05-02T13:34:50Z</time>
      </trkpt>
      <trkpt lat="49.06962" lon="-0.4342">
        <ele>20.2</ele>
        <time>2023-05-02T13:34:51Z</time>
      </trkpt>
      <trkpt lat="49.06969" lon="-0.43414">
        <ele>19.8</ele>
        <time>2023-05-02T13:34:52Z</time>
      </trkpt>
      <trkpt lat="49.06975" lon="-0.43407">
        <ele>19.8</ele>
        <time>2023-05-02T13:34:53Z</time>
      </trkpt>
      <trkpt lat="49.06982" lon="-0.434">
        <ele>20</ele>
        <time>2023-05-02T13:34:54Z</time>
      </trkpt>
      <trkpt lat="49.06988" lon="-0.43394">
        <ele>20.2</ele>
        <time>2023-05-02T13:34:55Z</time>
      </trkpt>
      <trkpt lat="49.06995" lon="-0.43387">
        <ele>20.6</ele>
        <time>2023-05-02T13:34:56Z</time>
      </trkpt>
      <trkpt lat="49.07001" lon="-0.4338">
        <ele>20.8</ele>
        <time>2023-05-02T13:34:57Z</time>
      </trkpt>
      <trkpt lat="49.07008" lon="-0.43373">
        <ele>21.6</ele>
        <time>2023-05-02T13:34:58Z</time>
      </trkpt>
      <trkpt lat="49.07014" lon="-0.43367">
        <ele>21.8</ele>
        <time>2023-05-02T13:34:59Z</time>
      </trkpt>
      <trkpt lat="49.07021" lon="-0.4336">
        <ele>21.8</ele>
        <time>2023-05-02T13:35:00Z</time>
      </trkpt>
      <trkpt lat="49.07027" lon="-0.43353">
        <ele>21.8</ele>
        <time>2023-05-02T13:35:01Z</time>
      </trkpt>
      <trkpt lat="49.07033" lon="-0.43347">
        <ele>21.6</ele>
        <time>2023-05-02T13:35:02Z</time>
      </trkpt>
      <trkpt lat="49.07039" lon="-0.43341">
        <ele>21</ele>
        <time>2023-05-02T13:35:03Z</time>
      </trkpt>
      <trkpt lat="49.07044" lon="-0.43334">
        <ele>20.2</ele>
        <time>2023-05-02T13:35:04Z</time>
      </trkpt>
      <trkpt lat="49.0705" lon="-0.43328">
        <ele>20.2</ele>
        <time>2023-05-02T13:35:05Z</time>
      </trkpt>
      <trkpt lat="49.07056" lon="-0.43322">
        <ele>20.2</ele>
        <time>2023-05-02T13:35:06Z</time>
      </trkpt>
      <trkpt lat="49.07062" lon="-0.43315">
        <ele>20</ele>
        <time>2023-05-02T13:35:07Z</time>
      </trkpt>
      <trkpt lat="49.07069" lon="-0.43308">
        <ele>19.8</ele>
        <time>2023-05-02T13:35:08Z</time>
      </trkpt>
      <trkpt lat="49.07075" lon="-0.43302">
        <ele>19.6</ele>
        <time>2023-05-02T13:35:09Z</time>
      </trkpt>
      <trkpt lat="49.07081" lon="-0.43295">
        <ele>19.4</ele>
        <time>2023-05-02T13:35:10Z</time>
      </trkpt>
      <trkpt lat="49.07087" lon="-0.43289">
        <ele>19.8</ele>
        <time>2023-05-02T13:35:11Z</time>
      </trkpt>
      <trkpt lat="49.07094" lon="-0.43282">
        <ele>20.2</ele>
        <time>2023-05-02T13:35:12Z</time>
      </trkpt>
      <trkpt lat="49.071" lon="-0.43275">
        <ele>20.6</ele>
        <time>2023-05-02T13:35:13Z</time>
      </trkpt>
      <trkpt lat="49.07107" lon="-0.43267">
        <ele>20.6</ele>
        <time>2023-05-02T13:35:14Z</time>
      </trkpt>
      <trkpt lat="49.07114" lon="-0.4326">
        <ele>20.4</ele>
        <time>2023-05-02T13:35:15Z</time>
      </trkpt>
      <trkpt lat="49.0712" lon="-0.43253">
        <ele>20.2</ele>
        <time>2023-05-02T13:35:16Z</time>
      </trkpt>
      <trkpt lat="49.07127" lon="-0.43246">
        <ele>20</ele>
        <time>2023-05-02T13:35:17Z</time>
      </trkpt>
      <trkpt lat="49.07133" lon="-0.43239">
        <ele>20.2</ele>
        <time>2023-05-02T13:35:18Z</time>
      </trkpt>
      <trkpt lat="49.07139" lon="-0.43232">
        <ele>20.2</ele>
        <time>2023-05-02T13:35:19Z</time>
      </trkpt>
      <trkpt lat="49.07145" lon="-0.43226">
        <ele>20.2</ele>
        <time>2023-05-02T13:35:20Z</time>
      </trkpt>
      <trkpt lat="49.07151" lon="-0.43219">
        <ele>20</ele>
        <time>2023-05-02T13:35:21Z</time>
      </trkpt>
      <trkpt lat="49.07157" lon="-0.43213">
        <ele>19.8</ele>
        <time>2023-05-02T13:35:22Z</time>
      </trkpt>
      <trkpt lat="49.07164" lon="-0.43206">
        <ele>19.6</ele>
        <time>2023-05-02T13:35:23Z</time>
      </trkpt>
      <trkpt lat="49.0717" lon="-0.43199">
        <ele>19.6</ele>
        <time>2023-05-02T13:35:24Z</time>
      </trkpt>
      <trkpt lat="49.07176" lon="-0.43193">
        <ele>20</ele>
        <time>2023-05-02T13:35:25Z</time>
      </trkpt>
      <trkpt lat="49.07183" lon="-0.43186">
        <ele>20.2</ele>
        <time>2023-05-02T13:35:26Z</time>
      </trkpt>
      <trkpt lat="49.07189" lon="-0.4318">
        <ele>20.2</ele>
        <time>2023-05-02T13:35:27Z</time>
      </trkpt>
      <trkpt lat="49.07195" lon="-0.43174">
        <ele>20.2</ele>
        <time>2023-05-02T13:35:28Z</time>
      </trkpt>
      <trkpt lat="49.07201" lon="-0.43168">
        <ele>19.8</ele>
        <time>2023-05-02T13:35:29Z</time>
      </trkpt>
      <trkpt lat="49.07208" lon="-0.43162">
        <ele>19.8</ele>
        <time>2023-05-02T13:35:30Z</time>
      </trkpt>
      <trkpt lat="49.07214" lon="-0.43156">
        <ele>19.8</ele>
        <time>2023-05-02T13:35:31Z</time>
      </trkpt>
      <trkpt lat="49.0722" lon="-0.4315">
        <ele>19.6</ele>
        <time>2023-05-02T13:35:32Z</time>
      </trkpt>
      <trkpt lat="49.07226" lon="-0.43144">
        <ele>19.2</ele>
        <time>2023-05-02T13:35:33Z</time>
      </trkpt>
      <trkpt lat="49.07233" lon="-0.43138">
        <ele>18.8</ele>
        <time>2023-05-02T13:35:34Z</time>
      </trkpt>
      <trkpt lat="49.07239" lon="-0.43132">
        <ele>18.4</ele>
        <time>2023-05-02T13:35:35Z</time>
      </trkpt>
      <trkpt lat="49.07245" lon="-0.43126">
        <ele>17.8</ele>
        <time>2023-05-02T13:35:36Z</time>
      </trkpt>
      <trkpt lat="49.07251" lon="-0.43121">
        <ele>17.2</ele>
        <time>2023-05-02T13:35:37Z</time>
      </trkpt>
      <trkpt lat="49.07258" lon="-0.43115">
        <ele>17.6</ele>
        <time>2023-05-02T13:35:38Z</time>
      </trkpt>
      <trkpt lat="49.07264" lon="-0.43109">
        <ele>17.6</ele>
        <time>2023-05-02T13:35:39Z</time>
      </trkpt>
      <trkpt lat="49.07271" lon="-0.43104">
        <ele>17.8</ele>
        <time>2023-05-02T13:35:40Z</time>
      </trkpt>
      <trkpt lat="49.07277" lon="-0.43098">
        <ele>17.8</ele>
        <time>2023-05-02T13:35:41Z</time>
      </trkpt>
      <trkpt lat="49.07284" lon="-0.43092">
        <ele>17.8</ele>
        <time>2023-05-02T13:35:42Z</time>
      </trkpt>
      <trkpt lat="49.07291" lon="-0.43087">
        <ele>17.8</ele>
        <time>2023-05-02T13:35:43Z</time>
      </trkpt>
      <trkpt lat="49.07298" lon="-0.43081">
        <ele>18</ele>
        <time>2023-05-02T13:35:44Z</time>
      </trkpt>
      <trkpt lat="49.07305" lon="-0.43075">
        <ele>18.6</ele>
        <time>2023-05-02T13:35:45Z</time>
      </trkpt>
      <trkpt lat="49.07312" lon="-0.43069">
        <ele>19.2</ele>
        <time>2023-05-02T13:35:46Z</time>
      </trkpt>
      <trkpt lat="49.0732" lon="-0.43063">
        <ele>19.8</ele>
        <time>2023-05-02T13:35:47Z</time>
      </trkpt>
      <trkpt lat="49.07328" lon="-0.43057">
        <ele>20.4</ele>
        <time>2023-05-02T13:35:48Z</time>
      </trkpt>
      <trkpt lat="49.07335" lon="-0.43052">
        <ele>20.8</ele>
        <time>2023-05-02T13:35:49Z</time>
      </trkpt>
      <trkpt lat="49.07343" lon="-0.43046">
        <ele>21.2</ele>
        <time>2023-05-02T13:35:50Z</time>
      </trkpt>
      <trkpt lat="49.07351" lon="-0.43041">
        <ele>21.2</ele>
        <time>2023-05-02T13:35:51Z</time>
      </trkpt>
      <trkpt lat="49.07359" lon="-0.43036">
        <ele>21.2</ele>
        <time>2023-05-02T13:35:52Z</time>
      </trkpt>
      <trkpt lat="49.07367" lon="-0.43031">
        <ele>20.8</ele>
        <time>2023-05-02T13:35:53Z</time>
      </trkpt>
      <trkpt lat="49.07375" lon="-0.43026">
        <ele>20.6</ele>
        <time>2023-05-02T13:35:54Z</time>
      </trkpt>
      <trkpt lat="49.07382" lon="-0.43021">
        <ele>20.2</ele>
        <time>2023-05-02T13:35:55Z</time>
      </trkpt>
      <trkpt lat="49.07391" lon="-0.43015">
        <ele>19.6</ele>
        <time>2023-05-02T13:35:56Z</time>
      </trkpt>
      <trkpt lat="49.07399" lon="-0.4301">
        <ele>19</ele>
        <time>2023-05-02T13:35:57Z</time>
      </trkpt>
      <trkpt lat="49.07407" lon="-0.43004">
        <ele>18.2</ele>
        <time>2023-05-02T13:35:58Z</time>
      </trkpt>
      <trkpt lat="49.07415" lon="-0.42998">
        <ele>17.8</ele>
        <time>2023-05-02T13:35:59Z</time>
      </trkpt>
      <trkpt lat="49.07423" lon="-0.42992">
        <ele>18.2</ele>
        <time>2023-05-02T13:36:00Z</time>
      </trkpt>
      <trkpt lat="49.07431" lon="-0.42987">
        <ele>18.6</ele>
        <time>2023-05-02T13:36:01Z</time>
      </trkpt>
      <trkpt lat="49.07439" lon="-0.42982">
        <ele>18.8</ele>
        <time>2023-05-02T13:36:02Z</time>
      </trkpt>
      <trkpt lat="49.07447" lon="-0.42978">
        <ele>19</ele>
        <time>2023-05-02T13:36:03Z</time>
      </trkpt>
      <trkpt lat="49.07454" lon="-0.42973">
        <ele>19</ele>
        <time>2023-05-02T13:36:04Z</time>
      </trkpt>
      <trkpt lat="49.07462" lon="-0.42969">
        <ele>19</ele>
        <time>2023-05-02T13:36:05Z</time>
      </trkpt>
      <trkpt lat="49.07469" lon="-0.42965">
        <ele>19</ele>
        <time>2023-05-02T13:36:06Z</time>
      </trkpt>
      <trkpt lat="49.07477" lon="-0.4296">
        <ele>18.8</ele>
        <time>2023-05-02T13:36:07Z</time>
      </trkpt>
      <trkpt lat="49.07484" lon="-0.42956">
        <ele>18.8</ele>
        <time>2023-05-02T13:36:08Z</time>
      </trkpt>
      <trkpt lat="49.07492" lon="-0.42952">
        <ele>18.6</ele>
        <time>2023-05-02T13:36:09Z</time>
      </trkpt>
      <trkpt lat="49.07499" lon="-0.42947">
        <ele>18.2</ele>
        <time>2023-05-02T13:36:10Z</time>
      </trkpt>
      <trkpt lat="49.07506" lon="-0.42943">
        <ele>18.4</ele>
        <time>2023-05-02T13:36:11Z</time>
      </trkpt>
      <trkpt lat="49.07514" lon="-0.42938">
        <ele>18.6</ele>
        <time>2023-05-02T13:36:12Z</time>
      </trkpt>
      <trkpt lat="49.07521" lon="-0.42934">
        <ele>18.4</ele>
        <time>2023-05-02T13:36:13Z</time>
      </trkpt>
      <trkpt lat="49.07528" lon="-0.42929">
        <ele>18.2</ele>
        <time>2023-05-02T13:36:14Z</time>
      </trkpt>
      <trkpt lat="49.07536" lon="-0.42925">
        <ele>18</ele>
        <time>2023-05-02T13:36:15Z</time>
      </trkpt>
      <trkpt lat="49.07543" lon="-0.4292">
        <ele>17.6</ele>
        <time>2023-05-02T13:36:16Z</time>
      </trkpt>
      <trkpt lat="49.0755" lon="-0.42916">
        <ele>17.2</ele>
        <time>2023-05-02T13:36:17Z</time>
      </trkpt>
      <trkpt lat="49.07558" lon="-0.42911">
        <ele>16.8</ele>
        <time>2023-05-02T13:36:18Z</time>
      </trkpt>
      <trkpt lat="49.07565" lon="-0.42907">
        <ele>16.8</ele>
        <time>2023-05-02T13:36:19Z</time>
      </trkpt>
      <trkpt lat="49.07572" lon="-0.42903">
        <ele>16.6</ele>
        <time>2023-05-02T13:36:20Z</time>
      </trkpt>
      <trkpt lat="49.07579" lon="-0.42898">
        <ele>16.4</ele>
        <time>2023-05-02T13:36:21Z</time>
      </trkpt>
      <trkpt lat="49.07587" lon="-0.42894">
        <ele>16.4</ele>
        <time>2023-05-02T13:36:22Z</time>
      </trkpt>
      <trkpt lat="49.07594" lon="-0.42889">
        <ele>16.8</ele>
        <time>2023-05-02T13:36:23Z</time>
      </trkpt>
      <trkpt lat="49.07601" lon="-0.42885">
        <ele>16.8</ele>
        <time>2023-05-02T13:36:24Z</time>
      </trkpt>
      <trkpt lat="49.07609" lon="-0.4288">
        <ele>17</ele>
        <time>2023-05-02T13:36:25Z</time>
      </trkpt>
      <trkpt lat="49.07616" lon="-0.42876">
        <ele>17</ele>
        <time>2023-05-02T13:36:26Z</time>
      </trkpt>
      <trkpt lat="49.07624" lon="-0.42871">
        <ele>17</ele>
        <time>2023-05-02T13:36:27Z</time>
      </trkpt>
      <trkpt lat="49.07631" lon="-0.42867">
        <ele>16.8</ele>
        <time>2023-05-02T13:36:28Z</time>
      </trkpt>
      <trkpt lat="49.07639" lon="-0.42862">
        <ele>16.8</ele>
        <time>2023-05-02T13:36:29Z</time>
      </trkpt>
      <trkpt lat="49.07646" lon="-0.42858">
        <ele>16.4</ele>
        <time>2023-05-02T13:36:30Z</time>
      </trkpt>
      <trkpt lat="49.07654" lon="-0.42853">
        <ele>16.2</ele>
        <time>2023-05-02T13:36:31Z</time>
      </trkpt>
      <trkpt lat="49.07661" lon="-0.42848">
        <ele>15.6</ele>
        <time>2023-05-02T13:36:32Z</time>
      </trkpt>
      <trkpt lat="49.07669" lon="-0.42844">
        <ele>15.4</ele>
        <time>2023-05-02T13:36:33Z</time>
      </trkpt>
      <trkpt lat="49.07676" lon="-0.4284">
        <ele>15.2</ele>
        <time>2023-05-02T13:36:34Z</time>
      </trkpt>
      <trkpt lat="49.07683" lon="-0.42835">
        <ele>14.8</ele>
        <time>2023-05-02T13:36:35Z</time>
      </trkpt>
      <trkpt lat="49.0769" lon="-0.42831">
        <ele>14.6</ele>
        <time>2023-05-02T13:36:36Z</time>
      </trkpt>
      <trkpt lat="49.07697" lon="-0.42827">
        <ele>14.8</ele>
        <time>2023-05-02T13:36:37Z</time>
      </trkpt>
      <trkpt lat="49.07704" lon="-0.42823">
        <ele>15</ele>
        <time>2023-05-02T13:36:38Z</time>
      </trkpt>
      <trkpt lat="49.07711" lon="-0.42818">
        <ele>15.2</ele>
        <time>2023-05-02T13:36:39Z</time>
      </trkpt>
      <trkpt lat="49.07718" lon="-0.42815">
        <ele>15.4</ele>
        <time>2023-05-02T13:36:40Z</time>
      </trkpt>
      <trkpt lat="49.07725" lon="-0.4281">
        <ele>15.4</ele>
        <time>2023-05-02T13:36:41Z</time>
      </trkpt>
      <trkpt lat="49.07732" lon="-0.42806">
        <ele>15.4</ele>
        <time>2023-05-02T13:36:42Z</time>
      </trkpt>
      <trkpt lat="49.07739" lon="-0.42802">
        <ele>15.4</ele>
        <time>2023-05-02T13:36:43Z</time>
      </trkpt>
      <trkpt lat="49.07746" lon="-0.42798">
        <ele>15.4</ele>
        <time>2023-05-02T13:36:44Z</time>
      </trkpt>
      <trkpt lat="49.07753" lon="-0.42794">
        <ele>15.6</ele>
        <time>2023-05-02T13:36:45Z</time>
      </trkpt>
      <trkpt lat="49.0776" lon="-0.4279">
        <ele>15.6</ele>
        <time>2023-05-02T13:36:46Z</time>
      </trkpt>
      <trkpt lat="49.07767" lon="-0.42786">
        <ele>15.8</ele>
        <time>2023-05-02T13:36:47Z</time>
      </trkpt>
      <trkpt lat="49.07774" lon="-0.42782">
        <ele>15.8</ele>
        <time>2023-05-02T13:36:48Z</time>
      </trkpt>
      <trkpt lat="49.07781" lon="-0.42778">
        <ele>15.8</ele>
        <time>2023-05-02T13:36:49Z</time>
      </trkpt>
      <trkpt lat="49.07788" lon="-0.42773">
        <ele>15.6</ele>
        <time>2023-05-02T13:36:50Z</time>
      </trkpt>
      <trkpt lat="49.07795" lon="-0.42769">
        <ele>15.4</ele>
        <time>2023-05-02T13:36:51Z</time>
      </trkpt>
      <trkpt lat="49.07803" lon="-0.42765">
        <ele>15.2</ele>
        <time>2023-05-02T13:36:52Z</time>
      </trkpt>
      <trkpt lat="49.0781" lon="-0.42761">
        <ele>14.8</ele>
        <time>2023-05-02T13:36:53Z</time>
      </trkpt>
      <trkpt lat="49.07818" lon="-0.42756">
        <ele>14.4</ele>
        <time>2023-05-02T13:36:54Z</time>
      </trkpt>
      <trkpt lat="49.07825" lon="-0.42752">
        <ele>13.8</ele>
        <time>2023-05-02T13:36:55Z</time>
      </trkpt>
      <trkpt lat="49.07832" lon="-0.42747">
        <ele>13.6</ele>
        <time>2023-05-02T13:36:56Z</time>
      </trkpt>
      <trkpt lat="49.0784" lon="-0.42742">
        <ele>13.8</ele>
        <time>2023-05-02T13:36:57Z</time>
      </trkpt>
      <trkpt lat="49.07847" lon="-0.42737">
        <ele>14.2</ele>
        <time>2023-05-02T13:36:58Z</time>
      </trkpt>
      <trkpt lat="49.07855" lon="-0.42732">
        <ele>14.6</ele>
        <time>2023-05-02T13:36:59Z</time>
      </trkpt>
      <trkpt lat="49.07862" lon="-0.42728">
        <ele>14.6</ele>
        <time>2023-05-02T13:37:00Z</time>
      </trkpt>
      <trkpt lat="49.07869" lon="-0.42723">
        <ele>14.8</ele>
        <time>2023-05-02T13:37:01Z</time>
      </trkpt>
      <trkpt lat="49.07876" lon="-0.42719">
        <ele>15</ele>
        <time>2023-05-02T13:37:02Z</time>
      </trkpt>
      <trkpt lat="49.07884" lon="-0.42715">
        <ele>15.2</ele>
        <time>2023-05-02T13:37:03Z</time>
      </trkpt>
      <trkpt lat="49.07891" lon="-0.4271">
        <ele>15.2</ele>
        <time>2023-05-02T13:37:04Z</time>
      </trkpt>
      <trkpt lat="49.07899" lon="-0.42706">
        <ele>15.4</ele>
        <time>2023-05-02T13:37:05Z</time>
      </trkpt>
      <trkpt lat="49.07906" lon="-0.42701">
        <ele>15.4</ele>
        <time>2023-05-02T13:37:06Z</time>
      </trkpt>
      <trkpt lat="49.07913" lon="-0.42696">
        <ele>15.4</ele>
        <time>2023-05-02T13:37:07Z</time>
      </trkpt>
      <trkpt lat="49.07921" lon="-0.42691">
        <ele>15.6</ele>
        <time>2023-05-02T13:37:08Z</time>
      </trkpt>
      <trkpt lat="49.07928" lon="-0.42687">
        <ele>15.6</ele>
        <time>2023-05-02T13:37:09Z</time>
      </trkpt>
      <trkpt lat="49.07936" lon="-0.42683">
        <ele>15.8</ele>
        <time>2023-05-02T13:37:10Z</time>
      </trkpt>
      <trkpt lat="49.07943" lon="-0.42678">
        <ele>15.8</ele>
        <time>2023-05-02T13:37:11Z</time>
      </trkpt>
      <trkpt lat="49.07951" lon="-0.42673">
        <ele>15.8</ele>
        <time>2023-05-02T13:37:12Z</time>
      </trkpt>
      <trkpt lat="49.07958" lon="-0.42669">
        <ele>15.8</ele>
        <time>2023-05-02T13:37:13Z</time>
      </trkpt>
      <trkpt lat="49.07965" lon="-0.42664">
        <ele>15.8</ele>
        <time>2023-05-02T13:37:14Z</time>
      </trkpt>
      <trkpt lat="49.07972" lon="-0.4266">
        <ele>16.2</ele>
        <time>2023-05-02T13:37:15Z</time>
      </trkpt>
      <trkpt lat="49.07979" lon="-0.42656">
        <ele>16.2</ele>
        <time>2023-05-02T13:37:16Z</time>
      </trkpt>
      <trkpt lat="49.07986" lon="-0.42651">
        <ele>16.4</ele>
        <time>2023-05-02T13:37:17Z</time>
      </trkpt>
      <trkpt lat="49.07993" lon="-0.42647">
        <ele>16.6</ele>
        <time>2023-05-02T13:37:18Z</time>
      </trkpt>
      <trkpt lat="49.08" lon="-0.42643">
        <ele>16.8</ele>
        <time>2023-05-02T13:37:19Z</time>
      </trkpt>
      <trkpt lat="49.08007" lon="-0.42639">
        <ele>17</ele>
        <time>2023-05-02T13:37:20Z</time>
      </trkpt>
      <trkpt lat="49.08014" lon="-0.42635">
        <ele>17.2</ele>
        <time>2023-05-02T13:37:21Z</time>
      </trkpt>
      <trkpt lat="49.08021" lon="-0.42631">
        <ele>17.4</ele>
        <time>2023-05-02T13:37:22Z</time>
      </trkpt>
      <trkpt lat="49.08028" lon="-0.42626">
        <ele>17.8</ele>
        <time>2023-05-02T13:37:23Z</time>
      </trkpt>
      <trkpt lat="49.08035" lon="-0.42621">
        <ele>17.8</ele>
        <time>2023-05-02T13:37:24Z</time>
      </trkpt>
      <trkpt lat="49.08043" lon="-0.42616">
        <ele>18.2</ele>
        <time>2023-05-02T13:37:25Z</time>
      </trkpt>
      <trkpt lat="49.0805" lon="-0.42612">
        <ele>18.2</ele>
        <time>2023-05-02T13:37:26Z</time>
      </trkpt>
      <trkpt lat="49.08057" lon="-0.42607">
        <ele>18.2</ele>
        <time>2023-05-02T13:37:27Z</time>
      </trkpt>
      <trkpt lat="49.08065" lon="-0.42602">
        <ele>18.2</ele>
        <time>2023-05-02T13:37:28Z</time>
      </trkpt>
      <trkpt lat="49.08072" lon="-0.42598">
        <ele>18.2</ele>
        <time>2023-05-02T13:37:29Z</time>
      </trkpt>
      <trkpt lat="49.08079" lon="-0.42594">
        <ele>18.2</ele>
        <time>2023-05-02T13:37:30Z</time>
      </trkpt>
      <trkpt lat="49.08085" lon="-0.42591">
        <ele>18</ele>
        <time>2023-05-02T13:37:31Z</time>
      </trkpt>
      <trkpt lat="49.08091" lon="-0.42587">
        <ele>17.8</ele>
        <time>2023-05-02T13:37:32Z</time>
      </trkpt>
      <trkpt lat="49.08097" lon="-0.42584">
        <ele>17.4</ele>
        <time>2023-05-02T13:37:33Z</time>
      </trkpt>
      <trkpt lat="49.08103" lon="-0.4258">
        <ele>17.2</ele>
        <time>2023-05-02T13:37:34Z</time>
      </trkpt>
      <trkpt lat="49.08109" lon="-0.42577">
        <ele>17.2</ele>
        <time>2023-05-02T13:37:35Z</time>
      </trkpt>
      <trkpt lat="49.08116" lon="-0.42573">
        <ele>16.8</ele>
        <time>2023-05-02T13:37:36Z</time>
      </trkpt>
      <trkpt lat="49.08122" lon="-0.42569">
        <ele>16.8</ele>
        <time>2023-05-02T13:37:37Z</time>
      </trkpt>
      <trkpt lat="49.08128" lon="-0.42566">
        <ele>16.6</ele>
        <time>2023-05-02T13:37:38Z</time>
      </trkpt>
      <trkpt lat="49.08134" lon="-0.42561">
        <ele>16.6</ele>
        <time>2023-05-02T13:37:39Z</time>
      </trkpt>
      <trkpt lat="49.08141" lon="-0.42557">
        <ele>16.4</ele>
        <time>2023-05-02T13:37:40Z</time>
      </trkpt>
      <trkpt lat="49.08148" lon="-0.42553">
        <ele>16.2</ele>
        <time>2023-05-02T13:37:41Z</time>
      </trkpt>
      <trkpt lat="49.08156" lon="-0.42549">
        <ele>16.2</ele>
        <time>2023-05-02T13:37:42Z</time>
      </trkpt>
      <trkpt lat="49.08163" lon="-0.42545">
        <ele>15.8</ele>
        <time>2023-05-02T13:37:43Z</time>
      </trkpt>
      <trkpt lat="49.0817" lon="-0.42542">
        <ele>15.8</ele>
        <time>2023-05-02T13:37:44Z</time>
      </trkpt>
      <trkpt lat="49.08177" lon="-0.42538">
        <ele>15.8</ele>
        <time>2023-05-02T13:37:45Z</time>
      </trkpt>
      <trkpt lat="49.08184" lon="-0.42535">
        <ele>15.8</ele>
        <time>2023-05-02T13:37:46Z</time>
      </trkpt>
      <trkpt lat="49.08191" lon="-0.42532">
        <ele>15.6</ele>
        <time>2023-05-02T13:37:47Z</time>
      </trkpt>
      <trkpt lat="49.08198" lon="-0.42529">
        <ele>15.6</ele>
        <time>2023-05-02T13:37:48Z</time>
      </trkpt>
      <trkpt lat="49.08205" lon="-0.42526">
        <ele>15.2</ele>
        <time>2023-05-02T13:37:49Z</time>
      </trkpt>
      <trkpt lat="49.08212" lon="-0.42523">
        <ele>15</ele>
        <time>2023-05-02T13:37:50Z</time>
      </trkpt>
      <trkpt lat="49.08219" lon="-0.4252">
        <ele>14.6</ele>
        <time>2023-05-02T13:37:51Z</time>
      </trkpt>
      <trkpt lat="49.08226" lon="-0.42517">
        <ele>14.4</ele>
        <time>2023-05-02T13:37:52Z</time>
      </trkpt>
      <trkpt lat="49.08233" lon="-0.42513">
        <ele>14</ele>
        <time>2023-05-02T13:37:53Z</time>
      </trkpt>
      <trkpt lat="49.08239" lon="-0.42509">
        <ele>13.6</ele>
        <time>2023-05-02T13:37:54Z</time>
      </trkpt>
      <trkpt lat="49.08245" lon="-0.42503">
        <ele>13.4</ele>
        <time>2023-05-02T13:37:55Z</time>
      </trkpt>
      <trkpt lat="49.08251" lon="-0.42497">
        <ele>13.4</ele>
        <time>2023-05-02T13:37:56Z</time>
      </trkpt>
      <trkpt lat="49.08258" lon="-0.42491">
        <ele>13.6</ele>
        <time>2023-05-02T13:37:57Z</time>
      </trkpt>
      <trkpt lat="49.08264" lon="-0.42488">
        <ele>13.8</ele>
        <time>2023-05-02T13:37:58Z</time>
      </trkpt>
      <trkpt lat="49.0827" lon="-0.42485">
        <ele>13.8</ele>
        <time>2023-05-02T13:37:59Z</time>
      </trkpt>
      <trkpt lat="49.08276" lon="-0.42482">
        <ele>13.6</ele>
        <time>2023-05-02T13:38:00Z</time>
      </trkpt>
      <trkpt lat="49.08283" lon="-0.4248">
        <ele>13.6</ele>
        <time>2023-05-02T13:38:01Z</time>
      </trkpt>
      <trkpt lat="49.08289" lon="-0.42477">
        <ele>13.4</ele>
        <time>2023-05-02T13:38:02Z</time>
      </trkpt>
      <trkpt lat="49.08296" lon="-0.42475">
        <ele>13.2</ele>
        <time>2023-05-02T13:38:03Z</time>
      </trkpt>
      <trkpt lat="49.08303" lon="-0.42472">
        <ele>12.8</ele>
        <time>2023-05-02T13:38:04Z</time>
      </trkpt>
      <trkpt lat="49.08311" lon="-0.42469">
        <ele>12.6</ele>
        <time>2023-05-02T13:38:05Z</time>
      </trkpt>
      <trkpt lat="49.08318" lon="-0.42466">
        <ele>12.4</ele>
        <time>2023-05-02T13:38:06Z</time>
      </trkpt>
      <trkpt lat="49.08325" lon="-0.42463">
        <ele>11.8</ele>
        <time>2023-05-02T13:38:07Z</time>
      </trkpt>
      <trkpt lat="49.08333" lon="-0.4246">
        <ele>11.6</ele>
        <time>2023-05-02T13:38:08Z</time>
      </trkpt>
      <trkpt lat="49.0834" lon="-0.42457">
        <ele>11.4</ele>
        <time>2023-05-02T13:38:09Z</time>
      </trkpt>
      <trkpt lat="49.08347" lon="-0.42453">
        <ele>11.4</ele>
        <time>2023-05-02T13:38:10Z</time>
      </trkpt>
      <trkpt lat="49.08355" lon="-0.4245">
        <ele>11.4</ele>
        <time>2023-05-02T13:38:11Z</time>
      </trkpt>
      <trkpt lat="49.08362" lon="-0.42446">
        <ele>11.4</ele>
        <time>2023-05-02T13:38:12Z</time>
      </trkpt>
      <trkpt lat="49.08369" lon="-0.42443">
        <ele>11.2</ele>
        <time>2023-05-02T13:38:13Z</time>
      </trkpt>
      <trkpt lat="49.08376" lon="-0.42439">
        <ele>11.2</ele>
        <time>2023-05-02T13:38:14Z</time>
      </trkpt>
      <trkpt lat="49.08382" lon="-0.42436">
        <ele>10.8</ele>
        <time>2023-05-02T13:38:15Z</time>
      </trkpt>
      <trkpt lat="49.08389" lon="-0.42432">
        <ele>10.8</ele>
        <time>2023-05-02T13:38:16Z</time>
      </trkpt>
      <trkpt lat="49.08396" lon="-0.42429">
        <ele>10.6</ele>
        <time>2023-05-02T13:38:17Z</time>
      </trkpt>
      <trkpt lat="49.08402" lon="-0.42427">
        <ele>10.6</ele>
        <time>2023-05-02T13:38:18Z</time>
      </trkpt>
      <trkpt lat="49.08409" lon="-0.42424">
        <ele>10.4</ele>
        <time>2023-05-02T13:38:19Z</time>
      </trkpt>
      <trkpt lat="49.08415" lon="-0.42421">
        <ele>10</ele>
        <time>2023-05-02T13:38:20Z</time>
      </trkpt>
      <trkpt lat="49.08422" lon="-0.42418">
        <ele>10.2</ele>
        <time>2023-05-02T13:38:21Z</time>
      </trkpt>
      <trkpt lat="49.08429" lon="-0.42416">
        <ele>10.4</ele>
        <time>2023-05-02T13:38:22Z</time>
      </trkpt>
      <trkpt lat="49.08435" lon="-0.42413">
        <ele>10.8</ele>
        <time>2023-05-02T13:38:23Z</time>
      </trkpt>
      <trkpt lat="49.08441" lon="-0.42411">
        <ele>11.4</ele>
        <time>2023-05-02T13:38:24Z</time>
      </trkpt>
      <trkpt lat="49.08448" lon="-0.42409">
        <ele>11.8</ele>
        <time>2023-05-02T13:38:25Z</time>
      </trkpt>
      <trkpt lat="49.08453" lon="-0.42407">
        <ele>12.2</ele>
        <time>2023-05-02T13:38:26Z</time>
      </trkpt>
      <trkpt lat="49.08459" lon="-0.42405">
        <ele>12.6</ele>
        <time>2023-05-02T13:38:27Z</time>
      </trkpt>
      <trkpt lat="49.08465" lon="-0.42403">
        <ele>12.8</ele>
        <time>2023-05-02T13:38:28Z</time>
      </trkpt>
      <trkpt lat="49.08471" lon="-0.424">
        <ele>13.4</ele>
        <time>2023-05-02T13:38:29Z</time>
      </trkpt>
      <trkpt lat="49.08476" lon="-0.42398">
        <ele>13.8</ele>
        <time>2023-05-02T13:38:30Z</time>
      </trkpt>
      <trkpt lat="49.08482" lon="-0.42395">
        <ele>14.2</ele>
        <time>2023-05-02T13:38:31Z</time>
      </trkpt>
      <trkpt lat="49.08489" lon="-0.42393">
        <ele>14.6</ele>
        <time>2023-05-02T13:38:32Z</time>
      </trkpt>
      <trkpt lat="49.08495" lon="-0.42392">
        <ele>14.8</ele>
        <time>2023-05-02T13:38:33Z</time>
      </trkpt>
      <trkpt lat="49.08501" lon="-0.4239">
        <ele>15.2</ele>
        <time>2023-05-02T13:38:34Z</time>
      </trkpt>
      <trkpt lat="49.08508" lon="-0.42389">
        <ele>15.4</ele>
        <time>2023-05-02T13:38:35Z</time>
      </trkpt>
      <trkpt lat="49.08514" lon="-0.42387">
        <ele>15.6</ele>
        <time>2023-05-02T13:38:36Z</time>
      </trkpt>
      <trkpt lat="49.0852" lon="-0.42385">
        <ele>15.6</ele>
        <time>2023-05-02T13:38:37Z</time>
      </trkpt>
      <trkpt lat="49.08525" lon="-0.42383">
        <ele>15.8</ele>
        <time>2023-05-02T13:38:38Z</time>
      </trkpt>
      <trkpt lat="49.0853" lon="-0.4238">
        <ele>16.2</ele>
        <time>2023-05-02T13:38:39Z</time>
      </trkpt>
      <trkpt lat="49.08533" lon="-0.42378">
        <ele>16.2</ele>
        <time>2023-05-02T13:38:40Z</time>
      </trkpt>
      <trkpt lat="49.08536" lon="-0.42378">
        <ele>16.2</ele>
        <time>2023-05-02T13:38:41Z</time>
      </trkpt>
      <trkpt lat="49.08538" lon="-0.42378">
        <ele>16.2</ele>
        <time>2023-05-02T13:38:42Z</time>
      </trkpt>
      <trkpt lat="49.08541" lon="-0.42378">
        <ele>16.2</ele>
        <time>2023-05-02T13:38:43Z</time>
      </trkpt>
      <trkpt lat="49.08543" lon="-0.42377">
        <ele>16.2</ele>
        <time>2023-05-02T13:38:44Z</time>
      </trkpt>
      <trkpt lat="49.08546" lon="-0.42376">
        <ele>16.2</ele>
        <time>2023-05-02T13:38:45Z</time>
      </trkpt>
      <trkpt lat="49.08549" lon="-0.42375">
        <ele>16.4</ele>
        <time>2023-05-02T13:38:46Z</time>
      </trkpt>
      <trkpt lat="49.08551" lon="-0.42373">
        <ele>16.6</ele>
        <time>2023-05-02T13:38:47Z</time>
      </trkpt>
      <trkpt lat="49.08554" lon="-0.42371">
        <ele>16.8</ele>
        <time>2023-05-02T13:38:48Z</time>
      </trkpt>
      <trkpt lat="49.08556" lon="-0.4237">
        <ele>16.8</ele>
        <time>2023-05-02T13:38:49Z</time>
      </trkpt>
      <trkpt lat="49.08559" lon="-0.42369">
        <ele>16.8</ele>
        <time>2023-05-02T13:38:50Z</time>
      </trkpt>
      <trkpt lat="49.08562" lon="-0.42368">
        <ele>16.8</ele>
        <time>2023-05-02T13:38:51Z</time>
      </trkpt>
      <trkpt lat="49.08566" lon="-0.42367">
        <ele>16.8</ele>
        <time>2023-05-02T13:38:52Z</time>
      </trkpt>
      <trkpt lat="49.0857" lon="-0.42367">
        <ele>16.8</ele>
        <time>2023-05-02T13:38:53Z</time>
      </trkpt>
      <trkpt lat="49.08574" lon="-0.42366">
        <ele>16.8</ele>
        <time>2023-05-02T13:38:54Z</time>
      </trkpt>
      <trkpt lat="49.08579" lon="-0.42365">
        <ele>16.8</ele>
        <time>2023-05-02T13:38:55Z</time>
      </trkpt>
      <trkpt lat="49.08584" lon="-0.42364">
        <ele>16.8</ele>
        <time>2023-05-02T13:38:56Z</time>
      </trkpt>
      <trkpt lat="49.0859" lon="-0.42363">
        <ele>16.8</ele>
        <time>2023-05-02T13:38:57Z</time>
      </trkpt>
      <trkpt lat="49.08595" lon="-0.42361">
        <ele>16.6</ele>
        <time>2023-05-02T13:38:58Z</time>
      </trkpt>
      <trkpt lat="49.08601" lon="-0.42359">
        <ele>16.6</ele>
        <time>2023-05-02T13:38:59Z</time>
      </trkpt>
      <trkpt lat="49.08607" lon="-0.42357">
        <ele>16.4</ele>
        <time>2023-05-02T13:39:00Z</time>
      </trkpt>
      <trkpt lat="49.08613" lon="-0.42355">
        <ele>16.4</ele>
        <time>2023-05-02T13:39:01Z</time>
      </trkpt>
      <trkpt lat="49.08619" lon="-0.42352">
        <ele>16.2</ele>
        <time>2023-05-02T13:39:02Z</time>
      </trkpt>
      <trkpt lat="49.08625" lon="-0.4235">
        <ele>16.2</ele>
        <time>2023-05-02T13:39:03Z</time>
      </trkpt>
      <trkpt lat="49.08631" lon="-0.42348">
        <ele>16.2</ele>
        <time>2023-05-02T13:39:04Z</time>
      </trkpt>
      <trkpt lat="49.08637" lon="-0.42346">
        <ele>16.2</ele>
        <time>2023-05-02T13:39:05Z</time>
      </trkpt>
      <trkpt lat="49.08642" lon="-0.42344">
        <ele>16.2</ele>
        <time>2023-05-02T13:39:06Z</time>
      </trkpt>
      <trkpt lat="49.08648" lon="-0.42342">
        <ele>16</ele>
        <time>2023-05-02T13:39:07Z</time>
      </trkpt>
      <trkpt lat="49.08654" lon="-0.4234">
        <ele>15.8</ele>
        <time>2023-05-02T13:39:08Z</time>
      </trkpt>
      <trkpt lat="49.0866" lon="-0.42339">
        <ele>15.8</ele>
        <time>2023-05-02T13:39:09Z</time>
      </trkpt>
      <trkpt lat="49.08666" lon="-0.42337">
        <ele>15.6</ele>
        <time>2023-05-02T13:39:10Z</time>
      </trkpt>
      <trkpt lat="49.08671" lon="-0.42335">
        <ele>15.6</ele>
        <time>2023-05-02T13:39:11Z</time>
      </trkpt>
      <trkpt lat="49.08677" lon="-0.42333">
        <ele>15.6</ele>
        <time>2023-05-02T13:39:12Z</time>
      </trkpt>
      <trkpt lat="49.08682" lon="-0.42331">
        <ele>15.6</ele>
        <time>2023-05-02T13:39:13Z</time>
      </trkpt>
      <trkpt lat="49.08688" lon="-0.4233">
        <ele>15.6</ele>
        <time>2023-05-02T13:39:14Z</time>
      </trkpt>
      <trkpt lat="49.08693" lon="-0.42329">
        <ele>15.4</ele>
        <time>2023-05-02T13:39:15Z</time>
      </trkpt>
      <trkpt lat="49.087" lon="-0.42328">
        <ele>15.2</ele>
        <time>2023-05-02T13:39:16Z</time>
      </trkpt>
      <trkpt lat="49.08707" lon="-0.42329">
        <ele>14.6</ele>
        <time>2023-05-02T13:39:17Z</time>
      </trkpt>
      <trkpt lat="49.08713" lon="-0.42329">
        <ele>14.4</ele>
        <time>2023-05-02T13:39:18Z</time>
      </trkpt>
      <trkpt lat="49.0872" lon="-0.42327">
        <ele>14.4</ele>
        <time>2023-05-02T13:39:19Z</time>
      </trkpt>
      <trkpt lat="49.08726" lon="-0.42325">
        <ele>14.4</ele>
        <time>2023-05-02T13:39:20Z</time>
      </trkpt>
      <trkpt lat="49.08732" lon="-0.42322">
        <ele>14.4</ele>
        <time>2023-05-02T13:39:21Z</time>
      </trkpt>
      <trkpt lat="49.08738" lon="-0.4232">
        <ele>14.4</ele>
        <time>2023-05-02T13:39:22Z</time>
      </trkpt>
      <trkpt lat="49.08745" lon="-0.42317">
        <ele>14.4</ele>
        <time>2023-05-02T13:39:23Z</time>
      </trkpt>
      <trkpt lat="49.08751" lon="-0.42314">
        <ele>14.4</ele>
        <time>2023-05-02T13:39:24Z</time>
      </trkpt>
      <trkpt lat="49.08758" lon="-0.42312">
        <ele>14.6</ele>
        <time>2023-05-02T13:39:25Z</time>
      </trkpt>
      <trkpt lat="49.08765" lon="-0.42309">
        <ele>14.6</ele>
        <time>2023-05-02T13:39:26Z</time>
      </trkpt>
      <trkpt lat="49.08771" lon="-0.42306">
        <ele>14.6</ele>
        <time>2023-05-02T13:39:27Z</time>
      </trkpt>
      <trkpt lat="49.08777" lon="-0.42303">
        <ele>14.6</ele>
        <time>2023-05-02T13:39:28Z</time>
      </trkpt>
      <trkpt lat="49.08783" lon="-0.423">
        <ele>14.6</ele>
        <time>2023-05-02T13:39:29Z</time>
      </trkpt>
      <trkpt lat="49.0879" lon="-0.42297">
        <ele>14.6</ele>
        <time>2023-05-02T13:39:30Z</time>
      </trkpt>
      <trkpt lat="49.08797" lon="-0.42294">
        <ele>14.6</ele>
        <time>2023-05-02T13:39:31Z</time>
      </trkpt>
      <trkpt lat="49.08804" lon="-0.4229">
        <ele>14.6</ele>
        <time>2023-05-02T13:39:32Z</time>
      </trkpt>
      <trkpt lat="49.08811" lon="-0.42286">
        <ele>14.4</ele>
        <time>2023-05-02T13:39:33Z</time>
      </trkpt>
      <trkpt lat="49.08818" lon="-0.42282">
        <ele>14.4</ele>
        <time>2023-05-02T13:39:34Z</time>
      </trkpt>
      <trkpt lat="49.08824" lon="-0.42278">
        <ele>14.4</ele>
        <time>2023-05-02T13:39:35Z</time>
      </trkpt>
      <trkpt lat="49.08831" lon="-0.42274">
        <ele>14.2</ele>
        <time>2023-05-02T13:39:36Z</time>
      </trkpt>
      <trkpt lat="49.08838" lon="-0.4227">
        <ele>14.2</ele>
        <time>2023-05-02T13:39:37Z</time>
      </trkpt>
      <trkpt lat="49.08844" lon="-0.42265">
        <ele>14</ele>
        <time>2023-05-02T13:39:38Z</time>
      </trkpt>
      <trkpt lat="49.08851" lon="-0.42261">
        <ele>13.8</ele>
        <time>2023-05-02T13:39:39Z</time>
      </trkpt>
      <trkpt lat="49.08857" lon="-0.42257">
        <ele>13.6</ele>
        <time>2023-05-02T13:39:40Z</time>
      </trkpt>
      <trkpt lat="49.08863" lon="-0.42253">
        <ele>13.4</ele>
        <time>2023-05-02T13:39:41Z</time>
      </trkpt>
      <trkpt lat="49.08869" lon="-0.42249">
        <ele>13.2</ele>
        <time>2023-05-02T13:39:42Z</time>
      </trkpt>
      <trkpt lat="49.08875" lon="-0.42244">
        <ele>13.2</ele>
        <time>2023-05-02T13:39:43Z</time>
      </trkpt>
      <trkpt lat="49.08881" lon="-0.4224">
        <ele>13.2</ele>
        <time>2023-05-02T13:39:44Z</time>
      </trkpt>
      <trkpt lat="49.08887" lon="-0.42235">
        <ele>13.2</ele>
        <time>2023-05-02T13:39:45Z</time>
      </trkpt>
      <trkpt lat="49.08893" lon="-0.42231">
        <ele>13</ele>
        <time>2023-05-02T13:39:46Z</time>
      </trkpt>
      <trkpt lat="49.08899" lon="-0.42226">
        <ele>13.2</ele>
        <time>2023-05-02T13:39:47Z</time>
      </trkpt>
      <trkpt lat="49.08904" lon="-0.42222">
        <ele>13.2</ele>
        <time>2023-05-02T13:39:48Z</time>
      </trkpt>
      <trkpt lat="49.0891" lon="-0.42217">
        <ele>13.2</ele>
        <time>2023-05-02T13:39:49Z</time>
      </trkpt>
      <trkpt lat="49.08916" lon="-0.42212">
        <ele>13.2</ele>
        <time>2023-05-02T13:39:50Z</time>
      </trkpt>
      <trkpt lat="49.08922" lon="-0.42208">
        <ele>13.4</ele>
        <time>2023-05-02T13:39:51Z</time>
      </trkpt>
      <trkpt lat="49.08928" lon="-0.42203">
        <ele>13.8</ele>
        <time>2023-05-02T13:39:52Z</time>
      </trkpt>
      <trkpt lat="49.08934" lon="-0.42198">
        <ele>14</ele>
        <time>2023-05-02T13:39:53Z</time>
      </trkpt>
      <trkpt lat="49.0894" lon="-0.42193">
        <ele>14.2</ele>
        <time>2023-05-02T13:39:54Z</time>
      </trkpt>
      <trkpt lat="49.08946" lon="-0.42187">
        <ele>14.4</ele>
        <time>2023-05-02T13:39:55Z</time>
      </trkpt>
      <trkpt lat="49.08951" lon="-0.42182">
        <ele>14.6</ele>
        <time>2023-05-02T13:39:56Z</time>
      </trkpt>
      <trkpt lat="49.08957" lon="-0.42176">
        <ele>14.6</ele>
        <time>2023-05-02T13:39:57Z</time>
      </trkpt>
      <trkpt lat="49.08963" lon="-0.4217">
        <ele>14.6</ele>
        <time>2023-05-02T13:39:58Z</time>
      </trkpt>
      <trkpt lat="49.08969" lon="-0.42164">
        <ele>14.6</ele>
        <time>2023-05-02T13:39:59Z</time>
      </trkpt>
      <trkpt lat="49.08974" lon="-0.42158">
        <ele>14.6</ele>
        <time>2023-05-02T13:40:00Z</time>
      </trkpt>
      <trkpt lat="49.0898" lon="-0.42152">
        <ele>14.6</ele>
        <time>2023-05-02T13:40:01Z</time>
      </trkpt>
      <trkpt lat="49.08985" lon="-0.42146">
        <ele>14.8</ele>
        <time>2023-05-02T13:40:02Z</time>
      </trkpt>
      <trkpt lat="49.0899" lon="-0.4214">
        <ele>14.8</ele>
        <time>2023-05-02T13:40:03Z</time>
      </trkpt>
      <trkpt lat="49.08996" lon="-0.42135">
        <ele>15</ele>
        <time>2023-05-02T13:40:04Z</time>
      </trkpt>
      <trkpt lat="49.09001" lon="-0.42129">
        <ele>15.2</ele>
        <time>2023-05-02T13:40:05Z</time>
      </trkpt>
      <trkpt lat="49.09006" lon="-0.42123">
        <ele>15.6</ele>
        <time>2023-05-02T13:40:06Z</time>
      </trkpt>
      <trkpt lat="49.09012" lon="-0.42116">
        <ele>15.8</ele>
        <time>2023-05-02T13:40:07Z</time>
      </trkpt>
      <trkpt lat="49.09017" lon="-0.4211">
        <ele>16</ele>
        <time>2023-05-02T13:40:08Z</time>
      </trkpt>
      <trkpt lat="49.09022" lon="-0.42104">
        <ele>16.2</ele>
        <time>2023-05-02T13:40:09Z</time>
      </trkpt>
      <trkpt lat="49.09027" lon="-0.42097">
        <ele>16.2</ele>
        <time>2023-05-02T13:40:10Z</time>
      </trkpt>
      <trkpt lat="49.09032" lon="-0.42091">
        <ele>16</ele>
        <time>2023-05-02T13:40:11Z</time>
      </trkpt>
      <trkpt lat="49.09037" lon="-0.42085">
        <ele>15.8</ele>
        <time>2023-05-02T13:40:12Z</time>
      </trkpt>
      <trkpt lat="49.09041" lon="-0.42079">
        <ele>15.8</ele>
        <time>2023-05-02T13:40:13Z</time>
      </trkpt>
      <trkpt lat="49.09046" lon="-0.42072">
        <ele>15.8</ele>
        <time>2023-05-02T13:40:14Z</time>
      </trkpt>
      <trkpt lat="49.0905" lon="-0.42066">
        <ele>16</ele>
        <time>2023-05-02T13:40:15Z</time>
      </trkpt>
      <trkpt lat="49.09055" lon="-0.42059">
        <ele>16</ele>
        <time>2023-05-02T13:40:16Z</time>
      </trkpt>
      <trkpt lat="49.09059" lon="-0.42053">
        <ele>16.2</ele>
        <time>2023-05-02T13:40:17Z</time>
      </trkpt>
      <trkpt lat="49.09063" lon="-0.42047">
        <ele>16.2</ele>
        <time>2023-05-02T13:40:18Z</time>
      </trkpt>
      <trkpt lat="49.09068" lon="-0.4204">
        <ele>16.2</ele>
        <time>2023-05-02T13:40:19Z</time>
      </trkpt>
      <trkpt lat="49.09072" lon="-0.42034">
        <ele>16.2</ele>
        <time>2023-05-02T13:40:20Z</time>
      </trkpt>
      <trkpt lat="49.09076" lon="-0.42027">
        <ele>16.2</ele>
        <time>2023-05-02T13:40:21Z</time>
      </trkpt>
      <trkpt lat="49.0908" lon="-0.4202">
        <ele>16.2</ele>
        <time>2023-05-02T13:40:22Z</time>
      </trkpt>
      <trkpt lat="49.09085" lon="-0.42014">
        <ele>16.2</ele>
        <time>2023-05-02T13:40:23Z</time>
      </trkpt>
      <trkpt lat="49.09089" lon="-0.42007">
        <ele>16.2</ele>
        <time>2023-05-02T13:40:24Z</time>
      </trkpt>
      <trkpt lat="49.09093" lon="-0.42001">
        <ele>16.2</ele>
        <time>2023-05-02T13:40:25Z</time>
      </trkpt>
      <trkpt lat="49.09098" lon="-0.41994">
        <ele>16.2</ele>
        <time>2023-05-02T13:40:26Z</time>
      </trkpt>
      <trkpt lat="49.09102" lon="-0.41987">
        <ele>16.2</ele>
        <time>2023-05-02T13:40:27Z</time>
      </trkpt>
      <trkpt lat="49.09106" lon="-0.4198">
        <ele>16.2</ele>
        <time>2023-05-02T13:40:28Z</time>
      </trkpt>
      <trkpt lat="49.09111" lon="-0.41974">
        <ele>16.2</ele>
        <time>2023-05-02T13:40:29Z</time>
      </trkpt>
      <trkpt lat="49.09115" lon="-0.41967">
        <ele>16.2</ele>
        <time>2023-05-02T13:40:30Z</time>
      </trkpt>
      <trkpt lat="49.09119" lon="-0.4196">
        <ele>16</ele>
        <time>2023-05-02T13:40:31Z</time>
      </trkpt>
      <trkpt lat="49.09124" lon="-0.41953">
        <ele>15.8</ele>
        <time>2023-05-02T13:40:32Z</time>
      </trkpt>
      <trkpt lat="49.09128" lon="-0.41946">
        <ele>15.6</ele>
        <time>2023-05-02T13:40:33Z</time>
      </trkpt>
      <trkpt lat="49.09133" lon="-0.41939">
        <ele>15.4</ele>
        <time>2023-05-02T13:40:34Z</time>
      </trkpt>
      <trkpt lat="49.09137" lon="-0.41932">
        <ele>15.2</ele>
        <time>2023-05-02T13:40:35Z</time>
      </trkpt>
      <trkpt lat="49.09141" lon="-0.41925">
        <ele>14.8</ele>
        <time>2023-05-02T13:40:36Z</time>
      </trkpt>
      <trkpt lat="49.09146" lon="-0.41918">
        <ele>14.6</ele>
        <time>2023-05-02T13:40:37Z</time>
      </trkpt>
      <trkpt lat="49.0915" lon="-0.41911">
        <ele>14.6</ele>
        <time>2023-05-02T13:40:38Z</time>
      </trkpt>
      <trkpt lat="49.09155" lon="-0.41904">
        <ele>14.8</ele>
        <time>2023-05-02T13:40:39Z</time>
      </trkpt>
      <trkpt lat="49.09159" lon="-0.41896">
        <ele>15.2</ele>
        <time>2023-05-02T13:40:40Z</time>
      </trkpt>
      <trkpt lat="49.09164" lon="-0.41889">
        <ele>15.4</ele>
        <time>2023-05-02T13:40:41Z</time>
      </trkpt>
      <trkpt lat="49.09168" lon="-0.41882">
        <ele>15.6</ele>
        <time>2023-05-02T13:40:42Z</time>
      </trkpt>
      <trkpt lat="49.09173" lon="-0.41875">
        <ele>16.2</ele>
        <time>2023-05-02T13:40:43Z</time>
      </trkpt>
      <trkpt lat="49.09177" lon="-0.41867">
        <ele>16.6</ele>
        <time>2023-05-02T13:40:44Z</time>
      </trkpt>
      <trkpt lat="49.09182" lon="-0.4186">
        <ele>16.8</ele>
        <time>2023-05-02T13:40:45Z</time>
      </trkpt>
      <trkpt lat="49.09187" lon="-0.41853">
        <ele>17.2</ele>
        <time>2023-05-02T13:40:46Z</time>
      </trkpt>
      <trkpt lat="49.09191" lon="-0.41846">
        <ele>17.2</ele>
        <time>2023-05-02T13:40:47Z</time>
      </trkpt>
      <trkpt lat="49.09196" lon="-0.41838">
        <ele>17.2</ele>
        <time>2023-05-02T13:40:48Z</time>
      </trkpt>
      <trkpt lat="49.09201" lon="-0.41831">
        <ele>17.2</ele>
        <time>2023-05-02T13:40:49Z</time>
      </trkpt>
      <trkpt lat="49.09206" lon="-0.41824">
        <ele>17</ele>
        <time>2023-05-02T13:40:50Z</time>
      </trkpt>
      <trkpt lat="49.0921" lon="-0.41816">
        <ele>17</ele>
        <time>2023-05-02T13:40:51Z</time>
      </trkpt>
      <trkpt lat="49.09215" lon="-0.41809">
        <ele>16.8</ele>
        <time>2023-05-02T13:40:52Z</time>
      </trkpt>
      <trkpt lat="49.0922" lon="-0.41802">
        <ele>16.8</ele>
        <time>2023-05-02T13:40:53Z</time>
      </trkpt>
      <trkpt lat="49.09225" lon="-0.41794">
        <ele>16.6</ele>
        <time>2023-05-02T13:40:54Z</time>
      </trkpt>
      <trkpt lat="49.09229" lon="-0.41787">
        <ele>16.2</ele>
        <time>2023-05-02T13:40:55Z</time>
      </trkpt>
      <trkpt lat="49.09233" lon="-0.41779">
        <ele>16.2</ele>
        <time>2023-05-02T13:40:56Z</time>
      </trkpt>
      <trkpt lat="49.09238" lon="-0.41772">
        <ele>15.8</ele>
        <time>2023-05-02T13:40:57Z</time>
      </trkpt>
      <trkpt lat="49.09242" lon="-0.41764">
        <ele>15.6</ele>
        <time>2023-05-02T13:40:58Z</time>
      </trkpt>
      <trkpt lat="49.09246" lon="-0.41755">
        <ele>15.4</ele>
        <time>2023-05-02T13:40:59Z</time>
      </trkpt>
      <trkpt lat="49.09251" lon="-0.41747">
        <ele>15.2</ele>
        <time>2023-05-02T13:41:00Z</time>
      </trkpt>
      <trkpt lat="49.09255" lon="-0.41739">
        <ele>15.6</ele>
        <time>2023-05-02T13:41:01Z</time>
      </trkpt>
      <trkpt lat="49.0926" lon="-0.41732">
        <ele>15.8</ele>
        <time>2023-05-02T13:41:02Z</time>
      </trkpt>
      <trkpt lat="49.09265" lon="-0.41724">
        <ele>16.2</ele>
        <time>2023-05-02T13:41:03Z</time>
      </trkpt>
      <trkpt lat="49.0927" lon="-0.41717">
        <ele>16.2</ele>
        <time>2023-05-02T13:41:04Z</time>
      </trkpt>
      <trkpt lat="49.09274" lon="-0.4171">
        <ele>16.2</ele>
        <time>2023-05-02T13:41:05Z</time>
      </trkpt>
      <trkpt lat="49.09279" lon="-0.41702">
        <ele>16.2</ele>
        <time>2023-05-02T13:41:06Z</time>
      </trkpt>
      <trkpt lat="49.09284" lon="-0.41695">
        <ele>16.2</ele>
        <time>2023-05-02T13:41:07Z</time>
      </trkpt>
      <trkpt lat="49.09288" lon="-0.41686">
        <ele>16.2</ele>
        <time>2023-05-02T13:41:08Z</time>
      </trkpt>
      <trkpt lat="49.09292" lon="-0.41678">
        <ele>16</ele>
        <time>2023-05-02T13:41:09Z</time>
      </trkpt>
      <trkpt lat="49.09296" lon="-0.4167">
        <ele>15.8</ele>
        <time>2023-05-02T13:41:10Z</time>
      </trkpt>
      <trkpt lat="49.09301" lon="-0.41662">
        <ele>15.6</ele>
        <time>2023-05-02T13:41:11Z</time>
      </trkpt>
      <trkpt lat="49.09305" lon="-0.41654">
        <ele>15.6</ele>
        <time>2023-05-02T13:41:12Z</time>
      </trkpt>
      <trkpt lat="49.0931" lon="-0.41646">
        <ele>15.6</ele>
        <time>2023-05-02T13:41:13Z</time>
      </trkpt>
      <trkpt lat="49.09315" lon="-0.41638">
        <ele>15.6</ele>
        <time>2023-05-02T13:41:14Z</time>
      </trkpt>
      <trkpt lat="49.09319" lon="-0.4163">
        <ele>15.6</ele>
        <time>2023-05-02T13:41:15Z</time>
      </trkpt>
      <trkpt lat="49.09324" lon="-0.41622">
        <ele>15.6</ele>
        <time>2023-05-02T13:41:16Z</time>
      </trkpt>
      <trkpt lat="49.09328" lon="-0.41614">
        <ele>15.6</ele>
        <time>2023-05-02T13:41:17Z</time>
      </trkpt>
      <trkpt lat="49.09332" lon="-0.41606">
        <ele>15.6</ele>
        <time>2023-05-02T13:41:18Z</time>
      </trkpt>
      <trkpt lat="49.09337" lon="-0.41598">
        <ele>15.6</ele>
        <time>2023-05-02T13:41:19Z</time>
      </trkpt>
      <trkpt lat="49.09341" lon="-0.4159">
        <ele>15.8</ele>
        <time>2023-05-02T13:41:20Z</time>
      </trkpt>
      <trkpt lat="49.09345" lon="-0.41582">
        <ele>15.8</ele>
        <time>2023-05-02T13:41:21Z</time>
      </trkpt>
      <trkpt lat="49.0935" lon="-0.41574">
        <ele>16.2</ele>
        <time>2023-05-02T13:41:22Z</time>
      </trkpt>
      <trkpt lat="49.09354" lon="-0.41566">
        <ele>16.2</ele>
        <time>2023-05-02T13:41:23Z</time>
      </trkpt>
      <trkpt lat="49.09359" lon="-0.41559">
        <ele>16.6</ele>
        <time>2023-05-02T13:41:24Z</time>
      </trkpt>
      <trkpt lat="49.09364" lon="-0.41551">
        <ele>16.8</ele>
        <time>2023-05-02T13:41:25Z</time>
      </trkpt>
      <trkpt lat="49.09368" lon="-0.41543">
        <ele>16.8</ele>
        <time>2023-05-02T13:41:26Z</time>
      </trkpt>
      <trkpt lat="49.09373" lon="-0.41535">
        <ele>16.8</ele>
        <time>2023-05-02T13:41:27Z</time>
      </trkpt>
      <trkpt lat="49.09378" lon="-0.41527">
        <ele>16.8</ele>
        <time>2023-05-02T13:41:28Z</time>
      </trkpt>
      <trkpt lat="49.09382" lon="-0.41519">
        <ele>16.8</ele>
        <time>2023-05-02T13:41:29Z</time>
      </trkpt>
      <trkpt lat="49.09387" lon="-0.41511">
        <ele>16.8</ele>
        <time>2023-05-02T13:41:30Z</time>
      </trkpt>
      <trkpt lat="49.09392" lon="-0.41503">
        <ele>16.6</ele>
        <time>2023-05-02T13:41:31Z</time>
      </trkpt>
      <trkpt lat="49.09397" lon="-0.41495">
        <ele>16.6</ele>
        <time>2023-05-02T13:41:32Z</time>
      </trkpt>
      <trkpt lat="49.09401" lon="-0.41487">
        <ele>16.6</ele>
        <time>2023-05-02T13:41:33Z</time>
      </trkpt>
      <trkpt lat="49.09406" lon="-0.41478">
        <ele>16.6</ele>
        <time>2023-05-02T13:41:34Z</time>
      </trkpt>
      <trkpt lat="49.09411" lon="-0.4147">
        <ele>16.8</ele>
        <time>2023-05-02T13:41:35Z</time>
      </trkpt>
      <trkpt lat="49.09415" lon="-0.41462">
        <ele>16.8</ele>
        <time>2023-05-02T13:41:36Z</time>
      </trkpt>
      <trkpt lat="49.0942" lon="-0.41454">
        <ele>17.2</ele>
        <time>2023-05-02T13:41:37Z</time>
      </trkpt>
      <trkpt lat="49.09425" lon="-0.41445">
        <ele>17.6</ele>
        <time>2023-05-02T13:41:38Z</time>
      </trkpt>
      <trkpt lat="49.0943" lon="-0.41437">
        <ele>17.8</ele>
        <time>2023-05-02T13:41:39Z</time>
      </trkpt>
      <trkpt lat="49.09434" lon="-0.41429">
        <ele>18</ele>
        <time>2023-05-02T13:41:40Z</time>
      </trkpt>
      <trkpt lat="49.09439" lon="-0.41421">
        <ele>18</ele>
        <time>2023-05-02T13:41:41Z</time>
      </trkpt>
      <trkpt lat="49.09444" lon="-0.41413">
        <ele>18</ele>
        <time>2023-05-02T13:41:42Z</time>
      </trkpt>
      <trkpt lat="49.09449" lon="-0.41404">
        <ele>17.8</ele>
        <time>2023-05-02T13:41:43Z</time>
      </trkpt>
      <trkpt lat="49.09453" lon="-0.41396">
        <ele>17.6</ele>
        <time>2023-05-02T13:41:44Z</time>
      </trkpt>
      <trkpt lat="49.09458" lon="-0.41387">
        <ele>17.6</ele>
        <time>2023-05-02T13:41:45Z</time>
      </trkpt>
      <trkpt lat="49.09463" lon="-0.41379">
        <ele>17.2</ele>
        <time>2023-05-02T13:41:46Z</time>
      </trkpt>
      <trkpt lat="49.09467" lon="-0.41371">
        <ele>17</ele>
        <time>2023-05-02T13:41:47Z</time>
      </trkpt>
      <trkpt lat="49.09472" lon="-0.41362">
        <ele>16.8</ele>
        <time>2023-05-02T13:41:48Z</time>
      </trkpt>
      <trkpt lat="49.09477" lon="-0.41354">
        <ele>16.6</ele>
        <time>2023-05-02T13:41:49Z</time>
      </trkpt>
      <trkpt lat="49.09481" lon="-0.41345">
        <ele>16.2</ele>
        <time>2023-05-02T13:41:50Z</time>
      </trkpt>
      <trkpt lat="49.09486" lon="-0.41336">
        <ele>15.8</ele>
        <time>2023-05-02T13:41:51Z</time>
      </trkpt>
      <trkpt lat="49.09491" lon="-0.41328">
        <ele>15.8</ele>
        <time>2023-05-02T13:41:52Z</time>
      </trkpt>
      <trkpt lat="49.09495" lon="-0.41319">
        <ele>16</ele>
        <time>2023-05-02T13:41:53Z</time>
      </trkpt>
      <trkpt lat="49.095" lon="-0.4131">
        <ele>16.2</ele>
        <time>2023-05-02T13:41:54Z</time>
      </trkpt>
      <trkpt lat="49.09505" lon="-0.41302">
        <ele>16.8</ele>
        <time>2023-05-02T13:41:55Z</time>
      </trkpt>
      <trkpt lat="49.09509" lon="-0.41293">
        <ele>17.2</ele>
        <time>2023-05-02T13:41:56Z</time>
      </trkpt>
      <trkpt lat="49.09514" lon="-0.41285">
        <ele>17.8</ele>
        <time>2023-05-02T13:41:57Z</time>
      </trkpt>
      <trkpt lat="49.09519" lon="-0.41276">
        <ele>18.2</ele>
        <time>2023-05-02T13:41:58Z</time>
      </trkpt>
      <trkpt lat="49.09524" lon="-0.41268">
        <ele>18.4</ele>
        <time>2023-05-02T13:41:59Z</time>
      </trkpt>
      <trkpt lat="49.09528" lon="-0.4126">
        <ele>18.6</ele>
        <time>2023-05-02T13:42:00Z</time>
      </trkpt>
      <trkpt lat="49.09533" lon="-0.41251">
        <ele>18.8</ele>
        <time>2023-05-02T13:42:01Z</time>
      </trkpt>
      <trkpt lat="49.09538" lon="-0.41243">
        <ele>18.6</ele>
        <time>2023-05-02T13:42:02Z</time>
      </trkpt>
      <trkpt lat="49.09542" lon="-0.41235">
        <ele>18.6</ele>
        <time>2023-05-02T13:42:03Z</time>
      </trkpt>
      <trkpt lat="49.09547" lon="-0.41226">
        <ele>18.2</ele>
        <time>2023-05-02T13:42:04Z</time>
      </trkpt>
      <trkpt lat="49.09552" lon="-0.41218">
        <ele>18.2</ele>
        <time>2023-05-02T13:42:05Z</time>
      </trkpt>
      <trkpt lat="49.09556" lon="-0.4121">
        <ele>18</ele>
        <time>2023-05-02T13:42:06Z</time>
      </trkpt>
      <trkpt lat="49.09561" lon="-0.41201">
        <ele>17.8</ele>
        <time>2023-05-02T13:42:07Z</time>
      </trkpt>
      <trkpt lat="49.09565" lon="-0.41193">
        <ele>17.8</ele>
        <time>2023-05-02T13:42:08Z</time>
      </trkpt>
      <trkpt lat="49.0957" lon="-0.41185">
        <ele>17.6</ele>
        <time>2023-05-02T13:42:09Z</time>
      </trkpt>
      <trkpt lat="49.09574" lon="-0.41177">
        <ele>17.6</ele>
        <time>2023-05-02T13:42:10Z</time>
      </trkpt>
      <trkpt lat="49.09579" lon="-0.41169">
        <ele>17.4</ele>
        <time>2023-05-02T13:42:11Z</time>
      </trkpt>
      <trkpt lat="49.09583" lon="-0.41161">
        <ele>17.2</ele>
        <time>2023-05-02T13:42:12Z</time>
      </trkpt>
      <trkpt lat="49.09587" lon="-0.41152">
        <ele>17.2</ele>
        <time>2023-05-02T13:42:13Z</time>
      </trkpt>
      <trkpt lat="49.09591" lon="-0.41144">
        <ele>17.2</ele>
        <time>2023-05-02T13:42:14Z</time>
      </trkpt>
      <trkpt lat="49.09595" lon="-0.41136">
        <ele>17.2</ele>
        <time>2023-05-02T13:42:15Z</time>
      </trkpt>
      <trkpt lat="49.09599" lon="-0.41128">
        <ele>17.2</ele>
        <time>2023-05-02T13:42:16Z</time>
      </trkpt>
      <trkpt lat="49.09603" lon="-0.4112">
        <ele>17</ele>
        <time>2023-05-02T13:42:17Z</time>
      </trkpt>
      <trkpt lat="49.09607" lon="-0.41112">
        <ele>16.8</ele>
        <time>2023-05-02T13:42:18Z</time>
      </trkpt>
      <trkpt lat="49.09611" lon="-0.41103">
        <ele>16.6</ele>
        <time>2023-05-02T13:42:19Z</time>
      </trkpt>
      <trkpt lat="49.09614" lon="-0.41095">
        <ele>16.4</ele>
        <time>2023-05-02T13:42:20Z</time>
      </trkpt>
      <trkpt lat="49.09618" lon="-0.41086">
        <ele>16.2</ele>
        <time>2023-05-02T13:42:21Z</time>
      </trkpt>
      <trkpt lat="49.09622" lon="-0.41078">
        <ele>16</ele>
        <time>2023-05-02T13:42:22Z</time>
      </trkpt>
      <trkpt lat="49.09625" lon="-0.41069">
        <ele>16</ele>
        <time>2023-05-02T13:42:23Z</time>
      </trkpt>
      <trkpt lat="49.09629" lon="-0.41061">
        <ele>15.8</ele>
        <time>2023-05-02T13:42:24Z</time>
      </trkpt>
      <trkpt lat="49.09633" lon="-0.41052">
        <ele>15.8</ele>
        <time>2023-05-02T13:42:25Z</time>
      </trkpt>
      <trkpt lat="49.09636" lon="-0.41043">
        <ele>15.6</ele>
        <time>2023-05-02T13:42:26Z</time>
      </trkpt>
      <trkpt lat="49.0964" lon="-0.41034">
        <ele>15.6</ele>
        <time>2023-05-02T13:42:27Z</time>
      </trkpt>
      <trkpt lat="49.09643" lon="-0.41025">
        <ele>15.6</ele>
        <time>2023-05-02T13:42:28Z</time>
      </trkpt>
      <trkpt lat="49.09647" lon="-0.41016">
        <ele>15.6</ele>
        <time>2023-05-02T13:42:29Z</time>
      </trkpt>
      <trkpt lat="49.0965" lon="-0.41006">
        <ele>15.6</ele>
        <time>2023-05-02T13:42:30Z</time>
      </trkpt>
      <trkpt lat="49.09653" lon="-0.40997">
        <ele>15.6</ele>
        <time>2023-05-02T13:42:31Z</time>
      </trkpt>
      <trkpt lat="49.09657" lon="-0.40988">
        <ele>15.2</ele>
        <time>2023-05-02T13:42:32Z</time>
      </trkpt>
      <trkpt lat="49.0966" lon="-0.40978">
        <ele>15</ele>
        <time>2023-05-02T13:42:33Z</time>
      </trkpt>
      <trkpt lat="49.09663" lon="-0.40969">
        <ele>14.8</ele>
        <time>2023-05-02T13:42:34Z</time>
      </trkpt>
      <trkpt lat="49.09666" lon="-0.40959">
        <ele>14.6</ele>
        <time>2023-05-02T13:42:35Z</time>
      </trkpt>
      <trkpt lat="49.09669" lon="-0.40949">
        <ele>14.6</ele>
        <time>2023-05-02T13:42:36Z</time>
      </trkpt>
      <trkpt lat="49.09671" lon="-0.4094">
        <ele>14.4</ele>
        <time>2023-05-02T13:42:37Z</time>
      </trkpt>
      <trkpt lat="49.09674" lon="-0.4093">
        <ele>14.4</ele>
        <time>2023-05-02T13:42:38Z</time>
      </trkpt>
      <trkpt lat="49.09676" lon="-0.4092">
        <ele>14.4</ele>
        <time>2023-05-02T13:42:39Z</time>
      </trkpt>
      <trkpt lat="49.09679" lon="-0.4091">
        <ele>14.4</ele>
        <time>2023-05-02T13:42:40Z</time>
      </trkpt>
      <trkpt lat="49.09681" lon="-0.409">
        <ele>14.4</ele>
        <time>2023-05-02T13:42:41Z</time>
      </trkpt>
      <trkpt lat="49.09684" lon="-0.40891">
        <ele>14.4</ele>
        <time>2023-05-02T13:42:42Z</time>
      </trkpt>
      <trkpt lat="49.09687" lon="-0.40881">
        <ele>14.4</ele>
        <time>2023-05-02T13:42:43Z</time>
      </trkpt>
      <trkpt lat="49.0969" lon="-0.40873">
        <ele>14.2</ele>
        <time>2023-05-02T13:42:44Z</time>
      </trkpt>
      <trkpt lat="49.09693" lon="-0.40864">
        <ele>14</ele>
        <time>2023-05-02T13:42:45Z</time>
      </trkpt>
      <trkpt lat="49.09695" lon="-0.40855">
        <ele>13.8</ele>
        <time>2023-05-02T13:42:46Z</time>
      </trkpt>
      <trkpt lat="49.09697" lon="-0.40845">
        <ele>13.8</ele>
        <time>2023-05-02T13:42:47Z</time>
      </trkpt>
      <trkpt lat="49.09699" lon="-0.40835">
        <ele>13.6</ele>
        <time>2023-05-02T13:42:48Z</time>
      </trkpt>
      <trkpt lat="49.09702" lon="-0.40825">
        <ele>13.6</ele>
        <time>2023-05-02T13:42:49Z</time>
      </trkpt>
      <trkpt lat="49.09704" lon="-0.40815">
        <ele>13.6</ele>
        <time>2023-05-02T13:42:50Z</time>
      </trkpt>
      <trkpt lat="49.09706" lon="-0.40804">
        <ele>13.6</ele>
        <time>2023-05-02T13:42:51Z</time>
      </trkpt>
      <trkpt lat="49.09708" lon="-0.40794">
        <ele>13.8</ele>
        <time>2023-05-02T13:42:52Z</time>
      </trkpt>
      <trkpt lat="49.09709" lon="-0.40784">
        <ele>13.8</ele>
        <time>2023-05-02T13:42:53Z</time>
      </trkpt>
      <trkpt lat="49.09711" lon="-0.40773">
        <ele>14</ele>
        <time>2023-05-02T13:42:54Z</time>
      </trkpt>
      <trkpt lat="49.09713" lon="-0.40763">
        <ele>14.2</ele>
        <time>2023-05-02T13:42:55Z</time>
      </trkpt>
      <trkpt lat="49.09715" lon="-0.40753">
        <ele>14.4</ele>
        <time>2023-05-02T13:42:56Z</time>
      </trkpt>
      <trkpt lat="49.09716" lon="-0.40743">
        <ele>14.2</ele>
        <time>2023-05-02T13:42:57Z</time>
      </trkpt>
      <trkpt lat="49.09718" lon="-0.40732">
        <ele>13.8</ele>
        <time>2023-05-02T13:42:58Z</time>
      </trkpt>
      <trkpt lat="49.0972" lon="-0.40722">
        <ele>13.6</ele>
        <time>2023-05-02T13:42:59Z</time>
      </trkpt>
      <trkpt lat="49.09722" lon="-0.40711">
        <ele>13.4</ele>
        <time>2023-05-02T13:43:00Z</time>
      </trkpt>
      <trkpt lat="49.09723" lon="-0.407">
        <ele>13</ele>
        <time>2023-05-02T13:43:01Z</time>
      </trkpt>
      <trkpt lat="49.09724" lon="-0.40689">
        <ele>12.6</ele>
        <time>2023-05-02T13:43:02Z</time>
      </trkpt>
      <trkpt lat="49.09726" lon="-0.40678">
        <ele>12.4</ele>
        <time>2023-05-02T13:43:03Z</time>
      </trkpt>
      <trkpt lat="49.09727" lon="-0.40667">
        <ele>12</ele>
        <time>2023-05-02T13:43:04Z</time>
      </trkpt>
      <trkpt lat="49.09728" lon="-0.40657">
        <ele>12</ele>
        <time>2023-05-02T13:43:05Z</time>
      </trkpt>
      <trkpt lat="49.09729" lon="-0.40646">
        <ele>12</ele>
        <time>2023-05-02T13:43:06Z</time>
      </trkpt>
      <trkpt lat="49.0973" lon="-0.40635">
        <ele>12</ele>
        <time>2023-05-02T13:43:07Z</time>
      </trkpt>
      <trkpt lat="49.09731" lon="-0.40624">
        <ele>12</ele>
        <time>2023-05-02T13:43:08Z</time>
      </trkpt>
      <trkpt lat="49.09732" lon="-0.40613">
        <ele>12</ele>
        <time>2023-05-02T13:43:09Z</time>
      </trkpt>
      <trkpt lat="49.09733" lon="-0.40602">
        <ele>12.2</ele>
        <time>2023-05-02T13:43:10Z</time>
      </trkpt>
      <trkpt lat="49.09733" lon="-0.4059">
        <ele>12.2</ele>
        <time>2023-05-02T13:43:11Z</time>
      </trkpt>
      <trkpt lat="49.09734" lon="-0.40579">
        <ele>12.2</ele>
        <time>2023-05-02T13:43:12Z</time>
      </trkpt>
      <trkpt lat="49.09734" lon="-0.40568">
        <ele>12.2</ele>
        <time>2023-05-02T13:43:13Z</time>
      </trkpt>
      <trkpt lat="49.09735" lon="-0.40557">
        <ele>12.2</ele>
        <time>2023-05-02T13:43:14Z</time>
      </trkpt>
      <trkpt lat="49.09735" lon="-0.40546">
        <ele>12.4</ele>
        <time>2023-05-02T13:43:15Z</time>
      </trkpt>
      <trkpt lat="49.09735" lon="-0.40534">
        <ele>12.4</ele>
        <time>2023-05-02T13:43:16Z</time>
      </trkpt>
      <trkpt lat="49.09735" lon="-0.40523">
        <ele>12.4</ele>
        <time>2023-05-02T13:43:17Z</time>
      </trkpt>
      <trkpt lat="49.09736" lon="-0.40512">
        <ele>12.4</ele>
        <time>2023-05-02T13:43:18Z</time>
      </trkpt>
      <trkpt lat="49.09736" lon="-0.40501">
        <ele>12.6</ele>
        <time>2023-05-02T13:43:19Z</time>
      </trkpt>
      <trkpt lat="49.09736" lon="-0.4049">
        <ele>12.6</ele>
        <time>2023-05-02T13:43:20Z</time>
      </trkpt>
      <trkpt lat="49.09736" lon="-0.40478">
        <ele>12.6</ele>
        <time>2023-05-02T13:43:21Z</time>
      </trkpt>
      <trkpt lat="49.09736" lon="-0.40467">
        <ele>12.6</ele>
        <time>2023-05-02T13:43:22Z</time>
      </trkpt>
      <trkpt lat="49.09736" lon="-0.40456">
        <ele>12.8</ele>
        <time>2023-05-02T13:43:23Z</time>
      </trkpt>
      <trkpt lat="49.09735" lon="-0.40445">
        <ele>12.8</ele>
        <time>2023-05-02T13:43:24Z</time>
      </trkpt>
      <trkpt lat="49.09735" lon="-0.40434">
        <ele>13</ele>
        <time>2023-05-02T13:43:25Z</time>
      </trkpt>
      <trkpt lat="49.09735" lon="-0.40423">
        <ele>13</ele>
        <time>2023-05-02T13:43:26Z</time>
      </trkpt>
      <trkpt lat="49.09735" lon="-0.40411">
        <ele>13.2</ele>
        <time>2023-05-02T13:43:27Z</time>
      </trkpt>
      <trkpt lat="49.09735" lon="-0.404">
        <ele>13.4</ele>
        <time>2023-05-02T13:43:28Z</time>
      </trkpt>
      <trkpt lat="49.09734" lon="-0.40389">
        <ele>13.6</ele>
        <time>2023-05-02T13:43:29Z</time>
      </trkpt>
      <trkpt lat="49.09734" lon="-0.40378">
        <ele>13.6</ele>
        <time>2023-05-02T13:43:30Z</time>
      </trkpt>
      <trkpt lat="49.09734" lon="-0.40367">
        <ele>13.8</ele>
        <time>2023-05-02T13:43:31Z</time>
      </trkpt>
      <trkpt lat="49.09733" lon="-0.40355">
        <ele>13.8</ele>
        <time>2023-05-02T13:43:32Z</time>
      </trkpt>
      <trkpt lat="49.09733" lon="-0.40344">
        <ele>14.2</ele>
        <time>2023-05-02T13:43:33Z</time>
      </trkpt>
      <trkpt lat="49.09733" lon="-0.40333">
        <ele>14.4</ele>
        <time>2023-05-02T13:43:34Z</time>
      </trkpt>
      <trkpt lat="49.09732" lon="-0.40321">
        <ele>14.6</ele>
        <time>2023-05-02T13:43:35Z</time>
      </trkpt>
      <trkpt lat="49.09732" lon="-0.4031">
        <ele>14.8</ele>
        <time>2023-05-02T13:43:36Z</time>
      </trkpt>
      <trkpt lat="49.09731" lon="-0.40299">
        <ele>15.2</ele>
        <time>2023-05-02T13:43:37Z</time>
      </trkpt>
      <trkpt lat="49.09731" lon="-0.40288">
        <ele>15.4</ele>
        <time>2023-05-02T13:43:38Z</time>
      </trkpt>
      <trkpt lat="49.09731" lon="-0.40276">
        <ele>15.6</ele>
        <time>2023-05-02T13:43:39Z</time>
      </trkpt>
      <trkpt lat="49.0973" lon="-0.40265">
        <ele>15.8</ele>
        <time>2023-05-02T13:43:40Z</time>
      </trkpt>
      <trkpt lat="49.0973" lon="-0.40254">
        <ele>16.2</ele>
        <time>2023-05-02T13:43:41Z</time>
      </trkpt>
      <trkpt lat="49.0973" lon="-0.40242">
        <ele>16.2</ele>
        <time>2023-05-02T13:43:42Z</time>
      </trkpt>
      <trkpt lat="49.09729" lon="-0.40231">
        <ele>16.6</ele>
        <time>2023-05-02T13:43:43Z</time>
      </trkpt>
      <trkpt lat="49.09729" lon="-0.4022">
        <ele>16.8</ele>
        <time>2023-05-02T13:43:44Z</time>
      </trkpt>
      <trkpt lat="49.09729" lon="-0.40209">
        <ele>16.8</ele>
        <time>2023-05-02T13:43:45Z</time>
      </trkpt>
      <trkpt lat="49.09728" lon="-0.40198">
        <ele>17.2</ele>
        <time>2023-05-02T13:43:46Z</time>
      </trkpt>
      <trkpt lat="49.09728" lon="-0.40187">
        <ele>17.2</ele>
        <time>2023-05-02T13:43:47Z</time>
      </trkpt>
      <trkpt lat="49.09728" lon="-0.40176">
        <ele>17.4</ele>
        <time>2023-05-02T13:43:48Z</time>
      </trkpt>
      <trkpt lat="49.09727" lon="-0.40165">
        <ele>17.6</ele>
        <time>2023-05-02T13:43:49Z</time>
      </trkpt>
      <trkpt lat="49.09727" lon="-0.40154">
        <ele>17.4</ele>
        <time>2023-05-02T13:43:50Z</time>
      </trkpt>
      <trkpt lat="49.09726" lon="-0.40143">
        <ele>17.4</ele>
        <time>2023-05-02T13:43:51Z</time>
      </trkpt>
      <trkpt lat="49.09726" lon="-0.40132">
        <ele>17.2</ele>
        <time>2023-05-02T13:43:52Z</time>
      </trkpt>
      <trkpt lat="49.09726" lon="-0.40121">
        <ele>17.2</ele>
        <time>2023-05-02T13:43:53Z</time>
      </trkpt>
      <trkpt lat="49.09726" lon="-0.4011">
        <ele>17.2</ele>
        <time>2023-05-02T13:43:54Z</time>
      </trkpt>
      <trkpt lat="49.09726" lon="-0.40099">
        <ele>17</ele>
        <time>2023-05-02T13:43:55Z</time>
      </trkpt>
      <trkpt lat="49.09726" lon="-0.40088">
        <ele>16.8</ele>
        <time>2023-05-02T13:43:56Z</time>
      </trkpt>
      <trkpt lat="49.09726" lon="-0.40077">
        <ele>16.8</ele>
        <time>2023-05-02T13:43:57Z</time>
      </trkpt>
      <trkpt lat="49.09726" lon="-0.40066">
        <ele>16.2</ele>
        <time>2023-05-02T13:43:58Z</time>
      </trkpt>
      <trkpt lat="49.09725" lon="-0.40055">
        <ele>16</ele>
        <time>2023-05-02T13:43:59Z</time>
      </trkpt>
      <trkpt lat="49.09725" lon="-0.40044">
        <ele>15.6</ele>
        <time>2023-05-02T13:44:00Z</time>
      </trkpt>
      <trkpt lat="49.09725" lon="-0.40032">
        <ele>15.4</ele>
        <time>2023-05-02T13:44:01Z</time>
      </trkpt>
      <trkpt lat="49.09725" lon="-0.40021">
        <ele>14.8</ele>
        <time>2023-05-02T13:44:02Z</time>
      </trkpt>
      <trkpt lat="49.09724" lon="-0.40009">
        <ele>14.6</ele>
        <time>2023-05-02T13:44:03Z</time>
      </trkpt>
      <trkpt lat="49.09724" lon="-0.39998">
        <ele>14.4</ele>
        <time>2023-05-02T13:44:04Z</time>
      </trkpt>
      <trkpt lat="49.09724" lon="-0.39987">
        <ele>14.4</ele>
        <time>2023-05-02T13:44:05Z</time>
      </trkpt>
      <trkpt lat="49.09724" lon="-0.39976">
        <ele>14.6</ele>
        <time>2023-05-02T13:44:06Z</time>
      </trkpt>
      <trkpt lat="49.09724" lon="-0.39964">
        <ele>14.6</ele>
        <time>2023-05-02T13:44:07Z</time>
      </trkpt>
      <trkpt lat="49.09725" lon="-0.39953">
        <ele>14.6</ele>
        <time>2023-05-02T13:44:08Z</time>
      </trkpt>
      <trkpt lat="49.09725" lon="-0.39942">
        <ele>14.8</ele>
        <time>2023-05-02T13:44:09Z</time>
      </trkpt>
      <trkpt lat="49.09726" lon="-0.39931">
        <ele>14.8</ele>
        <time>2023-05-02T13:44:10Z</time>
      </trkpt>
      <trkpt lat="49.09727" lon="-0.3992">
        <ele>14.8</ele>
        <time>2023-05-02T13:44:11Z</time>
      </trkpt>
      <trkpt lat="49.09728" lon="-0.39909">
        <ele>14.8</ele>
        <time>2023-05-02T13:44:12Z</time>
      </trkpt>
      <trkpt lat="49.09729" lon="-0.39898">
        <ele>14.6</ele>
        <time>2023-05-02T13:44:13Z</time>
      </trkpt>
      <trkpt lat="49.0973" lon="-0.39887">
        <ele>14.6</ele>
        <time>2023-05-02T13:44:14Z</time>
      </trkpt>
      <trkpt lat="49.09731" lon="-0.39877">
        <ele>14.4</ele>
        <time>2023-05-02T13:44:15Z</time>
      </trkpt>
      <trkpt lat="49.09733" lon="-0.39866">
        <ele>14.4</ele>
        <time>2023-05-02T13:44:16Z</time>
      </trkpt>
      <trkpt lat="49.09735" lon="-0.39855">
        <ele>14.2</ele>
        <time>2023-05-02T13:44:17Z</time>
      </trkpt>
      <trkpt lat="49.09736" lon="-0.39844">
        <ele>14</ele>
        <time>2023-05-02T13:44:18Z</time>
      </trkpt>
      <trkpt lat="49.09738" lon="-0.39833">
        <ele>13.8</ele>
        <time>2023-05-02T13:44:19Z</time>
      </trkpt>
      <trkpt lat="49.0974" lon="-0.39822">
        <ele>13.4</ele>
        <time>2023-05-02T13:44:20Z</time>
      </trkpt>
      <trkpt lat="49.09742" lon="-0.39812">
        <ele>13</ele>
        <time>2023-05-02T13:44:21Z</time>
      </trkpt>
      <trkpt lat="49.09745" lon="-0.39801">
        <ele>12.6</ele>
        <time>2023-05-02T13:44:22Z</time>
      </trkpt>
      <trkpt lat="49.09748" lon="-0.39791">
        <ele>12.2</ele>
        <time>2023-05-02T13:44:23Z</time>
      </trkpt>
      <trkpt lat="49.09751" lon="-0.3978">
        <ele>11.6</ele>
        <time>2023-05-02T13:44:24Z</time>
      </trkpt>
      <trkpt lat="49.09753" lon="-0.3977">
        <ele>11.6</ele>
        <time>2023-05-02T13:44:25Z</time>
      </trkpt>
      <trkpt lat="49.09756" lon="-0.39759">
        <ele>11.6</ele>
        <time>2023-05-02T13:44:26Z</time>
      </trkpt>
      <trkpt lat="49.09759" lon="-0.39748">
        <ele>11.6</ele>
        <time>2023-05-02T13:44:27Z</time>
      </trkpt>
      <trkpt lat="49.09761" lon="-0.39737">
        <ele>11.6</ele>
        <time>2023-05-02T13:44:28Z</time>
      </trkpt>
      <trkpt lat="49.09764" lon="-0.39727">
        <ele>11.6</ele>
        <time>2023-05-02T13:44:29Z</time>
      </trkpt>
      <trkpt lat="49.09766" lon="-0.39716">
        <ele>11.6</ele>
        <time>2023-05-02T13:44:30Z</time>
      </trkpt>
      <trkpt lat="49.09768" lon="-0.39705">
        <ele>11.6</ele>
        <time>2023-05-02T13:44:31Z</time>
      </trkpt>
      <trkpt lat="49.09771" lon="-0.39694">
        <ele>11.6</ele>
        <time>2023-05-02T13:44:32Z</time>
      </trkpt>
      <trkpt lat="49.09773" lon="-0.39683">
        <ele>11.8</ele>
        <time>2023-05-02T13:44:33Z</time>
      </trkpt>
      <trkpt lat="49.09776" lon="-0.39673">
        <ele>12.2</ele>
        <time>2023-05-02T13:44:34Z</time>
      </trkpt>
      <trkpt lat="49.09778" lon="-0.39663">
        <ele>12.6</ele>
        <time>2023-05-02T13:44:35Z</time>
      </trkpt>
      <trkpt lat="49.09781" lon="-0.39653">
        <ele>13</ele>
        <time>2023-05-02T13:44:36Z</time>
      </trkpt>
      <trkpt lat="49.09784" lon="-0.39643">
        <ele>13.6</ele>
        <time>2023-05-02T13:44:37Z</time>
      </trkpt>
      <trkpt lat="49.09787" lon="-0.39634">
        <ele>14</ele>
        <time>2023-05-02T13:44:38Z</time>
      </trkpt>
      <trkpt lat="49.0979" lon="-0.39624">
        <ele>14.6</ele>
        <time>2023-05-02T13:44:39Z</time>
      </trkpt>
      <trkpt lat="49.09793" lon="-0.39615">
        <ele>15.2</ele>
        <time>2023-05-02T13:44:40Z</time>
      </trkpt>
      <trkpt lat="49.09796" lon="-0.39605">
        <ele>15.6</ele>
        <time>2023-05-02T13:44:41Z</time>
      </trkpt>
      <trkpt lat="49.09799" lon="-0.39596">
        <ele>16.2</ele>
        <time>2023-05-02T13:44:42Z</time>
      </trkpt>
      <trkpt lat="49.09802" lon="-0.39587">
        <ele>16.8</ele>
        <time>2023-05-02T13:44:43Z</time>
      </trkpt>
      <trkpt lat="49.09805" lon="-0.39577">
        <ele>17.2</ele>
        <time>2023-05-02T13:44:44Z</time>
      </trkpt>
      <trkpt lat="49.09808" lon="-0.39567">
        <ele>17.8</ele>
        <time>2023-05-02T13:44:45Z</time>
      </trkpt>
      <trkpt lat="49.09811" lon="-0.39557">
        <ele>18.2</ele>
        <time>2023-05-02T13:44:46Z</time>
      </trkpt>
      <trkpt lat="49.09814" lon="-0.39547">
        <ele>18.8</ele>
        <time>2023-05-02T13:44:47Z</time>
      </trkpt>
      <trkpt lat="49.09817" lon="-0.39537">
        <ele>19.2</ele>
        <time>2023-05-02T13:44:48Z</time>
      </trkpt>
      <trkpt lat="49.0982" lon="-0.39527">
        <ele>19.8</ele>
        <time>2023-05-02T13:44:49Z</time>
      </trkpt>
      <trkpt lat="49.09823" lon="-0.39516">
        <ele>20.2</ele>
        <time>2023-05-02T13:44:50Z</time>
      </trkpt>
      <trkpt lat="49.09826" lon="-0.39505">
        <ele>20.8</ele>
        <time>2023-05-02T13:44:51Z</time>
      </trkpt>
      <trkpt lat="49.0983" lon="-0.39493">
        <ele>21.2</ele>
        <time>2023-05-02T13:44:52Z</time>
      </trkpt>
      <trkpt lat="49.09833" lon="-0.39481">
        <ele>21.4</ele>
        <time>2023-05-02T13:44:53Z</time>
      </trkpt>
      <trkpt lat="49.09836" lon="-0.39469">
        <ele>21.8</ele>
        <time>2023-05-02T13:44:54Z</time>
      </trkpt>
      <trkpt lat="49.09838" lon="-0.39457">
        <ele>22.2</ele>
        <time>2023-05-02T13:44:55Z</time>
      </trkpt>
      <trkpt lat="49.09841" lon="-0.39445">
        <ele>22.4</ele>
        <time>2023-05-02T13:44:56Z</time>
      </trkpt>
      <trkpt lat="49.09843" lon="-0.39434">
        <ele>22.8</ele>
        <time>2023-05-02T13:44:57Z</time>
      </trkpt>
      <trkpt lat="49.09846" lon="-0.39423">
        <ele>23</ele>
        <time>2023-05-02T13:44:58Z</time>
      </trkpt>
      <trkpt lat="49.09848" lon="-0.39412">
        <ele>23.2</ele>
        <time>2023-05-02T13:44:59Z</time>
      </trkpt>
      <trkpt lat="49.09851" lon="-0.39401">
        <ele>22.8</ele>
        <time>2023-05-02T13:45:00Z</time>
      </trkpt>
      <trkpt lat="49.09853" lon="-0.39391">
        <ele>22.6</ele>
        <time>2023-05-02T13:45:01Z</time>
      </trkpt>
      <trkpt lat="49.09856" lon="-0.3938">
        <ele>22.2</ele>
        <time>2023-05-02T13:45:02Z</time>
      </trkpt>
      <trkpt lat="49.09859" lon="-0.3937">
        <ele>22.2</ele>
        <time>2023-05-02T13:45:03Z</time>
      </trkpt>
      <trkpt lat="49.09861" lon="-0.3936">
        <ele>21.8</ele>
        <time>2023-05-02T13:45:04Z</time>
      </trkpt>
      <trkpt lat="49.09864" lon="-0.3935">
        <ele>21.6</ele>
        <time>2023-05-02T13:45:05Z</time>
      </trkpt>
      <trkpt lat="49.09867" lon="-0.3934">
        <ele>21.4</ele>
        <time>2023-05-02T13:45:06Z</time>
      </trkpt>
      <trkpt lat="49.09869" lon="-0.3933">
        <ele>21.2</ele>
        <time>2023-05-02T13:45:07Z</time>
      </trkpt>
      <trkpt lat="49.09872" lon="-0.39321">
        <ele>21.2</ele>
        <time>2023-05-02T13:45:08Z</time>
      </trkpt>
      <trkpt lat="49.09875" lon="-0.39311">
        <ele>21</ele>
        <time>2023-05-02T13:45:09Z</time>
      </trkpt>
      <trkpt lat="49.09877" lon="-0.39302">
        <ele>20.8</ele>
        <time>2023-05-02T13:45:10Z</time>
      </trkpt>
      <trkpt lat="49.0988" lon="-0.39292">
        <ele>20.8</ele>
        <time>2023-05-02T13:45:11Z</time>
      </trkpt>
      <trkpt lat="49.09883" lon="-0.39283">
        <ele>20.8</ele>
        <time>2023-05-02T13:45:12Z</time>
      </trkpt>
      <trkpt lat="49.09886" lon="-0.39273">
        <ele>20.6</ele>
        <time>2023-05-02T13:45:13Z</time>
      </trkpt>
      <trkpt lat="49.09889" lon="-0.39263">
        <ele>20.6</ele>
        <time>2023-05-02T13:45:14Z</time>
      </trkpt>
      <trkpt lat="49.09891" lon="-0.39254">
        <ele>20.4</ele>
        <time>2023-05-02T13:45:15Z</time>
      </trkpt>
      <trkpt lat="49.09894" lon="-0.39244">
        <ele>20.2</ele>
        <time>2023-05-02T13:45:16Z</time>
      </trkpt>
      <trkpt lat="49.09897" lon="-0.39235">
        <ele>20.2</ele>
        <time>2023-05-02T13:45:17Z</time>
      </trkpt>
      <trkpt lat="49.09899" lon="-0.39225">
        <ele>20.2</ele>
        <time>2023-05-02T13:45:18Z</time>
      </trkpt>
      <trkpt lat="49.09902" lon="-0.39216">
        <ele>20</ele>
        <time>2023-05-02T13:45:19Z</time>
      </trkpt>
      <trkpt lat="49.09905" lon="-0.39206">
        <ele>19.8</ele>
        <time>2023-05-02T13:45:20Z</time>
      </trkpt>
      <trkpt lat="49.09908" lon="-0.39197">
        <ele>19.8</ele>
        <time>2023-05-02T13:45:21Z</time>
      </trkpt>
      <trkpt lat="49.0991" lon="-0.39187">
        <ele>19.6</ele>
        <time>2023-05-02T13:45:22Z</time>
      </trkpt>
      <trkpt lat="49.09913" lon="-0.39177">
        <ele>19.2</ele>
        <time>2023-05-02T13:45:23Z</time>
      </trkpt>
      <trkpt lat="49.09916" lon="-0.39167">
        <ele>18.8</ele>
        <time>2023-05-02T13:45:24Z</time>
      </trkpt>
      <trkpt lat="49.09919" lon="-0.39157">
        <ele>18.6</ele>
        <time>2023-05-02T13:45:25Z</time>
      </trkpt>
      <trkpt lat="49.09922" lon="-0.39147">
        <ele>18.2</ele>
        <time>2023-05-02T13:45:26Z</time>
      </trkpt>
      <trkpt lat="49.09925" lon="-0.39137">
        <ele>17.8</ele>
        <time>2023-05-02T13:45:27Z</time>
      </trkpt>
      <trkpt lat="49.09928" lon="-0.39127">
        <ele>17.6</ele>
        <time>2023-05-02T13:45:28Z</time>
      </trkpt>
      <trkpt lat="49.09931" lon="-0.39117">
        <ele>17.2</ele>
        <time>2023-05-02T13:45:29Z</time>
      </trkpt>
      <trkpt lat="49.09935" lon="-0.39108">
        <ele>16.8</ele>
        <time>2023-05-02T13:45:30Z</time>
      </trkpt>
      <trkpt lat="49.09938" lon="-0.39098">
        <ele>16.4</ele>
        <time>2023-05-02T13:45:31Z</time>
      </trkpt>
      <trkpt lat="49.09942" lon="-0.39089">
        <ele>16</ele>
        <time>2023-05-02T13:45:32Z</time>
      </trkpt>
      <trkpt lat="49.09945" lon="-0.39079">
        <ele>15.8</ele>
        <time>2023-05-02T13:45:33Z</time>
      </trkpt>
      <trkpt lat="49.09948" lon="-0.3907">
        <ele>15.8</ele>
        <time>2023-05-02T13:45:34Z</time>
      </trkpt>
      <trkpt lat="49.09952" lon="-0.3906">
        <ele>15.6</ele>
        <time>2023-05-02T13:45:35Z</time>
      </trkpt>
      <trkpt lat="49.09956" lon="-0.39051">
        <ele>15.6</ele>
        <time>2023-05-02T13:45:36Z</time>
      </trkpt>
      <trkpt lat="49.0996" lon="-0.39042">
        <ele>15.6</ele>
        <time>2023-05-02T13:45:37Z</time>
      </trkpt>
      <trkpt lat="49.09965" lon="-0.39033">
        <ele>15.4</ele>
        <time>2023-05-02T13:45:38Z</time>
      </trkpt>
      <trkpt lat="49.09969" lon="-0.39024">
        <ele>15.2</ele>
        <time>2023-05-02T13:45:39Z</time>
      </trkpt>
      <trkpt lat="49.09974" lon="-0.39015">
        <ele>15</ele>
        <time>2023-05-02T13:45:40Z</time>
      </trkpt>
      <trkpt lat="49.09978" lon="-0.39006">
        <ele>14.6</ele>
        <time>2023-05-02T13:45:41Z</time>
      </trkpt>
      <trkpt lat="49.09983" lon="-0.38998">
        <ele>14.4</ele>
        <time>2023-05-02T13:45:42Z</time>
      </trkpt>
      <trkpt lat="49.09987" lon="-0.38989">
        <ele>14.2</ele>
        <time>2023-05-02T13:45:43Z</time>
      </trkpt>
      <trkpt lat="49.09991" lon="-0.3898">
        <ele>14</ele>
        <time>2023-05-02T13:45:44Z</time>
      </trkpt>
      <trkpt lat="49.09995" lon="-0.38971">
        <ele>13.6</ele>
        <time>2023-05-02T13:45:45Z</time>
      </trkpt>
      <trkpt lat="49.1" lon="-0.38963">
        <ele>13.4</ele>
        <time>2023-05-02T13:45:46Z</time>
      </trkpt>
      <trkpt lat="49.10004" lon="-0.38954">
        <ele>12.8</ele>
        <time>2023-05-02T13:45:47Z</time>
      </trkpt>
      <trkpt lat="49.10008" lon="-0.38946">
        <ele>12.6</ele>
        <time>2023-05-02T13:45:48Z</time>
      </trkpt>
      <trkpt lat="49.10012" lon="-0.38937">
        <ele>12.2</ele>
        <time>2023-05-02T13:45:49Z</time>
      </trkpt>
      <trkpt lat="49.10017" lon="-0.38929">
        <ele>11.6</ele>
        <time>2023-05-02T13:45:50Z</time>
      </trkpt>
      <trkpt lat="49.10021" lon="-0.38921">
        <ele>11.4</ele>
        <time>2023-05-02T13:45:51Z</time>
      </trkpt>
      <trkpt lat="49.10025" lon="-0.38913">
        <ele>11.2</ele>
        <time>2023-05-02T13:45:52Z</time>
      </trkpt>
      <trkpt lat="49.1003" lon="-0.38905">
        <ele>11</ele>
        <time>2023-05-02T13:45:53Z</time>
      </trkpt>
      <trkpt lat="49.10034" lon="-0.38897">
        <ele>11</ele>
        <time>2023-05-02T13:45:54Z</time>
      </trkpt>
      <trkpt lat="49.10039" lon="-0.38889">
        <ele>10.8</ele>
        <time>2023-05-02T13:45:55Z</time>
      </trkpt>
      <trkpt lat="49.10044" lon="-0.38882">
        <ele>10.8</ele>
        <time>2023-05-02T13:45:56Z</time>
      </trkpt>
      <trkpt lat="49.10049" lon="-0.38874">
        <ele>10.6</ele>
        <time>2023-05-02T13:45:57Z</time>
      </trkpt>
      <trkpt lat="49.10054" lon="-0.38867">
        <ele>10.6</ele>
        <time>2023-05-02T13:45:58Z</time>
      </trkpt>
      <trkpt lat="49.10059" lon="-0.38859">
        <ele>10.6</ele>
        <time>2023-05-02T13:45:59Z</time>
      </trkpt>
      <trkpt lat="49.10064" lon="-0.38852">
        <ele>10.4</ele>
        <time>2023-05-02T13:46:00Z</time>
      </trkpt>
      <trkpt lat="49.1007" lon="-0.38845">
        <ele>10.2</ele>
        <time>2023-05-02T13:46:01Z</time>
      </trkpt>
      <trkpt lat="49.10075" lon="-0.38837">
        <ele>10</ele>
        <time>2023-05-02T13:46:02Z</time>
      </trkpt>
      <trkpt lat="49.10081" lon="-0.3883">
        <ele>9.8</ele>
        <time>2023-05-02T13:46:03Z</time>
      </trkpt>
      <trkpt lat="49.10086" lon="-0.38822">
        <ele>9.8</ele>
        <time>2023-05-02T13:46:04Z</time>
      </trkpt>
      <trkpt lat="49.10092" lon="-0.38815">
        <ele>10.2</ele>
        <time>2023-05-02T13:46:05Z</time>
      </trkpt>
      <trkpt lat="49.10097" lon="-0.38807">
        <ele>10.4</ele>
        <time>2023-05-02T13:46:06Z</time>
      </trkpt>
      <trkpt lat="49.10103" lon="-0.388">
        <ele>10.4</ele>
        <time>2023-05-02T13:46:07Z</time>
      </trkpt>
      <trkpt lat="49.10108" lon="-0.38793">
        <ele>10.6</ele>
        <time>2023-05-02T13:46:08Z</time>
      </trkpt>
      <trkpt lat="49.10114" lon="-0.38786">
        <ele>10.6</ele>
        <time>2023-05-02T13:46:09Z</time>
      </trkpt>
      <trkpt lat="49.10119" lon="-0.38779">
        <ele>10.6</ele>
        <time>2023-05-02T13:46:10Z</time>
      </trkpt>
      <trkpt lat="49.10124" lon="-0.38772">
        <ele>10.8</ele>
        <time>2023-05-02T13:46:11Z</time>
      </trkpt>
      <trkpt lat="49.1013" lon="-0.38766">
        <ele>10.8</ele>
        <time>2023-05-02T13:46:12Z</time>
      </trkpt>
      <trkpt lat="49.10135" lon="-0.3876">
        <ele>10.8</ele>
        <time>2023-05-02T13:46:13Z</time>
      </trkpt>
      <trkpt lat="49.10141" lon="-0.38754">
        <ele>10.8</ele>
        <time>2023-05-02T13:46:14Z</time>
      </trkpt>
      <trkpt lat="49.10146" lon="-0.38749">
        <ele>11</ele>
        <time>2023-05-02T13:46:15Z</time>
      </trkpt>
      <trkpt lat="49.10152" lon="-0.38744">
        <ele>11.2</ele>
        <time>2023-05-02T13:46:16Z</time>
      </trkpt>
      <trkpt lat="49.10156" lon="-0.38739">
        <ele>11.2</ele>
        <time>2023-05-02T13:46:17Z</time>
      </trkpt>
      <trkpt lat="49.1016" lon="-0.38734">
        <ele>11.2</ele>
        <time>2023-05-02T13:46:18Z</time>
      </trkpt>
      <trkpt lat="49.10163" lon="-0.38728">
        <ele>11.2</ele>
        <time>2023-05-02T13:46:19Z</time>
      </trkpt>
      <trkpt lat="49.10164" lon="-0.38721">
        <ele>10.8</ele>
        <time>2023-05-02T13:46:20Z</time>
      </trkpt>
      <trkpt lat="49.10164" lon="-0.38712">
        <ele>10.6</ele>
        <time>2023-05-02T13:46:21Z</time>
      </trkpt>
      <trkpt lat="49.10164" lon="-0.38704">
        <ele>10.4</ele>
        <time>2023-05-02T13:46:22Z</time>
      </trkpt>
      <trkpt lat="49.10167" lon="-0.38696">
        <ele>10.2</ele>
        <time>2023-05-02T13:46:23Z</time>
      </trkpt>
      <trkpt lat="49.10171" lon="-0.3869">
        <ele>10</ele>
        <time>2023-05-02T13:46:24Z</time>
      </trkpt>
      <trkpt lat="49.10175" lon="-0.38684">
        <ele>10</ele>
        <time>2023-05-02T13:46:25Z</time>
      </trkpt>
      <trkpt lat="49.1018" lon="-0.3868">
        <ele>10</ele>
        <time>2023-05-02T13:46:26Z</time>
      </trkpt>
      <trkpt lat="49.10185" lon="-0.38675">
        <ele>10</ele>
        <time>2023-05-02T13:46:27Z</time>
      </trkpt>
      <trkpt lat="49.1019" lon="-0.3867">
        <ele>10</ele>
        <time>2023-05-02T13:46:28Z</time>
      </trkpt>
      <trkpt lat="49.10195" lon="-0.38666">
        <ele>10.2</ele>
        <time>2023-05-02T13:46:29Z</time>
      </trkpt>
      <trkpt lat="49.10201" lon="-0.38661">
        <ele>10.4</ele>
        <time>2023-05-02T13:46:30Z</time>
      </trkpt>
      <trkpt lat="49.10207" lon="-0.38656">
        <ele>10.6</ele>
        <time>2023-05-02T13:46:31Z</time>
      </trkpt>
      <trkpt lat="49.10212" lon="-0.38651">
        <ele>10.8</ele>
        <time>2023-05-02T13:46:32Z</time>
      </trkpt>
      <trkpt lat="49.10218" lon="-0.38646">
        <ele>11</ele>
        <time>2023-05-02T13:46:33Z</time>
      </trkpt>
      <trkpt lat="49.10224" lon="-0.38641">
        <ele>11.2</ele>
        <time>2023-05-02T13:46:34Z</time>
      </trkpt>
      <trkpt lat="49.1023" lon="-0.38636">
        <ele>11.2</ele>
        <time>2023-05-02T13:46:35Z</time>
      </trkpt>
      <trkpt lat="49.10236" lon="-0.3863">
        <ele>11.2</ele>
        <time>2023-05-02T13:46:36Z</time>
      </trkpt>
      <trkpt lat="49.10242" lon="-0.38625">
        <ele>11</ele>
        <time>2023-05-02T13:46:37Z</time>
      </trkpt>
      <trkpt lat="49.10248" lon="-0.38619">
        <ele>10.8</ele>
        <time>2023-05-02T13:46:38Z</time>
      </trkpt>
      <trkpt lat="49.10254" lon="-0.38614">
        <ele>10.8</ele>
        <time>2023-05-02T13:46:39Z</time>
      </trkpt>
      <trkpt lat="49.1026" lon="-0.38609">
        <ele>11</ele>
        <time>2023-05-02T13:46:40Z</time>
      </trkpt>
      <trkpt lat="49.10265" lon="-0.38604">
        <ele>11</ele>
        <time>2023-05-02T13:46:41Z</time>
      </trkpt>
      <trkpt lat="49.10271" lon="-0.38599">
        <ele>11.2</ele>
        <time>2023-05-02T13:46:42Z</time>
      </trkpt>
      <trkpt lat="49.10277" lon="-0.38594">
        <ele>11.2</ele>
        <time>2023-05-02T13:46:43Z</time>
      </trkpt>
      <trkpt lat="49.10283" lon="-0.3859">
        <ele>11.2</ele>
        <time>2023-05-02T13:46:44Z</time>
      </trkpt>
      <trkpt lat="49.10289" lon="-0.38585">
        <ele>11</ele>
        <time>2023-05-02T13:46:45Z</time>
      </trkpt>
      <trkpt lat="49.10296" lon="-0.38582">
        <ele>11.2</ele>
        <time>2023-05-02T13:46:46Z</time>
      </trkpt>
      <trkpt lat="49.10302" lon="-0.38578">
        <ele>11.4</ele>
        <time>2023-05-02T13:46:47Z</time>
      </trkpt>
      <trkpt lat="49.10308" lon="-0.38575">
        <ele>11.6</ele>
        <time>2023-05-02T13:46:48Z</time>
      </trkpt>
      <trkpt lat="49.10314" lon="-0.38573">
        <ele>11.6</ele>
        <time>2023-05-02T13:46:49Z</time>
      </trkpt>
      <trkpt lat="49.1032" lon="-0.3857">
        <ele>11.8</ele>
        <time>2023-05-02T13:46:50Z</time>
      </trkpt>
      <trkpt lat="49.10326" lon="-0.38566">
        <ele>11.8</ele>
        <time>2023-05-02T13:46:51Z</time>
      </trkpt>
      <trkpt lat="49.10332" lon="-0.38563">
        <ele>12</ele>
        <time>2023-05-02T13:46:52Z</time>
      </trkpt>
      <trkpt lat="49.10339" lon="-0.3856">
        <ele>12</ele>
        <time>2023-05-02T13:46:53Z</time>
      </trkpt>
      <trkpt lat="49.10345" lon="-0.38556">
        <ele>12</ele>
        <time>2023-05-02T13:46:54Z</time>
      </trkpt>
      <trkpt lat="49.10352" lon="-0.38553">
        <ele>12</ele>
        <time>2023-05-02T13:46:55Z</time>
      </trkpt>
      <trkpt lat="49.10359" lon="-0.38549">
        <ele>11.8</ele>
        <time>2023-05-02T13:46:56Z</time>
      </trkpt>
      <trkpt lat="49.10366" lon="-0.38545">
        <ele>11.8</ele>
        <time>2023-05-02T13:46:57Z</time>
      </trkpt>
      <trkpt lat="49.10372" lon="-0.38542">
        <ele>11.8</ele>
        <time>2023-05-02T13:46:58Z</time>
      </trkpt>
      <trkpt lat="49.10379" lon="-0.38538">
        <ele>11.6</ele>
        <time>2023-05-02T13:46:59Z</time>
      </trkpt>
      <trkpt lat="49.10385" lon="-0.38533">
        <ele>11.6</ele>
        <time>2023-05-02T13:47:00Z</time>
      </trkpt>
      <trkpt lat="49.10392" lon="-0.38528">
        <ele>11.4</ele>
        <time>2023-05-02T13:47:01Z</time>
      </trkpt>
      <trkpt lat="49.10398" lon="-0.38523">
        <ele>11.2</ele>
        <time>2023-05-02T13:47:02Z</time>
      </trkpt>
      <trkpt lat="49.10404" lon="-0.38517">
        <ele>10.8</ele>
        <time>2023-05-02T13:47:03Z</time>
      </trkpt>
      <trkpt lat="49.10409" lon="-0.3851">
        <ele>10.6</ele>
        <time>2023-05-02T13:47:04Z</time>
      </trkpt>
      <trkpt lat="49.10415" lon="-0.38504">
        <ele>10.2</ele>
        <time>2023-05-02T13:47:05Z</time>
      </trkpt>
      <trkpt lat="49.1042" lon="-0.38497">
        <ele>10.2</ele>
        <time>2023-05-02T13:47:06Z</time>
      </trkpt>
      <trkpt lat="49.10426" lon="-0.38491">
        <ele>10.4</ele>
        <time>2023-05-02T13:47:07Z</time>
      </trkpt>
      <trkpt lat="49.10432" lon="-0.38486">
        <ele>10.6</ele>
        <time>2023-05-02T13:47:08Z</time>
      </trkpt>
      <trkpt lat="49.10438" lon="-0.38483">
        <ele>10.8</ele>
        <time>2023-05-02T13:47:09Z</time>
      </trkpt>
      <trkpt lat="49.10445" lon="-0.38481">
        <ele>10.8</ele>
        <time>2023-05-02T13:47:10Z</time>
      </trkpt>
      <trkpt lat="49.10452" lon="-0.3848">
        <ele>10.8</ele>
        <time>2023-05-02T13:47:11Z</time>
      </trkpt>
      <trkpt lat="49.10458" lon="-0.38481">
        <ele>11</ele>
        <time>2023-05-02T13:47:12Z</time>
      </trkpt>
      <trkpt lat="49.10465" lon="-0.38482">
        <ele>11</ele>
        <time>2023-05-02T13:47:13Z</time>
      </trkpt>
      <trkpt lat="49.10471" lon="-0.38482">
        <ele>11</ele>
        <time>2023-05-02T13:47:14Z</time>
      </trkpt>
      <trkpt lat="49.10477" lon="-0.38482">
        <ele>11.2</ele>
        <time>2023-05-02T13:47:15Z</time>
      </trkpt>
      <trkpt lat="49.10483" lon="-0.38481">
        <ele>11.2</ele>
        <time>2023-05-02T13:47:16Z</time>
      </trkpt>
      <trkpt lat="49.1049" lon="-0.38479">
        <ele>11.2</ele>
        <time>2023-05-02T13:47:17Z</time>
      </trkpt>
      <trkpt lat="49.10496" lon="-0.38478">
        <ele>11.2</ele>
        <time>2023-05-02T13:47:18Z</time>
      </trkpt>
      <trkpt lat="49.10503" lon="-0.38476">
        <ele>11.2</ele>
        <time>2023-05-02T13:47:19Z</time>
      </trkpt>
      <trkpt lat="49.1051" lon="-0.38476">
        <ele>11.2</ele>
        <time>2023-05-02T13:47:20Z</time>
      </trkpt>
      <trkpt lat="49.10516" lon="-0.38477">
        <ele>11</ele>
        <time>2023-05-02T13:47:21Z</time>
      </trkpt>
      <trkpt lat="49.10523" lon="-0.38479">
        <ele>10.8</ele>
        <time>2023-05-02T13:47:22Z</time>
      </trkpt>
      <trkpt lat="49.1053" lon="-0.38481">
        <ele>10.6</ele>
        <time>2023-05-02T13:47:23Z</time>
      </trkpt>
      <trkpt lat="49.10537" lon="-0.38484">
        <ele>10.6</ele>
        <time>2023-05-02T13:47:24Z</time>
      </trkpt>
      <trkpt lat="49.10544" lon="-0.38486">
        <ele>10.6</ele>
        <time>2023-05-02T13:47:25Z</time>
      </trkpt>
      <trkpt lat="49.10551" lon="-0.38488">
        <ele>10.4</ele>
        <time>2023-05-02T13:47:26Z</time>
      </trkpt>
      <trkpt lat="49.10558" lon="-0.38489">
        <ele>10.4</ele>
        <time>2023-05-02T13:47:27Z</time>
      </trkpt>
      <trkpt lat="49.10565" lon="-0.3849">
        <ele>10.2</ele>
        <time>2023-05-02T13:47:28Z</time>
      </trkpt>
      <trkpt lat="49.10571" lon="-0.38489">
        <ele>10.2</ele>
        <time>2023-05-02T13:47:29Z</time>
      </trkpt>
      <trkpt lat="49.10578" lon="-0.38489">
        <ele>9.8</ele>
        <time>2023-05-02T13:47:30Z</time>
      </trkpt>
      <trkpt lat="49.10584" lon="-0.38488">
        <ele>9.8</ele>
        <time>2023-05-02T13:47:31Z</time>
      </trkpt>
      <trkpt lat="49.10591" lon="-0.38488">
        <ele>9.8</ele>
        <time>2023-05-02T13:47:32Z</time>
      </trkpt>
      <trkpt lat="49.10598" lon="-0.38488">
        <ele>9.6</ele>
        <time>2023-05-02T13:47:33Z</time>
      </trkpt>
      <trkpt lat="49.10604" lon="-0.38489">
        <ele>9.6</ele>
        <time>2023-05-02T13:47:34Z</time>
      </trkpt>
      <trkpt lat="49.10611" lon="-0.38492">
        <ele>9.6</ele>
        <time>2023-05-02T13:47:35Z</time>
      </trkpt>
      <trkpt lat="49.10617" lon="-0.38494">
        <ele>9.6</ele>
        <time>2023-05-02T13:47:36Z</time>
      </trkpt>
      <trkpt lat="49.10624" lon="-0.38497">
        <ele>9.6</ele>
        <time>2023-05-02T13:47:37Z</time>
      </trkpt>
      <trkpt lat="49.1063" lon="-0.385">
        <ele>9.4</ele>
        <time>2023-05-02T13:47:38Z</time>
      </trkpt>
      <trkpt lat="49.10636" lon="-0.38502">
        <ele>9.6</ele>
        <time>2023-05-02T13:47:39Z</time>
      </trkpt>
      <trkpt lat="49.10643" lon="-0.38504">
        <ele>9.6</ele>
        <time>2023-05-02T13:47:40Z</time>
      </trkpt>
      <trkpt lat="49.10649" lon="-0.38506">
        <ele>9.8</ele>
        <time>2023-05-02T13:47:41Z</time>
      </trkpt>
      <trkpt lat="49.10656" lon="-0.38508">
        <ele>10</ele>
        <time>2023-05-02T13:47:42Z</time>
      </trkpt>
      <trkpt lat="49.10662" lon="-0.3851">
        <ele>10.2</ele>
        <time>2023-05-02T13:47:43Z</time>
      </trkpt>
      <trkpt lat="49.10669" lon="-0.38512">
        <ele>10.2</ele>
        <time>2023-05-02T13:47:44Z</time>
      </trkpt>
      <trkpt lat="49.10675" lon="-0.38514">
        <ele>10.6</ele>
        <time>2023-05-02T13:47:45Z</time>
      </trkpt>
      <trkpt lat="49.10682" lon="-0.38517">
        <ele>10.6</ele>
        <time>2023-05-02T13:47:46Z</time>
      </trkpt>
      <trkpt lat="49.10688" lon="-0.38521">
        <ele>11.2</ele>
        <time>2023-05-02T13:47:47Z</time>
      </trkpt>
      <trkpt lat="49.10694" lon="-0.38525">
        <ele>11.6</ele>
        <time>2023-05-02T13:47:48Z</time>
      </trkpt>
      <trkpt lat="49.10701" lon="-0.3853">
        <ele>11.8</ele>
        <time>2023-05-02T13:47:49Z</time>
      </trkpt>
      <trkpt lat="49.10707" lon="-0.38534">
        <ele>12.4</ele>
        <time>2023-05-02T13:47:50Z</time>
      </trkpt>
      <trkpt lat="49.10714" lon="-0.38538">
        <ele>12.6</ele>
        <time>2023-05-02T13:47:51Z</time>
      </trkpt>
      <trkpt lat="49.10721" lon="-0.38542">
        <ele>12.8</ele>
        <time>2023-05-02T13:47:52Z</time>
      </trkpt>
      <trkpt lat="49.10728" lon="-0.38545">
        <ele>13.2</ele>
        <time>2023-05-02T13:47:53Z</time>
      </trkpt>
      <trkpt lat="49.10735" lon="-0.38548">
        <ele>13.2</ele>
        <time>2023-05-02T13:47:54Z</time>
      </trkpt>
      <trkpt lat="49.10742" lon="-0.3855">
        <ele>13.4</ele>
        <time>2023-05-02T13:47:55Z</time>
      </trkpt>
      <trkpt lat="49.10749" lon="-0.38552">
        <ele>13.4</ele>
        <time>2023-05-02T13:47:56Z</time>
      </trkpt>
      <trkpt lat="49.10757" lon="-0.38553">
        <ele>13.4</ele>
        <time>2023-05-02T13:47:57Z</time>
      </trkpt>
      <trkpt lat="49.10764" lon="-0.38555">
        <ele>13.2</ele>
        <time>2023-05-02T13:47:58Z</time>
      </trkpt>
      <trkpt lat="49.10771" lon="-0.38556">
        <ele>13.2</ele>
        <time>2023-05-02T13:47:59Z</time>
      </trkpt>
      <trkpt lat="49.10778" lon="-0.38557">
        <ele>13</ele>
        <time>2023-05-02T13:48:00Z</time>
      </trkpt>
      <trkpt lat="49.10785" lon="-0.38558">
        <ele>12.8</ele>
        <time>2023-05-02T13:48:01Z</time>
      </trkpt>
      <trkpt lat="49.10792" lon="-0.38559">
        <ele>12.6</ele>
        <time>2023-05-02T13:48:02Z</time>
      </trkpt>
      <trkpt lat="49.10798" lon="-0.3856">
        <ele>12.6</ele>
        <time>2023-05-02T13:48:03Z</time>
      </trkpt>
      <trkpt lat="49.10805" lon="-0.38561">
        <ele>12.6</ele>
        <time>2023-05-02T13:48:04Z</time>
      </trkpt>
      <trkpt lat="49.10813" lon="-0.38562">
        <ele>12.4</ele>
        <time>2023-05-02T13:48:05Z</time>
      </trkpt>
      <trkpt lat="49.10821" lon="-0.38564">
        <ele>12.2</ele>
        <time>2023-05-02T13:48:06Z</time>
      </trkpt>
      <trkpt lat="49.10828" lon="-0.38565">
        <ele>12.2</ele>
        <time>2023-05-02T13:48:07Z</time>
      </trkpt>
      <trkpt lat="49.10836" lon="-0.38567">
        <ele>12</ele>
        <time>2023-05-02T13:48:08Z</time>
      </trkpt>
      <trkpt lat="49.10844" lon="-0.38569">
        <ele>11.8</ele>
        <time>2023-05-02T13:48:09Z</time>
      </trkpt>
      <trkpt lat="49.10851" lon="-0.3857">
        <ele>11.6</ele>
        <time>2023-05-02T13:48:10Z</time>
      </trkpt>
      <trkpt lat="49.10859" lon="-0.38572">
        <ele>11.6</ele>
        <time>2023-05-02T13:48:11Z</time>
      </trkpt>
      <trkpt lat="49.10867" lon="-0.38574">
        <ele>11.4</ele>
        <time>2023-05-02T13:48:12Z</time>
      </trkpt>
      <trkpt lat="49.10874" lon="-0.38576">
        <ele>11.2</ele>
        <time>2023-05-02T13:48:13Z</time>
      </trkpt>
      <trkpt lat="49.10881" lon="-0.38579">
        <ele>11.2</ele>
        <time>2023-05-02T13:48:14Z</time>
      </trkpt>
      <trkpt lat="49.10889" lon="-0.38582">
        <ele>11</ele>
        <time>2023-05-02T13:48:15Z</time>
      </trkpt>
      <trkpt lat="49.10896" lon="-0.38585">
        <ele>10.8</ele>
        <time>2023-05-02T13:48:16Z</time>
      </trkpt>
      <trkpt lat="49.10903" lon="-0.38589">
        <ele>10.8</ele>
        <time>2023-05-02T13:48:17Z</time>
      </trkpt>
      <trkpt lat="49.1091" lon="-0.38593">
        <ele>11</ele>
        <time>2023-05-02T13:48:18Z</time>
      </trkpt>
      <trkpt lat="49.10916" lon="-0.38596">
        <ele>11</ele>
        <time>2023-05-02T13:48:19Z</time>
      </trkpt>
      <trkpt lat="49.10922" lon="-0.386">
        <ele>11</ele>
        <time>2023-05-02T13:48:20Z</time>
      </trkpt>
      <trkpt lat="49.10928" lon="-0.38604">
        <ele>11</ele>
        <time>2023-05-02T13:48:21Z</time>
      </trkpt>
      <trkpt lat="49.10935" lon="-0.38606">
        <ele>10.8</ele>
        <time>2023-05-02T13:48:22Z</time>
      </trkpt>
      <trkpt lat="49.10942" lon="-0.38609">
        <ele>10.6</ele>
        <time>2023-05-02T13:48:23Z</time>
      </trkpt>
      <trkpt lat="49.10949" lon="-0.3861">
        <ele>10.6</ele>
        <time>2023-05-02T13:48:24Z</time>
      </trkpt>
      <trkpt lat="49.10957" lon="-0.38612">
        <ele>10.4</ele>
        <time>2023-05-02T13:48:25Z</time>
      </trkpt>
      <trkpt lat="49.10965" lon="-0.38614">
        <ele>10</ele>
        <time>2023-05-02T13:48:26Z</time>
      </trkpt>
      <trkpt lat="49.10972" lon="-0.38616">
        <ele>9.8</ele>
        <time>2023-05-02T13:48:27Z</time>
      </trkpt>
      <trkpt lat="49.10979" lon="-0.38618">
        <ele>9.6</ele>
        <time>2023-05-02T13:48:28Z</time>
      </trkpt>
      <trkpt lat="49.10987" lon="-0.3862">
        <ele>9.4</ele>
        <time>2023-05-02T13:48:29Z</time>
      </trkpt>
      <trkpt lat="49.10994" lon="-0.38623">
        <ele>9.2</ele>
        <time>2023-05-02T13:48:30Z</time>
      </trkpt>
      <trkpt lat="49.11002" lon="-0.38626">
        <ele>9</ele>
        <time>2023-05-02T13:48:31Z</time>
      </trkpt>
      <trkpt lat="49.11009" lon="-0.38629">
        <ele>8.8</ele>
        <time>2023-05-02T13:48:32Z</time>
      </trkpt>
      <trkpt lat="49.11017" lon="-0.38632">
        <ele>8.8</ele>
        <time>2023-05-02T13:48:33Z</time>
      </trkpt>
      <trkpt lat="49.11024" lon="-0.38637">
        <ele>8.6</ele>
        <time>2023-05-02T13:48:34Z</time>
      </trkpt>
      <trkpt lat="49.11029" lon="-0.38643">
        <ele>8.6</ele>
        <time>2023-05-02T13:48:35Z</time>
      </trkpt>
      <trkpt lat="49.11034" lon="-0.38649">
        <ele>8.8</ele>
        <time>2023-05-02T13:48:36Z</time>
      </trkpt>
      <trkpt lat="49.11039" lon="-0.38656">
        <ele>8.8</ele>
        <time>2023-05-02T13:48:37Z</time>
      </trkpt>
      <trkpt lat="49.11043" lon="-0.38662">
        <ele>8.8</ele>
        <time>2023-05-02T13:48:38Z</time>
      </trkpt>
      <trkpt lat="49.11048" lon="-0.38666">
        <ele>8.6</ele>
        <time>2023-05-02T13:48:39Z</time>
      </trkpt>
      <trkpt lat="49.11054" lon="-0.38667">
        <ele>8.6</ele>
        <time>2023-05-02T13:48:40Z</time>
      </trkpt>
      <trkpt lat="49.1106" lon="-0.38669">
        <ele>8.4</ele>
        <time>2023-05-02T13:48:41Z</time>
      </trkpt>
      <trkpt lat="49.11066" lon="-0.38671">
        <ele>8.2</ele>
        <time>2023-05-02T13:48:42Z</time>
      </trkpt>
      <trkpt lat="49.11072" lon="-0.38674">
        <ele>7.8</ele>
        <time>2023-05-02T13:48:43Z</time>
      </trkpt>
      <trkpt lat="49.11079" lon="-0.38677">
        <ele>7.6</ele>
        <time>2023-05-02T13:48:44Z</time>
      </trkpt>
      <trkpt lat="49.11086" lon="-0.38679">
        <ele>7.6</ele>
        <time>2023-05-02T13:48:45Z</time>
      </trkpt>
      <trkpt lat="49.11092" lon="-0.38682">
        <ele>7.6</ele>
        <time>2023-05-02T13:48:46Z</time>
      </trkpt>
      <trkpt lat="49.11099" lon="-0.38685">
        <ele>8</ele>
        <time>2023-05-02T13:48:47Z</time>
      </trkpt>
      <trkpt lat="49.11105" lon="-0.38689">
        <ele>8.2</ele>
        <time>2023-05-02T13:48:48Z</time>
      </trkpt>
      <trkpt lat="49.11112" lon="-0.38692">
        <ele>8.4</ele>
        <time>2023-05-02T13:48:49Z</time>
      </trkpt>
      <trkpt lat="49.11118" lon="-0.38695">
        <ele>8.4</ele>
        <time>2023-05-02T13:48:50Z</time>
      </trkpt>
      <trkpt lat="49.11125" lon="-0.38699">
        <ele>8.6</ele>
        <time>2023-05-02T13:48:51Z</time>
      </trkpt>
      <trkpt lat="49.11131" lon="-0.38703">
        <ele>8.6</ele>
        <time>2023-05-02T13:48:52Z</time>
      </trkpt>
      <trkpt lat="49.11138" lon="-0.38707">
        <ele>8.8</ele>
        <time>2023-05-02T13:48:53Z</time>
      </trkpt>
      <trkpt lat="49.11144" lon="-0.38711">
        <ele>8.8</ele>
        <time>2023-05-02T13:48:54Z</time>
      </trkpt>
      <trkpt lat="49.11151" lon="-0.38715">
        <ele>8.8</ele>
        <time>2023-05-02T13:48:55Z</time>
      </trkpt>
      <trkpt lat="49.11157" lon="-0.38718">
        <ele>9</ele>
        <time>2023-05-02T13:48:56Z</time>
      </trkpt>
      <trkpt lat="49.11164" lon="-0.38722">
        <ele>9</ele>
        <time>2023-05-02T13:48:57Z</time>
      </trkpt>
      <trkpt lat="49.1117" lon="-0.38726">
        <ele>9</ele>
        <time>2023-05-02T13:48:58Z</time>
      </trkpt>
      <trkpt lat="49.11177" lon="-0.38729">
        <ele>9</ele>
        <time>2023-05-02T13:48:59Z</time>
      </trkpt>
      <trkpt lat="49.11183" lon="-0.38733">
        <ele>9</ele>
        <time>2023-05-02T13:49:00Z</time>
      </trkpt>
      <trkpt lat="49.1119" lon="-0.38736">
        <ele>9</ele>
        <time>2023-05-02T13:49:01Z</time>
      </trkpt>
      <trkpt lat="49.11196" lon="-0.3874">
        <ele>9</ele>
        <time>2023-05-02T13:49:02Z</time>
      </trkpt>
      <trkpt lat="49.11203" lon="-0.38744">
        <ele>9</ele>
        <time>2023-05-02T13:49:03Z</time>
      </trkpt>
      <trkpt lat="49.11209" lon="-0.38747">
        <ele>9</ele>
        <time>2023-05-02T13:49:04Z</time>
      </trkpt>
      <trkpt lat="49.11216" lon="-0.38751">
        <ele>9</ele>
        <time>2023-05-02T13:49:05Z</time>
      </trkpt>
      <trkpt lat="49.11222" lon="-0.38755">
        <ele>9</ele>
        <time>2023-05-02T13:49:06Z</time>
      </trkpt>
      <trkpt lat="49.11228" lon="-0.38759">
        <ele>8.8</ele>
        <time>2023-05-02T13:49:07Z</time>
      </trkpt>
      <trkpt lat="49.11235" lon="-0.38764">
        <ele>8.8</ele>
        <time>2023-05-02T13:49:08Z</time>
      </trkpt>
      <trkpt lat="49.1124" lon="-0.38768">
        <ele>8.8</ele>
        <time>2023-05-02T13:49:09Z</time>
      </trkpt>
      <trkpt lat="49.11246" lon="-0.38773">
        <ele>8.6</ele>
        <time>2023-05-02T13:49:10Z</time>
      </trkpt>
      <trkpt lat="49.11251" lon="-0.38778">
        <ele>8.6</ele>
        <time>2023-05-02T13:49:11Z</time>
      </trkpt>
      <trkpt lat="49.11257" lon="-0.38783">
        <ele>8.6</ele>
        <time>2023-05-02T13:49:12Z</time>
      </trkpt>
      <trkpt lat="49.11264" lon="-0.38788">
        <ele>8.4</ele>
        <time>2023-05-02T13:49:13Z</time>
      </trkpt>
      <trkpt lat="49.1127" lon="-0.38792">
        <ele>8.4</ele>
        <time>2023-05-02T13:49:14Z</time>
      </trkpt>
      <trkpt lat="49.11276" lon="-0.38796">
        <ele>8.2</ele>
        <time>2023-05-02T13:49:15Z</time>
      </trkpt>
      <trkpt lat="49.11282" lon="-0.38801">
        <ele>8.2</ele>
        <time>2023-05-02T13:49:16Z</time>
      </trkpt>
      <trkpt lat="49.11289" lon="-0.38805">
        <ele>8</ele>
        <time>2023-05-02T13:49:17Z</time>
      </trkpt>
      <trkpt lat="49.11295" lon="-0.38809">
        <ele>8</ele>
        <time>2023-05-02T13:49:18Z</time>
      </trkpt>
      <trkpt lat="49.11301" lon="-0.38813">
        <ele>8</ele>
        <time>2023-05-02T13:49:19Z</time>
      </trkpt>
      <trkpt lat="49.11307" lon="-0.38818">
        <ele>8</ele>
        <time>2023-05-02T13:49:20Z</time>
      </trkpt>
      <trkpt lat="49.11313" lon="-0.38823">
        <ele>8</ele>
        <time>2023-05-02T13:49:21Z</time>
      </trkpt>
      <trkpt lat="49.11319" lon="-0.38829">
        <ele>8</ele>
        <time>2023-05-02T13:49:22Z</time>
      </trkpt>
      <trkpt lat="49.11324" lon="-0.38836">
        <ele>8</ele>
        <time>2023-05-02T13:49:23Z</time>
      </trkpt>
      <trkpt lat="49.1133" lon="-0.38842">
        <ele>8.2</ele>
        <time>2023-05-02T13:49:24Z</time>
      </trkpt>
      <trkpt lat="49.11335" lon="-0.38848">
        <ele>8.2</ele>
        <time>2023-05-02T13:49:25Z</time>
      </trkpt>
      <trkpt lat="49.1134" lon="-0.38854">
        <ele>8.2</ele>
        <time>2023-05-02T13:49:26Z</time>
      </trkpt>
      <trkpt lat="49.11346" lon="-0.38859">
        <ele>8.2</ele>
        <time>2023-05-02T13:49:27Z</time>
      </trkpt>
      <trkpt lat="49.11351" lon="-0.38863">
        <ele>8.2</ele>
        <time>2023-05-02T13:49:28Z</time>
      </trkpt>
      <trkpt lat="49.11357" lon="-0.38868">
        <ele>8</ele>
        <time>2023-05-02T13:49:29Z</time>
      </trkpt>
      <trkpt lat="49.11362" lon="-0.38872">
        <ele>8</ele>
        <time>2023-05-02T13:49:30Z</time>
      </trkpt>
      <trkpt lat="49.11367" lon="-0.38877">
        <ele>8</ele>
        <time>2023-05-02T13:49:31Z</time>
      </trkpt>
      <trkpt lat="49.11372" lon="-0.38882">
        <ele>8</ele>
        <time>2023-05-02T13:49:32Z</time>
      </trkpt>
      <trkpt lat="49.11376" lon="-0.38886">
        <ele>7.8</ele>
        <time>2023-05-02T13:49:33Z</time>
      </trkpt>
      <trkpt lat="49.11381" lon="-0.3889">
        <ele>7.6</ele>
        <time>2023-05-02T13:49:34Z</time>
      </trkpt>
      <trkpt lat="49.11386" lon="-0.38895">
        <ele>7.6</ele>
        <time>2023-05-02T13:49:35Z</time>
      </trkpt>
      <trkpt lat="49.11391" lon="-0.38899">
        <ele>7.6</ele>
        <time>2023-05-02T13:49:36Z</time>
      </trkpt>
      <trkpt lat="49.11396" lon="-0.38903">
        <ele>7.6</ele>
        <time>2023-05-02T13:49:37Z</time>
      </trkpt>
      <trkpt lat="49.11402" lon="-0.38907">
        <ele>7.4</ele>
        <time>2023-05-02T13:49:38Z</time>
      </trkpt>
      <trkpt lat="49.11408" lon="-0.38911">
        <ele>7.2</ele>
        <time>2023-05-02T13:49:39Z</time>
      </trkpt>
      <trkpt lat="49.11414" lon="-0.38914">
        <ele>7</ele>
        <time>2023-05-02T13:49:40Z</time>
      </trkpt>
      <trkpt lat="49.1142" lon="-0.38918">
        <ele>7</ele>
        <time>2023-05-02T13:49:41Z</time>
      </trkpt>
      <trkpt lat="49.11427" lon="-0.38921">
        <ele>7.2</ele>
        <time>2023-05-02T13:49:42Z</time>
      </trkpt>
      <trkpt lat="49.11434" lon="-0.38924">
        <ele>7.2</ele>
        <time>2023-05-02T13:49:43Z</time>
      </trkpt>
      <trkpt lat="49.11441" lon="-0.38927">
        <ele>7.4</ele>
        <time>2023-05-02T13:49:44Z</time>
      </trkpt>
      <trkpt lat="49.11448" lon="-0.38931">
        <ele>7.4</ele>
        <time>2023-05-02T13:49:45Z</time>
      </trkpt>
      <trkpt lat="49.11456" lon="-0.38935">
        <ele>7.4</ele>
        <time>2023-05-02T13:49:46Z</time>
      </trkpt>
      <trkpt lat="49.11463" lon="-0.3894">
        <ele>7.4</ele>
        <time>2023-05-02T13:49:47Z</time>
      </trkpt>
      <trkpt lat="49.1147" lon="-0.38945">
        <ele>7.4</ele>
        <time>2023-05-02T13:49:48Z</time>
      </trkpt>
      <trkpt lat="49.11476" lon="-0.38949">
        <ele>7.4</ele>
        <time>2023-05-02T13:49:49Z</time>
      </trkpt>
      <trkpt lat="49.11482" lon="-0.38952">
        <ele>7.2</ele>
        <time>2023-05-02T13:49:50Z</time>
      </trkpt>
      <trkpt lat="49.11487" lon="-0.38956">
        <ele>7</ele>
        <time>2023-05-02T13:49:51Z</time>
      </trkpt>
      <trkpt lat="49.11489" lon="-0.38958">
        <ele>7</ele>
        <time>2023-05-02T13:49:52Z</time>
      </trkpt>
      <trkpt lat="49.11491" lon="-0.3896">
        <ele>7</ele>
        <time>2023-05-02T13:49:53Z</time>
      </trkpt>
      <trkpt lat="49.11494" lon="-0.38961">
        <ele>7</ele>
        <time>2023-05-02T13:49:54Z</time>
      </trkpt>
      <trkpt lat="49.11496" lon="-0.38963">
        <ele>7</ele>
        <time>2023-05-02T13:49:55Z</time>
      </trkpt>
      <trkpt lat="49.11499" lon="-0.38964">
        <ele>7</ele>
        <time>2023-05-02T13:49:56Z</time>
      </trkpt>
      <trkpt lat="49.11502" lon="-0.38967">
        <ele>6.6</ele>
        <time>2023-05-02T13:49:57Z</time>
      </trkpt>
      <trkpt lat="49.11506" lon="-0.3897">
        <ele>6.6</ele>
        <time>2023-05-02T13:49:58Z</time>
      </trkpt>
      <trkpt lat="49.1151" lon="-0.38973">
        <ele>6.4</ele>
        <time>2023-05-02T13:49:59Z</time>
      </trkpt>
      <trkpt lat="49.11515" lon="-0.38978">
        <ele>6</ele>
        <time>2023-05-02T13:50:00Z</time>
      </trkpt>
      <trkpt lat="49.1152" lon="-0.38983">
        <ele>6</ele>
        <time>2023-05-02T13:50:01Z</time>
      </trkpt>
      <trkpt lat="49.11526" lon="-0.38989">
        <ele>5.6</ele>
        <time>2023-05-02T13:50:02Z</time>
      </trkpt>
      <trkpt lat="49.11532" lon="-0.38994">
        <ele>5.4</ele>
        <time>2023-05-02T13:50:03Z</time>
      </trkpt>
      <trkpt lat="49.11539" lon="-0.39">
        <ele>5</ele>
        <time>2023-05-02T13:50:04Z</time>
      </trkpt>
      <trkpt lat="49.11546" lon="-0.39006">
        <ele>5</ele>
        <time>2023-05-02T13:50:05Z</time>
      </trkpt>
      <trkpt lat="49.11552" lon="-0.39012">
        <ele>5</ele>
        <time>2023-05-02T13:50:06Z</time>
      </trkpt>
      <trkpt lat="49.11558" lon="-0.39018">
        <ele>4.8</ele>
        <time>2023-05-02T13:50:07Z</time>
      </trkpt>
      <trkpt lat="49.11564" lon="-0.39025">
        <ele>4.8</ele>
        <time>2023-05-02T13:50:08Z</time>
      </trkpt>
      <trkpt lat="49.1157" lon="-0.39031">
        <ele>4.6</ele>
        <time>2023-05-02T13:50:09Z</time>
      </trkpt>
      <trkpt lat="49.11576" lon="-0.39038">
        <ele>4.6</ele>
        <time>2023-05-02T13:50:10Z</time>
      </trkpt>
      <trkpt lat="49.11583" lon="-0.39045">
        <ele>4.6</ele>
        <time>2023-05-02T13:50:11Z</time>
      </trkpt>
      <trkpt lat="49.11589" lon="-0.39051">
        <ele>4.6</ele>
        <time>2023-05-02T13:50:12Z</time>
      </trkpt>
      <trkpt lat="49.11595" lon="-0.39058">
        <ele>5</ele>
        <time>2023-05-02T13:50:13Z</time>
      </trkpt>
      <trkpt lat="49.116" lon="-0.39065">
        <ele>5.2</ele>
        <time>2023-05-02T13:50:14Z</time>
      </trkpt>
      <trkpt lat="49.11606" lon="-0.39071">
        <ele>5.4</ele>
        <time>2023-05-02T13:50:15Z</time>
      </trkpt>
      <trkpt lat="49.11611" lon="-0.39078">
        <ele>5.6</ele>
        <time>2023-05-02T13:50:16Z</time>
      </trkpt>
      <trkpt lat="49.11617" lon="-0.39084">
        <ele>5.8</ele>
        <time>2023-05-02T13:50:17Z</time>
      </trkpt>
      <trkpt lat="49.11622" lon="-0.39091">
        <ele>6</ele>
        <time>2023-05-02T13:50:18Z</time>
      </trkpt>
      <trkpt lat="49.11628" lon="-0.39097">
        <ele>6</ele>
        <time>2023-05-02T13:50:19Z</time>
      </trkpt>
      <trkpt lat="49.11634" lon="-0.39103">
        <ele>6.4</ele>
        <time>2023-05-02T13:50:20Z</time>
      </trkpt>
      <trkpt lat="49.1164" lon="-0.3911">
        <ele>6.6</ele>
        <time>2023-05-02T13:50:21Z</time>
      </trkpt>
      <trkpt lat="49.11646" lon="-0.39116">
        <ele>6.6</ele>
        <time>2023-05-02T13:50:22Z</time>
      </trkpt>
      <trkpt lat="49.11652" lon="-0.39122">
        <ele>6.6</ele>
        <time>2023-05-02T13:50:23Z</time>
      </trkpt>
      <trkpt lat="49.11658" lon="-0.39128">
        <ele>7</ele>
        <time>2023-05-02T13:50:24Z</time>
      </trkpt>
      <trkpt lat="49.11664" lon="-0.39134">
        <ele>7</ele>
        <time>2023-05-02T13:50:25Z</time>
      </trkpt>
      <trkpt lat="49.1167" lon="-0.3914">
        <ele>7</ele>
        <time>2023-05-02T13:50:26Z</time>
      </trkpt>
      <trkpt lat="49.11675" lon="-0.39145">
        <ele>7</ele>
        <time>2023-05-02T13:50:27Z</time>
      </trkpt>
      <trkpt lat="49.11681" lon="-0.39151">
        <ele>7</ele>
        <time>2023-05-02T13:50:28Z</time>
      </trkpt>
      <trkpt lat="49.11686" lon="-0.39157">
        <ele>7.2</ele>
        <time>2023-05-02T13:50:29Z</time>
      </trkpt>
      <trkpt lat="49.11692" lon="-0.39162">
        <ele>7.4</ele>
        <time>2023-05-02T13:50:30Z</time>
      </trkpt>
      <trkpt lat="49.11697" lon="-0.39168">
        <ele>7.4</ele>
        <time>2023-05-02T13:50:31Z</time>
      </trkpt>
      <trkpt lat="49.11703" lon="-0.39173">
        <ele>7.6</ele>
        <time>2023-05-02T13:50:32Z</time>
      </trkpt>
      <trkpt lat="49.11708" lon="-0.39178">
        <ele>8.2</ele>
        <time>2023-05-02T13:50:33Z</time>
      </trkpt>
      <trkpt lat="49.11714" lon="-0.39183">
        <ele>8.4</ele>
        <time>2023-05-02T13:50:34Z</time>
      </trkpt>
      <trkpt lat="49.11719" lon="-0.39187">
        <ele>8.6</ele>
        <time>2023-05-02T13:50:35Z</time>
      </trkpt>
      <trkpt lat="49.11724" lon="-0.39191">
        <ele>9</ele>
        <time>2023-05-02T13:50:36Z</time>
      </trkpt>
      <trkpt lat="49.11728" lon="-0.39195">
        <ele>9.2</ele>
        <time>2023-05-02T13:50:37Z</time>
      </trkpt>
      <trkpt lat="49.11733" lon="-0.39198">
        <ele>9.6</ele>
        <time>2023-05-02T13:50:38Z</time>
      </trkpt>
      <trkpt lat="49.11737" lon="-0.39202">
        <ele>9.8</ele>
        <time>2023-05-02T13:50:39Z</time>
      </trkpt>
      <trkpt lat="49.11741" lon="-0.39207">
        <ele>10.2</ele>
        <time>2023-05-02T13:50:40Z</time>
      </trkpt>
      <trkpt lat="49.11745" lon="-0.39212">
        <ele>10.6</ele>
        <time>2023-05-02T13:50:41Z</time>
      </trkpt>
      <trkpt lat="49.11748" lon="-0.39218">
        <ele>11</ele>
        <time>2023-05-02T13:50:42Z</time>
      </trkpt>
      <trkpt lat="49.11752" lon="-0.39223">
        <ele>11.4</ele>
        <time>2023-05-02T13:50:43Z</time>
      </trkpt>
      <trkpt lat="49.11757" lon="-0.39228">
        <ele>11.6</ele>
        <time>2023-05-02T13:50:44Z</time>
      </trkpt>
      <trkpt lat="49.11761" lon="-0.39234">
        <ele>11.8</ele>
        <time>2023-05-02T13:50:45Z</time>
      </trkpt>
      <trkpt lat="49.11765" lon="-0.39239">
        <ele>12.2</ele>
        <time>2023-05-02T13:50:46Z</time>
      </trkpt>
      <trkpt lat="49.11769" lon="-0.39245">
        <ele>12.6</ele>
        <time>2023-05-02T13:50:47Z</time>
      </trkpt>
      <trkpt lat="49.11773" lon="-0.3925">
        <ele>12.8</ele>
        <time>2023-05-02T13:50:48Z</time>
      </trkpt>
      <trkpt lat="49.11777" lon="-0.39257">
        <ele>13.2</ele>
        <time>2023-05-02T13:50:49Z</time>
      </trkpt>
      <trkpt lat="49.11782" lon="-0.39263">
        <ele>13.6</ele>
        <time>2023-05-02T13:50:50Z</time>
      </trkpt>
      <trkpt lat="49.11786" lon="-0.39269">
        <ele>13.8</ele>
        <time>2023-05-02T13:50:51Z</time>
      </trkpt>
      <trkpt lat="49.1179" lon="-0.39274">
        <ele>14.2</ele>
        <time>2023-05-02T13:50:52Z</time>
      </trkpt>
      <trkpt lat="49.11795" lon="-0.3928">
        <ele>14.6</ele>
        <time>2023-05-02T13:50:53Z</time>
      </trkpt>
      <trkpt lat="49.11799" lon="-0.39286">
        <ele>14.6</ele>
        <time>2023-05-02T13:50:54Z</time>
      </trkpt>
      <trkpt lat="49.11804" lon="-0.39292">
        <ele>15</ele>
        <time>2023-05-02T13:50:55Z</time>
      </trkpt>
      <trkpt lat="49.11808" lon="-0.39297">
        <ele>15.4</ele>
        <time>2023-05-02T13:50:56Z</time>
      </trkpt>
      <trkpt lat="49.11813" lon="-0.39302">
        <ele>15.6</ele>
        <time>2023-05-02T13:50:57Z</time>
      </trkpt>
      <trkpt lat="49.11817" lon="-0.39308">
        <ele>15.8</ele>
        <time>2023-05-02T13:50:58Z</time>
      </trkpt>
      <trkpt lat="49.11822" lon="-0.39313">
        <ele>16.2</ele>
        <time>2023-05-02T13:50:59Z</time>
      </trkpt>
      <trkpt lat="49.11826" lon="-0.39319">
        <ele>16.2</ele>
        <time>2023-05-02T13:51:00Z</time>
      </trkpt>
      <trkpt lat="49.11831" lon="-0.39326">
        <ele>16.6</ele>
        <time>2023-05-02T13:51:01Z</time>
      </trkpt>
      <trkpt lat="49.11835" lon="-0.39332">
        <ele>16.8</ele>
        <time>2023-05-02T13:51:02Z</time>
      </trkpt>
      <trkpt lat="49.11839" lon="-0.39338">
        <ele>16.8</ele>
        <time>2023-05-02T13:51:03Z</time>
      </trkpt>
      <trkpt lat="49.11843" lon="-0.39344">
        <ele>16.8</ele>
        <time>2023-05-02T13:51:04Z</time>
      </trkpt>
      <trkpt lat="49.11847" lon="-0.3935">
        <ele>16.8</ele>
        <time>2023-05-02T13:51:05Z</time>
      </trkpt>
      <trkpt lat="49.11851" lon="-0.39356">
        <ele>16.8</ele>
        <time>2023-05-02T13:51:06Z</time>
      </trkpt>
      <trkpt lat="49.11855" lon="-0.39361">
        <ele>16.8</ele>
        <time>2023-05-02T13:51:07Z</time>
      </trkpt>
      <trkpt lat="49.11859" lon="-0.39367">
        <ele>16.8</ele>
        <time>2023-05-02T13:51:08Z</time>
      </trkpt>
      <trkpt lat="49.11864" lon="-0.39372">
        <ele>16.8</ele>
        <time>2023-05-02T13:51:09Z</time>
      </trkpt>
      <trkpt lat="49.11868" lon="-0.39378">
        <ele>16.8</ele>
        <time>2023-05-02T13:51:10Z</time>
      </trkpt>
      <trkpt lat="49.11872" lon="-0.39383">
        <ele>17</ele>
        <time>2023-05-02T13:51:11Z</time>
      </trkpt>
      <trkpt lat="49.11875" lon="-0.39389">
        <ele>17.2</ele>
        <time>2023-05-02T13:51:12Z</time>
      </trkpt>
      <trkpt lat="49.1188" lon="-0.39395">
        <ele>17.2</ele>
        <time>2023-05-02T13:51:13Z</time>
      </trkpt>
      <trkpt lat="49.11884" lon="-0.39401">
        <ele>17.6</ele>
        <time>2023-05-02T13:51:14Z</time>
      </trkpt>
      <trkpt lat="49.11888" lon="-0.39407">
        <ele>17.8</ele>
        <time>2023-05-02T13:51:15Z</time>
      </trkpt>
      <trkpt lat="49.11892" lon="-0.39412">
        <ele>17.8</ele>
        <time>2023-05-02T13:51:16Z</time>
      </trkpt>
      <trkpt lat="49.11895" lon="-0.39418">
        <ele>18.2</ele>
        <time>2023-05-02T13:51:17Z</time>
      </trkpt>
      <trkpt lat="49.11899" lon="-0.39423">
        <ele>18</ele>
        <time>2023-05-02T13:51:18Z</time>
      </trkpt>
      <trkpt lat="49.11903" lon="-0.39428">
        <ele>18</ele>
        <time>2023-05-02T13:51:19Z</time>
      </trkpt>
      <trkpt lat="49.11907" lon="-0.39434">
        <ele>18</ele>
        <time>2023-05-02T13:51:20Z</time>
      </trkpt>
      <trkpt lat="49.11911" lon="-0.39439">
        <ele>18.2</ele>
        <time>2023-05-02T13:51:21Z</time>
      </trkpt>
      <trkpt lat="49.11914" lon="-0.39445">
        <ele>18.2</ele>
        <time>2023-05-02T13:51:22Z</time>
      </trkpt>
      <trkpt lat="49.11918" lon="-0.39451">
        <ele>18.2</ele>
        <time>2023-05-02T13:51:23Z</time>
      </trkpt>
      <trkpt lat="49.11921" lon="-0.39458">
        <ele>18.2</ele>
        <time>2023-05-02T13:51:24Z</time>
      </trkpt>
      <trkpt lat="49.11925" lon="-0.39464">
        <ele>18.4</ele>
        <time>2023-05-02T13:51:25Z</time>
      </trkpt>
      <trkpt lat="49.11929" lon="-0.39471">
        <ele>18.6</ele>
        <time>2023-05-02T13:51:26Z</time>
      </trkpt>
      <trkpt lat="49.11933" lon="-0.39478">
        <ele>18.6</ele>
        <time>2023-05-02T13:51:27Z</time>
      </trkpt>
      <trkpt lat="49.11937" lon="-0.39485">
        <ele>18.8</ele>
        <time>2023-05-02T13:51:28Z</time>
      </trkpt>
      <trkpt lat="49.11941" lon="-0.39492">
        <ele>18.8</ele>
        <time>2023-05-02T13:51:29Z</time>
      </trkpt>
      <trkpt lat="49.11946" lon="-0.395">
        <ele>18.8</ele>
        <time>2023-05-02T13:51:30Z</time>
      </trkpt>
      <trkpt lat="49.1195" lon="-0.39507">
        <ele>18.8</ele>
        <time>2023-05-02T13:51:31Z</time>
      </trkpt>
      <trkpt lat="49.11955" lon="-0.39515">
        <ele>18.6</ele>
        <time>2023-05-02T13:51:32Z</time>
      </trkpt>
      <trkpt lat="49.1196" lon="-0.39522">
        <ele>18.4</ele>
        <time>2023-05-02T13:51:33Z</time>
      </trkpt>
      <trkpt lat="49.11965" lon="-0.39529">
        <ele>18.2</ele>
        <time>2023-05-02T13:51:34Z</time>
      </trkpt>
      <trkpt lat="49.1197" lon="-0.39535">
        <ele>18.2</ele>
        <time>2023-05-02T13:51:35Z</time>
      </trkpt>
      <trkpt lat="49.11974" lon="-0.39541">
        <ele>17.8</ele>
        <time>2023-05-02T13:51:36Z</time>
      </trkpt>
      <trkpt lat="49.11978" lon="-0.39547">
        <ele>17.8</ele>
        <time>2023-05-02T13:51:37Z</time>
      </trkpt>
      <trkpt lat="49.11983" lon="-0.39553">
        <ele>17.6</ele>
        <time>2023-05-02T13:51:38Z</time>
      </trkpt>
      <trkpt lat="49.11987" lon="-0.3956">
        <ele>17.6</ele>
        <time>2023-05-02T13:51:39Z</time>
      </trkpt>
      <trkpt lat="49.11992" lon="-0.39568">
        <ele>17.2</ele>
        <time>2023-05-02T13:51:40Z</time>
      </trkpt>
      <trkpt lat="49.11997" lon="-0.39575">
        <ele>17.2</ele>
        <time>2023-05-02T13:51:41Z</time>
      </trkpt>
      <trkpt lat="49.12002" lon="-0.39583">
        <ele>16.8</ele>
        <time>2023-05-02T13:51:42Z</time>
      </trkpt>
      <trkpt lat="49.12007" lon="-0.3959">
        <ele>17.2</ele>
        <time>2023-05-02T13:51:43Z</time>
      </trkpt>
      <trkpt lat="49.12013" lon="-0.39597">
        <ele>17.2</ele>
        <time>2023-05-02T13:51:44Z</time>
      </trkpt>
      <trkpt lat="49.12017" lon="-0.39604">
        <ele>17.2</ele>
        <time>2023-05-02T13:51:45Z</time>
      </trkpt>
      <trkpt lat="49.12022" lon="-0.39611">
        <ele>17.2</ele>
        <time>2023-05-02T13:51:46Z</time>
      </trkpt>
      <trkpt lat="49.12026" lon="-0.39618">
        <ele>17.4</ele>
        <time>2023-05-02T13:51:47Z</time>
      </trkpt>
      <trkpt lat="49.12031" lon="-0.39625">
        <ele>17.4</ele>
        <time>2023-05-02T13:51:48Z</time>
      </trkpt>
      <trkpt lat="49.12035" lon="-0.39633">
        <ele>17.4</ele>
        <time>2023-05-02T13:51:49Z</time>
      </trkpt>
      <trkpt lat="49.12039" lon="-0.3964">
        <ele>17.6</ele>
        <time>2023-05-02T13:51:50Z</time>
      </trkpt>
      <trkpt lat="49.12044" lon="-0.39648">
        <ele>17.4</ele>
        <time>2023-05-02T13:51:51Z</time>
      </trkpt>
      <trkpt lat="49.12048" lon="-0.39655">
        <ele>17.4</ele>
        <time>2023-05-02T13:51:52Z</time>
      </trkpt>
      <trkpt lat="49.12053" lon="-0.39662">
        <ele>17.4</ele>
        <time>2023-05-02T13:51:53Z</time>
      </trkpt>
      <trkpt lat="49.12058" lon="-0.3967">
        <ele>17.4</ele>
        <time>2023-05-02T13:51:54Z</time>
      </trkpt>
      <trkpt lat="49.12063" lon="-0.39677">
        <ele>17.4</ele>
        <time>2023-05-02T13:51:55Z</time>
      </trkpt>
      <trkpt lat="49.12068" lon="-0.39684">
        <ele>17.6</ele>
        <time>2023-05-02T13:51:56Z</time>
      </trkpt>
      <trkpt lat="49.12073" lon="-0.39692">
        <ele>17.6</ele>
        <time>2023-05-02T13:51:57Z</time>
      </trkpt>
      <trkpt lat="49.12078" lon="-0.39699">
        <ele>17.8</ele>
        <time>2023-05-02T13:51:58Z</time>
      </trkpt>
      <trkpt lat="49.12083" lon="-0.39706">
        <ele>17.8</ele>
        <time>2023-05-02T13:51:59Z</time>
      </trkpt>
      <trkpt lat="49.12088" lon="-0.39713">
        <ele>18</ele>
        <time>2023-05-02T13:52:00Z</time>
      </trkpt>
      <trkpt lat="49.12094" lon="-0.39721">
        <ele>18.2</ele>
        <time>2023-05-02T13:52:01Z</time>
      </trkpt>
      <trkpt lat="49.12099" lon="-0.39728">
        <ele>18.2</ele>
        <time>2023-05-02T13:52:02Z</time>
      </trkpt>
      <trkpt lat="49.12105" lon="-0.39735">
        <ele>18.2</ele>
        <time>2023-05-02T13:52:03Z</time>
      </trkpt>
      <trkpt lat="49.12111" lon="-0.39742">
        <ele>18</ele>
        <time>2023-05-02T13:52:04Z</time>
      </trkpt>
      <trkpt lat="49.12116" lon="-0.39749">
        <ele>18</ele>
        <time>2023-05-02T13:52:05Z</time>
      </trkpt>
      <trkpt lat="49.12122" lon="-0.39756">
        <ele>17.8</ele>
        <time>2023-05-02T13:52:06Z</time>
      </trkpt>
      <trkpt lat="49.12128" lon="-0.39763">
        <ele>17.8</ele>
        <time>2023-05-02T13:52:07Z</time>
      </trkpt>
      <trkpt lat="49.12133" lon="-0.3977">
        <ele>17.8</ele>
        <time>2023-05-02T13:52:08Z</time>
      </trkpt>
      <trkpt lat="49.12139" lon="-0.39776">
        <ele>17.8</ele>
        <time>2023-05-02T13:52:09Z</time>
      </trkpt>
      <trkpt lat="49.12145" lon="-0.39783">
        <ele>17.8</ele>
        <time>2023-05-02T13:52:10Z</time>
      </trkpt>
      <trkpt lat="49.12151" lon="-0.3979">
        <ele>17.8</ele>
        <time>2023-05-02T13:52:11Z</time>
      </trkpt>
      <trkpt lat="49.12156" lon="-0.39796">
        <ele>17.8</ele>
        <time>2023-05-02T13:52:12Z</time>
      </trkpt>
      <trkpt lat="49.12162" lon="-0.39803">
        <ele>17.8</ele>
        <time>2023-05-02T13:52:13Z</time>
      </trkpt>
      <trkpt lat="49.12168" lon="-0.3981">
        <ele>17.8</ele>
        <time>2023-05-02T13:52:14Z</time>
      </trkpt>
      <trkpt lat="49.12173" lon="-0.39816">
        <ele>17.8</ele>
        <time>2023-05-02T13:52:15Z</time>
      </trkpt>
      <trkpt lat="49.12179" lon="-0.39822">
        <ele>17.8</ele>
        <time>2023-05-02T13:52:16Z</time>
      </trkpt>
      <trkpt lat="49.12185" lon="-0.39829">
        <ele>17.8</ele>
        <time>2023-05-02T13:52:17Z</time>
      </trkpt>
      <trkpt lat="49.1219" lon="-0.39835">
        <ele>17.6</ele>
        <time>2023-05-02T13:52:18Z</time>
      </trkpt>
      <trkpt lat="49.12196" lon="-0.39842">
        <ele>17.4</ele>
        <time>2023-05-02T13:52:19Z</time>
      </trkpt>
      <trkpt lat="49.12201" lon="-0.39848">
        <ele>17.2</ele>
        <time>2023-05-02T13:52:20Z</time>
      </trkpt>
      <trkpt lat="49.12207" lon="-0.39855">
        <ele>17.2</ele>
        <time>2023-05-02T13:52:21Z</time>
      </trkpt>
      <trkpt lat="49.12212" lon="-0.39861">
        <ele>17</ele>
        <time>2023-05-02T13:52:22Z</time>
      </trkpt>
      <trkpt lat="49.12218" lon="-0.39867">
        <ele>16.8</ele>
        <time>2023-05-02T13:52:23Z</time>
      </trkpt>
      <trkpt lat="49.12223" lon="-0.39873">
        <ele>16.8</ele>
        <time>2023-05-02T13:52:24Z</time>
      </trkpt>
      <trkpt lat="49.12229" lon="-0.39879">
        <ele>16.8</ele>
        <time>2023-05-02T13:52:25Z</time>
      </trkpt>
      <trkpt lat="49.12234" lon="-0.39885">
        <ele>16.6</ele>
        <time>2023-05-02T13:52:26Z</time>
      </trkpt>
      <trkpt lat="49.1224" lon="-0.39891">
        <ele>16.6</ele>
        <time>2023-05-02T13:52:27Z</time>
      </trkpt>
      <trkpt lat="49.12246" lon="-0.39897">
        <ele>16.6</ele>
        <time>2023-05-02T13:52:28Z</time>
      </trkpt>
      <trkpt lat="49.12252" lon="-0.39903">
        <ele>16.4</ele>
        <time>2023-05-02T13:52:29Z</time>
      </trkpt>
      <trkpt lat="49.12258" lon="-0.39908">
        <ele>16.2</ele>
        <time>2023-05-02T13:52:30Z</time>
      </trkpt>
      <trkpt lat="49.12264" lon="-0.39914">
        <ele>15.8</ele>
        <time>2023-05-02T13:52:31Z</time>
      </trkpt>
      <trkpt lat="49.1227" lon="-0.3992">
        <ele>15.6</ele>
        <time>2023-05-02T13:52:32Z</time>
      </trkpt>
      <trkpt lat="49.12276" lon="-0.39925">
        <ele>15.6</ele>
        <time>2023-05-02T13:52:33Z</time>
      </trkpt>
      <trkpt lat="49.12282" lon="-0.39931">
        <ele>15.4</ele>
        <time>2023-05-02T13:52:34Z</time>
      </trkpt>
      <trkpt lat="49.12288" lon="-0.39937">
        <ele>15.2</ele>
        <time>2023-05-02T13:52:35Z</time>
      </trkpt>
      <trkpt lat="49.12294" lon="-0.39943">
        <ele>15</ele>
        <time>2023-05-02T13:52:36Z</time>
      </trkpt>
      <trkpt lat="49.123" lon="-0.3995">
        <ele>14.8</ele>
        <time>2023-05-02T13:52:37Z</time>
      </trkpt>
      <trkpt lat="49.12306" lon="-0.39956">
        <ele>14.6</ele>
        <time>2023-05-02T13:52:38Z</time>
      </trkpt>
      <trkpt lat="49.12312" lon="-0.39962">
        <ele>14.6</ele>
        <time>2023-05-02T13:52:39Z</time>
      </trkpt>
      <trkpt lat="49.12318" lon="-0.39968">
        <ele>14.4</ele>
        <time>2023-05-02T13:52:40Z</time>
      </trkpt>
      <trkpt lat="49.12324" lon="-0.39974">
        <ele>14.4</ele>
        <time>2023-05-02T13:52:41Z</time>
      </trkpt>
      <trkpt lat="49.1233" lon="-0.39979">
        <ele>14.2</ele>
        <time>2023-05-02T13:52:42Z</time>
      </trkpt>
      <trkpt lat="49.12337" lon="-0.39985">
        <ele>14</ele>
        <time>2023-05-02T13:52:43Z</time>
      </trkpt>
      <trkpt lat="49.12344" lon="-0.39991">
        <ele>13.6</ele>
        <time>2023-05-02T13:52:44Z</time>
      </trkpt>
      <trkpt lat="49.1235" lon="-0.39996">
        <ele>13.4</ele>
        <time>2023-05-02T13:52:45Z</time>
      </trkpt>
      <trkpt lat="49.12357" lon="-0.40001">
        <ele>13.2</ele>
        <time>2023-05-02T13:52:46Z</time>
      </trkpt>
      <trkpt lat="49.12364" lon="-0.40006">
        <ele>12.8</ele>
        <time>2023-05-02T13:52:47Z</time>
      </trkpt>
      <trkpt lat="49.12372" lon="-0.40012">
        <ele>12.6</ele>
        <time>2023-05-02T13:52:48Z</time>
      </trkpt>
      <trkpt lat="49.12379" lon="-0.40017">
        <ele>12.4</ele>
        <time>2023-05-02T13:52:49Z</time>
      </trkpt>
      <trkpt lat="49.12386" lon="-0.40022">
        <ele>11.8</ele>
        <time>2023-05-02T13:52:50Z</time>
      </trkpt>
      <trkpt lat="49.12394" lon="-0.40027">
        <ele>11.6</ele>
        <time>2023-05-02T13:52:51Z</time>
      </trkpt>
      <trkpt lat="49.12401" lon="-0.40032">
        <ele>11.4</ele>
        <time>2023-05-02T13:52:52Z</time>
      </trkpt>
      <trkpt lat="49.12408" lon="-0.40037">
        <ele>11</ele>
        <time>2023-05-02T13:52:53Z</time>
      </trkpt>
      <trkpt lat="49.12415" lon="-0.40042">
        <ele>10.6</ele>
        <time>2023-05-02T13:52:54Z</time>
      </trkpt>
      <trkpt lat="49.12421" lon="-0.40047">
        <ele>10.6</ele>
        <time>2023-05-02T13:52:55Z</time>
      </trkpt>
      <trkpt lat="49.12428" lon="-0.40052">
        <ele>10.6</ele>
        <time>2023-05-02T13:52:56Z</time>
      </trkpt>
      <trkpt lat="49.12435" lon="-0.40058">
        <ele>10.6</ele>
        <time>2023-05-02T13:52:57Z</time>
      </trkpt>
      <trkpt lat="49.12442" lon="-0.40063">
        <ele>10.6</ele>
        <time>2023-05-02T13:52:58Z</time>
      </trkpt>
      <trkpt lat="49.12449" lon="-0.40068">
        <ele>10.4</ele>
        <time>2023-05-02T13:52:59Z</time>
      </trkpt>
      <trkpt lat="49.12455" lon="-0.40073">
        <ele>10.4</ele>
        <time>2023-05-02T13:53:00Z</time>
      </trkpt>
      <trkpt lat="49.12462" lon="-0.40078">
        <ele>10.2</ele>
        <time>2023-05-02T13:53:01Z</time>
      </trkpt>
      <trkpt lat="49.12469" lon="-0.40082">
        <ele>9.8</ele>
        <time>2023-05-02T13:53:02Z</time>
      </trkpt>
      <trkpt lat="49.12476" lon="-0.40087">
        <ele>9.6</ele>
        <time>2023-05-02T13:53:03Z</time>
      </trkpt>
      <trkpt lat="49.12483" lon="-0.40092">
        <ele>9.4</ele>
        <time>2023-05-02T13:53:04Z</time>
      </trkpt>
      <trkpt lat="49.1249" lon="-0.40097">
        <ele>9.2</ele>
        <time>2023-05-02T13:53:05Z</time>
      </trkpt>
      <trkpt lat="49.12498" lon="-0.40102">
        <ele>8.8</ele>
        <time>2023-05-02T13:53:06Z</time>
      </trkpt>
      <trkpt lat="49.12505" lon="-0.40106">
        <ele>8.8</ele>
        <time>2023-05-02T13:53:07Z</time>
      </trkpt>
      <trkpt lat="49.12512" lon="-0.40111">
        <ele>9</ele>
        <time>2023-05-02T13:53:08Z</time>
      </trkpt>
      <trkpt lat="49.12519" lon="-0.40116">
        <ele>9</ele>
        <time>2023-05-02T13:53:09Z</time>
      </trkpt>
      <trkpt lat="49.12526" lon="-0.40121">
        <ele>9.2</ele>
        <time>2023-05-02T13:53:10Z</time>
      </trkpt>
      <trkpt lat="49.12533" lon="-0.40126">
        <ele>9.2</ele>
        <time>2023-05-02T13:53:11Z</time>
      </trkpt>
      <trkpt lat="49.1254" lon="-0.40131">
        <ele>9.2</ele>
        <time>2023-05-02T13:53:12Z</time>
      </trkpt>
      <trkpt lat="49.12547" lon="-0.40136">
        <ele>9</ele>
        <time>2023-05-02T13:53:13Z</time>
      </trkpt>
      <trkpt lat="49.12554" lon="-0.4014">
        <ele>8.8</ele>
        <time>2023-05-02T13:53:14Z</time>
      </trkpt>
      <trkpt lat="49.12561" lon="-0.40145">
        <ele>8.8</ele>
        <time>2023-05-02T13:53:15Z</time>
      </trkpt>
      <trkpt lat="49.12568" lon="-0.4015">
        <ele>8.6</ele>
        <time>2023-05-02T13:53:16Z</time>
      </trkpt>
      <trkpt lat="49.12574" lon="-0.40155">
        <ele>8.4</ele>
        <time>2023-05-02T13:53:17Z</time>
      </trkpt>
      <trkpt lat="49.12581" lon="-0.4016">
        <ele>8.2</ele>
        <time>2023-05-02T13:53:18Z</time>
      </trkpt>
      <trkpt lat="49.12587" lon="-0.40164">
        <ele>8.2</ele>
        <time>2023-05-02T13:53:19Z</time>
      </trkpt>
      <trkpt lat="49.12593" lon="-0.40169">
        <ele>8.4</ele>
        <time>2023-05-02T13:53:20Z</time>
      </trkpt>
      <trkpt lat="49.126" lon="-0.40173">
        <ele>8.6</ele>
        <time>2023-05-02T13:53:21Z</time>
      </trkpt>
      <trkpt lat="49.12606" lon="-0.40177">
        <ele>8.8</ele>
        <time>2023-05-02T13:53:22Z</time>
      </trkpt>
      <trkpt lat="49.12613" lon="-0.40181">
        <ele>9.2</ele>
        <time>2023-05-02T13:53:23Z</time>
      </trkpt>
      <trkpt lat="49.1262" lon="-0.40185">
        <ele>9.4</ele>
        <time>2023-05-02T13:53:24Z</time>
      </trkpt>
      <trkpt lat="49.12627" lon="-0.40189">
        <ele>9.6</ele>
        <time>2023-05-02T13:53:25Z</time>
      </trkpt>
      <trkpt lat="49.12635" lon="-0.40193">
        <ele>9.8</ele>
        <time>2023-05-02T13:53:26Z</time>
      </trkpt>
      <trkpt lat="49.12643" lon="-0.40196">
        <ele>10</ele>
        <time>2023-05-02T13:53:27Z</time>
      </trkpt>
      <trkpt lat="49.1265" lon="-0.40199">
        <ele>10.2</ele>
        <time>2023-05-02T13:53:28Z</time>
      </trkpt>
      <trkpt lat="49.12658" lon="-0.40203">
        <ele>10.4</ele>
        <time>2023-05-02T13:53:29Z</time>
      </trkpt>
      <trkpt lat="49.12665" lon="-0.40206">
        <ele>10.6</ele>
        <time>2023-05-02T13:53:30Z</time>
      </trkpt>
      <trkpt lat="49.12672" lon="-0.4021">
        <ele>10.4</ele>
        <time>2023-05-02T13:53:31Z</time>
      </trkpt>
      <trkpt lat="49.1268" lon="-0.40214">
        <ele>10.4</ele>
        <time>2023-05-02T13:53:32Z</time>
      </trkpt>
      <trkpt lat="49.12687" lon="-0.40218">
        <ele>10.2</ele>
        <time>2023-05-02T13:53:33Z</time>
      </trkpt>
      <trkpt lat="49.12694" lon="-0.40221">
        <ele>10</ele>
        <time>2023-05-02T13:53:34Z</time>
      </trkpt>
      <trkpt lat="49.12702" lon="-0.40223">
        <ele>10</ele>
        <time>2023-05-02T13:53:35Z</time>
      </trkpt>
      <trkpt lat="49.12709" lon="-0.40223">
        <ele>10</ele>
        <time>2023-05-02T13:53:36Z</time>
      </trkpt>
      <trkpt lat="49.12717" lon="-0.40221">
        <ele>10</ele>
        <time>2023-05-02T13:53:37Z</time>
      </trkpt>
      <trkpt lat="49.12725" lon="-0.4022">
        <ele>10.2</ele>
        <time>2023-05-02T13:53:38Z</time>
      </trkpt>
      <trkpt lat="49.12733" lon="-0.40221">
        <ele>10</ele>
        <time>2023-05-02T13:53:39Z</time>
      </trkpt>
      <trkpt lat="49.1274" lon="-0.40223">
        <ele>10</ele>
        <time>2023-05-02T13:53:40Z</time>
      </trkpt>
      <trkpt lat="49.12748" lon="-0.40225">
        <ele>9.8</ele>
        <time>2023-05-02T13:53:41Z</time>
      </trkpt>
      <trkpt lat="49.12756" lon="-0.40227">
        <ele>9.6</ele>
        <time>2023-05-02T13:53:42Z</time>
      </trkpt>
      <trkpt lat="49.12764" lon="-0.40229">
        <ele>9.6</ele>
        <time>2023-05-02T13:53:43Z</time>
      </trkpt>
      <trkpt lat="49.12772" lon="-0.4023">
        <ele>9.4</ele>
        <time>2023-05-02T13:53:44Z</time>
      </trkpt>
      <trkpt lat="49.1278" lon="-0.40232">
        <ele>9.2</ele>
        <time>2023-05-02T13:53:45Z</time>
      </trkpt>
      <trkpt lat="49.12788" lon="-0.40233">
        <ele>8.8</ele>
        <time>2023-05-02T13:53:46Z</time>
      </trkpt>
      <trkpt lat="49.12796" lon="-0.40235">
        <ele>8.6</ele>
        <time>2023-05-02T13:53:47Z</time>
      </trkpt>
      <trkpt lat="49.12804" lon="-0.40236">
        <ele>8.4</ele>
        <time>2023-05-02T13:53:48Z</time>
      </trkpt>
      <trkpt lat="49.12812" lon="-0.40237">
        <ele>8.2</ele>
        <time>2023-05-02T13:53:49Z</time>
      </trkpt>
      <trkpt lat="49.1282" lon="-0.40238">
        <ele>8</ele>
        <time>2023-05-02T13:53:50Z</time>
      </trkpt>
      <trkpt lat="49.12827" lon="-0.40239">
        <ele>7.8</ele>
        <time>2023-05-02T13:53:51Z</time>
      </trkpt>
      <trkpt lat="49.12834" lon="-0.4024">
        <ele>7.6</ele>
        <time>2023-05-02T13:53:52Z</time>
      </trkpt>
      <trkpt lat="49.12841" lon="-0.40241">
        <ele>7.6</ele>
        <time>2023-05-02T13:53:53Z</time>
      </trkpt>
      <trkpt lat="49.12849" lon="-0.40242">
        <ele>7.6</ele>
        <time>2023-05-02T13:53:54Z</time>
      </trkpt>
      <trkpt lat="49.12856" lon="-0.40243">
        <ele>7.4</ele>
        <time>2023-05-02T13:53:55Z</time>
      </trkpt>
      <trkpt lat="49.12864" lon="-0.40243">
        <ele>7.4</ele>
        <time>2023-05-02T13:53:56Z</time>
      </trkpt>
      <trkpt lat="49.12871" lon="-0.40244">
        <ele>7.4</ele>
        <time>2023-05-02T13:53:57Z</time>
      </trkpt>
      <trkpt lat="49.12879" lon="-0.40244">
        <ele>7.4</ele>
        <time>2023-05-02T13:53:58Z</time>
      </trkpt>
      <trkpt lat="49.12886" lon="-0.40244">
        <ele>7.4</ele>
        <time>2023-05-02T13:53:59Z</time>
      </trkpt>
      <trkpt lat="49.12894" lon="-0.40243">
        <ele>7.4</ele>
        <time>2023-05-02T13:54:00Z</time>
      </trkpt>
      <trkpt lat="49.129" lon="-0.40243">
        <ele>7.4</ele>
        <time>2023-05-02T13:54:01Z</time>
      </trkpt>
      <trkpt lat="49.12907" lon="-0.40243">
        <ele>7.4</ele>
        <time>2023-05-02T13:54:02Z</time>
      </trkpt>
      <trkpt lat="49.12914" lon="-0.40242">
        <ele>7.6</ele>
        <time>2023-05-02T13:54:03Z</time>
      </trkpt>
      <trkpt lat="49.12921" lon="-0.40242">
        <ele>7.6</ele>
        <time>2023-05-02T13:54:04Z</time>
      </trkpt>
      <trkpt lat="49.12928" lon="-0.40241">
        <ele>7.8</ele>
        <time>2023-05-02T13:54:05Z</time>
      </trkpt>
      <trkpt lat="49.12935" lon="-0.40241">
        <ele>8</ele>
        <time>2023-05-02T13:54:06Z</time>
      </trkpt>
      <trkpt lat="49.12942" lon="-0.4024">
        <ele>8.2</ele>
        <time>2023-05-02T13:54:07Z</time>
      </trkpt>
      <trkpt lat="49.12948" lon="-0.4024">
        <ele>8.4</ele>
        <time>2023-05-02T13:54:08Z</time>
      </trkpt>
      <trkpt lat="49.12955" lon="-0.40239">
        <ele>8.6</ele>
        <time>2023-05-02T13:54:09Z</time>
      </trkpt>
      <trkpt lat="49.12962" lon="-0.40237">
        <ele>8.6</ele>
        <time>2023-05-02T13:54:10Z</time>
      </trkpt>
      <trkpt lat="49.1297" lon="-0.40236">
        <ele>8.8</ele>
        <time>2023-05-02T13:54:11Z</time>
      </trkpt>
      <trkpt lat="49.12978" lon="-0.40234">
        <ele>9.2</ele>
        <time>2023-05-02T13:54:12Z</time>
      </trkpt>
      <trkpt lat="49.12985" lon="-0.40232">
        <ele>9.4</ele>
        <time>2023-05-02T13:54:13Z</time>
      </trkpt>
      <trkpt lat="49.12993" lon="-0.4023">
        <ele>9.6</ele>
        <time>2023-05-02T13:54:14Z</time>
      </trkpt>
      <trkpt lat="49.13001" lon="-0.40228">
        <ele>9.8</ele>
        <time>2023-05-02T13:54:15Z</time>
      </trkpt>
      <trkpt lat="49.13008" lon="-0.40224">
        <ele>9.6</ele>
        <time>2023-05-02T13:54:16Z</time>
      </trkpt>
      <trkpt lat="49.13015" lon="-0.40221">
        <ele>9.6</ele>
        <time>2023-05-02T13:54:17Z</time>
      </trkpt>
      <trkpt lat="49.13023" lon="-0.40217">
        <ele>9.6</ele>
        <time>2023-05-02T13:54:18Z</time>
      </trkpt>
      <trkpt lat="49.1303" lon="-0.40214">
        <ele>9.6</ele>
        <time>2023-05-02T13:54:19Z</time>
      </trkpt>
      <trkpt lat="49.13037" lon="-0.40212">
        <ele>9.6</ele>
        <time>2023-05-02T13:54:20Z</time>
      </trkpt>
      <trkpt lat="49.13044" lon="-0.40209">
        <ele>9.4</ele>
        <time>2023-05-02T13:54:21Z</time>
      </trkpt>
      <trkpt lat="49.13051" lon="-0.40206">
        <ele>9.4</ele>
        <time>2023-05-02T13:54:22Z</time>
      </trkpt>
      <trkpt lat="49.13058" lon="-0.40204">
        <ele>9.4</ele>
        <time>2023-05-02T13:54:23Z</time>
      </trkpt>
      <trkpt lat="49.13065" lon="-0.40202">
        <ele>9.2</ele>
        <time>2023-05-02T13:54:24Z</time>
      </trkpt>
      <trkpt lat="49.13072" lon="-0.402">
        <ele>9.2</ele>
        <time>2023-05-02T13:54:25Z</time>
      </trkpt>
      <trkpt lat="49.13079" lon="-0.40197">
        <ele>9</ele>
        <time>2023-05-02T13:54:26Z</time>
      </trkpt>
      <trkpt lat="49.13086" lon="-0.40193">
        <ele>9</ele>
        <time>2023-05-02T13:54:27Z</time>
      </trkpt>
      <trkpt lat="49.13093" lon="-0.4019">
        <ele>8.8</ele>
        <time>2023-05-02T13:54:28Z</time>
      </trkpt>
      <trkpt lat="49.13099" lon="-0.40187">
        <ele>8.8</ele>
        <time>2023-05-02T13:54:29Z</time>
      </trkpt>
      <trkpt lat="49.13105" lon="-0.40184">
        <ele>8.6</ele>
        <time>2023-05-02T13:54:30Z</time>
      </trkpt>
      <trkpt lat="49.13112" lon="-0.4018">
        <ele>8.6</ele>
        <time>2023-05-02T13:54:31Z</time>
      </trkpt>
      <trkpt lat="49.13118" lon="-0.40177">
        <ele>8.6</ele>
        <time>2023-05-02T13:54:32Z</time>
      </trkpt>
      <trkpt lat="49.13125" lon="-0.40173">
        <ele>8.4</ele>
        <time>2023-05-02T13:54:33Z</time>
      </trkpt>
      <trkpt lat="49.13132" lon="-0.40169">
        <ele>8.2</ele>
        <time>2023-05-02T13:54:34Z</time>
      </trkpt>
      <trkpt lat="49.13138" lon="-0.40165">
        <ele>8.2</ele>
        <time>2023-05-02T13:54:35Z</time>
      </trkpt>
      <trkpt lat="49.13145" lon="-0.40161">
        <ele>8</ele>
        <time>2023-05-02T13:54:36Z</time>
      </trkpt>
      <trkpt lat="49.13152" lon="-0.40157">
        <ele>8</ele>
        <time>2023-05-02T13:54:37Z</time>
      </trkpt>
      <trkpt lat="49.13158" lon="-0.40152">
        <ele>7.8</ele>
        <time>2023-05-02T13:54:38Z</time>
      </trkpt>
      <trkpt lat="49.13165" lon="-0.40148">
        <ele>7.6</ele>
        <time>2023-05-02T13:54:39Z</time>
      </trkpt>
      <trkpt lat="49.13171" lon="-0.40143">
        <ele>7.8</ele>
        <time>2023-05-02T13:54:40Z</time>
      </trkpt>
      <trkpt lat="49.13177" lon="-0.40138">
        <ele>8</ele>
        <time>2023-05-02T13:54:41Z</time>
      </trkpt>
      <trkpt lat="49.13184" lon="-0.40133">
        <ele>8.2</ele>
        <time>2023-05-02T13:54:42Z</time>
      </trkpt>
      <trkpt lat="49.1319" lon="-0.40128">
        <ele>8.4</ele>
        <time>2023-05-02T13:54:43Z</time>
      </trkpt>
      <trkpt lat="49.13196" lon="-0.40123">
        <ele>8.6</ele>
        <time>2023-05-02T13:54:44Z</time>
      </trkpt>
      <trkpt lat="49.13202" lon="-0.40119">
        <ele>8.6</ele>
        <time>2023-05-02T13:54:45Z</time>
      </trkpt>
      <trkpt lat="49.13208" lon="-0.40114">
        <ele>8.8</ele>
        <time>2023-05-02T13:54:46Z</time>
      </trkpt>
      <trkpt lat="49.13214" lon="-0.40108">
        <ele>9.2</ele>
        <time>2023-05-02T13:54:47Z</time>
      </trkpt>
      <trkpt lat="49.13221" lon="-0.40102">
        <ele>9.4</ele>
        <time>2023-05-02T13:54:48Z</time>
      </trkpt>
      <trkpt lat="49.13227" lon="-0.40096">
        <ele>9.6</ele>
        <time>2023-05-02T13:54:49Z</time>
      </trkpt>
      <trkpt lat="49.13233" lon="-0.4009">
        <ele>9.6</ele>
        <time>2023-05-02T13:54:50Z</time>
      </trkpt>
      <trkpt lat="49.13239" lon="-0.40084">
        <ele>10</ele>
        <time>2023-05-02T13:54:51Z</time>
      </trkpt>
      <trkpt lat="49.13245" lon="-0.40078">
        <ele>10.2</ele>
        <time>2023-05-02T13:54:52Z</time>
      </trkpt>
      <trkpt lat="49.13251" lon="-0.40072">
        <ele>10.4</ele>
        <time>2023-05-02T13:54:53Z</time>
      </trkpt>
      <trkpt lat="49.13257" lon="-0.40066">
        <ele>10.6</ele>
        <time>2023-05-02T13:54:54Z</time>
      </trkpt>
      <trkpt lat="49.13263" lon="-0.40059">
        <ele>10.6</ele>
        <time>2023-05-02T13:54:55Z</time>
      </trkpt>
      <trkpt lat="49.1327" lon="-0.40053">
        <ele>10.6</ele>
        <time>2023-05-02T13:54:56Z</time>
      </trkpt>
      <trkpt lat="49.13276" lon="-0.40047">
        <ele>10.6</ele>
        <time>2023-05-02T13:54:57Z</time>
      </trkpt>
      <trkpt lat="49.13282" lon="-0.4004">
        <ele>10.8</ele>
        <time>2023-05-02T13:54:58Z</time>
      </trkpt>
      <trkpt lat="49.13288" lon="-0.40034">
        <ele>10.8</ele>
        <time>2023-05-02T13:54:59Z</time>
      </trkpt>
      <trkpt lat="49.13294" lon="-0.40028">
        <ele>10.8</ele>
        <time>2023-05-02T13:55:00Z</time>
      </trkpt>
      <trkpt lat="49.133" lon="-0.40022">
        <ele>10.6</ele>
        <time>2023-05-02T13:55:01Z</time>
      </trkpt>
      <trkpt lat="49.13306" lon="-0.40015">
        <ele>10.6</ele>
        <time>2023-05-02T13:55:02Z</time>
      </trkpt>
      <trkpt lat="49.13311" lon="-0.40009">
        <ele>10.6</ele>
        <time>2023-05-02T13:55:03Z</time>
      </trkpt>
      <trkpt lat="49.13317" lon="-0.40004">
        <ele>10.6</ele>
        <time>2023-05-02T13:55:04Z</time>
      </trkpt>
      <trkpt lat="49.13323" lon="-0.39998">
        <ele>10.6</ele>
        <time>2023-05-02T13:55:05Z</time>
      </trkpt>
      <trkpt lat="49.13328" lon="-0.39992">
        <ele>10.6</ele>
        <time>2023-05-02T13:55:06Z</time>
      </trkpt>
      <trkpt lat="49.13334" lon="-0.39986">
        <ele>10.6</ele>
        <time>2023-05-02T13:55:07Z</time>
      </trkpt>
      <trkpt lat="49.1334" lon="-0.3998">
        <ele>10.6</ele>
        <time>2023-05-02T13:55:08Z</time>
      </trkpt>
      <trkpt lat="49.13346" lon="-0.39974">
        <ele>10.6</ele>
        <time>2023-05-02T13:55:09Z</time>
      </trkpt>
      <trkpt lat="49.13352" lon="-0.39968">
        <ele>10.6</ele>
        <time>2023-05-02T13:55:10Z</time>
      </trkpt>
      <trkpt lat="49.13357" lon="-0.39962">
        <ele>10.6</ele>
        <time>2023-05-02T13:55:11Z</time>
      </trkpt>
      <trkpt lat="49.13363" lon="-0.39956">
        <ele>10.6</ele>
        <time>2023-05-02T13:55:12Z</time>
      </trkpt>
      <trkpt lat="49.13369" lon="-0.3995">
        <ele>10.4</ele>
        <time>2023-05-02T13:55:13Z</time>
      </trkpt>
      <trkpt lat="49.13375" lon="-0.39945">
        <ele>10.4</ele>
        <time>2023-05-02T13:55:14Z</time>
      </trkpt>
      <trkpt lat="49.1338" lon="-0.39939">
        <ele>10.4</ele>
        <time>2023-05-02T13:55:15Z</time>
      </trkpt>
      <trkpt lat="49.13385" lon="-0.39934">
        <ele>10.2</ele>
        <time>2023-05-02T13:55:16Z</time>
      </trkpt>
      <trkpt lat="49.1339" lon="-0.39928">
        <ele>10.2</ele>
        <time>2023-05-02T13:55:17Z</time>
      </trkpt>
      <trkpt lat="49.13397" lon="-0.39921">
        <ele>9.8</ele>
        <time>2023-05-02T13:55:18Z</time>
      </trkpt>
      <trkpt lat="49.13403" lon="-0.39915">
        <ele>9.6</ele>
        <time>2023-05-02T13:55:19Z</time>
      </trkpt>
      <trkpt lat="49.13408" lon="-0.39909">
        <ele>9.6</ele>
        <time>2023-05-02T13:55:20Z</time>
      </trkpt>
      <trkpt lat="49.13414" lon="-0.39903">
        <ele>9.8</ele>
        <time>2023-05-02T13:55:21Z</time>
      </trkpt>
      <trkpt lat="49.1342" lon="-0.39897">
        <ele>9.8</ele>
        <time>2023-05-02T13:55:22Z</time>
      </trkpt>
      <trkpt lat="49.13426" lon="-0.39891">
        <ele>10</ele>
        <time>2023-05-02T13:55:23Z</time>
      </trkpt>
      <trkpt lat="49.13431" lon="-0.39885">
        <ele>10.2</ele>
        <time>2023-05-02T13:55:24Z</time>
      </trkpt>
      <trkpt lat="49.13437" lon="-0.39879">
        <ele>10.2</ele>
        <time>2023-05-02T13:55:25Z</time>
      </trkpt>
      <trkpt lat="49.13442" lon="-0.39874">
        <ele>10.2</ele>
        <time>2023-05-02T13:55:26Z</time>
      </trkpt>
      <trkpt lat="49.13446" lon="-0.39868">
        <ele>10.2</ele>
        <time>2023-05-02T13:55:27Z</time>
      </trkpt>
      <trkpt lat="49.13451" lon="-0.39863">
        <ele>10.2</ele>
        <time>2023-05-02T13:55:28Z</time>
      </trkpt>
      <trkpt lat="49.13456" lon="-0.39857">
        <ele>10</ele>
        <time>2023-05-02T13:55:29Z</time>
      </trkpt>
      <trkpt lat="49.13461" lon="-0.39851">
        <ele>9.8</ele>
        <time>2023-05-02T13:55:30Z</time>
      </trkpt>
      <trkpt lat="49.13467" lon="-0.39845">
        <ele>9.6</ele>
        <time>2023-05-02T13:55:31Z</time>
      </trkpt>
      <trkpt lat="49.13473" lon="-0.39839">
        <ele>9.6</ele>
        <time>2023-05-02T13:55:32Z</time>
      </trkpt>
      <trkpt lat="49.13479" lon="-0.39834">
        <ele>9.4</ele>
        <time>2023-05-02T13:55:33Z</time>
      </trkpt>
      <trkpt lat="49.13484" lon="-0.39828">
        <ele>9.2</ele>
        <time>2023-05-02T13:55:34Z</time>
      </trkpt>
      <trkpt lat="49.13489" lon="-0.39823">
        <ele>8.8</ele>
        <time>2023-05-02T13:55:35Z</time>
      </trkpt>
      <trkpt lat="49.13494" lon="-0.39817">
        <ele>8.6</ele>
        <time>2023-05-02T13:55:36Z</time>
      </trkpt>
      <trkpt lat="49.13499" lon="-0.39812">
        <ele>8.6</ele>
        <time>2023-05-02T13:55:37Z</time>
      </trkpt>
      <trkpt lat="49.13504" lon="-0.39806">
        <ele>8.6</ele>
        <time>2023-05-02T13:55:38Z</time>
      </trkpt>
      <trkpt lat="49.1351" lon="-0.398">
        <ele>8.6</ele>
        <time>2023-05-02T13:55:39Z</time>
      </trkpt>
      <trkpt lat="49.13516" lon="-0.39793">
        <ele>8.6</ele>
        <time>2023-05-02T13:55:40Z</time>
      </trkpt>
      <trkpt lat="49.13522" lon="-0.39787">
        <ele>8.4</ele>
        <time>2023-05-02T13:55:41Z</time>
      </trkpt>
      <trkpt lat="49.13529" lon="-0.3978">
        <ele>8.4</ele>
        <time>2023-05-02T13:55:42Z</time>
      </trkpt>
      <trkpt lat="49.13535" lon="-0.39774">
        <ele>8.4</ele>
        <time>2023-05-02T13:55:43Z</time>
      </trkpt>
      <trkpt lat="49.13541" lon="-0.39768">
        <ele>8.2</ele>
        <time>2023-05-02T13:55:44Z</time>
      </trkpt>
      <trkpt lat="49.13546" lon="-0.39762">
        <ele>8.2</ele>
        <time>2023-05-02T13:55:45Z</time>
      </trkpt>
      <trkpt lat="49.13551" lon="-0.39756">
        <ele>8.2</ele>
        <time>2023-05-02T13:55:46Z</time>
      </trkpt>
      <trkpt lat="49.13557" lon="-0.3975">
        <ele>8</ele>
        <time>2023-05-02T13:55:47Z</time>
      </trkpt>
      <trkpt lat="49.13564" lon="-0.39743">
        <ele>7.8</ele>
        <time>2023-05-02T13:55:48Z</time>
      </trkpt>
      <trkpt lat="49.13571" lon="-0.39736">
        <ele>7.6</ele>
        <time>2023-05-02T13:55:49Z</time>
      </trkpt>
      <trkpt lat="49.13578" lon="-0.3973">
        <ele>7.6</ele>
        <time>2023-05-02T13:55:50Z</time>
      </trkpt>
      <trkpt lat="49.13584" lon="-0.39723">
        <ele>7.4</ele>
        <time>2023-05-02T13:55:51Z</time>
      </trkpt>
      <trkpt lat="49.1359" lon="-0.39717">
        <ele>7.4</ele>
        <time>2023-05-02T13:55:52Z</time>
      </trkpt>
      <trkpt lat="49.13596" lon="-0.39711">
        <ele>7.2</ele>
        <time>2023-05-02T13:55:53Z</time>
      </trkpt>
      <trkpt lat="49.13602" lon="-0.39704">
        <ele>7.2</ele>
        <time>2023-05-02T13:55:54Z</time>
      </trkpt>
      <trkpt lat="49.13609" lon="-0.39698">
        <ele>7.2</ele>
        <time>2023-05-02T13:55:55Z</time>
      </trkpt>
      <trkpt lat="49.13615" lon="-0.39692">
        <ele>7.2</ele>
        <time>2023-05-02T13:55:56Z</time>
      </trkpt>
      <trkpt lat="49.13621" lon="-0.39686">
        <ele>7.2</ele>
        <time>2023-05-02T13:55:57Z</time>
      </trkpt>
      <trkpt lat="49.13627" lon="-0.39679">
        <ele>7.2</ele>
        <time>2023-05-02T13:55:58Z</time>
      </trkpt>
      <trkpt lat="49.13634" lon="-0.39673">
        <ele>7.4</ele>
        <time>2023-05-02T13:55:59Z</time>
      </trkpt>
      <trkpt lat="49.1364" lon="-0.39667">
        <ele>7.4</ele>
        <time>2023-05-02T13:56:00Z</time>
      </trkpt>
      <trkpt lat="49.13647" lon="-0.3966">
        <ele>7.4</ele>
        <time>2023-05-02T13:56:01Z</time>
      </trkpt>
      <trkpt lat="49.13653" lon="-0.39653">
        <ele>7.4</ele>
        <time>2023-05-02T13:56:02Z</time>
      </trkpt>
      <trkpt lat="49.13659" lon="-0.39647">
        <ele>7.4</ele>
        <time>2023-05-02T13:56:03Z</time>
      </trkpt>
      <trkpt lat="49.13666" lon="-0.3964">
        <ele>7.4</ele>
        <time>2023-05-02T13:56:04Z</time>
      </trkpt>
      <trkpt lat="49.13672" lon="-0.39633">
        <ele>7.4</ele>
        <time>2023-05-02T13:56:05Z</time>
      </trkpt>
      <trkpt lat="49.13679" lon="-0.39625">
        <ele>7</ele>
        <time>2023-05-02T13:56:06Z</time>
      </trkpt>
      <trkpt lat="49.13685" lon="-0.39618">
        <ele>7</ele>
        <time>2023-05-02T13:56:07Z</time>
      </trkpt>
      <trkpt lat="49.13691" lon="-0.3961">
        <ele>6.8</ele>
        <time>2023-05-02T13:56:08Z</time>
      </trkpt>
      <trkpt lat="49.13698" lon="-0.39604">
        <ele>6.6</ele>
        <time>2023-05-02T13:56:09Z</time>
      </trkpt>
      <trkpt lat="49.13704" lon="-0.39597">
        <ele>6.4</ele>
        <time>2023-05-02T13:56:10Z</time>
      </trkpt>
      <trkpt lat="49.1371" lon="-0.39591">
        <ele>6</ele>
        <time>2023-05-02T13:56:11Z</time>
      </trkpt>
      <trkpt lat="49.13716" lon="-0.39584">
        <ele>5.6</ele>
        <time>2023-05-02T13:56:12Z</time>
      </trkpt>
      <trkpt lat="49.13723" lon="-0.39578">
        <ele>5.4</ele>
        <time>2023-05-02T13:56:13Z</time>
      </trkpt>
      <trkpt lat="49.13728" lon="-0.39572">
        <ele>5.2</ele>
        <time>2023-05-02T13:56:14Z</time>
      </trkpt>
      <trkpt lat="49.13734" lon="-0.39566">
        <ele>5</ele>
        <time>2023-05-02T13:56:15Z</time>
      </trkpt>
      <trkpt lat="49.13739" lon="-0.39561">
        <ele>4.8</ele>
        <time>2023-05-02T13:56:16Z</time>
      </trkpt>
      <trkpt lat="49.13745" lon="-0.39556">
        <ele>4.6</ele>
        <time>2023-05-02T13:56:17Z</time>
      </trkpt>
      <trkpt lat="49.1375" lon="-0.39551">
        <ele>4.4</ele>
        <time>2023-05-02T13:56:18Z</time>
      </trkpt>
      <trkpt lat="49.13755" lon="-0.39546">
        <ele>4.6</ele>
        <time>2023-05-02T13:56:19Z</time>
      </trkpt>
      <trkpt lat="49.13761" lon="-0.39541">
        <ele>4.6</ele>
        <time>2023-05-02T13:56:20Z</time>
      </trkpt>
      <trkpt lat="49.13766" lon="-0.39535">
        <ele>4.6</ele>
        <time>2023-05-02T13:56:21Z</time>
      </trkpt>
      <trkpt lat="49.13772" lon="-0.39529">
        <ele>4.8</ele>
        <time>2023-05-02T13:56:22Z</time>
      </trkpt>
      <trkpt lat="49.13778" lon="-0.39523">
        <ele>5</ele>
        <time>2023-05-02T13:56:23Z</time>
      </trkpt>
      <trkpt lat="49.13783" lon="-0.39517">
        <ele>5</ele>
        <time>2023-05-02T13:56:24Z</time>
      </trkpt>
      <trkpt lat="49.13789" lon="-0.39512">
        <ele>5.4</ele>
        <time>2023-05-02T13:56:25Z</time>
      </trkpt>
      <trkpt lat="49.13795" lon="-0.39507">
        <ele>5.4</ele>
        <time>2023-05-02T13:56:26Z</time>
      </trkpt>
      <trkpt lat="49.138" lon="-0.39505">
        <ele>5.6</ele>
        <time>2023-05-02T13:56:27Z</time>
      </trkpt>
      <trkpt lat="49.13806" lon="-0.39504">
        <ele>5.6</ele>
        <time>2023-05-02T13:56:28Z</time>
      </trkpt>
      <trkpt lat="49.13811" lon="-0.39507">
        <ele>5.6</ele>
        <time>2023-05-02T13:56:29Z</time>
      </trkpt>
      <trkpt lat="49.13817" lon="-0.39507">
        <ele>5.6</ele>
        <time>2023-05-02T13:56:30Z</time>
      </trkpt>
      <trkpt lat="49.13821" lon="-0.39503">
        <ele>5.8</ele>
        <time>2023-05-02T13:56:31Z</time>
      </trkpt>
      <trkpt lat="49.13826" lon="-0.39496">
        <ele>6</ele>
        <time>2023-05-02T13:56:32Z</time>
      </trkpt>
      <trkpt lat="49.13831" lon="-0.3949">
        <ele>6.2</ele>
        <time>2023-05-02T13:56:33Z</time>
      </trkpt>
      <trkpt lat="49.13837" lon="-0.39483">
        <ele>6.6</ele>
        <time>2023-05-02T13:56:34Z</time>
      </trkpt>
      <trkpt lat="49.13842" lon="-0.39476">
        <ele>6.6</ele>
        <time>2023-05-02T13:56:35Z</time>
      </trkpt>
      <trkpt lat="49.13848" lon="-0.39469">
        <ele>6.8</ele>
        <time>2023-05-02T13:56:36Z</time>
      </trkpt>
      <trkpt lat="49.13854" lon="-0.39462">
        <ele>6.8</ele>
        <time>2023-05-02T13:56:37Z</time>
      </trkpt>
      <trkpt lat="49.1386" lon="-0.39455">
        <ele>7</ele>
        <time>2023-05-02T13:56:38Z</time>
      </trkpt>
      <trkpt lat="49.13865" lon="-0.39449">
        <ele>6.8</ele>
        <time>2023-05-02T13:56:39Z</time>
      </trkpt>
      <trkpt lat="49.13872" lon="-0.39443">
        <ele>6.6</ele>
        <time>2023-05-02T13:56:40Z</time>
      </trkpt>
      <trkpt lat="49.13878" lon="-0.39437">
        <ele>6.6</ele>
        <time>2023-05-02T13:56:41Z</time>
      </trkpt>
      <trkpt lat="49.13884" lon="-0.39431">
        <ele>6.4</ele>
        <time>2023-05-02T13:56:42Z</time>
      </trkpt>
      <trkpt lat="49.1389" lon="-0.39424">
        <ele>6</ele>
        <time>2023-05-02T13:56:43Z</time>
      </trkpt>
      <trkpt lat="49.13896" lon="-0.39418">
        <ele>5.8</ele>
        <time>2023-05-02T13:56:44Z</time>
      </trkpt>
      <trkpt lat="49.13902" lon="-0.39412">
        <ele>5.6</ele>
        <time>2023-05-02T13:56:45Z</time>
      </trkpt>
      <trkpt lat="49.13908" lon="-0.39406">
        <ele>5.6</ele>
        <time>2023-05-02T13:56:46Z</time>
      </trkpt>
      <trkpt lat="49.13914" lon="-0.394">
        <ele>5.4</ele>
        <time>2023-05-02T13:56:47Z</time>
      </trkpt>
      <trkpt lat="49.1392" lon="-0.39394">
        <ele>5.2</ele>
        <time>2023-05-02T13:56:48Z</time>
      </trkpt>
      <trkpt lat="49.13926" lon="-0.39388">
        <ele>5.2</ele>
        <time>2023-05-02T13:56:49Z</time>
      </trkpt>
      <trkpt lat="49.13932" lon="-0.39382">
        <ele>5</ele>
        <time>2023-05-02T13:56:50Z</time>
      </trkpt>
      <trkpt lat="49.13937" lon="-0.39376">
        <ele>5</ele>
        <time>2023-05-02T13:56:51Z</time>
      </trkpt>
      <trkpt lat="49.13943" lon="-0.3937">
        <ele>5</ele>
        <time>2023-05-02T13:56:52Z</time>
      </trkpt>
      <trkpt lat="49.13949" lon="-0.39364">
        <ele>4.8</ele>
        <time>2023-05-02T13:56:53Z</time>
      </trkpt>
      <trkpt lat="49.13954" lon="-0.39358">
        <ele>4.6</ele>
        <time>2023-05-02T13:56:54Z</time>
      </trkpt>
      <trkpt lat="49.1396" lon="-0.39352">
        <ele>4.4</ele>
        <time>2023-05-02T13:56:55Z</time>
      </trkpt>
      <trkpt lat="49.13966" lon="-0.39346">
        <ele>4.4</ele>
        <time>2023-05-02T13:56:56Z</time>
      </trkpt>
      <trkpt lat="49.13972" lon="-0.3934">
        <ele>4</ele>
        <time>2023-05-02T13:56:57Z</time>
      </trkpt>
      <trkpt lat="49.13978" lon="-0.39334">
        <ele>3.8</ele>
        <time>2023-05-02T13:56:58Z</time>
      </trkpt>
      <trkpt lat="49.13983" lon="-0.39328">
        <ele>3.8</ele>
        <time>2023-05-02T13:56:59Z</time>
      </trkpt>
      <trkpt lat="49.13989" lon="-0.39322">
        <ele>3.8</ele>
        <time>2023-05-02T13:57:00Z</time>
      </trkpt>
      <trkpt lat="49.13995" lon="-0.39316">
        <ele>3.6</ele>
        <time>2023-05-02T13:57:01Z</time>
      </trkpt>
      <trkpt lat="49.14" lon="-0.3931">
        <ele>3.6</ele>
        <time>2023-05-02T13:57:02Z</time>
      </trkpt>
      <trkpt lat="49.14006" lon="-0.39303">
        <ele>3.8</ele>
        <time>2023-05-02T13:57:03Z</time>
      </trkpt>
      <trkpt lat="49.14012" lon="-0.39297">
        <ele>3.8</ele>
        <time>2023-05-02T13:57:04Z</time>
      </trkpt>
      <trkpt lat="49.14017" lon="-0.3929">
        <ele>4</ele>
        <time>2023-05-02T13:57:05Z</time>
      </trkpt>
      <trkpt lat="49.14023" lon="-0.39284">
        <ele>4</ele>
        <time>2023-05-02T13:57:06Z</time>
      </trkpt>
      <trkpt lat="49.14028" lon="-0.39278">
        <ele>4</ele>
        <time>2023-05-02T13:57:07Z</time>
      </trkpt>
      <trkpt lat="49.14033" lon="-0.39272">
        <ele>4.2</ele>
        <time>2023-05-02T13:57:08Z</time>
      </trkpt>
      <trkpt lat="49.14038" lon="-0.39266">
        <ele>4.2</ele>
        <time>2023-05-02T13:57:09Z</time>
      </trkpt>
      <trkpt lat="49.14044" lon="-0.3926">
        <ele>4.4</ele>
        <time>2023-05-02T13:57:10Z</time>
      </trkpt>
      <trkpt lat="49.14049" lon="-0.39255">
        <ele>4.4</ele>
        <time>2023-05-02T13:57:11Z</time>
      </trkpt>
      <trkpt lat="49.14054" lon="-0.39249">
        <ele>4.4</ele>
        <time>2023-05-02T13:57:12Z</time>
      </trkpt>
      <trkpt lat="49.14061" lon="-0.39243">
        <ele>4.4</ele>
        <time>2023-05-02T13:57:13Z</time>
      </trkpt>
      <trkpt lat="49.14067" lon="-0.39237">
        <ele>4.4</ele>
        <time>2023-05-02T13:57:14Z</time>
      </trkpt>
      <trkpt lat="49.14074" lon="-0.39231">
        <ele>4.4</ele>
        <time>2023-05-02T13:57:15Z</time>
      </trkpt>
      <trkpt lat="49.14081" lon="-0.39225">
        <ele>4.4</ele>
        <time>2023-05-02T13:57:16Z</time>
      </trkpt>
      <trkpt lat="49.14087" lon="-0.39219">
        <ele>4.4</ele>
        <time>2023-05-02T13:57:17Z</time>
      </trkpt>
      <trkpt lat="49.14094" lon="-0.39212">
        <ele>4.4</ele>
        <time>2023-05-02T13:57:18Z</time>
      </trkpt>
      <trkpt lat="49.14101" lon="-0.39206">
        <ele>4.4</ele>
        <time>2023-05-02T13:57:19Z</time>
      </trkpt>
      <trkpt lat="49.14108" lon="-0.39199">
        <ele>4.2</ele>
        <time>2023-05-02T13:57:20Z</time>
      </trkpt>
      <trkpt lat="49.14115" lon="-0.39192">
        <ele>4.2</ele>
        <time>2023-05-02T13:57:21Z</time>
      </trkpt>
      <trkpt lat="49.14121" lon="-0.39185">
        <ele>4</ele>
        <time>2023-05-02T13:57:22Z</time>
      </trkpt>
      <trkpt lat="49.14128" lon="-0.39178">
        <ele>4</ele>
        <time>2023-05-02T13:57:23Z</time>
      </trkpt>
      <trkpt lat="49.14135" lon="-0.39172">
        <ele>3.8</ele>
        <time>2023-05-02T13:57:24Z</time>
      </trkpt>
      <trkpt lat="49.14141" lon="-0.39165">
        <ele>3.6</ele>
        <time>2023-05-02T13:57:25Z</time>
      </trkpt>
      <trkpt lat="49.14147" lon="-0.39159">
        <ele>3.6</ele>
        <time>2023-05-02T13:57:26Z</time>
      </trkpt>
      <trkpt lat="49.14154" lon="-0.39153">
        <ele>3.6</ele>
        <time>2023-05-02T13:57:27Z</time>
      </trkpt>
      <trkpt lat="49.1416" lon="-0.39147">
        <ele>3.6</ele>
        <time>2023-05-02T13:57:28Z</time>
      </trkpt>
      <trkpt lat="49.14166" lon="-0.3914">
        <ele>3.6</ele>
        <time>2023-05-02T13:57:29Z</time>
      </trkpt>
      <trkpt lat="49.14172" lon="-0.39134">
        <ele>3.8</ele>
        <time>2023-05-02T13:57:30Z</time>
      </trkpt>
      <trkpt lat="49.14178" lon="-0.39128">
        <ele>4</ele>
        <time>2023-05-02T13:57:31Z</time>
      </trkpt>
      <trkpt lat="49.14184" lon="-0.39121">
        <ele>4</ele>
        <time>2023-05-02T13:57:32Z</time>
      </trkpt>
      <trkpt lat="49.1419" lon="-0.39115">
        <ele>4</ele>
        <time>2023-05-02T13:57:33Z</time>
      </trkpt>
      <trkpt lat="49.14196" lon="-0.39109">
        <ele>4</ele>
        <time>2023-05-02T13:57:34Z</time>
      </trkpt>
      <trkpt lat="49.14202" lon="-0.39102">
        <ele>4.2</ele>
        <time>2023-05-02T13:57:35Z</time>
      </trkpt>
      <trkpt lat="49.14208" lon="-0.39096">
        <ele>4.4</ele>
        <time>2023-05-02T13:57:36Z</time>
      </trkpt>
      <trkpt lat="49.14213" lon="-0.3909">
        <ele>4.4</ele>
        <time>2023-05-02T13:57:37Z</time>
      </trkpt>
      <trkpt lat="49.14219" lon="-0.39084">
        <ele>4.4</ele>
        <time>2023-05-02T13:57:38Z</time>
      </trkpt>
      <trkpt lat="49.14224" lon="-0.39078">
        <ele>4.4</ele>
        <time>2023-05-02T13:57:39Z</time>
      </trkpt>
      <trkpt lat="49.14229" lon="-0.39073">
        <ele>4.4</ele>
        <time>2023-05-02T13:57:40Z</time>
      </trkpt>
      <trkpt lat="49.14234" lon="-0.39069">
        <ele>4.4</ele>
        <time>2023-05-02T13:57:41Z</time>
      </trkpt>
      <trkpt lat="49.14239" lon="-0.39064">
        <ele>4.4</ele>
        <time>2023-05-02T13:57:42Z</time>
      </trkpt>
      <trkpt lat="49.14244" lon="-0.39059">
        <ele>4.4</ele>
        <time>2023-05-02T13:57:43Z</time>
      </trkpt>
      <trkpt lat="49.14249" lon="-0.39053">
        <ele>4.4</ele>
        <time>2023-05-02T13:57:44Z</time>
      </trkpt>
      <trkpt lat="49.14254" lon="-0.39047">
        <ele>4.4</ele>
        <time>2023-05-02T13:57:45Z</time>
      </trkpt>
      <trkpt lat="49.1426" lon="-0.39041">
        <ele>4.4</ele>
        <time>2023-05-02T13:57:46Z</time>
      </trkpt>
      <trkpt lat="49.14265" lon="-0.39036">
        <ele>4.4</ele>
        <time>2023-05-02T13:57:47Z</time>
      </trkpt>
      <trkpt lat="49.14271" lon="-0.3903">
        <ele>4.4</ele>
        <time>2023-05-02T13:57:48Z</time>
      </trkpt>
      <trkpt lat="49.14276" lon="-0.39024">
        <ele>4.4</ele>
        <time>2023-05-02T13:57:49Z</time>
      </trkpt>
      <trkpt lat="49.14281" lon="-0.39018">
        <ele>4.4</ele>
        <time>2023-05-02T13:57:50Z</time>
      </trkpt>
      <trkpt lat="49.14287" lon="-0.39013">
        <ele>4.4</ele>
        <time>2023-05-02T13:57:51Z</time>
      </trkpt>
      <trkpt lat="49.14293" lon="-0.39007">
        <ele>4.4</ele>
        <time>2023-05-02T13:57:52Z</time>
      </trkpt>
      <trkpt lat="49.14298" lon="-0.39001">
        <ele>4.4</ele>
        <time>2023-05-02T13:57:53Z</time>
      </trkpt>
      <trkpt lat="49.14304" lon="-0.38996">
        <ele>4.4</ele>
        <time>2023-05-02T13:57:54Z</time>
      </trkpt>
      <trkpt lat="49.1431" lon="-0.38991">
        <ele>4.4</ele>
        <time>2023-05-02T13:57:55Z</time>
      </trkpt>
      <trkpt lat="49.14315" lon="-0.38985">
        <ele>4.4</ele>
        <time>2023-05-02T13:57:56Z</time>
      </trkpt>
      <trkpt lat="49.14321" lon="-0.38979">
        <ele>4.2</ele>
        <time>2023-05-02T13:57:57Z</time>
      </trkpt>
      <trkpt lat="49.14327" lon="-0.38974">
        <ele>4</ele>
        <time>2023-05-02T13:57:58Z</time>
      </trkpt>
      <trkpt lat="49.14333" lon="-0.38968">
        <ele>4</ele>
        <time>2023-05-02T13:57:59Z</time>
      </trkpt>
      <trkpt lat="49.14339" lon="-0.38962">
        <ele>4</ele>
        <time>2023-05-02T13:58:00Z</time>
      </trkpt>
      <trkpt lat="49.14345" lon="-0.38956">
        <ele>4</ele>
        <time>2023-05-02T13:58:01Z</time>
      </trkpt>
      <trkpt lat="49.14351" lon="-0.3895">
        <ele>4</ele>
        <time>2023-05-02T13:58:02Z</time>
      </trkpt>
      <trkpt lat="49.14357" lon="-0.38944">
        <ele>4.2</ele>
        <time>2023-05-02T13:58:03Z</time>
      </trkpt>
      <trkpt lat="49.14363" lon="-0.38938">
        <ele>4.4</ele>
        <time>2023-05-02T13:58:04Z</time>
      </trkpt>
      <trkpt lat="49.14369" lon="-0.38933">
        <ele>4.4</ele>
        <time>2023-05-02T13:58:05Z</time>
      </trkpt>
      <trkpt lat="49.14374" lon="-0.38928">
        <ele>4.4</ele>
        <time>2023-05-02T13:58:06Z</time>
      </trkpt>
      <trkpt lat="49.1438" lon="-0.38924">
        <ele>4.6</ele>
        <time>2023-05-02T13:58:07Z</time>
      </trkpt>
      <trkpt lat="49.14386" lon="-0.3892">
        <ele>4.6</ele>
        <time>2023-05-02T13:58:08Z</time>
      </trkpt>
      <trkpt lat="49.14392" lon="-0.38916">
        <ele>4.6</ele>
        <time>2023-05-02T13:58:09Z</time>
      </trkpt>
      <trkpt lat="49.14398" lon="-0.38912">
        <ele>4.8</ele>
        <time>2023-05-02T13:58:10Z</time>
      </trkpt>
      <trkpt lat="49.14404" lon="-0.38909">
        <ele>4.8</ele>
        <time>2023-05-02T13:58:11Z</time>
      </trkpt>
      <trkpt lat="49.14409" lon="-0.38906">
        <ele>5</ele>
        <time>2023-05-02T13:58:12Z</time>
      </trkpt>
      <trkpt lat="49.14415" lon="-0.38903">
        <ele>5</ele>
        <time>2023-05-02T13:58:13Z</time>
      </trkpt>
      <trkpt lat="49.14419" lon="-0.389">
        <ele>5</ele>
        <time>2023-05-02T13:58:14Z</time>
      </trkpt>
      <trkpt lat="49.14424" lon="-0.38897">
        <ele>4.8</ele>
        <time>2023-05-02T13:58:15Z</time>
      </trkpt>
      <trkpt lat="49.14428" lon="-0.38894">
        <ele>4.6</ele>
        <time>2023-05-02T13:58:16Z</time>
      </trkpt>
      <trkpt lat="49.14432" lon="-0.38891">
        <ele>4.6</ele>
        <time>2023-05-02T13:58:17Z</time>
      </trkpt>
      <trkpt lat="49.14436" lon="-0.38887">
        <ele>4.6</ele>
        <time>2023-05-02T13:58:18Z</time>
      </trkpt>
      <trkpt lat="49.1444" lon="-0.38881">
        <ele>4.4</ele>
        <time>2023-05-02T13:58:19Z</time>
      </trkpt>
      <trkpt lat="49.14443" lon="-0.38875">
        <ele>4.4</ele>
        <time>2023-05-02T13:58:20Z</time>
      </trkpt>
      <trkpt lat="49.14447" lon="-0.38868">
        <ele>4.4</ele>
        <time>2023-05-02T13:58:21Z</time>
      </trkpt>
      <trkpt lat="49.14452" lon="-0.38861">
        <ele>4.4</ele>
        <time>2023-05-02T13:58:22Z</time>
      </trkpt>
      <trkpt lat="49.14458" lon="-0.38853">
        <ele>4.4</ele>
        <time>2023-05-02T13:58:23Z</time>
      </trkpt>
      <trkpt lat="49.14464" lon="-0.38845">
        <ele>4.4</ele>
        <time>2023-05-02T13:58:24Z</time>
      </trkpt>
      <trkpt lat="49.14471" lon="-0.38838">
        <ele>4.4</ele>
        <time>2023-05-02T13:58:25Z</time>
      </trkpt>
      <trkpt lat="49.14477" lon="-0.38832">
        <ele>4.4</ele>
        <time>2023-05-02T13:58:26Z</time>
      </trkpt>
      <trkpt lat="49.14483" lon="-0.38826">
        <ele>4.2</ele>
        <time>2023-05-02T13:58:27Z</time>
      </trkpt>
      <trkpt lat="49.1449" lon="-0.3882">
        <ele>4</ele>
        <time>2023-05-02T13:58:28Z</time>
      </trkpt>
      <trkpt lat="49.14496" lon="-0.38814">
        <ele>4</ele>
        <time>2023-05-02T13:58:29Z</time>
      </trkpt>
      <trkpt lat="49.14502" lon="-0.38808">
        <ele>4</ele>
        <time>2023-05-02T13:58:30Z</time>
      </trkpt>
      <trkpt lat="49.14508" lon="-0.38803">
        <ele>4</ele>
        <time>2023-05-02T13:58:31Z</time>
      </trkpt>
      <trkpt lat="49.14514" lon="-0.38798">
        <ele>4</ele>
        <time>2023-05-02T13:58:32Z</time>
      </trkpt>
      <trkpt lat="49.1452" lon="-0.38792">
        <ele>4</ele>
        <time>2023-05-02T13:58:33Z</time>
      </trkpt>
      <trkpt lat="49.14525" lon="-0.38787">
        <ele>4</ele>
        <time>2023-05-02T13:58:34Z</time>
      </trkpt>
      <trkpt lat="49.14531" lon="-0.38782">
        <ele>4</ele>
        <time>2023-05-02T13:58:35Z</time>
      </trkpt>
      <trkpt lat="49.14537" lon="-0.38777">
        <ele>4</ele>
        <time>2023-05-02T13:58:36Z</time>
      </trkpt>
      <trkpt lat="49.14543" lon="-0.38772">
        <ele>4</ele>
        <time>2023-05-02T13:58:37Z</time>
      </trkpt>
      <trkpt lat="49.14549" lon="-0.38767">
        <ele>4</ele>
        <time>2023-05-02T13:58:38Z</time>
      </trkpt>
      <trkpt lat="49.14554" lon="-0.38762">
        <ele>4</ele>
        <time>2023-05-02T13:58:39Z</time>
      </trkpt>
      <trkpt lat="49.1456" lon="-0.38757">
        <ele>4</ele>
        <time>2023-05-02T13:58:40Z</time>
      </trkpt>
      <trkpt lat="49.14566" lon="-0.38752">
        <ele>4</ele>
        <time>2023-05-02T13:58:41Z</time>
      </trkpt>
      <trkpt lat="49.14572" lon="-0.38747">
        <ele>4</ele>
        <time>2023-05-02T13:58:42Z</time>
      </trkpt>
      <trkpt lat="49.14578" lon="-0.38742">
        <ele>4</ele>
        <time>2023-05-02T13:58:43Z</time>
      </trkpt>
      <trkpt lat="49.14584" lon="-0.38737">
        <ele>4</ele>
        <time>2023-05-02T13:58:44Z</time>
      </trkpt>
      <trkpt lat="49.1459" lon="-0.38732">
        <ele>4</ele>
        <time>2023-05-02T13:58:45Z</time>
      </trkpt>
      <trkpt lat="49.14596" lon="-0.38727">
        <ele>4.2</ele>
        <time>2023-05-02T13:58:46Z</time>
      </trkpt>
      <trkpt lat="49.14602" lon="-0.38722">
        <ele>4.4</ele>
        <time>2023-05-02T13:58:47Z</time>
      </trkpt>
      <trkpt lat="49.14608" lon="-0.38717">
        <ele>4.4</ele>
        <time>2023-05-02T13:58:48Z</time>
      </trkpt>
      <trkpt lat="49.14615" lon="-0.38712">
        <ele>4.6</ele>
        <time>2023-05-02T13:58:49Z</time>
      </trkpt>
      <trkpt lat="49.14621" lon="-0.38707">
        <ele>4.6</ele>
        <time>2023-05-02T13:58:50Z</time>
      </trkpt>
      <trkpt lat="49.14627" lon="-0.38702">
        <ele>4.8</ele>
        <time>2023-05-02T13:58:51Z</time>
      </trkpt>
      <trkpt lat="49.14633" lon="-0.38698">
        <ele>5</ele>
        <time>2023-05-02T13:58:52Z</time>
      </trkpt>
      <trkpt lat="49.14639" lon="-0.38693">
        <ele>5</ele>
        <time>2023-05-02T13:58:53Z</time>
      </trkpt>
      <trkpt lat="49.14644" lon="-0.38688">
        <ele>5.4</ele>
        <time>2023-05-02T13:58:54Z</time>
      </trkpt>
      <trkpt lat="49.1465" lon="-0.38683">
        <ele>5.4</ele>
        <time>2023-05-02T13:58:55Z</time>
      </trkpt>
      <trkpt lat="49.14656" lon="-0.38678">
        <ele>5.6</ele>
        <time>2023-05-02T13:58:56Z</time>
      </trkpt>
      <trkpt lat="49.14662" lon="-0.38673">
        <ele>5.8</ele>
        <time>2023-05-02T13:58:57Z</time>
      </trkpt>
      <trkpt lat="49.14668" lon="-0.38669">
        <ele>6</ele>
        <time>2023-05-02T13:58:58Z</time>
      </trkpt>
      <trkpt lat="49.14674" lon="-0.38664">
        <ele>6</ele>
        <time>2023-05-02T13:58:59Z</time>
      </trkpt>
      <trkpt lat="49.1468" lon="-0.38659">
        <ele>5.8</ele>
        <time>2023-05-02T13:59:00Z</time>
      </trkpt>
      <trkpt lat="49.14686" lon="-0.38655">
        <ele>5.6</ele>
        <time>2023-05-02T13:59:01Z</time>
      </trkpt>
      <trkpt lat="49.14691" lon="-0.3865">
        <ele>5.6</ele>
        <time>2023-05-02T13:59:02Z</time>
      </trkpt>
      <trkpt lat="49.14696" lon="-0.38647">
        <ele>5.6</ele>
        <time>2023-05-02T13:59:03Z</time>
      </trkpt>
      <trkpt lat="49.14701" lon="-0.38643">
        <ele>5.6</ele>
        <time>2023-05-02T13:59:04Z</time>
      </trkpt>
      <trkpt lat="49.14706" lon="-0.3864">
        <ele>5.4</ele>
        <time>2023-05-02T13:59:05Z</time>
      </trkpt>
      <trkpt lat="49.14711" lon="-0.38638">
        <ele>5.4</ele>
        <time>2023-05-02T13:59:06Z</time>
      </trkpt>
      <trkpt lat="49.14717" lon="-0.38635">
        <ele>5.2</ele>
        <time>2023-05-02T13:59:07Z</time>
      </trkpt>
      <trkpt lat="49.14722" lon="-0.38631">
        <ele>5</ele>
        <time>2023-05-02T13:59:08Z</time>
      </trkpt>
      <trkpt lat="49.14726" lon="-0.38627">
        <ele>5</ele>
        <time>2023-05-02T13:59:09Z</time>
      </trkpt>
      <trkpt lat="49.14731" lon="-0.38624">
        <ele>4.8</ele>
        <time>2023-05-02T13:59:10Z</time>
      </trkpt>
      <trkpt lat="49.14737" lon="-0.38621">
        <ele>4.6</ele>
        <time>2023-05-02T13:59:11Z</time>
      </trkpt>
      <trkpt lat="49.14742" lon="-0.38618">
        <ele>4.6</ele>
        <time>2023-05-02T13:59:12Z</time>
      </trkpt>
      <trkpt lat="49.14748" lon="-0.38614">
        <ele>4.4</ele>
        <time>2023-05-02T13:59:13Z</time>
      </trkpt>
      <trkpt lat="49.14753" lon="-0.3861">
        <ele>4.4</ele>
        <time>2023-05-02T13:59:14Z</time>
      </trkpt>
      <trkpt lat="49.14758" lon="-0.38607">
        <ele>4.4</ele>
        <time>2023-05-02T13:59:15Z</time>
      </trkpt>
      <trkpt lat="49.14763" lon="-0.38603">
        <ele>4.4</ele>
        <time>2023-05-02T13:59:16Z</time>
      </trkpt>
      <trkpt lat="49.14769" lon="-0.38598">
        <ele>4.4</ele>
        <time>2023-05-02T13:59:17Z</time>
      </trkpt>
      <trkpt lat="49.14776" lon="-0.38594">
        <ele>4.4</ele>
        <time>2023-05-02T13:59:18Z</time>
      </trkpt>
      <trkpt lat="49.14782" lon="-0.3859">
        <ele>4.4</ele>
        <time>2023-05-02T13:59:19Z</time>
      </trkpt>
      <trkpt lat="49.14788" lon="-0.38586">
        <ele>4.6</ele>
        <time>2023-05-02T13:59:20Z</time>
      </trkpt>
      <trkpt lat="49.14795" lon="-0.38582">
        <ele>4.6</ele>
        <time>2023-05-02T13:59:21Z</time>
      </trkpt>
      <trkpt lat="49.14801" lon="-0.38578">
        <ele>4.6</ele>
        <time>2023-05-02T13:59:22Z</time>
      </trkpt>
      <trkpt lat="49.14807" lon="-0.38574">
        <ele>4.6</ele>
        <time>2023-05-02T13:59:23Z</time>
      </trkpt>
      <trkpt lat="49.14814" lon="-0.38569">
        <ele>4.8</ele>
        <time>2023-05-02T13:59:24Z</time>
      </trkpt>
      <trkpt lat="49.1482" lon="-0.38565">
        <ele>5</ele>
        <time>2023-05-02T13:59:25Z</time>
      </trkpt>
      <trkpt lat="49.14827" lon="-0.3856">
        <ele>5</ele>
        <time>2023-05-02T13:59:26Z</time>
      </trkpt>
      <trkpt lat="49.14833" lon="-0.38556">
        <ele>5</ele>
        <time>2023-05-02T13:59:27Z</time>
      </trkpt>
      <trkpt lat="49.1484" lon="-0.38552">
        <ele>5</ele>
        <time>2023-05-02T13:59:28Z</time>
      </trkpt>
      <trkpt lat="49.14846" lon="-0.38547">
        <ele>5</ele>
        <time>2023-05-02T13:59:29Z</time>
      </trkpt>
      <trkpt lat="49.14852" lon="-0.38543">
        <ele>5</ele>
        <time>2023-05-02T13:59:30Z</time>
      </trkpt>
      <trkpt lat="49.14858" lon="-0.38539">
        <ele>5</ele>
        <time>2023-05-02T13:59:31Z</time>
      </trkpt>
      <trkpt lat="49.14865" lon="-0.38535">
        <ele>5</ele>
        <time>2023-05-02T13:59:32Z</time>
      </trkpt>
      <trkpt lat="49.14872" lon="-0.38531">
        <ele>5</ele>
        <time>2023-05-02T13:59:33Z</time>
      </trkpt>
      <trkpt lat="49.14879" lon="-0.38527">
        <ele>5.2</ele>
        <time>2023-05-02T13:59:34Z</time>
      </trkpt>
      <trkpt lat="49.14886" lon="-0.38524">
        <ele>5.4</ele>
        <time>2023-05-02T13:59:35Z</time>
      </trkpt>
      <trkpt lat="49.14892" lon="-0.3852">
        <ele>5.4</ele>
        <time>2023-05-02T13:59:36Z</time>
      </trkpt>
      <trkpt lat="49.14897" lon="-0.38517">
        <ele>5.4</ele>
        <time>2023-05-02T13:59:37Z</time>
      </trkpt>
      <trkpt lat="49.14903" lon="-0.38514">
        <ele>5.6</ele>
        <time>2023-05-02T13:59:38Z</time>
      </trkpt>
      <trkpt lat="49.14909" lon="-0.38511">
        <ele>5.6</ele>
        <time>2023-05-02T13:59:39Z</time>
      </trkpt>
      <trkpt lat="49.14916" lon="-0.38507">
        <ele>5.8</ele>
        <time>2023-05-02T13:59:40Z</time>
      </trkpt>
      <trkpt lat="49.14923" lon="-0.38503">
        <ele>6</ele>
        <time>2023-05-02T13:59:41Z</time>
      </trkpt>
      <trkpt lat="49.1493" lon="-0.38499">
        <ele>6.4</ele>
        <time>2023-05-02T13:59:42Z</time>
      </trkpt>
      <trkpt lat="49.14938" lon="-0.38495">
        <ele>6.4</ele>
        <time>2023-05-02T13:59:43Z</time>
      </trkpt>
      <trkpt lat="49.14945" lon="-0.38491">
        <ele>6.6</ele>
        <time>2023-05-02T13:59:44Z</time>
      </trkpt>
      <trkpt lat="49.14951" lon="-0.38488">
        <ele>6.6</ele>
        <time>2023-05-02T13:59:45Z</time>
      </trkpt>
      <trkpt lat="49.14957" lon="-0.38484">
        <ele>6.6</ele>
        <time>2023-05-02T13:59:46Z</time>
      </trkpt>
      <trkpt lat="49.14962" lon="-0.3848">
        <ele>6.6</ele>
        <time>2023-05-02T13:59:47Z</time>
      </trkpt>
      <trkpt lat="49.14968" lon="-0.38476">
        <ele>6.8</ele>
        <time>2023-05-02T13:59:48Z</time>
      </trkpt>
      <trkpt lat="49.14974" lon="-0.38473">
        <ele>6.8</ele>
        <time>2023-05-02T13:59:49Z</time>
      </trkpt>
      <trkpt lat="49.1498" lon="-0.38469">
        <ele>7</ele>
        <time>2023-05-02T13:59:50Z</time>
      </trkpt>
      <trkpt lat="49.14987" lon="-0.38465">
        <ele>7</ele>
        <time>2023-05-02T13:59:51Z</time>
      </trkpt>
      <trkpt lat="49.14994" lon="-0.38461">
        <ele>7</ele>
        <time>2023-05-02T13:59:52Z</time>
      </trkpt>
      <trkpt lat="49.15001" lon="-0.38457">
        <ele>7</ele>
        <time>2023-05-02T13:59:53Z</time>
      </trkpt>
      <trkpt lat="49.15008" lon="-0.38452">
        <ele>6.6</ele>
        <time>2023-05-02T13:59:54Z</time>
      </trkpt>
      <trkpt lat="49.15014" lon="-0.38448">
        <ele>6.4</ele>
        <time>2023-05-02T13:59:55Z</time>
      </trkpt>
      <trkpt lat="49.1502" lon="-0.38444">
        <ele>6</ele>
        <time>2023-05-02T13:59:56Z</time>
      </trkpt>
      <trkpt lat="49.15026" lon="-0.3844">
        <ele>5.8</ele>
        <time>2023-05-02T13:59:57Z</time>
      </trkpt>
      <trkpt lat="49.15032" lon="-0.38437">
        <ele>5.6</ele>
        <time>2023-05-02T13:59:58Z</time>
      </trkpt>
      <trkpt lat="49.15037" lon="-0.38434">
        <ele>5.4</ele>
        <time>2023-05-02T13:59:59Z</time>
      </trkpt>
      <trkpt lat="49.15042" lon="-0.38429">
        <ele>5</ele>
        <time>2023-05-02T14:00:00Z</time>
      </trkpt>
      <trkpt lat="49.15048" lon="-0.38423">
        <ele>5</ele>
        <time>2023-05-02T14:00:01Z</time>
      </trkpt>
      <trkpt lat="49.15056" lon="-0.38416">
        <ele>4.6</ele>
        <time>2023-05-02T14:00:02Z</time>
      </trkpt>
      <trkpt lat="49.15063" lon="-0.38411">
        <ele>4.6</ele>
        <time>2023-05-02T14:00:03Z</time>
      </trkpt>
      <trkpt lat="49.15069" lon="-0.38407">
        <ele>4.6</ele>
        <time>2023-05-02T14:00:04Z</time>
      </trkpt>
      <trkpt lat="49.15076" lon="-0.38402">
        <ele>4.4</ele>
        <time>2023-05-02T14:00:05Z</time>
      </trkpt>
      <trkpt lat="49.15082" lon="-0.38397">
        <ele>4.6</ele>
        <time>2023-05-02T14:00:06Z</time>
      </trkpt>
      <trkpt lat="49.15089" lon="-0.38393">
        <ele>4.6</ele>
        <time>2023-05-02T14:00:07Z</time>
      </trkpt>
      <trkpt lat="49.15096" lon="-0.38388">
        <ele>4.6</ele>
        <time>2023-05-02T14:00:08Z</time>
      </trkpt>
      <trkpt lat="49.15102" lon="-0.38383">
        <ele>4.8</ele>
        <time>2023-05-02T14:00:09Z</time>
      </trkpt>
      <trkpt lat="49.15109" lon="-0.38379">
        <ele>5</ele>
        <time>2023-05-02T14:00:10Z</time>
      </trkpt>
      <trkpt lat="49.15115" lon="-0.38375">
        <ele>5</ele>
        <time>2023-05-02T14:00:11Z</time>
      </trkpt>
      <trkpt lat="49.15121" lon="-0.38371">
        <ele>5.2</ele>
        <time>2023-05-02T14:00:12Z</time>
      </trkpt>
      <trkpt lat="49.15127" lon="-0.38366">
        <ele>5.4</ele>
        <time>2023-05-02T14:00:13Z</time>
      </trkpt>
      <trkpt lat="49.15133" lon="-0.38362">
        <ele>5.6</ele>
        <time>2023-05-02T14:00:14Z</time>
      </trkpt>
      <trkpt lat="49.15139" lon="-0.38358">
        <ele>5.6</ele>
        <time>2023-05-02T14:00:15Z</time>
      </trkpt>
      <trkpt lat="49.15145" lon="-0.38354">
        <ele>6</ele>
        <time>2023-05-02T14:00:16Z</time>
      </trkpt>
      <trkpt lat="49.15151" lon="-0.3835">
        <ele>6</ele>
        <time>2023-05-02T14:00:17Z</time>
      </trkpt>
      <trkpt lat="49.15157" lon="-0.38347">
        <ele>6.4</ele>
        <time>2023-05-02T14:00:18Z</time>
      </trkpt>
      <trkpt lat="49.15162" lon="-0.38343">
        <ele>6.6</ele>
        <time>2023-05-02T14:00:19Z</time>
      </trkpt>
      <trkpt lat="49.15167" lon="-0.38338">
        <ele>6.8</ele>
        <time>2023-05-02T14:00:20Z</time>
      </trkpt>
      <trkpt lat="49.15172" lon="-0.38333">
        <ele>7</ele>
        <time>2023-05-02T14:00:21Z</time>
      </trkpt>
      <trkpt lat="49.15176" lon="-0.38328">
        <ele>6.8</ele>
        <time>2023-05-02T14:00:22Z</time>
      </trkpt>
      <trkpt lat="49.1518" lon="-0.38323">
        <ele>6.6</ele>
        <time>2023-05-02T14:00:23Z</time>
      </trkpt>
      <trkpt lat="49.15184" lon="-0.38317">
        <ele>6.6</ele>
        <time>2023-05-02T14:00:24Z</time>
      </trkpt>
      <trkpt lat="49.15188" lon="-0.38312">
        <ele>6.6</ele>
        <time>2023-05-02T14:00:25Z</time>
      </trkpt>
      <trkpt lat="49.15193" lon="-0.38308">
        <ele>6.4</ele>
        <time>2023-05-02T14:00:26Z</time>
      </trkpt>
      <trkpt lat="49.15197" lon="-0.38303">
        <ele>6.4</ele>
        <time>2023-05-02T14:00:27Z</time>
      </trkpt>
      <trkpt lat="49.15202" lon="-0.38299">
        <ele>6.2</ele>
        <time>2023-05-02T14:00:28Z</time>
      </trkpt>
      <trkpt lat="49.15206" lon="-0.38296">
        <ele>6</ele>
        <time>2023-05-02T14:00:29Z</time>
      </trkpt>
      <trkpt lat="49.15211" lon="-0.38293">
        <ele>6</ele>
        <time>2023-05-02T14:00:30Z</time>
      </trkpt>
      <trkpt lat="49.15216" lon="-0.3829">
        <ele>5.8</ele>
        <time>2023-05-02T14:00:31Z</time>
      </trkpt>
      <trkpt lat="49.1522" lon="-0.38288">
        <ele>5.6</ele>
        <time>2023-05-02T14:00:32Z</time>
      </trkpt>
      <trkpt lat="49.15224" lon="-0.38286">
        <ele>5.6</ele>
        <time>2023-05-02T14:00:33Z</time>
      </trkpt>
      <trkpt lat="49.15227" lon="-0.38284">
        <ele>5.6</ele>
        <time>2023-05-02T14:00:34Z</time>
      </trkpt>
      <trkpt lat="49.1523" lon="-0.38282">
        <ele>5.6</ele>
        <time>2023-05-02T14:00:35Z</time>
      </trkpt>
      <trkpt lat="49.15233" lon="-0.38279">
        <ele>5.4</ele>
        <time>2023-05-02T14:00:36Z</time>
      </trkpt>
      <trkpt lat="49.15237" lon="-0.38277">
        <ele>5.4</ele>
        <time>2023-05-02T14:00:37Z</time>
      </trkpt>
      <trkpt lat="49.15241" lon="-0.38274">
        <ele>5.2</ele>
        <time>2023-05-02T14:00:38Z</time>
      </trkpt>
      <trkpt lat="49.15246" lon="-0.38272">
        <ele>5</ele>
        <time>2023-05-02T14:00:39Z</time>
      </trkpt>
      <trkpt lat="49.15252" lon="-0.38269">
        <ele>5</ele>
        <time>2023-05-02T14:00:40Z</time>
      </trkpt>
      <trkpt lat="49.15259" lon="-0.38266">
        <ele>5</ele>
        <time>2023-05-02T14:00:41Z</time>
      </trkpt>
      <trkpt lat="49.15265" lon="-0.38263">
        <ele>5</ele>
        <time>2023-05-02T14:00:42Z</time>
      </trkpt>
      <trkpt lat="49.15271" lon="-0.38261">
        <ele>5</ele>
        <time>2023-05-02T14:00:43Z</time>
      </trkpt>
      <trkpt lat="49.15276" lon="-0.38258">
        <ele>5</ele>
        <time>2023-05-02T14:00:44Z</time>
      </trkpt>
      <trkpt lat="49.15282" lon="-0.38254">
        <ele>5</ele>
        <time>2023-05-02T14:00:45Z</time>
      </trkpt>
      <trkpt lat="49.15289" lon="-0.3825">
        <ele>5</ele>
        <time>2023-05-02T14:00:46Z</time>
      </trkpt>
      <trkpt lat="49.15296" lon="-0.38246">
        <ele>5</ele>
        <time>2023-05-02T14:00:47Z</time>
      </trkpt>
      <trkpt lat="49.15303" lon="-0.38242">
        <ele>5</ele>
        <time>2023-05-02T14:00:48Z</time>
      </trkpt>
      <trkpt lat="49.1531" lon="-0.38239">
        <ele>5</ele>
        <time>2023-05-02T14:00:49Z</time>
      </trkpt>
      <trkpt lat="49.15316" lon="-0.38235">
        <ele>5</ele>
        <time>2023-05-02T14:00:50Z</time>
      </trkpt>
      <trkpt lat="49.15323" lon="-0.38231">
        <ele>5</ele>
        <time>2023-05-02T14:00:51Z</time>
      </trkpt>
      <trkpt lat="49.15329" lon="-0.38227">
        <ele>5</ele>
        <time>2023-05-02T14:00:52Z</time>
      </trkpt>
      <trkpt lat="49.15336" lon="-0.38224">
        <ele>5</ele>
        <time>2023-05-02T14:00:53Z</time>
      </trkpt>
      <trkpt lat="49.15342" lon="-0.3822">
        <ele>5</ele>
        <time>2023-05-02T14:00:54Z</time>
      </trkpt>
      <trkpt lat="49.15349" lon="-0.38216">
        <ele>5</ele>
        <time>2023-05-02T14:00:55Z</time>
      </trkpt>
      <trkpt lat="49.15356" lon="-0.38212">
        <ele>5</ele>
        <time>2023-05-02T14:00:56Z</time>
      </trkpt>
      <trkpt lat="49.15363" lon="-0.38207">
        <ele>4.8</ele>
        <time>2023-05-02T14:00:57Z</time>
      </trkpt>
      <trkpt lat="49.15371" lon="-0.38202">
        <ele>4.8</ele>
        <time>2023-05-02T14:00:58Z</time>
      </trkpt>
      <trkpt lat="49.15377" lon="-0.38196">
        <ele>4.8</ele>
        <time>2023-05-02T14:00:59Z</time>
      </trkpt>
      <trkpt lat="49.15384" lon="-0.3819">
        <ele>4.8</ele>
        <time>2023-05-02T14:01:00Z</time>
      </trkpt>
      <trkpt lat="49.15391" lon="-0.38183">
        <ele>5</ele>
        <time>2023-05-02T14:01:01Z</time>
      </trkpt>
      <trkpt lat="49.15397" lon="-0.38176">
        <ele>5</ele>
        <time>2023-05-02T14:01:02Z</time>
      </trkpt>
      <trkpt lat="49.15404" lon="-0.3817">
        <ele>5</ele>
        <time>2023-05-02T14:01:03Z</time>
      </trkpt>
      <trkpt lat="49.1541" lon="-0.38164">
        <ele>5</ele>
        <time>2023-05-02T14:01:04Z</time>
      </trkpt>
      <trkpt lat="49.15416" lon="-0.38157">
        <ele>5</ele>
        <time>2023-05-02T14:01:05Z</time>
      </trkpt>
      <trkpt lat="49.15422" lon="-0.3815">
        <ele>5</ele>
        <time>2023-05-02T14:01:06Z</time>
      </trkpt>
      <trkpt lat="49.15427" lon="-0.38143">
        <ele>5</ele>
        <time>2023-05-02T14:01:07Z</time>
      </trkpt>
      <trkpt lat="49.15431" lon="-0.38134">
        <ele>5</ele>
        <time>2023-05-02T14:01:08Z</time>
      </trkpt>
      <trkpt lat="49.15435" lon="-0.38126">
        <ele>5</ele>
        <time>2023-05-02T14:01:09Z</time>
      </trkpt>
      <trkpt lat="49.15439" lon="-0.38118">
        <ele>5</ele>
        <time>2023-05-02T14:01:10Z</time>
      </trkpt>
      <trkpt lat="49.15443" lon="-0.3811">
        <ele>5</ele>
        <time>2023-05-02T14:01:11Z</time>
      </trkpt>
      <trkpt lat="49.15446" lon="-0.38101">
        <ele>5</ele>
        <time>2023-05-02T14:01:12Z</time>
      </trkpt>
      <trkpt lat="49.1545" lon="-0.38093">
        <ele>5</ele>
        <time>2023-05-02T14:01:13Z</time>
      </trkpt>
      <trkpt lat="49.15454" lon="-0.38085">
        <ele>5</ele>
        <time>2023-05-02T14:01:14Z</time>
      </trkpt>
      <trkpt lat="49.15458" lon="-0.38076">
        <ele>5</ele>
        <time>2023-05-02T14:01:15Z</time>
      </trkpt>
      <trkpt lat="49.15461" lon="-0.38068">
        <ele>5</ele>
        <time>2023-05-02T14:01:16Z</time>
      </trkpt>
      <trkpt lat="49.15465" lon="-0.38059">
        <ele>5</ele>
        <time>2023-05-02T14:01:17Z</time>
      </trkpt>
      <trkpt lat="49.15469" lon="-0.3805">
        <ele>5</ele>
        <time>2023-05-02T14:01:18Z</time>
      </trkpt>
      <trkpt lat="49.15473" lon="-0.38042">
        <ele>5</ele>
        <time>2023-05-02T14:01:19Z</time>
      </trkpt>
      <trkpt lat="49.15476" lon="-0.38034">
        <ele>5</ele>
        <time>2023-05-02T14:01:20Z</time>
      </trkpt>
      <trkpt lat="49.1548" lon="-0.38026">
        <ele>5</ele>
        <time>2023-05-02T14:01:21Z</time>
      </trkpt>
      <trkpt lat="49.15484" lon="-0.38017">
        <ele>5</ele>
        <time>2023-05-02T14:01:22Z</time>
      </trkpt>
      <trkpt lat="49.15487" lon="-0.38008">
        <ele>5</ele>
        <time>2023-05-02T14:01:23Z</time>
      </trkpt>
      <trkpt lat="49.15491" lon="-0.37999">
        <ele>5</ele>
        <time>2023-05-02T14:01:24Z</time>
      </trkpt>
      <trkpt lat="49.15495" lon="-0.37992">
        <ele>5</ele>
        <time>2023-05-02T14:01:25Z</time>
      </trkpt>
      <trkpt lat="49.155" lon="-0.37987">
        <ele>4.8</ele>
        <time>2023-05-02T14:01:26Z</time>
      </trkpt>
      <trkpt lat="49.15506" lon="-0.37986">
        <ele>4.8</ele>
        <time>2023-05-02T14:01:27Z</time>
      </trkpt>
      <trkpt lat="49.15511" lon="-0.37987">
        <ele>4.8</ele>
        <time>2023-05-02T14:01:28Z</time>
      </trkpt>
      <trkpt lat="49.15517" lon="-0.37989">
        <ele>4.8</ele>
        <time>2023-05-02T14:01:29Z</time>
      </trkpt>
      <trkpt lat="49.15523" lon="-0.37991">
        <ele>5</ele>
        <time>2023-05-02T14:01:30Z</time>
      </trkpt>
      <trkpt lat="49.15529" lon="-0.37993">
        <ele>5</ele>
        <time>2023-05-02T14:01:31Z</time>
      </trkpt>
      <trkpt lat="49.15535" lon="-0.37995">
        <ele>5</ele>
        <time>2023-05-02T14:01:32Z</time>
      </trkpt>
      <trkpt lat="49.15541" lon="-0.37997">
        <ele>5</ele>
        <time>2023-05-02T14:01:33Z</time>
      </trkpt>
      <trkpt lat="49.15547" lon="-0.38">
        <ele>5</ele>
        <time>2023-05-02T14:01:34Z</time>
      </trkpt>
      <trkpt lat="49.15552" lon="-0.38002">
        <ele>5</ele>
        <time>2023-05-02T14:01:35Z</time>
      </trkpt>
      <trkpt lat="49.15558" lon="-0.38005">
        <ele>5</ele>
        <time>2023-05-02T14:01:36Z</time>
      </trkpt>
      <trkpt lat="49.15564" lon="-0.38008">
        <ele>5</ele>
        <time>2023-05-02T14:01:37Z</time>
      </trkpt>
      <trkpt lat="49.1557" lon="-0.38011">
        <ele>5</ele>
        <time>2023-05-02T14:01:38Z</time>
      </trkpt>
      <trkpt lat="49.15576" lon="-0.38013">
        <ele>5</ele>
        <time>2023-05-02T14:01:39Z</time>
      </trkpt>
      <trkpt lat="49.15583" lon="-0.38016">
        <ele>5</ele>
        <time>2023-05-02T14:01:40Z</time>
      </trkpt>
      <trkpt lat="49.15589" lon="-0.38017">
        <ele>5.2</ele>
        <time>2023-05-02T14:01:41Z</time>
      </trkpt>
      <trkpt lat="49.15595" lon="-0.38019">
        <ele>5.6</ele>
        <time>2023-05-02T14:01:42Z</time>
      </trkpt>
      <trkpt lat="49.15602" lon="-0.3802">
        <ele>5.8</ele>
        <time>2023-05-02T14:01:43Z</time>
      </trkpt>
      <trkpt lat="49.15608" lon="-0.38022">
        <ele>6</ele>
        <time>2023-05-02T14:01:44Z</time>
      </trkpt>
      <trkpt lat="49.15615" lon="-0.38024">
        <ele>6.4</ele>
        <time>2023-05-02T14:01:45Z</time>
      </trkpt>
      <trkpt lat="49.15621" lon="-0.38026">
        <ele>6.6</ele>
        <time>2023-05-02T14:01:46Z</time>
      </trkpt>
      <trkpt lat="49.15628" lon="-0.38028">
        <ele>6.8</ele>
        <time>2023-05-02T14:01:47Z</time>
      </trkpt>
      <trkpt lat="49.15634" lon="-0.38031">
        <ele>7</ele>
        <time>2023-05-02T14:01:48Z</time>
      </trkpt>
      <trkpt lat="49.15641" lon="-0.38034">
        <ele>7.2</ele>
        <time>2023-05-02T14:01:49Z</time>
      </trkpt>
      <trkpt lat="49.15647" lon="-0.38037">
        <ele>7.4</ele>
        <time>2023-05-02T14:01:50Z</time>
      </trkpt>
      <trkpt lat="49.15654" lon="-0.3804">
        <ele>7.6</ele>
        <time>2023-05-02T14:01:51Z</time>
      </trkpt>
      <trkpt lat="49.15661" lon="-0.38042">
        <ele>7.8</ele>
        <time>2023-05-02T14:01:52Z</time>
      </trkpt>
      <trkpt lat="49.15667" lon="-0.38043">
        <ele>8</ele>
        <time>2023-05-02T14:01:53Z</time>
      </trkpt>
      <trkpt lat="49.15673" lon="-0.38041">
        <ele>8</ele>
        <time>2023-05-02T14:01:54Z</time>
      </trkpt>
      <trkpt lat="49.15677" lon="-0.38035">
        <ele>8.2</ele>
        <time>2023-05-02T14:01:55Z</time>
      </trkpt>
      <trkpt lat="49.15681" lon="-0.38027">
        <ele>8.2</ele>
        <time>2023-05-02T14:01:56Z</time>
      </trkpt>
      <trkpt lat="49.15684" lon="-0.38018">
        <ele>8.4</ele>
        <time>2023-05-02T14:01:57Z</time>
      </trkpt>
      <trkpt lat="49.15687" lon="-0.3801">
        <ele>8.6</ele>
        <time>2023-05-02T14:01:58Z</time>
      </trkpt>
      <trkpt lat="49.15691" lon="-0.38001">
        <ele>8.6</ele>
        <time>2023-05-02T14:01:59Z</time>
      </trkpt>
      <trkpt lat="49.15695" lon="-0.37993">
        <ele>8.4</ele>
        <time>2023-05-02T14:02:00Z</time>
      </trkpt>
      <trkpt lat="49.157" lon="-0.37986">
        <ele>8.2</ele>
        <time>2023-05-02T14:02:01Z</time>
      </trkpt>
      <trkpt lat="49.15705" lon="-0.37979">
        <ele>8</ele>
        <time>2023-05-02T14:02:02Z</time>
      </trkpt>
      <trkpt lat="49.15709" lon="-0.37972">
        <ele>7.6</ele>
        <time>2023-05-02T14:02:03Z</time>
      </trkpt>
      <trkpt lat="49.15715" lon="-0.37967">
        <ele>7.6</ele>
        <time>2023-05-02T14:02:04Z</time>
      </trkpt>
      <trkpt lat="49.1572" lon="-0.37963">
        <ele>7.4</ele>
        <time>2023-05-02T14:02:05Z</time>
      </trkpt>
      <trkpt lat="49.15725" lon="-0.37958">
        <ele>7</ele>
        <time>2023-05-02T14:02:06Z</time>
      </trkpt>
      <trkpt lat="49.15729" lon="-0.37954">
        <ele>7</ele>
        <time>2023-05-02T14:02:07Z</time>
      </trkpt>
      <trkpt lat="49.15732" lon="-0.3795">
        <ele>7</ele>
        <time>2023-05-02T14:02:08Z</time>
      </trkpt>
      <trkpt lat="49.15735" lon="-0.37948">
        <ele>6.8</ele>
        <time>2023-05-02T14:02:09Z</time>
      </trkpt>
      <trkpt lat="49.1574" lon="-0.37946">
        <ele>6.8</ele>
        <time>2023-05-02T14:02:10Z</time>
      </trkpt>
      <trkpt lat="49.15744" lon="-0.37946">
        <ele>6.6</ele>
        <time>2023-05-02T14:02:11Z</time>
      </trkpt>
      <trkpt lat="49.15749" lon="-0.37948">
        <ele>6.6</ele>
        <time>2023-05-02T14:02:12Z</time>
      </trkpt>
      <trkpt lat="49.15753" lon="-0.37951">
        <ele>7</ele>
        <time>2023-05-02T14:02:13Z</time>
      </trkpt>
      <trkpt lat="49.15758" lon="-0.37954">
        <ele>7</ele>
        <time>2023-05-02T14:02:14Z</time>
      </trkpt>
      <trkpt lat="49.15762" lon="-0.37956">
        <ele>7.2</ele>
        <time>2023-05-02T14:02:15Z</time>
      </trkpt>
      <trkpt lat="49.15767" lon="-0.37954">
        <ele>7.2</ele>
        <time>2023-05-02T14:02:16Z</time>
      </trkpt>
      <trkpt lat="49.15772" lon="-0.37951">
        <ele>7.4</ele>
        <time>2023-05-02T14:02:17Z</time>
      </trkpt>
      <trkpt lat="49.15777" lon="-0.37947">
        <ele>7.4</ele>
        <time>2023-05-02T14:02:18Z</time>
      </trkpt>
      <trkpt lat="49.15782" lon="-0.37944">
        <ele>7.4</ele>
        <time>2023-05-02T14:02:19Z</time>
      </trkpt>
      <trkpt lat="49.15787" lon="-0.37941">
        <ele>7.4</ele>
        <time>2023-05-02T14:02:20Z</time>
      </trkpt>
      <trkpt lat="49.15791" lon="-0.37938">
        <ele>7.4</ele>
        <time>2023-05-02T14:02:21Z</time>
      </trkpt>
      <trkpt lat="49.15796" lon="-0.37935">
        <ele>7.4</ele>
        <time>2023-05-02T14:02:22Z</time>
      </trkpt>
      <trkpt lat="49.158" lon="-0.37932">
        <ele>7.6</ele>
        <time>2023-05-02T14:02:23Z</time>
      </trkpt>
      <trkpt lat="49.15805" lon="-0.37929">
        <ele>7.6</ele>
        <time>2023-05-02T14:02:24Z</time>
      </trkpt>
      <trkpt lat="49.15811" lon="-0.37926">
        <ele>7.6</ele>
        <time>2023-05-02T14:02:25Z</time>
      </trkpt>
      <trkpt lat="49.15817" lon="-0.37923">
        <ele>7.6</ele>
        <time>2023-05-02T14:02:26Z</time>
      </trkpt>
      <trkpt lat="49.15824" lon="-0.3792">
        <ele>7.8</ele>
        <time>2023-05-02T14:02:27Z</time>
      </trkpt>
      <trkpt lat="49.1583" lon="-0.37917">
        <ele>8</ele>
        <time>2023-05-02T14:02:28Z</time>
      </trkpt>
      <trkpt lat="49.15835" lon="-0.37914">
        <ele>8</ele>
        <time>2023-05-02T14:02:29Z</time>
      </trkpt>
      <trkpt lat="49.15841" lon="-0.37911">
        <ele>8</ele>
        <time>2023-05-02T14:02:30Z</time>
      </trkpt>
      <trkpt lat="49.15846" lon="-0.37908">
        <ele>8</ele>
        <time>2023-05-02T14:02:31Z</time>
      </trkpt>
      <trkpt lat="49.15852" lon="-0.37905">
        <ele>8</ele>
        <time>2023-05-02T14:02:32Z</time>
      </trkpt>
      <trkpt lat="49.15857" lon="-0.37901">
        <ele>8</ele>
        <time>2023-05-02T14:02:33Z</time>
      </trkpt>
      <trkpt lat="49.15863" lon="-0.37897">
        <ele>8</ele>
        <time>2023-05-02T14:02:34Z</time>
      </trkpt>
      <trkpt lat="49.15869" lon="-0.37892">
        <ele>7.8</ele>
        <time>2023-05-02T14:02:35Z</time>
      </trkpt>
      <trkpt lat="49.15875" lon="-0.37888">
        <ele>7.8</ele>
        <time>2023-05-02T14:02:36Z</time>
      </trkpt>
      <trkpt lat="49.15881" lon="-0.37885">
        <ele>7.8</ele>
        <time>2023-05-02T14:02:37Z</time>
      </trkpt>
      <trkpt lat="49.15886" lon="-0.37882">
        <ele>7.8</ele>
        <time>2023-05-02T14:02:38Z</time>
      </trkpt>
      <trkpt lat="49.15892" lon="-0.37879">
        <ele>7.8</ele>
        <time>2023-05-02T14:02:39Z</time>
      </trkpt>
      <trkpt lat="49.15896" lon="-0.37876">
        <ele>7.8</ele>
        <time>2023-05-02T14:02:40Z</time>
      </trkpt>
      <trkpt lat="49.15902" lon="-0.37872">
        <ele>7.8</ele>
        <time>2023-05-02T14:02:41Z</time>
      </trkpt>
      <trkpt lat="49.15907" lon="-0.37869">
        <ele>7.6</ele>
        <time>2023-05-02T14:02:42Z</time>
      </trkpt>
      <trkpt lat="49.15912" lon="-0.37865">
        <ele>7.6</ele>
        <time>2023-05-02T14:02:43Z</time>
      </trkpt>
      <trkpt lat="49.15918" lon="-0.37862">
        <ele>7.6</ele>
        <time>2023-05-02T14:02:44Z</time>
      </trkpt>
      <trkpt lat="49.15924" lon="-0.37858">
        <ele>7.8</ele>
        <time>2023-05-02T14:02:45Z</time>
      </trkpt>
      <trkpt lat="49.15931" lon="-0.37855">
        <ele>7.8</ele>
        <time>2023-05-02T14:02:46Z</time>
      </trkpt>
      <trkpt lat="49.15937" lon="-0.37852">
        <ele>8</ele>
        <time>2023-05-02T14:02:47Z</time>
      </trkpt>
      <trkpt lat="49.15943" lon="-0.37848">
        <ele>8</ele>
        <time>2023-05-02T14:02:48Z</time>
      </trkpt>
      <trkpt lat="49.15949" lon="-0.37844">
        <ele>8</ele>
        <time>2023-05-02T14:02:49Z</time>
      </trkpt>
      <trkpt lat="49.15955" lon="-0.3784">
        <ele>8.2</ele>
        <time>2023-05-02T14:02:50Z</time>
      </trkpt>
      <trkpt lat="49.15962" lon="-0.37835">
        <ele>8.2</ele>
        <time>2023-05-02T14:02:51Z</time>
      </trkpt>
      <trkpt lat="49.15969" lon="-0.37831">
        <ele>8.2</ele>
        <time>2023-05-02T14:02:52Z</time>
      </trkpt>
      <trkpt lat="49.15975" lon="-0.37828">
        <ele>8.2</ele>
        <time>2023-05-02T14:02:53Z</time>
      </trkpt>
      <trkpt lat="49.15981" lon="-0.37824">
        <ele>8</ele>
        <time>2023-05-02T14:02:54Z</time>
      </trkpt>
      <trkpt lat="49.15987" lon="-0.3782">
        <ele>8</ele>
        <time>2023-05-02T14:02:55Z</time>
      </trkpt>
      <trkpt lat="49.15993" lon="-0.37816">
        <ele>7.8</ele>
        <time>2023-05-02T14:02:56Z</time>
      </trkpt>
      <trkpt lat="49.16" lon="-0.37812">
        <ele>7.6</ele>
        <time>2023-05-02T14:02:57Z</time>
      </trkpt>
      <trkpt lat="49.16006" lon="-0.37807">
        <ele>7.6</ele>
        <time>2023-05-02T14:02:58Z</time>
      </trkpt>
      <trkpt lat="49.16013" lon="-0.37803">
        <ele>7.6</ele>
        <time>2023-05-02T14:02:59Z</time>
      </trkpt>
      <trkpt lat="49.1602" lon="-0.37799">
        <ele>7.4</ele>
        <time>2023-05-02T14:03:00Z</time>
      </trkpt>
      <trkpt lat="49.16027" lon="-0.37794">
        <ele>7.4</ele>
        <time>2023-05-02T14:03:01Z</time>
      </trkpt>
      <trkpt lat="49.16033" lon="-0.3779">
        <ele>7.2</ele>
        <time>2023-05-02T14:03:02Z</time>
      </trkpt>
      <trkpt lat="49.1604" lon="-0.37786">
        <ele>7.2</ele>
        <time>2023-05-02T14:03:03Z</time>
      </trkpt>
      <trkpt lat="49.16046" lon="-0.37781">
        <ele>7</ele>
        <time>2023-05-02T14:03:04Z</time>
      </trkpt>
      <trkpt lat="49.16053" lon="-0.37777">
        <ele>7</ele>
        <time>2023-05-02T14:03:05Z</time>
      </trkpt>
      <trkpt lat="49.16059" lon="-0.37773">
        <ele>7</ele>
        <time>2023-05-02T14:03:06Z</time>
      </trkpt>
      <trkpt lat="49.16066" lon="-0.37769">
        <ele>7.2</ele>
        <time>2023-05-02T14:03:07Z</time>
      </trkpt>
      <trkpt lat="49.16072" lon="-0.37765">
        <ele>7.2</ele>
        <time>2023-05-02T14:03:08Z</time>
      </trkpt>
      <trkpt lat="49.16078" lon="-0.37761">
        <ele>7.2</ele>
        <time>2023-05-02T14:03:09Z</time>
      </trkpt>
      <trkpt lat="49.16085" lon="-0.37757">
        <ele>7.4</ele>
        <time>2023-05-02T14:03:10Z</time>
      </trkpt>
      <trkpt lat="49.16091" lon="-0.37754">
        <ele>7</ele>
        <time>2023-05-02T14:03:11Z</time>
      </trkpt>
      <trkpt lat="49.16098" lon="-0.3775">
        <ele>7</ele>
        <time>2023-05-02T14:03:12Z</time>
      </trkpt>
      <trkpt lat="49.16104" lon="-0.37746">
        <ele>7</ele>
        <time>2023-05-02T14:03:13Z</time>
      </trkpt>
      <trkpt lat="49.16111" lon="-0.37742">
        <ele>6.8</ele>
        <time>2023-05-02T14:03:14Z</time>
      </trkpt>
      <trkpt lat="49.16117" lon="-0.37738">
        <ele>6.6</ele>
        <time>2023-05-02T14:03:15Z</time>
      </trkpt>
      <trkpt lat="49.16122" lon="-0.37734">
        <ele>6.6</ele>
        <time>2023-05-02T14:03:16Z</time>
      </trkpt>
      <trkpt lat="49.16128" lon="-0.37731">
        <ele>6.6</ele>
        <time>2023-05-02T14:03:17Z</time>
      </trkpt>
      <trkpt lat="49.16134" lon="-0.37727">
        <ele>6.4</ele>
        <time>2023-05-02T14:03:18Z</time>
      </trkpt>
      <trkpt lat="49.16141" lon="-0.37722">
        <ele>6.4</ele>
        <time>2023-05-02T14:03:19Z</time>
      </trkpt>
      <trkpt lat="49.16148" lon="-0.37718">
        <ele>6.2</ele>
        <time>2023-05-02T14:03:20Z</time>
      </trkpt>
      <trkpt lat="49.16155" lon="-0.37714">
        <ele>6</ele>
        <time>2023-05-02T14:03:21Z</time>
      </trkpt>
      <trkpt lat="49.16161" lon="-0.3771">
        <ele>6</ele>
        <time>2023-05-02T14:03:22Z</time>
      </trkpt>
      <trkpt lat="49.16167" lon="-0.37706">
        <ele>6</ele>
        <time>2023-05-02T14:03:23Z</time>
      </trkpt>
      <trkpt lat="49.16173" lon="-0.37703">
        <ele>6</ele>
        <time>2023-05-02T14:03:24Z</time>
      </trkpt>
      <trkpt lat="49.16179" lon="-0.37699">
        <ele>6.4</ele>
        <time>2023-05-02T14:03:25Z</time>
      </trkpt>
      <trkpt lat="49.16185" lon="-0.37695">
        <ele>6.6</ele>
        <time>2023-05-02T14:03:26Z</time>
      </trkpt>
      <trkpt lat="49.16191" lon="-0.37691">
        <ele>6.6</ele>
        <time>2023-05-02T14:03:27Z</time>
      </trkpt>
      <trkpt lat="49.16197" lon="-0.37687">
        <ele>7</ele>
        <time>2023-05-02T14:03:28Z</time>
      </trkpt>
      <trkpt lat="49.16203" lon="-0.37684">
        <ele>7</ele>
        <time>2023-05-02T14:03:29Z</time>
      </trkpt>
      <trkpt lat="49.16209" lon="-0.37681">
        <ele>7.4</ele>
        <time>2023-05-02T14:03:30Z</time>
      </trkpt>
      <trkpt lat="49.16214" lon="-0.37677">
        <ele>7.6</ele>
        <time>2023-05-02T14:03:31Z</time>
      </trkpt>
      <trkpt lat="49.1622" lon="-0.37674">
        <ele>7.6</ele>
        <time>2023-05-02T14:03:32Z</time>
      </trkpt>
      <trkpt lat="49.16225" lon="-0.3767">
        <ele>7.8</ele>
        <time>2023-05-02T14:03:33Z</time>
      </trkpt>
      <trkpt lat="49.1623" lon="-0.37667">
        <ele>8</ele>
        <time>2023-05-02T14:03:34Z</time>
      </trkpt>
      <trkpt lat="49.16236" lon="-0.37663">
        <ele>8.2</ele>
        <time>2023-05-02T14:03:35Z</time>
      </trkpt>
      <trkpt lat="49.16242" lon="-0.37659">
        <ele>8.4</ele>
        <time>2023-05-02T14:03:36Z</time>
      </trkpt>
      <trkpt lat="49.16247" lon="-0.37655">
        <ele>8.4</ele>
        <time>2023-05-02T14:03:37Z</time>
      </trkpt>
      <trkpt lat="49.16253" lon="-0.37652">
        <ele>8.4</ele>
        <time>2023-05-02T14:03:38Z</time>
      </trkpt>
      <trkpt lat="49.16259" lon="-0.37648">
        <ele>8.4</ele>
        <time>2023-05-02T14:03:39Z</time>
      </trkpt>
      <trkpt lat="49.16264" lon="-0.37645">
        <ele>8.2</ele>
        <time>2023-05-02T14:03:40Z</time>
      </trkpt>
      <trkpt lat="49.16269" lon="-0.37642">
        <ele>8.2</ele>
        <time>2023-05-02T14:03:41Z</time>
      </trkpt>
      <trkpt lat="49.16274" lon="-0.37639">
        <ele>8.2</ele>
        <time>2023-05-02T14:03:42Z</time>
      </trkpt>
      <trkpt lat="49.16279" lon="-0.37636">
        <ele>8.2</ele>
        <time>2023-05-02T14:03:43Z</time>
      </trkpt>
      <trkpt lat="49.16284" lon="-0.37633">
        <ele>8.2</ele>
        <time>2023-05-02T14:03:44Z</time>
      </trkpt>
      <trkpt lat="49.16289" lon="-0.3763">
        <ele>8.2</ele>
        <time>2023-05-02T14:03:45Z</time>
      </trkpt>
      <trkpt lat="49.16293" lon="-0.37627">
        <ele>8.2</ele>
        <time>2023-05-02T14:03:46Z</time>
      </trkpt>
      <trkpt lat="49.16298" lon="-0.37624">
        <ele>8.2</ele>
        <time>2023-05-02T14:03:47Z</time>
      </trkpt>
      <trkpt lat="49.16303" lon="-0.37621">
        <ele>8.2</ele>
        <time>2023-05-02T14:03:48Z</time>
      </trkpt>
      <trkpt lat="49.16307" lon="-0.37618">
        <ele>8.2</ele>
        <time>2023-05-02T14:03:49Z</time>
      </trkpt>
      <trkpt lat="49.16311" lon="-0.37616">
        <ele>8.2</ele>
        <time>2023-05-02T14:03:50Z</time>
      </trkpt>
      <trkpt lat="49.16315" lon="-0.37614">
        <ele>8.2</ele>
        <time>2023-05-02T14:03:51Z</time>
      </trkpt>
      <trkpt lat="49.16319" lon="-0.37612">
        <ele>8.4</ele>
        <time>2023-05-02T14:03:52Z</time>
      </trkpt>
      <trkpt lat="49.16323" lon="-0.3761">
        <ele>8.4</ele>
        <time>2023-05-02T14:03:53Z</time>
      </trkpt>
      <trkpt lat="49.16326" lon="-0.37608">
        <ele>8.4</ele>
        <time>2023-05-02T14:03:54Z</time>
      </trkpt>
      <trkpt lat="49.1633" lon="-0.37606">
        <ele>8.4</ele>
        <time>2023-05-02T14:03:55Z</time>
      </trkpt>
      <trkpt lat="49.16334" lon="-0.37603">
        <ele>8.4</ele>
        <time>2023-05-02T14:03:56Z</time>
      </trkpt>
      <trkpt lat="49.16338" lon="-0.37601">
        <ele>8.2</ele>
        <time>2023-05-02T14:03:57Z</time>
      </trkpt>
      <trkpt lat="49.16342" lon="-0.37598">
        <ele>7.8</ele>
        <time>2023-05-02T14:03:58Z</time>
      </trkpt>
      <trkpt lat="49.16346" lon="-0.37595">
        <ele>7.6</ele>
        <time>2023-05-02T14:03:59Z</time>
      </trkpt>
      <trkpt lat="49.1635" lon="-0.37593">
        <ele>7.2</ele>
        <time>2023-05-02T14:04:00Z</time>
      </trkpt>
      <trkpt lat="49.16353" lon="-0.3759">
        <ele>7</ele>
        <time>2023-05-02T14:04:01Z</time>
      </trkpt>
      <trkpt lat="49.16356" lon="-0.37589">
        <ele>6.8</ele>
        <time>2023-05-02T14:04:02Z</time>
      </trkpt>
      <trkpt lat="49.16359" lon="-0.37588">
        <ele>6.6</ele>
        <time>2023-05-02T14:04:03Z</time>
      </trkpt>
      <trkpt lat="49.16363" lon="-0.37589">
        <ele>6.4</ele>
        <time>2023-05-02T14:04:04Z</time>
      </trkpt>
      <trkpt lat="49.16365" lon="-0.37591">
        <ele>6.4</ele>
        <time>2023-05-02T14:04:05Z</time>
      </trkpt>
      <trkpt lat="49.16366" lon="-0.37595">
        <ele>6.4</ele>
        <time>2023-05-02T14:04:06Z</time>
      </trkpt>
      <trkpt lat="49.16366" lon="-0.376">
        <ele>6.6</ele>
        <time>2023-05-02T14:04:07Z</time>
      </trkpt>
      <trkpt lat="49.16365" lon="-0.37606">
        <ele>6.6</ele>
        <time>2023-05-02T14:04:08Z</time>
      </trkpt>
      <trkpt lat="49.16363" lon="-0.37612">
        <ele>7</ele>
        <time>2023-05-02T14:04:09Z</time>
      </trkpt>
      <trkpt lat="49.16361" lon="-0.37619">
        <ele>7.2</ele>
        <time>2023-05-02T14:04:10Z</time>
      </trkpt>
      <trkpt lat="49.16358" lon="-0.37626">
        <ele>7.6</ele>
        <time>2023-05-02T14:04:11Z</time>
      </trkpt>
      <trkpt lat="49.16355" lon="-0.37634">
        <ele>8</ele>
        <time>2023-05-02T14:04:12Z</time>
      </trkpt>
      <trkpt lat="49.16352" lon="-0.37642">
        <ele>8.4</ele>
        <time>2023-05-02T14:04:13Z</time>
      </trkpt>
      <trkpt lat="49.16349" lon="-0.37649">
        <ele>8.6</ele>
        <time>2023-05-02T14:04:14Z</time>
      </trkpt>
      <trkpt lat="49.16346" lon="-0.37657">
        <ele>9</ele>
        <time>2023-05-02T14:04:15Z</time>
      </trkpt>
      <trkpt lat="49.16343" lon="-0.37665">
        <ele>9.4</ele>
        <time>2023-05-02T14:04:16Z</time>
      </trkpt>
      <trkpt lat="49.1634" lon="-0.37673">
        <ele>9.8</ele>
        <time>2023-05-02T14:04:17Z</time>
      </trkpt>
      <trkpt lat="49.16336" lon="-0.37681">
        <ele>10.4</ele>
        <time>2023-05-02T14:04:18Z</time>
      </trkpt>
      <trkpt lat="49.16333" lon="-0.37689">
        <ele>10.8</ele>
        <time>2023-05-02T14:04:19Z</time>
      </trkpt>
      <trkpt lat="49.1633" lon="-0.37696">
        <ele>11</ele>
        <time>2023-05-02T14:04:20Z</time>
      </trkpt>
      <trkpt lat="49.16327" lon="-0.37703">
        <ele>11.2</ele>
        <time>2023-05-02T14:04:21Z</time>
      </trkpt>
      <trkpt lat="49.16323" lon="-0.3771">
        <ele>11.4</ele>
        <time>2023-05-02T14:04:22Z</time>
      </trkpt>
      <trkpt lat="49.1632" lon="-0.37716">
        <ele>11.4</ele>
        <time>2023-05-02T14:04:23Z</time>
      </trkpt>
      <trkpt lat="49.16316" lon="-0.37723">
        <ele>11.6</ele>
        <time>2023-05-02T14:04:24Z</time>
      </trkpt>
      <trkpt lat="49.16314" lon="-0.3773">
        <ele>11.6</ele>
        <time>2023-05-02T14:04:25Z</time>
      </trkpt>
      <trkpt lat="49.16313" lon="-0.37736">
        <ele>11.8</ele>
        <time>2023-05-02T14:04:26Z</time>
      </trkpt>
      <trkpt lat="49.16314" lon="-0.37742">
        <ele>12.2</ele>
        <time>2023-05-02T14:04:27Z</time>
      </trkpt>
      <trkpt lat="49.16318" lon="-0.37747">
        <ele>12.4</ele>
        <time>2023-05-02T14:04:28Z</time>
      </trkpt>
      <trkpt lat="49.16322" lon="-0.3775">
        <ele>12.6</ele>
        <time>2023-05-02T14:04:29Z</time>
      </trkpt>
      <trkpt lat="49.16327" lon="-0.37751">
        <ele>12.8</ele>
        <time>2023-05-02T14:04:30Z</time>
      </trkpt>
      <trkpt lat="49.16333" lon="-0.37749">
        <ele>13</ele>
        <time>2023-05-02T14:04:31Z</time>
      </trkpt>
      <trkpt lat="49.16338" lon="-0.37747">
        <ele>12.8</ele>
        <time>2023-05-02T14:04:32Z</time>
      </trkpt>
      <trkpt lat="49.16343" lon="-0.37745">
        <ele>12.6</ele>
        <time>2023-05-02T14:04:33Z</time>
      </trkpt>
      <trkpt lat="49.16349" lon="-0.37743">
        <ele>12.4</ele>
        <time>2023-05-02T14:04:34Z</time>
      </trkpt>
      <trkpt lat="49.16354" lon="-0.37741">
        <ele>12.2</ele>
        <time>2023-05-02T14:04:35Z</time>
      </trkpt>
      <trkpt lat="49.1636" lon="-0.37739">
        <ele>11.8</ele>
        <time>2023-05-02T14:04:36Z</time>
      </trkpt>
      <trkpt lat="49.16365" lon="-0.37737">
        <ele>11.6</ele>
        <time>2023-05-02T14:04:37Z</time>
      </trkpt>
      <trkpt lat="49.16371" lon="-0.37735">
        <ele>11.4</ele>
        <time>2023-05-02T14:04:38Z</time>
      </trkpt>
      <trkpt lat="49.16376" lon="-0.37733">
        <ele>11.2</ele>
        <time>2023-05-02T14:04:39Z</time>
      </trkpt>
      <trkpt lat="49.16382" lon="-0.37732">
        <ele>10.8</ele>
        <time>2023-05-02T14:04:40Z</time>
      </trkpt>
      <trkpt lat="49.16387" lon="-0.3773">
        <ele>10.6</ele>
        <time>2023-05-02T14:04:41Z</time>
      </trkpt>
      <trkpt lat="49.16393" lon="-0.37729">
        <ele>10.4</ele>
        <time>2023-05-02T14:04:42Z</time>
      </trkpt>
      <trkpt lat="49.16398" lon="-0.37728">
        <ele>10</ele>
        <time>2023-05-02T14:04:43Z</time>
      </trkpt>
      <trkpt lat="49.16404" lon="-0.37727">
        <ele>9.8</ele>
        <time>2023-05-02T14:04:44Z</time>
      </trkpt>
      <trkpt lat="49.1641" lon="-0.37727">
        <ele>9.6</ele>
        <time>2023-05-02T14:04:45Z</time>
      </trkpt>
      <trkpt lat="49.16416" lon="-0.37727">
        <ele>9.4</ele>
        <time>2023-05-02T14:04:46Z</time>
      </trkpt>
      <trkpt lat="49.16421" lon="-0.37728">
        <ele>9</ele>
        <time>2023-05-02T14:04:47Z</time>
      </trkpt>
      <trkpt lat="49.16427" lon="-0.37728">
        <ele>8.6</ele>
        <time>2023-05-02T14:04:48Z</time>
      </trkpt>
      <trkpt lat="49.16433" lon="-0.37729">
        <ele>8.2</ele>
        <time>2023-05-02T14:04:49Z</time>
      </trkpt>
      <trkpt lat="49.16439" lon="-0.3773">
        <ele>7.8</ele>
        <time>2023-05-02T14:04:50Z</time>
      </trkpt>
      <trkpt lat="49.16444" lon="-0.37731">
        <ele>7.4</ele>
        <time>2023-05-02T14:04:51Z</time>
      </trkpt>
      <trkpt lat="49.1645" lon="-0.37731">
        <ele>7</ele>
        <time>2023-05-02T14:04:52Z</time>
      </trkpt>
      <trkpt lat="49.16456" lon="-0.37732">
        <ele>6.6</ele>
        <time>2023-05-02T14:04:53Z</time>
      </trkpt>
      <trkpt lat="49.16462" lon="-0.37733">
        <ele>6</ele>
        <time>2023-05-02T14:04:54Z</time>
      </trkpt>
      <trkpt lat="49.16467" lon="-0.37733">
        <ele>5.6</ele>
        <time>2023-05-02T14:04:55Z</time>
      </trkpt>
      <trkpt lat="49.16473" lon="-0.37733">
        <ele>5.2</ele>
        <time>2023-05-02T14:04:56Z</time>
      </trkpt>
      <trkpt lat="49.16479" lon="-0.37733">
        <ele>4.6</ele>
        <time>2023-05-02T14:04:57Z</time>
      </trkpt>
      <trkpt lat="49.16485" lon="-0.37733">
        <ele>4.2</ele>
        <time>2023-05-02T14:04:58Z</time>
      </trkpt>
      <trkpt lat="49.16491" lon="-0.37733">
        <ele>3.8</ele>
        <time>2023-05-02T14:04:59Z</time>
      </trkpt>
      <trkpt lat="49.16497" lon="-0.37733">
        <ele>3.2</ele>
        <time>2023-05-02T14:05:00Z</time>
      </trkpt>
      <trkpt lat="49.16503" lon="-0.37733">
        <ele>3</ele>
        <time>2023-05-02T14:05:01Z</time>
      </trkpt>
      <trkpt lat="49.16509" lon="-0.37734">
        <ele>3</ele>
        <time>2023-05-02T14:05:02Z</time>
      </trkpt>
      <trkpt lat="49.16514" lon="-0.37735">
        <ele>3</ele>
        <time>2023-05-02T14:05:03Z</time>
      </trkpt>
      <trkpt lat="49.1652" lon="-0.37736">
        <ele>3.2</ele>
        <time>2023-05-02T14:05:04Z</time>
      </trkpt>
      <trkpt lat="49.16526" lon="-0.37738">
        <ele>3.2</ele>
        <time>2023-05-02T14:05:05Z</time>
      </trkpt>
      <trkpt lat="49.16532" lon="-0.3774">
        <ele>3.2</ele>
        <time>2023-05-02T14:05:06Z</time>
      </trkpt>
      <trkpt lat="49.16537" lon="-0.37744">
        <ele>3.4</ele>
        <time>2023-05-02T14:05:07Z</time>
      </trkpt>
      <trkpt lat="49.16542" lon="-0.37748">
        <ele>3.6</ele>
        <time>2023-05-02T14:05:08Z</time>
      </trkpt>
      <trkpt lat="49.16547" lon="-0.37753">
        <ele>3.6</ele>
        <time>2023-05-02T14:05:09Z</time>
      </trkpt>
      <trkpt lat="49.16552" lon="-0.37758">
        <ele>3.8</ele>
        <time>2023-05-02T14:05:10Z</time>
      </trkpt>
      <trkpt lat="49.16556" lon="-0.37764">
        <ele>3.8</ele>
        <time>2023-05-02T14:05:11Z</time>
      </trkpt>
      <trkpt lat="49.1656" lon="-0.37771">
        <ele>4</ele>
        <time>2023-05-02T14:05:12Z</time>
      </trkpt>
      <trkpt lat="49.16563" lon="-0.37778">
        <ele>4</ele>
        <time>2023-05-02T14:05:13Z</time>
      </trkpt>
      <trkpt lat="49.16567" lon="-0.37784">
        <ele>4</ele>
        <time>2023-05-02T14:05:14Z</time>
      </trkpt>
      <trkpt lat="49.1657" lon="-0.37791">
        <ele>4</ele>
        <time>2023-05-02T14:05:15Z</time>
      </trkpt>
      <trkpt lat="49.16574" lon="-0.37796">
        <ele>4</ele>
        <time>2023-05-02T14:05:16Z</time>
      </trkpt>
      <trkpt lat="49.16577" lon="-0.37802">
        <ele>4</ele>
        <time>2023-05-02T14:05:17Z</time>
      </trkpt>
      <trkpt lat="49.16581" lon="-0.37807">
        <ele>4</ele>
        <time>2023-05-02T14:05:18Z</time>
      </trkpt>
      <trkpt lat="49.16584" lon="-0.37811">
        <ele>4</ele>
        <time>2023-05-02T14:05:19Z</time>
      </trkpt>
      <trkpt lat="49.16588" lon="-0.37815">
        <ele>4</ele>
        <time>2023-05-02T14:05:20Z</time>
      </trkpt>
      <trkpt lat="49.16589" lon="-0.37821">
        <ele>4</ele>
        <time>2023-05-02T14:05:21Z</time>
      </trkpt>
      <trkpt lat="49.16588" lon="-0.37828">
        <ele>4</ele>
        <time>2023-05-02T14:05:22Z</time>
      </trkpt>
      <trkpt lat="49.16587" lon="-0.37834">
        <ele>4</ele>
        <time>2023-05-02T14:05:23Z</time>
      </trkpt>
      <trkpt lat="49.16586" lon="-0.37841">
        <ele>4</ele>
        <time>2023-05-02T14:05:24Z</time>
      </trkpt>
      <trkpt lat="49.16584" lon="-0.37848">
        <ele>3.8</ele>
        <time>2023-05-02T14:05:25Z</time>
      </trkpt>
      <trkpt lat="49.16583" lon="-0.37855">
        <ele>3.8</ele>
        <time>2023-05-02T14:05:26Z</time>
      </trkpt>
      <trkpt lat="49.16582" lon="-0.37862">
        <ele>3.8</ele>
        <time>2023-05-02T14:05:27Z</time>
      </trkpt>
      <trkpt lat="49.1658" lon="-0.37868">
        <ele>3.8</ele>
        <time>2023-05-02T14:05:28Z</time>
      </trkpt>
      <trkpt lat="49.16579" lon="-0.37875">
        <ele>3.8</ele>
        <time>2023-05-02T14:05:29Z</time>
      </trkpt>
      <trkpt lat="49.16577" lon="-0.37881">
        <ele>3.8</ele>
        <time>2023-05-02T14:05:30Z</time>
      </trkpt>
      <trkpt lat="49.16576" lon="-0.37887">
        <ele>3.8</ele>
        <time>2023-05-02T14:05:31Z</time>
      </trkpt>
      <trkpt lat="49.16575" lon="-0.37894">
        <ele>3.8</ele>
        <time>2023-05-02T14:05:32Z</time>
      </trkpt>
      <trkpt lat="49.16574" lon="-0.37901">
        <ele>3.8</ele>
        <time>2023-05-02T14:05:33Z</time>
      </trkpt>
      <trkpt lat="49.16573" lon="-0.37909">
        <ele>3.8</ele>
        <time>2023-05-02T14:05:34Z</time>
      </trkpt>
      <trkpt lat="49.16572" lon="-0.37916">
        <ele>3.8</ele>
        <time>2023-05-02T14:05:35Z</time>
      </trkpt>
      <trkpt lat="49.16571" lon="-0.37924">
        <ele>3.8</ele>
        <time>2023-05-02T14:05:36Z</time>
      </trkpt>
      <trkpt lat="49.1657" lon="-0.37933">
        <ele>4</ele>
        <time>2023-05-02T14:05:37Z</time>
      </trkpt>
      <trkpt lat="49.16569" lon="-0.37941">
        <ele>4</ele>
        <time>2023-05-02T14:05:38Z</time>
      </trkpt>
      <trkpt lat="49.16568" lon="-0.3795">
        <ele>4.2</ele>
        <time>2023-05-02T14:05:39Z</time>
      </trkpt>
      <trkpt lat="49.16567" lon="-0.37959">
        <ele>4.4</ele>
        <time>2023-05-02T14:05:40Z</time>
      </trkpt>
      <trkpt lat="49.16566" lon="-0.37968">
        <ele>4.4</ele>
        <time>2023-05-02T14:05:41Z</time>
      </trkpt>
      <trkpt lat="49.16564" lon="-0.37977">
        <ele>4.6</ele>
        <time>2023-05-02T14:05:42Z</time>
      </trkpt>
      <trkpt lat="49.16563" lon="-0.37986">
        <ele>4.6</ele>
        <time>2023-05-02T14:05:43Z</time>
      </trkpt>
      <trkpt lat="49.16563" lon="-0.37994">
        <ele>4.6</ele>
        <time>2023-05-02T14:05:44Z</time>
      </trkpt>
      <trkpt lat="49.16562" lon="-0.38003">
        <ele>4.8</ele>
        <time>2023-05-02T14:05:45Z</time>
      </trkpt>
      <trkpt lat="49.16561" lon="-0.38011">
        <ele>4.8</ele>
        <time>2023-05-02T14:05:46Z</time>
      </trkpt>
      <trkpt lat="49.16561" lon="-0.38019">
        <ele>4.8</ele>
        <time>2023-05-02T14:05:47Z</time>
      </trkpt>
      <trkpt lat="49.1656" lon="-0.38027">
        <ele>4.8</ele>
        <time>2023-05-02T14:05:48Z</time>
      </trkpt>
      <trkpt lat="49.16559" lon="-0.38036">
        <ele>4.8</ele>
        <time>2023-05-02T14:05:49Z</time>
      </trkpt>
      <trkpt lat="49.16558" lon="-0.38044">
        <ele>4.8</ele>
        <time>2023-05-02T14:05:50Z</time>
      </trkpt>
      <trkpt lat="49.16557" lon="-0.38052">
        <ele>4.8</ele>
        <time>2023-05-02T14:05:51Z</time>
      </trkpt>
      <trkpt lat="49.16556" lon="-0.3806">
        <ele>4.8</ele>
        <time>2023-05-02T14:05:52Z</time>
      </trkpt>
      <trkpt lat="49.16556" lon="-0.38069">
        <ele>4.6</ele>
        <time>2023-05-02T14:05:53Z</time>
      </trkpt>
      <trkpt lat="49.16556" lon="-0.38077">
        <ele>4.6</ele>
        <time>2023-05-02T14:05:54Z</time>
      </trkpt>
      <trkpt lat="49.16556" lon="-0.38086">
        <ele>4.6</ele>
        <time>2023-05-02T14:05:55Z</time>
      </trkpt>
      <trkpt lat="49.16556" lon="-0.38095">
        <ele>4.8</ele>
        <time>2023-05-02T14:05:56Z</time>
      </trkpt>
      <trkpt lat="49.16556" lon="-0.38104">
        <ele>5</ele>
        <time>2023-05-02T14:05:57Z</time>
      </trkpt>
      <trkpt lat="49.16555" lon="-0.38113">
        <ele>5</ele>
        <time>2023-05-02T14:05:58Z</time>
      </trkpt>
      <trkpt lat="49.16555" lon="-0.38123">
        <ele>5</ele>
        <time>2023-05-02T14:05:59Z</time>
      </trkpt>
      <trkpt lat="49.16554" lon="-0.38132">
        <ele>5.2</ele>
        <time>2023-05-02T14:06:00Z</time>
      </trkpt>
      <trkpt lat="49.16554" lon="-0.38142">
        <ele>5.4</ele>
        <time>2023-05-02T14:06:01Z</time>
      </trkpt>
      <trkpt lat="49.16553" lon="-0.38151">
        <ele>5.6</ele>
        <time>2023-05-02T14:06:02Z</time>
      </trkpt>
      <trkpt lat="49.16553" lon="-0.38161">
        <ele>5.6</ele>
        <time>2023-05-02T14:06:03Z</time>
      </trkpt>
      <trkpt lat="49.16553" lon="-0.38171">
        <ele>5.6</ele>
        <time>2023-05-02T14:06:04Z</time>
      </trkpt>
      <trkpt lat="49.16553" lon="-0.3818">
        <ele>5.6</ele>
        <time>2023-05-02T14:06:05Z</time>
      </trkpt>
      <trkpt lat="49.16553" lon="-0.3819">
        <ele>5.4</ele>
        <time>2023-05-02T14:06:06Z</time>
      </trkpt>
      <trkpt lat="49.16553" lon="-0.382">
        <ele>5.4</ele>
        <time>2023-05-02T14:06:07Z</time>
      </trkpt>
      <trkpt lat="49.16553" lon="-0.3821">
        <ele>5.4</ele>
        <time>2023-05-02T14:06:08Z</time>
      </trkpt>
      <trkpt lat="49.16554" lon="-0.3822">
        <ele>5.2</ele>
        <time>2023-05-02T14:06:09Z</time>
      </trkpt>
      <trkpt lat="49.16554" lon="-0.3823">
        <ele>5</ele>
        <time>2023-05-02T14:06:10Z</time>
      </trkpt>
      <trkpt lat="49.16554" lon="-0.3824">
        <ele>5</ele>
        <time>2023-05-02T14:06:11Z</time>
      </trkpt>
      <trkpt lat="49.16554" lon="-0.3825">
        <ele>5</ele>
        <time>2023-05-02T14:06:12Z</time>
      </trkpt>
      <trkpt lat="49.16554" lon="-0.3826">
        <ele>5</ele>
        <time>2023-05-02T14:06:13Z</time>
      </trkpt>
      <trkpt lat="49.16554" lon="-0.3827">
        <ele>5</ele>
        <time>2023-05-02T14:06:14Z</time>
      </trkpt>
      <trkpt lat="49.16554" lon="-0.3828">
        <ele>5</ele>
        <time>2023-05-02T14:06:15Z</time>
      </trkpt>
      <trkpt lat="49.16554" lon="-0.38289">
        <ele>5</ele>
        <time>2023-05-02T14:06:16Z</time>
      </trkpt>
      <trkpt lat="49.16554" lon="-0.38299">
        <ele>5.2</ele>
        <time>2023-05-02T14:06:17Z</time>
      </trkpt>
      <trkpt lat="49.16554" lon="-0.38309">
        <ele>5.2</ele>
        <time>2023-05-02T14:06:18Z</time>
      </trkpt>
      <trkpt lat="49.16554" lon="-0.38319">
        <ele>5.2</ele>
        <time>2023-05-02T14:06:19Z</time>
      </trkpt>
      <trkpt lat="49.16554" lon="-0.38328">
        <ele>5.4</ele>
        <time>2023-05-02T14:06:20Z</time>
      </trkpt>
      <trkpt lat="49.16555" lon="-0.38338">
        <ele>5.4</ele>
        <time>2023-05-02T14:06:21Z</time>
      </trkpt>
      <trkpt lat="49.16555" lon="-0.38348">
        <ele>5.4</ele>
        <time>2023-05-02T14:06:22Z</time>
      </trkpt>
      <trkpt lat="49.16555" lon="-0.38358">
        <ele>5.2</ele>
        <time>2023-05-02T14:06:23Z</time>
      </trkpt>
      <trkpt lat="49.16555" lon="-0.38368">
        <ele>5.2</ele>
        <time>2023-05-02T14:06:24Z</time>
      </trkpt>
      <trkpt lat="49.16556" lon="-0.38378">
        <ele>5.2</ele>
        <time>2023-05-02T14:06:25Z</time>
      </trkpt>
      <trkpt lat="49.16556" lon="-0.38388">
        <ele>5</ele>
        <time>2023-05-02T14:06:26Z</time>
      </trkpt>
      <trkpt lat="49.16556" lon="-0.38399">
        <ele>5</ele>
        <time>2023-05-02T14:06:27Z</time>
      </trkpt>
      <trkpt lat="49.16556" lon="-0.3841">
        <ele>5</ele>
        <time>2023-05-02T14:06:28Z</time>
      </trkpt>
      <trkpt lat="49.16556" lon="-0.3842">
        <ele>5</ele>
        <time>2023-05-02T14:06:29Z</time>
      </trkpt>
      <trkpt lat="49.16556" lon="-0.38431">
        <ele>5</ele>
        <time>2023-05-02T14:06:30Z</time>
      </trkpt>
      <trkpt lat="49.16556" lon="-0.38441">
        <ele>5</ele>
        <time>2023-05-02T14:06:31Z</time>
      </trkpt>
      <trkpt lat="49.16557" lon="-0.38452">
        <ele>5</ele>
        <time>2023-05-02T14:06:32Z</time>
      </trkpt>
      <trkpt lat="49.16557" lon="-0.38462">
        <ele>5</ele>
        <time>2023-05-02T14:06:33Z</time>
      </trkpt>
      <trkpt lat="49.16557" lon="-0.38472">
        <ele>5</ele>
        <time>2023-05-02T14:06:34Z</time>
      </trkpt>
      <trkpt lat="49.16558" lon="-0.38483">
        <ele>5</ele>
        <time>2023-05-02T14:06:35Z</time>
      </trkpt>
      <trkpt lat="49.16558" lon="-0.38493">
        <ele>5</ele>
        <time>2023-05-02T14:06:36Z</time>
      </trkpt>
      <trkpt lat="49.16558" lon="-0.38503">
        <ele>5</ele>
        <time>2023-05-02T14:06:37Z</time>
      </trkpt>
      <trkpt lat="49.16558" lon="-0.38514">
        <ele>5</ele>
        <time>2023-05-02T14:06:38Z</time>
      </trkpt>
      <trkpt lat="49.16558" lon="-0.38523">
        <ele>5</ele>
        <time>2023-05-02T14:06:39Z</time>
      </trkpt>
      <trkpt lat="49.16558" lon="-0.38531">
        <ele>5</ele>
        <time>2023-05-02T14:06:40Z</time>
      </trkpt>
      <trkpt lat="49.16559" lon="-0.3854">
        <ele>5</ele>
        <time>2023-05-02T14:06:41Z</time>
      </trkpt>
      <trkpt lat="49.16558" lon="-0.38549">
        <ele>5</ele>
        <time>2023-05-02T14:06:42Z</time>
      </trkpt>
      <trkpt lat="49.16558" lon="-0.38559">
        <ele>5</ele>
        <time>2023-05-02T14:06:43Z</time>
      </trkpt>
      <trkpt lat="49.16558" lon="-0.38568">
        <ele>5</ele>
        <time>2023-05-02T14:06:44Z</time>
      </trkpt>
      <trkpt lat="49.16558" lon="-0.38578">
        <ele>5</ele>
        <time>2023-05-02T14:06:45Z</time>
      </trkpt>
      <trkpt lat="49.16558" lon="-0.38587">
        <ele>5</ele>
        <time>2023-05-02T14:06:46Z</time>
      </trkpt>
      <trkpt lat="49.16558" lon="-0.38597">
        <ele>5</ele>
        <time>2023-05-02T14:06:47Z</time>
      </trkpt>
      <trkpt lat="49.16558" lon="-0.38607">
        <ele>5</ele>
        <time>2023-05-02T14:06:48Z</time>
      </trkpt>
      <trkpt lat="49.16558" lon="-0.38616">
        <ele>5</ele>
        <time>2023-05-02T14:06:49Z</time>
      </trkpt>
      <trkpt lat="49.16559" lon="-0.38626">
        <ele>5</ele>
        <time>2023-05-02T14:06:50Z</time>
      </trkpt>
      <trkpt lat="49.16559" lon="-0.38636">
        <ele>5</ele>
        <time>2023-05-02T14:06:51Z</time>
      </trkpt>
      <trkpt lat="49.16559" lon="-0.38646">
        <ele>5</ele>
        <time>2023-05-02T14:06:52Z</time>
      </trkpt>
      <trkpt lat="49.16559" lon="-0.38656">
        <ele>5</ele>
        <time>2023-05-02T14:06:53Z</time>
      </trkpt>
      <trkpt lat="49.1656" lon="-0.38666">
        <ele>5</ele>
        <time>2023-05-02T14:06:54Z</time>
      </trkpt>
      <trkpt lat="49.1656" lon="-0.38675">
        <ele>5.2</ele>
        <time>2023-05-02T14:06:55Z</time>
      </trkpt>
      <trkpt lat="49.1656" lon="-0.38684">
        <ele>5.2</ele>
        <time>2023-05-02T14:06:56Z</time>
      </trkpt>
      <trkpt lat="49.1656" lon="-0.38692">
        <ele>5.2</ele>
        <time>2023-05-02T14:06:57Z</time>
      </trkpt>
      <trkpt lat="49.1656" lon="-0.387">
        <ele>5.4</ele>
        <time>2023-05-02T14:06:58Z</time>
      </trkpt>
      <trkpt lat="49.1656" lon="-0.38708">
        <ele>5.4</ele>
        <time>2023-05-02T14:06:59Z</time>
      </trkpt>
      <trkpt lat="49.1656" lon="-0.38716">
        <ele>5.4</ele>
        <time>2023-05-02T14:07:00Z</time>
      </trkpt>
      <trkpt lat="49.1656" lon="-0.38725">
        <ele>5.4</ele>
        <time>2023-05-02T14:07:01Z</time>
      </trkpt>
      <trkpt lat="49.16561" lon="-0.38735">
        <ele>5.4</ele>
        <time>2023-05-02T14:07:02Z</time>
      </trkpt>
      <trkpt lat="49.16563" lon="-0.38742">
        <ele>5.6</ele>
        <time>2023-05-02T14:07:03Z</time>
      </trkpt>
      <trkpt lat="49.16567" lon="-0.38747">
        <ele>5.6</ele>
        <time>2023-05-02T14:07:04Z</time>
      </trkpt>
      <trkpt lat="49.16571" lon="-0.38749">
        <ele>5.6</ele>
        <time>2023-05-02T14:07:05Z</time>
      </trkpt>
      <trkpt lat="49.16575" lon="-0.38748">
        <ele>5.8</ele>
        <time>2023-05-02T14:07:06Z</time>
      </trkpt>
      <trkpt lat="49.16576" lon="-0.38744">
        <ele>5.8</ele>
        <time>2023-05-02T14:07:07Z</time>
      </trkpt>
      <trkpt lat="49.16577" lon="-0.38737">
        <ele>5.8</ele>
        <time>2023-05-02T14:07:08Z</time>
      </trkpt>
      <trkpt lat="49.16578" lon="-0.3873">
        <ele>6</ele>
        <time>2023-05-02T14:07:09Z</time>
      </trkpt>
      <trkpt lat="49.16579" lon="-0.38722">
        <ele>6</ele>
        <time>2023-05-02T14:07:10Z</time>
      </trkpt>
      <trkpt lat="49.16581" lon="-0.38714">
        <ele>6</ele>
        <time>2023-05-02T14:07:11Z</time>
      </trkpt>
      <trkpt lat="49.16583" lon="-0.38706">
        <ele>6</ele>
        <time>2023-05-02T14:07:12Z</time>
      </trkpt>
      <trkpt lat="49.16585" lon="-0.38698">
        <ele>6</ele>
        <time>2023-05-02T14:07:13Z</time>
      </trkpt>
      <trkpt lat="49.16588" lon="-0.3869">
        <ele>6</ele>
        <time>2023-05-02T14:07:14Z</time>
      </trkpt>
      <trkpt lat="49.16592" lon="-0.38683">
        <ele>6</ele>
        <time>2023-05-02T14:07:15Z</time>
      </trkpt>
      <trkpt lat="49.16595" lon="-0.38675">
        <ele>6</ele>
        <time>2023-05-02T14:07:16Z</time>
      </trkpt>
      <trkpt lat="49.16599" lon="-0.38668">
        <ele>6</ele>
        <time>2023-05-02T14:07:17Z</time>
      </trkpt>
      <trkpt lat="49.16602" lon="-0.3866">
        <ele>6</ele>
        <time>2023-05-02T14:07:18Z</time>
      </trkpt>
      <trkpt lat="49.16604" lon="-0.38652">
        <ele>6</ele>
        <time>2023-05-02T14:07:19Z</time>
      </trkpt>
      <trkpt lat="49.16605" lon="-0.38644">
        <ele>6</ele>
        <time>2023-05-02T14:07:20Z</time>
      </trkpt>
      <trkpt lat="49.16605" lon="-0.38636">
        <ele>6</ele>
        <time>2023-05-02T14:07:21Z</time>
      </trkpt>
      <trkpt lat="49.16603" lon="-0.38629">
        <ele>6</ele>
        <time>2023-05-02T14:07:22Z</time>
      </trkpt>
      <trkpt lat="49.166" lon="-0.38622">
        <ele>6</ele>
        <time>2023-05-02T14:07:23Z</time>
      </trkpt>
      <trkpt lat="49.16596" lon="-0.38616">
        <ele>6</ele>
        <time>2023-05-02T14:07:24Z</time>
      </trkpt>
      <trkpt lat="49.16592" lon="-0.38609">
        <ele>6</ele>
        <time>2023-05-02T14:07:25Z</time>
      </trkpt>
      <trkpt lat="49.16588" lon="-0.38602">
        <ele>6</ele>
        <time>2023-05-02T14:07:26Z</time>
      </trkpt>
      <trkpt lat="49.16585" lon="-0.38596">
        <ele>6</ele>
        <time>2023-05-02T14:07:27Z</time>
      </trkpt>
      <trkpt lat="49.16583" lon="-0.38589">
        <ele>6</ele>
        <time>2023-05-02T14:07:28Z</time>
      </trkpt>
      <trkpt lat="49.16582" lon="-0.38583">
        <ele>6</ele>
        <time>2023-05-02T14:07:29Z</time>
      </trkpt>
      <trkpt lat="49.16583" lon="-0.38578">
        <ele>6</ele>
        <time>2023-05-02T14:07:30Z</time>
      </trkpt>
      <trkpt lat="49.16585" lon="-0.38575">
        <ele>6</ele>
        <time>2023-05-02T14:07:31Z</time>
      </trkpt>
      <trkpt lat="49.16588" lon="-0.38573">
        <ele>5.8</ele>
        <time>2023-05-02T14:07:32Z</time>
      </trkpt>
      <trkpt lat="49.16592" lon="-0.38572">
        <ele>5.8</ele>
        <time>2023-05-02T14:07:33Z</time>
      </trkpt>
      <trkpt lat="49.16597" lon="-0.38571">
        <ele>5.6</ele>
        <time>2023-05-02T14:07:34Z</time>
      </trkpt>
      <trkpt lat="49.16601" lon="-0.3857">
        <ele>5.6</ele>
        <time>2023-05-02T14:07:35Z</time>
      </trkpt>
      <trkpt lat="49.16606" lon="-0.38568">
        <ele>5.6</ele>
        <time>2023-05-02T14:07:36Z</time>
      </trkpt>
      <trkpt lat="49.1661" lon="-0.38564">
        <ele>5.6</ele>
        <time>2023-05-02T14:07:37Z</time>
      </trkpt>
      <trkpt lat="49.16614" lon="-0.3856">
        <ele>5.6</ele>
        <time>2023-05-02T14:07:38Z</time>
      </trkpt>
      <trkpt lat="49.16618" lon="-0.38556">
        <ele>5.6</ele>
        <time>2023-05-02T14:07:39Z</time>
      </trkpt>
      <trkpt lat="49.16623" lon="-0.38553">
        <ele>5.6</ele>
        <time>2023-05-02T14:07:40Z</time>
      </trkpt>
      <trkpt lat="49.16628" lon="-0.3855">
        <ele>5.6</ele>
        <time>2023-05-02T14:07:41Z</time>
      </trkpt>
      <trkpt lat="49.16633" lon="-0.38548">
        <ele>5.6</ele>
        <time>2023-05-02T14:07:42Z</time>
      </trkpt>
      <trkpt lat="49.16638" lon="-0.38548">
        <ele>5.6</ele>
        <time>2023-05-02T14:07:43Z</time>
      </trkpt>
      <trkpt lat="49.16643" lon="-0.38548">
        <ele>5.6</ele>
        <time>2023-05-02T14:07:44Z</time>
      </trkpt>
      <trkpt lat="49.16647" lon="-0.38549">
        <ele>5.6</ele>
        <time>2023-05-02T14:07:45Z</time>
      </trkpt>
      <trkpt lat="49.16651" lon="-0.38548">
        <ele>5.4</ele>
        <time>2023-05-02T14:07:46Z</time>
      </trkpt>
      <trkpt lat="49.16655" lon="-0.38548">
        <ele>5.6</ele>
        <time>2023-05-02T14:07:47Z</time>
      </trkpt>
      <trkpt lat="49.16658" lon="-0.38546">
        <ele>5.6</ele>
        <time>2023-05-02T14:07:48Z</time>
      </trkpt>
      <trkpt lat="49.16661" lon="-0.38544">
        <ele>5.6</ele>
        <time>2023-05-02T14:07:49Z</time>
      </trkpt>
      <trkpt lat="49.16664" lon="-0.38542">
        <ele>5.6</ele>
        <time>2023-05-02T14:07:50Z</time>
      </trkpt>
      <trkpt lat="49.16667" lon="-0.3854">
        <ele>5.6</ele>
        <time>2023-05-02T14:07:51Z</time>
      </trkpt>
      <trkpt lat="49.1667" lon="-0.38537">
        <ele>5.6</ele>
        <time>2023-05-02T14:07:52Z</time>
      </trkpt>
      <trkpt lat="49.16674" lon="-0.38533">
        <ele>5.6</ele>
        <time>2023-05-02T14:07:53Z</time>
      </trkpt>
      <trkpt lat="49.16678" lon="-0.38529">
        <ele>5.6</ele>
        <time>2023-05-02T14:07:54Z</time>
      </trkpt>
      <trkpt lat="49.16682" lon="-0.38525">
        <ele>5.8</ele>
        <time>2023-05-02T14:07:55Z</time>
      </trkpt>
      <trkpt lat="49.16686" lon="-0.38521">
        <ele>6</ele>
        <time>2023-05-02T14:07:56Z</time>
      </trkpt>
      <trkpt lat="49.1669" lon="-0.38517">
        <ele>6</ele>
        <time>2023-05-02T14:07:57Z</time>
      </trkpt>
      <trkpt lat="49.16694" lon="-0.38512">
        <ele>6</ele>
        <time>2023-05-02T14:07:58Z</time>
      </trkpt>
      <trkpt lat="49.16698" lon="-0.38508">
        <ele>6.2</ele>
        <time>2023-05-02T14:07:59Z</time>
      </trkpt>
      <trkpt lat="49.16701" lon="-0.38502">
        <ele>6.4</ele>
        <time>2023-05-02T14:08:00Z</time>
      </trkpt>
      <trkpt lat="49.16705" lon="-0.38497">
        <ele>6.6</ele>
        <time>2023-05-02T14:08:01Z</time>
      </trkpt>
      <trkpt lat="49.16708" lon="-0.38493">
        <ele>6.6</ele>
        <time>2023-05-02T14:08:02Z</time>
      </trkpt>
      <trkpt lat="49.16712" lon="-0.38489">
        <ele>6.6</ele>
        <time>2023-05-02T14:08:03Z</time>
      </trkpt>
      <trkpt lat="49.16716" lon="-0.38487">
        <ele>6.6</ele>
        <time>2023-05-02T14:08:04Z</time>
      </trkpt>
      <trkpt lat="49.16721" lon="-0.38488">
        <ele>6.6</ele>
        <time>2023-05-02T14:08:05Z</time>
      </trkpt>
      <trkpt lat="49.16724" lon="-0.38491">
        <ele>6.6</ele>
        <time>2023-05-02T14:08:06Z</time>
      </trkpt>
      <trkpt lat="49.16728" lon="-0.38495">
        <ele>6.8</ele>
        <time>2023-05-02T14:08:07Z</time>
      </trkpt>
      <trkpt lat="49.16731" lon="-0.38501">
        <ele>6.8</ele>
        <time>2023-05-02T14:08:08Z</time>
      </trkpt>
      <trkpt lat="49.16734" lon="-0.38506">
        <ele>6.6</ele>
        <time>2023-05-02T14:08:09Z</time>
      </trkpt>
      <trkpt lat="49.16737" lon="-0.38511">
        <ele>6.6</ele>
        <time>2023-05-02T14:08:10Z</time>
      </trkpt>
      <trkpt lat="49.1674" lon="-0.38517">
        <ele>6.4</ele>
        <time>2023-05-02T14:08:11Z</time>
      </trkpt>
      <trkpt lat="49.16742" lon="-0.38523">
        <ele>6</ele>
        <time>2023-05-02T14:08:12Z</time>
      </trkpt>
      <trkpt lat="49.16744" lon="-0.38529">
        <ele>6</ele>
        <time>2023-05-02T14:08:13Z</time>
      </trkpt>
      <trkpt lat="49.16746" lon="-0.38536">
        <ele>5.6</ele>
        <time>2023-05-02T14:08:14Z</time>
      </trkpt>
      <trkpt lat="49.16747" lon="-0.38542">
        <ele>5.6</ele>
        <time>2023-05-02T14:08:15Z</time>
      </trkpt>
      <trkpt lat="49.16748" lon="-0.3855">
        <ele>5.2</ele>
        <time>2023-05-02T14:08:16Z</time>
      </trkpt>
      <trkpt lat="49.16749" lon="-0.38557">
        <ele>5</ele>
        <time>2023-05-02T14:08:17Z</time>
      </trkpt>
      <trkpt lat="49.16749" lon="-0.38564">
        <ele>4.6</ele>
        <time>2023-05-02T14:08:18Z</time>
      </trkpt>
      <trkpt lat="49.16749" lon="-0.38572">
        <ele>4.4</ele>
        <time>2023-05-02T14:08:19Z</time>
      </trkpt>
      <trkpt lat="49.16749" lon="-0.3858">
        <ele>4</ele>
        <time>2023-05-02T14:08:20Z</time>
      </trkpt>
      <trkpt lat="49.16748" lon="-0.38588">
        <ele>4</ele>
        <time>2023-05-02T14:08:21Z</time>
      </trkpt>
      <trkpt lat="49.16748" lon="-0.38596">
        <ele>4.2</ele>
        <time>2023-05-02T14:08:22Z</time>
      </trkpt>
      <trkpt lat="49.16747" lon="-0.38605">
        <ele>4.4</ele>
        <time>2023-05-02T14:08:23Z</time>
      </trkpt>
      <trkpt lat="49.16747" lon="-0.38613">
        <ele>4.4</ele>
        <time>2023-05-02T14:08:24Z</time>
      </trkpt>
      <trkpt lat="49.16746" lon="-0.38622">
        <ele>4.6</ele>
        <time>2023-05-02T14:08:25Z</time>
      </trkpt>
      <trkpt lat="49.16747" lon="-0.38631">
        <ele>4.6</ele>
        <time>2023-05-02T14:08:26Z</time>
      </trkpt>
      <trkpt lat="49.16747" lon="-0.38639">
        <ele>4.6</ele>
        <time>2023-05-02T14:08:27Z</time>
      </trkpt>
      <trkpt lat="49.16748" lon="-0.38648">
        <ele>4.8</ele>
        <time>2023-05-02T14:08:28Z</time>
      </trkpt>
      <trkpt lat="49.16749" lon="-0.38656">
        <ele>5</ele>
        <time>2023-05-02T14:08:29Z</time>
      </trkpt>
      <trkpt lat="49.1675" lon="-0.38664">
        <ele>5</ele>
        <time>2023-05-02T14:08:30Z</time>
      </trkpt>
      <trkpt lat="49.16752" lon="-0.38672">
        <ele>5</ele>
        <time>2023-05-02T14:08:31Z</time>
      </trkpt>
      <trkpt lat="49.16754" lon="-0.38679">
        <ele>5</ele>
        <time>2023-05-02T14:08:32Z</time>
      </trkpt>
      <trkpt lat="49.16757" lon="-0.38686">
        <ele>5.2</ele>
        <time>2023-05-02T14:08:33Z</time>
      </trkpt>
      <trkpt lat="49.1676" lon="-0.38693">
        <ele>5.4</ele>
        <time>2023-05-02T14:08:34Z</time>
      </trkpt>
      <trkpt lat="49.16764" lon="-0.38699">
        <ele>5.6</ele>
        <time>2023-05-02T14:08:35Z</time>
      </trkpt>
      <trkpt lat="49.16768" lon="-0.38706">
        <ele>5.6</ele>
        <time>2023-05-02T14:08:36Z</time>
      </trkpt>
      <trkpt lat="49.16771" lon="-0.38712">
        <ele>6</ele>
        <time>2023-05-02T14:08:37Z</time>
      </trkpt>
      <trkpt lat="49.16775" lon="-0.38719">
        <ele>6.2</ele>
        <time>2023-05-02T14:08:38Z</time>
      </trkpt>
      <trkpt lat="49.16778" lon="-0.38727">
        <ele>6.4</ele>
        <time>2023-05-02T14:08:39Z</time>
      </trkpt>
      <trkpt lat="49.16781" lon="-0.38734">
        <ele>6.6</ele>
        <time>2023-05-02T14:08:40Z</time>
      </trkpt>
      <trkpt lat="49.16784" lon="-0.38742">
        <ele>7</ele>
        <time>2023-05-02T14:08:41Z</time>
      </trkpt>
      <trkpt lat="49.16787" lon="-0.38749">
        <ele>7.2</ele>
        <time>2023-05-02T14:08:42Z</time>
      </trkpt>
      <trkpt lat="49.1679" lon="-0.38757">
        <ele>7.6</ele>
        <time>2023-05-02T14:08:43Z</time>
      </trkpt>
      <trkpt lat="49.16793" lon="-0.38764">
        <ele>7.8</ele>
        <time>2023-05-02T14:08:44Z</time>
      </trkpt>
      <trkpt lat="49.16796" lon="-0.38771">
        <ele>8.2</ele>
        <time>2023-05-02T14:08:45Z</time>
      </trkpt>
      <trkpt lat="49.16799" lon="-0.38779">
        <ele>8.4</ele>
        <time>2023-05-02T14:08:46Z</time>
      </trkpt>
      <trkpt lat="49.16801" lon="-0.38786">
        <ele>8.6</ele>
        <time>2023-05-02T14:08:47Z</time>
      </trkpt>
      <trkpt lat="49.16804" lon="-0.38794">
        <ele>8.8</ele>
        <time>2023-05-02T14:08:48Z</time>
      </trkpt>
      <trkpt lat="49.16806" lon="-0.38802">
        <ele>9.2</ele>
        <time>2023-05-02T14:08:49Z</time>
      </trkpt>
      <trkpt lat="49.16808" lon="-0.38809">
        <ele>9.4</ele>
        <time>2023-05-02T14:08:50Z</time>
      </trkpt>
      <trkpt lat="49.1681" lon="-0.38817">
        <ele>9.6</ele>
        <time>2023-05-02T14:08:51Z</time>
      </trkpt>
      <trkpt lat="49.16812" lon="-0.38824">
        <ele>9.8</ele>
        <time>2023-05-02T14:08:52Z</time>
      </trkpt>
      <trkpt lat="49.16814" lon="-0.3883">
        <ele>10</ele>
        <time>2023-05-02T14:08:53Z</time>
      </trkpt>
      <trkpt lat="49.16816" lon="-0.38836">
        <ele>10.2</ele>
        <time>2023-05-02T14:08:54Z</time>
      </trkpt>
      <trkpt lat="49.16818" lon="-0.3884">
        <ele>10.4</ele>
        <time>2023-05-02T14:08:55Z</time>
      </trkpt>
      <trkpt lat="49.16822" lon="-0.38843">
        <ele>10.6</ele>
        <time>2023-05-02T14:08:56Z</time>
      </trkpt>
      <trkpt lat="49.16825" lon="-0.38844">
        <ele>10.8</ele>
        <time>2023-05-02T14:08:57Z</time>
      </trkpt>
      <trkpt lat="49.16829" lon="-0.38845">
        <ele>10.8</ele>
        <time>2023-05-02T14:08:58Z</time>
      </trkpt>
      <trkpt lat="49.16832" lon="-0.38847">
        <ele>11.2</ele>
        <time>2023-05-02T14:08:59Z</time>
      </trkpt>
      <trkpt lat="49.16836" lon="-0.38848">
        <ele>11.4</ele>
        <time>2023-05-02T14:09:00Z</time>
      </trkpt>
      <trkpt lat="49.16839" lon="-0.38849">
        <ele>11.6</ele>
        <time>2023-05-02T14:09:01Z</time>
      </trkpt>
      <trkpt lat="49.16843" lon="-0.38851">
        <ele>11.8</ele>
        <time>2023-05-02T14:09:02Z</time>
      </trkpt>
      <trkpt lat="49.16846" lon="-0.38853">
        <ele>12.2</ele>
        <time>2023-05-02T14:09:03Z</time>
      </trkpt>
      <trkpt lat="49.1685" lon="-0.38854">
        <ele>12.6</ele>
        <time>2023-05-02T14:09:04Z</time>
      </trkpt>
      <trkpt lat="49.16853" lon="-0.38856">
        <ele>12.8</ele>
        <time>2023-05-02T14:09:05Z</time>
      </trkpt>
      <trkpt lat="49.16856" lon="-0.38858">
        <ele>13</ele>
        <time>2023-05-02T14:09:06Z</time>
      </trkpt>
      <trkpt lat="49.1686" lon="-0.3886">
        <ele>13.4</ele>
        <time>2023-05-02T14:09:07Z</time>
      </trkpt>
      <trkpt lat="49.16863" lon="-0.38862">
        <ele>13.6</ele>
        <time>2023-05-02T14:09:08Z</time>
      </trkpt>
      <trkpt lat="49.16866" lon="-0.38864">
        <ele>13.8</ele>
        <time>2023-05-02T14:09:09Z</time>
      </trkpt>
      <trkpt lat="49.16869" lon="-0.38866">
        <ele>14.2</ele>
        <time>2023-05-02T14:09:10Z</time>
      </trkpt>
      <trkpt lat="49.16872" lon="-0.38868">
        <ele>14.4</ele>
        <time>2023-05-02T14:09:11Z</time>
      </trkpt>
      <trkpt lat="49.16876" lon="-0.3887">
        <ele>14.6</ele>
        <time>2023-05-02T14:09:12Z</time>
      </trkpt>
      <trkpt lat="49.16879" lon="-0.38872">
        <ele>15</ele>
        <time>2023-05-02T14:09:13Z</time>
      </trkpt>
      <trkpt lat="49.16881" lon="-0.38874">
        <ele>15.2</ele>
        <time>2023-05-02T14:09:14Z</time>
      </trkpt>
      <trkpt lat="49.16882" lon="-0.38877">
        <ele>15.4</ele>
        <time>2023-05-02T14:09:15Z</time>
      </trkpt>
      <trkpt lat="49.16883" lon="-0.3888">
        <ele>15.6</ele>
        <time>2023-05-02T14:09:16Z</time>
      </trkpt>
      <trkpt lat="49.16883" lon="-0.38884">
        <ele>15.6</ele>
        <time>2023-05-02T14:09:17Z</time>
      </trkpt>
      <trkpt lat="49.16882" lon="-0.38889">
        <ele>15.6</ele>
        <time>2023-05-02T14:09:18Z</time>
      </trkpt>
      <trkpt lat="49.16882" lon="-0.38893">
        <ele>15.6</ele>
        <time>2023-05-02T14:09:19Z</time>
      </trkpt>
      <trkpt lat="49.16881" lon="-0.38898">
        <ele>15.6</ele>
        <time>2023-05-02T14:09:20Z</time>
      </trkpt>
      <trkpt lat="49.16881" lon="-0.38902">
        <ele>15.8</ele>
        <time>2023-05-02T14:09:21Z</time>
      </trkpt>
      <trkpt lat="49.16882" lon="-0.38905">
        <ele>15.8</ele>
        <time>2023-05-02T14:09:22Z</time>
      </trkpt>
      <trkpt lat="49.16884" lon="-0.38907">
        <ele>16</ele>
        <time>2023-05-02T14:09:23Z</time>
      </trkpt>
      <trkpt lat="49.16886" lon="-0.38908">
        <ele>16.2</ele>
        <time>2023-05-02T14:09:24Z</time>
      </trkpt>
      <trkpt lat="49.16889" lon="-0.38908">
        <ele>16.6</ele>
        <time>2023-05-02T14:09:25Z</time>
      </trkpt>
      <trkpt lat="49.16893" lon="-0.38906">
        <ele>16.8</ele>
        <time>2023-05-02T14:09:26Z</time>
      </trkpt>
      <trkpt lat="49.16897" lon="-0.38904">
        <ele>17</ele>
        <time>2023-05-02T14:09:27Z</time>
      </trkpt>
      <trkpt lat="49.16901" lon="-0.38901">
        <ele>17.2</ele>
        <time>2023-05-02T14:09:28Z</time>
      </trkpt>
      <trkpt lat="49.16904" lon="-0.38898">
        <ele>17.6</ele>
        <time>2023-05-02T14:09:29Z</time>
      </trkpt>
      <trkpt lat="49.16908" lon="-0.38896">
        <ele>17.8</ele>
        <time>2023-05-02T14:09:30Z</time>
      </trkpt>
      <trkpt lat="49.16911" lon="-0.38893">
        <ele>18</ele>
        <time>2023-05-02T14:09:31Z</time>
      </trkpt>
      <trkpt lat="49.16914" lon="-0.38891">
        <ele>18.2</ele>
        <time>2023-05-02T14:09:32Z</time>
      </trkpt>
      <trkpt lat="49.16916" lon="-0.38888">
        <ele>18.2</ele>
        <time>2023-05-02T14:09:33Z</time>
      </trkpt>
      <trkpt lat="49.16919" lon="-0.38886">
        <ele>18.6</ele>
        <time>2023-05-02T14:09:34Z</time>
      </trkpt>
      <trkpt lat="49.16921" lon="-0.38885">
        <ele>18.8</ele>
        <time>2023-05-02T14:09:35Z</time>
      </trkpt>
      <trkpt lat="49.16924" lon="-0.38884">
        <ele>18.8</ele>
        <time>2023-05-02T14:09:36Z</time>
      </trkpt>
      <trkpt lat="49.16927" lon="-0.38883">
        <ele>19</ele>
        <time>2023-05-02T14:09:37Z</time>
      </trkpt>
      <trkpt lat="49.16929" lon="-0.38882">
        <ele>19.2</ele>
        <time>2023-05-02T14:09:38Z</time>
      </trkpt>
      <trkpt lat="49.16932" lon="-0.38881">
        <ele>19.6</ele>
        <time>2023-05-02T14:09:39Z</time>
      </trkpt>
      <trkpt lat="49.16935" lon="-0.3888">
        <ele>19.8</ele>
        <time>2023-05-02T14:09:40Z</time>
      </trkpt>
      <trkpt lat="49.16937" lon="-0.38879">
        <ele>19.8</ele>
        <time>2023-05-02T14:09:41Z</time>
      </trkpt>
      <trkpt lat="49.1694" lon="-0.38878">
        <ele>20</ele>
        <time>2023-05-02T14:09:42Z</time>
      </trkpt>
      <trkpt lat="49.16942" lon="-0.38877">
        <ele>20.2</ele>
        <time>2023-05-02T14:09:43Z</time>
      </trkpt>
      <trkpt lat="49.16945" lon="-0.38875">
        <ele>20.4</ele>
        <time>2023-05-02T14:09:44Z</time>
      </trkpt>
      <trkpt lat="49.16947" lon="-0.38874">
        <ele>20.6</ele>
        <time>2023-05-02T14:09:45Z</time>
      </trkpt>
      <trkpt lat="49.16949" lon="-0.38872">
        <ele>20.6</ele>
        <time>2023-05-02T14:09:46Z</time>
      </trkpt>
      <trkpt lat="49.16952" lon="-0.38871">
        <ele>20.8</ele>
        <time>2023-05-02T14:09:47Z</time>
      </trkpt>
      <trkpt lat="49.16954" lon="-0.38869">
        <ele>20.8</ele>
        <time>2023-05-02T14:09:48Z</time>
      </trkpt>
      <trkpt lat="49.16956" lon="-0.38867">
        <ele>21</ele>
        <time>2023-05-02T14:09:49Z</time>
      </trkpt>
      <trkpt lat="49.16958" lon="-0.38866">
        <ele>21.2</ele>
        <time>2023-05-02T14:09:50Z</time>
      </trkpt>
      <trkpt lat="49.1696" lon="-0.38864">
        <ele>21.2</ele>
        <time>2023-05-02T14:09:51Z</time>
      </trkpt>
      <trkpt lat="49.16963" lon="-0.38863">
        <ele>21.4</ele>
        <time>2023-05-02T14:09:52Z</time>
      </trkpt>
      <trkpt lat="49.16965" lon="-0.38861">
        <ele>21.6</ele>
        <time>2023-05-02T14:09:53Z</time>
      </trkpt>
      <trkpt lat="49.16967" lon="-0.3886">
        <ele>21.8</ele>
        <time>2023-05-02T14:09:54Z</time>
      </trkpt>
      <trkpt lat="49.1697" lon="-0.38859">
        <ele>21.8</ele>
        <time>2023-05-02T14:09:55Z</time>
      </trkpt>
      <trkpt lat="49.16972" lon="-0.38859">
        <ele>22</ele>
        <time>2023-05-02T14:09:56Z</time>
      </trkpt>
      <trkpt lat="49.16974" lon="-0.38859">
        <ele>22.2</ele>
        <time>2023-05-02T14:09:57Z</time>
      </trkpt>
      <trkpt lat="49.16976" lon="-0.3886">
        <ele>22.4</ele>
        <time>2023-05-02T14:09:58Z</time>
      </trkpt>
      <trkpt lat="49.16979" lon="-0.38862">
        <ele>22.6</ele>
        <time>2023-05-02T14:09:59Z</time>
      </trkpt>
      <trkpt lat="49.1698" lon="-0.38864">
        <ele>22.8</ele>
        <time>2023-05-02T14:10:00Z</time>
      </trkpt>
      <trkpt lat="49.16982" lon="-0.38866">
        <ele>23.2</ele>
        <time>2023-05-02T14:10:01Z</time>
      </trkpt>
      <trkpt lat="49.16985" lon="-0.38869">
        <ele>23.4</ele>
        <time>2023-05-02T14:10:02Z</time>
      </trkpt>
      <trkpt lat="49.16986" lon="-0.38872">
        <ele>23.8</ele>
        <time>2023-05-02T14:10:03Z</time>
      </trkpt>
      <trkpt lat="49.16989" lon="-0.38875">
        <ele>24</ele>
        <time>2023-05-02T14:10:04Z</time>
      </trkpt>
      <trkpt lat="49.16991" lon="-0.38878">
        <ele>24.2</ele>
        <time>2023-05-02T14:10:05Z</time>
      </trkpt>
      <trkpt lat="49.16993" lon="-0.38881">
        <ele>24.8</ele>
        <time>2023-05-02T14:10:06Z</time>
      </trkpt>
      <trkpt lat="49.16995" lon="-0.38883">
        <ele>25</ele>
        <time>2023-05-02T14:10:07Z</time>
      </trkpt>
      <trkpt lat="49.16997" lon="-0.38886">
        <ele>25.2</ele>
        <time>2023-05-02T14:10:08Z</time>
      </trkpt>
      <trkpt lat="49.16999" lon="-0.38889">
        <ele>25.6</ele>
        <time>2023-05-02T14:10:09Z</time>
      </trkpt>
      <trkpt lat="49.17002" lon="-0.38891">
        <ele>25.8</ele>
        <time>2023-05-02T14:10:10Z</time>
      </trkpt>
      <trkpt lat="49.17004" lon="-0.38894">
        <ele>26.2</ele>
        <time>2023-05-02T14:10:11Z</time>
      </trkpt>
      <trkpt lat="49.17006" lon="-0.38896">
        <ele>26.4</ele>
        <time>2023-05-02T14:10:12Z</time>
      </trkpt>
      <trkpt lat="49.17008" lon="-0.38899">
        <ele>26.8</ele>
        <time>2023-05-02T14:10:13Z</time>
      </trkpt>
      <trkpt lat="49.17011" lon="-0.38902">
        <ele>26.8</ele>
        <time>2023-05-02T14:10:14Z</time>
      </trkpt>
      <trkpt lat="49.17013" lon="-0.38904">
        <ele>27.2</ele>
        <time>2023-05-02T14:10:15Z</time>
      </trkpt>
      <trkpt lat="49.17015" lon="-0.38907">
        <ele>27.6</ele>
        <time>2023-05-02T14:10:16Z</time>
      </trkpt>
      <trkpt lat="49.17017" lon="-0.38909">
        <ele>27.8</ele>
        <time>2023-05-02T14:10:17Z</time>
      </trkpt>
      <trkpt lat="49.17019" lon="-0.38912">
        <ele>27.8</ele>
        <time>2023-05-02T14:10:18Z</time>
      </trkpt>
      <trkpt lat="49.17021" lon="-0.38914">
        <ele>28.2</ele>
        <time>2023-05-02T14:10:19Z</time>
      </trkpt>
      <trkpt lat="49.17023" lon="-0.38916">
        <ele>28.4</ele>
        <time>2023-05-02T14:10:20Z</time>
      </trkpt>
      <trkpt lat="49.17025" lon="-0.38919">
        <ele>28.6</ele>
        <time>2023-05-02T14:10:21Z</time>
      </trkpt>
      <trkpt lat="49.17027" lon="-0.38921">
        <ele>28.8</ele>
        <time>2023-05-02T14:10:22Z</time>
      </trkpt>
      <trkpt lat="49.17029" lon="-0.38923">
        <ele>29</ele>
        <time>2023-05-02T14:10:23Z</time>
      </trkpt>
      <trkpt lat="49.17031" lon="-0.38925">
        <ele>29.2</ele>
        <time>2023-05-02T14:10:24Z</time>
      </trkpt>
      <trkpt lat="49.17033" lon="-0.38928">
        <ele>29.6</ele>
        <time>2023-05-02T14:10:25Z</time>
      </trkpt>
      <trkpt lat="49.17035" lon="-0.3893">
        <ele>29.8</ele>
        <time>2023-05-02T14:10:26Z</time>
      </trkpt>
      <trkpt lat="49.17037" lon="-0.38933">
        <ele>29.8</ele>
        <time>2023-05-02T14:10:27Z</time>
      </trkpt>
      <trkpt lat="49.17039" lon="-0.38935">
        <ele>30.2</ele>
        <time>2023-05-02T14:10:28Z</time>
      </trkpt>
      <trkpt lat="49.17041" lon="-0.38938">
        <ele>30.2</ele>
        <time>2023-05-02T14:10:29Z</time>
      </trkpt>
      <trkpt lat="49.17043" lon="-0.38941">
        <ele>30.6</ele>
        <time>2023-05-02T14:10:30Z</time>
      </trkpt>
      <trkpt lat="49.17045" lon="-0.38944">
        <ele>30.8</ele>
        <time>2023-05-02T14:10:31Z</time>
      </trkpt>
      <trkpt lat="49.17047" lon="-0.38946">
        <ele>31</ele>
        <time>2023-05-02T14:10:32Z</time>
      </trkpt>
      <trkpt lat="49.17048" lon="-0.38949">
        <ele>31.2</ele>
        <time>2023-05-02T14:10:33Z</time>
      </trkpt>
      <trkpt lat="49.1705" lon="-0.38952">
        <ele>31.4</ele>
        <time>2023-05-02T14:10:34Z</time>
      </trkpt>
      <trkpt lat="49.17052" lon="-0.38954">
        <ele>31.8</ele>
        <time>2023-05-02T14:10:35Z</time>
      </trkpt>
      <trkpt lat="49.17054" lon="-0.38957">
        <ele>31.8</ele>
        <time>2023-05-02T14:10:36Z</time>
      </trkpt>
      <trkpt lat="49.17056" lon="-0.38959">
        <ele>32</ele>
        <time>2023-05-02T14:10:37Z</time>
      </trkpt>
      <trkpt lat="49.17058" lon="-0.38961">
        <ele>32.2</ele>
        <time>2023-05-02T14:10:38Z</time>
      </trkpt>
      <trkpt lat="49.1706" lon="-0.38964">
        <ele>32.6</ele>
        <time>2023-05-02T14:10:39Z</time>
      </trkpt>
      <trkpt lat="49.17062" lon="-0.38967">
        <ele>32.8</ele>
        <time>2023-05-02T14:10:40Z</time>
      </trkpt>
      <trkpt lat="49.17064" lon="-0.38969">
        <ele>33</ele>
        <time>2023-05-02T14:10:41Z</time>
      </trkpt>
      <trkpt lat="49.17066" lon="-0.38972">
        <ele>33</ele>
        <time>2023-05-02T14:10:42Z</time>
      </trkpt>
      <trkpt lat="49.17068" lon="-0.38975">
        <ele>33.2</ele>
        <time>2023-05-02T14:10:43Z</time>
      </trkpt>
      <trkpt lat="49.1707" lon="-0.38977">
        <ele>33.6</ele>
        <time>2023-05-02T14:10:44Z</time>
      </trkpt>
      <trkpt lat="49.17071" lon="-0.3898">
        <ele>33.8</ele>
        <time>2023-05-02T14:10:45Z</time>
      </trkpt>
      <trkpt lat="49.17073" lon="-0.38983">
        <ele>34</ele>
        <time>2023-05-02T14:10:46Z</time>
      </trkpt>
      <trkpt lat="49.17075" lon="-0.38986">
        <ele>34</ele>
        <time>2023-05-02T14:10:47Z</time>
      </trkpt>
      <trkpt lat="49.17077" lon="-0.38988">
        <ele>34.2</ele>
        <time>2023-05-02T14:10:48Z</time>
      </trkpt>
      <trkpt lat="49.17079" lon="-0.38991">
        <ele>34.6</ele>
        <time>2023-05-02T14:10:49Z</time>
      </trkpt>
      <trkpt lat="49.17081" lon="-0.38994">
        <ele>34.6</ele>
        <time>2023-05-02T14:10:50Z</time>
      </trkpt>
      <trkpt lat="49.17082" lon="-0.38997">
        <ele>34.8</ele>
        <time>2023-05-02T14:10:51Z</time>
      </trkpt>
      <trkpt lat="49.17084" lon="-0.38999">
        <ele>35</ele>
        <time>2023-05-02T14:10:52Z</time>
      </trkpt>
      <trkpt lat="49.17086" lon="-0.39002">
        <ele>35.2</ele>
        <time>2023-05-02T14:10:53Z</time>
      </trkpt>
      <trkpt lat="49.17088" lon="-0.39005">
        <ele>35.2</ele>
        <time>2023-05-02T14:10:54Z</time>
      </trkpt>
      <trkpt lat="49.1709" lon="-0.39007">
        <ele>35.6</ele>
        <time>2023-05-02T14:10:55Z</time>
      </trkpt>
      <trkpt lat="49.17092" lon="-0.3901">
        <ele>35.8</ele>
        <time>2023-05-02T14:10:56Z</time>
      </trkpt>
      <trkpt lat="49.17094" lon="-0.39013">
        <ele>35.8</ele>
        <time>2023-05-02T14:10:57Z</time>
      </trkpt>
      <trkpt lat="49.17096" lon="-0.39015">
        <ele>36</ele>
        <time>2023-05-02T14:10:58Z</time>
      </trkpt>
      <trkpt lat="49.17098" lon="-0.39018">
        <ele>36</ele>
        <time>2023-05-02T14:10:59Z</time>
      </trkpt>
      <trkpt lat="49.171" lon="-0.39021">
        <ele>36.2</ele>
        <time>2023-05-02T14:11:00Z</time>
      </trkpt>
      <trkpt lat="49.17102" lon="-0.39024">
        <ele>36.4</ele>
        <time>2023-05-02T14:11:01Z</time>
      </trkpt>
      <trkpt lat="49.17104" lon="-0.39026">
        <ele>36.6</ele>
        <time>2023-05-02T14:11:02Z</time>
      </trkpt>
      <trkpt lat="49.17106" lon="-0.39029">
        <ele>36.8</ele>
        <time>2023-05-02T14:11:03Z</time>
      </trkpt>
      <trkpt lat="49.17108" lon="-0.39032">
        <ele>37</ele>
        <time>2023-05-02T14:11:04Z</time>
      </trkpt>
      <trkpt lat="49.1711" lon="-0.39034">
        <ele>37</ele>
        <time>2023-05-02T14:11:05Z</time>
      </trkpt>
      <trkpt lat="49.17112" lon="-0.39037">
        <ele>37.2</ele>
        <time>2023-05-02T14:11:06Z</time>
      </trkpt>
      <trkpt lat="49.17114" lon="-0.3904">
        <ele>37.4</ele>
        <time>2023-05-02T14:11:07Z</time>
      </trkpt>
      <trkpt lat="49.17116" lon="-0.39043">
        <ele>37.6</ele>
        <time>2023-05-02T14:11:08Z</time>
      </trkpt>
      <trkpt lat="49.17118" lon="-0.39046">
        <ele>37.8</ele>
        <time>2023-05-02T14:11:09Z</time>
      </trkpt>
      <trkpt lat="49.1712" lon="-0.39049">
        <ele>37.8</ele>
        <time>2023-05-02T14:11:10Z</time>
      </trkpt>
      <trkpt lat="49.17122" lon="-0.39052">
        <ele>38</ele>
        <time>2023-05-02T14:11:11Z</time>
      </trkpt>
      <trkpt lat="49.17124" lon="-0.39055">
        <ele>38</ele>
        <time>2023-05-02T14:11:12Z</time>
      </trkpt>
      <trkpt lat="49.17126" lon="-0.39058">
        <ele>38.2</ele>
        <time>2023-05-02T14:11:13Z</time>
      </trkpt>
      <trkpt lat="49.17127" lon="-0.39061">
        <ele>38.4</ele>
        <time>2023-05-02T14:11:14Z</time>
      </trkpt>
      <trkpt lat="49.17129" lon="-0.39063">
        <ele>38.6</ele>
        <time>2023-05-02T14:11:15Z</time>
      </trkpt>
      <trkpt lat="49.17131" lon="-0.39066">
        <ele>38.6</ele>
        <time>2023-05-02T14:11:16Z</time>
      </trkpt>
      <trkpt lat="49.17133" lon="-0.39068">
        <ele>38.8</ele>
        <time>2023-05-02T14:11:17Z</time>
      </trkpt>
      <trkpt lat="49.17135" lon="-0.39071">
        <ele>39</ele>
        <time>2023-05-02T14:11:18Z</time>
      </trkpt>
      <trkpt lat="49.17137" lon="-0.39073">
        <ele>39</ele>
        <time>2023-05-02T14:11:19Z</time>
      </trkpt>
      <trkpt lat="49.17139" lon="-0.39077">
        <ele>39</ele>
        <time>2023-05-02T14:11:20Z</time>
      </trkpt>
      <trkpt lat="49.17141" lon="-0.3908">
        <ele>39.2</ele>
        <time>2023-05-02T14:11:21Z</time>
      </trkpt>
      <trkpt lat="49.17143" lon="-0.39083">
        <ele>39.4</ele>
        <time>2023-05-02T14:11:22Z</time>
      </trkpt>
      <trkpt lat="49.17144" lon="-0.39086">
        <ele>39.4</ele>
        <time>2023-05-02T14:11:23Z</time>
      </trkpt>
      <trkpt lat="49.17146" lon="-0.39089">
        <ele>39.4</ele>
        <time>2023-05-02T14:11:24Z</time>
      </trkpt>
      <trkpt lat="49.17148" lon="-0.39092">
        <ele>39.4</ele>
        <time>2023-05-02T14:11:25Z</time>
      </trkpt>
      <trkpt lat="49.17149" lon="-0.39095">
        <ele>39.4</ele>
        <time>2023-05-02T14:11:26Z</time>
      </trkpt>
      <trkpt lat="49.17151" lon="-0.39098">
        <ele>39.2</ele>
        <time>2023-05-02T14:11:27Z</time>
      </trkpt>
      <trkpt lat="49.17153" lon="-0.39101">
        <ele>39.2</ele>
        <time>2023-05-02T14:11:28Z</time>
      </trkpt>
      <trkpt lat="49.17155" lon="-0.39105">
        <ele>39.2</ele>
        <time>2023-05-02T14:11:29Z</time>
      </trkpt>
      <trkpt lat="49.17156" lon="-0.39109">
        <ele>39.2</ele>
        <time>2023-05-02T14:11:30Z</time>
      </trkpt>
      <trkpt lat="49.17158" lon="-0.39113">
        <ele>39.2</ele>
        <time>2023-05-02T14:11:31Z</time>
      </trkpt>
      <trkpt lat="49.1716" lon="-0.39118">
        <ele>39</ele>
        <time>2023-05-02T14:11:32Z</time>
      </trkpt>
      <trkpt lat="49.17162" lon="-0.39122">
        <ele>39</ele>
        <time>2023-05-02T14:11:33Z</time>
      </trkpt>
      <trkpt lat="49.17164" lon="-0.39127">
        <ele>39</ele>
        <time>2023-05-02T14:11:34Z</time>
      </trkpt>
      <trkpt lat="49.17166" lon="-0.39132">
        <ele>38.8</ele>
        <time>2023-05-02T14:11:35Z</time>
      </trkpt>
      <trkpt lat="49.17168" lon="-0.39137">
        <ele>38.8</ele>
        <time>2023-05-02T14:11:36Z</time>
      </trkpt>
      <trkpt lat="49.1717" lon="-0.39142">
        <ele>38.6</ele>
        <time>2023-05-02T14:11:37Z</time>
      </trkpt>
      <trkpt lat="49.17172" lon="-0.39148">
        <ele>38.6</ele>
        <time>2023-05-02T14:11:38Z</time>
      </trkpt>
      <trkpt lat="49.17174" lon="-0.39153">
        <ele>38.6</ele>
        <time>2023-05-02T14:11:39Z</time>
      </trkpt>
      <trkpt lat="49.17176" lon="-0.39158">
        <ele>38.4</ele>
        <time>2023-05-02T14:11:40Z</time>
      </trkpt>
      <trkpt lat="49.17179" lon="-0.39164">
        <ele>38.2</ele>
        <time>2023-05-02T14:11:41Z</time>
      </trkpt>
      <trkpt lat="49.17181" lon="-0.3917">
        <ele>38.2</ele>
        <time>2023-05-02T14:11:42Z</time>
      </trkpt>
      <trkpt lat="49.17183" lon="-0.39175">
        <ele>38.2</ele>
        <time>2023-05-02T14:11:43Z</time>
      </trkpt>
      <trkpt lat="49.17186" lon="-0.39181">
        <ele>38.2</ele>
        <time>2023-05-02T14:11:44Z</time>
      </trkpt>
      <trkpt lat="49.17188" lon="-0.39186">
        <ele>38.2</ele>
        <time>2023-05-02T14:11:45Z</time>
      </trkpt>
      <trkpt lat="49.17191" lon="-0.39192">
        <ele>38.2</ele>
        <time>2023-05-02T14:11:46Z</time>
      </trkpt>
      <trkpt lat="49.17193" lon="-0.39198">
        <ele>38.2</ele>
        <time>2023-05-02T14:11:47Z</time>
      </trkpt>
      <trkpt lat="49.17196" lon="-0.39203">
        <ele>38</ele>
        <time>2023-05-02T14:11:48Z</time>
      </trkpt>
      <trkpt lat="49.17199" lon="-0.39209">
        <ele>38</ele>
        <time>2023-05-02T14:11:49Z</time>
      </trkpt>
      <trkpt lat="49.17202" lon="-0.39215">
        <ele>38</ele>
        <time>2023-05-02T14:11:50Z</time>
      </trkpt>
      <trkpt lat="49.17205" lon="-0.3922">
        <ele>38</ele>
        <time>2023-05-02T14:11:51Z</time>
      </trkpt>
      <trkpt lat="49.17208" lon="-0.39226">
        <ele>38</ele>
        <time>2023-05-02T14:11:52Z</time>
      </trkpt>
      <trkpt lat="49.17211" lon="-0.39232">
        <ele>38</ele>
        <time>2023-05-02T14:11:53Z</time>
      </trkpt>
      <trkpt lat="49.17214" lon="-0.39237">
        <ele>37.8</ele>
        <time>2023-05-02T14:11:54Z</time>
      </trkpt>
      <trkpt lat="49.17217" lon="-0.39243">
        <ele>37.8</ele>
        <time>2023-05-02T14:11:55Z</time>
      </trkpt>
      <trkpt lat="49.1722" lon="-0.39249">
        <ele>37.8</ele>
        <time>2023-05-02T14:11:56Z</time>
      </trkpt>
      <trkpt lat="49.17223" lon="-0.39255">
        <ele>37.8</ele>
        <time>2023-05-02T14:11:57Z</time>
      </trkpt>
      <trkpt lat="49.17226" lon="-0.3926">
        <ele>38</ele>
        <time>2023-05-02T14:11:58Z</time>
      </trkpt>
      <trkpt lat="49.17229" lon="-0.39266">
        <ele>38</ele>
        <time>2023-05-02T14:11:59Z</time>
      </trkpt>
      <trkpt lat="49.17232" lon="-0.39272">
        <ele>38</ele>
        <time>2023-05-02T14:12:00Z</time>
      </trkpt>
      <trkpt lat="49.17235" lon="-0.39277">
        <ele>38.2</ele>
        <time>2023-05-02T14:12:01Z</time>
      </trkpt>
      <trkpt lat="49.17238" lon="-0.39282">
        <ele>38.2</ele>
        <time>2023-05-02T14:12:02Z</time>
      </trkpt>
      <trkpt lat="49.17241" lon="-0.39288">
        <ele>38.4</ele>
        <time>2023-05-02T14:12:03Z</time>
      </trkpt>
      <trkpt lat="49.17244" lon="-0.39293">
        <ele>38.6</ele>
        <time>2023-05-02T14:12:04Z</time>
      </trkpt>
      <trkpt lat="49.17247" lon="-0.39298">
        <ele>38.6</ele>
        <time>2023-05-02T14:12:05Z</time>
      </trkpt>
      <trkpt lat="49.1725" lon="-0.39303">
        <ele>38.6</ele>
        <time>2023-05-02T14:12:06Z</time>
      </trkpt>
      <trkpt lat="49.17253" lon="-0.39308">
        <ele>38.8</ele>
        <time>2023-05-02T14:12:07Z</time>
      </trkpt>
      <trkpt lat="49.17256" lon="-0.39313">
        <ele>38.8</ele>
        <time>2023-05-02T14:12:08Z</time>
      </trkpt>
      <trkpt lat="49.17259" lon="-0.39319">
        <ele>38.8</ele>
        <time>2023-05-02T14:12:09Z</time>
      </trkpt>
      <trkpt lat="49.17262" lon="-0.39323">
        <ele>38.8</ele>
        <time>2023-05-02T14:12:10Z</time>
      </trkpt>
      <trkpt lat="49.17266" lon="-0.39328">
        <ele>38.8</ele>
        <time>2023-05-02T14:12:11Z</time>
      </trkpt>
      <trkpt lat="49.1727" lon="-0.39331">
        <ele>38.8</ele>
        <time>2023-05-02T14:12:12Z</time>
      </trkpt>
      <trkpt lat="49.17273" lon="-0.39335">
        <ele>38.8</ele>
        <time>2023-05-02T14:12:13Z</time>
      </trkpt>
      <trkpt lat="49.17277" lon="-0.39337">
        <ele>38.8</ele>
        <time>2023-05-02T14:12:14Z</time>
      </trkpt>
      <trkpt lat="49.17281" lon="-0.3934">
        <ele>38.8</ele>
        <time>2023-05-02T14:12:15Z</time>
      </trkpt>
      <trkpt lat="49.17284" lon="-0.39342">
        <ele>38.6</ele>
        <time>2023-05-02T14:12:16Z</time>
      </trkpt>
      <trkpt lat="49.17288" lon="-0.39344">
        <ele>38.6</ele>
        <time>2023-05-02T14:12:17Z</time>
      </trkpt>
      <trkpt lat="49.17291" lon="-0.39345">
        <ele>38.6</ele>
        <time>2023-05-02T14:12:18Z</time>
      </trkpt>
      <trkpt lat="49.17293" lon="-0.39346">
        <ele>38.6</ele>
        <time>2023-05-02T14:12:19Z</time>
      </trkpt>
      <trkpt lat="49.17295" lon="-0.39347">
        <ele>38.6</ele>
        <time>2023-05-02T14:12:20Z</time>
      </trkpt>
      <trkpt lat="49.17297" lon="-0.39348">
        <ele>38.6</ele>
        <time>2023-05-02T14:12:21Z</time>
      </trkpt>
      <trkpt lat="49.17298" lon="-0.39349">
        <ele>38.6</ele>
        <time>2023-05-02T14:12:22Z</time>
      </trkpt>
      <trkpt lat="49.17298" lon="-0.39349">
        <ele>38.6</ele>
        <time>2023-05-02T14:12:23Z</time>
      </trkpt>
      <trkpt lat="49.17298" lon="-0.39349">
        <ele>38.6</ele>
        <time>2023-05-02T14:12:24Z</time>
      </trkpt>
      <trkpt lat="49.17298" lon="-0.39349">
        <ele>38.6</ele>
        <time>2023-05-02T14:12:25Z</time>
      </trkpt>
      <trkpt lat="49.17298" lon="-0.39349">
        <ele>38.6</ele>
        <time>2023-05-02T14:12:26Z</time>
      </trkpt>
      <trkpt lat="49.173" lon="-0.3935">
        <ele>38.6</ele>
        <time>2023-05-02T14:12:27Z</time>
      </trkpt>
      <trkpt lat="49.17303" lon="-0.39352">
        <ele>38.6</ele>
        <time>2023-05-02T14:12:28Z</time>
      </trkpt>
      <trkpt lat="49.17305" lon="-0.39355">
        <ele>38.4</ele>
        <time>2023-05-02T14:12:29Z</time>
      </trkpt>
      <trkpt lat="49.17308" lon="-0.39358">
        <ele>38.4</ele>
        <time>2023-05-02T14:12:30Z</time>
      </trkpt>
      <trkpt lat="49.17311" lon="-0.39362">
        <ele>38.4</ele>
        <time>2023-05-02T14:12:31Z</time>
      </trkpt>
      <trkpt lat="49.17314" lon="-0.39367">
        <ele>38.2</ele>
        <time>2023-05-02T14:12:32Z</time>
      </trkpt>
      <trkpt lat="49.17316" lon="-0.39371">
        <ele>38.2</ele>
        <time>2023-05-02T14:12:33Z</time>
      </trkpt>
      <trkpt lat="49.17319" lon="-0.39375">
        <ele>38.2</ele>
        <time>2023-05-02T14:12:34Z</time>
      </trkpt>
      <trkpt lat="49.17323" lon="-0.39379">
        <ele>38.2</ele>
        <time>2023-05-02T14:12:35Z</time>
      </trkpt>
      <trkpt lat="49.17327" lon="-0.39382">
        <ele>38</ele>
        <time>2023-05-02T14:12:36Z</time>
      </trkpt>
      <trkpt lat="49.17331" lon="-0.39385">
        <ele>38</ele>
        <time>2023-05-02T14:12:37Z</time>
      </trkpt>
      <trkpt lat="49.17335" lon="-0.39388">
        <ele>38</ele>
        <time>2023-05-02T14:12:38Z</time>
      </trkpt>
      <trkpt lat="49.17339" lon="-0.39391">
        <ele>38</ele>
        <time>2023-05-02T14:12:39Z</time>
      </trkpt>
      <trkpt lat="49.17343" lon="-0.39394">
        <ele>38</ele>
        <time>2023-05-02T14:12:40Z</time>
      </trkpt>
      <trkpt lat="49.17348" lon="-0.39397">
        <ele>38</ele>
        <time>2023-05-02T14:12:41Z</time>
      </trkpt>
      <trkpt lat="49.17352" lon="-0.394">
        <ele>38</ele>
        <time>2023-05-02T14:12:42Z</time>
      </trkpt>
      <trkpt lat="49.17356" lon="-0.39404">
        <ele>38</ele>
        <time>2023-05-02T14:12:43Z</time>
      </trkpt>
      <trkpt lat="49.1736" lon="-0.39407">
        <ele>38</ele>
        <time>2023-05-02T14:12:44Z</time>
      </trkpt>
      <trkpt lat="49.17364" lon="-0.39411">
        <ele>38</ele>
        <time>2023-05-02T14:12:45Z</time>
      </trkpt>
      <trkpt lat="49.17368" lon="-0.39415">
        <ele>38</ele>
        <time>2023-05-02T14:12:46Z</time>
      </trkpt>
      <trkpt lat="49.17372" lon="-0.39419">
        <ele>38</ele>
        <time>2023-05-02T14:12:47Z</time>
      </trkpt>
      <trkpt lat="49.17376" lon="-0.39423">
        <ele>38</ele>
        <time>2023-05-02T14:12:48Z</time>
      </trkpt>
      <trkpt lat="49.1738" lon="-0.39427">
        <ele>38</ele>
        <time>2023-05-02T14:12:49Z</time>
      </trkpt>
      <trkpt lat="49.17384" lon="-0.39431">
        <ele>38</ele>
        <time>2023-05-02T14:12:50Z</time>
      </trkpt>
      <trkpt lat="49.17388" lon="-0.39435">
        <ele>38</ele>
        <time>2023-05-02T14:12:51Z</time>
      </trkpt>
      <trkpt lat="49.17392" lon="-0.39439">
        <ele>38</ele>
        <time>2023-05-02T14:12:52Z</time>
      </trkpt>
      <trkpt lat="49.17396" lon="-0.39443">
        <ele>38</ele>
        <time>2023-05-02T14:12:53Z</time>
      </trkpt>
      <trkpt lat="49.174" lon="-0.39447">
        <ele>38</ele>
        <time>2023-05-02T14:12:54Z</time>
      </trkpt>
      <trkpt lat="49.17404" lon="-0.39451">
        <ele>38</ele>
        <time>2023-05-02T14:12:55Z</time>
      </trkpt>
      <trkpt lat="49.17409" lon="-0.39456">
        <ele>38</ele>
        <time>2023-05-02T14:12:56Z</time>
      </trkpt>
      <trkpt lat="49.17413" lon="-0.3946">
        <ele>38</ele>
        <time>2023-05-02T14:12:57Z</time>
      </trkpt>
      <trkpt lat="49.17418" lon="-0.39465">
        <ele>38</ele>
        <time>2023-05-02T14:12:58Z</time>
      </trkpt>
      <trkpt lat="49.17422" lon="-0.39469">
        <ele>38</ele>
        <time>2023-05-02T14:12:59Z</time>
      </trkpt>
      <trkpt lat="49.17427" lon="-0.39474">
        <ele>38</ele>
        <time>2023-05-02T14:13:00Z</time>
      </trkpt>
      <trkpt lat="49.17432" lon="-0.39479">
        <ele>38</ele>
        <time>2023-05-02T14:13:01Z</time>
      </trkpt>
      <trkpt lat="49.17437" lon="-0.39484">
        <ele>38</ele>
        <time>2023-05-02T14:13:02Z</time>
      </trkpt>
      <trkpt lat="49.17442" lon="-0.39489">
        <ele>38</ele>
        <time>2023-05-02T14:13:03Z</time>
      </trkpt>
      <trkpt lat="49.17447" lon="-0.39495">
        <ele>38</ele>
        <time>2023-05-02T14:13:04Z</time>
      </trkpt>
      <trkpt lat="49.17452" lon="-0.395">
        <ele>38</ele>
        <time>2023-05-02T14:13:05Z</time>
      </trkpt>
      <trkpt lat="49.17457" lon="-0.39506">
        <ele>38</ele>
        <time>2023-05-02T14:13:06Z</time>
      </trkpt>
      <trkpt lat="49.17462" lon="-0.39511">
        <ele>38</ele>
        <time>2023-05-02T14:13:07Z</time>
      </trkpt>
      <trkpt lat="49.17468" lon="-0.39517">
        <ele>38</ele>
        <time>2023-05-02T14:13:08Z</time>
      </trkpt>
      <trkpt lat="49.17473" lon="-0.39523">
        <ele>38</ele>
        <time>2023-05-02T14:13:09Z</time>
      </trkpt>
      <trkpt lat="49.17479" lon="-0.39529">
        <ele>38.2</ele>
        <time>2023-05-02T14:13:10Z</time>
      </trkpt>
      <trkpt lat="49.17485" lon="-0.39534">
        <ele>38.2</ele>
        <time>2023-05-02T14:13:11Z</time>
      </trkpt>
      <trkpt lat="49.17491" lon="-0.3954">
        <ele>38.4</ele>
        <time>2023-05-02T14:13:12Z</time>
      </trkpt>
      <trkpt lat="49.17496" lon="-0.39546">
        <ele>38.6</ele>
        <time>2023-05-02T14:13:13Z</time>
      </trkpt>
      <trkpt lat="49.17502" lon="-0.39552">
        <ele>38.8</ele>
        <time>2023-05-02T14:13:14Z</time>
      </trkpt>
      <trkpt lat="49.17508" lon="-0.39558">
        <ele>38.8</ele>
        <time>2023-05-02T14:13:15Z</time>
      </trkpt>
      <trkpt lat="49.17514" lon="-0.39564">
        <ele>39</ele>
        <time>2023-05-02T14:13:16Z</time>
      </trkpt>
      <trkpt lat="49.1752" lon="-0.39571">
        <ele>39</ele>
        <time>2023-05-02T14:13:17Z</time>
      </trkpt>
      <trkpt lat="49.17526" lon="-0.39577">
        <ele>39.2</ele>
        <time>2023-05-02T14:13:18Z</time>
      </trkpt>
      <trkpt lat="49.17532" lon="-0.39583">
        <ele>39.4</ele>
        <time>2023-05-02T14:13:19Z</time>
      </trkpt>
      <trkpt lat="49.17538" lon="-0.39589">
        <ele>39.6</ele>
        <time>2023-05-02T14:13:20Z</time>
      </trkpt>
      <trkpt lat="49.17544" lon="-0.39595">
        <ele>39.8</ele>
        <time>2023-05-02T14:13:21Z</time>
      </trkpt>
      <trkpt lat="49.1755" lon="-0.39601">
        <ele>39.8</ele>
        <time>2023-05-02T14:13:22Z</time>
      </trkpt>
      <trkpt lat="49.17556" lon="-0.39607">
        <ele>40</ele>
        <time>2023-05-02T14:13:23Z</time>
      </trkpt>
      <trkpt lat="49.17562" lon="-0.39612">
        <ele>40</ele>
        <time>2023-05-02T14:13:24Z</time>
      </trkpt>
      <trkpt lat="49.17567" lon="-0.39618">
        <ele>40.2</ele>
        <time>2023-05-02T14:13:25Z</time>
      </trkpt>
      <trkpt lat="49.17573" lon="-0.39624">
        <ele>40.4</ele>
        <time>2023-05-02T14:13:26Z</time>
      </trkpt>
      <trkpt lat="49.17579" lon="-0.3963">
        <ele>40.6</ele>
        <time>2023-05-02T14:13:27Z</time>
      </trkpt>
      <trkpt lat="49.17584" lon="-0.39636">
        <ele>40.6</ele>
        <time>2023-05-02T14:13:28Z</time>
      </trkpt>
      <trkpt lat="49.1759" lon="-0.39641">
        <ele>40.8</ele>
        <time>2023-05-02T14:13:29Z</time>
      </trkpt>
      <trkpt lat="49.17596" lon="-0.39647">
        <ele>40.8</ele>
        <time>2023-05-02T14:13:30Z</time>
      </trkpt>
      <trkpt lat="49.17601" lon="-0.39653">
        <ele>40.8</ele>
        <time>2023-05-02T14:13:31Z</time>
      </trkpt>
      <trkpt lat="49.17607" lon="-0.39658">
        <ele>40.8</ele>
        <time>2023-05-02T14:13:32Z</time>
      </trkpt>
      <trkpt lat="49.17612" lon="-0.39664">
        <ele>40.6</ele>
        <time>2023-05-02T14:13:33Z</time>
      </trkpt>
      <trkpt lat="49.17618" lon="-0.3967">
        <ele>40.6</ele>
        <time>2023-05-02T14:13:34Z</time>
      </trkpt>
      <trkpt lat="49.17623" lon="-0.39675">
        <ele>40.6</ele>
        <time>2023-05-02T14:13:35Z</time>
      </trkpt>
      <trkpt lat="49.17629" lon="-0.3968">
        <ele>40.6</ele>
        <time>2023-05-02T14:13:36Z</time>
      </trkpt>
      <trkpt lat="49.17634" lon="-0.39686">
        <ele>40.6</ele>
        <time>2023-05-02T14:13:37Z</time>
      </trkpt>
      <trkpt lat="49.1764" lon="-0.39691">
        <ele>40.6</ele>
        <time>2023-05-02T14:13:38Z</time>
      </trkpt>
      <trkpt lat="49.17645" lon="-0.39697">
        <ele>40.6</ele>
        <time>2023-05-02T14:13:39Z</time>
      </trkpt>
      <trkpt lat="49.17651" lon="-0.39702">
        <ele>40.6</ele>
        <time>2023-05-02T14:13:40Z</time>
      </trkpt>
      <trkpt lat="49.17656" lon="-0.39707">
        <ele>40.6</ele>
        <time>2023-05-02T14:13:41Z</time>
      </trkpt>
      <trkpt lat="49.17662" lon="-0.39712">
        <ele>40.6</ele>
        <time>2023-05-02T14:13:42Z</time>
      </trkpt>
      <trkpt lat="49.17667" lon="-0.39717">
        <ele>40.6</ele>
        <time>2023-05-02T14:13:43Z</time>
      </trkpt>
      <trkpt lat="49.17672" lon="-0.39722">
        <ele>40.8</ele>
        <time>2023-05-02T14:13:44Z</time>
      </trkpt>
      <trkpt lat="49.17678" lon="-0.39727">
        <ele>40.8</ele>
        <time>2023-05-02T14:13:45Z</time>
      </trkpt>
      <trkpt lat="49.17683" lon="-0.39732">
        <ele>40.8</ele>
        <time>2023-05-02T14:13:46Z</time>
      </trkpt>
      <trkpt lat="49.17689" lon="-0.39737">
        <ele>41</ele>
        <time>2023-05-02T14:13:47Z</time>
      </trkpt>
      <trkpt lat="49.17694" lon="-0.39742">
        <ele>41</ele>
        <time>2023-05-02T14:13:48Z</time>
      </trkpt>
      <trkpt lat="49.177" lon="-0.39747">
        <ele>41</ele>
        <time>2023-05-02T14:13:49Z</time>
      </trkpt>
      <trkpt lat="49.17705" lon="-0.39753">
        <ele>41</ele>
        <time>2023-05-02T14:13:50Z</time>
      </trkpt>
      <trkpt lat="49.17711" lon="-0.39758">
        <ele>41</ele>
        <time>2023-05-02T14:13:51Z</time>
      </trkpt>
      <trkpt lat="49.17716" lon="-0.39763">
        <ele>41</ele>
        <time>2023-05-02T14:13:52Z</time>
      </trkpt>
      <trkpt lat="49.17722" lon="-0.39768">
        <ele>41</ele>
        <time>2023-05-02T14:13:53Z</time>
      </trkpt>
      <trkpt lat="49.17728" lon="-0.39773">
        <ele>41</ele>
        <time>2023-05-02T14:13:54Z</time>
      </trkpt>
      <trkpt lat="49.17733" lon="-0.39778">
        <ele>41</ele>
        <time>2023-05-02T14:13:55Z</time>
      </trkpt>
      <trkpt lat="49.17739" lon="-0.39782">
        <ele>41</ele>
        <time>2023-05-02T14:13:56Z</time>
      </trkpt>
      <trkpt lat="49.17744" lon="-0.39787">
        <ele>41</ele>
        <time>2023-05-02T14:13:57Z</time>
      </trkpt>
      <trkpt lat="49.1775" lon="-0.39792">
        <ele>41</ele>
        <time>2023-05-02T14:13:58Z</time>
      </trkpt>
      <trkpt lat="49.17755" lon="-0.39796">
        <ele>41</ele>
        <time>2023-05-02T14:13:59Z</time>
      </trkpt>
      <trkpt lat="49.1776" lon="-0.39801">
        <ele>41</ele>
        <time>2023-05-02T14:14:00Z</time>
      </trkpt>
      <trkpt lat="49.17766" lon="-0.39805">
        <ele>41</ele>
        <time>2023-05-02T14:14:01Z</time>
      </trkpt>
      <trkpt lat="49.17771" lon="-0.3981">
        <ele>41</ele>
        <time>2023-05-02T14:14:02Z</time>
      </trkpt>
      <trkpt lat="49.17776" lon="-0.39814">
        <ele>41</ele>
        <time>2023-05-02T14:14:03Z</time>
      </trkpt>
      <trkpt lat="49.17781" lon="-0.39819">
        <ele>41</ele>
        <time>2023-05-02T14:14:04Z</time>
      </trkpt>
      <trkpt lat="49.17786" lon="-0.39823">
        <ele>41</ele>
        <time>2023-05-02T14:14:05Z</time>
      </trkpt>
      <trkpt lat="49.17791" lon="-0.39826">
        <ele>41</ele>
        <time>2023-05-02T14:14:06Z</time>
      </trkpt>
      <trkpt lat="49.17796" lon="-0.3983">
        <ele>41</ele>
        <time>2023-05-02T14:14:07Z</time>
      </trkpt>
      <trkpt lat="49.17801" lon="-0.39833">
        <ele>41</ele>
        <time>2023-05-02T14:14:08Z</time>
      </trkpt>
      <trkpt lat="49.17806" lon="-0.39836">
        <ele>41</ele>
        <time>2023-05-02T14:14:09Z</time>
      </trkpt>
      <trkpt lat="49.17811" lon="-0.39839">
        <ele>41</ele>
        <time>2023-05-02T14:14:10Z</time>
      </trkpt>
      <trkpt lat="49.17817" lon="-0.39843">
        <ele>41</ele>
        <time>2023-05-02T14:14:11Z</time>
      </trkpt>
      <trkpt lat="49.17822" lon="-0.39846">
        <ele>41</ele>
        <time>2023-05-02T14:14:12Z</time>
      </trkpt>
      <trkpt lat="49.17827" lon="-0.3985">
        <ele>41</ele>
        <time>2023-05-02T14:14:13Z</time>
      </trkpt>
      <trkpt lat="49.17832" lon="-0.39854">
        <ele>41</ele>
        <time>2023-05-02T14:14:14Z</time>
      </trkpt>
      <trkpt lat="49.17837" lon="-0.39857">
        <ele>41</ele>
        <time>2023-05-02T14:14:15Z</time>
      </trkpt>
      <trkpt lat="49.17842" lon="-0.39861">
        <ele>41.2</ele>
        <time>2023-05-02T14:14:16Z</time>
      </trkpt>
      <trkpt lat="49.17847" lon="-0.39865">
        <ele>41.4</ele>
        <time>2023-05-02T14:14:17Z</time>
      </trkpt>
      <trkpt lat="49.17852" lon="-0.39868">
        <ele>41.6</ele>
        <time>2023-05-02T14:14:18Z</time>
      </trkpt>
      <trkpt lat="49.17857" lon="-0.39872">
        <ele>41.8</ele>
        <time>2023-05-02T14:14:19Z</time>
      </trkpt>
      <trkpt lat="49.17862" lon="-0.39876">
        <ele>42</ele>
        <time>2023-05-02T14:14:20Z</time>
      </trkpt>
      <trkpt lat="49.17867" lon="-0.39879">
        <ele>42</ele>
        <time>2023-05-02T14:14:21Z</time>
      </trkpt>
      <trkpt lat="49.17872" lon="-0.39883">
        <ele>42</ele>
        <time>2023-05-02T14:14:22Z</time>
      </trkpt>
      <trkpt lat="49.17877" lon="-0.39887">
        <ele>42.2</ele>
        <time>2023-05-02T14:14:23Z</time>
      </trkpt>
      <trkpt lat="49.17882" lon="-0.39891">
        <ele>42.2</ele>
        <time>2023-05-02T14:14:24Z</time>
      </trkpt>
      <trkpt lat="49.17886" lon="-0.39894">
        <ele>42.4</ele>
        <time>2023-05-02T14:14:25Z</time>
      </trkpt>
      <trkpt lat="49.17891" lon="-0.39897">
        <ele>42.6</ele>
        <time>2023-05-02T14:14:26Z</time>
      </trkpt>
      <trkpt lat="49.17896" lon="-0.399">
        <ele>42.8</ele>
        <time>2023-05-02T14:14:27Z</time>
      </trkpt>
      <trkpt lat="49.17901" lon="-0.39904">
        <ele>42.8</ele>
        <time>2023-05-02T14:14:28Z</time>
      </trkpt>
      <trkpt lat="49.17906" lon="-0.39906">
        <ele>43</ele>
        <time>2023-05-02T14:14:29Z</time>
      </trkpt>
      <trkpt lat="49.17911" lon="-0.39909">
        <ele>43</ele>
        <time>2023-05-02T14:14:30Z</time>
      </trkpt>
      <trkpt lat="49.17916" lon="-0.39912">
        <ele>43</ele>
        <time>2023-05-02T14:14:31Z</time>
      </trkpt>
      <trkpt lat="49.17921" lon="-0.39916">
        <ele>42.8</ele>
        <time>2023-05-02T14:14:32Z</time>
      </trkpt>
      <trkpt lat="49.17926" lon="-0.39919">
        <ele>42.6</ele>
        <time>2023-05-02T14:14:33Z</time>
      </trkpt>
      <trkpt lat="49.17931" lon="-0.39923">
        <ele>42.4</ele>
        <time>2023-05-02T14:14:34Z</time>
      </trkpt>
      <trkpt lat="49.17936" lon="-0.39926">
        <ele>42.2</ele>
        <time>2023-05-02T14:14:35Z</time>
      </trkpt>
      <trkpt lat="49.17941" lon="-0.3993">
        <ele>42</ele>
        <time>2023-05-02T14:14:36Z</time>
      </trkpt>
      <trkpt lat="49.17946" lon="-0.39933">
        <ele>41.8</ele>
        <time>2023-05-02T14:14:37Z</time>
      </trkpt>
      <trkpt lat="49.1795" lon="-0.39937">
        <ele>41.6</ele>
        <time>2023-05-02T14:14:38Z</time>
      </trkpt>
      <trkpt lat="49.17955" lon="-0.39941">
        <ele>41.4</ele>
        <time>2023-05-02T14:14:39Z</time>
      </trkpt>
      <trkpt lat="49.1796" lon="-0.39945">
        <ele>41.2</ele>
        <time>2023-05-02T14:14:40Z</time>
      </trkpt>
      <trkpt lat="49.17964" lon="-0.39949">
        <ele>41.2</ele>
        <time>2023-05-02T14:14:41Z</time>
      </trkpt>
      <trkpt lat="49.17969" lon="-0.39953">
        <ele>41</ele>
        <time>2023-05-02T14:14:42Z</time>
      </trkpt>
      <trkpt lat="49.17973" lon="-0.39957">
        <ele>41</ele>
        <time>2023-05-02T14:14:43Z</time>
      </trkpt>
      <trkpt lat="49.17978" lon="-0.39961">
        <ele>41</ele>
        <time>2023-05-02T14:14:44Z</time>
      </trkpt>
      <trkpt lat="49.17982" lon="-0.39964">
        <ele>41</ele>
        <time>2023-05-02T14:14:45Z</time>
      </trkpt>
      <trkpt lat="49.17986" lon="-0.39967">
        <ele>40.8</ele>
        <time>2023-05-02T14:14:46Z</time>
      </trkpt>
      <trkpt lat="49.17989" lon="-0.39967">
        <ele>40.8</ele>
        <time>2023-05-02T14:14:47Z</time>
      </trkpt>
      <trkpt lat="49.17991" lon="-0.39967">
        <ele>40.8</ele>
        <time>2023-05-02T14:14:48Z</time>
      </trkpt>
      <trkpt lat="49.17991" lon="-0.39964">
        <ele>40.8</ele>
        <time>2023-05-02T14:14:49Z</time>
      </trkpt>
      <trkpt lat="49.17991" lon="-0.39962">
        <ele>40.8</ele>
        <time>2023-05-02T14:14:50Z</time>
      </trkpt>
      <trkpt lat="49.17991" lon="-0.39959">
        <ele>40.8</ele>
        <time>2023-05-02T14:14:51Z</time>
      </trkpt>
      <trkpt lat="49.17992" lon="-0.39955">
        <ele>40.6</ele>
        <time>2023-05-02T14:14:52Z</time>
      </trkpt>
      <trkpt lat="49.17994" lon="-0.39951">
        <ele>40.6</ele>
        <time>2023-05-02T14:14:53Z</time>
      </trkpt>
      <trkpt lat="49.17997" lon="-0.39946">
        <ele>40.4</ele>
        <time>2023-05-02T14:14:54Z</time>
      </trkpt>
      <trkpt lat="49.17999" lon="-0.3994">
        <ele>40.2</ele>
        <time>2023-05-02T14:14:55Z</time>
      </trkpt>
      <trkpt lat="49.18002" lon="-0.39934">
        <ele>40.2</ele>
        <time>2023-05-02T14:14:56Z</time>
      </trkpt>
      <trkpt lat="49.18004" lon="-0.39927">
        <ele>40</ele>
        <time>2023-05-02T14:14:57Z</time>
      </trkpt>
      <trkpt lat="49.18007" lon="-0.3992">
        <ele>40</ele>
        <time>2023-05-02T14:14:58Z</time>
      </trkpt>
      <trkpt lat="49.1801" lon="-0.39912">
        <ele>40</ele>
        <time>2023-05-02T14:14:59Z</time>
      </trkpt>
      <trkpt lat="49.18012" lon="-0.39904">
        <ele>40</ele>
        <time>2023-05-02T14:15:00Z</time>
      </trkpt>
      <trkpt lat="49.18015" lon="-0.39897">
        <ele>40</ele>
        <time>2023-05-02T14:15:01Z</time>
      </trkpt>
      <trkpt lat="49.18017" lon="-0.39889">
        <ele>40</ele>
        <time>2023-05-02T14:15:02Z</time>
      </trkpt>
      <trkpt lat="49.1802" lon="-0.39881">
        <ele>40</ele>
        <time>2023-05-02T14:15:03Z</time>
      </trkpt>
      <trkpt lat="49.18022" lon="-0.39873">
        <ele>40</ele>
        <time>2023-05-02T14:15:04Z</time>
      </trkpt>
      <trkpt lat="49.18024" lon="-0.39865">
        <ele>39.8</ele>
        <time>2023-05-02T14:15:05Z</time>
      </trkpt>
      <trkpt lat="49.18027" lon="-0.39857">
        <ele>39.8</ele>
        <time>2023-05-02T14:15:06Z</time>
      </trkpt>
      <trkpt lat="49.1803" lon="-0.3985">
        <ele>39.8</ele>
        <time>2023-05-02T14:15:07Z</time>
      </trkpt>
      <trkpt lat="49.18032" lon="-0.39842">
        <ele>39.8</ele>
        <time>2023-05-02T14:15:08Z</time>
      </trkpt>
      <trkpt lat="49.18035" lon="-0.39834">
        <ele>39.6</ele>
        <time>2023-05-02T14:15:09Z</time>
      </trkpt>
      <trkpt lat="49.18038" lon="-0.39826">
        <ele>39.6</ele>
        <time>2023-05-02T14:15:10Z</time>
      </trkpt>
      <trkpt lat="49.18041" lon="-0.39819">
        <ele>39.6</ele>
        <time>2023-05-02T14:15:11Z</time>
      </trkpt>
      <trkpt lat="49.18044" lon="-0.39811">
        <ele>39.6</ele>
        <time>2023-05-02T14:15:12Z</time>
      </trkpt>
      <trkpt lat="49.18047" lon="-0.39804">
        <ele>39.4</ele>
        <time>2023-05-02T14:15:13Z</time>
      </trkpt>
      <trkpt lat="49.18051" lon="-0.39798">
        <ele>39.4</ele>
        <time>2023-05-02T14:15:14Z</time>
      </trkpt>
      <trkpt lat="49.18054" lon="-0.39791">
        <ele>39.4</ele>
        <time>2023-05-02T14:15:15Z</time>
      </trkpt>
      <trkpt lat="49.18058" lon="-0.39785">
        <ele>39.2</ele>
        <time>2023-05-02T14:15:16Z</time>
      </trkpt>
      <trkpt lat="49.18061" lon="-0.39779">
        <ele>39.2</ele>
        <time>2023-05-02T14:15:17Z</time>
      </trkpt>
      <trkpt lat="49.18065" lon="-0.39773">
        <ele>39.2</ele>
        <time>2023-05-02T14:15:18Z</time>
      </trkpt>
      <trkpt lat="49.18069" lon="-0.39768">
        <ele>39.2</ele>
        <time>2023-05-02T14:15:19Z</time>
      </trkpt>
      <trkpt lat="49.18072" lon="-0.39762">
        <ele>39</ele>
        <time>2023-05-02T14:15:20Z</time>
      </trkpt>
      <trkpt lat="49.18076" lon="-0.39757">
        <ele>39</ele>
        <time>2023-05-02T14:15:21Z</time>
      </trkpt>
      <trkpt lat="49.18079" lon="-0.39751">
        <ele>39</ele>
        <time>2023-05-02T14:15:22Z</time>
      </trkpt>
      <trkpt lat="49.18083" lon="-0.39744">
        <ele>39</ele>
        <time>2023-05-02T14:15:23Z</time>
      </trkpt>
      <trkpt lat="49.18086" lon="-0.39737">
        <ele>39</ele>
        <time>2023-05-02T14:15:24Z</time>
      </trkpt>
      <trkpt lat="49.18088" lon="-0.3973">
        <ele>39</ele>
        <time>2023-05-02T14:15:25Z</time>
      </trkpt>
      <trkpt lat="49.18089" lon="-0.39722">
        <ele>39</ele>
        <time>2023-05-02T14:15:26Z</time>
      </trkpt>
      <trkpt lat="49.18088" lon="-0.39715">
        <ele>39</ele>
        <time>2023-05-02T14:15:27Z</time>
      </trkpt>
      <trkpt lat="49.18087" lon="-0.39707">
        <ele>39</ele>
        <time>2023-05-02T14:15:28Z</time>
      </trkpt>
      <trkpt lat="49.18086" lon="-0.39699">
        <ele>39</ele>
        <time>2023-05-02T14:15:29Z</time>
      </trkpt>
      <trkpt lat="49.18085" lon="-0.3969">
        <ele>39</ele>
        <time>2023-05-02T14:15:30Z</time>
      </trkpt>
      <trkpt lat="49.18084" lon="-0.39683">
        <ele>39</ele>
        <time>2023-05-02T14:15:31Z</time>
      </trkpt>
      <trkpt lat="49.18083" lon="-0.39675">
        <ele>39</ele>
        <time>2023-05-02T14:15:32Z</time>
      </trkpt>
      <trkpt lat="49.18081" lon="-0.39667">
        <ele>39</ele>
        <time>2023-05-02T14:15:33Z</time>
      </trkpt>
      <trkpt lat="49.1808" lon="-0.39659">
        <ele>39</ele>
        <time>2023-05-02T14:15:34Z</time>
      </trkpt>
      <trkpt lat="49.18079" lon="-0.39652">
        <ele>39.2</ele>
        <time>2023-05-02T14:15:35Z</time>
      </trkpt>
      <trkpt lat="49.18077" lon="-0.39645">
        <ele>39.2</ele>
        <time>2023-05-02T14:15:36Z</time>
      </trkpt>
      <trkpt lat="49.18076" lon="-0.39639">
        <ele>39.2</ele>
        <time>2023-05-02T14:15:37Z</time>
      </trkpt>
      <trkpt lat="49.18075" lon="-0.39634">
        <ele>39.2</ele>
        <time>2023-05-02T14:15:38Z</time>
      </trkpt>
      <trkpt lat="49.18074" lon="-0.3963">
        <ele>39.4</ele>
        <time>2023-05-02T14:15:39Z</time>
      </trkpt>
      <trkpt lat="49.18073" lon="-0.39627">
        <ele>39.4</ele>
        <time>2023-05-02T14:15:40Z</time>
      </trkpt>
      <trkpt lat="49.18073" lon="-0.39624">
        <ele>39.6</ele>
        <time>2023-05-02T14:15:41Z</time>
      </trkpt>
      <trkpt lat="49.18072" lon="-0.39621">
        <ele>39.6</ele>
        <time>2023-05-02T14:15:42Z</time>
      </trkpt>
      <trkpt lat="49.18072" lon="-0.39619">
        <ele>39.6</ele>
        <time>2023-05-02T14:15:43Z</time>
      </trkpt>
      <trkpt lat="49.18071" lon="-0.39617">
        <ele>39.6</ele>
        <time>2023-05-02T14:15:44Z</time>
      </trkpt>
      <trkpt lat="49.18071" lon="-0.39615">
        <ele>39.6</ele>
        <time>2023-05-02T14:15:45Z</time>
      </trkpt>
      <trkpt lat="49.18071" lon="-0.39614">
        <ele>39.6</ele>
        <time>2023-05-02T14:15:46Z</time>
      </trkpt>
      <trkpt lat="49.1807" lon="-0.39612">
        <ele>39.6</ele>
        <time>2023-05-02T14:15:47Z</time>
      </trkpt>
      <trkpt lat="49.1807" lon="-0.39612">
        <ele>39.6</ele>
        <time>2023-05-02T14:15:48Z</time>
      </trkpt>
      <trkpt lat="49.1807" lon="-0.39611">
        <ele>39.6</ele>
        <time>2023-05-02T14:15:49Z</time>
      </trkpt>
      <trkpt lat="49.1807" lon="-0.39611">
        <ele>39.6</ele>
        <time>2023-05-02T14:15:50Z</time>
      </trkpt>
      <trkpt lat="49.1807" lon="-0.39611">
        <ele>39.6</ele>
        <time>2023-05-02T14:15:51Z</time>
      </trkpt>
      <trkpt lat="49.1807" lon="-0.39611">
        <ele>39.6</ele>
        <time>2023-05-02T14:15:52Z</time>
      </trkpt>
      <trkpt lat="49.1807" lon="-0.39611">
        <ele>39.6</ele>
        <time>2023-05-02T14:15:53Z</time>
      </trkpt>
      <trkpt lat="49.1807" lon="-0.39611">
        <ele>39.6</ele>
        <time>2023-05-02T14:15:54Z</time>
      </trkpt>
      <trkpt lat="49.1807" lon="-0.39611">
        <ele>39.6</ele>
        <time>2023-05-02T14:15:55Z</time>
      </trkpt>
      <trkpt lat="49.1807" lon="-0.39611">
        <ele>39.6</ele>
        <time>2023-05-02T14:15:56Z</time>
      </trkpt>
      <trkpt lat="49.1807" lon="-0.39611">
        <ele>39.6</ele>
        <time>2023-05-02T14:15:57Z</time>
      </trkpt>
      <trkpt lat="49.1807" lon="-0.39611">
        <ele>39.6</ele>
        <time>2023-05-02T14:15:58Z</time>
      </trkpt>
      <trkpt lat="49.1807" lon="-0.39611">
        <ele>39.6</ele>
        <time>2023-05-02T14:15:59Z</time>
      </trkpt>
      <trkpt lat="49.18069" lon="-0.39608">
        <ele>39.6</ele>
        <time>2023-05-02T14:16:00Z</time>
      </trkpt>
      <trkpt lat="49.1807" lon="-0.39605">
        <ele>39.6</ele>
        <time>2023-05-02T14:16:01Z</time>
      </trkpt>
      <trkpt lat="49.18072" lon="-0.39603">
        <ele>39.6</ele>
        <time>2023-05-02T14:16:02Z</time>
      </trkpt>
      <trkpt lat="49.18076" lon="-0.39601">
        <ele>39.4</ele>
        <time>2023-05-02T14:16:03Z</time>
      </trkpt>
      <trkpt lat="49.18079" lon="-0.396">
        <ele>39.2</ele>
        <time>2023-05-02T14:16:04Z</time>
      </trkpt>
      <trkpt lat="49.18083" lon="-0.39598">
        <ele>39</ele>
        <time>2023-05-02T14:16:05Z</time>
      </trkpt>
      <trkpt lat="49.18087" lon="-0.39597">
        <ele>39</ele>
        <time>2023-05-02T14:16:06Z</time>
      </trkpt>
      <trkpt lat="49.18091" lon="-0.39596">
        <ele>39.2</ele>
        <time>2023-05-02T14:16:07Z</time>
      </trkpt>
      <trkpt lat="49.18096" lon="-0.39594">
        <ele>39.2</ele>
        <time>2023-05-02T14:16:08Z</time>
      </trkpt>
      <trkpt lat="49.181" lon="-0.39592">
        <ele>39.4</ele>
        <time>2023-05-02T14:16:09Z</time>
      </trkpt>
      <trkpt lat="49.18105" lon="-0.3959">
        <ele>39.6</ele>
        <time>2023-05-02T14:16:10Z</time>
      </trkpt>
      <trkpt lat="49.1811" lon="-0.39588">
        <ele>39.6</ele>
        <time>2023-05-02T14:16:11Z</time>
      </trkpt>
      <trkpt lat="49.18115" lon="-0.39586">
        <ele>39.8</ele>
        <time>2023-05-02T14:16:12Z</time>
      </trkpt>
      <trkpt lat="49.1812" lon="-0.39584">
        <ele>40</ele>
        <time>2023-05-02T14:16:13Z</time>
      </trkpt>
      <trkpt lat="49.18125" lon="-0.39581">
        <ele>40</ele>
        <time>2023-05-02T14:16:14Z</time>
      </trkpt>
      <trkpt lat="49.1813" lon="-0.39579">
        <ele>40</ele>
        <time>2023-05-02T14:16:15Z</time>
      </trkpt>
      <trkpt lat="49.18135" lon="-0.39576">
        <ele>40.2</ele>
        <time>2023-05-02T14:16:16Z</time>
      </trkpt>
      <trkpt lat="49.18141" lon="-0.39573">
        <ele>40.2</ele>
        <time>2023-05-02T14:16:17Z</time>
      </trkpt>
      <trkpt lat="49.18147" lon="-0.39571">
        <ele>40.4</ele>
        <time>2023-05-02T14:16:18Z</time>
      </trkpt>
      <trkpt lat="49.18152" lon="-0.39568">
        <ele>40.6</ele>
        <time>2023-05-02T14:16:19Z</time>
      </trkpt>
      <trkpt lat="49.18158" lon="-0.39565">
        <ele>40.6</ele>
        <time>2023-05-02T14:16:20Z</time>
      </trkpt>
      <trkpt lat="49.18164" lon="-0.39562">
        <ele>40.8</ele>
        <time>2023-05-02T14:16:21Z</time>
      </trkpt>
      <trkpt lat="49.1817" lon="-0.39559">
        <ele>40.8</ele>
        <time>2023-05-02T14:16:22Z</time>
      </trkpt>
      <trkpt lat="49.18176" lon="-0.39556">
        <ele>40.8</ele>
        <time>2023-05-02T14:16:23Z</time>
      </trkpt>
      <trkpt lat="49.18182" lon="-0.39553">
        <ele>40.8</ele>
        <time>2023-05-02T14:16:24Z</time>
      </trkpt>
      <trkpt lat="49.18188" lon="-0.3955">
        <ele>40.8</ele>
        <time>2023-05-02T14:16:25Z</time>
      </trkpt>
      <trkpt lat="49.18194" lon="-0.39548">
        <ele>40.8</ele>
        <time>2023-05-02T14:16:26Z</time>
      </trkpt>
      <trkpt lat="49.18201" lon="-0.39545">
        <ele>40.8</ele>
        <time>2023-05-02T14:16:27Z</time>
      </trkpt>
      <trkpt lat="49.18207" lon="-0.39542">
        <ele>40.8</ele>
        <time>2023-05-02T14:16:28Z</time>
      </trkpt>
      <trkpt lat="49.18213" lon="-0.39539">
        <ele>40.8</ele>
        <time>2023-05-02T14:16:29Z</time>
      </trkpt>
      <trkpt lat="49.18219" lon="-0.39536">
        <ele>40.8</ele>
        <time>2023-05-02T14:16:30Z</time>
      </trkpt>
      <trkpt lat="49.18225" lon="-0.39534">
        <ele>40.8</ele>
        <time>2023-05-02T14:16:31Z</time>
      </trkpt>
      <trkpt lat="49.18231" lon="-0.39531">
        <ele>41</ele>
        <time>2023-05-02T14:16:32Z</time>
      </trkpt>
      <trkpt lat="49.18237" lon="-0.39528">
        <ele>41</ele>
        <time>2023-05-02T14:16:33Z</time>
      </trkpt>
      <trkpt lat="49.18243" lon="-0.39526">
        <ele>41</ele>
        <time>2023-05-02T14:16:34Z</time>
      </trkpt>
      <trkpt lat="49.18249" lon="-0.39523">
        <ele>41</ele>
        <time>2023-05-02T14:16:35Z</time>
      </trkpt>
      <trkpt lat="49.18256" lon="-0.3952">
        <ele>41</ele>
        <time>2023-05-02T14:16:36Z</time>
      </trkpt>
      <trkpt lat="49.18262" lon="-0.39518">
        <ele>40.8</ele>
        <time>2023-05-02T14:16:37Z</time>
      </trkpt>
      <trkpt lat="49.18269" lon="-0.39515">
        <ele>40.6</ele>
        <time>2023-05-02T14:16:38Z</time>
      </trkpt>
      <trkpt lat="49.18275" lon="-0.39512">
        <ele>40.4</ele>
        <time>2023-05-02T14:16:39Z</time>
      </trkpt>
      <trkpt lat="49.18282" lon="-0.3951">
        <ele>40.2</ele>
        <time>2023-05-02T14:16:40Z</time>
      </trkpt>
      <trkpt lat="49.18288" lon="-0.39507">
        <ele>40</ele>
        <time>2023-05-02T14:16:41Z</time>
      </trkpt>
      <trkpt lat="49.18295" lon="-0.39504">
        <ele>40</ele>
        <time>2023-05-02T14:16:42Z</time>
      </trkpt>
      <trkpt lat="49.18301" lon="-0.39502">
        <ele>39.8</ele>
        <time>2023-05-02T14:16:43Z</time>
      </trkpt>
      <trkpt lat="49.18307" lon="-0.39499">
        <ele>39.6</ele>
        <time>2023-05-02T14:16:44Z</time>
      </trkpt>
      <trkpt lat="49.18314" lon="-0.39496">
        <ele>39.6</ele>
        <time>2023-05-02T14:16:45Z</time>
      </trkpt>
      <trkpt lat="49.1832" lon="-0.39493">
        <ele>39.2</ele>
        <time>2023-05-02T14:16:46Z</time>
      </trkpt>
      <trkpt lat="49.18326" lon="-0.39491">
        <ele>39.2</ele>
        <time>2023-05-02T14:16:47Z</time>
      </trkpt>
      <trkpt lat="49.18332" lon="-0.39488">
        <ele>39</ele>
        <time>2023-05-02T14:16:48Z</time>
      </trkpt>
      <trkpt lat="49.18339" lon="-0.39485">
        <ele>39</ele>
        <time>2023-05-02T14:16:49Z</time>
      </trkpt>
      <trkpt lat="49.18345" lon="-0.39483">
        <ele>39</ele>
        <time>2023-05-02T14:16:50Z</time>
      </trkpt>
      <trkpt lat="49.18351" lon="-0.3948">
        <ele>39</ele>
        <time>2023-05-02T14:16:51Z</time>
      </trkpt>
      <trkpt lat="49.18357" lon="-0.39477">
        <ele>39</ele>
        <time>2023-05-02T14:16:52Z</time>
      </trkpt>
      <trkpt lat="49.18364" lon="-0.39474">
        <ele>39</ele>
        <time>2023-05-02T14:16:53Z</time>
      </trkpt>
      <trkpt lat="49.1837" lon="-0.3947">
        <ele>39</ele>
        <time>2023-05-02T14:16:54Z</time>
      </trkpt>
      <trkpt lat="49.18376" lon="-0.39467">
        <ele>39</ele>
        <time>2023-05-02T14:16:55Z</time>
      </trkpt>
      <trkpt lat="49.18382" lon="-0.39463">
        <ele>39</ele>
        <time>2023-05-02T14:16:56Z</time>
      </trkpt>
      <trkpt lat="49.18388" lon="-0.39459">
        <ele>39</ele>
        <time>2023-05-02T14:16:57Z</time>
      </trkpt>
      <trkpt lat="49.18394" lon="-0.39456">
        <ele>39</ele>
        <time>2023-05-02T14:16:58Z</time>
      </trkpt>
      <trkpt lat="49.184" lon="-0.39452">
        <ele>39</ele>
        <time>2023-05-02T14:16:59Z</time>
      </trkpt>
      <trkpt lat="49.18406" lon="-0.39448">
        <ele>39</ele>
        <time>2023-05-02T14:17:00Z</time>
      </trkpt>
      <trkpt lat="49.18411" lon="-0.39445">
        <ele>39</ele>
        <time>2023-05-02T14:17:01Z</time>
      </trkpt>
      <trkpt lat="49.18417" lon="-0.39443">
        <ele>39</ele>
        <time>2023-05-02T14:17:02Z</time>
      </trkpt>
      <trkpt lat="49.18422" lon="-0.3944">
        <ele>39</ele>
        <time>2023-05-02T14:17:03Z</time>
      </trkpt>
      <trkpt lat="49.18427" lon="-0.39437">
        <ele>39</ele>
        <time>2023-05-02T14:17:04Z</time>
      </trkpt>
      <trkpt lat="49.18431" lon="-0.39434">
        <ele>39</ele>
        <time>2023-05-02T14:17:05Z</time>
      </trkpt>
      <trkpt lat="49.18436" lon="-0.39431">
        <ele>38.8</ele>
        <time>2023-05-02T14:17:06Z</time>
      </trkpt>
      <trkpt lat="49.18439" lon="-0.39428">
        <ele>38.8</ele>
        <time>2023-05-02T14:17:07Z</time>
      </trkpt>
      <trkpt lat="49.18442" lon="-0.39426">
        <ele>38.8</ele>
        <time>2023-05-02T14:17:08Z</time>
      </trkpt>
      <trkpt lat="49.18444" lon="-0.39424">
        <ele>38.8</ele>
        <time>2023-05-02T14:17:09Z</time>
      </trkpt>
      <trkpt lat="49.18446" lon="-0.39422">
        <ele>38.8</ele>
        <time>2023-05-02T14:17:10Z</time>
      </trkpt>
      <trkpt lat="49.18447" lon="-0.39421">
        <ele>38.8</ele>
        <time>2023-05-02T14:17:11Z</time>
      </trkpt>
      <trkpt lat="49.18448" lon="-0.39421">
        <ele>38.6</ele>
        <time>2023-05-02T14:17:12Z</time>
      </trkpt>
      <trkpt lat="49.18448" lon="-0.39421">
        <ele>38.6</ele>
        <time>2023-05-02T14:17:13Z</time>
      </trkpt>
      <trkpt lat="49.18449" lon="-0.39421">
        <ele>38.6</ele>
        <time>2023-05-02T14:17:14Z</time>
      </trkpt>
      <trkpt lat="49.18449" lon="-0.39421">
        <ele>38.6</ele>
        <time>2023-05-02T14:17:15Z</time>
      </trkpt>
      <trkpt lat="49.18449" lon="-0.39421">
        <ele>38.6</ele>
        <time>2023-05-02T14:17:16Z</time>
      </trkpt>
      <trkpt lat="49.18449" lon="-0.39421">
        <ele>38.6</ele>
        <time>2023-05-02T14:17:17Z</time>
      </trkpt>
      <trkpt lat="49.18449" lon="-0.39421">
        <ele>38.6</ele>
        <time>2023-05-02T14:17:18Z</time>
      </trkpt>
      <trkpt lat="49.18449" lon="-0.39421">
        <ele>38.6</ele>
        <time>2023-05-02T14:17:19Z</time>
      </trkpt>
      <trkpt lat="49.18449" lon="-0.39421">
        <ele>38.6</ele>
        <time>2023-05-02T14:17:20Z</time>
      </trkpt>
      <trkpt lat="49.18449" lon="-0.39421">
        <ele>38.6</ele>
        <time>2023-05-02T14:17:21Z</time>
      </trkpt>
      <trkpt lat="49.18449" lon="-0.39421">
        <ele>38.6</ele>
        <time>2023-05-02T14:17:22Z</time>
      </trkpt>
      <trkpt lat="49.18449" lon="-0.39421">
        <ele>38.6</ele>
        <time>2023-05-02T14:17:23Z</time>
      </trkpt>
      <trkpt lat="49.18449" lon="-0.39421">
        <ele>38.6</ele>
        <time>2023-05-02T14:17:24Z</time>
      </trkpt>
      <trkpt lat="49.18449" lon="-0.39421">
        <ele>38.6</ele>
        <time>2023-05-02T14:17:25Z</time>
      </trkpt>
      <trkpt lat="49.18449" lon="-0.39421">
        <ele>38.6</ele>
        <time>2023-05-02T14:17:26Z</time>
      </trkpt>
      <trkpt lat="49.18449" lon="-0.39421">
        <ele>38.6</ele>
        <time>2023-05-02T14:17:27Z</time>
      </trkpt>
      <trkpt lat="49.18449" lon="-0.39421">
        <ele>38.6</ele>
        <time>2023-05-02T14:17:28Z</time>
      </trkpt>
      <trkpt lat="49.18449" lon="-0.39421">
        <ele>38.6</ele>
        <time>2023-05-02T14:17:29Z</time>
      </trkpt>
      <trkpt lat="49.18449" lon="-0.39421">
        <ele>38.6</ele>
        <time>2023-05-02T14:17:30Z</time>
      </trkpt>
      <trkpt lat="49.18449" lon="-0.39421">
        <ele>38.6</ele>
        <time>2023-05-02T14:17:31Z</time>
      </trkpt>
      <trkpt lat="49.18449" lon="-0.39421">
        <ele>38.6</ele>
        <time>2023-05-02T14:17:32Z</time>
      </trkpt>
      <trkpt lat="49.18449" lon="-0.39421">
        <ele>38.6</ele>
        <time>2023-05-02T14:17:33Z</time>
      </trkpt>
      <trkpt lat="49.18449" lon="-0.39421">
        <ele>38.6</ele>
        <time>2023-05-02T14:17:34Z</time>
      </trkpt>
      <trkpt lat="49.18449" lon="-0.39421">
        <ele>38.6</ele>
        <time>2023-05-02T14:17:35Z</time>
      </trkpt>
      <trkpt lat="49.18449" lon="-0.3942">
        <ele>38.6</ele>
        <time>2023-05-02T14:17:36Z</time>
      </trkpt>
      <trkpt lat="49.18449" lon="-0.39419">
        <ele>38.6</ele>
        <time>2023-05-02T14:17:37Z</time>
      </trkpt>
      <trkpt lat="49.1845" lon="-0.39418">
        <ele>38.6</ele>
        <time>2023-05-02T14:17:38Z</time>
      </trkpt>
      <trkpt lat="49.18452" lon="-0.39417">
        <ele>38.6</ele>
        <time>2023-05-02T14:17:39Z</time>
      </trkpt>
      <trkpt lat="49.18454" lon="-0.39415">
        <ele>38.6</ele>
        <time>2023-05-02T14:17:40Z</time>
      </trkpt>
      <trkpt lat="49.18456" lon="-0.39413">
        <ele>38.6</ele>
        <time>2023-05-02T14:17:41Z</time>
      </trkpt>
      <trkpt lat="49.18459" lon="-0.39411">
        <ele>38.4</ele>
        <time>2023-05-02T14:17:42Z</time>
      </trkpt>
      <trkpt lat="49.18461" lon="-0.39409">
        <ele>38.4</ele>
        <time>2023-05-02T14:17:43Z</time>
      </trkpt>
      <trkpt lat="49.18463" lon="-0.39408">
        <ele>38.2</ele>
        <time>2023-05-02T14:17:44Z</time>
      </trkpt>
      <trkpt lat="49.18465" lon="-0.39406">
        <ele>38.2</ele>
        <time>2023-05-02T14:17:45Z</time>
      </trkpt>
      <trkpt lat="49.18468" lon="-0.39405">
        <ele>38.2</ele>
        <time>2023-05-02T14:17:46Z</time>
      </trkpt>
      <trkpt lat="49.18471" lon="-0.39403">
        <ele>38.2</ele>
        <time>2023-05-02T14:17:47Z</time>
      </trkpt>
      <trkpt lat="49.18474" lon="-0.39401">
        <ele>38</ele>
        <time>2023-05-02T14:17:48Z</time>
      </trkpt>
      <trkpt lat="49.18478" lon="-0.39399">
        <ele>38</ele>
        <time>2023-05-02T14:17:49Z</time>
      </trkpt>
      <trkpt lat="49.18483" lon="-0.39396">
        <ele>38</ele>
        <time>2023-05-02T14:17:50Z</time>
      </trkpt>
      <trkpt lat="49.18487" lon="-0.39393">
        <ele>38</ele>
        <time>2023-05-02T14:17:51Z</time>
      </trkpt>
      <trkpt lat="49.18492" lon="-0.3939">
        <ele>37.8</ele>
        <time>2023-05-02T14:17:52Z</time>
      </trkpt>
      <trkpt lat="49.18497" lon="-0.39386">
        <ele>37.8</ele>
        <time>2023-05-02T14:17:53Z</time>
      </trkpt>
      <trkpt lat="49.18502" lon="-0.39383">
        <ele>37.6</ele>
        <time>2023-05-02T14:17:54Z</time>
      </trkpt>
      <trkpt lat="49.18507" lon="-0.39379">
        <ele>37.6</ele>
        <time>2023-05-02T14:17:55Z</time>
      </trkpt>
      <trkpt lat="49.18512" lon="-0.39375">
        <ele>37.6</ele>
        <time>2023-05-02T14:17:56Z</time>
      </trkpt>
      <trkpt lat="49.18518" lon="-0.39371">
        <ele>37.6</ele>
        <time>2023-05-02T14:17:57Z</time>
      </trkpt>
      <trkpt lat="49.18523" lon="-0.39367">
        <ele>37.6</ele>
        <time>2023-05-02T14:17:58Z</time>
      </trkpt>
      <trkpt lat="49.18528" lon="-0.39363">
        <ele>37.6</ele>
        <time>2023-05-02T14:17:59Z</time>
      </trkpt>
      <trkpt lat="49.18534" lon="-0.39359">
        <ele>37.6</ele>
        <time>2023-05-02T14:18:00Z</time>
      </trkpt>
      <trkpt lat="49.18539" lon="-0.39355">
        <ele>37.6</ele>
        <time>2023-05-02T14:18:01Z</time>
      </trkpt>
      <trkpt lat="49.18545" lon="-0.39351">
        <ele>37.6</ele>
        <time>2023-05-02T14:18:02Z</time>
      </trkpt>
      <trkpt lat="49.18551" lon="-0.39346">
        <ele>37.8</ele>
        <time>2023-05-02T14:18:03Z</time>
      </trkpt>
      <trkpt lat="49.18557" lon="-0.39342">
        <ele>37.8</ele>
        <time>2023-05-02T14:18:04Z</time>
      </trkpt>
      <trkpt lat="49.18562" lon="-0.39338">
        <ele>37.8</ele>
        <time>2023-05-02T14:18:05Z</time>
      </trkpt>
      <trkpt lat="49.18568" lon="-0.39334">
        <ele>37.8</ele>
        <time>2023-05-02T14:18:06Z</time>
      </trkpt>
      <trkpt lat="49.18573" lon="-0.3933">
        <ele>37.8</ele>
        <time>2023-05-02T14:18:07Z</time>
      </trkpt>
      <trkpt lat="49.18578" lon="-0.39326">
        <ele>38</ele>
        <time>2023-05-02T14:18:08Z</time>
      </trkpt>
      <trkpt lat="49.18584" lon="-0.39322">
        <ele>38</ele>
        <time>2023-05-02T14:18:09Z</time>
      </trkpt>
      <trkpt lat="49.18589" lon="-0.39318">
        <ele>38</ele>
        <time>2023-05-02T14:18:10Z</time>
      </trkpt>
      <trkpt lat="49.18594" lon="-0.39315">
        <ele>38</ele>
        <time>2023-05-02T14:18:11Z</time>
      </trkpt>
      <trkpt lat="49.18599" lon="-0.39311">
        <ele>38.2</ele>
        <time>2023-05-02T14:18:12Z</time>
      </trkpt>
      <trkpt lat="49.18604" lon="-0.39307">
        <ele>38.2</ele>
        <time>2023-05-02T14:18:13Z</time>
      </trkpt>
      <trkpt lat="49.1861" lon="-0.39304">
        <ele>38.4</ele>
        <time>2023-05-02T14:18:14Z</time>
      </trkpt>
      <trkpt lat="49.18615" lon="-0.393">
        <ele>38.6</ele>
        <time>2023-05-02T14:18:15Z</time>
      </trkpt>
      <trkpt lat="49.1862" lon="-0.39297">
        <ele>38.6</ele>
        <time>2023-05-02T14:18:16Z</time>
      </trkpt>
      <trkpt lat="49.18625" lon="-0.39293">
        <ele>38.8</ele>
        <time>2023-05-02T14:18:17Z</time>
      </trkpt>
      <trkpt lat="49.1863" lon="-0.3929">
        <ele>39</ele>
        <time>2023-05-02T14:18:18Z</time>
      </trkpt>
      <trkpt lat="49.18635" lon="-0.39286">
        <ele>39</ele>
        <time>2023-05-02T14:18:19Z</time>
      </trkpt>
      <trkpt lat="49.1864" lon="-0.39282">
        <ele>39.2</ele>
        <time>2023-05-02T14:18:20Z</time>
      </trkpt>
      <trkpt lat="49.18645" lon="-0.39278">
        <ele>39.2</ele>
        <time>2023-05-02T14:18:21Z</time>
      </trkpt>
      <trkpt lat="49.1865" lon="-0.39274">
        <ele>39.6</ele>
        <time>2023-05-02T14:18:22Z</time>
      </trkpt>
      <trkpt lat="49.18655" lon="-0.39271">
        <ele>39.6</ele>
        <time>2023-05-02T14:18:23Z</time>
      </trkpt>
      <trkpt lat="49.1866" lon="-0.39267">
        <ele>39.8</ele>
        <time>2023-05-02T14:18:24Z</time>
      </trkpt>
      <trkpt lat="49.18665" lon="-0.39263">
        <ele>40</ele>
        <time>2023-05-02T14:18:25Z</time>
      </trkpt>
      <trkpt lat="49.1867" lon="-0.3926">
        <ele>40</ele>
        <time>2023-05-02T14:18:26Z</time>
      </trkpt>
      <trkpt lat="49.18674" lon="-0.39257">
        <ele>40</ele>
        <time>2023-05-02T14:18:27Z</time>
      </trkpt>
      <trkpt lat="49.18679" lon="-0.39254">
        <ele>40</ele>
        <time>2023-05-02T14:18:28Z</time>
      </trkpt>
      <trkpt lat="49.18682" lon="-0.39251">
        <ele>40</ele>
        <time>2023-05-02T14:18:29Z</time>
      </trkpt>
      <trkpt lat="49.18686" lon="-0.39247">
        <ele>40</ele>
        <time>2023-05-02T14:18:30Z</time>
      </trkpt>
      <trkpt lat="49.18689" lon="-0.39243">
        <ele>40</ele>
        <time>2023-05-02T14:18:31Z</time>
      </trkpt>
      <trkpt lat="49.18691" lon="-0.39241">
        <ele>40</ele>
        <time>2023-05-02T14:18:32Z</time>
      </trkpt>
      <trkpt lat="49.18694" lon="-0.3924">
        <ele>40</ele>
        <time>2023-05-02T14:18:33Z</time>
      </trkpt>
      <trkpt lat="49.18697" lon="-0.39242">
        <ele>40</ele>
        <time>2023-05-02T14:18:34Z</time>
      </trkpt>
      <trkpt lat="49.187" lon="-0.39245">
        <ele>40</ele>
        <time>2023-05-02T14:18:35Z</time>
      </trkpt>
      <trkpt lat="49.18703" lon="-0.3925">
        <ele>40</ele>
        <time>2023-05-02T14:18:36Z</time>
      </trkpt>
      <trkpt lat="49.18705" lon="-0.39256">
        <ele>40</ele>
        <time>2023-05-02T14:18:37Z</time>
      </trkpt>
      <trkpt lat="49.18708" lon="-0.39261">
        <ele>40</ele>
        <time>2023-05-02T14:18:38Z</time>
      </trkpt>
      <trkpt lat="49.18711" lon="-0.39267">
        <ele>40</ele>
        <time>2023-05-02T14:18:39Z</time>
      </trkpt>
      <trkpt lat="49.18714" lon="-0.39272">
        <ele>40.2</ele>
        <time>2023-05-02T14:18:40Z</time>
      </trkpt>
      <trkpt lat="49.18718" lon="-0.39277">
        <ele>40.2</ele>
        <time>2023-05-02T14:18:41Z</time>
      </trkpt>
      <trkpt lat="49.18721" lon="-0.39283">
        <ele>40.2</ele>
        <time>2023-05-02T14:18:42Z</time>
      </trkpt>
      <trkpt lat="49.18724" lon="-0.39289">
        <ele>40.2</ele>
        <time>2023-05-02T14:18:43Z</time>
      </trkpt>
      <trkpt lat="49.18727" lon="-0.39294">
        <ele>40.4</ele>
        <time>2023-05-02T14:18:44Z</time>
      </trkpt>
      <trkpt lat="49.1873" lon="-0.393">
        <ele>40.6</ele>
        <time>2023-05-02T14:18:45Z</time>
      </trkpt>
      <trkpt lat="49.18733" lon="-0.39306">
        <ele>40.6</ele>
        <time>2023-05-02T14:18:46Z</time>
      </trkpt>
      <trkpt lat="49.18737" lon="-0.39312">
        <ele>40.6</ele>
        <time>2023-05-02T14:18:47Z</time>
      </trkpt>
      <trkpt lat="49.1874" lon="-0.39317">
        <ele>40.8</ele>
        <time>2023-05-02T14:18:48Z</time>
      </trkpt>
      <trkpt lat="49.18744" lon="-0.39323">
        <ele>40.8</ele>
        <time>2023-05-02T14:18:49Z</time>
      </trkpt>
      <trkpt lat="49.18748" lon="-0.39329">
        <ele>41</ele>
        <time>2023-05-02T14:18:50Z</time>
      </trkpt>
      <trkpt lat="49.18751" lon="-0.39335">
        <ele>41</ele>
        <time>2023-05-02T14:18:51Z</time>
      </trkpt>
      <trkpt lat="49.18755" lon="-0.39341">
        <ele>41.2</ele>
        <time>2023-05-02T14:18:52Z</time>
      </trkpt>
      <trkpt lat="49.18759" lon="-0.39347">
        <ele>41.2</ele>
        <time>2023-05-02T14:18:53Z</time>
      </trkpt>
      <trkpt lat="49.18763" lon="-0.39353">
        <ele>41.4</ele>
        <time>2023-05-02T14:18:54Z</time>
      </trkpt>
      <trkpt lat="49.18767" lon="-0.39359">
        <ele>41.6</ele>
        <time>2023-05-02T14:18:55Z</time>
      </trkpt>
      <trkpt lat="49.1877" lon="-0.39365">
        <ele>41.6</ele>
        <time>2023-05-02T14:18:56Z</time>
      </trkpt>
      <trkpt lat="49.18774" lon="-0.3937">
        <ele>41.8</ele>
        <time>2023-05-02T14:18:57Z</time>
      </trkpt>
      <trkpt lat="49.18778" lon="-0.39376">
        <ele>41.8</ele>
        <time>2023-05-02T14:18:58Z</time>
      </trkpt>
      <trkpt lat="49.18782" lon="-0.39381">
        <ele>42</ele>
        <time>2023-05-02T14:18:59Z</time>
      </trkpt>
      <trkpt lat="49.18786" lon="-0.39386">
        <ele>42</ele>
        <time>2023-05-02T14:19:00Z</time>
      </trkpt>
      <trkpt lat="49.1879" lon="-0.39392">
        <ele>42.2</ele>
        <time>2023-05-02T14:19:01Z</time>
      </trkpt>
      <trkpt lat="49.18794" lon="-0.39397">
        <ele>42.2</ele>
        <time>2023-05-02T14:19:02Z</time>
      </trkpt>
      <trkpt lat="49.18798" lon="-0.39402">
        <ele>42.4</ele>
        <time>2023-05-02T14:19:03Z</time>
      </trkpt>
      <trkpt lat="49.18802" lon="-0.39407">
        <ele>42.6</ele>
        <time>2023-05-02T14:19:04Z</time>
      </trkpt>
      <trkpt lat="49.18806" lon="-0.39412">
        <ele>42.6</ele>
        <time>2023-05-02T14:19:05Z</time>
      </trkpt>
      <trkpt lat="49.1881" lon="-0.39417">
        <ele>42.8</ele>
        <time>2023-05-02T14:19:06Z</time>
      </trkpt>
      <trkpt lat="49.18814" lon="-0.39422">
        <ele>43</ele>
        <time>2023-05-02T14:19:07Z</time>
      </trkpt>
      <trkpt lat="49.18818" lon="-0.39426">
        <ele>43</ele>
        <time>2023-05-02T14:19:08Z</time>
      </trkpt>
      <trkpt lat="49.18822" lon="-0.39431">
        <ele>43.2</ele>
        <time>2023-05-02T14:19:09Z</time>
      </trkpt>
      <trkpt lat="49.18826" lon="-0.39436">
        <ele>43.2</ele>
        <time>2023-05-02T14:19:10Z</time>
      </trkpt>
      <trkpt lat="49.1883" lon="-0.3944">
        <ele>43.6</ele>
        <time>2023-05-02T14:19:11Z</time>
      </trkpt>
      <trkpt lat="49.18834" lon="-0.39444">
        <ele>43.8</ele>
        <time>2023-05-02T14:19:12Z</time>
      </trkpt>
      <trkpt lat="49.18838" lon="-0.39448">
        <ele>44</ele>
        <time>2023-05-02T14:19:13Z</time>
      </trkpt>
      <trkpt lat="49.18843" lon="-0.39451">
        <ele>44</ele>
        <time>2023-05-02T14:19:14Z</time>
      </trkpt>
      <trkpt lat="49.18847" lon="-0.39455">
        <ele>44.2</ele>
        <time>2023-05-02T14:19:15Z</time>
      </trkpt>
      <trkpt lat="49.18851" lon="-0.39458">
        <ele>44.4</ele>
        <time>2023-05-02T14:19:16Z</time>
      </trkpt>
      <trkpt lat="49.18854" lon="-0.39462">
        <ele>44.6</ele>
        <time>2023-05-02T14:19:17Z</time>
      </trkpt>
      <trkpt lat="49.18858" lon="-0.39465">
        <ele>44.8</ele>
        <time>2023-05-02T14:19:18Z</time>
      </trkpt>
      <trkpt lat="49.18862" lon="-0.39469">
        <ele>45</ele>
        <time>2023-05-02T14:19:19Z</time>
      </trkpt>
      <trkpt lat="49.18866" lon="-0.39472">
        <ele>45</ele>
        <time>2023-05-02T14:19:20Z</time>
      </trkpt>
      <trkpt lat="49.18869" lon="-0.39476">
        <ele>45.2</ele>
        <time>2023-05-02T14:19:21Z</time>
      </trkpt>
      <trkpt lat="49.18873" lon="-0.39479">
        <ele>45.6</ele>
        <time>2023-05-02T14:19:22Z</time>
      </trkpt>
      <trkpt lat="49.18877" lon="-0.39483">
        <ele>45.6</ele>
        <time>2023-05-02T14:19:23Z</time>
      </trkpt>
      <trkpt lat="49.1888" lon="-0.39487">
        <ele>45.8</ele>
        <time>2023-05-02T14:19:24Z</time>
      </trkpt>
      <trkpt lat="49.18884" lon="-0.3949">
        <ele>46</ele>
        <time>2023-05-02T14:19:25Z</time>
      </trkpt>
      <trkpt lat="49.18888" lon="-0.39494">
        <ele>46.2</ele>
        <time>2023-05-02T14:19:26Z</time>
      </trkpt>
      <trkpt lat="49.18892" lon="-0.39498">
        <ele>46.2</ele>
        <time>2023-05-02T14:19:27Z</time>
      </trkpt>
      <trkpt lat="49.18896" lon="-0.39501">
        <ele>46.6</ele>
        <time>2023-05-02T14:19:28Z</time>
      </trkpt>
      <trkpt lat="49.18899" lon="-0.39505">
        <ele>46.8</ele>
        <time>2023-05-02T14:19:29Z</time>
      </trkpt>
      <trkpt lat="49.18903" lon="-0.39508">
        <ele>47</ele>
        <time>2023-05-02T14:19:30Z</time>
      </trkpt>
      <trkpt lat="49.18908" lon="-0.39512">
        <ele>47.2</ele>
        <time>2023-05-02T14:19:31Z</time>
      </trkpt>
      <trkpt lat="49.18912" lon="-0.39516">
        <ele>47.4</ele>
        <time>2023-05-02T14:19:32Z</time>
      </trkpt>
      <trkpt lat="49.18916" lon="-0.39519">
        <ele>47.8</ele>
        <time>2023-05-02T14:19:33Z</time>
      </trkpt>
      <trkpt lat="49.1892" lon="-0.39523">
        <ele>48</ele>
        <time>2023-05-02T14:19:34Z</time>
      </trkpt>
      <trkpt lat="49.18923" lon="-0.39528">
        <ele>48.2</ele>
        <time>2023-05-02T14:19:35Z</time>
      </trkpt>
      <trkpt lat="49.18927" lon="-0.39532">
        <ele>48.4</ele>
        <time>2023-05-02T14:19:36Z</time>
      </trkpt>
      <trkpt lat="49.18931" lon="-0.39536">
        <ele>48.6</ele>
        <time>2023-05-02T14:19:37Z</time>
      </trkpt>
      <trkpt lat="49.18935" lon="-0.39541">
        <ele>48.8</ele>
        <time>2023-05-02T14:19:38Z</time>
      </trkpt>
      <trkpt lat="49.18939" lon="-0.39545">
        <ele>49</ele>
        <time>2023-05-02T14:19:39Z</time>
      </trkpt>
      <trkpt lat="49.18941" lon="-0.3955">
        <ele>49.2</ele>
        <time>2023-05-02T14:19:40Z</time>
      </trkpt>
      <trkpt lat="49.18941" lon="-0.39556">
        <ele>49.2</ele>
        <time>2023-05-02T14:19:41Z</time>
      </trkpt>
      <trkpt lat="49.1894" lon="-0.39561">
        <ele>49.4</ele>
        <time>2023-05-02T14:19:42Z</time>
      </trkpt>
      <trkpt lat="49.18937" lon="-0.39567">
        <ele>49.6</ele>
        <time>2023-05-02T14:19:43Z</time>
      </trkpt>
      <trkpt lat="49.18935" lon="-0.39573">
        <ele>49.8</ele>
        <time>2023-05-02T14:19:44Z</time>
      </trkpt>
      <trkpt lat="49.18932" lon="-0.39579">
        <ele>50</ele>
        <time>2023-05-02T14:19:45Z</time>
      </trkpt>
      <trkpt lat="49.1893" lon="-0.39585">
        <ele>50</ele>
        <time>2023-05-02T14:19:46Z</time>
      </trkpt>
      <trkpt lat="49.18927" lon="-0.39592">
        <ele>50.2</ele>
        <time>2023-05-02T14:19:47Z</time>
      </trkpt>
      <trkpt lat="49.18925" lon="-0.39599">
        <ele>50.4</ele>
        <time>2023-05-02T14:19:48Z</time>
      </trkpt>
      <trkpt lat="49.18922" lon="-0.39606">
        <ele>50.6</ele>
        <time>2023-05-02T14:19:49Z</time>
      </trkpt>
      <trkpt lat="49.1892" lon="-0.39613">
        <ele>50.8</ele>
        <time>2023-05-02T14:19:50Z</time>
      </trkpt>
      <trkpt lat="49.18918" lon="-0.3962">
        <ele>51</ele>
        <time>2023-05-02T14:19:51Z</time>
      </trkpt>
      <trkpt lat="49.18916" lon="-0.39628">
        <ele>51</ele>
        <time>2023-05-02T14:19:52Z</time>
      </trkpt>
      <trkpt lat="49.18914" lon="-0.39635">
        <ele>51</ele>
        <time>2023-05-02T14:19:53Z</time>
      </trkpt>
      <trkpt lat="49.18913" lon="-0.39643">
        <ele>51.2</ele>
        <time>2023-05-02T14:19:54Z</time>
      </trkpt>
      <trkpt lat="49.18911" lon="-0.3965">
        <ele>51.2</ele>
        <time>2023-05-02T14:19:55Z</time>
      </trkpt>
      <trkpt lat="49.1891" lon="-0.39658">
        <ele>51.2</ele>
        <time>2023-05-02T14:19:56Z</time>
      </trkpt>
      <trkpt lat="49.18909" lon="-0.39666">
        <ele>51.4</ele>
        <time>2023-05-02T14:19:57Z</time>
      </trkpt>
      <trkpt lat="49.18908" lon="-0.39674">
        <ele>51.4</ele>
        <time>2023-05-02T14:19:58Z</time>
      </trkpt>
      <trkpt lat="49.18908" lon="-0.39681">
        <ele>51.2</ele>
        <time>2023-05-02T14:19:59Z</time>
      </trkpt>
      <trkpt lat="49.18907" lon="-0.39689">
        <ele>51.2</ele>
        <time>2023-05-02T14:20:00Z</time>
      </trkpt>
      <trkpt lat="49.18907" lon="-0.39697">
        <ele>51.2</ele>
        <time>2023-05-02T14:20:01Z</time>
      </trkpt>
      <trkpt lat="49.18907" lon="-0.39705">
        <ele>51.2</ele>
        <time>2023-05-02T14:20:02Z</time>
      </trkpt>
      <trkpt lat="49.18906" lon="-0.39713">
        <ele>51.2</ele>
        <time>2023-05-02T14:20:03Z</time>
      </trkpt>
      <trkpt lat="49.18906" lon="-0.39721">
        <ele>51.2</ele>
        <time>2023-05-02T14:20:04Z</time>
      </trkpt>
      <trkpt lat="49.18906" lon="-0.39729">
        <ele>51</ele>
        <time>2023-05-02T14:20:05Z</time>
      </trkpt>
      <trkpt lat="49.18906" lon="-0.39736">
        <ele>51</ele>
        <time>2023-05-02T14:20:06Z</time>
      </trkpt>
      <trkpt lat="49.18905" lon="-0.39744">
        <ele>51</ele>
        <time>2023-05-02T14:20:07Z</time>
      </trkpt>
      <trkpt lat="49.18905" lon="-0.39752">
        <ele>51</ele>
        <time>2023-05-02T14:20:08Z</time>
      </trkpt>
      <trkpt lat="49.18905" lon="-0.3976">
        <ele>51</ele>
        <time>2023-05-02T14:20:09Z</time>
      </trkpt>
      <trkpt lat="49.18905" lon="-0.39768">
        <ele>51.2</ele>
        <time>2023-05-02T14:20:10Z</time>
      </trkpt>
      <trkpt lat="49.18905" lon="-0.39776">
        <ele>51.2</ele>
        <time>2023-05-02T14:20:11Z</time>
      </trkpt>
      <trkpt lat="49.18906" lon="-0.39783">
        <ele>51.4</ele>
        <time>2023-05-02T14:20:12Z</time>
      </trkpt>
      <trkpt lat="49.18906" lon="-0.39791">
        <ele>51.6</ele>
        <time>2023-05-02T14:20:13Z</time>
      </trkpt>
      <trkpt lat="49.18907" lon="-0.39799">
        <ele>51.8</ele>
        <time>2023-05-02T14:20:14Z</time>
      </trkpt>
      <trkpt lat="49.18908" lon="-0.39806">
        <ele>51.8</ele>
        <time>2023-05-02T14:20:15Z</time>
      </trkpt>
      <trkpt lat="49.18908" lon="-0.39814">
        <ele>52</ele>
        <time>2023-05-02T14:20:16Z</time>
      </trkpt>
      <trkpt lat="49.18909" lon="-0.39821">
        <ele>52</ele>
        <time>2023-05-02T14:20:17Z</time>
      </trkpt>
      <trkpt lat="49.18909" lon="-0.39828">
        <ele>52.2</ele>
        <time>2023-05-02T14:20:18Z</time>
      </trkpt>
      <trkpt lat="49.1891" lon="-0.39836">
        <ele>52.4</ele>
        <time>2023-05-02T14:20:19Z</time>
      </trkpt>
      <trkpt lat="49.18911" lon="-0.39843">
        <ele>52.6</ele>
        <time>2023-05-02T14:20:20Z</time>
      </trkpt>
      <trkpt lat="49.18911" lon="-0.39851">
        <ele>52.6</ele>
        <time>2023-05-02T14:20:21Z</time>
      </trkpt>
      <trkpt lat="49.18912" lon="-0.39858">
        <ele>52.6</ele>
        <time>2023-05-02T14:20:22Z</time>
      </trkpt>
      <trkpt lat="49.18912" lon="-0.39865">
        <ele>52.6</ele>
        <time>2023-05-02T14:20:23Z</time>
      </trkpt>
      <trkpt lat="49.18913" lon="-0.39872">
        <ele>52.8</ele>
        <time>2023-05-02T14:20:24Z</time>
      </trkpt>
      <trkpt lat="49.18913" lon="-0.39879">
        <ele>52.8</ele>
        <time>2023-05-02T14:20:25Z</time>
      </trkpt>
      <trkpt lat="49.18914" lon="-0.39886">
        <ele>52.8</ele>
        <time>2023-05-02T14:20:26Z</time>
      </trkpt>
      <trkpt lat="49.18914" lon="-0.39894">
        <ele>52.8</ele>
        <time>2023-05-02T14:20:27Z</time>
      </trkpt>
      <trkpt lat="49.18915" lon="-0.399">
        <ele>53</ele>
        <time>2023-05-02T14:20:28Z</time>
      </trkpt>
      <trkpt lat="49.18915" lon="-0.39908">
        <ele>53</ele>
        <time>2023-05-02T14:20:29Z</time>
      </trkpt>
      <trkpt lat="49.18915" lon="-0.39915">
        <ele>53</ele>
        <time>2023-05-02T14:20:30Z</time>
      </trkpt>
      <trkpt lat="49.18916" lon="-0.39921">
        <ele>53</ele>
        <time>2023-05-02T14:20:31Z</time>
      </trkpt>
      <trkpt lat="49.18916" lon="-0.39929">
        <ele>53.2</ele>
        <time>2023-05-02T14:20:32Z</time>
      </trkpt>
      <trkpt lat="49.18916" lon="-0.39936">
        <ele>53.4</ele>
        <time>2023-05-02T14:20:33Z</time>
      </trkpt>
      <trkpt lat="49.18916" lon="-0.39943">
        <ele>53.6</ele>
        <time>2023-05-02T14:20:34Z</time>
      </trkpt>
      <trkpt lat="49.18916" lon="-0.39949">
        <ele>53.8</ele>
        <time>2023-05-02T14:20:35Z</time>
      </trkpt>
      <trkpt lat="49.18916" lon="-0.39956">
        <ele>54</ele>
        <time>2023-05-02T14:20:36Z</time>
      </trkpt>
      <trkpt lat="49.18916" lon="-0.39963">
        <ele>54</ele>
        <time>2023-05-02T14:20:37Z</time>
      </trkpt>
      <trkpt lat="49.18915" lon="-0.3997">
        <ele>54.2</ele>
        <time>2023-05-02T14:20:38Z</time>
      </trkpt>
      <trkpt lat="49.18915" lon="-0.39977">
        <ele>54.2</ele>
        <time>2023-05-02T14:20:39Z</time>
      </trkpt>
      <trkpt lat="49.18915" lon="-0.39984">
        <ele>54.6</ele>
        <time>2023-05-02T14:20:40Z</time>
      </trkpt>
      <trkpt lat="49.18914" lon="-0.39991">
        <ele>54.6</ele>
        <time>2023-05-02T14:20:41Z</time>
      </trkpt>
      <trkpt lat="49.18913" lon="-0.39998">
        <ele>54.8</ele>
        <time>2023-05-02T14:20:42Z</time>
      </trkpt>
      <trkpt lat="49.18913" lon="-0.40005">
        <ele>54.8</ele>
        <time>2023-05-02T14:20:43Z</time>
      </trkpt>
      <trkpt lat="49.18912" lon="-0.40012">
        <ele>54.8</ele>
        <time>2023-05-02T14:20:44Z</time>
      </trkpt>
      <trkpt lat="49.18911" lon="-0.40019">
        <ele>54.8</ele>
        <time>2023-05-02T14:20:45Z</time>
      </trkpt>
      <trkpt lat="49.1891" lon="-0.40026">
        <ele>54.8</ele>
        <time>2023-05-02T14:20:46Z</time>
      </trkpt>
      <trkpt lat="49.18909" lon="-0.40033">
        <ele>55</ele>
        <time>2023-05-02T14:20:47Z</time>
      </trkpt>
      <trkpt lat="49.18908" lon="-0.4004">
        <ele>55</ele>
        <time>2023-05-02T14:20:48Z</time>
      </trkpt>
      <trkpt lat="49.18907" lon="-0.40047">
        <ele>55</ele>
        <time>2023-05-02T14:20:49Z</time>
      </trkpt>
      <trkpt lat="49.18906" lon="-0.40054">
        <ele>55</ele>
        <time>2023-05-02T14:20:50Z</time>
      </trkpt>
      <trkpt lat="49.18905" lon="-0.4006">
        <ele>54.8</ele>
        <time>2023-05-02T14:20:51Z</time>
      </trkpt>
      <trkpt lat="49.18903" lon="-0.40067">
        <ele>54.8</ele>
        <time>2023-05-02T14:20:52Z</time>
      </trkpt>
      <trkpt lat="49.18902" lon="-0.40074">
        <ele>54.8</ele>
        <time>2023-05-02T14:20:53Z</time>
      </trkpt>
      <trkpt lat="49.189" lon="-0.4008">
        <ele>54.8</ele>
        <time>2023-05-02T14:20:54Z</time>
      </trkpt>
      <trkpt lat="49.18899" lon="-0.40087">
        <ele>54.8</ele>
        <time>2023-05-02T14:20:55Z</time>
      </trkpt>
      <trkpt lat="49.18897" lon="-0.40094">
        <ele>54.6</ele>
        <time>2023-05-02T14:20:56Z</time>
      </trkpt>
      <trkpt lat="49.18896" lon="-0.401">
        <ele>54.6</ele>
        <time>2023-05-02T14:20:57Z</time>
      </trkpt>
      <trkpt lat="49.18894" lon="-0.40107">
        <ele>54.4</ele>
        <time>2023-05-02T14:20:58Z</time>
      </trkpt>
      <trkpt lat="49.18892" lon="-0.40113">
        <ele>54.2</ele>
        <time>2023-05-02T14:20:59Z</time>
      </trkpt>
      <trkpt lat="49.1889" lon="-0.40119">
        <ele>54.2</ele>
        <time>2023-05-02T14:21:00Z</time>
      </trkpt>
      <trkpt lat="49.18888" lon="-0.40126">
        <ele>54</ele>
        <time>2023-05-02T14:21:01Z</time>
      </trkpt>
      <trkpt lat="49.18887" lon="-0.40132">
        <ele>54</ele>
        <time>2023-05-02T14:21:02Z</time>
      </trkpt>
      <trkpt lat="49.18885" lon="-0.40139">
        <ele>54</ele>
        <time>2023-05-02T14:21:03Z</time>
      </trkpt>
      <trkpt lat="49.18884" lon="-0.40145">
        <ele>54</ele>
        <time>2023-05-02T14:21:04Z</time>
      </trkpt>
      <trkpt lat="49.18882" lon="-0.40152">
        <ele>54</ele>
        <time>2023-05-02T14:21:05Z</time>
      </trkpt>
      <trkpt lat="49.18881" lon="-0.40158">
        <ele>53.8</ele>
        <time>2023-05-02T14:21:06Z</time>
      </trkpt>
      <trkpt lat="49.1888" lon="-0.40165">
        <ele>53.8</ele>
        <time>2023-05-02T14:21:07Z</time>
      </trkpt>
      <trkpt lat="49.18879" lon="-0.40172">
        <ele>53.8</ele>
        <time>2023-05-02T14:21:08Z</time>
      </trkpt>
      <trkpt lat="49.18878" lon="-0.40178">
        <ele>54</ele>
        <time>2023-05-02T14:21:09Z</time>
      </trkpt>
      <trkpt lat="49.18876" lon="-0.40184">
        <ele>54</ele>
        <time>2023-05-02T14:21:10Z</time>
      </trkpt>
      <trkpt lat="49.18875" lon="-0.4019">
        <ele>54</ele>
        <time>2023-05-02T14:21:11Z</time>
      </trkpt>
      <trkpt lat="49.18874" lon="-0.40196">
        <ele>54.2</ele>
        <time>2023-05-02T14:21:12Z</time>
      </trkpt>
      <trkpt lat="49.18873" lon="-0.40203">
        <ele>54.2</ele>
        <time>2023-05-02T14:21:13Z</time>
      </trkpt>
      <trkpt lat="49.18873" lon="-0.40209">
        <ele>54.4</ele>
        <time>2023-05-02T14:21:14Z</time>
      </trkpt>
      <trkpt lat="49.18873" lon="-0.40215">
        <ele>54.6</ele>
        <time>2023-05-02T14:21:15Z</time>
      </trkpt>
      <trkpt lat="49.18873" lon="-0.40221">
        <ele>54.8</ele>
        <time>2023-05-02T14:21:16Z</time>
      </trkpt>
      <trkpt lat="49.18873" lon="-0.40226">
        <ele>54.8</ele>
        <time>2023-05-02T14:21:17Z</time>
      </trkpt>
      <trkpt lat="49.18872" lon="-0.4023">
        <ele>55</ele>
        <time>2023-05-02T14:21:18Z</time>
      </trkpt>
      <trkpt lat="49.1887" lon="-0.40232">
        <ele>54.8</ele>
        <time>2023-05-02T14:21:19Z</time>
      </trkpt>
      <trkpt lat="49.18868" lon="-0.4023">
        <ele>54.6</ele>
        <time>2023-05-02T14:21:20Z</time>
      </trkpt>
      <trkpt lat="49.18868" lon="-0.40226">
        <ele>54.6</ele>
        <time>2023-05-02T14:21:21Z</time>
      </trkpt>
      <trkpt lat="49.18869" lon="-0.40221">
        <ele>54.4</ele>
        <time>2023-05-02T14:21:22Z</time>
      </trkpt>
      <trkpt lat="49.1887" lon="-0.40216">
        <ele>54.4</ele>
        <time>2023-05-02T14:21:23Z</time>
      </trkpt>
      <trkpt lat="49.18871" lon="-0.40211">
        <ele>54.2</ele>
        <time>2023-05-02T14:21:24Z</time>
      </trkpt>
      <trkpt lat="49.18872" lon="-0.40206">
        <ele>54.2</ele>
        <time>2023-05-02T14:21:25Z</time>
      </trkpt>
      <trkpt lat="49.18873" lon="-0.402">
        <ele>54.2</ele>
        <time>2023-05-02T14:21:26Z</time>
      </trkpt>
      <trkpt lat="49.18874" lon="-0.40195">
        <ele>54</ele>
        <time>2023-05-02T14:21:27Z</time>
      </trkpt>
      <trkpt lat="49.18875" lon="-0.40189">
        <ele>54</ele>
        <time>2023-05-02T14:21:28Z</time>
      </trkpt>
      <trkpt lat="49.18875" lon="-0.40183">
        <ele>54</ele>
        <time>2023-05-02T14:21:29Z</time>
      </trkpt>
      <trkpt lat="49.18876" lon="-0.40178">
        <ele>53.8</ele>
        <time>2023-05-02T14:21:30Z</time>
      </trkpt>
      <trkpt lat="49.18877" lon="-0.40172">
        <ele>53.8</ele>
        <time>2023-05-02T14:21:31Z</time>
      </trkpt>
      <trkpt lat="49.18877" lon="-0.40166">
        <ele>53.6</ele>
        <time>2023-05-02T14:21:32Z</time>
      </trkpt>
      <trkpt lat="49.18879" lon="-0.40161">
        <ele>53.8</ele>
        <time>2023-05-02T14:21:33Z</time>
      </trkpt>
      <trkpt lat="49.1888" lon="-0.40155">
        <ele>53.8</ele>
        <time>2023-05-02T14:21:34Z</time>
      </trkpt>
      <trkpt lat="49.18881" lon="-0.40149">
        <ele>53.8</ele>
        <time>2023-05-02T14:21:35Z</time>
      </trkpt>
      <trkpt lat="49.18882" lon="-0.40143">
        <ele>53.8</ele>
        <time>2023-05-02T14:21:36Z</time>
      </trkpt>
      <trkpt lat="49.18884" lon="-0.40137">
        <ele>54</ele>
        <time>2023-05-02T14:21:37Z</time>
      </trkpt>
      <trkpt lat="49.18885" lon="-0.40131">
        <ele>54</ele>
        <time>2023-05-02T14:21:38Z</time>
      </trkpt>
      <trkpt lat="49.18887" lon="-0.40125">
        <ele>54</ele>
        <time>2023-05-02T14:21:39Z</time>
      </trkpt>
      <trkpt lat="49.18889" lon="-0.40119">
        <ele>54.2</ele>
        <time>2023-05-02T14:21:40Z</time>
      </trkpt>
      <trkpt lat="49.18891" lon="-0.40113">
        <ele>54.2</ele>
        <time>2023-05-02T14:21:41Z</time>
      </trkpt>
      <trkpt lat="49.18893" lon="-0.40107">
        <ele>54.2</ele>
        <time>2023-05-02T14:21:42Z</time>
      </trkpt>
      <trkpt lat="49.18894" lon="-0.40101">
        <ele>54.4</ele>
        <time>2023-05-02T14:21:43Z</time>
      </trkpt>
      <trkpt lat="49.18896" lon="-0.40096">
        <ele>54.6</ele>
        <time>2023-05-02T14:21:44Z</time>
      </trkpt>
      <trkpt lat="49.18897" lon="-0.40091">
        <ele>54.6</ele>
        <time>2023-05-02T14:21:45Z</time>
      </trkpt>
      <trkpt lat="49.18898" lon="-0.40087">
        <ele>54.8</ele>
        <time>2023-05-02T14:21:46Z</time>
      </trkpt>
      <trkpt lat="49.189" lon="-0.40085">
        <ele>54.8</ele>
        <time>2023-05-02T14:21:47Z</time>
      </trkpt>
      <trkpt lat="49.18902" lon="-0.40086">
        <ele>55</ele>
        <time>2023-05-02T14:21:48Z</time>
      </trkpt>
      <trkpt lat="49.18903" lon="-0.40089">
        <ele>55</ele>
        <time>2023-05-02T14:21:49Z</time>
      </trkpt>
      <trkpt lat="49.18902" lon="-0.40092">
        <ele>55</ele>
        <time>2023-05-02T14:21:50Z</time>
      </trkpt>
      <trkpt lat="49.189" lon="-0.40095">
        <ele>54.8</ele>
        <time>2023-05-02T14:21:51Z</time>
      </trkpt>
      <trkpt lat="49.18899" lon="-0.40098">
        <ele>54.8</ele>
        <time>2023-05-02T14:21:52Z</time>
      </trkpt>
      <trkpt lat="49.18897" lon="-0.40102">
        <ele>54.6</ele>
        <time>2023-05-02T14:21:53Z</time>
      </trkpt>
      <trkpt lat="49.18896" lon="-0.40106">
        <ele>54.6</ele>
        <time>2023-05-02T14:21:54Z</time>
      </trkpt>
      <trkpt lat="49.18894" lon="-0.4011">
        <ele>54.6</ele>
        <time>2023-05-02T14:21:55Z</time>
      </trkpt>
      <trkpt lat="49.18893" lon="-0.40113">
        <ele>54.4</ele>
        <time>2023-05-02T14:21:56Z</time>
      </trkpt>
      <trkpt lat="49.1889" lon="-0.40116">
        <ele>54.2</ele>
        <time>2023-05-02T14:21:57Z</time>
      </trkpt>
      <trkpt lat="49.18887" lon="-0.40118">
        <ele>54</ele>
        <time>2023-05-02T14:21:58Z</time>
      </trkpt>
      <trkpt lat="49.18886" lon="-0.4012">
        <ele>54</ele>
        <time>2023-05-02T14:21:59Z</time>
      </trkpt>
      <trkpt lat="49.18885" lon="-0.40121">
        <ele>54</ele>
        <time>2023-05-02T14:22:00Z</time>
      </trkpt>
      <trkpt lat="49.18884" lon="-0.40121">
        <ele>53.8</ele>
        <time>2023-05-02T14:22:01Z</time>
      </trkpt>
      <trkpt lat="49.18883" lon="-0.40121">
        <ele>53.8</ele>
        <time>2023-05-02T14:22:02Z</time>
      </trkpt>
      <trkpt lat="49.18882" lon="-0.4012">
        <ele>53.8</ele>
        <time>2023-05-02T14:22:03Z</time>
      </trkpt>
      <trkpt lat="49.18882" lon="-0.4012">
        <ele>53.8</ele>
        <time>2023-05-02T14:22:04Z</time>
      </trkpt>
      <trkpt lat="49.18882" lon="-0.4012">
        <ele>53.8</ele>
        <time>2023-05-02T14:22:05Z</time>
      </trkpt>
      <trkpt lat="49.18882" lon="-0.4012">
        <ele>53.8</ele>
        <time>2023-05-02T14:22:06Z</time>
      </trkpt>
      <trkpt lat="49.18882" lon="-0.4012">
        <ele>53.8</ele>
        <time>2023-05-02T14:22:07Z</time>
      </trkpt>
      <trkpt lat="49.18882" lon="-0.4012">
        <ele>53.8</ele>
        <time>2023-05-02T14:22:08Z</time>
      </trkpt>
      <trkpt lat="49.18882" lon="-0.4012">
        <ele>53.8</ele>
        <time>2023-05-02T14:22:09Z</time>
      </trkpt>
      <trkpt lat="49.18882" lon="-0.4012">
        <ele>53.8</ele>
        <time>2023-05-02T14:22:10Z</time>
      </trkpt>
      <trkpt lat="49.18882" lon="-0.4012">
        <ele>53.8</ele>
        <time>2023-05-02T14:22:11Z</time>
      </trkpt>
      <trkpt lat="49.18882" lon="-0.4012">
        <ele>53.8</ele>
        <time>2023-05-02T14:22:12Z</time>
      </trkpt>
      <trkpt lat="49.18882" lon="-0.4012">
        <ele>53.8</ele>
        <time>2023-05-02T14:22:13Z</time>
      </trkpt>
      <trkpt lat="49.18882" lon="-0.4012">
        <ele>53.8</ele>
        <time>2023-05-02T14:22:14Z</time>
      </trkpt>
      <trkpt lat="49.18882" lon="-0.4012">
        <ele>53.8</ele>
        <time>2023-05-02T14:22:15Z</time>
      </trkpt>
      <trkpt lat="49.18882" lon="-0.4012">
        <ele>53.8</ele>
        <time>2023-05-02T14:22:16Z</time>
      </trkpt>
      <trkpt lat="49.18882" lon="-0.4012">
        <ele>53.8</ele>
        <time>2023-05-02T14:22:17Z</time>
      </trkpt>
      <trkpt lat="49.18882" lon="-0.4012">
        <ele>53.8</ele>
        <time>2023-05-02T14:22:18Z</time>
      </trkpt>
    </trkseg>
  </trk>
</gpx>